<?xml version="1.0" encoding="utf-8"?>
<gpx xsi:schemaLocation="http://www.topografix.com/GPX/1/1 http://www.topografix.com/GPX/1/1/gpx.xsd http://www.garmin.com/xmlschemas/GpxExtensions/v3 http://www.garmin.com/xmlschemas/GpxExtensionsv3.xsd http://www.garmin.com/xmlschemas/TrackPointExtension/v1 http://www.garmin.com/xmlschemas/TrackPointExtensionv1.xsd" version="1.1" creator="Sports Tracker" xmlns="http://www.topografix.com/GPX/1/1" xmlns:xsi="http://www.w3.org/2001/XMLSchema-instance" xmlns:gpxtpx="http://www.garmin.com/xmlschemas/TrackPointExtension/v1" xmlns:gpxx="http://www.garmin.com/xmlschemas/GpxExtensions/v3">
  <metadata>
    <name>Other1 9/11/2013/13:06:47.56</name>
    <desc>Parapente desde Jumilla</desc>
    <author>
      <name>Paco Navarro Gonzalez</name>
    </author>
    <link href="www.sports-tracker.com">
      <text>Sports Tracker</text>
    </link>
  </metadata>
  <trk>
    <trkseg>
      <trkpt lat="38.50927" lon="-1.25545">
        <ele>1044.8</ele>
        <time>2013-11-09T13:06:47.56</time>
      </trkpt>
      <trkpt lat="38.50927" lon="-1.25545">
        <ele>1044.8</ele>
        <time>2013-11-09T13:06:50.84</time>
      </trkpt>
      <trkpt lat="38.50929" lon="-1.2554283333333334">
        <ele>1044.7</ele>
        <time>2013-11-09T13:06:51.84</time>
      </trkpt>
      <trkpt lat="38.509298333333334" lon="-1.25542">
        <ele>1044.6000000000001</ele>
        <time>2013-11-09T13:06:52.82</time>
      </trkpt>
      <trkpt lat="38.509298333333334" lon="-1.25541">
        <ele>1044.5000000000002</ele>
        <time>2013-11-09T13:06:53.80</time>
      </trkpt>
      <trkpt lat="38.509296666666664" lon="-1.2554">
        <ele>1044.3000000000002</ele>
        <time>2013-11-09T13:06:54.80</time>
      </trkpt>
      <trkpt lat="38.509298333333334" lon="-1.2553933333333334">
        <ele>1044.2000000000003</ele>
        <time>2013-11-09T13:06:55.80</time>
      </trkpt>
      <trkpt lat="38.509335" lon="-1.2553633333333334">
        <ele>1044.1</ele>
        <time>2013-11-09T13:07:02.78</time>
      </trkpt>
      <trkpt lat="38.50933666666667" lon="-1.2553566666666667">
        <ele>1044.3</ele>
        <time>2013-11-09T13:07:03.40</time>
      </trkpt>
      <trkpt lat="38.50930833333334" lon="-1.255405">
        <ele>1044.5</ele>
        <time>2013-11-09T13:07:07.59</time>
      </trkpt>
      <trkpt lat="38.5093" lon="-1.2554216666666667">
        <ele>1044.5</ele>
        <time>2013-11-09T13:07:08.63</time>
      </trkpt>
      <trkpt lat="38.509295" lon="-1.255435">
        <ele>1044.6</ele>
        <time>2013-11-09T13:07:09.64</time>
      </trkpt>
      <trkpt lat="38.509295" lon="-1.2554416666666666">
        <ele>1044.6</ele>
        <time>2013-11-09T13:07:10.70</time>
      </trkpt>
      <trkpt lat="38.50928" lon="-1.2554633333333334">
        <ele>1044.6</ele>
        <time>2013-11-09T13:07:14.63</time>
      </trkpt>
      <trkpt lat="38.509275" lon="-1.2554716666666668">
        <ele>1044.6</ele>
        <time>2013-11-09T13:07:15.64</time>
      </trkpt>
      <trkpt lat="38.50926833333333" lon="-1.25548">
        <ele>1044.5</ele>
        <time>2013-11-09T13:07:16.63</time>
      </trkpt>
      <trkpt lat="38.50926" lon="-1.2554883333333333">
        <ele>1044.4</ele>
        <time>2013-11-09T13:07:17.63</time>
      </trkpt>
      <trkpt lat="38.509253333333334" lon="-1.2555">
        <ele>1044.4</ele>
        <time>2013-11-09T13:07:18.60</time>
      </trkpt>
      <trkpt lat="38.50925" lon="-1.2555066666666668">
        <ele>1044.4</ele>
        <time>2013-11-09T13:07:19.63</time>
      </trkpt>
      <trkpt lat="38.50924666666667" lon="-1.2555133333333333">
        <ele>1044.4</ele>
        <time>2013-11-09T13:07:20.63</time>
      </trkpt>
      <trkpt lat="38.509233333333334" lon="-1.2554633333333334">
        <ele>1044.6</ele>
        <time>2013-11-09T13:07:27.64</time>
      </trkpt>
      <trkpt lat="38.50924" lon="-1.25546">
        <ele>1044.6</ele>
        <time>2013-11-09T13:07:28.70</time>
      </trkpt>
      <trkpt lat="38.509245" lon="-1.2554566666666667">
        <ele>1044.6</ele>
        <time>2013-11-09T13:07:29.69</time>
      </trkpt>
      <trkpt lat="38.509235" lon="-1.255435">
        <ele>1044.7</ele>
        <time>2013-11-09T13:07:36.66</time>
      </trkpt>
      <trkpt lat="38.50923" lon="-1.2554283333333334">
        <ele>1044.7</ele>
        <time>2013-11-09T13:07:37.70</time>
      </trkpt>
      <trkpt lat="38.50926" lon="-1.2554716666666668">
        <ele>1044.6</ele>
        <time>2013-11-09T13:07:44.65</time>
      </trkpt>
      <trkpt lat="38.509256666666666" lon="-1.25548">
        <ele>1044.5</ele>
        <time>2013-11-09T13:07:45.65</time>
      </trkpt>
      <trkpt lat="38.509253333333334" lon="-1.2554866666666666">
        <ele>1044.5</ele>
        <time>2013-11-09T13:07:46.55</time>
      </trkpt>
      <trkpt lat="38.509255" lon="-1.2554783333333333">
        <ele>1044</ele>
        <time>2013-11-09T13:07:53.68</time>
      </trkpt>
      <trkpt lat="38.509235" lon="-1.255435">
        <ele>1043.5</ele>
        <time>2013-11-09T13:08:00.68</time>
      </trkpt>
      <trkpt lat="38.509238333333336" lon="-1.25543">
        <ele>1043.5</ele>
        <time>2013-11-09T13:08:01.65</time>
      </trkpt>
      <trkpt lat="38.50926333333334" lon="-1.255465">
        <ele>1043.6</ele>
        <time>2013-11-09T13:08:08.67</time>
      </trkpt>
      <trkpt lat="38.50927333333333" lon="-1.2555583333333333">
        <ele>1045.4</ele>
        <time>2013-11-09T13:08:15.63</time>
      </trkpt>
      <trkpt lat="38.50929333333333" lon="-1.2555833333333333">
        <ele>1045.3000000000002</ele>
        <time>2013-11-09T13:08:16.63</time>
      </trkpt>
      <trkpt lat="38.50931166666667" lon="-1.2556116666666668">
        <ele>1045.3000000000002</ele>
        <time>2013-11-09T13:08:17.62</time>
      </trkpt>
      <trkpt lat="38.509345" lon="-1.2556366666666667">
        <ele>1045.2000000000003</ele>
        <time>2013-11-09T13:08:18.62</time>
      </trkpt>
      <trkpt lat="38.50938333333333" lon="-1.2556716666666667">
        <ele>1045.2000000000003</ele>
        <time>2013-11-09T13:08:19.62</time>
      </trkpt>
      <trkpt lat="38.509418333333336" lon="-1.255705">
        <ele>1045.3000000000002</ele>
        <time>2013-11-09T13:08:20.62</time>
      </trkpt>
      <trkpt lat="38.509425" lon="-1.2557616666666667">
        <ele>1045.4</ele>
        <time>2013-11-09T13:08:21.62</time>
      </trkpt>
      <trkpt lat="38.50939666666667" lon="-1.2558016666666667">
        <ele>1046.9</ele>
        <time>2013-11-09T13:08:22.63</time>
      </trkpt>
      <trkpt lat="38.50936333333333" lon="-1.2558383333333334">
        <ele>1048.3000000000002</ele>
        <time>2013-11-09T13:08:23.62</time>
      </trkpt>
      <trkpt lat="38.509335" lon="-1.2558666666666667">
        <ele>1049.6000000000001</ele>
        <time>2013-11-09T13:08:24.62</time>
      </trkpt>
      <trkpt lat="38.509303333333335" lon="-1.2558983333333333">
        <ele>1049.7</ele>
        <time>2013-11-09T13:08:25.62</time>
      </trkpt>
      <trkpt lat="38.50929333333333" lon="-1.255935">
        <ele>1049.9</ele>
        <time>2013-11-09T13:08:26.62</time>
      </trkpt>
      <trkpt lat="38.50928" lon="-1.2559833333333335">
        <ele>1051.6000000000001</ele>
        <time>2013-11-09T13:08:27.62</time>
      </trkpt>
      <trkpt lat="38.50926333333334" lon="-1.2560316666666667">
        <ele>1053.1000000000001</ele>
        <time>2013-11-09T13:08:28.59</time>
      </trkpt>
      <trkpt lat="38.509238333333336" lon="-1.2560683333333333">
        <ele>1053.2</ele>
        <time>2013-11-09T13:08:29.62</time>
      </trkpt>
      <trkpt lat="38.50921" lon="-1.25611">
        <ele>1053.4</ele>
        <time>2013-11-09T13:08:30.62</time>
      </trkpt>
      <trkpt lat="38.50918166666666" lon="-1.2561533333333332">
        <ele>1053.5</ele>
        <time>2013-11-09T13:08:31.62</time>
      </trkpt>
      <trkpt lat="38.509168333333335" lon="-1.2562">
        <ele>1053.6</ele>
        <time>2013-11-09T13:08:32.63</time>
      </trkpt>
      <trkpt lat="38.50916" lon="-1.256245">
        <ele>1054.3</ele>
        <time>2013-11-09T13:08:33.63</time>
      </trkpt>
      <trkpt lat="38.50915666666667" lon="-1.2562966666666666">
        <ele>1055.6</ele>
        <time>2013-11-09T13:08:34.58</time>
      </trkpt>
      <trkpt lat="38.509155" lon="-1.2563466666666667">
        <ele>1057</ele>
        <time>2013-11-09T13:08:35.62</time>
      </trkpt>
      <trkpt lat="38.50915166666667" lon="-1.256395">
        <ele>1058.6</ele>
        <time>2013-11-09T13:08:36.62</time>
      </trkpt>
      <trkpt lat="38.50915333333333" lon="-1.2564433333333334">
        <ele>1058.8</ele>
        <time>2013-11-09T13:08:37.62</time>
      </trkpt>
      <trkpt lat="38.50915333333333" lon="-1.2564883333333334">
        <ele>1059</ele>
        <time>2013-11-09T13:08:38.63</time>
      </trkpt>
      <trkpt lat="38.50915" lon="-1.256535">
        <ele>1061.3</ele>
        <time>2013-11-09T13:08:39.62</time>
      </trkpt>
      <trkpt lat="38.509143333333334" lon="-1.2565883333333334">
        <ele>1063.2</ele>
        <time>2013-11-09T13:08:40.57</time>
      </trkpt>
      <trkpt lat="38.50912833333334" lon="-1.25665">
        <ele>1065.3</ele>
        <time>2013-11-09T13:08:41.63</time>
      </trkpt>
      <trkpt lat="38.50912" lon="-1.2567016666666666">
        <ele>1067.2</ele>
        <time>2013-11-09T13:08:42.63</time>
      </trkpt>
      <trkpt lat="38.50911333333333" lon="-1.2567483333333334">
        <ele>1067.3</ele>
        <time>2013-11-09T13:08:43.67</time>
      </trkpt>
      <trkpt lat="38.50911166666667" lon="-1.2567916666666668">
        <ele>1067.5</ele>
        <time>2013-11-09T13:08:44.58</time>
      </trkpt>
      <trkpt lat="38.509105" lon="-1.2568283333333334">
        <ele>1067.7</ele>
        <time>2013-11-09T13:08:45.62</time>
      </trkpt>
      <trkpt lat="38.50909333333333" lon="-1.256885">
        <ele>1070</ele>
        <time>2013-11-09T13:08:46.62</time>
      </trkpt>
      <trkpt lat="38.50908166666667" lon="-1.2569566666666667">
        <ele>1071.8</ele>
        <time>2013-11-09T13:08:47.63</time>
      </trkpt>
      <trkpt lat="38.50907" lon="-1.257025">
        <ele>1073.3</ele>
        <time>2013-11-09T13:08:48.62</time>
      </trkpt>
      <trkpt lat="38.509055" lon="-1.257095">
        <ele>1074.6</ele>
        <time>2013-11-09T13:08:49.62</time>
      </trkpt>
      <trkpt lat="38.509045" lon="-1.2571533333333333">
        <ele>1076</ele>
        <time>2013-11-09T13:08:50.63</time>
      </trkpt>
      <trkpt lat="38.50904333333333" lon="-1.25719">
        <ele>1076.1</ele>
        <time>2013-11-09T13:08:51.63</time>
      </trkpt>
      <trkpt lat="38.509053333333334" lon="-1.2572333333333332">
        <ele>1076.1999999999998</ele>
        <time>2013-11-09T13:08:52.62</time>
      </trkpt>
      <trkpt lat="38.509065" lon="-1.257285">
        <ele>1077.2999999999997</ele>
        <time>2013-11-09T13:08:53.62</time>
      </trkpt>
      <trkpt lat="38.50908" lon="-1.2573433333333333">
        <ele>1078.5999999999997</ele>
        <time>2013-11-09T13:08:54.63</time>
      </trkpt>
      <trkpt lat="38.50909166666667" lon="-1.2574">
        <ele>1080.3999999999996</ele>
        <time>2013-11-09T13:08:55.63</time>
      </trkpt>
      <trkpt lat="38.509101666666666" lon="-1.2574483333333333">
        <ele>1082.3999999999996</ele>
        <time>2013-11-09T13:08:56.58</time>
      </trkpt>
      <trkpt lat="38.50911" lon="-1.2574783333333333">
        <ele>1084.0999999999997</ele>
        <time>2013-11-09T13:08:57.62</time>
      </trkpt>
      <trkpt lat="38.50912" lon="-1.2575033333333334">
        <ele>1084.1999999999996</ele>
        <time>2013-11-09T13:08:58.62</time>
      </trkpt>
      <trkpt lat="38.50913666666667" lon="-1.2575166666666666">
        <ele>1084.3999999999996</ele>
        <time>2013-11-09T13:08:59.57</time>
      </trkpt>
      <trkpt lat="38.509166666666665" lon="-1.257535">
        <ele>1084.5999999999997</ele>
        <time>2013-11-09T13:09:00.63</time>
      </trkpt>
      <trkpt lat="38.50921" lon="-1.2575333333333334">
        <ele>1086.2999999999997</ele>
        <time>2013-11-09T13:09:01.63</time>
      </trkpt>
      <trkpt lat="38.509256666666666" lon="-1.257515">
        <ele>1088.1999999999998</ele>
        <time>2013-11-09T13:09:02.67</time>
      </trkpt>
      <trkpt lat="38.50932" lon="-1.2574516666666666">
        <ele>1088.9999999999998</ele>
        <time>2013-11-09T13:09:03.67</time>
      </trkpt>
      <trkpt lat="38.509366666666665" lon="-1.2573416666666666">
        <ele>1089.3999999999999</ele>
        <time>2013-11-09T13:09:04.62</time>
      </trkpt>
      <trkpt lat="38.509385" lon="-1.2571616666666667">
        <ele>1090.1</ele>
        <time>2013-11-09T13:09:05.60</time>
      </trkpt>
      <trkpt lat="38.509335" lon="-1.2569283333333332">
        <ele>1090.3</ele>
        <time>2013-11-09T13:09:06.63</time>
      </trkpt>
      <trkpt lat="38.5092" lon="-1.2567300000000001">
        <ele>1090.3999999999999</ele>
        <time>2013-11-09T13:09:07.62</time>
      </trkpt>
      <trkpt lat="38.50902166666667" lon="-1.25664">
        <ele>1090.6</ele>
        <time>2013-11-09T13:09:08.62</time>
      </trkpt>
      <trkpt lat="38.50889166666666" lon="-1.2566216666666667">
        <ele>1091</ele>
        <time>2013-11-09T13:09:09.65</time>
      </trkpt>
      <trkpt lat="38.508795" lon="-1.25663">
        <ele>1091.5</ele>
        <time>2013-11-09T13:09:10.62</time>
      </trkpt>
      <trkpt lat="38.508725" lon="-1.2566733333333333">
        <ele>1092</ele>
        <time>2013-11-09T13:09:11.59</time>
      </trkpt>
      <trkpt lat="38.508678333333336" lon="-1.2567133333333333">
        <ele>1092</ele>
        <time>2013-11-09T13:09:12.62</time>
      </trkpt>
      <trkpt lat="38.508665" lon="-1.2567566666666667">
        <ele>1092.2</ele>
        <time>2013-11-09T13:09:13.63</time>
      </trkpt>
      <trkpt lat="38.508655" lon="-1.2568133333333333">
        <ele>1093.1000000000001</ele>
        <time>2013-11-09T13:09:14.65</time>
      </trkpt>
      <trkpt lat="38.508645" lon="-1.2568783333333333">
        <ele>1094.1000000000001</ele>
        <time>2013-11-09T13:09:15.62</time>
      </trkpt>
      <trkpt lat="38.508635" lon="-1.2569466666666667">
        <ele>1095.4</ele>
        <time>2013-11-09T13:09:16.62</time>
      </trkpt>
      <trkpt lat="38.508625" lon="-1.2570133333333333">
        <ele>1095.6000000000001</ele>
        <time>2013-11-09T13:09:17.62</time>
      </trkpt>
      <trkpt lat="38.50862" lon="-1.2570683333333332">
        <ele>1097.4</ele>
        <time>2013-11-09T13:09:18.62</time>
      </trkpt>
      <trkpt lat="38.50862166666667" lon="-1.2571083333333333">
        <ele>1097.6000000000001</ele>
        <time>2013-11-09T13:09:19.58</time>
      </trkpt>
      <trkpt lat="38.50863" lon="-1.2571366666666668">
        <ele>1097.8000000000002</ele>
        <time>2013-11-09T13:09:20.63</time>
      </trkpt>
      <trkpt lat="38.508631666666666" lon="-1.2571683333333334">
        <ele>1098.1000000000001</ele>
        <time>2013-11-09T13:09:21.58</time>
      </trkpt>
      <trkpt lat="38.508633333333336" lon="-1.2572216666666667">
        <ele>1101.2</ele>
        <time>2013-11-09T13:09:22.62</time>
      </trkpt>
      <trkpt lat="38.508631666666666" lon="-1.2572883333333333">
        <ele>1104</ele>
        <time>2013-11-09T13:09:23.63</time>
      </trkpt>
      <trkpt lat="38.508628333333334" lon="-1.2573616666666667">
        <ele>1106.5</ele>
        <time>2013-11-09T13:09:24.63</time>
      </trkpt>
      <trkpt lat="38.508625" lon="-1.2574183333333333">
        <ele>1109.1</ele>
        <time>2013-11-09T13:09:25.63</time>
      </trkpt>
      <trkpt lat="38.50862333333333" lon="-1.2574783333333333">
        <ele>1111.3</ele>
        <time>2013-11-09T13:09:26.62</time>
      </trkpt>
      <trkpt lat="38.50862333333333" lon="-1.2575166666666666">
        <ele>1111.6</ele>
        <time>2013-11-09T13:09:27.62</time>
      </trkpt>
      <trkpt lat="38.50862" lon="-1.257555">
        <ele>1111.8999999999999</ele>
        <time>2013-11-09T13:09:28.63</time>
      </trkpt>
      <trkpt lat="38.50861166666667" lon="-1.2576016666666667">
        <ele>1114.4999999999998</ele>
        <time>2013-11-09T13:09:29.63</time>
      </trkpt>
      <trkpt lat="38.508601666666664" lon="-1.2576616666666667">
        <ele>1116.4999999999998</ele>
        <time>2013-11-09T13:09:30.58</time>
      </trkpt>
      <trkpt lat="38.50859" lon="-1.25773">
        <ele>1118.2999999999997</ele>
        <time>2013-11-09T13:09:31.67</time>
      </trkpt>
      <trkpt lat="38.508583333333334" lon="-1.25778">
        <ele>1119.9999999999998</ele>
        <time>2013-11-09T13:09:32.62</time>
      </trkpt>
      <trkpt lat="38.508561666666665" lon="-1.257845">
        <ele>1121.6999999999998</ele>
        <time>2013-11-09T13:09:33.63</time>
      </trkpt>
      <trkpt lat="38.50853333333333" lon="-1.25791">
        <ele>1122.6999999999998</ele>
        <time>2013-11-09T13:09:34.62</time>
      </trkpt>
      <trkpt lat="38.508498333333335" lon="-1.257965">
        <ele>1123.6999999999998</ele>
        <time>2013-11-09T13:09:35.62</time>
      </trkpt>
      <trkpt lat="38.50844" lon="-1.25802">
        <ele>1124.6999999999998</ele>
        <time>2013-11-09T13:09:36.62</time>
      </trkpt>
      <trkpt lat="38.50837333333333" lon="-1.2580716666666667">
        <ele>1125.7999999999997</ele>
        <time>2013-11-09T13:09:37.62</time>
      </trkpt>
      <trkpt lat="38.508305" lon="-1.2581283333333333">
        <ele>1126.5999999999997</ele>
        <time>2013-11-09T13:09:38.62</time>
      </trkpt>
      <trkpt lat="38.508228333333335" lon="-1.2581866666666666">
        <ele>1127.1999999999996</ele>
        <time>2013-11-09T13:09:39.63</time>
      </trkpt>
      <trkpt lat="38.50814666666667" lon="-1.2582383333333333">
        <ele>1127.7999999999995</ele>
        <time>2013-11-09T13:09:40.62</time>
      </trkpt>
      <trkpt lat="38.50806333333333" lon="-1.25826">
        <ele>1129.3999999999994</ele>
        <time>2013-11-09T13:09:41.58</time>
      </trkpt>
      <trkpt lat="38.507975" lon="-1.2582716666666667">
        <ele>1130.6999999999994</ele>
        <time>2013-11-09T13:09:42.62</time>
      </trkpt>
      <trkpt lat="38.50787666666667" lon="-1.2582849999999999">
        <ele>1132.2999999999993</ele>
        <time>2013-11-09T13:09:43.65</time>
      </trkpt>
      <trkpt lat="38.507778333333334" lon="-1.2583066666666667">
        <ele>1133.9999999999993</ele>
        <time>2013-11-09T13:09:44.60</time>
      </trkpt>
      <trkpt lat="38.50768" lon="-1.258335">
        <ele>1136.0999999999992</ele>
        <time>2013-11-09T13:09:45.62</time>
      </trkpt>
      <trkpt lat="38.507615" lon="-1.2583583333333332">
        <ele>1136.8999999999992</ele>
        <time>2013-11-09T13:09:46.62</time>
      </trkpt>
      <trkpt lat="38.507558333333336" lon="-1.2583966666666666">
        <ele>1136.999999999999</ele>
        <time>2013-11-09T13:09:47.67</time>
      </trkpt>
      <trkpt lat="38.50749833333333" lon="-1.2584366666666666">
        <ele>1136.499999999999</ele>
        <time>2013-11-09T13:09:48.64</time>
      </trkpt>
      <trkpt lat="38.50744" lon="-1.25847">
        <ele>1136.099999999999</ele>
        <time>2013-11-09T13:09:49.58</time>
      </trkpt>
      <trkpt lat="38.50736333333333" lon="-1.258515">
        <ele>1136.099999999999</ele>
        <time>2013-11-09T13:09:50.58</time>
      </trkpt>
      <trkpt lat="38.507288333333335" lon="-1.2585616666666666">
        <ele>1136.099999999999</ele>
        <time>2013-11-09T13:09:51.63</time>
      </trkpt>
      <trkpt lat="38.50722833333333" lon="-1.2586233333333334">
        <ele>1135.799999999999</ele>
        <time>2013-11-09T13:09:52.63</time>
      </trkpt>
      <trkpt lat="38.507175" lon="-1.258685">
        <ele>1135.399999999999</ele>
        <time>2013-11-09T13:09:53.63</time>
      </trkpt>
      <trkpt lat="38.50714166666667" lon="-1.258735">
        <ele>1135.399999999999</ele>
        <time>2013-11-09T13:09:54.58</time>
      </trkpt>
      <trkpt lat="38.50711666666667" lon="-1.258785">
        <ele>1135.4999999999989</ele>
        <time>2013-11-09T13:09:55.58</time>
      </trkpt>
      <trkpt lat="38.507095" lon="-1.2588316666666666">
        <ele>1135.899999999999</ele>
        <time>2013-11-09T13:09:56.56</time>
      </trkpt>
      <trkpt lat="38.507088333333336" lon="-1.258875">
        <ele>1135.899999999999</ele>
        <time>2013-11-09T13:09:57.57</time>
      </trkpt>
      <trkpt lat="38.507083333333334" lon="-1.2589166666666667">
        <ele>1135.899999999999</ele>
        <time>2013-11-09T13:09:58.57</time>
      </trkpt>
      <trkpt lat="38.507081666666664" lon="-1.2589533333333334">
        <ele>1135.899999999999</ele>
        <time>2013-11-09T13:09:59.59</time>
      </trkpt>
      <trkpt lat="38.507081666666664" lon="-1.2589966666666665">
        <ele>1135.799999999999</ele>
        <time>2013-11-09T13:10:00.65</time>
      </trkpt>
      <trkpt lat="38.50709" lon="-1.2590383333333333">
        <ele>1135.6999999999991</ele>
        <time>2013-11-09T13:10:01.63</time>
      </trkpt>
      <trkpt lat="38.507105" lon="-1.25908">
        <ele>1134.5999999999992</ele>
        <time>2013-11-09T13:10:02.64</time>
      </trkpt>
      <trkpt lat="38.507128333333334" lon="-1.2591116666666666">
        <ele>1133.4999999999993</ele>
        <time>2013-11-09T13:10:03.63</time>
      </trkpt>
      <trkpt lat="38.50716833333333" lon="-1.2591466666666666">
        <ele>1132.7999999999993</ele>
        <time>2013-11-09T13:10:04.65</time>
      </trkpt>
      <trkpt lat="38.507218333333334" lon="-1.2591683333333332">
        <ele>1132.2999999999993</ele>
        <time>2013-11-09T13:10:05.63</time>
      </trkpt>
      <trkpt lat="38.507261666666665" lon="-1.2591716666666666">
        <ele>1132.1999999999994</ele>
        <time>2013-11-09T13:10:06.57</time>
      </trkpt>
      <trkpt lat="38.507308333333334" lon="-1.259175">
        <ele>1132.0999999999995</ele>
        <time>2013-11-09T13:10:07.58</time>
      </trkpt>
      <trkpt lat="38.507353333333334" lon="-1.2591816666666666">
        <ele>1131.8999999999994</ele>
        <time>2013-11-09T13:10:08.58</time>
      </trkpt>
      <trkpt lat="38.507395" lon="-1.2592033333333332">
        <ele>1129.6999999999994</ele>
        <time>2013-11-09T13:10:09.58</time>
      </trkpt>
      <trkpt lat="38.50743" lon="-1.25923">
        <ele>1129.4999999999993</ele>
        <time>2013-11-09T13:10:10.65</time>
      </trkpt>
      <trkpt lat="38.50745833333333" lon="-1.25925">
        <ele>1129.1999999999994</ele>
        <time>2013-11-09T13:10:11.64</time>
      </trkpt>
      <trkpt lat="38.50748333333333" lon="-1.2592716666666668">
        <ele>1128.8999999999994</ele>
        <time>2013-11-09T13:10:12.62</time>
      </trkpt>
      <trkpt lat="38.50750166666667" lon="-1.25929">
        <ele>1128.6999999999994</ele>
        <time>2013-11-09T13:10:13.65</time>
      </trkpt>
      <trkpt lat="38.50752166666667" lon="-1.2593066666666668">
        <ele>1128.3999999999994</ele>
        <time>2013-11-09T13:10:14.67</time>
      </trkpt>
      <trkpt lat="38.507553333333334" lon="-1.25932">
        <ele>1128.0999999999995</ele>
        <time>2013-11-09T13:10:15.59</time>
      </trkpt>
      <trkpt lat="38.50758166666667" lon="-1.25933">
        <ele>1127.7999999999995</ele>
        <time>2013-11-09T13:10:16.62</time>
      </trkpt>
      <trkpt lat="38.50761" lon="-1.25934">
        <ele>1127.3999999999994</ele>
        <time>2013-11-09T13:10:17.63</time>
      </trkpt>
      <trkpt lat="38.507635" lon="-1.2593516666666666">
        <ele>1126.9999999999993</ele>
        <time>2013-11-09T13:10:18.62</time>
      </trkpt>
      <trkpt lat="38.507655" lon="-1.2593683333333332">
        <ele>1126.6999999999994</ele>
        <time>2013-11-09T13:10:19.62</time>
      </trkpt>
      <trkpt lat="38.50767" lon="-1.25939">
        <ele>1126.2999999999993</ele>
        <time>2013-11-09T13:10:20.60</time>
      </trkpt>
      <trkpt lat="38.507686666666665" lon="-1.2594166666666666">
        <ele>1125.8999999999992</ele>
        <time>2013-11-09T13:10:21.56</time>
      </trkpt>
      <trkpt lat="38.50770833333333" lon="-1.2594533333333333">
        <ele>1125.499999999999</ele>
        <time>2013-11-09T13:10:22.56</time>
      </trkpt>
      <trkpt lat="38.507735" lon="-1.2594933333333334">
        <ele>1121.6999999999991</ele>
        <time>2013-11-09T13:10:23.64</time>
      </trkpt>
      <trkpt lat="38.50778" lon="-1.2595166666666666">
        <ele>1118.499999999999</ele>
        <time>2013-11-09T13:10:24.62</time>
      </trkpt>
      <trkpt lat="38.507828333333336" lon="-1.25952">
        <ele>1115.6999999999991</ele>
        <time>2013-11-09T13:10:25.63</time>
      </trkpt>
      <trkpt lat="38.50785833333333" lon="-1.259515">
        <ele>1115.499999999999</ele>
        <time>2013-11-09T13:10:26.68</time>
      </trkpt>
      <trkpt lat="38.50789666666667" lon="-1.259535">
        <ele>1114.7</ele>
        <time>2013-11-09T13:10:30.63</time>
      </trkpt>
      <trkpt lat="38.507913333333335" lon="-1.2595483333333333">
        <ele>1114.4</ele>
        <time>2013-11-09T13:10:31.58</time>
      </trkpt>
      <trkpt lat="38.50792833333333" lon="-1.2595616666666667">
        <ele>1114.1000000000001</ele>
        <time>2013-11-09T13:10:32.62</time>
      </trkpt>
      <trkpt lat="38.50794333333333" lon="-1.2595733333333334">
        <ele>1113.7</ele>
        <time>2013-11-09T13:10:33.63</time>
      </trkpt>
      <trkpt lat="38.50796166666667" lon="-1.2595883333333333">
        <ele>1113.4</ele>
        <time>2013-11-09T13:10:34.62</time>
      </trkpt>
      <trkpt lat="38.50798" lon="-1.259605">
        <ele>1113</ele>
        <time>2013-11-09T13:10:35.64</time>
      </trkpt>
      <trkpt lat="38.50799333333333" lon="-1.2596233333333333">
        <ele>1112.7</ele>
        <time>2013-11-09T13:10:36.62</time>
      </trkpt>
      <trkpt lat="38.50800666666667" lon="-1.2596433333333334">
        <ele>1112.3</ele>
        <time>2013-11-09T13:10:37.62</time>
      </trkpt>
      <trkpt lat="38.508023333333334" lon="-1.25966">
        <ele>1111.8999999999999</ele>
        <time>2013-11-09T13:10:38.62</time>
      </trkpt>
      <trkpt lat="38.50805833333333" lon="-1.2596716666666667">
        <ele>1111.4999999999998</ele>
        <time>2013-11-09T13:10:39.58</time>
      </trkpt>
      <trkpt lat="38.50810666666667" lon="-1.2596683333333334">
        <ele>1110.9999999999998</ele>
        <time>2013-11-09T13:10:40.63</time>
      </trkpt>
      <trkpt lat="38.508176666666664" lon="-1.2596133333333333">
        <ele>1106.3999999999999</ele>
        <time>2013-11-09T13:10:41.62</time>
      </trkpt>
      <trkpt lat="38.508246666666665" lon="-1.2595533333333333">
        <ele>1102.6</ele>
        <time>2013-11-09T13:10:42.63</time>
      </trkpt>
      <trkpt lat="38.508305" lon="-1.2595033333333334">
        <ele>1099.6</ele>
        <time>2013-11-09T13:10:43.62</time>
      </trkpt>
      <trkpt lat="38.508358333333334" lon="-1.2594633333333334">
        <ele>1097.1999999999998</ele>
        <time>2013-11-09T13:10:44.63</time>
      </trkpt>
      <trkpt lat="38.508403333333334" lon="-1.2594516666666666">
        <ele>1095.3999999999999</ele>
        <time>2013-11-09T13:10:45.63</time>
      </trkpt>
      <trkpt lat="38.50845666666667" lon="-1.2594383333333332">
        <ele>1093.6</ele>
        <time>2013-11-09T13:10:46.58</time>
      </trkpt>
      <trkpt lat="38.50851333333333" lon="-1.2594266666666667">
        <ele>1092.1999999999998</ele>
        <time>2013-11-09T13:10:47.62</time>
      </trkpt>
      <trkpt lat="38.508556666666664" lon="-1.25942">
        <ele>1091.1</ele>
        <time>2013-11-09T13:10:48.59</time>
      </trkpt>
      <trkpt lat="38.50860333333333" lon="-1.2594133333333333">
        <ele>1090.1999999999998</ele>
        <time>2013-11-09T13:10:49.63</time>
      </trkpt>
      <trkpt lat="38.50864833333333" lon="-1.2594066666666666">
        <ele>1089.6</ele>
        <time>2013-11-09T13:10:50.59</time>
      </trkpt>
      <trkpt lat="38.50869333333333" lon="-1.2593983333333334">
        <ele>1089</ele>
        <time>2013-11-09T13:10:51.58</time>
      </trkpt>
      <trkpt lat="38.50873333333333" lon="-1.2593933333333334">
        <ele>1089</ele>
        <time>2013-11-09T13:10:52.58</time>
      </trkpt>
      <trkpt lat="38.508763333333334" lon="-1.2593916666666667">
        <ele>1089</ele>
        <time>2013-11-09T13:10:53.62</time>
      </trkpt>
      <trkpt lat="38.508783333333334" lon="-1.2593933333333334">
        <ele>1089</ele>
        <time>2013-11-09T13:10:54.64</time>
      </trkpt>
      <trkpt lat="38.508805" lon="-1.259395">
        <ele>1088.9</ele>
        <time>2013-11-09T13:10:55.58</time>
      </trkpt>
      <trkpt lat="38.50882333333333" lon="-1.2593916666666667">
        <ele>1088.9</ele>
        <time>2013-11-09T13:10:56.68</time>
      </trkpt>
      <trkpt lat="38.508858333333336" lon="-1.2593833333333333">
        <ele>1088.3000000000002</ele>
        <time>2013-11-09T13:10:57.62</time>
      </trkpt>
      <trkpt lat="38.508895" lon="-1.2593766666666666">
        <ele>1087.7000000000003</ele>
        <time>2013-11-09T13:10:58.63</time>
      </trkpt>
      <trkpt lat="38.50893333333333" lon="-1.25937">
        <ele>1087.6000000000004</ele>
        <time>2013-11-09T13:10:59.63</time>
      </trkpt>
      <trkpt lat="38.50895666666667" lon="-1.2593816666666666">
        <ele>1087.6000000000004</ele>
        <time>2013-11-09T13:11:00.63</time>
      </trkpt>
      <trkpt lat="38.508981666666664" lon="-1.2593916666666667">
        <ele>1087.6000000000004</ele>
        <time>2013-11-09T13:11:01.62</time>
      </trkpt>
      <trkpt lat="38.509008333333334" lon="-1.2594">
        <ele>1087.7000000000003</ele>
        <time>2013-11-09T13:11:02.59</time>
      </trkpt>
      <trkpt lat="38.50903666666667" lon="-1.259395">
        <ele>1087.7000000000003</ele>
        <time>2013-11-09T13:11:03.62</time>
      </trkpt>
      <trkpt lat="38.50906166666667" lon="-1.259395">
        <ele>1087.7000000000003</ele>
        <time>2013-11-09T13:11:04.59</time>
      </trkpt>
      <trkpt lat="38.509083333333336" lon="-1.2594066666666666">
        <ele>1087.8000000000002</ele>
        <time>2013-11-09T13:11:05.63</time>
      </trkpt>
      <trkpt lat="38.509105" lon="-1.2594233333333333">
        <ele>1087.8000000000002</ele>
        <time>2013-11-09T13:11:06.62</time>
      </trkpt>
      <trkpt lat="38.50913166666667" lon="-1.2594416666666666">
        <ele>1087.9</ele>
        <time>2013-11-09T13:11:07.67</time>
      </trkpt>
      <trkpt lat="38.50915333333333" lon="-1.259455">
        <ele>1088</ele>
        <time>2013-11-09T13:11:08.62</time>
      </trkpt>
      <trkpt lat="38.50918166666666" lon="-1.25946">
        <ele>1088</ele>
        <time>2013-11-09T13:11:09.63</time>
      </trkpt>
      <trkpt lat="38.50921" lon="-1.2594616666666667">
        <ele>1088.1</ele>
        <time>2013-11-09T13:11:10.60</time>
      </trkpt>
      <trkpt lat="38.509238333333336" lon="-1.2594633333333334">
        <ele>1088.1999999999998</ele>
        <time>2013-11-09T13:11:11.62</time>
      </trkpt>
      <trkpt lat="38.50926666666667" lon="-1.259465">
        <ele>1088.1999999999998</ele>
        <time>2013-11-09T13:11:12.62</time>
      </trkpt>
      <trkpt lat="38.509281666666666" lon="-1.2594733333333332">
        <ele>1088.2999999999997</ele>
        <time>2013-11-09T13:11:13.59</time>
      </trkpt>
      <trkpt lat="38.50931166666667" lon="-1.2594933333333334">
        <ele>1088.3999999999996</ele>
        <time>2013-11-09T13:11:14.90</time>
      </trkpt>
      <trkpt lat="38.50933333333333" lon="-1.2595233333333333">
        <ele>1088.5999999999997</ele>
        <time>2013-11-09T13:11:15.64</time>
      </trkpt>
      <trkpt lat="38.50935833333333" lon="-1.2595533333333333">
        <ele>1088.6999999999996</ele>
        <time>2013-11-09T13:11:16.63</time>
      </trkpt>
      <trkpt lat="38.50937833333333" lon="-1.2595816666666666">
        <ele>1088.8999999999996</ele>
        <time>2013-11-09T13:11:17.57</time>
      </trkpt>
      <trkpt lat="38.509391666666666" lon="-1.259605">
        <ele>1088.9999999999995</ele>
        <time>2013-11-09T13:11:18.64</time>
      </trkpt>
      <trkpt lat="38.509395" lon="-1.2596383333333334">
        <ele>1089.1999999999996</ele>
        <time>2013-11-09T13:11:19.63</time>
      </trkpt>
      <trkpt lat="38.509385" lon="-1.2596883333333333">
        <ele>1090.2999999999995</ele>
        <time>2013-11-09T13:11:20.64</time>
      </trkpt>
      <trkpt lat="38.50937" lon="-1.2597483333333332">
        <ele>1091.1999999999996</ele>
        <time>2013-11-09T13:11:21.62</time>
      </trkpt>
      <trkpt lat="38.509355" lon="-1.2598016666666667">
        <ele>1091.6999999999996</ele>
        <time>2013-11-09T13:11:22.61</time>
      </trkpt>
      <trkpt lat="38.50935" lon="-1.2598449999999999">
        <ele>1091.6999999999996</ele>
        <time>2013-11-09T13:11:23.63</time>
      </trkpt>
      <trkpt lat="38.50935833333333" lon="-1.2598816666666668">
        <ele>1091.7999999999995</ele>
        <time>2013-11-09T13:11:24.63</time>
      </trkpt>
      <trkpt lat="38.509386666666664" lon="-1.2598933333333333">
        <ele>1092.5999999999995</ele>
        <time>2013-11-09T13:11:25.58</time>
      </trkpt>
      <trkpt lat="38.50942" lon="-1.2599066666666667">
        <ele>1093.5999999999995</ele>
        <time>2013-11-09T13:11:26.63</time>
      </trkpt>
      <trkpt lat="38.50947" lon="-1.25992">
        <ele>1094.3999999999994</ele>
        <time>2013-11-09T13:11:27.64</time>
      </trkpt>
      <trkpt lat="38.50951833333333" lon="-1.2599266666666666">
        <ele>1094.6999999999994</ele>
        <time>2013-11-09T13:11:28.63</time>
      </trkpt>
      <trkpt lat="38.50956166666667" lon="-1.2599283333333333">
        <ele>1094.6999999999994</ele>
        <time>2013-11-09T13:11:29.62</time>
      </trkpt>
      <trkpt lat="38.509605" lon="-1.2599216666666666">
        <ele>1095.0999999999995</ele>
        <time>2013-11-09T13:11:30.63</time>
      </trkpt>
      <trkpt lat="38.50964833333333" lon="-1.2599133333333334">
        <ele>1095.3999999999994</ele>
        <time>2013-11-09T13:11:31.59</time>
      </trkpt>
      <trkpt lat="38.50969166666667" lon="-1.259905">
        <ele>1095.6999999999994</ele>
        <time>2013-11-09T13:11:32.63</time>
      </trkpt>
      <trkpt lat="38.50973333333334" lon="-1.2599">
        <ele>1095.8999999999994</ele>
        <time>2013-11-09T13:11:33.57</time>
      </trkpt>
      <trkpt lat="38.509773333333335" lon="-1.2599133333333334">
        <ele>1095.8999999999994</ele>
        <time>2013-11-09T13:11:34.63</time>
      </trkpt>
      <trkpt lat="38.50982333333334" lon="-1.2599316666666667">
        <ele>1094.9999999999993</ele>
        <time>2013-11-09T13:11:35.62</time>
      </trkpt>
      <trkpt lat="38.509875" lon="-1.2599466666666665">
        <ele>1093.5999999999992</ele>
        <time>2013-11-09T13:11:36.63</time>
      </trkpt>
      <trkpt lat="38.509935" lon="-1.25994">
        <ele>1092.3999999999992</ele>
        <time>2013-11-09T13:11:37.63</time>
      </trkpt>
      <trkpt lat="38.51" lon="-1.25993">
        <ele>1091.1999999999991</ele>
        <time>2013-11-09T13:11:38.66</time>
      </trkpt>
      <trkpt lat="38.510056666666664" lon="-1.25992">
        <ele>1090.1999999999991</ele>
        <time>2013-11-09T13:11:39.62</time>
      </trkpt>
      <trkpt lat="38.51011" lon="-1.2599083333333334">
        <ele>1089.3999999999992</ele>
        <time>2013-11-09T13:11:40.63</time>
      </trkpt>
      <trkpt lat="38.51015" lon="-1.2598966666666667">
        <ele>1088.499999999999</ele>
        <time>2013-11-09T13:11:41.63</time>
      </trkpt>
      <trkpt lat="38.51019333333333" lon="-1.25989">
        <ele>1087.799999999999</ele>
        <time>2013-11-09T13:11:42.62</time>
      </trkpt>
      <trkpt lat="38.510243333333335" lon="-1.2598833333333332">
        <ele>1087.1999999999991</ele>
        <time>2013-11-09T13:11:43.63</time>
      </trkpt>
      <trkpt lat="38.51030333333333" lon="-1.2598766666666665">
        <ele>1086.999999999999</ele>
        <time>2013-11-09T13:11:44.56</time>
      </trkpt>
      <trkpt lat="38.51035666666667" lon="-1.2598666666666667">
        <ele>1086.799999999999</ele>
        <time>2013-11-09T13:11:45.58</time>
      </trkpt>
      <trkpt lat="38.51040666666667" lon="-1.2598166666666666">
        <ele>1086.1999999999991</ele>
        <time>2013-11-09T13:11:46.56</time>
      </trkpt>
      <trkpt lat="38.51045333333333" lon="-1.2597583333333333">
        <ele>1085.799999999999</ele>
        <time>2013-11-09T13:11:47.58</time>
      </trkpt>
      <trkpt lat="38.510486666666665" lon="-1.2596833333333333">
        <ele>1084.599999999999</ele>
        <time>2013-11-09T13:11:48.59</time>
      </trkpt>
      <trkpt lat="38.51051833333333" lon="-1.2596083333333334">
        <ele>1082.799999999999</ele>
        <time>2013-11-09T13:11:49.56</time>
      </trkpt>
      <trkpt lat="38.51056333333333" lon="-1.2595066666666668">
        <ele>1081.099999999999</ele>
        <time>2013-11-09T13:11:50.57</time>
      </trkpt>
      <trkpt lat="38.51061333333333" lon="-1.2593966666666667">
        <ele>1079.699999999999</ele>
        <time>2013-11-09T13:11:51.57</time>
      </trkpt>
      <trkpt lat="38.510655" lon="-1.2592783333333333">
        <ele>1079.2999999999988</ele>
        <time>2013-11-09T13:11:52.56</time>
      </trkpt>
      <trkpt lat="38.5107" lon="-1.2591533333333333">
        <ele>1079.3999999999987</ele>
        <time>2013-11-09T13:11:53.56</time>
      </trkpt>
      <trkpt lat="38.51073" lon="-1.25905">
        <ele>1079.2999999999988</ele>
        <time>2013-11-09T13:11:54.57</time>
      </trkpt>
      <trkpt lat="38.51076" lon="-1.2589516666666667">
        <ele>1078.7999999999988</ele>
        <time>2013-11-09T13:11:55.59</time>
      </trkpt>
      <trkpt lat="38.51078166666667" lon="-1.2588633333333332">
        <ele>1078.0999999999988</ele>
        <time>2013-11-09T13:11:56.63</time>
      </trkpt>
      <trkpt lat="38.51078166666667" lon="-1.25873">
        <ele>1077.6999999999987</ele>
        <time>2013-11-09T13:11:57.56</time>
      </trkpt>
      <trkpt lat="38.51077166666666" lon="-1.258575">
        <ele>1077.3999999999987</ele>
        <time>2013-11-09T13:11:58.56</time>
      </trkpt>
      <trkpt lat="38.5107" lon="-1.2584233333333334">
        <ele>1077.7999999999988</ele>
        <time>2013-11-09T13:11:59.55</time>
      </trkpt>
      <trkpt lat="38.51058833333333" lon="-1.2583066666666667">
        <ele>1077.9999999999989</ele>
        <time>2013-11-09T13:12:00.56</time>
      </trkpt>
      <trkpt lat="38.51045833333333" lon="-1.2582366666666667">
        <ele>1078.4999999999989</ele>
        <time>2013-11-09T13:12:01.58</time>
      </trkpt>
      <trkpt lat="38.510313333333336" lon="-1.258215">
        <ele>1078.699999999999</ele>
        <time>2013-11-09T13:12:02.68</time>
      </trkpt>
      <trkpt lat="38.51016833333333" lon="-1.2582566666666666">
        <ele>1079.899999999999</ele>
        <time>2013-11-09T13:12:03.65</time>
      </trkpt>
      <trkpt lat="38.51007333333333" lon="-1.25831">
        <ele>1081.299999999999</ele>
        <time>2013-11-09T13:12:04.56</time>
      </trkpt>
      <trkpt lat="38.51001" lon="-1.2583883333333334">
        <ele>1082.099999999999</ele>
        <time>2013-11-09T13:12:05.59</time>
      </trkpt>
      <trkpt lat="38.509955" lon="-1.2584616666666666">
        <ele>1082.699999999999</ele>
        <time>2013-11-09T13:12:06.65</time>
      </trkpt>
      <trkpt lat="38.509903333333334" lon="-1.2585266666666666">
        <ele>1083.099999999999</ele>
        <time>2013-11-09T13:12:07.60</time>
      </trkpt>
      <trkpt lat="38.50984666666667" lon="-1.2586016666666666">
        <ele>1083.399999999999</ele>
        <time>2013-11-09T13:12:08.57</time>
      </trkpt>
      <trkpt lat="38.5098" lon="-1.2586666666666666">
        <ele>1084.399999999999</ele>
        <time>2013-11-09T13:12:09.57</time>
      </trkpt>
      <trkpt lat="38.50978833333333" lon="-1.2587433333333333">
        <ele>1085.599999999999</ele>
        <time>2013-11-09T13:12:10.58</time>
      </trkpt>
      <trkpt lat="38.509791666666665" lon="-1.2588216666666667">
        <ele>1086.299999999999</ele>
        <time>2013-11-09T13:12:11.58</time>
      </trkpt>
      <trkpt lat="38.509813333333334" lon="-1.2588816666666667">
        <ele>1087.299999999999</ele>
        <time>2013-11-09T13:12:12.57</time>
      </trkpt>
      <trkpt lat="38.509845" lon="-1.2589133333333333">
        <ele>1088.399999999999</ele>
        <time>2013-11-09T13:12:13.58</time>
      </trkpt>
      <trkpt lat="38.50989666666667" lon="-1.2589233333333334">
        <ele>1089.199999999999</ele>
        <time>2013-11-09T13:12:14.57</time>
      </trkpt>
      <trkpt lat="38.509945" lon="-1.2589166666666667">
        <ele>1089.9999999999989</ele>
        <time>2013-11-09T13:12:15.56</time>
      </trkpt>
      <trkpt lat="38.509996666666666" lon="-1.2589116666666667">
        <ele>1090.899999999999</ele>
        <time>2013-11-09T13:12:16.57</time>
      </trkpt>
      <trkpt lat="38.510056666666664" lon="-1.2588983333333332">
        <ele>1091.799999999999</ele>
        <time>2013-11-09T13:12:17.63</time>
      </trkpt>
      <trkpt lat="38.510115" lon="-1.2588599999999999">
        <ele>1092.299999999999</ele>
        <time>2013-11-09T13:12:18.57</time>
      </trkpt>
      <trkpt lat="38.51016833333333" lon="-1.25881">
        <ele>1091.999999999999</ele>
        <time>2013-11-09T13:12:19.58</time>
      </trkpt>
      <trkpt lat="38.510215" lon="-1.25872">
        <ele>1091.299999999999</ele>
        <time>2013-11-09T13:12:20.57</time>
      </trkpt>
      <trkpt lat="38.51025" lon="-1.2586083333333333">
        <ele>1090.999999999999</ele>
        <time>2013-11-09T13:12:21.58</time>
      </trkpt>
      <trkpt lat="38.510283333333334" lon="-1.2584833333333334">
        <ele>1091.1999999999991</ele>
        <time>2013-11-09T13:12:22.57</time>
      </trkpt>
      <trkpt lat="38.510288333333335" lon="-1.2583466666666667">
        <ele>1091.5999999999992</ele>
        <time>2013-11-09T13:12:23.56</time>
      </trkpt>
      <trkpt lat="38.510285" lon="-1.2581966666666666">
        <ele>1091.9999999999993</ele>
        <time>2013-11-09T13:12:24.57</time>
      </trkpt>
      <trkpt lat="38.51024666666667" lon="-1.2580333333333333">
        <ele>1092.4999999999993</ele>
        <time>2013-11-09T13:12:25.58</time>
      </trkpt>
      <trkpt lat="38.510196666666666" lon="-1.2578733333333334">
        <ele>1093.0999999999992</ele>
        <time>2013-11-09T13:12:26.57</time>
      </trkpt>
      <trkpt lat="38.51011333333334" lon="-1.2577416666666665">
        <ele>1093.9999999999993</ele>
        <time>2013-11-09T13:12:27.57</time>
      </trkpt>
      <trkpt lat="38.510016666666665" lon="-1.257615">
        <ele>1095.0999999999992</ele>
        <time>2013-11-09T13:12:28.57</time>
      </trkpt>
      <trkpt lat="38.509895" lon="-1.2575166666666666">
        <ele>1095.9999999999993</ele>
        <time>2013-11-09T13:12:29.57</time>
      </trkpt>
      <trkpt lat="38.50976333333333" lon="-1.257425">
        <ele>1096.3999999999994</ele>
        <time>2013-11-09T13:12:30.59</time>
      </trkpt>
      <trkpt lat="38.509616666666666" lon="-1.2573699999999999">
        <ele>1096.6999999999994</ele>
        <time>2013-11-09T13:12:31.63</time>
      </trkpt>
      <trkpt lat="38.509465" lon="-1.257325">
        <ele>1096.4999999999993</ele>
        <time>2013-11-09T13:12:32.57</time>
      </trkpt>
      <trkpt lat="38.50931166666667" lon="-1.25732">
        <ele>1095.9999999999993</ele>
        <time>2013-11-09T13:12:33.57</time>
      </trkpt>
      <trkpt lat="38.509165" lon="-1.2573316666666667">
        <ele>1095.3999999999994</ele>
        <time>2013-11-09T13:12:34.56</time>
      </trkpt>
      <trkpt lat="38.50904166666667" lon="-1.2573933333333334">
        <ele>1095.2999999999995</ele>
        <time>2013-11-09T13:12:35.56</time>
      </trkpt>
      <trkpt lat="38.50892833333333" lon="-1.257455">
        <ele>1095.0999999999995</ele>
        <time>2013-11-09T13:12:36.56</time>
      </trkpt>
      <trkpt lat="38.50884" lon="-1.257505">
        <ele>1095.0999999999995</ele>
        <time>2013-11-09T13:12:37.56</time>
      </trkpt>
      <trkpt lat="38.50875333333333" lon="-1.2575533333333333">
        <ele>1094.9999999999995</ele>
        <time>2013-11-09T13:12:38.66</time>
      </trkpt>
      <trkpt lat="38.50865833333334" lon="-1.257595">
        <ele>1094.9999999999995</ele>
        <time>2013-11-09T13:12:39.55</time>
      </trkpt>
      <trkpt lat="38.508543333333336" lon="-1.2576366666666667">
        <ele>1095.2999999999995</ele>
        <time>2013-11-09T13:12:40.67</time>
      </trkpt>
      <trkpt lat="38.50842333333333" lon="-1.2576733333333334">
        <ele>1096.0999999999995</ele>
        <time>2013-11-09T13:12:41.57</time>
      </trkpt>
      <trkpt lat="38.50832666666667" lon="-1.2577099999999999">
        <ele>1096.8999999999994</ele>
        <time>2013-11-09T13:12:42.56</time>
      </trkpt>
      <trkpt lat="38.50826166666667" lon="-1.2577866666666666">
        <ele>1097.7999999999995</ele>
        <time>2013-11-09T13:12:43.56</time>
      </trkpt>
      <trkpt lat="38.508235" lon="-1.2578666666666667">
        <ele>1098.4999999999995</ele>
        <time>2013-11-09T13:12:44.57</time>
      </trkpt>
      <trkpt lat="38.50824166666666" lon="-1.2579316666666667">
        <ele>1098.4999999999995</ele>
        <time>2013-11-09T13:12:45.61</time>
      </trkpt>
      <trkpt lat="38.508235" lon="-1.25801">
        <ele>1098.1999999999996</ele>
        <time>2013-11-09T13:12:46.56</time>
      </trkpt>
      <trkpt lat="38.50826" lon="-1.258045">
        <ele>1097.6999999999996</ele>
        <time>2013-11-09T13:12:47.58</time>
      </trkpt>
      <trkpt lat="38.508313333333334" lon="-1.2580583333333333">
        <ele>1096.5999999999997</ele>
        <time>2013-11-09T13:12:48.57</time>
      </trkpt>
      <trkpt lat="38.50836833333334" lon="-1.2580633333333333">
        <ele>1095.2999999999997</ele>
        <time>2013-11-09T13:12:49.56</time>
      </trkpt>
      <trkpt lat="38.50844166666667" lon="-1.2580683333333333">
        <ele>1094.5999999999997</ele>
        <time>2013-11-09T13:12:50.56</time>
      </trkpt>
      <trkpt lat="38.508496666666666" lon="-1.258075">
        <ele>1093.8999999999996</ele>
        <time>2013-11-09T13:12:51.58</time>
      </trkpt>
      <trkpt lat="38.50854833333333" lon="-1.25808">
        <ele>1093.1999999999996</ele>
        <time>2013-11-09T13:12:52.58</time>
      </trkpt>
      <trkpt lat="38.508605" lon="-1.25807">
        <ele>1092.5999999999997</ele>
        <time>2013-11-09T13:12:53.58</time>
      </trkpt>
      <trkpt lat="38.50866333333333" lon="-1.2580583333333333">
        <ele>1091.6999999999996</ele>
        <time>2013-11-09T13:12:54.55</time>
      </trkpt>
      <trkpt lat="38.50872" lon="-1.2580416666666667">
        <ele>1091.0999999999997</ele>
        <time>2013-11-09T13:12:55.57</time>
      </trkpt>
      <trkpt lat="38.508768333333336" lon="-1.258005">
        <ele>1090.7999999999997</ele>
        <time>2013-11-09T13:12:56.57</time>
      </trkpt>
      <trkpt lat="38.50881666666667" lon="-1.257965">
        <ele>1090.6999999999998</ele>
        <time>2013-11-09T13:12:57.57</time>
      </trkpt>
      <trkpt lat="38.508865" lon="-1.2579183333333332">
        <ele>1090.6999999999998</ele>
        <time>2013-11-09T13:12:58.57</time>
      </trkpt>
      <trkpt lat="38.508915" lon="-1.2578666666666667">
        <ele>1090.6</ele>
        <time>2013-11-09T13:12:59.58</time>
      </trkpt>
      <trkpt lat="38.508966666666666" lon="-1.2578083333333334">
        <ele>1090.3999999999999</ele>
        <time>2013-11-09T13:13:00.56</time>
      </trkpt>
      <trkpt lat="38.50901833333333" lon="-1.257755">
        <ele>1090.1999999999998</ele>
        <time>2013-11-09T13:13:01.57</time>
      </trkpt>
      <trkpt lat="38.50907333333333" lon="-1.2577033333333334">
        <ele>1089.8999999999999</ele>
        <time>2013-11-09T13:13:02.56</time>
      </trkpt>
      <trkpt lat="38.50912666666667" lon="-1.257655">
        <ele>1089.6</ele>
        <time>2013-11-09T13:13:03.57</time>
      </trkpt>
      <trkpt lat="38.50917333333334" lon="-1.2576066666666668">
        <ele>1089.3999999999999</ele>
        <time>2013-11-09T13:13:04.56</time>
      </trkpt>
      <trkpt lat="38.50921666666667" lon="-1.2575633333333334">
        <ele>1089.1</ele>
        <time>2013-11-09T13:13:05.56</time>
      </trkpt>
      <trkpt lat="38.509258333333335" lon="-1.257525">
        <ele>1089</ele>
        <time>2013-11-09T13:13:06.55</time>
      </trkpt>
      <trkpt lat="38.509296666666664" lon="-1.2574916666666667">
        <ele>1089.3</ele>
        <time>2013-11-09T13:13:07.55</time>
      </trkpt>
      <trkpt lat="38.509328333333336" lon="-1.25746">
        <ele>1089.8</ele>
        <time>2013-11-09T13:13:08.56</time>
      </trkpt>
      <trkpt lat="38.509348333333335" lon="-1.2574166666666666">
        <ele>1090.3999999999999</ele>
        <time>2013-11-09T13:13:09.56</time>
      </trkpt>
      <trkpt lat="38.50937" lon="-1.2573699999999999">
        <ele>1090.9999999999998</ele>
        <time>2013-11-09T13:13:10.56</time>
      </trkpt>
      <trkpt lat="38.50939833333333" lon="-1.2573166666666666">
        <ele>1091.4999999999998</ele>
        <time>2013-11-09T13:13:11.62</time>
      </trkpt>
      <trkpt lat="38.509435" lon="-1.2572466666666666">
        <ele>1092.0999999999997</ele>
        <time>2013-11-09T13:13:12.60</time>
      </trkpt>
      <trkpt lat="38.509478333333334" lon="-1.2571566666666667">
        <ele>1092.6999999999996</ele>
        <time>2013-11-09T13:13:13.69</time>
      </trkpt>
      <trkpt lat="38.50951833333333" lon="-1.2570683333333332">
        <ele>1093.0999999999997</ele>
        <time>2013-11-09T13:13:14.65</time>
      </trkpt>
      <trkpt lat="38.50955166666667" lon="-1.2569816666666667">
        <ele>1093.2999999999997</ele>
        <time>2013-11-09T13:13:15.63</time>
      </trkpt>
      <trkpt lat="38.50958" lon="-1.256905">
        <ele>1093.5999999999997</ele>
        <time>2013-11-09T13:13:16.70</time>
      </trkpt>
      <trkpt lat="38.50960833333333" lon="-1.2568316666666668">
        <ele>1093.8999999999996</ele>
        <time>2013-11-09T13:13:17.63</time>
      </trkpt>
      <trkpt lat="38.509636666666665" lon="-1.2567650000000001">
        <ele>1094.1999999999996</ele>
        <time>2013-11-09T13:13:18.63</time>
      </trkpt>
      <trkpt lat="38.50967333333333" lon="-1.25671">
        <ele>1093.5999999999997</ele>
        <time>2013-11-09T13:13:19.62</time>
      </trkpt>
      <trkpt lat="38.50971333333333" lon="-1.2566683333333333">
        <ele>1092.9999999999998</ele>
        <time>2013-11-09T13:13:20.63</time>
      </trkpt>
      <trkpt lat="38.509753333333336" lon="-1.2566316666666666">
        <ele>1092.1999999999998</ele>
        <time>2013-11-09T13:13:21.62</time>
      </trkpt>
      <trkpt lat="38.50978833333333" lon="-1.2565966666666666">
        <ele>1091.4999999999998</ele>
        <time>2013-11-09T13:13:22.62</time>
      </trkpt>
      <trkpt lat="38.50982166666667" lon="-1.256565">
        <ele>1090.7999999999997</ele>
        <time>2013-11-09T13:13:23.62</time>
      </trkpt>
      <trkpt lat="38.50984833333333" lon="-1.2565183333333334">
        <ele>1090.0999999999997</ele>
        <time>2013-11-09T13:13:24.62</time>
      </trkpt>
      <trkpt lat="38.50988" lon="-1.2564549999999999">
        <ele>1089.6999999999996</ele>
        <time>2013-11-09T13:13:25.63</time>
      </trkpt>
      <trkpt lat="38.50991166666667" lon="-1.2563866666666668">
        <ele>1089.7999999999995</ele>
        <time>2013-11-09T13:13:26.62</time>
      </trkpt>
      <trkpt lat="38.50993833333333" lon="-1.25632">
        <ele>1090.0999999999995</ele>
        <time>2013-11-09T13:13:27.63</time>
      </trkpt>
      <trkpt lat="38.50996333333333" lon="-1.2562566666666668">
        <ele>1090.3999999999994</ele>
        <time>2013-11-09T13:13:28.67</time>
      </trkpt>
      <trkpt lat="38.509991666666664" lon="-1.2562216666666668">
        <ele>1090.7999999999995</ele>
        <time>2013-11-09T13:13:29.63</time>
      </trkpt>
      <trkpt lat="38.510016666666665" lon="-1.2562083333333334">
        <ele>1090.8999999999994</ele>
        <time>2013-11-09T13:13:30.63</time>
      </trkpt>
      <trkpt lat="38.51004666666667" lon="-1.2562033333333333">
        <ele>1090.8999999999994</ele>
        <time>2013-11-09T13:13:31.64</time>
      </trkpt>
      <trkpt lat="38.51007166666667" lon="-1.2562016666666667">
        <ele>1090.8999999999994</ele>
        <time>2013-11-09T13:13:32.62</time>
      </trkpt>
      <trkpt lat="38.510108333333335" lon="-1.2561966666666666">
        <ele>1091.0999999999995</ele>
        <time>2013-11-09T13:13:33.63</time>
      </trkpt>
      <trkpt lat="38.51014333333333" lon="-1.2561916666666666">
        <ele>1091.2999999999995</ele>
        <time>2013-11-09T13:13:34.62</time>
      </trkpt>
      <trkpt lat="38.51016166666667" lon="-1.2561883333333332">
        <ele>1091.4999999999995</ele>
        <time>2013-11-09T13:13:35.62</time>
      </trkpt>
      <trkpt lat="38.510185" lon="-1.2561633333333333">
        <ele>1091.6999999999996</ele>
        <time>2013-11-09T13:13:36.63</time>
      </trkpt>
      <trkpt lat="38.51021333333333" lon="-1.2561216666666666">
        <ele>1093.1999999999996</ele>
        <time>2013-11-09T13:13:37.62</time>
      </trkpt>
      <trkpt lat="38.510241666666666" lon="-1.2560533333333335">
        <ele>1094.3999999999996</ele>
        <time>2013-11-09T13:13:38.62</time>
      </trkpt>
      <trkpt lat="38.51027" lon="-1.2559683333333334">
        <ele>1095.4999999999995</ele>
        <time>2013-11-09T13:13:39.63</time>
      </trkpt>
      <trkpt lat="38.51029" lon="-1.2558966666666667">
        <ele>1096.6999999999996</ele>
        <time>2013-11-09T13:13:40.64</time>
      </trkpt>
      <trkpt lat="38.51032" lon="-1.2558583333333333">
        <ele>1097.5999999999997</ele>
        <time>2013-11-09T13:13:41.63</time>
      </trkpt>
      <trkpt lat="38.510351666666665" lon="-1.2558483333333332">
        <ele>1098.6999999999996</ele>
        <time>2013-11-09T13:13:42.62</time>
      </trkpt>
      <trkpt lat="38.51039333333333" lon="-1.2558683333333334">
        <ele>1099.9999999999995</ele>
        <time>2013-11-09T13:13:43.62</time>
      </trkpt>
      <trkpt lat="38.51042833333333" lon="-1.2558983333333333">
        <ele>1101.5999999999995</ele>
        <time>2013-11-09T13:13:44.58</time>
      </trkpt>
      <trkpt lat="38.51045166666667" lon="-1.25594">
        <ele>1101.6999999999994</ele>
        <time>2013-11-09T13:13:45.63</time>
      </trkpt>
      <trkpt lat="38.51047333333333" lon="-1.255985">
        <ele>1101.7999999999993</ele>
        <time>2013-11-09T13:13:46.57</time>
      </trkpt>
      <trkpt lat="38.51047166666667" lon="-1.256035">
        <ele>1101.9999999999993</ele>
        <time>2013-11-09T13:13:47.63</time>
      </trkpt>
      <trkpt lat="38.51045333333333" lon="-1.2561083333333334">
        <ele>1103.6999999999994</ele>
        <time>2013-11-09T13:13:48.62</time>
      </trkpt>
      <trkpt lat="38.51042833333333" lon="-1.2561966666666666">
        <ele>1105.0999999999995</ele>
        <time>2013-11-09T13:13:49.61</time>
      </trkpt>
      <trkpt lat="38.510358333333336" lon="-1.2562983333333333">
        <ele>1106.1999999999994</ele>
        <time>2013-11-09T13:13:50.62</time>
      </trkpt>
      <trkpt lat="38.510275" lon="-1.2563983333333333">
        <ele>1107.2999999999993</ele>
        <time>2013-11-09T13:13:51.58</time>
      </trkpt>
      <trkpt lat="38.51014833333333" lon="-1.2564683333333333">
        <ele>1107.9999999999993</ele>
        <time>2013-11-09T13:13:52.62</time>
      </trkpt>
      <trkpt lat="38.51002" lon="-1.2565233333333334">
        <ele>1108.5999999999992</ele>
        <time>2013-11-09T13:13:53.62</time>
      </trkpt>
      <trkpt lat="38.50988" lon="-1.2565633333333333">
        <ele>1109.3999999999992</ele>
        <time>2013-11-09T13:13:54.62</time>
      </trkpt>
      <trkpt lat="38.50973333333334" lon="-1.2565916666666666">
        <ele>1110.2999999999993</ele>
        <time>2013-11-09T13:13:55.62</time>
      </trkpt>
      <trkpt lat="38.509595" lon="-1.2565983333333333">
        <ele>1111.0999999999992</ele>
        <time>2013-11-09T13:13:56.64</time>
      </trkpt>
      <trkpt lat="38.509455" lon="-1.2566066666666666">
        <ele>1111.8999999999992</ele>
        <time>2013-11-09T13:13:57.63</time>
      </trkpt>
      <trkpt lat="38.50933833333333" lon="-1.25659">
        <ele>1112.6999999999991</ele>
        <time>2013-11-09T13:13:58.62</time>
      </trkpt>
      <trkpt lat="38.50921666666667" lon="-1.25658">
        <ele>1113.3999999999992</ele>
        <time>2013-11-09T13:13:59.62</time>
      </trkpt>
      <trkpt lat="38.50908166666667" lon="-1.256575">
        <ele>1113.8999999999992</ele>
        <time>2013-11-09T13:14:00.62</time>
      </trkpt>
      <trkpt lat="38.50895166666667" lon="-1.2565783333333334">
        <ele>1114.499999999999</ele>
        <time>2013-11-09T13:14:01.64</time>
      </trkpt>
      <trkpt lat="38.50881" lon="-1.2566016666666666">
        <ele>1115.099999999999</ele>
        <time>2013-11-09T13:14:02.62</time>
      </trkpt>
      <trkpt lat="38.508685" lon="-1.2566783333333333">
        <ele>1116.099999999999</ele>
        <time>2013-11-09T13:14:03.62</time>
      </trkpt>
      <trkpt lat="38.508606666666665" lon="-1.2567616666666668">
        <ele>1116.999999999999</ele>
        <time>2013-11-09T13:14:04.59</time>
      </trkpt>
      <trkpt lat="38.508561666666665" lon="-1.25685">
        <ele>1117.999999999999</ele>
        <time>2013-11-09T13:14:05.62</time>
      </trkpt>
      <trkpt lat="38.50855166666667" lon="-1.2569166666666667">
        <ele>1119.499999999999</ele>
        <time>2013-11-09T13:14:06.57</time>
      </trkpt>
      <trkpt lat="38.508555" lon="-1.2569733333333333">
        <ele>1120.799999999999</ele>
        <time>2013-11-09T13:14:07.63</time>
      </trkpt>
      <trkpt lat="38.508565" lon="-1.2570183333333333">
        <ele>1121.899999999999</ele>
        <time>2013-11-09T13:14:08.62</time>
      </trkpt>
      <trkpt lat="38.508583333333334" lon="-1.2570483333333333">
        <ele>1121.9999999999989</ele>
        <time>2013-11-09T13:14:09.58</time>
      </trkpt>
      <trkpt lat="38.508605" lon="-1.2570766666666666">
        <ele>1122.0999999999988</ele>
        <time>2013-11-09T13:14:10.62</time>
      </trkpt>
      <trkpt lat="38.50861833333333" lon="-1.2570966666666668">
        <ele>1122.1999999999987</ele>
        <time>2013-11-09T13:14:11.58</time>
      </trkpt>
      <trkpt lat="38.50864166666667" lon="-1.2571166666666667">
        <ele>1122.1999999999987</ele>
        <time>2013-11-09T13:14:12.63</time>
      </trkpt>
      <trkpt lat="38.508673333333334" lon="-1.2571266666666667">
        <ele>1122.1999999999987</ele>
        <time>2013-11-09T13:14:13.62</time>
      </trkpt>
      <trkpt lat="38.508715" lon="-1.2571333333333334">
        <ele>1122.1999999999987</ele>
        <time>2013-11-09T13:14:14.69</time>
      </trkpt>
      <trkpt lat="38.50875666666666" lon="-1.257145">
        <ele>1122.1999999999987</ele>
        <time>2013-11-09T13:14:15.62</time>
      </trkpt>
      <trkpt lat="38.5088" lon="-1.2571416666666666">
        <ele>1122.0999999999988</ele>
        <time>2013-11-09T13:14:16.63</time>
      </trkpt>
      <trkpt lat="38.50883833333334" lon="-1.257135">
        <ele>1122.0999999999988</ele>
        <time>2013-11-09T13:14:17.64</time>
      </trkpt>
      <trkpt lat="38.508878333333335" lon="-1.2571283333333334">
        <ele>1122.0999999999988</ele>
        <time>2013-11-09T13:14:18.62</time>
      </trkpt>
      <trkpt lat="38.508918333333334" lon="-1.2571166666666667">
        <ele>1122.1999999999987</ele>
        <time>2013-11-09T13:14:19.62</time>
      </trkpt>
      <trkpt lat="38.50895833333333" lon="-1.2571066666666666">
        <ele>1122.2999999999986</ele>
        <time>2013-11-09T13:14:20.62</time>
      </trkpt>
      <trkpt lat="38.50899833333333" lon="-1.2570966666666668">
        <ele>1122.7999999999986</ele>
        <time>2013-11-09T13:14:21.62</time>
      </trkpt>
      <trkpt lat="38.50904" lon="-1.2570866666666667">
        <ele>1123.2999999999986</ele>
        <time>2013-11-09T13:14:22.57</time>
      </trkpt>
      <trkpt lat="38.50908166666667" lon="-1.2570733333333333">
        <ele>1123.6999999999987</ele>
        <time>2013-11-09T13:14:23.62</time>
      </trkpt>
      <trkpt lat="38.509123333333335" lon="-1.25706">
        <ele>1124.0999999999988</ele>
        <time>2013-11-09T13:14:24.62</time>
      </trkpt>
      <trkpt lat="38.50915833333333" lon="-1.2570466666666666">
        <ele>1124.3999999999987</ele>
        <time>2013-11-09T13:14:25.62</time>
      </trkpt>
      <trkpt lat="38.50919833333333" lon="-1.2570299999999999">
        <ele>1124.7999999999988</ele>
        <time>2013-11-09T13:14:26.63</time>
      </trkpt>
      <trkpt lat="38.509235" lon="-1.2570116666666666">
        <ele>1125.2999999999988</ele>
        <time>2013-11-09T13:14:27.58</time>
      </trkpt>
      <trkpt lat="38.50927333333333" lon="-1.25699">
        <ele>1125.699999999999</ele>
        <time>2013-11-09T13:14:28.72</time>
      </trkpt>
      <trkpt lat="38.50930666666667" lon="-1.2569666666666666">
        <ele>1126.2999999999988</ele>
        <time>2013-11-09T13:14:29.62</time>
      </trkpt>
      <trkpt lat="38.50933666666667" lon="-1.2569283333333332">
        <ele>1127.0999999999988</ele>
        <time>2013-11-09T13:14:30.59</time>
      </trkpt>
      <trkpt lat="38.50937166666667" lon="-1.2568833333333334">
        <ele>1127.8999999999987</ele>
        <time>2013-11-09T13:14:31.63</time>
      </trkpt>
      <trkpt lat="38.50940666666666" lon="-1.2568216666666667">
        <ele>1128.5999999999988</ele>
        <time>2013-11-09T13:14:32.63</time>
      </trkpt>
      <trkpt lat="38.50944" lon="-1.2567483333333334">
        <ele>1129.0999999999988</ele>
        <time>2013-11-09T13:14:33.63</time>
      </trkpt>
      <trkpt lat="38.50947333333333" lon="-1.2566633333333335">
        <ele>1129.4999999999989</ele>
        <time>2013-11-09T13:14:34.62</time>
      </trkpt>
      <trkpt lat="38.509508333333336" lon="-1.2565733333333333">
        <ele>1129.899999999999</ele>
        <time>2013-11-09T13:14:35.59</time>
      </trkpt>
      <trkpt lat="38.509541666666664" lon="-1.2564833333333334">
        <ele>1130.399999999999</ele>
        <time>2013-11-09T13:14:36.63</time>
      </trkpt>
      <trkpt lat="38.50957" lon="-1.2563983333333333">
        <ele>1131.199999999999</ele>
        <time>2013-11-09T13:14:37.63</time>
      </trkpt>
      <trkpt lat="38.50959666666667" lon="-1.2563233333333335">
        <ele>1131.899999999999</ele>
        <time>2013-11-09T13:14:38.62</time>
      </trkpt>
      <trkpt lat="38.509625" lon="-1.2562533333333334">
        <ele>1132.699999999999</ele>
        <time>2013-11-09T13:14:39.63</time>
      </trkpt>
      <trkpt lat="38.509663333333336" lon="-1.2562033333333333">
        <ele>1134.099999999999</ele>
        <time>2013-11-09T13:14:40.59</time>
      </trkpt>
      <trkpt lat="38.5097" lon="-1.2561583333333333">
        <ele>1135.699999999999</ele>
        <time>2013-11-09T13:14:41.63</time>
      </trkpt>
      <trkpt lat="38.50973666666667" lon="-1.2561216666666666">
        <ele>1137.399999999999</ele>
        <time>2013-11-09T13:14:42.63</time>
      </trkpt>
      <trkpt lat="38.509771666666666" lon="-1.2561">
        <ele>1139.199999999999</ele>
        <time>2013-11-09T13:14:43.63</time>
      </trkpt>
      <trkpt lat="38.509813333333334" lon="-1.25608">
        <ele>1139.2999999999988</ele>
        <time>2013-11-09T13:14:44.64</time>
      </trkpt>
      <trkpt lat="38.50984666666667" lon="-1.256065">
        <ele>1139.4999999999989</ele>
        <time>2013-11-09T13:14:45.59</time>
      </trkpt>
      <trkpt lat="38.509885" lon="-1.25604">
        <ele>1141.0999999999988</ele>
        <time>2013-11-09T13:14:46.64</time>
      </trkpt>
      <trkpt lat="38.509935" lon="-1.2559766666666667">
        <ele>1142.2999999999988</ele>
        <time>2013-11-09T13:14:47.68</time>
      </trkpt>
      <trkpt lat="38.50998833333333" lon="-1.25587">
        <ele>1143.5999999999988</ele>
        <time>2013-11-09T13:14:48.63</time>
      </trkpt>
      <trkpt lat="38.51001" lon="-1.2557366666666667">
        <ele>1145.0999999999988</ele>
        <time>2013-11-09T13:14:49.69</time>
      </trkpt>
      <trkpt lat="38.510023333333336" lon="-1.2555866666666666">
        <ele>1146.3999999999987</ele>
        <time>2013-11-09T13:14:50.57</time>
      </trkpt>
      <trkpt lat="38.51003166666667" lon="-1.2554433333333332">
        <ele>1147.5999999999988</ele>
        <time>2013-11-09T13:14:51.59</time>
      </trkpt>
      <trkpt lat="38.510036666666664" lon="-1.25529">
        <ele>1148.7999999999988</ele>
        <time>2013-11-09T13:14:52.63</time>
      </trkpt>
      <trkpt lat="38.51004666666667" lon="-1.2551666666666668">
        <ele>1149.7999999999988</ele>
        <time>2013-11-09T13:14:53.61</time>
      </trkpt>
      <trkpt lat="38.51007833333333" lon="-1.2550616666666667">
        <ele>1151.199999999999</ele>
        <time>2013-11-09T13:14:54.63</time>
      </trkpt>
      <trkpt lat="38.51012333333333" lon="-1.2550216666666667">
        <ele>1151.899999999999</ele>
        <time>2013-11-09T13:14:55.59</time>
      </trkpt>
      <trkpt lat="38.510176666666666" lon="-1.2549966666666665">
        <ele>1152.9999999999989</ele>
        <time>2013-11-09T13:14:56.65</time>
      </trkpt>
      <trkpt lat="38.510216666666665" lon="-1.2549916666666667">
        <ele>1153.0999999999988</ele>
        <time>2013-11-09T13:14:57.63</time>
      </trkpt>
      <trkpt lat="38.51025333333333" lon="-1.2549966666666665">
        <ele>1153.1999999999987</ele>
        <time>2013-11-09T13:14:58.63</time>
      </trkpt>
      <trkpt lat="38.510286666666666" lon="-1.2550133333333333">
        <ele>1153.3999999999987</ele>
        <time>2013-11-09T13:14:59.63</time>
      </trkpt>
      <trkpt lat="38.51031666666667" lon="-1.2550383333333333">
        <ele>1153.4999999999986</ele>
        <time>2013-11-09T13:15:00.62</time>
      </trkpt>
      <trkpt lat="38.51036166666667" lon="-1.2550283333333334">
        <ele>1154.9999999999986</ele>
        <time>2013-11-09T13:15:01.64</time>
      </trkpt>
      <trkpt lat="38.51041166666667" lon="-1.2549916666666667">
        <ele>1156.3999999999987</ele>
        <time>2013-11-09T13:15:02.66</time>
      </trkpt>
      <trkpt lat="38.51047166666667" lon="-1.2549333333333332">
        <ele>1157.5999999999988</ele>
        <time>2013-11-09T13:15:03.63</time>
      </trkpt>
      <trkpt lat="38.51052333333333" lon="-1.2548766666666666">
        <ele>1158.8999999999987</ele>
        <time>2013-11-09T13:15:04.63</time>
      </trkpt>
      <trkpt lat="38.510571666666664" lon="-1.2548133333333333">
        <ele>1160.4999999999986</ele>
        <time>2013-11-09T13:15:05.63</time>
      </trkpt>
      <trkpt lat="38.51062" lon="-1.25474">
        <ele>1162.0999999999985</ele>
        <time>2013-11-09T13:15:06.64</time>
      </trkpt>
      <trkpt lat="38.510666666666665" lon="-1.254665">
        <ele>1163.4999999999986</ele>
        <time>2013-11-09T13:15:07.62</time>
      </trkpt>
      <trkpt lat="38.51070833333333" lon="-1.2546266666666668">
        <ele>1164.6999999999987</ele>
        <time>2013-11-09T13:15:08.63</time>
      </trkpt>
      <trkpt lat="38.51074333333333" lon="-1.254635">
        <ele>1164.7999999999986</ele>
        <time>2013-11-09T13:15:09.63</time>
      </trkpt>
      <trkpt lat="38.51076833333333" lon="-1.2546533333333334">
        <ele>1164.9999999999986</ele>
        <time>2013-11-09T13:15:10.58</time>
      </trkpt>
      <trkpt lat="38.51076" lon="-1.25472">
        <ele>1166.8999999999987</ele>
        <time>2013-11-09T13:15:11.67</time>
      </trkpt>
      <trkpt lat="38.51071833333334" lon="-1.2547916666666667">
        <ele>1168.5999999999988</ele>
        <time>2013-11-09T13:15:12.58</time>
      </trkpt>
      <trkpt lat="38.510668333333335" lon="-1.2548583333333334">
        <ele>1170.4999999999989</ele>
        <time>2013-11-09T13:15:13.62</time>
      </trkpt>
      <trkpt lat="38.51061166666667" lon="-1.2549316666666668">
        <ele>1172.2999999999988</ele>
        <time>2013-11-09T13:15:14.63</time>
      </trkpt>
      <trkpt lat="38.51056166666667" lon="-1.2549883333333334">
        <ele>1174.0999999999988</ele>
        <time>2013-11-09T13:15:15.62</time>
      </trkpt>
      <trkpt lat="38.51052333333333" lon="-1.2550316666666665">
        <ele>1175.6999999999987</ele>
        <time>2013-11-09T13:15:16.62</time>
      </trkpt>
      <trkpt lat="38.5105" lon="-1.25507">
        <ele>1175.7999999999986</ele>
        <time>2013-11-09T13:15:17.63</time>
      </trkpt>
      <trkpt lat="38.51049833333333" lon="-1.2551116666666666">
        <ele>1175.8999999999985</ele>
        <time>2013-11-09T13:15:18.62</time>
      </trkpt>
      <trkpt lat="38.51052833333333" lon="-1.25515">
        <ele>1176.0999999999985</ele>
        <time>2013-11-09T13:15:19.72</time>
      </trkpt>
      <trkpt lat="38.51056833333333" lon="-1.2551783333333333">
        <ele>1176.2999999999986</ele>
        <time>2013-11-09T13:15:20.63</time>
      </trkpt>
      <trkpt lat="38.51061833333333" lon="-1.2551616666666667">
        <ele>1178.5999999999985</ele>
        <time>2013-11-09T13:15:21.59</time>
      </trkpt>
      <trkpt lat="38.510668333333335" lon="-1.2551066666666666">
        <ele>1180.3999999999985</ele>
        <time>2013-11-09T13:15:22.60</time>
      </trkpt>
      <trkpt lat="38.510715" lon="-1.254985">
        <ele>1182.2999999999986</ele>
        <time>2013-11-09T13:15:23.60</time>
      </trkpt>
      <trkpt lat="38.51074166666667" lon="-1.2548366666666666">
        <ele>1184.1999999999987</ele>
        <time>2013-11-09T13:15:24.63</time>
      </trkpt>
      <trkpt lat="38.51075" lon="-1.25469">
        <ele>1185.7999999999986</ele>
        <time>2013-11-09T13:15:25.62</time>
      </trkpt>
      <trkpt lat="38.51071666666667" lon="-1.25453">
        <ele>1187.4999999999986</ele>
        <time>2013-11-09T13:15:26.63</time>
      </trkpt>
      <trkpt lat="38.510641666666665" lon="-1.25438">
        <ele>1189.0999999999985</ele>
        <time>2013-11-09T13:15:27.63</time>
      </trkpt>
      <trkpt lat="38.51053" lon="-1.2542366666666667">
        <ele>1191.0999999999985</ele>
        <time>2013-11-09T13:15:28.59</time>
      </trkpt>
      <trkpt lat="38.51040833333333" lon="-1.2541133333333334">
        <ele>1192.9999999999986</ele>
        <time>2013-11-09T13:15:29.64</time>
      </trkpt>
      <trkpt lat="38.51026" lon="-1.2540433333333334">
        <ele>1194.9999999999986</ele>
        <time>2013-11-09T13:15:30.62</time>
      </trkpt>
      <trkpt lat="38.510128333333334" lon="-1.254025">
        <ele>1196.8999999999987</ele>
        <time>2013-11-09T13:15:31.62</time>
      </trkpt>
      <trkpt lat="38.51000833333333" lon="-1.2540416666666667">
        <ele>1198.1999999999987</ele>
        <time>2013-11-09T13:15:32.63</time>
      </trkpt>
      <trkpt lat="38.50992" lon="-1.2540933333333333">
        <ele>1199.2999999999986</ele>
        <time>2013-11-09T13:15:33.64</time>
      </trkpt>
      <trkpt lat="38.50984166666667" lon="-1.2541483333333334">
        <ele>1199.7999999999986</ele>
        <time>2013-11-09T13:15:34.62</time>
      </trkpt>
      <trkpt lat="38.509775" lon="-1.2542016666666667">
        <ele>1200.4999999999986</ele>
        <time>2013-11-09T13:15:35.62</time>
      </trkpt>
      <trkpt lat="38.509726666666666" lon="-1.25426">
        <ele>1201.4999999999986</ele>
        <time>2013-11-09T13:15:36.62</time>
      </trkpt>
      <trkpt lat="38.509675" lon="-1.254315">
        <ele>1202.6999999999987</ele>
        <time>2013-11-09T13:15:37.59</time>
      </trkpt>
      <trkpt lat="38.509661666666666" lon="-1.2543616666666666">
        <ele>1204.3999999999987</ele>
        <time>2013-11-09T13:15:38.70</time>
      </trkpt>
      <trkpt lat="38.509636666666665" lon="-1.2544366666666666">
        <ele>1205.8999999999987</ele>
        <time>2013-11-09T13:15:39.63</time>
      </trkpt>
      <trkpt lat="38.509616666666666" lon="-1.254505">
        <ele>1207.1999999999987</ele>
        <time>2013-11-09T13:15:40.62</time>
      </trkpt>
      <trkpt lat="38.50960666666667" lon="-1.2545616666666666">
        <ele>1207.6999999999987</ele>
        <time>2013-11-09T13:15:41.62</time>
      </trkpt>
      <trkpt lat="38.50959833333334" lon="-1.2546116666666667">
        <ele>1207.7999999999986</ele>
        <time>2013-11-09T13:15:42.64</time>
      </trkpt>
      <trkpt lat="38.50958833333333" lon="-1.2546616666666668">
        <ele>1207.7999999999986</ele>
        <time>2013-11-09T13:15:43.72</time>
      </trkpt>
      <trkpt lat="38.50958333333333" lon="-1.2547066666666666">
        <ele>1207.7999999999986</ele>
        <time>2013-11-09T13:15:44.58</time>
      </trkpt>
      <trkpt lat="38.50957833333333" lon="-1.2547516666666667">
        <ele>1207.7999999999986</ele>
        <time>2013-11-09T13:15:45.62</time>
      </trkpt>
      <trkpt lat="38.509575" lon="-1.25479">
        <ele>1207.7999999999986</ele>
        <time>2013-11-09T13:15:46.58</time>
      </trkpt>
      <trkpt lat="38.509571666666666" lon="-1.254825">
        <ele>1207.8999999999985</ele>
        <time>2013-11-09T13:15:47.63</time>
      </trkpt>
      <trkpt lat="38.509568333333334" lon="-1.25486">
        <ele>1207.8999999999985</ele>
        <time>2013-11-09T13:15:48.63</time>
      </trkpt>
      <trkpt lat="38.509566666666665" lon="-1.2548933333333334">
        <ele>1208.0999999999985</ele>
        <time>2013-11-09T13:15:49.58</time>
      </trkpt>
      <trkpt lat="38.509568333333334" lon="-1.2549316666666668">
        <ele>1208.1999999999985</ele>
        <time>2013-11-09T13:15:50.63</time>
      </trkpt>
      <trkpt lat="38.509571666666666" lon="-1.2549733333333333">
        <ele>1208.2999999999984</ele>
        <time>2013-11-09T13:15:51.62</time>
      </trkpt>
      <trkpt lat="38.50957833333333" lon="-1.2550183333333333">
        <ele>1208.3999999999983</ele>
        <time>2013-11-09T13:15:52.65</time>
      </trkpt>
      <trkpt lat="38.50959" lon="-1.2550716666666666">
        <ele>1209.0999999999983</ele>
        <time>2013-11-09T13:15:53.63</time>
      </trkpt>
      <trkpt lat="38.50960166666667" lon="-1.2551266666666667">
        <ele>1209.4999999999984</ele>
        <time>2013-11-09T13:15:54.62</time>
      </trkpt>
      <trkpt lat="38.509613333333334" lon="-1.2551766666666666">
        <ele>1209.5999999999983</ele>
        <time>2013-11-09T13:15:55.62</time>
      </trkpt>
      <trkpt lat="38.50963" lon="-1.2552183333333333">
        <ele>1209.5999999999983</ele>
        <time>2013-11-09T13:15:56.62</time>
      </trkpt>
      <trkpt lat="38.509656666666665" lon="-1.2552483333333333">
        <ele>1209.6999999999982</ele>
        <time>2013-11-09T13:15:57.63</time>
      </trkpt>
      <trkpt lat="38.50968666666667" lon="-1.25528">
        <ele>1209.7999999999981</ele>
        <time>2013-11-09T13:15:58.62</time>
      </trkpt>
      <trkpt lat="38.50971833333333" lon="-1.2553166666666666">
        <ele>1209.899999999998</ele>
        <time>2013-11-09T13:15:59.62</time>
      </trkpt>
      <trkpt lat="38.50974166666666" lon="-1.255355">
        <ele>1209.899999999998</ele>
        <time>2013-11-09T13:16:00.63</time>
      </trkpt>
      <trkpt lat="38.50976333333333" lon="-1.255395">
        <ele>1210.499999999998</ele>
        <time>2013-11-09T13:16:01.62</time>
      </trkpt>
      <trkpt lat="38.50978166666667" lon="-1.2554316666666667">
        <ele>1210.499999999998</ele>
        <time>2013-11-09T13:16:02.59</time>
      </trkpt>
      <trkpt lat="38.509795" lon="-1.2554483333333333">
        <ele>1210.499999999998</ele>
        <time>2013-11-09T13:16:03.63</time>
      </trkpt>
      <trkpt lat="38.509815" lon="-1.2554816666666666">
        <ele>1210.499999999998</ele>
        <time>2013-11-09T13:16:04.59</time>
      </trkpt>
      <trkpt lat="38.509838333333335" lon="-1.2555216666666666">
        <ele>1210.399999999998</ele>
        <time>2013-11-09T13:16:05.63</time>
      </trkpt>
      <trkpt lat="38.509861666666666" lon="-1.255565">
        <ele>1210.099999999998</ele>
        <time>2013-11-09T13:16:06.62</time>
      </trkpt>
      <trkpt lat="38.50988666666667" lon="-1.25561">
        <ele>1209.699999999998</ele>
        <time>2013-11-09T13:16:07.63</time>
      </trkpt>
      <trkpt lat="38.50991166666667" lon="-1.255645">
        <ele>1209.099999999998</ele>
        <time>2013-11-09T13:16:08.63</time>
      </trkpt>
      <trkpt lat="38.50994" lon="-1.2556866666666666">
        <ele>1208.7999999999981</ele>
        <time>2013-11-09T13:16:09.63</time>
      </trkpt>
      <trkpt lat="38.50997" lon="-1.2557316666666667">
        <ele>1208.399999999998</ele>
        <time>2013-11-09T13:16:10.62</time>
      </trkpt>
      <trkpt lat="38.509998333333336" lon="-1.2557766666666668">
        <ele>1208.099999999998</ele>
        <time>2013-11-09T13:16:11.62</time>
      </trkpt>
      <trkpt lat="38.51002166666667" lon="-1.25583">
        <ele>1207.699999999998</ele>
        <time>2013-11-09T13:16:12.59</time>
      </trkpt>
      <trkpt lat="38.510038333333334" lon="-1.255895">
        <ele>1207.699999999998</ele>
        <time>2013-11-09T13:16:13.64</time>
      </trkpt>
      <trkpt lat="38.51005" lon="-1.25596">
        <ele>1207.799999999998</ele>
        <time>2013-11-09T13:16:14.62</time>
      </trkpt>
      <trkpt lat="38.510061666666665" lon="-1.2560266666666666">
        <ele>1207.999999999998</ele>
        <time>2013-11-09T13:16:15.62</time>
      </trkpt>
      <trkpt lat="38.510083333333334" lon="-1.2560866666666666">
        <ele>1208.499999999998</ele>
        <time>2013-11-09T13:16:16.62</time>
      </trkpt>
      <trkpt lat="38.51011833333333" lon="-1.2561183333333332">
        <ele>1209.5999999999979</ele>
        <time>2013-11-09T13:16:17.62</time>
      </trkpt>
      <trkpt lat="38.51015" lon="-1.256135">
        <ele>1210.799999999998</ele>
        <time>2013-11-09T13:16:18.63</time>
      </trkpt>
      <trkpt lat="38.51019" lon="-1.25614">
        <ele>1212.499999999998</ele>
        <time>2013-11-09T13:16:19.62</time>
      </trkpt>
      <trkpt lat="38.51024" lon="-1.2561283333333333">
        <ele>1214.5999999999979</ele>
        <time>2013-11-09T13:16:20.63</time>
      </trkpt>
      <trkpt lat="38.51029666666667" lon="-1.2561016666666667">
        <ele>1216.3999999999978</ele>
        <time>2013-11-09T13:16:21.63</time>
      </trkpt>
      <trkpt lat="38.51035666666667" lon="-1.2560666666666667">
        <ele>1218.299999999998</ele>
        <time>2013-11-09T13:16:22.60</time>
      </trkpt>
      <trkpt lat="38.510421666666666" lon="-1.256025">
        <ele>1220.0999999999979</ele>
        <time>2013-11-09T13:16:23.63</time>
      </trkpt>
      <trkpt lat="38.510486666666665" lon="-1.25595">
        <ele>1222.299999999998</ele>
        <time>2013-11-09T13:16:24.63</time>
      </trkpt>
      <trkpt lat="38.510555" lon="-1.2558833333333332">
        <ele>1224.3999999999978</ele>
        <time>2013-11-09T13:16:25.62</time>
      </trkpt>
      <trkpt lat="38.510623333333335" lon="-1.2558233333333333">
        <ele>1226.4999999999977</ele>
        <time>2013-11-09T13:16:26.60</time>
      </trkpt>
      <trkpt lat="38.51068333333333" lon="-1.2557666666666667">
        <ele>1229.0999999999976</ele>
        <time>2013-11-09T13:16:27.63</time>
      </trkpt>
      <trkpt lat="38.51071666666667" lon="-1.2557516666666666">
        <ele>1229.3999999999976</ele>
        <time>2013-11-09T13:16:28.58</time>
      </trkpt>
      <trkpt lat="38.510665" lon="-1.2558183333333333">
        <ele>1233.6999999999975</ele>
        <time>2013-11-09T13:16:30.58</time>
      </trkpt>
      <trkpt lat="38.510598333333334" lon="-1.2558766666666668">
        <ele>1236.9999999999975</ele>
        <time>2013-11-09T13:16:31.71</time>
      </trkpt>
      <trkpt lat="38.510508333333334" lon="-1.2559016666666667">
        <ele>1240.0999999999974</ele>
        <time>2013-11-09T13:16:32.59</time>
      </trkpt>
      <trkpt lat="38.51036166666667" lon="-1.25589">
        <ele>1242.2999999999975</ele>
        <time>2013-11-09T13:16:33.58</time>
      </trkpt>
      <trkpt lat="38.51021" lon="-1.2558716666666667">
        <ele>1244.4999999999975</ele>
        <time>2013-11-09T13:16:34.62</time>
      </trkpt>
      <trkpt lat="38.510063333333335" lon="-1.2558483333333332">
        <ele>1246.9999999999975</ele>
        <time>2013-11-09T13:16:35.56</time>
      </trkpt>
      <trkpt lat="38.50991166666667" lon="-1.2557800000000001">
        <ele>1250.0999999999974</ele>
        <time>2013-11-09T13:16:36.58</time>
      </trkpt>
      <trkpt lat="38.50975666666667" lon="-1.2556683333333334">
        <ele>1253.1999999999973</ele>
        <time>2013-11-09T13:16:37.56</time>
      </trkpt>
      <trkpt lat="38.50962166666667" lon="-1.2555033333333334">
        <ele>1256.0999999999974</ele>
        <time>2013-11-09T13:16:38.62</time>
      </trkpt>
      <trkpt lat="38.509555" lon="-1.2552766666666666">
        <ele>1258.8999999999974</ele>
        <time>2013-11-09T13:16:39.63</time>
      </trkpt>
      <trkpt lat="38.50949166666667" lon="-1.25511">
        <ele>1261.7999999999975</ele>
        <time>2013-11-09T13:16:40.59</time>
      </trkpt>
      <trkpt lat="38.509496666666664" lon="-1.2549533333333334">
        <ele>1264.6999999999975</ele>
        <time>2013-11-09T13:16:41.65</time>
      </trkpt>
      <trkpt lat="38.509528333333336" lon="-1.2548216666666667">
        <ele>1267.4999999999975</ele>
        <time>2013-11-09T13:16:42.58</time>
      </trkpt>
      <trkpt lat="38.50958166666667" lon="-1.2547333333333333">
        <ele>1270.3999999999976</ele>
        <time>2013-11-09T13:16:43.56</time>
      </trkpt>
      <trkpt lat="38.50964333333334" lon="-1.2546616666666668">
        <ele>1273.5999999999976</ele>
        <time>2013-11-09T13:16:44.59</time>
      </trkpt>
      <trkpt lat="38.509703333333334" lon="-1.2546066666666666">
        <ele>1277.3999999999976</ele>
        <time>2013-11-09T13:16:45.62</time>
      </trkpt>
      <trkpt lat="38.50976333333333" lon="-1.2545950000000001">
        <ele>1277.7999999999977</ele>
        <time>2013-11-09T13:16:46.63</time>
      </trkpt>
      <trkpt lat="38.509818333333335" lon="-1.2545933333333332">
        <ele>1278.3999999999976</ele>
        <time>2013-11-09T13:16:47.63</time>
      </trkpt>
      <trkpt lat="38.509881666666665" lon="-1.2546033333333333">
        <ele>1283.9999999999975</ele>
        <time>2013-11-09T13:16:48.60</time>
      </trkpt>
      <trkpt lat="38.509928333333335" lon="-1.2546166666666667">
        <ele>1289.6999999999975</ele>
        <time>2013-11-09T13:16:49.63</time>
      </trkpt>
      <trkpt lat="38.509951666666666" lon="-1.2546249999999999">
        <ele>1290.2999999999975</ele>
        <time>2013-11-09T13:16:50.58</time>
      </trkpt>
      <trkpt lat="38.509985" lon="-1.2546283333333332">
        <ele>1290.9999999999975</ele>
        <time>2013-11-09T13:16:51.62</time>
      </trkpt>
      <trkpt lat="38.509991666666664" lon="-1.2546416666666667">
        <ele>1291.5999999999974</ele>
        <time>2013-11-09T13:16:52.58</time>
      </trkpt>
      <trkpt lat="38.50998" lon="-1.2546816666666667">
        <ele>1292.2999999999975</ele>
        <time>2013-11-09T13:16:53.67</time>
      </trkpt>
      <trkpt lat="38.50991166666667" lon="-1.2547316666666666">
        <ele>1299.0999999999974</ele>
        <time>2013-11-09T13:16:54.62</time>
      </trkpt>
      <trkpt lat="38.50980166666667" lon="-1.2547883333333334">
        <ele>1305.7999999999975</ele>
        <time>2013-11-09T13:16:55.58</time>
      </trkpt>
      <trkpt lat="38.509656666666665" lon="-1.2547916666666667">
        <ele>1312.3999999999974</ele>
        <time>2013-11-09T13:16:56.63</time>
      </trkpt>
      <trkpt lat="38.509496666666664" lon="-1.2547133333333333">
        <ele>1317.6999999999973</ele>
        <time>2013-11-09T13:16:57.74</time>
      </trkpt>
      <trkpt lat="38.50935333333334" lon="-1.25458">
        <ele>1322.3999999999974</ele>
        <time>2013-11-09T13:16:58.58</time>
      </trkpt>
      <trkpt lat="38.50922333333333" lon="-1.2544266666666666">
        <ele>1326.7999999999975</ele>
        <time>2013-11-09T13:16:59.63</time>
      </trkpt>
      <trkpt lat="38.509141666666665" lon="-1.2542633333333333">
        <ele>1330.7999999999975</ele>
        <time>2013-11-09T13:17:00.70</time>
      </trkpt>
      <trkpt lat="38.50911166666667" lon="-1.2541016666666667">
        <ele>1334.4999999999975</ele>
        <time>2013-11-09T13:17:01.65</time>
      </trkpt>
      <trkpt lat="38.50913166666667" lon="-1.2539150000000001">
        <ele>1338.1999999999975</ele>
        <time>2013-11-09T13:17:02.64</time>
      </trkpt>
      <trkpt lat="38.509168333333335" lon="-1.25375">
        <ele>1342.0999999999976</ele>
        <time>2013-11-09T13:17:03.63</time>
      </trkpt>
      <trkpt lat="38.50920166666667" lon="-1.2536283333333333">
        <ele>1346.2999999999977</ele>
        <time>2013-11-09T13:17:04.63</time>
      </trkpt>
      <trkpt lat="38.50922666666666" lon="-1.2535266666666667">
        <ele>1349.6999999999978</ele>
        <time>2013-11-09T13:17:05.64</time>
      </trkpt>
      <trkpt lat="38.50927166666666" lon="-1.2534466666666666">
        <ele>1353.1999999999978</ele>
        <time>2013-11-09T13:17:06.63</time>
      </trkpt>
      <trkpt lat="38.50931833333333" lon="-1.25341">
        <ele>1356.4999999999977</ele>
        <time>2013-11-09T13:17:07.63</time>
      </trkpt>
      <trkpt lat="38.509366666666665" lon="-1.2533916666666667">
        <ele>1356.7999999999977</ele>
        <time>2013-11-09T13:17:08.63</time>
      </trkpt>
      <trkpt lat="38.509405" lon="-1.2533666666666667">
        <ele>1357.2999999999977</ele>
        <time>2013-11-09T13:17:09.63</time>
      </trkpt>
      <trkpt lat="38.509465" lon="-1.2533483333333333">
        <ele>1357.7999999999977</ele>
        <time>2013-11-09T13:17:10.63</time>
      </trkpt>
      <trkpt lat="38.509508333333336" lon="-1.253355">
        <ele>1358.3999999999976</ele>
        <time>2013-11-09T13:17:11.63</time>
      </trkpt>
      <trkpt lat="38.50949" lon="-1.2534283333333334">
        <ele>1359.8999999999976</ele>
        <time>2013-11-09T13:17:13.63</time>
      </trkpt>
      <trkpt lat="38.50942" lon="-1.2535133333333333">
        <ele>1367.6999999999975</ele>
        <time>2013-11-09T13:17:14.74</time>
      </trkpt>
      <trkpt lat="38.50929333333333" lon="-1.25357">
        <ele>1374.2999999999975</ele>
        <time>2013-11-09T13:17:15.63</time>
      </trkpt>
      <trkpt lat="38.509148333333336" lon="-1.25362">
        <ele>1380.1999999999975</ele>
        <time>2013-11-09T13:17:16.63</time>
      </trkpt>
      <trkpt lat="38.508985" lon="-1.253545">
        <ele>1384.8999999999976</ele>
        <time>2013-11-09T13:17:17.59</time>
      </trkpt>
      <trkpt lat="38.508831666666666" lon="-1.2534033333333334">
        <ele>1388.8999999999976</ele>
        <time>2013-11-09T13:17:18.60</time>
      </trkpt>
      <trkpt lat="38.50868666666667" lon="-1.2532416666666666">
        <ele>1392.5999999999976</ele>
        <time>2013-11-09T13:17:19.74</time>
      </trkpt>
      <trkpt lat="38.508585" lon="-1.2530483333333333">
        <ele>1396.4999999999977</ele>
        <time>2013-11-09T13:17:20.63</time>
      </trkpt>
      <trkpt lat="38.508536666666664" lon="-1.2528616666666665">
        <ele>1399.6999999999978</ele>
        <time>2013-11-09T13:17:21.59</time>
      </trkpt>
      <trkpt lat="38.508515" lon="-1.2526933333333332">
        <ele>1402.9999999999977</ele>
        <time>2013-11-09T13:17:22.60</time>
      </trkpt>
      <trkpt lat="38.50850333333333" lon="-1.252515">
        <ele>1407.0999999999976</ele>
        <time>2013-11-09T13:17:23.64</time>
      </trkpt>
      <trkpt lat="38.508496666666666" lon="-1.252355">
        <ele>1411.1999999999975</ele>
        <time>2013-11-09T13:17:24.63</time>
      </trkpt>
      <trkpt lat="38.50850666666667" lon="-1.2522283333333333">
        <ele>1415.0999999999976</ele>
        <time>2013-11-09T13:17:25.63</time>
      </trkpt>
      <trkpt lat="38.508515" lon="-1.2521316666666666">
        <ele>1418.7999999999977</ele>
        <time>2013-11-09T13:17:26.63</time>
      </trkpt>
      <trkpt lat="38.508545" lon="-1.2520383333333334">
        <ele>1422.7999999999977</ele>
        <time>2013-11-09T13:17:27.63</time>
      </trkpt>
      <trkpt lat="38.508581666666664" lon="-1.2519283333333333">
        <ele>1427.0999999999976</ele>
        <time>2013-11-09T13:17:28.81</time>
      </trkpt>
      <trkpt lat="38.508653333333335" lon="-1.2518583333333333">
        <ele>1431.3999999999976</ele>
        <time>2013-11-09T13:17:29.63</time>
      </trkpt>
      <trkpt lat="38.508723333333336" lon="-1.2518066666666667">
        <ele>1435.6999999999975</ele>
        <time>2013-11-09T13:17:30.63</time>
      </trkpt>
      <trkpt lat="38.50879666666667" lon="-1.25175">
        <ele>1440.4999999999975</ele>
        <time>2013-11-09T13:17:31.63</time>
      </trkpt>
      <trkpt lat="38.50886" lon="-1.251725">
        <ele>1445.6999999999975</ele>
        <time>2013-11-09T13:17:32.62</time>
      </trkpt>
      <trkpt lat="38.508905" lon="-1.25172">
        <ele>1450.9999999999975</ele>
        <time>2013-11-09T13:17:33.63</time>
      </trkpt>
      <trkpt lat="38.50895" lon="-1.2517083333333332">
        <ele>1456.0999999999974</ele>
        <time>2013-11-09T13:17:34.71</time>
      </trkpt>
      <trkpt lat="38.50898333333333" lon="-1.2517033333333334">
        <ele>1456.5999999999974</ele>
        <time>2013-11-09T13:17:35.63</time>
      </trkpt>
      <trkpt lat="38.509026666666664" lon="-1.2517083333333332">
        <ele>1462.2999999999975</ele>
        <time>2013-11-09T13:17:36.63</time>
      </trkpt>
      <trkpt lat="38.50906833333333" lon="-1.251705">
        <ele>1467.1999999999975</ele>
        <time>2013-11-09T13:17:37.63</time>
      </trkpt>
      <trkpt lat="38.50911" lon="-1.2517416666666668">
        <ele>1470.9999999999975</ele>
        <time>2013-11-09T13:17:38.63</time>
      </trkpt>
      <trkpt lat="38.50914" lon="-1.25183">
        <ele>1473.8999999999976</ele>
        <time>2013-11-09T13:17:39.62</time>
      </trkpt>
      <trkpt lat="38.509161666666664" lon="-1.2519583333333333">
        <ele>1476.9999999999975</ele>
        <time>2013-11-09T13:17:40.70</time>
      </trkpt>
      <trkpt lat="38.50916" lon="-1.2520616666666666">
        <ele>1480.1999999999975</ele>
        <time>2013-11-09T13:17:41.63</time>
      </trkpt>
      <trkpt lat="38.50913833333333" lon="-1.2521483333333334">
        <ele>1483.6999999999975</ele>
        <time>2013-11-09T13:17:42.62</time>
      </trkpt>
      <trkpt lat="38.509105" lon="-1.2521883333333332">
        <ele>1483.9999999999975</ele>
        <time>2013-11-09T13:17:43.62</time>
      </trkpt>
      <trkpt lat="38.509071666666664" lon="-1.2522183333333334">
        <ele>1484.4999999999975</ele>
        <time>2013-11-09T13:17:44.62</time>
      </trkpt>
      <trkpt lat="38.509033333333335" lon="-1.2522433333333334">
        <ele>1484.8999999999976</ele>
        <time>2013-11-09T13:17:45.63</time>
      </trkpt>
      <trkpt lat="38.509" lon="-1.252275">
        <ele>1485.2999999999977</ele>
        <time>2013-11-09T13:17:46.63</time>
      </trkpt>
      <trkpt lat="38.508968333333335" lon="-1.2523083333333334">
        <ele>1488.5999999999976</ele>
        <time>2013-11-09T13:17:47.62</time>
      </trkpt>
      <trkpt lat="38.50892833333333" lon="-1.2523633333333333">
        <ele>1491.1999999999975</ele>
        <time>2013-11-09T13:17:48.57</time>
      </trkpt>
      <trkpt lat="38.50888666666667" lon="-1.2524233333333332">
        <ele>1493.1999999999975</ele>
        <time>2013-11-09T13:17:49.59</time>
      </trkpt>
      <trkpt lat="38.508851666666665" lon="-1.2524816666666667">
        <ele>1495.1999999999975</ele>
        <time>2013-11-09T13:17:50.63</time>
      </trkpt>
      <trkpt lat="38.50883" lon="-1.2525483333333334">
        <ele>1497.3999999999976</ele>
        <time>2013-11-09T13:17:51.63</time>
      </trkpt>
      <trkpt lat="38.508825" lon="-1.2525983333333333">
        <ele>1497.6999999999975</ele>
        <time>2013-11-09T13:17:52.59</time>
      </trkpt>
      <trkpt lat="38.508825" lon="-1.25265">
        <ele>1497.8999999999976</ele>
        <time>2013-11-09T13:17:53.62</time>
      </trkpt>
      <trkpt lat="38.508835" lon="-1.25269">
        <ele>1498.2999999999977</ele>
        <time>2013-11-09T13:17:54.58</time>
      </trkpt>
      <trkpt lat="38.508853333333334" lon="-1.2527283333333332">
        <ele>1498.5999999999976</ele>
        <time>2013-11-09T13:17:55.66</time>
      </trkpt>
      <trkpt lat="38.508875" lon="-1.25275">
        <ele>1498.9999999999977</ele>
        <time>2013-11-09T13:17:56.64</time>
      </trkpt>
      <trkpt lat="38.50891333333333" lon="-1.2527683333333333">
        <ele>1499.3999999999978</ele>
        <time>2013-11-09T13:17:57.64</time>
      </trkpt>
      <trkpt lat="38.508963333333334" lon="-1.2527633333333332">
        <ele>1499.8999999999978</ele>
        <time>2013-11-09T13:17:58.63</time>
      </trkpt>
      <trkpt lat="38.50901666666667" lon="-1.252755">
        <ele>1500.3999999999978</ele>
        <time>2013-11-09T13:17:59.63</time>
      </trkpt>
      <trkpt lat="38.50906666666667" lon="-1.2527383333333333">
        <ele>1500.9999999999977</ele>
        <time>2013-11-09T13:18:00.63</time>
      </trkpt>
      <trkpt lat="38.509098333333334" lon="-1.252725">
        <ele>1501.5999999999976</ele>
        <time>2013-11-09T13:18:01.64</time>
      </trkpt>
      <trkpt lat="38.50913" lon="-1.2527066666666666">
        <ele>1502.1999999999975</ele>
        <time>2013-11-09T13:18:02.62</time>
      </trkpt>
      <trkpt lat="38.509175" lon="-1.2526766666666667">
        <ele>1508.7999999999975</ele>
        <time>2013-11-09T13:18:03.64</time>
      </trkpt>
      <trkpt lat="38.50922833333333" lon="-1.2526366666666666">
        <ele>1514.3999999999974</ele>
        <time>2013-11-09T13:18:04.63</time>
      </trkpt>
      <trkpt lat="38.509296666666664" lon="-1.2525766666666667">
        <ele>1519.2999999999975</ele>
        <time>2013-11-09T13:18:05.63</time>
      </trkpt>
      <trkpt lat="38.50936166666666" lon="-1.2524899999999999">
        <ele>1522.7999999999975</ele>
        <time>2013-11-09T13:18:06.63</time>
      </trkpt>
      <trkpt lat="38.50942" lon="-1.2524066666666667">
        <ele>1525.6999999999975</ele>
        <time>2013-11-09T13:18:07.62</time>
      </trkpt>
      <trkpt lat="38.50947166666667" lon="-1.25232">
        <ele>1528.7999999999975</ele>
        <time>2013-11-09T13:18:08.62</time>
      </trkpt>
      <trkpt lat="38.50950666666667" lon="-1.252215">
        <ele>1531.8999999999974</ele>
        <time>2013-11-09T13:18:09.63</time>
      </trkpt>
      <trkpt lat="38.509535" lon="-1.2521183333333332">
        <ele>1534.9999999999973</ele>
        <time>2013-11-09T13:18:10.59</time>
      </trkpt>
      <trkpt lat="38.50955666666667" lon="-1.2520233333333333">
        <ele>1537.7999999999972</ele>
        <time>2013-11-09T13:18:11.63</time>
      </trkpt>
      <trkpt lat="38.50957833333333" lon="-1.2519233333333333">
        <ele>1540.5999999999972</ele>
        <time>2013-11-09T13:18:12.56</time>
      </trkpt>
      <trkpt lat="38.5096" lon="-1.25182">
        <ele>1543.3999999999971</ele>
        <time>2013-11-09T13:18:13.58</time>
      </trkpt>
      <trkpt lat="38.50962333333333" lon="-1.251725">
        <ele>1545.7999999999972</ele>
        <time>2013-11-09T13:18:14.63</time>
      </trkpt>
      <trkpt lat="38.50964166666667" lon="-1.2516333333333334">
        <ele>1548.7999999999972</ele>
        <time>2013-11-09T13:18:15.58</time>
      </trkpt>
      <trkpt lat="38.509658333333334" lon="-1.2515566666666667">
        <ele>1551.8999999999971</ele>
        <time>2013-11-09T13:18:16.63</time>
      </trkpt>
      <trkpt lat="38.509683333333335" lon="-1.2515083333333332">
        <ele>1555.0999999999972</ele>
        <time>2013-11-09T13:18:17.57</time>
      </trkpt>
      <trkpt lat="38.509706666666666" lon="-1.2514966666666667">
        <ele>1555.4999999999973</ele>
        <time>2013-11-09T13:18:18.59</time>
      </trkpt>
      <trkpt lat="38.509765" lon="-1.251495">
        <ele>1559.4999999999973</ele>
        <time>2013-11-09T13:18:19.59</time>
      </trkpt>
      <trkpt lat="38.50982666666667" lon="-1.2515116666666666">
        <ele>1563.7999999999972</ele>
        <time>2013-11-09T13:18:20.63</time>
      </trkpt>
      <trkpt lat="38.50987666666666" lon="-1.2515399999999999">
        <ele>1564.0999999999972</ele>
        <time>2013-11-09T13:18:21.63</time>
      </trkpt>
      <trkpt lat="38.50991666666667" lon="-1.25158">
        <ele>1564.4999999999973</ele>
        <time>2013-11-09T13:18:22.57</time>
      </trkpt>
      <trkpt lat="38.509915" lon="-1.2516483333333333">
        <ele>1569.7999999999972</ele>
        <time>2013-11-09T13:18:23.70</time>
      </trkpt>
      <trkpt lat="38.509925" lon="-1.2517366666666667">
        <ele>1574.0999999999972</ele>
        <time>2013-11-09T13:18:24.60</time>
      </trkpt>
      <trkpt lat="38.509935" lon="-1.2518216666666666">
        <ele>1577.699999999997</ele>
        <time>2013-11-09T13:18:25.63</time>
      </trkpt>
      <trkpt lat="38.50994" lon="-1.2518933333333333">
        <ele>1580.8999999999971</ele>
        <time>2013-11-09T13:18:26.63</time>
      </trkpt>
      <trkpt lat="38.50993666666667" lon="-1.2519633333333333">
        <ele>1583.2999999999972</ele>
        <time>2013-11-09T13:18:27.63</time>
      </trkpt>
      <trkpt lat="38.509925" lon="-1.2520216666666666">
        <ele>1584.8999999999971</ele>
        <time>2013-11-09T13:18:28.63</time>
      </trkpt>
      <trkpt lat="38.50991333333333" lon="-1.252075">
        <ele>1584.999999999997</ele>
        <time>2013-11-09T13:18:29.62</time>
      </trkpt>
      <trkpt lat="38.509903333333334" lon="-1.252135">
        <ele>1586.299999999997</ele>
        <time>2013-11-09T13:18:30.63</time>
      </trkpt>
      <trkpt lat="38.50989833333333" lon="-1.2521966666666666">
        <ele>1587.299999999997</ele>
        <time>2013-11-09T13:18:31.65</time>
      </trkpt>
      <trkpt lat="38.50987166666667" lon="-1.2522633333333333">
        <ele>1588.099999999997</ele>
        <time>2013-11-09T13:18:32.63</time>
      </trkpt>
      <trkpt lat="38.509835" lon="-1.2523333333333333">
        <ele>1589.099999999997</ele>
        <time>2013-11-09T13:18:33.62</time>
      </trkpt>
      <trkpt lat="38.50980666666667" lon="-1.2523866666666668">
        <ele>1589.999999999997</ele>
        <time>2013-11-09T13:18:34.58</time>
      </trkpt>
      <trkpt lat="38.509793333333334" lon="-1.252435">
        <ele>1590.099999999997</ele>
        <time>2013-11-09T13:18:35.63</time>
      </trkpt>
      <trkpt lat="38.50978666666666" lon="-1.2524916666666668">
        <ele>1591.6999999999969</ele>
        <time>2013-11-09T13:18:36.63</time>
      </trkpt>
      <trkpt lat="38.50978166666667" lon="-1.25256">
        <ele>1593.399999999997</ele>
        <time>2013-11-09T13:18:37.59</time>
      </trkpt>
      <trkpt lat="38.509755" lon="-1.2526483333333334">
        <ele>1594.9999999999968</ele>
        <time>2013-11-09T13:18:38.63</time>
      </trkpt>
      <trkpt lat="38.50971833333333" lon="-1.2527416666666666">
        <ele>1596.2999999999968</ele>
        <time>2013-11-09T13:18:39.63</time>
      </trkpt>
      <trkpt lat="38.50968833333334" lon="-1.25282">
        <ele>1597.3999999999967</ele>
        <time>2013-11-09T13:18:40.63</time>
      </trkpt>
      <trkpt lat="38.509661666666666" lon="-1.2528916666666667">
        <ele>1598.0999999999967</ele>
        <time>2013-11-09T13:18:41.63</time>
      </trkpt>
      <trkpt lat="38.509636666666665" lon="-1.2529633333333332">
        <ele>1598.0999999999967</ele>
        <time>2013-11-09T13:18:42.60</time>
      </trkpt>
      <trkpt lat="38.509616666666666" lon="-1.2530416666666666">
        <ele>1597.8999999999967</ele>
        <time>2013-11-09T13:18:43.62</time>
      </trkpt>
      <trkpt lat="38.50959666666667" lon="-1.2531216666666667">
        <ele>1597.6999999999966</ele>
        <time>2013-11-09T13:18:44.62</time>
      </trkpt>
      <trkpt lat="38.50957666666667" lon="-1.2532016666666665">
        <ele>1596.9999999999966</ele>
        <time>2013-11-09T13:18:45.63</time>
      </trkpt>
      <trkpt lat="38.50956166666667" lon="-1.25328">
        <ele>1596.0999999999965</ele>
        <time>2013-11-09T13:18:46.63</time>
      </trkpt>
      <trkpt lat="38.50954333333333" lon="-1.25335">
        <ele>1594.8999999999965</ele>
        <time>2013-11-09T13:18:47.72</time>
      </trkpt>
      <trkpt lat="38.509528333333336" lon="-1.2533983333333334">
        <ele>1593.2999999999965</ele>
        <time>2013-11-09T13:18:48.62</time>
      </trkpt>
      <trkpt lat="38.509481666666666" lon="-1.253455">
        <ele>1591.4999999999966</ele>
        <time>2013-11-09T13:18:49.62</time>
      </trkpt>
      <trkpt lat="38.50942333333333" lon="-1.2535216666666666">
        <ele>1589.5999999999965</ele>
        <time>2013-11-09T13:18:50.63</time>
      </trkpt>
      <trkpt lat="38.50936" lon="-1.2535883333333333">
        <ele>1588.0999999999965</ele>
        <time>2013-11-09T13:18:51.71</time>
      </trkpt>
      <trkpt lat="38.50929333333333" lon="-1.2536683333333334">
        <ele>1586.3999999999965</ele>
        <time>2013-11-09T13:18:52.62</time>
      </trkpt>
      <trkpt lat="38.509225" lon="-1.2537533333333333">
        <ele>1584.7999999999965</ele>
        <time>2013-11-09T13:18:53.57</time>
      </trkpt>
      <trkpt lat="38.50916" lon="-1.2538316666666667">
        <ele>1582.9999999999966</ele>
        <time>2013-11-09T13:18:54.73</time>
      </trkpt>
      <trkpt lat="38.5091" lon="-1.2538916666666666">
        <ele>1581.6999999999966</ele>
        <time>2013-11-09T13:18:55.62</time>
      </trkpt>
      <trkpt lat="38.50904166666667" lon="-1.2539416666666667">
        <ele>1580.0999999999967</ele>
        <time>2013-11-09T13:18:56.62</time>
      </trkpt>
      <trkpt lat="38.50898333333333" lon="-1.253995">
        <ele>1577.9999999999968</ele>
        <time>2013-11-09T13:18:57.63</time>
      </trkpt>
      <trkpt lat="38.50892" lon="-1.254065">
        <ele>1575.9999999999968</ele>
        <time>2013-11-09T13:18:58.58</time>
      </trkpt>
      <trkpt lat="38.50883833333334" lon="-1.2541583333333333">
        <ele>1574.4999999999968</ele>
        <time>2013-11-09T13:18:59.58</time>
      </trkpt>
      <trkpt lat="38.508761666666665" lon="-1.2542583333333333">
        <ele>1573.0999999999967</ele>
        <time>2013-11-09T13:19:00.63</time>
      </trkpt>
      <trkpt lat="38.5087" lon="-1.25434">
        <ele>1571.7999999999968</ele>
        <time>2013-11-09T13:19:01.62</time>
      </trkpt>
      <trkpt lat="38.508655" lon="-1.2543983333333333">
        <ele>1570.4999999999968</ele>
        <time>2013-11-09T13:19:02.62</time>
      </trkpt>
      <trkpt lat="38.50861166666667" lon="-1.2544566666666666">
        <ele>1568.5999999999967</ele>
        <time>2013-11-09T13:19:03.70</time>
      </trkpt>
      <trkpt lat="38.508561666666665" lon="-1.2545283333333332">
        <ele>1566.5999999999967</ele>
        <time>2013-11-09T13:19:04.63</time>
      </trkpt>
      <trkpt lat="38.50851" lon="-1.2546">
        <ele>1564.3999999999967</ele>
        <time>2013-11-09T13:19:05.64</time>
      </trkpt>
      <trkpt lat="38.50846166666667" lon="-1.254675">
        <ele>1562.1999999999966</ele>
        <time>2013-11-09T13:19:06.63</time>
      </trkpt>
      <trkpt lat="38.50841166666667" lon="-1.2547533333333334">
        <ele>1560.2999999999965</ele>
        <time>2013-11-09T13:19:07.63</time>
      </trkpt>
      <trkpt lat="38.508361666666666" lon="-1.2548366666666666">
        <ele>1558.5999999999965</ele>
        <time>2013-11-09T13:19:08.63</time>
      </trkpt>
      <trkpt lat="38.50831" lon="-1.2549216666666667">
        <ele>1557.4999999999966</ele>
        <time>2013-11-09T13:19:09.63</time>
      </trkpt>
      <trkpt lat="38.508266666666664" lon="-1.2549966666666665">
        <ele>1556.3999999999967</ele>
        <time>2013-11-09T13:19:10.63</time>
      </trkpt>
      <trkpt lat="38.50822" lon="-1.255075">
        <ele>1555.3999999999967</ele>
        <time>2013-11-09T13:19:11.76</time>
      </trkpt>
      <trkpt lat="38.50817833333333" lon="-1.2551466666666666">
        <ele>1554.4999999999966</ele>
        <time>2013-11-09T13:19:12.63</time>
      </trkpt>
      <trkpt lat="38.50813333333333" lon="-1.2552233333333334">
        <ele>1553.5999999999965</ele>
        <time>2013-11-09T13:19:13.59</time>
      </trkpt>
      <trkpt lat="38.50807833333333" lon="-1.25531">
        <ele>1552.2999999999965</ele>
        <time>2013-11-09T13:19:14.63</time>
      </trkpt>
      <trkpt lat="38.508023333333334" lon="-1.2553933333333334">
        <ele>1551.0999999999965</ele>
        <time>2013-11-09T13:19:15.73</time>
      </trkpt>
      <trkpt lat="38.50797" lon="-1.255465">
        <ele>1550.4999999999966</ele>
        <time>2013-11-09T13:19:16.63</time>
      </trkpt>
      <trkpt lat="38.50791666666667" lon="-1.25553">
        <ele>1549.9999999999966</ele>
        <time>2013-11-09T13:19:17.63</time>
      </trkpt>
      <trkpt lat="38.50785833333333" lon="-1.2555916666666667">
        <ele>1548.9999999999966</ele>
        <time>2013-11-09T13:19:18.58</time>
      </trkpt>
      <trkpt lat="38.507798333333334" lon="-1.2556483333333333">
        <ele>1548.0999999999965</ele>
        <time>2013-11-09T13:19:19.63</time>
      </trkpt>
      <trkpt lat="38.507735" lon="-1.2557066666666667">
        <ele>1547.0999999999965</ele>
        <time>2013-11-09T13:19:20.63</time>
      </trkpt>
      <trkpt lat="38.50767333333334" lon="-1.2557683333333334">
        <ele>1546.0999999999965</ele>
        <time>2013-11-09T13:19:21.62</time>
      </trkpt>
      <trkpt lat="38.507615" lon="-1.2558416666666667">
        <ele>1544.8999999999965</ele>
        <time>2013-11-09T13:19:22.63</time>
      </trkpt>
      <trkpt lat="38.507558333333336" lon="-1.2559216666666666">
        <ele>1543.7999999999965</ele>
        <time>2013-11-09T13:19:23.57</time>
      </trkpt>
      <trkpt lat="38.50749833333333" lon="-1.2560033333333334">
        <ele>1542.4999999999966</ele>
        <time>2013-11-09T13:19:24.63</time>
      </trkpt>
      <trkpt lat="38.50744" lon="-1.2560816666666668">
        <ele>1540.9999999999966</ele>
        <time>2013-11-09T13:19:25.63</time>
      </trkpt>
      <trkpt lat="38.50738166666667" lon="-1.2561550000000001">
        <ele>1539.4999999999966</ele>
        <time>2013-11-09T13:19:26.63</time>
      </trkpt>
      <trkpt lat="38.507333333333335" lon="-1.256225">
        <ele>1538.0999999999965</ele>
        <time>2013-11-09T13:19:27.63</time>
      </trkpt>
      <trkpt lat="38.507286666666666" lon="-1.2562983333333333">
        <ele>1536.9999999999966</ele>
        <time>2013-11-09T13:19:28.58</time>
      </trkpt>
      <trkpt lat="38.507236666666664" lon="-1.2563733333333333">
        <ele>1536.0999999999965</ele>
        <time>2013-11-09T13:19:29.64</time>
      </trkpt>
      <trkpt lat="38.50718833333333" lon="-1.25645">
        <ele>1535.3999999999965</ele>
        <time>2013-11-09T13:19:30.63</time>
      </trkpt>
      <trkpt lat="38.507146666666664" lon="-1.2565166666666667">
        <ele>1534.8999999999965</ele>
        <time>2013-11-09T13:19:31.63</time>
      </trkpt>
      <trkpt lat="38.507106666666665" lon="-1.2565866666666667">
        <ele>1534.5999999999965</ele>
        <time>2013-11-09T13:19:32.63</time>
      </trkpt>
      <trkpt lat="38.50707166666667" lon="-1.25666">
        <ele>1534.0999999999965</ele>
        <time>2013-11-09T13:19:33.60</time>
      </trkpt>
      <trkpt lat="38.50703" lon="-1.2567466666666667">
        <ele>1533.5999999999965</ele>
        <time>2013-11-09T13:19:34.70</time>
      </trkpt>
      <trkpt lat="38.50698333333333" lon="-1.25684">
        <ele>1532.8999999999965</ele>
        <time>2013-11-09T13:19:35.63</time>
      </trkpt>
      <trkpt lat="38.50693833333333" lon="-1.25692">
        <ele>1532.0999999999965</ele>
        <time>2013-11-09T13:19:36.62</time>
      </trkpt>
      <trkpt lat="38.50689833333333" lon="-1.2569833333333333">
        <ele>1531.3999999999965</ele>
        <time>2013-11-09T13:19:37.63</time>
      </trkpt>
      <trkpt lat="38.506855" lon="-1.2570516666666667">
        <ele>1530.7999999999965</ele>
        <time>2013-11-09T13:19:38.63</time>
      </trkpt>
      <trkpt lat="38.50681" lon="-1.257125">
        <ele>1530.0999999999965</ele>
        <time>2013-11-09T13:19:39.66</time>
      </trkpt>
      <trkpt lat="38.50676833333333" lon="-1.257195">
        <ele>1529.8999999999965</ele>
        <time>2013-11-09T13:19:40.63</time>
      </trkpt>
      <trkpt lat="38.50673166666667" lon="-1.257255">
        <ele>1529.8999999999965</ele>
        <time>2013-11-09T13:19:41.63</time>
      </trkpt>
      <trkpt lat="38.50669833333333" lon="-1.2573050000000001">
        <ele>1529.8999999999965</ele>
        <time>2013-11-09T13:19:42.63</time>
      </trkpt>
      <trkpt lat="38.50667" lon="-1.2573433333333333">
        <ele>1529.8999999999965</ele>
        <time>2013-11-09T13:19:43.63</time>
      </trkpt>
      <trkpt lat="38.50664" lon="-1.2573866666666667">
        <ele>1530.2999999999965</ele>
        <time>2013-11-09T13:19:44.66</time>
      </trkpt>
      <trkpt lat="38.506605" lon="-1.257435">
        <ele>1530.4999999999966</ele>
        <time>2013-11-09T13:19:45.69</time>
      </trkpt>
      <trkpt lat="38.50655833333333" lon="-1.2574916666666667">
        <ele>1530.4999999999966</ele>
        <time>2013-11-09T13:19:46.63</time>
      </trkpt>
      <trkpt lat="38.50651166666667" lon="-1.25755">
        <ele>1530.2999999999965</ele>
        <time>2013-11-09T13:19:47.64</time>
      </trkpt>
      <trkpt lat="38.506465" lon="-1.2576083333333332">
        <ele>1529.9999999999966</ele>
        <time>2013-11-09T13:19:48.82</time>
      </trkpt>
      <trkpt lat="38.506425" lon="-1.2576616666666667">
        <ele>1529.3999999999967</ele>
        <time>2013-11-09T13:19:49.65</time>
      </trkpt>
      <trkpt lat="38.50639" lon="-1.2577116666666668">
        <ele>1528.7999999999968</ele>
        <time>2013-11-09T13:19:50.63</time>
      </trkpt>
      <trkpt lat="38.506355" lon="-1.2577583333333333">
        <ele>1528.0999999999967</ele>
        <time>2013-11-09T13:19:51.63</time>
      </trkpt>
      <trkpt lat="38.50632" lon="-1.2578083333333334">
        <ele>1527.1999999999966</ele>
        <time>2013-11-09T13:19:52.64</time>
      </trkpt>
      <trkpt lat="38.50628666666667" lon="-1.2578616666666667">
        <ele>1525.9999999999966</ele>
        <time>2013-11-09T13:19:53.70</time>
      </trkpt>
      <trkpt lat="38.506258333333335" lon="-1.2579166666666666">
        <ele>1524.8999999999967</ele>
        <time>2013-11-09T13:19:54.64</time>
      </trkpt>
      <trkpt lat="38.50623" lon="-1.2579716666666667">
        <ele>1523.7999999999968</ele>
        <time>2013-11-09T13:19:55.64</time>
      </trkpt>
      <trkpt lat="38.5062" lon="-1.258025">
        <ele>1522.7999999999968</ele>
        <time>2013-11-09T13:19:56.63</time>
      </trkpt>
      <trkpt lat="38.506165" lon="-1.2580783333333334">
        <ele>1521.7999999999968</ele>
        <time>2013-11-09T13:19:57.63</time>
      </trkpt>
      <trkpt lat="38.50613166666667" lon="-1.2581333333333333">
        <ele>1520.6999999999969</ele>
        <time>2013-11-09T13:19:58.63</time>
      </trkpt>
      <trkpt lat="38.506096666666664" lon="-1.2581833333333332">
        <ele>1519.6999999999969</ele>
        <time>2013-11-09T13:19:59.63</time>
      </trkpt>
      <trkpt lat="38.50606" lon="-1.2582366666666667">
        <ele>1518.7999999999968</ele>
        <time>2013-11-09T13:20:00.63</time>
      </trkpt>
      <trkpt lat="38.506015" lon="-1.2582966666666666">
        <ele>1517.7999999999968</ele>
        <time>2013-11-09T13:20:01.64</time>
      </trkpt>
      <trkpt lat="38.505966666666666" lon="-1.2583616666666666">
        <ele>1516.8999999999967</ele>
        <time>2013-11-09T13:20:02.63</time>
      </trkpt>
      <trkpt lat="38.505915" lon="-1.258425">
        <ele>1516.1999999999966</ele>
        <time>2013-11-09T13:20:03.64</time>
      </trkpt>
      <trkpt lat="38.50586833333333" lon="-1.2584816666666667">
        <ele>1515.6999999999966</ele>
        <time>2013-11-09T13:20:04.64</time>
      </trkpt>
      <trkpt lat="38.505826666666664" lon="-1.2585333333333333">
        <ele>1515.2999999999965</ele>
        <time>2013-11-09T13:20:05.63</time>
      </trkpt>
      <trkpt lat="38.505785" lon="-1.2585833333333334">
        <ele>1514.6999999999966</ele>
        <time>2013-11-09T13:20:06.63</time>
      </trkpt>
      <trkpt lat="38.505736666666664" lon="-1.258645">
        <ele>1513.9999999999966</ele>
        <time>2013-11-09T13:20:07.63</time>
      </trkpt>
      <trkpt lat="38.50568833333333" lon="-1.2587066666666666">
        <ele>1513.1999999999966</ele>
        <time>2013-11-09T13:20:08.63</time>
      </trkpt>
      <trkpt lat="38.50564333333333" lon="-1.2587616666666666">
        <ele>1512.2999999999965</ele>
        <time>2013-11-09T13:20:09.60</time>
      </trkpt>
      <trkpt lat="38.505606666666665" lon="-1.258805">
        <ele>1511.4999999999966</ele>
        <time>2013-11-09T13:20:10.64</time>
      </trkpt>
      <trkpt lat="38.50557" lon="-1.2588533333333334">
        <ele>1510.6999999999966</ele>
        <time>2013-11-09T13:20:11.63</time>
      </trkpt>
      <trkpt lat="38.50553333333333" lon="-1.2589016666666666">
        <ele>1509.8999999999967</ele>
        <time>2013-11-09T13:20:12.63</time>
      </trkpt>
      <trkpt lat="38.505493333333334" lon="-1.2589566666666667">
        <ele>1509.2999999999968</ele>
        <time>2013-11-09T13:20:13.63</time>
      </trkpt>
      <trkpt lat="38.505445" lon="-1.2590183333333334">
        <ele>1508.4999999999968</ele>
        <time>2013-11-09T13:20:14.64</time>
      </trkpt>
      <trkpt lat="38.5054" lon="-1.2590816666666667">
        <ele>1507.899999999997</ele>
        <time>2013-11-09T13:20:15.63</time>
      </trkpt>
      <trkpt lat="38.505358333333334" lon="-1.25914">
        <ele>1507.1999999999969</ele>
        <time>2013-11-09T13:20:16.63</time>
      </trkpt>
      <trkpt lat="38.50532666666667" lon="-1.25919">
        <ele>1506.2999999999968</ele>
        <time>2013-11-09T13:20:17.63</time>
      </trkpt>
      <trkpt lat="38.5053" lon="-1.2592366666666668">
        <ele>1505.1999999999969</ele>
        <time>2013-11-09T13:20:18.63</time>
      </trkpt>
      <trkpt lat="38.50527833333334" lon="-1.2592816666666666">
        <ele>1504.099999999997</ele>
        <time>2013-11-09T13:20:19.64</time>
      </trkpt>
      <trkpt lat="38.505253333333336" lon="-1.25933">
        <ele>1502.899999999997</ele>
        <time>2013-11-09T13:20:20.63</time>
      </trkpt>
      <trkpt lat="38.505226666666665" lon="-1.25939">
        <ele>1501.599999999997</ele>
        <time>2013-11-09T13:20:21.63</time>
      </trkpt>
      <trkpt lat="38.50519666666667" lon="-1.2594533333333333">
        <ele>1500.299999999997</ele>
        <time>2013-11-09T13:20:22.63</time>
      </trkpt>
      <trkpt lat="38.50517166666667" lon="-1.2595133333333333">
        <ele>1499.099999999997</ele>
        <time>2013-11-09T13:20:23.82</time>
      </trkpt>
      <trkpt lat="38.50514833333333" lon="-1.2595683333333334">
        <ele>1497.999999999997</ele>
        <time>2013-11-09T13:20:24.64</time>
      </trkpt>
      <trkpt lat="38.50512666666667" lon="-1.2596266666666667">
        <ele>1496.999999999997</ele>
        <time>2013-11-09T13:20:25.63</time>
      </trkpt>
      <trkpt lat="38.50510333333333" lon="-1.259685">
        <ele>1496.199999999997</ele>
        <time>2013-11-09T13:20:26.64</time>
      </trkpt>
      <trkpt lat="38.50507666666667" lon="-1.2597483333333332">
        <ele>1495.499999999997</ele>
        <time>2013-11-09T13:20:27.64</time>
      </trkpt>
      <trkpt lat="38.50505" lon="-1.2598066666666667">
        <ele>1494.599999999997</ele>
        <time>2013-11-09T13:20:28.63</time>
      </trkpt>
      <trkpt lat="38.505021666666664" lon="-1.25987">
        <ele>1493.6999999999969</ele>
        <time>2013-11-09T13:20:29.63</time>
      </trkpt>
      <trkpt lat="38.504995" lon="-1.2599316666666667">
        <ele>1492.599999999997</ele>
        <time>2013-11-09T13:20:30.63</time>
      </trkpt>
      <trkpt lat="38.504963333333336" lon="-1.2600033333333334">
        <ele>1491.599999999997</ele>
        <time>2013-11-09T13:20:31.64</time>
      </trkpt>
      <trkpt lat="38.504931666666664" lon="-1.260075">
        <ele>1490.599999999997</ele>
        <time>2013-11-09T13:20:32.63</time>
      </trkpt>
      <trkpt lat="38.5049" lon="-1.2601433333333334">
        <ele>1489.499999999997</ele>
        <time>2013-11-09T13:20:33.64</time>
      </trkpt>
      <trkpt lat="38.50487" lon="-1.2602116666666667">
        <ele>1488.3999999999971</ele>
        <time>2013-11-09T13:20:34.60</time>
      </trkpt>
      <trkpt lat="38.504841666666664" lon="-1.26028">
        <ele>1487.199999999997</ele>
        <time>2013-11-09T13:20:35.63</time>
      </trkpt>
      <trkpt lat="38.50481" lon="-1.2603516666666668">
        <ele>1486.199999999997</ele>
        <time>2013-11-09T13:20:36.64</time>
      </trkpt>
      <trkpt lat="38.504776666666665" lon="-1.2604250000000001">
        <ele>1485.299999999997</ele>
        <time>2013-11-09T13:20:37.63</time>
      </trkpt>
      <trkpt lat="38.504738333333336" lon="-1.260495">
        <ele>1484.399999999997</ele>
        <time>2013-11-09T13:20:38.63</time>
      </trkpt>
      <trkpt lat="38.5047" lon="-1.2605616666666666">
        <ele>1483.599999999997</ele>
        <time>2013-11-09T13:20:39.60</time>
      </trkpt>
      <trkpt lat="38.504661666666664" lon="-1.2606233333333332">
        <ele>1482.899999999997</ele>
        <time>2013-11-09T13:20:40.59</time>
      </trkpt>
      <trkpt lat="38.50462666666667" lon="-1.2606833333333334">
        <ele>1482.099999999997</ele>
        <time>2013-11-09T13:20:41.63</time>
      </trkpt>
      <trkpt lat="38.50459166666667" lon="-1.2607466666666667">
        <ele>1481.299999999997</ele>
        <time>2013-11-09T13:20:42.64</time>
      </trkpt>
      <trkpt lat="38.504555" lon="-1.2608133333333333">
        <ele>1480.499999999997</ele>
        <time>2013-11-09T13:20:43.59</time>
      </trkpt>
      <trkpt lat="38.50451833333333" lon="-1.2608783333333333">
        <ele>1479.8999999999971</ele>
        <time>2013-11-09T13:20:44.63</time>
      </trkpt>
      <trkpt lat="38.50447833333333" lon="-1.2609366666666666">
        <ele>1479.2999999999972</ele>
        <time>2013-11-09T13:20:45.60</time>
      </trkpt>
      <trkpt lat="38.504435" lon="-1.2610000000000001">
        <ele>1478.5999999999972</ele>
        <time>2013-11-09T13:20:46.63</time>
      </trkpt>
      <trkpt lat="38.504395" lon="-1.2610566666666667">
        <ele>1477.699999999997</ele>
        <time>2013-11-09T13:20:47.64</time>
      </trkpt>
      <trkpt lat="38.504356666666666" lon="-1.2611183333333333">
        <ele>1476.799999999997</ele>
        <time>2013-11-09T13:20:48.63</time>
      </trkpt>
      <trkpt lat="38.504326666666664" lon="-1.2611733333333333">
        <ele>1476.199999999997</ele>
        <time>2013-11-09T13:20:49.63</time>
      </trkpt>
      <trkpt lat="38.50428333333333" lon="-1.2612516666666667">
        <ele>1475.5999999999972</ele>
        <time>2013-11-09T13:20:50.63</time>
      </trkpt>
      <trkpt lat="38.50423833333333" lon="-1.2613333333333334">
        <ele>1475.199999999997</ele>
        <time>2013-11-09T13:20:51.63</time>
      </trkpt>
      <trkpt lat="38.504196666666665" lon="-1.2614049999999999">
        <ele>1475.0999999999972</ele>
        <time>2013-11-09T13:20:52.64</time>
      </trkpt>
      <trkpt lat="38.50416166666667" lon="-1.261465">
        <ele>1474.7999999999972</ele>
        <time>2013-11-09T13:20:53.57</time>
      </trkpt>
      <trkpt lat="38.504133333333336" lon="-1.2615183333333333">
        <ele>1474.1999999999973</ele>
        <time>2013-11-09T13:20:54.59</time>
      </trkpt>
      <trkpt lat="38.5041" lon="-1.2615816666666666">
        <ele>1473.3999999999974</ele>
        <time>2013-11-09T13:20:55.64</time>
      </trkpt>
      <trkpt lat="38.50405833333333" lon="-1.26166">
        <ele>1472.4999999999973</ele>
        <time>2013-11-09T13:20:56.62</time>
      </trkpt>
      <trkpt lat="38.504016666666665" lon="-1.2617333333333334">
        <ele>1472.1999999999973</ele>
        <time>2013-11-09T13:20:57.64</time>
      </trkpt>
      <trkpt lat="38.50397666666667" lon="-1.2618066666666667">
        <ele>1471.7999999999972</ele>
        <time>2013-11-09T13:20:58.60</time>
      </trkpt>
      <trkpt lat="38.50394333333333" lon="-1.2618666666666667">
        <ele>1471.4999999999973</ele>
        <time>2013-11-09T13:20:59.63</time>
      </trkpt>
      <trkpt lat="38.50391333333334" lon="-1.2619216666666666">
        <ele>1471.3999999999974</ele>
        <time>2013-11-09T13:21:00.63</time>
      </trkpt>
      <trkpt lat="38.50387833333333" lon="-1.2619799999999999">
        <ele>1471.0999999999974</ele>
        <time>2013-11-09T13:21:01.64</time>
      </trkpt>
      <trkpt lat="38.503838333333334" lon="-1.26204">
        <ele>1470.6999999999973</ele>
        <time>2013-11-09T13:21:02.64</time>
      </trkpt>
      <trkpt lat="38.503795" lon="-1.262105">
        <ele>1469.9999999999973</ele>
        <time>2013-11-09T13:21:03.64</time>
      </trkpt>
      <trkpt lat="38.503753333333336" lon="-1.2621666666666667">
        <ele>1469.2999999999972</ele>
        <time>2013-11-09T13:21:04.63</time>
      </trkpt>
      <trkpt lat="38.503715" lon="-1.26223">
        <ele>1468.6999999999973</ele>
        <time>2013-11-09T13:21:05.63</time>
      </trkpt>
      <trkpt lat="38.503683333333335" lon="-1.2622849999999999">
        <ele>1467.9999999999973</ele>
        <time>2013-11-09T13:21:06.63</time>
      </trkpt>
      <trkpt lat="38.50365166666667" lon="-1.26234">
        <ele>1467.1999999999973</ele>
        <time>2013-11-09T13:21:07.64</time>
      </trkpt>
      <trkpt lat="38.503613333333334" lon="-1.262405">
        <ele>1466.3999999999974</ele>
        <time>2013-11-09T13:21:08.64</time>
      </trkpt>
      <trkpt lat="38.50357" lon="-1.262475">
        <ele>1465.6999999999973</ele>
        <time>2013-11-09T13:21:09.64</time>
      </trkpt>
      <trkpt lat="38.50353" lon="-1.2625466666666667">
        <ele>1464.9999999999973</ele>
        <time>2013-11-09T13:21:10.63</time>
      </trkpt>
      <trkpt lat="38.50349166666667" lon="-1.2626133333333334">
        <ele>1464.1999999999973</ele>
        <time>2013-11-09T13:21:11.63</time>
      </trkpt>
      <trkpt lat="38.50346" lon="-1.262665">
        <ele>1463.1999999999973</ele>
        <time>2013-11-09T13:21:12.63</time>
      </trkpt>
      <trkpt lat="38.50342833333333" lon="-1.2627166666666667">
        <ele>1462.2999999999972</ele>
        <time>2013-11-09T13:21:13.63</time>
      </trkpt>
      <trkpt lat="38.50339833333334" lon="-1.2627633333333335">
        <ele>1461.1999999999973</ele>
        <time>2013-11-09T13:21:14.64</time>
      </trkpt>
      <trkpt lat="38.503366666666665" lon="-1.2628133333333333">
        <ele>1459.8999999999974</ele>
        <time>2013-11-09T13:21:15.63</time>
      </trkpt>
      <trkpt lat="38.50333333333333" lon="-1.2628816666666667">
        <ele>1458.5999999999974</ele>
        <time>2013-11-09T13:21:16.63</time>
      </trkpt>
      <trkpt lat="38.50329333333333" lon="-1.2629616666666665">
        <ele>1457.4999999999975</ele>
        <time>2013-11-09T13:21:17.63</time>
      </trkpt>
      <trkpt lat="38.503245" lon="-1.2630483333333333">
        <ele>1456.3999999999976</ele>
        <time>2013-11-09T13:21:18.63</time>
      </trkpt>
      <trkpt lat="38.50319833333333" lon="-1.2631266666666667">
        <ele>1455.3999999999976</ele>
        <time>2013-11-09T13:21:19.64</time>
      </trkpt>
      <trkpt lat="38.50315833333333" lon="-1.2631866666666667">
        <ele>1454.4999999999975</ele>
        <time>2013-11-09T13:21:20.63</time>
      </trkpt>
      <trkpt lat="38.503125" lon="-1.2632383333333332">
        <ele>1453.6999999999975</ele>
        <time>2013-11-09T13:21:21.63</time>
      </trkpt>
      <trkpt lat="38.50309333333333" lon="-1.2632883333333333">
        <ele>1452.8999999999976</ele>
        <time>2013-11-09T13:21:22.63</time>
      </trkpt>
      <trkpt lat="38.503056666666666" lon="-1.2633466666666666">
        <ele>1452.5999999999976</ele>
        <time>2013-11-09T13:21:23.63</time>
      </trkpt>
      <trkpt lat="38.503008333333334" lon="-1.2634183333333333">
        <ele>1452.0999999999976</ele>
        <time>2013-11-09T13:21:24.62</time>
      </trkpt>
      <trkpt lat="38.502963333333334" lon="-1.2634866666666666">
        <ele>1451.4999999999977</ele>
        <time>2013-11-09T13:21:25.63</time>
      </trkpt>
      <trkpt lat="38.502916666666664" lon="-1.26355">
        <ele>1450.9999999999977</ele>
        <time>2013-11-09T13:21:26.63</time>
      </trkpt>
      <trkpt lat="38.502878333333335" lon="-1.2636066666666665">
        <ele>1450.0999999999976</ele>
        <time>2013-11-09T13:21:27.63</time>
      </trkpt>
      <trkpt lat="38.50284333333333" lon="-1.263665">
        <ele>1449.2999999999977</ele>
        <time>2013-11-09T13:21:28.65</time>
      </trkpt>
      <trkpt lat="38.502811666666666" lon="-1.26372">
        <ele>1448.6999999999978</ele>
        <time>2013-11-09T13:21:29.63</time>
      </trkpt>
      <trkpt lat="38.50277833333333" lon="-1.2637783333333332">
        <ele>1448.1999999999978</ele>
        <time>2013-11-09T13:21:30.64</time>
      </trkpt>
      <trkpt lat="38.502745" lon="-1.2638383333333334">
        <ele>1447.5999999999979</ele>
        <time>2013-11-09T13:21:31.63</time>
      </trkpt>
      <trkpt lat="38.50271166666667" lon="-1.263895">
        <ele>1446.799999999998</ele>
        <time>2013-11-09T13:21:32.64</time>
      </trkpt>
      <trkpt lat="38.50268" lon="-1.2639616666666667">
        <ele>1445.999999999998</ele>
        <time>2013-11-09T13:21:33.63</time>
      </trkpt>
      <trkpt lat="38.502646666666664" lon="-1.2640266666666666">
        <ele>1445.399999999998</ele>
        <time>2013-11-09T13:21:34.63</time>
      </trkpt>
      <trkpt lat="38.502608333333335" lon="-1.2641033333333334">
        <ele>1444.7999999999981</ele>
        <time>2013-11-09T13:21:35.73</time>
      </trkpt>
      <trkpt lat="38.50256666666667" lon="-1.26419">
        <ele>1443.9999999999982</ele>
        <time>2013-11-09T13:21:36.63</time>
      </trkpt>
      <trkpt lat="38.502523333333336" lon="-1.2642766666666667">
        <ele>1443.2999999999981</ele>
        <time>2013-11-09T13:21:37.63</time>
      </trkpt>
      <trkpt lat="38.50248666666667" lon="-1.2643566666666666">
        <ele>1442.7999999999981</ele>
        <time>2013-11-09T13:21:38.63</time>
      </trkpt>
      <trkpt lat="38.502455" lon="-1.2644333333333333">
        <ele>1442.2999999999981</ele>
        <time>2013-11-09T13:21:39.63</time>
      </trkpt>
      <trkpt lat="38.502426666666665" lon="-1.2645116666666667">
        <ele>1441.599999999998</ele>
        <time>2013-11-09T13:21:40.64</time>
      </trkpt>
      <trkpt lat="38.502401666666664" lon="-1.2645816666666667">
        <ele>1441.099999999998</ele>
        <time>2013-11-09T13:21:41.59</time>
      </trkpt>
      <trkpt lat="38.50237833333333" lon="-1.26465">
        <ele>1440.4999999999982</ele>
        <time>2013-11-09T13:21:42.63</time>
      </trkpt>
      <trkpt lat="38.50235333333333" lon="-1.264715">
        <ele>1439.9999999999982</ele>
        <time>2013-11-09T13:21:43.59</time>
      </trkpt>
      <trkpt lat="38.50233" lon="-1.264775">
        <ele>1439.8999999999983</ele>
        <time>2013-11-09T13:21:44.63</time>
      </trkpt>
      <trkpt lat="38.50230166666667" lon="-1.264845">
        <ele>1439.6999999999982</ele>
        <time>2013-11-09T13:21:45.63</time>
      </trkpt>
      <trkpt lat="38.502275" lon="-1.2649083333333333">
        <ele>1439.3999999999983</ele>
        <time>2013-11-09T13:21:46.63</time>
      </trkpt>
      <trkpt lat="38.502246666666665" lon="-1.2649716666666666">
        <ele>1439.0999999999983</ele>
        <time>2013-11-09T13:21:47.64</time>
      </trkpt>
      <trkpt lat="38.50221666666667" lon="-1.2650433333333333">
        <ele>1438.8999999999983</ele>
        <time>2013-11-09T13:21:48.59</time>
      </trkpt>
      <trkpt lat="38.502176666666664" lon="-1.265125">
        <ele>1438.1999999999982</ele>
        <time>2013-11-09T13:21:49.63</time>
      </trkpt>
      <trkpt lat="38.502136666666665" lon="-1.2652033333333335">
        <ele>1437.5999999999983</ele>
        <time>2013-11-09T13:21:50.58</time>
      </trkpt>
      <trkpt lat="38.50210166666667" lon="-1.2652716666666666">
        <ele>1437.1999999999982</ele>
        <time>2013-11-09T13:21:51.63</time>
      </trkpt>
      <trkpt lat="38.50207" lon="-1.2653366666666668">
        <ele>1436.8999999999983</ele>
        <time>2013-11-09T13:21:52.63</time>
      </trkpt>
      <trkpt lat="38.50203666666667" lon="-1.265405">
        <ele>1436.3999999999983</ele>
        <time>2013-11-09T13:21:53.60</time>
      </trkpt>
      <trkpt lat="38.502" lon="-1.26548">
        <ele>1435.7999999999984</ele>
        <time>2013-11-09T13:21:54.64</time>
      </trkpt>
      <trkpt lat="38.501958333333334" lon="-1.2655633333333334">
        <ele>1434.8999999999983</ele>
        <time>2013-11-09T13:21:55.63</time>
      </trkpt>
      <trkpt lat="38.50192" lon="-1.2656399999999999">
        <ele>1433.9999999999982</ele>
        <time>2013-11-09T13:21:56.63</time>
      </trkpt>
      <trkpt lat="38.501885" lon="-1.2657016666666667">
        <ele>1433.099999999998</ele>
        <time>2013-11-09T13:21:57.63</time>
      </trkpt>
      <trkpt lat="38.50185333333334" lon="-1.2657616666666667">
        <ele>1432.7999999999981</ele>
        <time>2013-11-09T13:21:58.63</time>
      </trkpt>
      <trkpt lat="38.501821666666665" lon="-1.265825">
        <ele>1432.599999999998</ele>
        <time>2013-11-09T13:21:59.64</time>
      </trkpt>
      <trkpt lat="38.501783333333336" lon="-1.2658916666666666">
        <ele>1432.199999999998</ele>
        <time>2013-11-09T13:22:00.63</time>
      </trkpt>
      <trkpt lat="38.50174333333333" lon="-1.2659616666666667">
        <ele>1431.499999999998</ele>
        <time>2013-11-09T13:22:01.63</time>
      </trkpt>
      <trkpt lat="38.50170333333333" lon="-1.2660383333333334">
        <ele>1430.799999999998</ele>
        <time>2013-11-09T13:22:02.63</time>
      </trkpt>
      <trkpt lat="38.50166333333333" lon="-1.2661083333333334">
        <ele>1430.199999999998</ele>
        <time>2013-11-09T13:22:03.64</time>
      </trkpt>
      <trkpt lat="38.501623333333335" lon="-1.26618">
        <ele>1429.999999999998</ele>
        <time>2013-11-09T13:22:04.64</time>
      </trkpt>
      <trkpt lat="38.50158" lon="-1.2662533333333332">
        <ele>1429.799999999998</ele>
        <time>2013-11-09T13:22:05.63</time>
      </trkpt>
      <trkpt lat="38.50153666666667" lon="-1.26632">
        <ele>1429.5999999999979</ele>
        <time>2013-11-09T13:22:06.63</time>
      </trkpt>
      <trkpt lat="38.5015" lon="-1.2663816666666667">
        <ele>1429.1999999999978</ele>
        <time>2013-11-09T13:22:07.63</time>
      </trkpt>
      <trkpt lat="38.501466666666666" lon="-1.2664383333333333">
        <ele>1428.9999999999977</ele>
        <time>2013-11-09T13:22:08.63</time>
      </trkpt>
      <trkpt lat="38.50143666666666" lon="-1.2664966666666666">
        <ele>1428.4999999999977</ele>
        <time>2013-11-09T13:22:09.59</time>
      </trkpt>
      <trkpt lat="38.50140666666667" lon="-1.2665516666666667">
        <ele>1427.9999999999977</ele>
        <time>2013-11-09T13:22:10.63</time>
      </trkpt>
      <trkpt lat="38.501376666666665" lon="-1.2666066666666667">
        <ele>1427.3999999999978</ele>
        <time>2013-11-09T13:22:11.58</time>
      </trkpt>
      <trkpt lat="38.50134666666667" lon="-1.2666683333333333">
        <ele>1426.5999999999979</ele>
        <time>2013-11-09T13:22:12.59</time>
      </trkpt>
      <trkpt lat="38.50131666666667" lon="-1.2667366666666666">
        <ele>1425.499999999998</ele>
        <time>2013-11-09T13:22:13.63</time>
      </trkpt>
      <trkpt lat="38.50129" lon="-1.2668133333333333">
        <ele>1424.699999999998</ele>
        <time>2013-11-09T13:22:14.64</time>
      </trkpt>
      <trkpt lat="38.50125833333333" lon="-1.2668983333333332">
        <ele>1423.799999999998</ele>
        <time>2013-11-09T13:22:15.64</time>
      </trkpt>
      <trkpt lat="38.50123" lon="-1.2669716666666666">
        <ele>1422.8999999999978</ele>
        <time>2013-11-09T13:22:16.58</time>
      </trkpt>
      <trkpt lat="38.50120166666667" lon="-1.2670383333333333">
        <ele>1421.8999999999978</ele>
        <time>2013-11-09T13:22:17.62</time>
      </trkpt>
      <trkpt lat="38.501175" lon="-1.2670983333333332">
        <ele>1420.9999999999977</ele>
        <time>2013-11-09T13:22:18.63</time>
      </trkpt>
      <trkpt lat="38.501151666666665" lon="-1.26716">
        <ele>1419.9999999999977</ele>
        <time>2013-11-09T13:22:19.65</time>
      </trkpt>
      <trkpt lat="38.501131666666666" lon="-1.2672233333333334">
        <ele>1419.2999999999977</ele>
        <time>2013-11-09T13:22:20.64</time>
      </trkpt>
      <trkpt lat="38.50111166666667" lon="-1.267295">
        <ele>1418.3999999999976</ele>
        <time>2013-11-09T13:22:21.63</time>
      </trkpt>
      <trkpt lat="38.50109" lon="-1.26737">
        <ele>1417.3999999999976</ele>
        <time>2013-11-09T13:22:22.63</time>
      </trkpt>
      <trkpt lat="38.50107166666667" lon="-1.2674383333333332">
        <ele>1416.3999999999976</ele>
        <time>2013-11-09T13:22:23.63</time>
      </trkpt>
      <trkpt lat="38.50105166666667" lon="-1.2675">
        <ele>1415.1999999999975</ele>
        <time>2013-11-09T13:22:24.63</time>
      </trkpt>
      <trkpt lat="38.50103333333333" lon="-1.267565">
        <ele>1413.7999999999975</ele>
        <time>2013-11-09T13:22:25.64</time>
      </trkpt>
      <trkpt lat="38.50101333333333" lon="-1.2676333333333334">
        <ele>1412.3999999999974</ele>
        <time>2013-11-09T13:22:26.63</time>
      </trkpt>
      <trkpt lat="38.500993333333334" lon="-1.2677100000000001">
        <ele>1411.1999999999973</ele>
        <time>2013-11-09T13:22:27.58</time>
      </trkpt>
      <trkpt lat="38.50097" lon="-1.267795">
        <ele>1410.0999999999974</ele>
        <time>2013-11-09T13:22:28.63</time>
      </trkpt>
      <trkpt lat="38.50095" lon="-1.267875">
        <ele>1409.2999999999975</ele>
        <time>2013-11-09T13:22:29.64</time>
      </trkpt>
      <trkpt lat="38.500935" lon="-1.267955">
        <ele>1408.6999999999975</ele>
        <time>2013-11-09T13:22:30.66</time>
      </trkpt>
      <trkpt lat="38.50092333333333" lon="-1.268035">
        <ele>1408.0999999999976</ele>
        <time>2013-11-09T13:22:31.63</time>
      </trkpt>
      <trkpt lat="38.50091166666667" lon="-1.2681216666666666">
        <ele>1407.5999999999976</ele>
        <time>2013-11-09T13:22:32.62</time>
      </trkpt>
      <trkpt lat="38.50090333333333" lon="-1.2682">
        <ele>1407.3999999999976</ele>
        <time>2013-11-09T13:22:33.64</time>
      </trkpt>
      <trkpt lat="38.50089333333333" lon="-1.2682733333333334">
        <ele>1407.0999999999976</ele>
        <time>2013-11-09T13:22:34.63</time>
      </trkpt>
      <trkpt lat="38.500885" lon="-1.2683333333333333">
        <ele>1407.0999999999976</ele>
        <time>2013-11-09T13:22:35.63</time>
      </trkpt>
      <trkpt lat="38.50087333333333" lon="-1.2683883333333332">
        <ele>1406.7999999999977</ele>
        <time>2013-11-09T13:22:36.63</time>
      </trkpt>
      <trkpt lat="38.500861666666665" lon="-1.2684383333333333">
        <ele>1406.1999999999978</ele>
        <time>2013-11-09T13:22:37.63</time>
      </trkpt>
      <trkpt lat="38.500841666666666" lon="-1.268505">
        <ele>1405.5999999999979</ele>
        <time>2013-11-09T13:22:38.64</time>
      </trkpt>
      <trkpt lat="38.500818333333335" lon="-1.2685816666666667">
        <ele>1405.299999999998</ele>
        <time>2013-11-09T13:22:39.64</time>
      </trkpt>
      <trkpt lat="38.500798333333336" lon="-1.26866">
        <ele>1405.499999999998</ele>
        <time>2013-11-09T13:22:40.63</time>
      </trkpt>
      <trkpt lat="38.50078166666667" lon="-1.2687266666666668">
        <ele>1405.999999999998</ele>
        <time>2013-11-09T13:22:41.63</time>
      </trkpt>
      <trkpt lat="38.500766666666664" lon="-1.2687916666666668">
        <ele>1406.5999999999979</ele>
        <time>2013-11-09T13:22:42.64</time>
      </trkpt>
      <trkpt lat="38.500753333333336" lon="-1.2688466666666667">
        <ele>1407.3999999999978</ele>
        <time>2013-11-09T13:22:43.64</time>
      </trkpt>
      <trkpt lat="38.50074" lon="-1.2689033333333333">
        <ele>1408.1999999999978</ele>
        <time>2013-11-09T13:22:44.63</time>
      </trkpt>
      <trkpt lat="38.500721666666664" lon="-1.2689599999999999">
        <ele>1409.1999999999978</ele>
        <time>2013-11-09T13:22:45.63</time>
      </trkpt>
      <trkpt lat="38.500701666666664" lon="-1.2690299999999999">
        <ele>1410.0999999999979</ele>
        <time>2013-11-09T13:22:46.62</time>
      </trkpt>
      <trkpt lat="38.50066833333333" lon="-1.26912">
        <ele>1410.999999999998</ele>
        <time>2013-11-09T13:22:47.71</time>
      </trkpt>
      <trkpt lat="38.500638333333335" lon="-1.2691966666666668">
        <ele>1411.799999999998</ele>
        <time>2013-11-09T13:22:48.63</time>
      </trkpt>
      <trkpt lat="38.50061" lon="-1.2692583333333334">
        <ele>1412.799999999998</ele>
        <time>2013-11-09T13:22:49.63</time>
      </trkpt>
      <trkpt lat="38.50058166666667" lon="-1.2693016666666668">
        <ele>1413.8999999999978</ele>
        <time>2013-11-09T13:22:50.64</time>
      </trkpt>
      <trkpt lat="38.50055166666667" lon="-1.26933">
        <ele>1415.0999999999979</ele>
        <time>2013-11-09T13:22:51.62</time>
      </trkpt>
      <trkpt lat="38.50051333333333" lon="-1.2693699999999999">
        <ele>1416.299999999998</ele>
        <time>2013-11-09T13:22:52.63</time>
      </trkpt>
      <trkpt lat="38.50047" lon="-1.2694266666666667">
        <ele>1416.999999999998</ele>
        <time>2013-11-09T13:22:53.63</time>
      </trkpt>
      <trkpt lat="38.50042833333333" lon="-1.2694916666666667">
        <ele>1417.299999999998</ele>
        <time>2013-11-09T13:22:54.62</time>
      </trkpt>
      <trkpt lat="38.50039833333334" lon="-1.2695483333333333">
        <ele>1417.5999999999979</ele>
        <time>2013-11-09T13:22:55.63</time>
      </trkpt>
      <trkpt lat="38.500366666666665" lon="-1.2696166666666666">
        <ele>1417.499999999998</ele>
        <time>2013-11-09T13:22:56.63</time>
      </trkpt>
      <trkpt lat="38.50033833333333" lon="-1.26969">
        <ele>1417.299999999998</ele>
        <time>2013-11-09T13:22:57.63</time>
      </trkpt>
      <trkpt lat="38.50031333333333" lon="-1.2697583333333333">
        <ele>1417.199999999998</ele>
        <time>2013-11-09T13:22:58.63</time>
      </trkpt>
      <trkpt lat="38.500285" lon="-1.2698333333333334">
        <ele>1417.199999999998</ele>
        <time>2013-11-09T13:22:59.63</time>
      </trkpt>
      <trkpt lat="38.500258333333335" lon="-1.2699066666666667">
        <ele>1417.499999999998</ele>
        <time>2013-11-09T13:23:00.63</time>
      </trkpt>
      <trkpt lat="38.50023" lon="-1.2699866666666666">
        <ele>1417.999999999998</ele>
        <time>2013-11-09T13:23:01.63</time>
      </trkpt>
      <trkpt lat="38.50020166666667" lon="-1.27006">
        <ele>1418.699999999998</ele>
        <time>2013-11-09T13:23:02.63</time>
      </trkpt>
      <trkpt lat="38.500173333333336" lon="-1.270135">
        <ele>1419.399999999998</ele>
        <time>2013-11-09T13:23:03.62</time>
      </trkpt>
      <trkpt lat="38.50013833333333" lon="-1.2702166666666668">
        <ele>1419.899999999998</ele>
        <time>2013-11-09T13:23:04.64</time>
      </trkpt>
      <trkpt lat="38.5001" lon="-1.2702966666666666">
        <ele>1420.699999999998</ele>
        <time>2013-11-09T13:23:05.63</time>
      </trkpt>
      <trkpt lat="38.500055" lon="-1.27038">
        <ele>1421.399999999998</ele>
        <time>2013-11-09T13:23:06.62</time>
      </trkpt>
      <trkpt lat="38.500008333333334" lon="-1.2704533333333332">
        <ele>1422.199999999998</ele>
        <time>2013-11-09T13:23:07.62</time>
      </trkpt>
      <trkpt lat="38.49996" lon="-1.2705216666666668">
        <ele>1422.999999999998</ele>
        <time>2013-11-09T13:23:08.63</time>
      </trkpt>
      <trkpt lat="38.49990666666667" lon="-1.2705883333333334">
        <ele>1423.699999999998</ele>
        <time>2013-11-09T13:23:09.64</time>
      </trkpt>
      <trkpt lat="38.499845" lon="-1.2706616666666666">
        <ele>1424.399999999998</ele>
        <time>2013-11-09T13:23:10.63</time>
      </trkpt>
      <trkpt lat="38.49977166666667" lon="-1.270745">
        <ele>1424.899999999998</ele>
        <time>2013-11-09T13:23:11.62</time>
      </trkpt>
      <trkpt lat="38.49970666666667" lon="-1.2708216666666667">
        <ele>1425.499999999998</ele>
        <time>2013-11-09T13:23:12.63</time>
      </trkpt>
      <trkpt lat="38.49965" lon="-1.2708916666666665">
        <ele>1426.399999999998</ele>
        <time>2013-11-09T13:23:13.64</time>
      </trkpt>
      <trkpt lat="38.499588333333335" lon="-1.2709683333333333">
        <ele>1427.7999999999981</ele>
        <time>2013-11-09T13:23:14.64</time>
      </trkpt>
      <trkpt lat="38.49951333333333" lon="-1.2710566666666667">
        <ele>1429.1999999999982</ele>
        <time>2013-11-09T13:23:15.62</time>
      </trkpt>
      <trkpt lat="38.499428333333334" lon="-1.2711516666666667">
        <ele>1430.3999999999983</ele>
        <time>2013-11-09T13:23:16.63</time>
      </trkpt>
      <trkpt lat="38.49932333333334" lon="-1.2712133333333333">
        <ele>1432.0999999999983</ele>
        <time>2013-11-09T13:23:17.62</time>
      </trkpt>
      <trkpt lat="38.49921333333333" lon="-1.2712533333333333">
        <ele>1434.1999999999982</ele>
        <time>2013-11-09T13:23:18.63</time>
      </trkpt>
      <trkpt lat="38.499105" lon="-1.2712683333333334">
        <ele>1436.5999999999983</ele>
        <time>2013-11-09T13:23:19.63</time>
      </trkpt>
      <trkpt lat="38.49898666666667" lon="-1.271255">
        <ele>1438.9999999999984</ele>
        <time>2013-11-09T13:23:20.62</time>
      </trkpt>
      <trkpt lat="38.498865" lon="-1.27126">
        <ele>1440.7999999999984</ele>
        <time>2013-11-09T13:23:21.63</time>
      </trkpt>
      <trkpt lat="38.498745" lon="-1.2712666666666665">
        <ele>1442.3999999999983</ele>
        <time>2013-11-09T13:23:22.62</time>
      </trkpt>
      <trkpt lat="38.498623333333335" lon="-1.271285">
        <ele>1444.1999999999982</ele>
        <time>2013-11-09T13:23:23.63</time>
      </trkpt>
      <trkpt lat="38.498505" lon="-1.2713183333333333">
        <ele>1445.9999999999982</ele>
        <time>2013-11-09T13:23:24.63</time>
      </trkpt>
      <trkpt lat="38.49841166666667" lon="-1.2713566666666667">
        <ele>1447.6999999999982</ele>
        <time>2013-11-09T13:23:25.63</time>
      </trkpt>
      <trkpt lat="38.498338333333336" lon="-1.2713983333333334">
        <ele>1449.4999999999982</ele>
        <time>2013-11-09T13:23:26.62</time>
      </trkpt>
      <trkpt lat="38.498286666666665" lon="-1.27145">
        <ele>1450.9999999999982</ele>
        <time>2013-11-09T13:23:27.63</time>
      </trkpt>
      <trkpt lat="38.49825" lon="-1.2714933333333334">
        <ele>1452.4999999999982</ele>
        <time>2013-11-09T13:23:28.63</time>
      </trkpt>
      <trkpt lat="38.49822833333333" lon="-1.2715216666666667">
        <ele>1452.599999999998</ele>
        <time>2013-11-09T13:23:29.64</time>
      </trkpt>
      <trkpt lat="38.498203333333336" lon="-1.2715383333333334">
        <ele>1452.7999999999981</ele>
        <time>2013-11-09T13:23:30.62</time>
      </trkpt>
      <trkpt lat="38.498185" lon="-1.2715516666666666">
        <ele>1453.099999999998</ele>
        <time>2013-11-09T13:23:31.62</time>
      </trkpt>
      <trkpt lat="38.49816" lon="-1.27157">
        <ele>1453.399999999998</ele>
        <time>2013-11-09T13:23:32.63</time>
      </trkpt>
      <trkpt lat="38.498126666666664" lon="-1.2715966666666667">
        <ele>1453.7999999999981</ele>
        <time>2013-11-09T13:23:33.70</time>
      </trkpt>
      <trkpt lat="38.49810333333333" lon="-1.27163">
        <ele>1454.1999999999982</ele>
        <time>2013-11-09T13:23:34.64</time>
      </trkpt>
      <trkpt lat="38.498085" lon="-1.2716583333333333">
        <ele>1454.6999999999982</ele>
        <time>2013-11-09T13:23:35.63</time>
      </trkpt>
      <trkpt lat="38.49805666666666" lon="-1.2716983333333334">
        <ele>1458.9999999999982</ele>
        <time>2013-11-09T13:23:36.60</time>
      </trkpt>
      <trkpt lat="38.49800166666667" lon="-1.2717450000000001">
        <ele>1463.1999999999982</ele>
        <time>2013-11-09T13:23:37.57</time>
      </trkpt>
      <trkpt lat="38.49790333333333" lon="-1.2718150000000001">
        <ele>1466.4999999999982</ele>
        <time>2013-11-09T13:23:38.68</time>
      </trkpt>
      <trkpt lat="38.497773333333335" lon="-1.2719">
        <ele>1469.3999999999983</ele>
        <time>2013-11-09T13:23:39.62</time>
      </trkpt>
      <trkpt lat="38.497645" lon="-1.2719666666666667">
        <ele>1472.3999999999983</ele>
        <time>2013-11-09T13:23:40.62</time>
      </trkpt>
      <trkpt lat="38.49751666666667" lon="-1.272025">
        <ele>1475.2999999999984</ele>
        <time>2013-11-09T13:23:41.62</time>
      </trkpt>
      <trkpt lat="38.4974" lon="-1.2720783333333334">
        <ele>1477.7999999999984</ele>
        <time>2013-11-09T13:23:42.61</time>
      </trkpt>
      <trkpt lat="38.497321666666664" lon="-1.2721149999999999">
        <ele>1480.3999999999983</ele>
        <time>2013-11-09T13:23:43.62</time>
      </trkpt>
      <trkpt lat="38.49726666666667" lon="-1.2721666666666667">
        <ele>1483.0999999999983</ele>
        <time>2013-11-09T13:23:44.62</time>
      </trkpt>
      <trkpt lat="38.49722666666667" lon="-1.272215">
        <ele>1485.8999999999983</ele>
        <time>2013-11-09T13:23:45.62</time>
      </trkpt>
      <trkpt lat="38.497188333333334" lon="-1.2722683333333333">
        <ele>1488.3999999999983</ele>
        <time>2013-11-09T13:23:46.57</time>
      </trkpt>
      <trkpt lat="38.49715166666667" lon="-1.2723266666666666">
        <ele>1490.6999999999982</ele>
        <time>2013-11-09T13:23:47.62</time>
      </trkpt>
      <trkpt lat="38.49712666666667" lon="-1.2723766666666667">
        <ele>1492.9999999999982</ele>
        <time>2013-11-09T13:23:48.54</time>
      </trkpt>
      <trkpt lat="38.49711" lon="-1.2724133333333334">
        <ele>1493.1999999999982</ele>
        <time>2013-11-09T13:23:49.25</time>
      </trkpt>
      <trkpt lat="38.49710666666667" lon="-1.272435">
        <ele>1493.4999999999982</ele>
        <time>2013-11-09T13:23:50.22</time>
      </trkpt>
      <trkpt lat="38.497125" lon="-1.27246">
        <ele>1496.1</ele>
        <time>2013-11-09T13:23:54.21</time>
      </trkpt>
      <trkpt lat="38.49711666666666" lon="-1.2725133333333334">
        <ele>1497.1</ele>
        <time>2013-11-09T13:23:55.22</time>
      </trkpt>
      <trkpt lat="38.49710666666667" lon="-1.2725866666666668">
        <ele>1497.6999999999998</ele>
        <time>2013-11-09T13:23:56.24</time>
      </trkpt>
      <trkpt lat="38.49707333333333" lon="-1.2726566666666668">
        <ele>1498.1999999999998</ele>
        <time>2013-11-09T13:23:57.21</time>
      </trkpt>
      <trkpt lat="38.49704166666667" lon="-1.272715">
        <ele>1498.8999999999999</ele>
        <time>2013-11-09T13:23:58.25</time>
      </trkpt>
      <trkpt lat="38.497006666666664" lon="-1.2727483333333334">
        <ele>1499.6999999999998</ele>
        <time>2013-11-09T13:23:59.20</time>
      </trkpt>
      <trkpt lat="38.496966666666665" lon="-1.27278">
        <ele>1500.1999999999998</ele>
        <time>2013-11-09T13:24:00.21</time>
      </trkpt>
      <trkpt lat="38.496923333333335" lon="-1.2728116666666667">
        <ele>1500.6</ele>
        <time>2013-11-09T13:24:01.22</time>
      </trkpt>
      <trkpt lat="38.49688333333334" lon="-1.27284">
        <ele>1500.8999999999999</ele>
        <time>2013-11-09T13:24:02.22</time>
      </trkpt>
      <trkpt lat="38.496838333333336" lon="-1.2728766666666667">
        <ele>1500.9999999999998</ele>
        <time>2013-11-09T13:24:03.21</time>
      </trkpt>
      <trkpt lat="38.496793333333336" lon="-1.2729233333333334">
        <ele>1500.6999999999998</ele>
        <time>2013-11-09T13:24:04.28</time>
      </trkpt>
      <trkpt lat="38.496741666666665" lon="-1.2729783333333333">
        <ele>1500.2999999999997</ele>
        <time>2013-11-09T13:24:05.26</time>
      </trkpt>
      <trkpt lat="38.49668833333333" lon="-1.2730299999999999">
        <ele>1499.6999999999998</ele>
        <time>2013-11-09T13:24:06.21</time>
      </trkpt>
      <trkpt lat="38.496628333333334" lon="-1.2730866666666667">
        <ele>1499.1999999999998</ele>
        <time>2013-11-09T13:24:07.26</time>
      </trkpt>
      <trkpt lat="38.496568333333336" lon="-1.2731433333333333">
        <ele>1498.9999999999998</ele>
        <time>2013-11-09T13:24:08.22</time>
      </trkpt>
      <trkpt lat="38.49650833333333" lon="-1.273195">
        <ele>1498.7999999999997</ele>
        <time>2013-11-09T13:24:09.28</time>
      </trkpt>
      <trkpt lat="38.496446666666664" lon="-1.27325">
        <ele>1498.3999999999996</ele>
        <time>2013-11-09T13:24:10.22</time>
      </trkpt>
      <trkpt lat="38.496388333333336" lon="-1.2733016666666668">
        <ele>1498.2999999999997</ele>
        <time>2013-11-09T13:24:11.52</time>
      </trkpt>
      <trkpt lat="38.49632833333333" lon="-1.2733583333333334">
        <ele>1498.6999999999998</ele>
        <time>2013-11-09T13:24:12.24</time>
      </trkpt>
      <trkpt lat="38.496278333333336" lon="-1.27341">
        <ele>1499.3999999999999</ele>
        <time>2013-11-09T13:24:13.29</time>
      </trkpt>
      <trkpt lat="38.49623833333333" lon="-1.2734433333333333">
        <ele>1499.8999999999999</ele>
        <time>2013-11-09T13:24:14.30</time>
      </trkpt>
      <trkpt lat="38.49621833333333" lon="-1.2734616666666667">
        <ele>1499.8999999999999</ele>
        <time>2013-11-09T13:24:15.29</time>
      </trkpt>
      <trkpt lat="38.496215" lon="-1.2734716666666666">
        <ele>1500.1</ele>
        <time>2013-11-09T13:24:16.28</time>
      </trkpt>
      <trkpt lat="38.49621166666667" lon="-1.273495">
        <ele>1500.1999999999998</ele>
        <time>2013-11-09T13:24:17.27</time>
      </trkpt>
      <trkpt lat="38.496203333333334" lon="-1.2735283333333334">
        <ele>1500.3999999999999</ele>
        <time>2013-11-09T13:24:18.64</time>
      </trkpt>
      <trkpt lat="38.49619833333333" lon="-1.2735633333333334">
        <ele>1500.6</ele>
        <time>2013-11-09T13:24:19.23</time>
      </trkpt>
      <trkpt lat="38.49619" lon="-1.2736016666666667">
        <ele>1500.8999999999999</ele>
        <time>2013-11-09T13:24:20.25</time>
      </trkpt>
      <trkpt lat="38.49617833333333" lon="-1.2736433333333332">
        <ele>1501.1</ele>
        <time>2013-11-09T13:24:21.28</time>
      </trkpt>
      <trkpt lat="38.496158333333334" lon="-1.2736916666666667">
        <ele>1501.5</ele>
        <time>2013-11-09T13:24:22.29</time>
      </trkpt>
      <trkpt lat="38.496138333333334" lon="-1.2737366666666667">
        <ele>1501.8</ele>
        <time>2013-11-09T13:24:23.28</time>
      </trkpt>
      <trkpt lat="38.49612" lon="-1.273775">
        <ele>1502.2</ele>
        <time>2013-11-09T13:24:24.28</time>
      </trkpt>
      <trkpt lat="38.49610833333333" lon="-1.2738033333333334">
        <ele>1502.6000000000001</ele>
        <time>2013-11-09T13:24:25.29</time>
      </trkpt>
      <trkpt lat="38.49610166666667" lon="-1.2738283333333333">
        <ele>1503.0000000000002</ele>
        <time>2013-11-09T13:24:26.24</time>
      </trkpt>
      <trkpt lat="38.496096666666666" lon="-1.2738516666666666">
        <ele>1503.5000000000002</ele>
        <time>2013-11-09T13:24:27.28</time>
      </trkpt>
      <trkpt lat="38.496095" lon="-1.2738766666666668">
        <ele>1504.0000000000002</ele>
        <time>2013-11-09T13:24:28.21</time>
      </trkpt>
      <trkpt lat="38.496096666666666" lon="-1.2739033333333334">
        <ele>1504.5000000000002</ele>
        <time>2013-11-09T13:24:29.28</time>
      </trkpt>
      <trkpt lat="38.496093333333334" lon="-1.273935">
        <ele>1505.0000000000002</ele>
        <time>2013-11-09T13:24:30.28</time>
      </trkpt>
      <trkpt lat="38.496085" lon="-1.2739833333333332">
        <ele>1505.5000000000002</ele>
        <time>2013-11-09T13:24:31.23</time>
      </trkpt>
      <trkpt lat="38.496068333333334" lon="-1.2740633333333333">
        <ele>1510.6000000000001</ele>
        <time>2013-11-09T13:24:32.28</time>
      </trkpt>
      <trkpt lat="38.496053333333336" lon="-1.2741466666666668">
        <ele>1515.1000000000001</ele>
        <time>2013-11-09T13:24:33.29</time>
      </trkpt>
      <trkpt lat="38.496046666666665" lon="-1.2742016666666667">
        <ele>1515.5000000000002</ele>
        <time>2013-11-09T13:24:34.27</time>
      </trkpt>
      <trkpt lat="38.49603833333333" lon="-1.2742499999999999">
        <ele>1516.0000000000002</ele>
        <time>2013-11-09T13:24:35.28</time>
      </trkpt>
      <trkpt lat="38.49602" lon="-1.2742916666666666">
        <ele>1516.5000000000002</ele>
        <time>2013-11-09T13:24:36.28</time>
      </trkpt>
      <trkpt lat="38.496001666666665" lon="-1.274325">
        <ele>1517.1000000000001</ele>
        <time>2013-11-09T13:24:37.23</time>
      </trkpt>
      <trkpt lat="38.49598" lon="-1.2743683333333333">
        <ele>1517.7</ele>
        <time>2013-11-09T13:24:38.28</time>
      </trkpt>
      <trkpt lat="38.49598" lon="-1.2744083333333334">
        <ele>1518.3</ele>
        <time>2013-11-09T13:24:39.28</time>
      </trkpt>
      <trkpt lat="38.495985" lon="-1.2744533333333332">
        <ele>1518.8999999999999</ele>
        <time>2013-11-09T13:24:40.24</time>
      </trkpt>
      <trkpt lat="38.495985" lon="-1.274495">
        <ele>1519.4999999999998</ele>
        <time>2013-11-09T13:24:41.28</time>
      </trkpt>
      <trkpt lat="38.49597333333333" lon="-1.2745333333333333">
        <ele>1520.1999999999998</ele>
        <time>2013-11-09T13:24:42.23</time>
      </trkpt>
      <trkpt lat="38.495955" lon="-1.2745600000000001">
        <ele>1520.8999999999999</ele>
        <time>2013-11-09T13:24:43.27</time>
      </trkpt>
      <trkpt lat="38.49594166666667" lon="-1.2745716666666667">
        <ele>1521.6</ele>
        <time>2013-11-09T13:24:44.28</time>
      </trkpt>
      <trkpt lat="38.49595166666667" lon="-1.27458">
        <ele>1523</ele>
        <time>2013-11-09T13:24:46.29</time>
      </trkpt>
      <trkpt lat="38.495958333333334" lon="-1.274605">
        <ele>1523.7</ele>
        <time>2013-11-09T13:24:47.28</time>
      </trkpt>
      <trkpt lat="38.49596833333333" lon="-1.2746683333333333">
        <ele>1530</ele>
        <time>2013-11-09T13:24:48.33</time>
      </trkpt>
      <trkpt lat="38.495975" lon="-1.2747183333333334">
        <ele>1530.5</ele>
        <time>2013-11-09T13:24:49.28</time>
      </trkpt>
      <trkpt lat="38.49598" lon="-1.2747566666666668">
        <ele>1531</ele>
        <time>2013-11-09T13:24:50.28</time>
      </trkpt>
      <trkpt lat="38.495981666666665" lon="-1.27478">
        <ele>1531.6</ele>
        <time>2013-11-09T13:24:51.29</time>
      </trkpt>
      <trkpt lat="38.49597833333333" lon="-1.2747950000000001">
        <ele>1532.1</ele>
        <time>2013-11-09T13:24:52.28</time>
      </trkpt>
      <trkpt lat="38.495958333333334" lon="-1.274835">
        <ele>1537.1</ele>
        <time>2013-11-09T13:24:53.25</time>
      </trkpt>
      <trkpt lat="38.495936666666665" lon="-1.274885">
        <ele>1541.1</ele>
        <time>2013-11-09T13:24:54.24</time>
      </trkpt>
      <trkpt lat="38.49592" lon="-1.2749366666666666">
        <ele>1541.5</ele>
        <time>2013-11-09T13:24:55.40</time>
      </trkpt>
      <trkpt lat="38.495898333333336" lon="-1.2749916666666667">
        <ele>1545.1</ele>
        <time>2013-11-09T13:24:56.30</time>
      </trkpt>
      <trkpt lat="38.49588833333333" lon="-1.27505">
        <ele>1548.5</ele>
        <time>2013-11-09T13:24:57.25</time>
      </trkpt>
      <trkpt lat="38.49587666666667" lon="-1.2751016666666666">
        <ele>1551.6</ele>
        <time>2013-11-09T13:24:58.29</time>
      </trkpt>
      <trkpt lat="38.495866666666664" lon="-1.2751466666666667">
        <ele>1554.1999999999998</ele>
        <time>2013-11-09T13:24:59.66</time>
      </trkpt>
      <trkpt lat="38.49587" lon="-1.2751933333333334">
        <ele>1554.3999999999999</ele>
        <time>2013-11-09T13:25:00.29</time>
      </trkpt>
      <trkpt lat="38.495886666666664" lon="-1.2752333333333334">
        <ele>1554.6</ele>
        <time>2013-11-09T13:25:01.22</time>
      </trkpt>
      <trkpt lat="38.49592166666667" lon="-1.2752566666666667">
        <ele>1554.8999999999999</ele>
        <time>2013-11-09T13:25:02.29</time>
      </trkpt>
      <trkpt lat="38.49594666666667" lon="-1.2752783333333333">
        <ele>1555.1</ele>
        <time>2013-11-09T13:25:03.24</time>
      </trkpt>
      <trkpt lat="38.495958333333334" lon="-1.2753083333333333">
        <ele>1555.3999999999999</ele>
        <time>2013-11-09T13:25:04.24</time>
      </trkpt>
      <trkpt lat="38.49596666666667" lon="-1.2753483333333333">
        <ele>1555.6</ele>
        <time>2013-11-09T13:25:05.23</time>
      </trkpt>
      <trkpt lat="38.49597" lon="-1.2754">
        <ele>1557.1</ele>
        <time>2013-11-09T13:25:06.21</time>
      </trkpt>
      <trkpt lat="38.49597" lon="-1.2754433333333333">
        <ele>1558</ele>
        <time>2013-11-09T13:25:07.21</time>
      </trkpt>
      <trkpt lat="38.495965" lon="-1.2754983333333334">
        <ele>1558.5</ele>
        <time>2013-11-09T13:25:08.27</time>
      </trkpt>
      <trkpt lat="38.49594666666667" lon="-1.27556">
        <ele>1558.5</ele>
        <time>2013-11-09T13:25:09.34</time>
      </trkpt>
      <trkpt lat="38.49593" lon="-1.2756366666666668">
        <ele>1558.2</ele>
        <time>2013-11-09T13:25:10.23</time>
      </trkpt>
      <trkpt lat="38.495918333333336" lon="-1.2757083333333332">
        <ele>1557.7</ele>
        <time>2013-11-09T13:25:11.27</time>
      </trkpt>
      <trkpt lat="38.49590666666667" lon="-1.275785">
        <ele>1557</ele>
        <time>2013-11-09T13:25:12.42</time>
      </trkpt>
      <trkpt lat="38.495891666666665" lon="-1.2758533333333333">
        <ele>1556.4</ele>
        <time>2013-11-09T13:25:13.23</time>
      </trkpt>
      <trkpt lat="38.495866666666664" lon="-1.2759183333333333">
        <ele>1555.8000000000002</ele>
        <time>2013-11-09T13:25:14.28</time>
      </trkpt>
      <trkpt lat="38.49584" lon="-1.2759816666666666">
        <ele>1554.6000000000001</ele>
        <time>2013-11-09T13:25:15.28</time>
      </trkpt>
      <trkpt lat="38.495808333333336" lon="-1.2760483333333332">
        <ele>1553.3000000000002</ele>
        <time>2013-11-09T13:25:16.28</time>
      </trkpt>
      <trkpt lat="38.495781666666666" lon="-1.2761133333333334">
        <ele>1551.9</ele>
        <time>2013-11-09T13:25:17.32</time>
      </trkpt>
      <trkpt lat="38.49575333333333" lon="-1.27618">
        <ele>1550.3000000000002</ele>
        <time>2013-11-09T13:25:18.28</time>
      </trkpt>
      <trkpt lat="38.49572333333333" lon="-1.2762566666666666">
        <ele>1548.8000000000002</ele>
        <time>2013-11-09T13:25:19.28</time>
      </trkpt>
      <trkpt lat="38.49569666666667" lon="-1.2763366666666667">
        <ele>1547.6000000000001</ele>
        <time>2013-11-09T13:25:20.28</time>
      </trkpt>
      <trkpt lat="38.495668333333334" lon="-1.2764133333333334">
        <ele>1546.6000000000001</ele>
        <time>2013-11-09T13:25:21.32</time>
      </trkpt>
      <trkpt lat="38.495641666666664" lon="-1.276485">
        <ele>1545.8000000000002</ele>
        <time>2013-11-09T13:25:22.28</time>
      </trkpt>
      <trkpt lat="38.49561833333333" lon="-1.2765533333333332">
        <ele>1545.0000000000002</ele>
        <time>2013-11-09T13:25:23.28</time>
      </trkpt>
      <trkpt lat="38.4956" lon="-1.2766133333333334">
        <ele>1544.4000000000003</ele>
        <time>2013-11-09T13:25:24.29</time>
      </trkpt>
      <trkpt lat="38.495575" lon="-1.2766916666666668">
        <ele>1543.7000000000003</ele>
        <time>2013-11-09T13:25:25.23</time>
      </trkpt>
      <trkpt lat="38.495545" lon="-1.27678">
        <ele>1542.9000000000003</ele>
        <time>2013-11-09T13:25:26.24</time>
      </trkpt>
      <trkpt lat="38.49551666666667" lon="-1.2768633333333332">
        <ele>1542.4000000000003</ele>
        <time>2013-11-09T13:25:27.24</time>
      </trkpt>
      <trkpt lat="38.495493333333336" lon="-1.2769416666666666">
        <ele>1541.8000000000004</ele>
        <time>2013-11-09T13:25:28.28</time>
      </trkpt>
      <trkpt lat="38.49547333333334" lon="-1.27702">
        <ele>1541.3000000000004</ele>
        <time>2013-11-09T13:25:29.28</time>
      </trkpt>
      <trkpt lat="38.495455" lon="-1.277095">
        <ele>1540.8000000000004</ele>
        <time>2013-11-09T13:25:30.22</time>
      </trkpt>
      <trkpt lat="38.49543833333333" lon="-1.2771716666666666">
        <ele>1540.3000000000004</ele>
        <time>2013-11-09T13:25:31.30</time>
      </trkpt>
      <trkpt lat="38.495421666666665" lon="-1.2772466666666666">
        <ele>1539.9000000000003</ele>
        <time>2013-11-09T13:25:32.21</time>
      </trkpt>
      <trkpt lat="38.49541" lon="-1.2773133333333333">
        <ele>1539.5000000000002</ele>
        <time>2013-11-09T13:25:33.28</time>
      </trkpt>
      <trkpt lat="38.495395" lon="-1.2773883333333333">
        <ele>1539.2000000000003</ele>
        <time>2013-11-09T13:25:34.28</time>
      </trkpt>
      <trkpt lat="38.49538166666667" lon="-1.2774616666666667">
        <ele>1538.8000000000002</ele>
        <time>2013-11-09T13:25:35.29</time>
      </trkpt>
      <trkpt lat="38.49536666666667" lon="-1.2775416666666666">
        <ele>1538.6000000000001</ele>
        <time>2013-11-09T13:25:36.24</time>
      </trkpt>
      <trkpt lat="38.495351666666664" lon="-1.2776333333333334">
        <ele>1538.3000000000002</ele>
        <time>2013-11-09T13:25:37.23</time>
      </trkpt>
      <trkpt lat="38.495335" lon="-1.2777283333333334">
        <ele>1537.8000000000002</ele>
        <time>2013-11-09T13:25:38.23</time>
      </trkpt>
      <trkpt lat="38.49532" lon="-1.2778133333333335">
        <ele>1537.1000000000001</ele>
        <time>2013-11-09T13:25:39.22</time>
      </trkpt>
      <trkpt lat="38.495305" lon="-1.277885">
        <ele>1536.4</ele>
        <time>2013-11-09T13:25:40.31</time>
      </trkpt>
      <trkpt lat="38.495286666666665" lon="-1.2779566666666666">
        <ele>1535.6000000000001</ele>
        <time>2013-11-09T13:25:41.45</time>
      </trkpt>
      <trkpt lat="38.495265" lon="-1.2780283333333333">
        <ele>1534.6000000000001</ele>
        <time>2013-11-09T13:25:42.28</time>
      </trkpt>
      <trkpt lat="38.495245" lon="-1.2781033333333334">
        <ele>1533.4</ele>
        <time>2013-11-09T13:25:43.28</time>
      </trkpt>
      <trkpt lat="38.495225" lon="-1.2781799999999999">
        <ele>1532.1000000000001</ele>
        <time>2013-11-09T13:25:44.39</time>
      </trkpt>
      <trkpt lat="38.49520833333333" lon="-1.278255">
        <ele>1530.8000000000002</ele>
        <time>2013-11-09T13:25:45.28</time>
      </trkpt>
      <trkpt lat="38.495196666666665" lon="-1.2783216666666668">
        <ele>1529.6000000000001</ele>
        <time>2013-11-09T13:25:46.27</time>
      </trkpt>
      <trkpt lat="38.49518666666667" lon="-1.2783816666666667">
        <ele>1528.6000000000001</ele>
        <time>2013-11-09T13:25:47.32</time>
      </trkpt>
      <trkpt lat="38.495173333333334" lon="-1.2784466666666667">
        <ele>1527.3000000000002</ele>
        <time>2013-11-09T13:25:48.21</time>
      </trkpt>
      <trkpt lat="38.49516333333333" lon="-1.2784983333333333">
        <ele>1526.0000000000002</ele>
        <time>2013-11-09T13:25:49.28</time>
      </trkpt>
      <trkpt lat="38.495153333333334" lon="-1.2785483333333334">
        <ele>1524.7000000000003</ele>
        <time>2013-11-09T13:25:50.23</time>
      </trkpt>
      <trkpt lat="38.495145" lon="-1.2785916666666666">
        <ele>1523.2000000000003</ele>
        <time>2013-11-09T13:25:51.28</time>
      </trkpt>
      <trkpt lat="38.49513666666667" lon="-1.2786483333333334">
        <ele>1521.7000000000003</ele>
        <time>2013-11-09T13:25:52.30</time>
      </trkpt>
      <trkpt lat="38.495126666666664" lon="-1.2787133333333334">
        <ele>1520.3000000000002</ele>
        <time>2013-11-09T13:25:53.24</time>
      </trkpt>
      <trkpt lat="38.49512166666667" lon="-1.2787783333333334">
        <ele>1519.0000000000002</ele>
        <time>2013-11-09T13:25:54.29</time>
      </trkpt>
      <trkpt lat="38.49512" lon="-1.2788433333333333">
        <ele>1517.9000000000003</ele>
        <time>2013-11-09T13:25:55.25</time>
      </trkpt>
      <trkpt lat="38.49512333333333" lon="-1.2789033333333333">
        <ele>1517.0000000000002</ele>
        <time>2013-11-09T13:25:56.26</time>
      </trkpt>
      <trkpt lat="38.49512333333333" lon="-1.27896">
        <ele>1516.1000000000001</ele>
        <time>2013-11-09T13:25:57.29</time>
      </trkpt>
      <trkpt lat="38.495125" lon="-1.279015">
        <ele>1515.2</ele>
        <time>2013-11-09T13:25:58.25</time>
      </trkpt>
      <trkpt lat="38.495125" lon="-1.2790766666666666">
        <ele>1514.6000000000001</ele>
        <time>2013-11-09T13:25:59.25</time>
      </trkpt>
      <trkpt lat="38.495125" lon="-1.2791383333333333">
        <ele>1514.0000000000002</ele>
        <time>2013-11-09T13:26:00.25</time>
      </trkpt>
      <trkpt lat="38.495125" lon="-1.2792033333333332">
        <ele>1513.4000000000003</ele>
        <time>2013-11-09T13:26:01.25</time>
      </trkpt>
      <trkpt lat="38.495125" lon="-1.2792766666666666">
        <ele>1513.0000000000002</ele>
        <time>2013-11-09T13:26:02.25</time>
      </trkpt>
      <trkpt lat="38.495125" lon="-1.2793533333333333">
        <ele>1512.3000000000002</ele>
        <time>2013-11-09T13:26:03.25</time>
      </trkpt>
      <trkpt lat="38.495126666666664" lon="-1.27943">
        <ele>1511.5000000000002</ele>
        <time>2013-11-09T13:26:04.29</time>
      </trkpt>
      <trkpt lat="38.495128333333334" lon="-1.2795033333333334">
        <ele>1511.0000000000002</ele>
        <time>2013-11-09T13:26:05.25</time>
      </trkpt>
      <trkpt lat="38.495131666666666" lon="-1.2795633333333334">
        <ele>1511.0000000000002</ele>
        <time>2013-11-09T13:26:06.25</time>
      </trkpt>
      <trkpt lat="38.495135" lon="-1.2796283333333334">
        <ele>1511.0000000000002</ele>
        <time>2013-11-09T13:26:07.25</time>
      </trkpt>
      <trkpt lat="38.49513833333334" lon="-1.279695">
        <ele>1511.0000000000002</ele>
        <time>2013-11-09T13:26:08.25</time>
      </trkpt>
      <trkpt lat="38.49514" lon="-1.2797666666666667">
        <ele>1510.9000000000003</ele>
        <time>2013-11-09T13:26:09.24</time>
      </trkpt>
      <trkpt lat="38.49514166666667" lon="-1.2798383333333332">
        <ele>1510.8000000000004</ele>
        <time>2013-11-09T13:26:10.25</time>
      </trkpt>
      <trkpt lat="38.49514166666667" lon="-1.2799116666666666">
        <ele>1510.7000000000005</ele>
        <time>2013-11-09T13:26:11.28</time>
      </trkpt>
      <trkpt lat="38.49514166666667" lon="-1.279985">
        <ele>1510.5000000000005</ele>
        <time>2013-11-09T13:26:12.26</time>
      </trkpt>
      <trkpt lat="38.49514166666667" lon="-1.2800566666666666">
        <ele>1510.5000000000005</ele>
        <time>2013-11-09T13:26:13.26</time>
      </trkpt>
      <trkpt lat="38.49514" lon="-1.2801266666666666">
        <ele>1510.4000000000005</ele>
        <time>2013-11-09T13:26:14.25</time>
      </trkpt>
      <trkpt lat="38.49513666666667" lon="-1.280205">
        <ele>1509.9000000000005</ele>
        <time>2013-11-09T13:26:15.25</time>
      </trkpt>
      <trkpt lat="38.495135" lon="-1.2802866666666666">
        <ele>1509.5000000000005</ele>
        <time>2013-11-09T13:26:16.24</time>
      </trkpt>
      <trkpt lat="38.495131666666666" lon="-1.28037">
        <ele>1509.1000000000004</ele>
        <time>2013-11-09T13:26:17.29</time>
      </trkpt>
      <trkpt lat="38.495126666666664" lon="-1.2804416666666667">
        <ele>1508.8000000000004</ele>
        <time>2013-11-09T13:26:18.24</time>
      </trkpt>
      <trkpt lat="38.495125" lon="-1.2805116666666667">
        <ele>1508.8000000000004</ele>
        <time>2013-11-09T13:26:19.25</time>
      </trkpt>
      <trkpt lat="38.49512" lon="-1.28058">
        <ele>1508.9000000000003</ele>
        <time>2013-11-09T13:26:20.24</time>
      </trkpt>
      <trkpt lat="38.495113333333336" lon="-1.280655">
        <ele>1509.0000000000002</ele>
        <time>2013-11-09T13:26:21.25</time>
      </trkpt>
      <trkpt lat="38.495106666666665" lon="-1.2807283333333332">
        <ele>1508.9000000000003</ele>
        <time>2013-11-09T13:26:22.29</time>
      </trkpt>
      <trkpt lat="38.49510333333333" lon="-1.2807983333333333">
        <ele>1508.6000000000004</ele>
        <time>2013-11-09T13:26:23.26</time>
      </trkpt>
      <trkpt lat="38.49510166666666" lon="-1.2808716666666666">
        <ele>1508.2000000000003</ele>
        <time>2013-11-09T13:26:24.25</time>
      </trkpt>
      <trkpt lat="38.49510166666666" lon="-1.280945">
        <ele>1507.6000000000004</ele>
        <time>2013-11-09T13:26:25.25</time>
      </trkpt>
      <trkpt lat="38.49510166666666" lon="-1.28102">
        <ele>1506.8000000000004</ele>
        <time>2013-11-09T13:26:26.25</time>
      </trkpt>
      <trkpt lat="38.49510333333333" lon="-1.2810883333333334">
        <ele>1505.9000000000003</ele>
        <time>2013-11-09T13:26:27.28</time>
      </trkpt>
      <trkpt lat="38.49511" lon="-1.281145">
        <ele>1504.8000000000004</ele>
        <time>2013-11-09T13:26:28.26</time>
      </trkpt>
      <trkpt lat="38.49511833333333" lon="-1.2812083333333333">
        <ele>1503.9000000000003</ele>
        <time>2013-11-09T13:26:29.25</time>
      </trkpt>
      <trkpt lat="38.495128333333334" lon="-1.2812816666666667">
        <ele>1503.0000000000002</ele>
        <time>2013-11-09T13:26:30.33</time>
      </trkpt>
      <trkpt lat="38.49514666666666" lon="-1.2813483333333333">
        <ele>1502.2000000000003</ele>
        <time>2013-11-09T13:26:31.25</time>
      </trkpt>
      <trkpt lat="38.49516333333333" lon="-1.281415">
        <ele>1501.4000000000003</ele>
        <time>2013-11-09T13:26:32.25</time>
      </trkpt>
      <trkpt lat="38.495173333333334" lon="-1.2814833333333333">
        <ele>1500.7000000000003</ele>
        <time>2013-11-09T13:26:33.25</time>
      </trkpt>
      <trkpt lat="38.49518" lon="-1.28155">
        <ele>1500.2000000000003</ele>
        <time>2013-11-09T13:26:34.25</time>
      </trkpt>
      <trkpt lat="38.49518333333333" lon="-1.281615">
        <ele>1499.5000000000002</ele>
        <time>2013-11-09T13:26:35.25</time>
      </trkpt>
      <trkpt lat="38.49518666666667" lon="-1.2816816666666666">
        <ele>1498.9000000000003</ele>
        <time>2013-11-09T13:26:36.25</time>
      </trkpt>
      <trkpt lat="38.49519166666666" lon="-1.2817516666666666">
        <ele>1498.3000000000004</ele>
        <time>2013-11-09T13:26:37.25</time>
      </trkpt>
      <trkpt lat="38.495196666666665" lon="-1.2818216666666666">
        <ele>1498.0000000000005</ele>
        <time>2013-11-09T13:26:38.28</time>
      </trkpt>
      <trkpt lat="38.495198333333335" lon="-1.28189">
        <ele>1497.8000000000004</ele>
        <time>2013-11-09T13:26:39.27</time>
      </trkpt>
      <trkpt lat="38.495196666666665" lon="-1.2819500000000001">
        <ele>1497.9000000000003</ele>
        <time>2013-11-09T13:26:40.25</time>
      </trkpt>
      <trkpt lat="38.49519166666666" lon="-1.2820066666666667">
        <ele>1498.0000000000002</ele>
        <time>2013-11-09T13:26:41.26</time>
      </trkpt>
      <trkpt lat="38.49518666666667" lon="-1.28206">
        <ele>1498.1000000000001</ele>
        <time>2013-11-09T13:26:42.25</time>
      </trkpt>
      <trkpt lat="38.49518166666667" lon="-1.2821133333333332">
        <ele>1498.0000000000002</ele>
        <time>2013-11-09T13:26:43.25</time>
      </trkpt>
      <trkpt lat="38.495176666666666" lon="-1.2821683333333334">
        <ele>1497.7000000000003</ele>
        <time>2013-11-09T13:26:44.25</time>
      </trkpt>
      <trkpt lat="38.495171666666664" lon="-1.2822283333333333">
        <ele>1497.3000000000002</ele>
        <time>2013-11-09T13:26:45.25</time>
      </trkpt>
      <trkpt lat="38.49516833333333" lon="-1.28229">
        <ele>1496.8000000000002</ele>
        <time>2013-11-09T13:26:46.26</time>
      </trkpt>
      <trkpt lat="38.49516666666667" lon="-1.2823533333333332">
        <ele>1496.5000000000002</ele>
        <time>2013-11-09T13:26:47.25</time>
      </trkpt>
      <trkpt lat="38.49516166666667" lon="-1.2824133333333334">
        <ele>1496.2000000000003</ele>
        <time>2013-11-09T13:26:48.25</time>
      </trkpt>
      <trkpt lat="38.495155" lon="-1.2824783333333334">
        <ele>1495.8000000000002</ele>
        <time>2013-11-09T13:26:49.25</time>
      </trkpt>
      <trkpt lat="38.49514833333333" lon="-1.2825383333333333">
        <ele>1495.4</ele>
        <time>2013-11-09T13:26:50.25</time>
      </trkpt>
      <trkpt lat="38.49514" lon="-1.2826066666666667">
        <ele>1495</ele>
        <time>2013-11-09T13:26:51.23</time>
      </trkpt>
      <trkpt lat="38.49513" lon="-1.2826733333333333">
        <ele>1494.5</ele>
        <time>2013-11-09T13:26:52.25</time>
      </trkpt>
      <trkpt lat="38.49512" lon="-1.2827333333333333">
        <ele>1494.1</ele>
        <time>2013-11-09T13:26:53.25</time>
      </trkpt>
      <trkpt lat="38.495105" lon="-1.2827883333333334">
        <ele>1493.6</ele>
        <time>2013-11-09T13:26:54.25</time>
      </trkpt>
      <trkpt lat="38.495088333333335" lon="-1.28284">
        <ele>1493.3</ele>
        <time>2013-11-09T13:26:55.30</time>
      </trkpt>
      <trkpt lat="38.495068333333336" lon="-1.28289">
        <ele>1492.3999999999999</ele>
        <time>2013-11-09T13:26:56.25</time>
      </trkpt>
      <trkpt lat="38.49504666666667" lon="-1.2829533333333334">
        <ele>1491.3</ele>
        <time>2013-11-09T13:26:57.25</time>
      </trkpt>
      <trkpt lat="38.49502666666667" lon="-1.2830183333333334">
        <ele>1490.1</ele>
        <time>2013-11-09T13:26:58.25</time>
      </trkpt>
      <trkpt lat="38.495015" lon="-1.283075">
        <ele>1489</ele>
        <time>2013-11-09T13:26:59.25</time>
      </trkpt>
      <trkpt lat="38.49501166666667" lon="-1.2831316666666668">
        <ele>1488.2</ele>
        <time>2013-11-09T13:27:00.28</time>
      </trkpt>
      <trkpt lat="38.49500833333333" lon="-1.28318">
        <ele>1487.5</ele>
        <time>2013-11-09T13:27:01.25</time>
      </trkpt>
      <trkpt lat="38.49500166666667" lon="-1.2832266666666667">
        <ele>1486.6</ele>
        <time>2013-11-09T13:27:02.25</time>
      </trkpt>
      <trkpt lat="38.49499333333333" lon="-1.2832783333333333">
        <ele>1485.6999999999998</ele>
        <time>2013-11-09T13:27:03.25</time>
      </trkpt>
      <trkpt lat="38.49498666666667" lon="-1.2833233333333334">
        <ele>1484.8999999999999</ele>
        <time>2013-11-09T13:27:04.31</time>
      </trkpt>
      <trkpt lat="38.49498" lon="-1.2833783333333333">
        <ele>1483.9999999999998</ele>
        <time>2013-11-09T13:27:05.28</time>
      </trkpt>
      <trkpt lat="38.494973333333334" lon="-1.2834383333333332">
        <ele>1483.3999999999999</ele>
        <time>2013-11-09T13:27:06.21</time>
      </trkpt>
      <trkpt lat="38.49496666666667" lon="-1.2835">
        <ele>1482.3999999999999</ele>
        <time>2013-11-09T13:27:07.23</time>
      </trkpt>
      <trkpt lat="38.49496333333333" lon="-1.28356">
        <ele>1481.3999999999999</ele>
        <time>2013-11-09T13:27:08.38</time>
      </trkpt>
      <trkpt lat="38.494965" lon="-1.283615">
        <ele>1480.4999999999998</ele>
        <time>2013-11-09T13:27:09.28</time>
      </trkpt>
      <trkpt lat="38.49496833333333" lon="-1.2836683333333334">
        <ele>1479.7999999999997</ele>
        <time>2013-11-09T13:27:10.25</time>
      </trkpt>
      <trkpt lat="38.494973333333334" lon="-1.28372">
        <ele>1479.0999999999997</ele>
        <time>2013-11-09T13:27:11.25</time>
      </trkpt>
      <trkpt lat="38.49498" lon="-1.2837766666666666">
        <ele>1478.1999999999996</ele>
        <time>2013-11-09T13:27:12.26</time>
      </trkpt>
      <trkpt lat="38.49498166666667" lon="-1.2838316666666667">
        <ele>1477.1999999999996</ele>
        <time>2013-11-09T13:27:13.25</time>
      </trkpt>
      <trkpt lat="38.49497" lon="-1.2838833333333333">
        <ele>1476.0999999999997</ele>
        <time>2013-11-09T13:27:14.25</time>
      </trkpt>
      <trkpt lat="38.49495" lon="-1.2839366666666667">
        <ele>1475.0999999999997</ele>
        <time>2013-11-09T13:27:15.25</time>
      </trkpt>
      <trkpt lat="38.494925" lon="-1.2839933333333333">
        <ele>1473.9999999999998</ele>
        <time>2013-11-09T13:27:16.26</time>
      </trkpt>
      <trkpt lat="38.49489833333333" lon="-1.2840566666666666">
        <ele>1472.6999999999998</ele>
        <time>2013-11-09T13:27:17.25</time>
      </trkpt>
      <trkpt lat="38.49487166666667" lon="-1.2841216666666666">
        <ele>1471.1</ele>
        <time>2013-11-09T13:27:18.25</time>
      </trkpt>
      <trkpt lat="38.49484" lon="-1.2841916666666666">
        <ele>1469.6</ele>
        <time>2013-11-09T13:27:19.25</time>
      </trkpt>
      <trkpt lat="38.49482" lon="-1.284275">
        <ele>1468.1</ele>
        <time>2013-11-09T13:27:20.28</time>
      </trkpt>
      <trkpt lat="38.494796666666666" lon="-1.28436">
        <ele>1466.6</ele>
        <time>2013-11-09T13:27:21.25</time>
      </trkpt>
      <trkpt lat="38.494778333333336" lon="-1.2844216666666668">
        <ele>1465.3999999999999</ele>
        <time>2013-11-09T13:27:22.26</time>
      </trkpt>
      <trkpt lat="38.494765" lon="-1.2844683333333333">
        <ele>1464.6</ele>
        <time>2013-11-09T13:27:23.25</time>
      </trkpt>
      <trkpt lat="38.494753333333335" lon="-1.2845183333333334">
        <ele>1464</ele>
        <time>2013-11-09T13:27:24.25</time>
      </trkpt>
      <trkpt lat="38.494745" lon="-1.28457">
        <ele>1462.8</ele>
        <time>2013-11-09T13:27:25.25</time>
      </trkpt>
      <trkpt lat="38.49474" lon="-1.2846316666666666">
        <ele>1461.3999999999999</ele>
        <time>2013-11-09T13:27:26.25</time>
      </trkpt>
      <trkpt lat="38.494748333333334" lon="-1.2847">
        <ele>1460.1</ele>
        <time>2013-11-09T13:27:27.28</time>
      </trkpt>
      <trkpt lat="38.49475833333333" lon="-1.2847633333333333">
        <ele>1458.8999999999999</ele>
        <time>2013-11-09T13:27:28.25</time>
      </trkpt>
      <trkpt lat="38.49476666666666" lon="-1.2848183333333334">
        <ele>1457.9999999999998</ele>
        <time>2013-11-09T13:27:29.25</time>
      </trkpt>
      <trkpt lat="38.49476833333333" lon="-1.2848633333333332">
        <ele>1457.1999999999998</ele>
        <time>2013-11-09T13:27:30.25</time>
      </trkpt>
      <trkpt lat="38.49476833333333" lon="-1.2849033333333333">
        <ele>1456.4999999999998</ele>
        <time>2013-11-09T13:27:31.25</time>
      </trkpt>
      <trkpt lat="38.494775" lon="-1.2849566666666667">
        <ele>1455.5999999999997</ele>
        <time>2013-11-09T13:27:32.25</time>
      </trkpt>
      <trkpt lat="38.49478666666667" lon="-1.2850216666666667">
        <ele>1454.5999999999997</ele>
        <time>2013-11-09T13:27:33.24</time>
      </trkpt>
      <trkpt lat="38.4948" lon="-1.2850833333333334">
        <ele>1453.5999999999997</ele>
        <time>2013-11-09T13:27:34.25</time>
      </trkpt>
      <trkpt lat="38.494816666666665" lon="-1.2851466666666667">
        <ele>1452.8999999999996</ele>
        <time>2013-11-09T13:27:35.25</time>
      </trkpt>
      <trkpt lat="38.494836666666664" lon="-1.2852183333333334">
        <ele>1452.2999999999997</ele>
        <time>2013-11-09T13:27:36.23</time>
      </trkpt>
      <trkpt lat="38.49487" lon="-1.28526">
        <ele>1451.9999999999998</ele>
        <time>2013-11-09T13:27:37.25</time>
      </trkpt>
      <trkpt lat="38.49490333333333" lon="-1.2852916666666667">
        <ele>1451.9999999999998</ele>
        <time>2013-11-09T13:27:38.25</time>
      </trkpt>
      <trkpt lat="38.494933333333336" lon="-1.28532">
        <ele>1451.7999999999997</ele>
        <time>2013-11-09T13:27:39.25</time>
      </trkpt>
      <trkpt lat="38.49496" lon="-1.2853516666666667">
        <ele>1451.7999999999997</ele>
        <time>2013-11-09T13:27:40.25</time>
      </trkpt>
      <trkpt lat="38.49498166666667" lon="-1.2853783333333333">
        <ele>1451.7999999999997</ele>
        <time>2013-11-09T13:27:41.29</time>
      </trkpt>
      <trkpt lat="38.494996666666665" lon="-1.28541">
        <ele>1451.7999999999997</ele>
        <time>2013-11-09T13:27:42.28</time>
      </trkpt>
      <trkpt lat="38.49501" lon="-1.28544">
        <ele>1451.0999999999997</ele>
        <time>2013-11-09T13:27:43.25</time>
      </trkpt>
      <trkpt lat="38.49502666666667" lon="-1.285485">
        <ele>1449.8999999999996</ele>
        <time>2013-11-09T13:27:44.24</time>
      </trkpt>
      <trkpt lat="38.495043333333335" lon="-1.285535">
        <ele>1448.6999999999996</ele>
        <time>2013-11-09T13:27:45.28</time>
      </trkpt>
      <trkpt lat="38.495061666666665" lon="-1.2855866666666667">
        <ele>1447.1999999999996</ele>
        <time>2013-11-09T13:27:46.23</time>
      </trkpt>
      <trkpt lat="38.49508" lon="-1.2856333333333334">
        <ele>1446.9999999999995</ele>
        <time>2013-11-09T13:27:47.29</time>
      </trkpt>
      <trkpt lat="38.49509666666667" lon="-1.28567">
        <ele>1446.8999999999996</ele>
        <time>2013-11-09T13:27:48.25</time>
      </trkpt>
      <trkpt lat="38.495111666666666" lon="-1.2857">
        <ele>1446.6999999999996</ele>
        <time>2013-11-09T13:27:49.28</time>
      </trkpt>
      <trkpt lat="38.495126666666664" lon="-1.28573">
        <ele>1446.3999999999996</ele>
        <time>2013-11-09T13:27:50.25</time>
      </trkpt>
      <trkpt lat="38.49514" lon="-1.285765">
        <ele>1446.1999999999996</ele>
        <time>2013-11-09T13:27:51.23</time>
      </trkpt>
      <trkpt lat="38.495151666666665" lon="-1.2858066666666668">
        <ele>1445.8999999999996</ele>
        <time>2013-11-09T13:27:52.28</time>
      </trkpt>
      <trkpt lat="38.49516" lon="-1.2858516666666666">
        <ele>1445.5999999999997</ele>
        <time>2013-11-09T13:27:53.29</time>
      </trkpt>
      <trkpt lat="38.49516166666667" lon="-1.2859">
        <ele>1445.2999999999997</ele>
        <time>2013-11-09T13:27:54.25</time>
      </trkpt>
      <trkpt lat="38.49516333333333" lon="-1.2859416666666668">
        <ele>1444.9999999999998</ele>
        <time>2013-11-09T13:27:55.25</time>
      </trkpt>
      <trkpt lat="38.49516333333333" lon="-1.2859816666666666">
        <ele>1444.5999999999997</ele>
        <time>2013-11-09T13:27:56.28</time>
      </trkpt>
      <trkpt lat="38.495165" lon="-1.2860216666666666">
        <ele>1440.2999999999997</ele>
        <time>2013-11-09T13:27:57.28</time>
      </trkpt>
      <trkpt lat="38.49516833333333" lon="-1.2860683333333334">
        <ele>1436.2999999999997</ele>
        <time>2013-11-09T13:27:58.25</time>
      </trkpt>
      <trkpt lat="38.495173333333334" lon="-1.28612">
        <ele>1432.5999999999997</ele>
        <time>2013-11-09T13:27:59.28</time>
      </trkpt>
      <trkpt lat="38.49518" lon="-1.286175">
        <ele>1428.8999999999996</ele>
        <time>2013-11-09T13:28:00.27</time>
      </trkpt>
      <trkpt lat="38.49519333333333" lon="-1.286225">
        <ele>1425.5999999999997</ele>
        <time>2013-11-09T13:28:01.25</time>
      </trkpt>
      <trkpt lat="38.495205" lon="-1.2862633333333333">
        <ele>1422.5999999999997</ele>
        <time>2013-11-09T13:28:02.25</time>
      </trkpt>
      <trkpt lat="38.49521333333333" lon="-1.2863016666666667">
        <ele>1419.6999999999996</ele>
        <time>2013-11-09T13:28:03.24</time>
      </trkpt>
      <trkpt lat="38.495221666666666" lon="-1.2863366666666667">
        <ele>1416.8999999999996</ele>
        <time>2013-11-09T13:28:04.57</time>
      </trkpt>
      <trkpt lat="38.49523333333333" lon="-1.2863816666666668">
        <ele>1413.9999999999995</ele>
        <time>2013-11-09T13:28:05.33</time>
      </trkpt>
      <trkpt lat="38.495243333333335" lon="-1.2864233333333335">
        <ele>1411.0999999999995</ele>
        <time>2013-11-09T13:28:06.26</time>
      </trkpt>
      <trkpt lat="38.49525333333333" lon="-1.2864566666666666">
        <ele>1410.7999999999995</ele>
        <time>2013-11-09T13:28:07.25</time>
      </trkpt>
      <trkpt lat="38.495268333333335" lon="-1.2864833333333334">
        <ele>1410.4999999999995</ele>
        <time>2013-11-09T13:28:08.24</time>
      </trkpt>
      <trkpt lat="38.49528333333333" lon="-1.2865016666666667">
        <ele>1410.0999999999995</ele>
        <time>2013-11-09T13:28:09.24</time>
      </trkpt>
      <trkpt lat="38.49529666666667" lon="-1.2865199999999999">
        <ele>1409.6999999999994</ele>
        <time>2013-11-09T13:28:10.25</time>
      </trkpt>
      <trkpt lat="38.495306666666664" lon="-1.2865416666666667">
        <ele>1409.2999999999993</ele>
        <time>2013-11-09T13:28:11.28</time>
      </trkpt>
      <trkpt lat="38.49532" lon="-1.2865683333333333">
        <ele>1408.7999999999993</ele>
        <time>2013-11-09T13:28:12.24</time>
      </trkpt>
      <trkpt lat="38.49533666666667" lon="-1.2866033333333333">
        <ele>1408.2999999999993</ele>
        <time>2013-11-09T13:28:13.24</time>
      </trkpt>
      <trkpt lat="38.495353333333334" lon="-1.2866383333333333">
        <ele>1407.7999999999993</ele>
        <time>2013-11-09T13:28:14.25</time>
      </trkpt>
      <trkpt lat="38.495365" lon="-1.2866633333333333">
        <ele>1407.2999999999993</ele>
        <time>2013-11-09T13:28:15.25</time>
      </trkpt>
      <trkpt lat="38.49537333333333" lon="-1.286675">
        <ele>1406.7999999999993</ele>
        <time>2013-11-09T13:28:16.25</time>
      </trkpt>
      <trkpt lat="38.495378333333335" lon="-1.2866783333333334">
        <ele>1406.2999999999993</ele>
        <time>2013-11-09T13:28:17.25</time>
      </trkpt>
      <trkpt lat="38.495395" lon="-1.2866783333333334">
        <ele>1405.7999999999993</ele>
        <time>2013-11-09T13:28:18.25</time>
      </trkpt>
      <trkpt lat="38.49542" lon="-1.2866733333333333">
        <ele>1405.1999999999994</ele>
        <time>2013-11-09T13:28:19.37</time>
      </trkpt>
      <trkpt lat="38.49545666666667" lon="-1.2866433333333334">
        <ele>1404.6999999999994</ele>
        <time>2013-11-09T13:28:20.25</time>
      </trkpt>
      <trkpt lat="38.495491666666666" lon="-1.2866083333333334">
        <ele>1399.0999999999995</ele>
        <time>2013-11-09T13:28:21.25</time>
      </trkpt>
      <trkpt lat="38.495525" lon="-1.2865766666666667">
        <ele>1398.6999999999994</ele>
        <time>2013-11-09T13:28:22.25</time>
      </trkpt>
      <trkpt lat="38.495565" lon="-1.2865433333333334">
        <ele>1398.1999999999994</ele>
        <time>2013-11-09T13:28:23.24</time>
      </trkpt>
      <trkpt lat="38.495603333333335" lon="-1.2865116666666667">
        <ele>1393.7999999999993</ele>
        <time>2013-11-09T13:28:24.27</time>
      </trkpt>
      <trkpt lat="38.49563666666667" lon="-1.28648">
        <ele>1390.3999999999992</ele>
        <time>2013-11-09T13:28:25.25</time>
      </trkpt>
      <trkpt lat="38.495665" lon="-1.28645">
        <ele>1389.999999999999</ele>
        <time>2013-11-09T13:28:26.25</time>
      </trkpt>
      <trkpt lat="38.495695" lon="-1.2864216666666666">
        <ele>1389.599999999999</ele>
        <time>2013-11-09T13:28:27.25</time>
      </trkpt>
      <trkpt lat="38.49572666666667" lon="-1.2863966666666666">
        <ele>1389.199999999999</ele>
        <time>2013-11-09T13:28:28.25</time>
      </trkpt>
      <trkpt lat="38.495755" lon="-1.2863766666666667">
        <ele>1388.7999999999988</ele>
        <time>2013-11-09T13:28:29.28</time>
      </trkpt>
      <trkpt lat="38.495781666666666" lon="-1.286355">
        <ele>1388.2999999999988</ele>
        <time>2013-11-09T13:28:30.25</time>
      </trkpt>
      <trkpt lat="38.495808333333336" lon="-1.2863333333333333">
        <ele>1387.8999999999987</ele>
        <time>2013-11-09T13:28:31.29</time>
      </trkpt>
      <trkpt lat="38.49583833333333" lon="-1.2863116666666667">
        <ele>1387.3999999999987</ele>
        <time>2013-11-09T13:28:32.25</time>
      </trkpt>
      <trkpt lat="38.49588333333333" lon="-1.2863">
        <ele>1386.9999999999986</ele>
        <time>2013-11-09T13:28:33.25</time>
      </trkpt>
      <trkpt lat="38.49592666666667" lon="-1.2862933333333333">
        <ele>1386.4999999999986</ele>
        <time>2013-11-09T13:28:34.25</time>
      </trkpt>
      <trkpt lat="38.49597166666667" lon="-1.28627">
        <ele>1381.4999999999986</ele>
        <time>2013-11-09T13:28:35.28</time>
      </trkpt>
      <trkpt lat="38.496021666666664" lon="-1.2862383333333334">
        <ele>1377.3999999999987</ele>
        <time>2013-11-09T13:28:36.25</time>
      </trkpt>
      <trkpt lat="38.49606166666667" lon="-1.2862166666666666">
        <ele>1373.7999999999988</ele>
        <time>2013-11-09T13:28:37.23</time>
      </trkpt>
      <trkpt lat="38.49610333333333" lon="-1.2862166666666666">
        <ele>1370.5999999999988</ele>
        <time>2013-11-09T13:28:38.25</time>
      </trkpt>
      <trkpt lat="38.49614166666667" lon="-1.2862166666666666">
        <ele>1368.1999999999987</ele>
        <time>2013-11-09T13:28:39.25</time>
      </trkpt>
      <trkpt lat="38.496188333333336" lon="-1.2861983333333333">
        <ele>1366.2999999999986</ele>
        <time>2013-11-09T13:28:40.25</time>
      </trkpt>
      <trkpt lat="38.496233333333336" lon="-1.2861583333333333">
        <ele>1364.3999999999985</ele>
        <time>2013-11-09T13:28:41.24</time>
      </trkpt>
      <trkpt lat="38.49628666666667" lon="-1.2861166666666666">
        <ele>1362.4999999999984</ele>
        <time>2013-11-09T13:28:42.28</time>
      </trkpt>
      <trkpt lat="38.496338333333334" lon="-1.2860916666666666">
        <ele>1360.9999999999984</ele>
        <time>2013-11-09T13:28:43.25</time>
      </trkpt>
      <trkpt lat="38.496395" lon="-1.286085">
        <ele>1359.8999999999985</ele>
        <time>2013-11-09T13:28:44.25</time>
      </trkpt>
      <trkpt lat="38.49644333333333" lon="-1.2860733333333334">
        <ele>1359.0999999999985</ele>
        <time>2013-11-09T13:28:45.29</time>
      </trkpt>
      <trkpt lat="38.49648833333333" lon="-1.2860566666666666">
        <ele>1358.2999999999986</ele>
        <time>2013-11-09T13:28:46.58</time>
      </trkpt>
      <trkpt lat="38.49652833333333" lon="-1.28604">
        <ele>1357.2999999999986</ele>
        <time>2013-11-09T13:28:47.26</time>
      </trkpt>
      <trkpt lat="38.496563333333334" lon="-1.2860233333333333">
        <ele>1355.8999999999985</ele>
        <time>2013-11-09T13:28:48.22</time>
      </trkpt>
      <trkpt lat="38.49659" lon="-1.2859983333333334">
        <ele>1354.4999999999984</ele>
        <time>2013-11-09T13:28:49.28</time>
      </trkpt>
      <trkpt lat="38.496625" lon="-1.2859516666666666">
        <ele>1352.9999999999984</ele>
        <time>2013-11-09T13:28:50.26</time>
      </trkpt>
      <trkpt lat="38.49666333333333" lon="-1.2858983333333334">
        <ele>1351.0999999999983</ele>
        <time>2013-11-09T13:28:51.29</time>
      </trkpt>
      <trkpt lat="38.496698333333335" lon="-1.2858633333333334">
        <ele>1349.0999999999983</ele>
        <time>2013-11-09T13:28:52.27</time>
      </trkpt>
      <trkpt lat="38.496743333333335" lon="-1.2858433333333332">
        <ele>1347.3999999999983</ele>
        <time>2013-11-09T13:28:53.24</time>
      </trkpt>
      <trkpt lat="38.496788333333335" lon="-1.2858283333333334">
        <ele>1345.6999999999982</ele>
        <time>2013-11-09T13:28:54.25</time>
      </trkpt>
      <trkpt lat="38.49683666666667" lon="-1.2858116666666666">
        <ele>1344.4999999999982</ele>
        <time>2013-11-09T13:28:55.25</time>
      </trkpt>
      <trkpt lat="38.49688" lon="-1.285795">
        <ele>1343.4999999999982</ele>
        <time>2013-11-09T13:28:56.25</time>
      </trkpt>
      <trkpt lat="38.49692" lon="-1.2857783333333332">
        <ele>1342.7999999999981</ele>
        <time>2013-11-09T13:28:57.25</time>
      </trkpt>
      <trkpt lat="38.496961666666664" lon="-1.2857616666666667">
        <ele>1342.6999999999982</ele>
        <time>2013-11-09T13:28:58.25</time>
      </trkpt>
      <trkpt lat="38.496995" lon="-1.2857333333333334">
        <ele>1342.4999999999982</ele>
        <time>2013-11-09T13:28:59.25</time>
      </trkpt>
      <trkpt lat="38.497033333333334" lon="-1.2856983333333334">
        <ele>1342.2999999999981</ele>
        <time>2013-11-09T13:29:00.28</time>
      </trkpt>
      <trkpt lat="38.497075" lon="-1.2856533333333333">
        <ele>1342.2999999999981</ele>
        <time>2013-11-09T13:29:01.26</time>
      </trkpt>
      <trkpt lat="38.497128333333336" lon="-1.2856">
        <ele>1342.2999999999981</ele>
        <time>2013-11-09T13:29:02.28</time>
      </trkpt>
      <trkpt lat="38.497186666666664" lon="-1.2855533333333333">
        <ele>1342.399999999998</ele>
        <time>2013-11-09T13:29:03.25</time>
      </trkpt>
      <trkpt lat="38.49724333333333" lon="-1.28551">
        <ele>1342.399999999998</ele>
        <time>2013-11-09T13:29:04.25</time>
      </trkpt>
      <trkpt lat="38.497295" lon="-1.2854700000000001">
        <ele>1341.999999999998</ele>
        <time>2013-11-09T13:29:05.25</time>
      </trkpt>
      <trkpt lat="38.497341666666664" lon="-1.2854283333333334">
        <ele>1341.199999999998</ele>
        <time>2013-11-09T13:29:06.26</time>
      </trkpt>
      <trkpt lat="38.49738833333333" lon="-1.285385">
        <ele>1339.999999999998</ele>
        <time>2013-11-09T13:29:07.25</time>
      </trkpt>
      <trkpt lat="38.49744166666667" lon="-1.2853366666666668">
        <ele>1338.899999999998</ele>
        <time>2013-11-09T13:29:08.25</time>
      </trkpt>
      <trkpt lat="38.497501666666665" lon="-1.2852866666666667">
        <ele>1337.599999999998</ele>
        <time>2013-11-09T13:29:09.23</time>
      </trkpt>
      <trkpt lat="38.49756333333333" lon="-1.2852383333333333">
        <ele>1335.9999999999982</ele>
        <time>2013-11-09T13:29:10.28</time>
      </trkpt>
      <trkpt lat="38.49762833333333" lon="-1.2852016666666666">
        <ele>1334.4999999999982</ele>
        <time>2013-11-09T13:29:11.24</time>
      </trkpt>
      <trkpt lat="38.497681666666665" lon="-1.2851716666666666">
        <ele>1333.2999999999981</ele>
        <time>2013-11-09T13:29:12.22</time>
      </trkpt>
      <trkpt lat="38.49773666666667" lon="-1.285135">
        <ele>1331.9999999999982</ele>
        <time>2013-11-09T13:29:13.22</time>
      </trkpt>
      <trkpt lat="38.49778166666667" lon="-1.2851033333333333">
        <ele>1330.599999999998</ele>
        <time>2013-11-09T13:29:14.25</time>
      </trkpt>
      <trkpt lat="38.49782833333333" lon="-1.2850783333333333">
        <ele>1329.099999999998</ele>
        <time>2013-11-09T13:29:15.21</time>
      </trkpt>
      <trkpt lat="38.49787166666667" lon="-1.2850583333333334">
        <ele>1327.599999999998</ele>
        <time>2013-11-09T13:29:16.30</time>
      </trkpt>
      <trkpt lat="38.49793833333333" lon="-1.2850316666666668">
        <ele>1326.099999999998</ele>
        <time>2013-11-09T13:29:17.25</time>
      </trkpt>
      <trkpt lat="38.498015" lon="-1.285005">
        <ele>1324.599999999998</ele>
        <time>2013-11-09T13:29:18.25</time>
      </trkpt>
      <trkpt lat="38.49809333333334" lon="-1.2850016666666666">
        <ele>1323.2999999999981</ele>
        <time>2013-11-09T13:29:19.24</time>
      </trkpt>
      <trkpt lat="38.49816166666667" lon="-1.2849983333333332">
        <ele>1322.399999999998</ele>
        <time>2013-11-09T13:29:20.25</time>
      </trkpt>
      <trkpt lat="38.49823" lon="-1.2849883333333334">
        <ele>1321.999999999998</ele>
        <time>2013-11-09T13:29:21.25</time>
      </trkpt>
      <trkpt lat="38.498288333333335" lon="-1.284975">
        <ele>1322.0999999999979</ele>
        <time>2013-11-09T13:29:22.26</time>
      </trkpt>
      <trkpt lat="38.498333333333335" lon="-1.2849666666666666">
        <ele>1322.299999999998</ele>
        <time>2013-11-09T13:29:23.24</time>
      </trkpt>
      <trkpt lat="38.498365" lon="-1.284965">
        <ele>1322.999999999998</ele>
        <time>2013-11-09T13:29:24.25</time>
      </trkpt>
      <trkpt lat="38.49839" lon="-1.2849666666666666">
        <ele>1323.699999999998</ele>
        <time>2013-11-09T13:29:25.34</time>
      </trkpt>
      <trkpt lat="38.49842" lon="-1.2849666666666666">
        <ele>1323.699999999998</ele>
        <time>2013-11-09T13:29:26.28</time>
      </trkpt>
      <trkpt lat="38.49845333333333" lon="-1.28498">
        <ele>1323.799999999998</ele>
        <time>2013-11-09T13:29:27.26</time>
      </trkpt>
      <trkpt lat="38.498488333333334" lon="-1.2850083333333333">
        <ele>1323.8999999999978</ele>
        <time>2013-11-09T13:29:28.24</time>
      </trkpt>
      <trkpt lat="38.49852333333333" lon="-1.285035">
        <ele>1324.5999999999979</ele>
        <time>2013-11-09T13:29:29.25</time>
      </trkpt>
      <trkpt lat="38.49856333333334" lon="-1.2850316666666668">
        <ele>1324.999999999998</ele>
        <time>2013-11-09T13:29:30.43</time>
      </trkpt>
      <trkpt lat="38.498603333333335" lon="-1.285025">
        <ele>1325.0999999999979</ele>
        <time>2013-11-09T13:29:31.28</time>
      </trkpt>
      <trkpt lat="38.49866" lon="-1.28497">
        <ele>1325.1999999999978</ele>
        <time>2013-11-09T13:29:32.25</time>
      </trkpt>
      <trkpt lat="38.49872" lon="-1.284905">
        <ele>1325.2999999999977</ele>
        <time>2013-11-09T13:29:33.25</time>
      </trkpt>
      <trkpt lat="38.498775" lon="-1.2848383333333333">
        <ele>1325.3999999999976</ele>
        <time>2013-11-09T13:29:34.25</time>
      </trkpt>
      <trkpt lat="38.498825" lon="-1.2847666666666666">
        <ele>1325.5999999999976</ele>
        <time>2013-11-09T13:29:35.25</time>
      </trkpt>
      <trkpt lat="38.498873333333336" lon="-1.2846883333333334">
        <ele>1325.7999999999977</ele>
        <time>2013-11-09T13:29:36.25</time>
      </trkpt>
      <trkpt lat="38.49891" lon="-1.2845916666666666">
        <ele>1325.9999999999977</ele>
        <time>2013-11-09T13:29:37.25</time>
      </trkpt>
      <trkpt lat="38.49894666666667" lon="-1.284495">
        <ele>1326.2999999999977</ele>
        <time>2013-11-09T13:29:38.25</time>
      </trkpt>
      <trkpt lat="38.498985" lon="-1.2844033333333333">
        <ele>1326.6999999999978</ele>
        <time>2013-11-09T13:29:39.24</time>
      </trkpt>
      <trkpt lat="38.49901833333333" lon="-1.2843200000000001">
        <ele>1327.2999999999977</ele>
        <time>2013-11-09T13:29:40.23</time>
      </trkpt>
      <trkpt lat="38.499053333333336" lon="-1.2842366666666667">
        <ele>1327.9999999999977</ele>
        <time>2013-11-09T13:29:41.25</time>
      </trkpt>
      <trkpt lat="38.49908833333333" lon="-1.2841416666666667">
        <ele>1328.5999999999976</ele>
        <time>2013-11-09T13:29:42.24</time>
      </trkpt>
      <trkpt lat="38.49910833333333" lon="-1.2840283333333333">
        <ele>1329.3999999999976</ele>
        <time>2013-11-09T13:29:43.26</time>
      </trkpt>
      <trkpt lat="38.49912833333333" lon="-1.2839">
        <ele>1329.8999999999976</ele>
        <time>2013-11-09T13:29:44.25</time>
      </trkpt>
      <trkpt lat="38.49914166666667" lon="-1.28377">
        <ele>1330.5999999999976</ele>
        <time>2013-11-09T13:29:45.27</time>
      </trkpt>
      <trkpt lat="38.49915166666667" lon="-1.2836316666666667">
        <ele>1331.1999999999975</ele>
        <time>2013-11-09T13:29:46.24</time>
      </trkpt>
      <trkpt lat="38.499165" lon="-1.2834883333333333">
        <ele>1330.9999999999975</ele>
        <time>2013-11-09T13:29:47.25</time>
      </trkpt>
      <trkpt lat="38.49918" lon="-1.2833566666666667">
        <ele>1330.4999999999975</ele>
        <time>2013-11-09T13:29:48.25</time>
      </trkpt>
      <trkpt lat="38.49919833333333" lon="-1.2832316666666665">
        <ele>1329.8999999999976</ele>
        <time>2013-11-09T13:29:49.26</time>
      </trkpt>
      <trkpt lat="38.49923" lon="-1.283095">
        <ele>1329.2999999999977</ele>
        <time>2013-11-09T13:29:50.25</time>
      </trkpt>
      <trkpt lat="38.49925666666667" lon="-1.282965">
        <ele>1328.4999999999977</ele>
        <time>2013-11-09T13:29:51.22</time>
      </trkpt>
      <trkpt lat="38.49927666666667" lon="-1.2828383333333333">
        <ele>1327.6999999999978</ele>
        <time>2013-11-09T13:29:52.25</time>
      </trkpt>
      <trkpt lat="38.49929" lon="-1.282715">
        <ele>1327.0999999999979</ele>
        <time>2013-11-09T13:29:53.29</time>
      </trkpt>
      <trkpt lat="38.499305" lon="-1.2825833333333332">
        <ele>1327.3999999999978</ele>
        <time>2013-11-09T13:29:54.27</time>
      </trkpt>
      <trkpt lat="38.49932" lon="-1.28246">
        <ele>1327.3999999999978</ele>
        <time>2013-11-09T13:29:55.28</time>
      </trkpt>
      <trkpt lat="38.49933166666667" lon="-1.282335">
        <ele>1327.0999999999979</ele>
        <time>2013-11-09T13:29:56.28</time>
      </trkpt>
      <trkpt lat="38.499341666666666" lon="-1.2821983333333333">
        <ele>1327.1999999999978</ele>
        <time>2013-11-09T13:29:57.24</time>
      </trkpt>
      <trkpt lat="38.49934" lon="-1.2820666666666667">
        <ele>1327.1999999999978</ele>
        <time>2013-11-09T13:29:58.25</time>
      </trkpt>
      <trkpt lat="38.49933" lon="-1.2819233333333333">
        <ele>1326.9999999999977</ele>
        <time>2013-11-09T13:29:59.25</time>
      </trkpt>
      <trkpt lat="38.499316666666665" lon="-1.281765">
        <ele>1326.5999999999976</ele>
        <time>2013-11-09T13:30:00.28</time>
      </trkpt>
      <trkpt lat="38.49930333333333" lon="-1.2815966666666667">
        <ele>1325.5999999999976</ele>
        <time>2013-11-09T13:30:01.25</time>
      </trkpt>
      <trkpt lat="38.49928666666667" lon="-1.2814233333333334">
        <ele>1324.1999999999975</ele>
        <time>2013-11-09T13:30:02.26</time>
      </trkpt>
      <trkpt lat="38.49926833333333" lon="-1.2812583333333334">
        <ele>1322.5999999999976</ele>
        <time>2013-11-09T13:30:03.26</time>
      </trkpt>
      <trkpt lat="38.499266666666664" lon="-1.2811083333333333">
        <ele>1321.2999999999977</ele>
        <time>2013-11-09T13:30:04.25</time>
      </trkpt>
      <trkpt lat="38.49927666666667" lon="-1.280975">
        <ele>1320.2999999999977</ele>
        <time>2013-11-09T13:30:05.25</time>
      </trkpt>
      <trkpt lat="38.49928666666667" lon="-1.2808549999999999">
        <ele>1318.6999999999978</ele>
        <time>2013-11-09T13:30:06.25</time>
      </trkpt>
      <trkpt lat="38.49930166666667" lon="-1.2807516666666667">
        <ele>1316.5999999999979</ele>
        <time>2013-11-09T13:30:07.30</time>
      </trkpt>
      <trkpt lat="38.499325" lon="-1.2806533333333334">
        <ele>1314.499999999998</ele>
        <time>2013-11-09T13:30:08.24</time>
      </trkpt>
      <trkpt lat="38.49936666666667" lon="-1.280555">
        <ele>1312.199999999998</ele>
        <time>2013-11-09T13:30:09.25</time>
      </trkpt>
      <trkpt lat="38.49941" lon="-1.2804383333333333">
        <ele>1309.999999999998</ele>
        <time>2013-11-09T13:30:10.25</time>
      </trkpt>
      <trkpt lat="38.499451666666666" lon="-1.2803183333333332">
        <ele>1308.199999999998</ele>
        <time>2013-11-09T13:30:11.25</time>
      </trkpt>
      <trkpt lat="38.49948833333333" lon="-1.2802083333333334">
        <ele>1306.499999999998</ele>
        <time>2013-11-09T13:30:12.22</time>
      </trkpt>
      <trkpt lat="38.499515" lon="-1.280105">
        <ele>1304.899999999998</ele>
        <time>2013-11-09T13:30:13.26</time>
      </trkpt>
      <trkpt lat="38.499545" lon="-1.2800016666666667">
        <ele>1303.099999999998</ele>
        <time>2013-11-09T13:30:14.24</time>
      </trkpt>
      <trkpt lat="38.49958" lon="-1.2798966666666667">
        <ele>1301.2999999999981</ele>
        <time>2013-11-09T13:30:15.29</time>
      </trkpt>
      <trkpt lat="38.49962" lon="-1.2797916666666667">
        <ele>1299.6999999999982</ele>
        <time>2013-11-09T13:30:16.29</time>
      </trkpt>
      <trkpt lat="38.49966666666667" lon="-1.2797049999999999">
        <ele>1298.1999999999982</ele>
        <time>2013-11-09T13:30:17.23</time>
      </trkpt>
      <trkpt lat="38.49971" lon="-1.279595">
        <ele>1296.5999999999983</ele>
        <time>2013-11-09T13:30:18.25</time>
      </trkpt>
      <trkpt lat="38.49974666666667" lon="-1.2794733333333332">
        <ele>1294.8999999999983</ele>
        <time>2013-11-09T13:30:19.25</time>
      </trkpt>
      <trkpt lat="38.49978" lon="-1.2793483333333333">
        <ele>1293.3999999999983</ele>
        <time>2013-11-09T13:30:20.29</time>
      </trkpt>
      <trkpt lat="38.49981" lon="-1.2792266666666667">
        <ele>1292.0999999999983</ele>
        <time>2013-11-09T13:30:21.29</time>
      </trkpt>
      <trkpt lat="38.49983833333334" lon="-1.279115">
        <ele>1290.7999999999984</ele>
        <time>2013-11-09T13:30:22.26</time>
      </trkpt>
      <trkpt lat="38.499865" lon="-1.2790016666666668">
        <ele>1289.6999999999985</ele>
        <time>2013-11-09T13:30:23.28</time>
      </trkpt>
      <trkpt lat="38.49989" lon="-1.27888">
        <ele>1288.3999999999985</ele>
        <time>2013-11-09T13:30:24.24</time>
      </trkpt>
      <trkpt lat="38.499915" lon="-1.2787583333333332">
        <ele>1287.0999999999985</ele>
        <time>2013-11-09T13:30:25.24</time>
      </trkpt>
      <trkpt lat="38.49993833333333" lon="-1.2786316666666666">
        <ele>1285.7999999999986</ele>
        <time>2013-11-09T13:30:26.25</time>
      </trkpt>
      <trkpt lat="38.499965" lon="-1.2785066666666667">
        <ele>1284.3999999999985</ele>
        <time>2013-11-09T13:30:27.24</time>
      </trkpt>
      <trkpt lat="38.499991666666666" lon="-1.2783783333333334">
        <ele>1283.1999999999985</ele>
        <time>2013-11-09T13:30:28.25</time>
      </trkpt>
      <trkpt lat="38.50002166666667" lon="-1.2782533333333332">
        <ele>1282.0999999999985</ele>
        <time>2013-11-09T13:30:29.25</time>
      </trkpt>
      <trkpt lat="38.500051666666664" lon="-1.278135">
        <ele>1280.8999999999985</ele>
        <time>2013-11-09T13:30:30.25</time>
      </trkpt>
      <trkpt lat="38.500083333333336" lon="-1.2780116666666668">
        <ele>1279.9999999999984</ele>
        <time>2013-11-09T13:30:31.28</time>
      </trkpt>
      <trkpt lat="38.50011333333333" lon="-1.277885">
        <ele>1279.4999999999984</ele>
        <time>2013-11-09T13:30:32.25</time>
      </trkpt>
      <trkpt lat="38.50014" lon="-1.2777566666666667">
        <ele>1279.0999999999983</ele>
        <time>2013-11-09T13:30:33.26</time>
      </trkpt>
      <trkpt lat="38.50015833333333" lon="-1.2776383333333334">
        <ele>1279.0999999999983</ele>
        <time>2013-11-09T13:30:34.25</time>
      </trkpt>
      <trkpt lat="38.50017166666667" lon="-1.2775166666666666">
        <ele>1279.2999999999984</ele>
        <time>2013-11-09T13:30:35.25</time>
      </trkpt>
      <trkpt lat="38.500185" lon="-1.2773933333333334">
        <ele>1279.4999999999984</ele>
        <time>2013-11-09T13:30:36.23</time>
      </trkpt>
      <trkpt lat="38.500185" lon="-1.2772583333333334">
        <ele>1279.4999999999984</ele>
        <time>2013-11-09T13:30:37.24</time>
      </trkpt>
      <trkpt lat="38.500175" lon="-1.2770883333333334">
        <ele>1278.9999999999984</ele>
        <time>2013-11-09T13:30:38.25</time>
      </trkpt>
      <trkpt lat="38.50015666666667" lon="-1.2769">
        <ele>1278.3999999999985</ele>
        <time>2013-11-09T13:30:39.25</time>
      </trkpt>
      <trkpt lat="38.50013" lon="-1.2767316666666666">
        <ele>1277.6999999999985</ele>
        <time>2013-11-09T13:30:40.25</time>
      </trkpt>
      <trkpt lat="38.50010666666667" lon="-1.2765866666666668">
        <ele>1276.9999999999984</ele>
        <time>2013-11-09T13:30:41.25</time>
      </trkpt>
      <trkpt lat="38.50008833333333" lon="-1.2764416666666667">
        <ele>1276.3999999999985</ele>
        <time>2013-11-09T13:30:42.25</time>
      </trkpt>
      <trkpt lat="38.500076666666665" lon="-1.276305">
        <ele>1275.7999999999986</ele>
        <time>2013-11-09T13:30:43.25</time>
      </trkpt>
      <trkpt lat="38.50007" lon="-1.2761616666666666">
        <ele>1275.3999999999985</ele>
        <time>2013-11-09T13:30:44.25</time>
      </trkpt>
      <trkpt lat="38.50007166666666" lon="-1.2760083333333334">
        <ele>1274.8999999999985</ele>
        <time>2013-11-09T13:30:45.25</time>
      </trkpt>
      <trkpt lat="38.50008" lon="-1.275865">
        <ele>1274.3999999999985</ele>
        <time>2013-11-09T13:30:46.25</time>
      </trkpt>
      <trkpt lat="38.50011666666666" lon="-1.2757233333333333">
        <ele>1274.2999999999986</ele>
        <time>2013-11-09T13:30:47.25</time>
      </trkpt>
      <trkpt lat="38.50015333333333" lon="-1.2755883333333333">
        <ele>1274.2999999999986</ele>
        <time>2013-11-09T13:30:48.25</time>
      </trkpt>
      <trkpt lat="38.50019" lon="-1.2754683333333334">
        <ele>1274.3999999999985</ele>
        <time>2013-11-09T13:30:49.25</time>
      </trkpt>
      <trkpt lat="38.50022666666667" lon="-1.2753733333333335">
        <ele>1274.1999999999985</ele>
        <time>2013-11-09T13:30:50.26</time>
      </trkpt>
      <trkpt lat="38.500263333333336" lon="-1.2752816666666666">
        <ele>1273.7999999999984</ele>
        <time>2013-11-09T13:30:51.24</time>
      </trkpt>
      <trkpt lat="38.50031" lon="-1.2751633333333334">
        <ele>1273.2999999999984</ele>
        <time>2013-11-09T13:30:52.25</time>
      </trkpt>
      <trkpt lat="38.50035666666667" lon="-1.27505">
        <ele>1272.8999999999983</ele>
        <time>2013-11-09T13:30:53.26</time>
      </trkpt>
      <trkpt lat="38.500405" lon="-1.27494">
        <ele>1272.6999999999982</ele>
        <time>2013-11-09T13:30:54.25</time>
      </trkpt>
      <trkpt lat="38.50045" lon="-1.2748383333333333">
        <ele>1272.5999999999983</ele>
        <time>2013-11-09T13:30:55.25</time>
      </trkpt>
      <trkpt lat="38.50049666666666" lon="-1.274735">
        <ele>1272.5999999999983</ele>
        <time>2013-11-09T13:30:56.23</time>
      </trkpt>
      <trkpt lat="38.50054166666666" lon="-1.2746366666666666">
        <ele>1272.3999999999983</ele>
        <time>2013-11-09T13:30:57.26</time>
      </trkpt>
      <trkpt lat="38.50058333333333" lon="-1.2745466666666667">
        <ele>1272.2999999999984</ele>
        <time>2013-11-09T13:30:58.25</time>
      </trkpt>
      <trkpt lat="38.50062833333333" lon="-1.2744499999999999">
        <ele>1271.9999999999984</ele>
        <time>2013-11-09T13:30:59.25</time>
      </trkpt>
      <trkpt lat="38.50067333333333" lon="-1.2743483333333332">
        <ele>1271.5999999999983</ele>
        <time>2013-11-09T13:31:00.25</time>
      </trkpt>
      <trkpt lat="38.50071833333333" lon="-1.2742466666666665">
        <ele>1270.9999999999984</ele>
        <time>2013-11-09T13:31:01.25</time>
      </trkpt>
      <trkpt lat="38.50076333333333" lon="-1.2741500000000001">
        <ele>1270.3999999999985</ele>
        <time>2013-11-09T13:31:02.25</time>
      </trkpt>
      <trkpt lat="38.500811666666664" lon="-1.27406">
        <ele>1269.4999999999984</ele>
        <time>2013-11-09T13:31:03.25</time>
      </trkpt>
      <trkpt lat="38.500861666666665" lon="-1.2739733333333334">
        <ele>1268.4999999999984</ele>
        <time>2013-11-09T13:31:04.25</time>
      </trkpt>
      <trkpt lat="38.50091166666667" lon="-1.2738833333333333">
        <ele>1267.6999999999985</ele>
        <time>2013-11-09T13:31:05.25</time>
      </trkpt>
      <trkpt lat="38.50096333333333" lon="-1.273785">
        <ele>1267.3999999999985</ele>
        <time>2013-11-09T13:31:06.25</time>
      </trkpt>
      <trkpt lat="38.50101" lon="-1.27369">
        <ele>1267.1999999999985</ele>
        <time>2013-11-09T13:31:07.25</time>
      </trkpt>
      <trkpt lat="38.50105166666667" lon="-1.2736016666666667">
        <ele>1267.1999999999985</ele>
        <time>2013-11-09T13:31:08.25</time>
      </trkpt>
      <trkpt lat="38.501086666666666" lon="-1.2735216666666667">
        <ele>1266.9999999999984</ele>
        <time>2013-11-09T13:31:09.25</time>
      </trkpt>
      <trkpt lat="38.501125" lon="-1.2734266666666667">
        <ele>1266.7999999999984</ele>
        <time>2013-11-09T13:31:10.25</time>
      </trkpt>
      <trkpt lat="38.50116166666667" lon="-1.273315">
        <ele>1266.4999999999984</ele>
        <time>2013-11-09T13:31:11.24</time>
      </trkpt>
      <trkpt lat="38.50118333333333" lon="-1.2731716666666666">
        <ele>1266.2999999999984</ele>
        <time>2013-11-09T13:31:12.22</time>
      </trkpt>
      <trkpt lat="38.50120166666667" lon="-1.2730333333333332">
        <ele>1266.2999999999984</ele>
        <time>2013-11-09T13:31:13.26</time>
      </trkpt>
      <trkpt lat="38.50122" lon="-1.2729016666666666">
        <ele>1266.4999999999984</ele>
        <time>2013-11-09T13:31:14.25</time>
      </trkpt>
      <trkpt lat="38.501241666666665" lon="-1.2727766666666667">
        <ele>1266.8999999999985</ele>
        <time>2013-11-09T13:31:15.25</time>
      </trkpt>
      <trkpt lat="38.501263333333334" lon="-1.2726566666666668">
        <ele>1267.4999999999984</ele>
        <time>2013-11-09T13:31:16.25</time>
      </trkpt>
      <trkpt lat="38.50129" lon="-1.2725266666666668">
        <ele>1268.1999999999985</ele>
        <time>2013-11-09T13:31:17.24</time>
      </trkpt>
      <trkpt lat="38.501315" lon="-1.27241">
        <ele>1269.1999999999985</ele>
        <time>2013-11-09T13:31:18.29</time>
      </trkpt>
      <trkpt lat="38.50134166666667" lon="-1.2722966666666666">
        <ele>1270.4999999999984</ele>
        <time>2013-11-09T13:31:19.25</time>
      </trkpt>
      <trkpt lat="38.50136833333333" lon="-1.2721716666666667">
        <ele>1272.1999999999985</ele>
        <time>2013-11-09T13:31:20.25</time>
      </trkpt>
      <trkpt lat="38.50139166666666" lon="-1.2720516666666666">
        <ele>1273.8999999999985</ele>
        <time>2013-11-09T13:31:21.28</time>
      </trkpt>
      <trkpt lat="38.50138666666667" lon="-1.27194">
        <ele>1275.5999999999985</ele>
        <time>2013-11-09T13:31:22.25</time>
      </trkpt>
      <trkpt lat="38.501376666666665" lon="-1.2718033333333334">
        <ele>1277.1999999999985</ele>
        <time>2013-11-09T13:31:23.28</time>
      </trkpt>
      <trkpt lat="38.50136" lon="-1.2716433333333335">
        <ele>1278.7999999999984</ele>
        <time>2013-11-09T13:31:24.25</time>
      </trkpt>
      <trkpt lat="38.50133833333334" lon="-1.2714766666666666">
        <ele>1280.2999999999984</ele>
        <time>2013-11-09T13:31:25.25</time>
      </trkpt>
      <trkpt lat="38.501306666666665" lon="-1.2713233333333334">
        <ele>1281.6999999999985</ele>
        <time>2013-11-09T13:31:26.25</time>
      </trkpt>
      <trkpt lat="38.50127333333333" lon="-1.2711716666666666">
        <ele>1282.9999999999984</ele>
        <time>2013-11-09T13:31:27.25</time>
      </trkpt>
      <trkpt lat="38.501241666666665" lon="-1.2710233333333334">
        <ele>1284.2999999999984</ele>
        <time>2013-11-09T13:31:28.28</time>
      </trkpt>
      <trkpt lat="38.501218333333334" lon="-1.2708933333333334">
        <ele>1285.5999999999983</ele>
        <time>2013-11-09T13:31:29.27</time>
      </trkpt>
      <trkpt lat="38.501203333333336" lon="-1.2707716666666666">
        <ele>1286.6999999999982</ele>
        <time>2013-11-09T13:31:30.25</time>
      </trkpt>
      <trkpt lat="38.501195" lon="-1.270645">
        <ele>1287.9999999999982</ele>
        <time>2013-11-09T13:31:31.25</time>
      </trkpt>
      <trkpt lat="38.501191666666664" lon="-1.27052">
        <ele>1289.099999999998</ele>
        <time>2013-11-09T13:31:32.25</time>
      </trkpt>
      <trkpt lat="38.50119" lon="-1.2703933333333333">
        <ele>1290.199999999998</ele>
        <time>2013-11-09T13:31:33.28</time>
      </trkpt>
      <trkpt lat="38.501191666666664" lon="-1.27028">
        <ele>1291.199999999998</ele>
        <time>2013-11-09T13:31:34.25</time>
      </trkpt>
      <trkpt lat="38.50119333333333" lon="-1.2701716666666667">
        <ele>1291.999999999998</ele>
        <time>2013-11-09T13:31:35.25</time>
      </trkpt>
      <trkpt lat="38.501198333333335" lon="-1.2700416666666667">
        <ele>1292.799999999998</ele>
        <time>2013-11-09T13:31:36.28</time>
      </trkpt>
      <trkpt lat="38.5012" lon="-1.2698933333333333">
        <ele>1293.499999999998</ele>
        <time>2013-11-09T13:31:37.25</time>
      </trkpt>
      <trkpt lat="38.501205" lon="-1.2697383333333334">
        <ele>1293.899999999998</ele>
        <time>2013-11-09T13:31:38.28</time>
      </trkpt>
      <trkpt lat="38.501218333333334" lon="-1.26958">
        <ele>1294.2999999999981</ele>
        <time>2013-11-09T13:31:39.25</time>
      </trkpt>
      <trkpt lat="38.501263333333334" lon="-1.2694466666666666">
        <ele>1294.4999999999982</ele>
        <time>2013-11-09T13:31:40.25</time>
      </trkpt>
      <trkpt lat="38.50131" lon="-1.2693483333333333">
        <ele>1294.599999999998</ele>
        <time>2013-11-09T13:31:41.27</time>
      </trkpt>
      <trkpt lat="38.50134833333333" lon="-1.2692633333333334">
        <ele>1294.9999999999982</ele>
        <time>2013-11-09T13:31:42.25</time>
      </trkpt>
      <trkpt lat="38.50139" lon="-1.269175">
        <ele>1295.3999999999983</ele>
        <time>2013-11-09T13:31:43.23</time>
      </trkpt>
      <trkpt lat="38.501421666666666" lon="-1.2690916666666667">
        <ele>1295.6999999999982</ele>
        <time>2013-11-09T13:31:44.25</time>
      </trkpt>
      <trkpt lat="38.501448333333336" lon="-1.2690116666666666">
        <ele>1296.0999999999983</ele>
        <time>2013-11-09T13:31:45.25</time>
      </trkpt>
      <trkpt lat="38.501475" lon="-1.2689466666666667">
        <ele>1296.3999999999983</ele>
        <time>2013-11-09T13:31:46.25</time>
      </trkpt>
      <trkpt lat="38.501506666666664" lon="-1.2688816666666667">
        <ele>1296.8999999999983</ele>
        <time>2013-11-09T13:31:47.25</time>
      </trkpt>
      <trkpt lat="38.50154333333333" lon="-1.2688066666666666">
        <ele>1297.3999999999983</ele>
        <time>2013-11-09T13:31:48.24</time>
      </trkpt>
      <trkpt lat="38.501583333333336" lon="-1.2687333333333333">
        <ele>1297.9999999999982</ele>
        <time>2013-11-09T13:31:49.25</time>
      </trkpt>
      <trkpt lat="38.50162" lon="-1.2686583333333332">
        <ele>1298.599999999998</ele>
        <time>2013-11-09T13:31:50.25</time>
      </trkpt>
      <trkpt lat="38.50165333333333" lon="-1.2685933333333335">
        <ele>1299.099999999998</ele>
        <time>2013-11-09T13:31:51.31</time>
      </trkpt>
      <trkpt lat="38.501688333333334" lon="-1.2685316666666666">
        <ele>1299.7999999999981</ele>
        <time>2013-11-09T13:31:52.25</time>
      </trkpt>
      <trkpt lat="38.50172333333333" lon="-1.2684716666666667">
        <ele>1300.2999999999981</ele>
        <time>2013-11-09T13:31:53.25</time>
      </trkpt>
      <trkpt lat="38.50176666666667" lon="-1.2684033333333333">
        <ele>1300.899999999998</ele>
        <time>2013-11-09T13:31:54.25</time>
      </trkpt>
      <trkpt lat="38.50180666666667" lon="-1.268335">
        <ele>1301.499999999998</ele>
        <time>2013-11-09T13:31:55.25</time>
      </trkpt>
      <trkpt lat="38.501848333333335" lon="-1.2682633333333333">
        <ele>1302.299999999998</ele>
        <time>2013-11-09T13:31:56.25</time>
      </trkpt>
      <trkpt lat="38.50189" lon="-1.2682016666666667">
        <ele>1302.999999999998</ele>
        <time>2013-11-09T13:31:57.26</time>
      </trkpt>
      <trkpt lat="38.50192833333333" lon="-1.26814">
        <ele>1303.5999999999979</ele>
        <time>2013-11-09T13:31:58.25</time>
      </trkpt>
      <trkpt lat="38.501976666666664" lon="-1.2680666666666667">
        <ele>1303.999999999998</ele>
        <time>2013-11-09T13:31:59.25</time>
      </trkpt>
      <trkpt lat="38.502023333333334" lon="-1.267995">
        <ele>1304.399999999998</ele>
        <time>2013-11-09T13:32:00.25</time>
      </trkpt>
      <trkpt lat="38.502073333333335" lon="-1.2679233333333333">
        <ele>1304.699999999998</ele>
        <time>2013-11-09T13:32:01.39</time>
      </trkpt>
      <trkpt lat="38.50212333333333" lon="-1.2678533333333333">
        <ele>1305.099999999998</ele>
        <time>2013-11-09T13:32:02.25</time>
      </trkpt>
      <trkpt lat="38.50217166666667" lon="-1.2677933333333333">
        <ele>1305.599999999998</ele>
        <time>2013-11-09T13:32:03.25</time>
      </trkpt>
      <trkpt lat="38.502225" lon="-1.2677333333333334">
        <ele>1305.9999999999982</ele>
        <time>2013-11-09T13:32:04.25</time>
      </trkpt>
      <trkpt lat="38.502266666666664" lon="-1.26769">
        <ele>1306.2999999999981</ele>
        <time>2013-11-09T13:32:05.25</time>
      </trkpt>
      <trkpt lat="38.50231333333333" lon="-1.2676416666666666">
        <ele>1306.4999999999982</ele>
        <time>2013-11-09T13:32:06.25</time>
      </trkpt>
      <trkpt lat="38.50236833333334" lon="-1.26759">
        <ele>1306.6999999999982</ele>
        <time>2013-11-09T13:32:07.26</time>
      </trkpt>
      <trkpt lat="38.50242" lon="-1.2675383333333334">
        <ele>1306.6999999999982</ele>
        <time>2013-11-09T13:32:08.25</time>
      </trkpt>
      <trkpt lat="38.502475" lon="-1.2674816666666666">
        <ele>1306.6999999999982</ele>
        <time>2013-11-09T13:32:09.25</time>
      </trkpt>
      <trkpt lat="38.50252666666667" lon="-1.26742">
        <ele>1306.7999999999981</ele>
        <time>2013-11-09T13:32:10.25</time>
      </trkpt>
      <trkpt lat="38.50257666666667" lon="-1.2673533333333333">
        <ele>1306.7999999999981</ele>
        <time>2013-11-09T13:32:11.25</time>
      </trkpt>
      <trkpt lat="38.502626666666664" lon="-1.267285">
        <ele>1306.6999999999982</ele>
        <time>2013-11-09T13:32:12.22</time>
      </trkpt>
      <trkpt lat="38.50266833333333" lon="-1.2672233333333334">
        <ele>1306.4999999999982</ele>
        <time>2013-11-09T13:32:13.25</time>
      </trkpt>
      <trkpt lat="38.50271" lon="-1.2671633333333334">
        <ele>1306.099999999998</ele>
        <time>2013-11-09T13:32:14.24</time>
      </trkpt>
      <trkpt lat="38.50275333333333" lon="-1.2671000000000001">
        <ele>1305.7999999999981</ele>
        <time>2013-11-09T13:32:15.24</time>
      </trkpt>
      <trkpt lat="38.5028" lon="-1.2670283333333332">
        <ele>1305.4999999999982</ele>
        <time>2013-11-09T13:32:16.25</time>
      </trkpt>
      <trkpt lat="38.50284833333333" lon="-1.2669516666666667">
        <ele>1305.3999999999983</ele>
        <time>2013-11-09T13:32:17.25</time>
      </trkpt>
      <trkpt lat="38.502895" lon="-1.2668733333333333">
        <ele>1305.3999999999983</ele>
        <time>2013-11-09T13:32:18.25</time>
      </trkpt>
      <trkpt lat="38.50294" lon="-1.2667983333333332">
        <ele>1305.6999999999982</ele>
        <time>2013-11-09T13:32:19.25</time>
      </trkpt>
      <trkpt lat="38.502986666666665" lon="-1.26673">
        <ele>1305.9999999999982</ele>
        <time>2013-11-09T13:32:20.25</time>
      </trkpt>
      <trkpt lat="38.503031666666665" lon="-1.2666666666666666">
        <ele>1306.1999999999982</ele>
        <time>2013-11-09T13:32:21.25</time>
      </trkpt>
      <trkpt lat="38.503076666666665" lon="-1.2666016666666666">
        <ele>1306.2999999999981</ele>
        <time>2013-11-09T13:32:22.25</time>
      </trkpt>
      <trkpt lat="38.503123333333335" lon="-1.26653">
        <ele>1306.2999999999981</ele>
        <time>2013-11-09T13:32:23.25</time>
      </trkpt>
      <trkpt lat="38.50317" lon="-1.266455">
        <ele>1306.4999999999982</ele>
        <time>2013-11-09T13:32:24.25</time>
      </trkpt>
      <trkpt lat="38.503215" lon="-1.26638">
        <ele>1306.8999999999983</ele>
        <time>2013-11-09T13:32:25.28</time>
      </trkpt>
      <trkpt lat="38.503258333333335" lon="-1.266305">
        <ele>1307.3999999999983</ele>
        <time>2013-11-09T13:32:26.25</time>
      </trkpt>
      <trkpt lat="38.503305" lon="-1.2662266666666666">
        <ele>1307.7999999999984</ele>
        <time>2013-11-09T13:32:27.25</time>
      </trkpt>
      <trkpt lat="38.50335166666667" lon="-1.26614">
        <ele>1307.9999999999984</ele>
        <time>2013-11-09T13:32:28.25</time>
      </trkpt>
      <trkpt lat="38.503405" lon="-1.2660366666666667">
        <ele>1308.3999999999985</ele>
        <time>2013-11-09T13:32:29.25</time>
      </trkpt>
      <trkpt lat="38.50345" lon="-1.265935">
        <ele>1308.4999999999984</ele>
        <time>2013-11-09T13:32:30.25</time>
      </trkpt>
      <trkpt lat="38.50349166666667" lon="-1.2658316666666667">
        <ele>1308.9999999999984</ele>
        <time>2013-11-09T13:32:31.25</time>
      </trkpt>
      <trkpt lat="38.50353333333333" lon="-1.2657316666666667">
        <ele>1309.6999999999985</ele>
        <time>2013-11-09T13:32:32.25</time>
      </trkpt>
      <trkpt lat="38.503575" lon="-1.2656266666666667">
        <ele>1310.5999999999985</ele>
        <time>2013-11-09T13:32:33.25</time>
      </trkpt>
      <trkpt lat="38.503616666666666" lon="-1.2655233333333333">
        <ele>1311.5999999999985</ele>
        <time>2013-11-09T13:32:34.25</time>
      </trkpt>
      <trkpt lat="38.503659999999996" lon="-1.2654233333333333">
        <ele>1312.4999999999986</ele>
        <time>2013-11-09T13:32:35.25</time>
      </trkpt>
      <trkpt lat="38.50369833333333" lon="-1.2653316666666667">
        <ele>1313.6999999999987</ele>
        <time>2013-11-09T13:32:36.25</time>
      </trkpt>
      <trkpt lat="38.50373166666667" lon="-1.2652416666666666">
        <ele>1314.6999999999987</ele>
        <time>2013-11-09T13:32:37.25</time>
      </trkpt>
      <trkpt lat="38.503766666666664" lon="-1.26514">
        <ele>1315.6999999999987</ele>
        <time>2013-11-09T13:32:38.25</time>
      </trkpt>
      <trkpt lat="38.50380166666667" lon="-1.2650233333333334">
        <ele>1316.5999999999988</ele>
        <time>2013-11-09T13:32:39.25</time>
      </trkpt>
      <trkpt lat="38.503836666666665" lon="-1.2649016666666666">
        <ele>1317.3999999999987</ele>
        <time>2013-11-09T13:32:40.29</time>
      </trkpt>
      <trkpt lat="38.503863333333335" lon="-1.2648033333333333">
        <ele>1317.8999999999987</ele>
        <time>2013-11-09T13:32:41.25</time>
      </trkpt>
      <trkpt lat="38.50391166666667" lon="-1.2647133333333334">
        <ele>1318.4999999999986</ele>
        <time>2013-11-09T13:32:42.25</time>
      </trkpt>
      <trkpt lat="38.50396166666667" lon="-1.264635">
        <ele>1319.2999999999986</ele>
        <time>2013-11-09T13:32:43.25</time>
      </trkpt>
      <trkpt lat="38.50400833333333" lon="-1.26456">
        <ele>1320.1999999999987</ele>
        <time>2013-11-09T13:32:44.23</time>
      </trkpt>
      <trkpt lat="38.50406" lon="-1.2644783333333334">
        <ele>1321.1999999999987</ele>
        <time>2013-11-09T13:32:45.24</time>
      </trkpt>
      <trkpt lat="38.504106666666665" lon="-1.2643916666666666">
        <ele>1322.3999999999987</ele>
        <time>2013-11-09T13:32:46.25</time>
      </trkpt>
      <trkpt lat="38.50414833333333" lon="-1.2643">
        <ele>1323.4999999999986</ele>
        <time>2013-11-09T13:32:47.25</time>
      </trkpt>
      <trkpt lat="38.50418833333333" lon="-1.2642083333333334">
        <ele>1324.4999999999986</ele>
        <time>2013-11-09T13:32:48.25</time>
      </trkpt>
      <trkpt lat="38.50423333333333" lon="-1.26411">
        <ele>1325.3999999999987</ele>
        <time>2013-11-09T13:32:49.29</time>
      </trkpt>
      <trkpt lat="38.504281666666664" lon="-1.26402">
        <ele>1326.1999999999987</ele>
        <time>2013-11-09T13:32:50.25</time>
      </trkpt>
      <trkpt lat="38.50433" lon="-1.2639383333333334">
        <ele>1326.7999999999986</ele>
        <time>2013-11-09T13:32:51.25</time>
      </trkpt>
      <trkpt lat="38.50438" lon="-1.2638583333333333">
        <ele>1327.2999999999986</ele>
        <time>2013-11-09T13:32:52.24</time>
      </trkpt>
      <trkpt lat="38.50443" lon="-1.2637816666666666">
        <ele>1327.6999999999987</ele>
        <time>2013-11-09T13:32:53.25</time>
      </trkpt>
      <trkpt lat="38.50447833333333" lon="-1.2637033333333334">
        <ele>1327.8999999999987</ele>
        <time>2013-11-09T13:32:54.26</time>
      </trkpt>
      <trkpt lat="38.50451833333333" lon="-1.2636333333333334">
        <ele>1327.6999999999987</ele>
        <time>2013-11-09T13:32:55.24</time>
      </trkpt>
      <trkpt lat="38.50456166666667" lon="-1.26357">
        <ele>1327.1999999999987</ele>
        <time>2013-11-09T13:32:56.25</time>
      </trkpt>
      <trkpt lat="38.50461166666667" lon="-1.2635083333333332">
        <ele>1326.6999999999987</ele>
        <time>2013-11-09T13:32:57.25</time>
      </trkpt>
      <trkpt lat="38.50466333333333" lon="-1.26345">
        <ele>1326.1999999999987</ele>
        <time>2013-11-09T13:32:58.25</time>
      </trkpt>
      <trkpt lat="38.504711666666665" lon="-1.2633916666666667">
        <ele>1325.7999999999986</ele>
        <time>2013-11-09T13:32:59.25</time>
      </trkpt>
      <trkpt lat="38.50476333333334" lon="-1.2633333333333334">
        <ele>1325.3999999999985</ele>
        <time>2013-11-09T13:33:00.25</time>
      </trkpt>
      <trkpt lat="38.50482" lon="-1.2632733333333332">
        <ele>1324.9999999999984</ele>
        <time>2013-11-09T13:33:01.25</time>
      </trkpt>
      <trkpt lat="38.50488" lon="-1.2632133333333333">
        <ele>1324.7999999999984</ele>
        <time>2013-11-09T13:33:02.25</time>
      </trkpt>
      <trkpt lat="38.504935" lon="-1.2631583333333334">
        <ele>1324.6999999999985</ele>
        <time>2013-11-09T13:33:03.26</time>
      </trkpt>
      <trkpt lat="38.50499166666667" lon="-1.263105">
        <ele>1324.5999999999985</ele>
        <time>2013-11-09T13:33:04.25</time>
      </trkpt>
      <trkpt lat="38.50504333333333" lon="-1.2630533333333334">
        <ele>1324.6999999999985</ele>
        <time>2013-11-09T13:33:05.25</time>
      </trkpt>
      <trkpt lat="38.505093333333335" lon="-1.2629966666666665">
        <ele>1324.7999999999984</ele>
        <time>2013-11-09T13:33:06.24</time>
      </trkpt>
      <trkpt lat="38.50514666666667" lon="-1.2629383333333333">
        <ele>1325.0999999999983</ele>
        <time>2013-11-09T13:33:07.25</time>
      </trkpt>
      <trkpt lat="38.50519833333333" lon="-1.26288">
        <ele>1325.3999999999983</ele>
        <time>2013-11-09T13:33:08.27</time>
      </trkpt>
      <trkpt lat="38.50525" lon="-1.2628166666666667">
        <ele>1325.7999999999984</ele>
        <time>2013-11-09T13:33:09.25</time>
      </trkpt>
      <trkpt lat="38.50530166666667" lon="-1.2627466666666667">
        <ele>1326.0999999999983</ele>
        <time>2013-11-09T13:33:10.25</time>
      </trkpt>
      <trkpt lat="38.50535166666667" lon="-1.2626733333333333">
        <ele>1326.4999999999984</ele>
        <time>2013-11-09T13:33:11.24</time>
      </trkpt>
      <trkpt lat="38.50539833333333" lon="-1.2625933333333332">
        <ele>1326.6999999999985</ele>
        <time>2013-11-09T13:33:12.23</time>
      </trkpt>
      <trkpt lat="38.505446666666664" lon="-1.262505">
        <ele>1326.6999999999985</ele>
        <time>2013-11-09T13:33:13.25</time>
      </trkpt>
      <trkpt lat="38.505495" lon="-1.2624166666666667">
        <ele>1326.6999999999985</ele>
        <time>2013-11-09T13:33:14.26</time>
      </trkpt>
      <trkpt lat="38.505541666666666" lon="-1.2623283333333333">
        <ele>1326.5999999999985</ele>
        <time>2013-11-09T13:33:15.25</time>
      </trkpt>
      <trkpt lat="38.50559" lon="-1.2622366666666667">
        <ele>1326.2999999999986</ele>
        <time>2013-11-09T13:33:16.25</time>
      </trkpt>
      <trkpt lat="38.50564166666667" lon="-1.26214">
        <ele>1325.9999999999986</ele>
        <time>2013-11-09T13:33:17.25</time>
      </trkpt>
      <trkpt lat="38.50569" lon="-1.2620516666666668">
        <ele>1325.3999999999987</ele>
        <time>2013-11-09T13:33:18.25</time>
      </trkpt>
      <trkpt lat="38.505741666666665" lon="-1.2619666666666667">
        <ele>1324.8999999999987</ele>
        <time>2013-11-09T13:33:19.29</time>
      </trkpt>
      <trkpt lat="38.505788333333335" lon="-1.2618916666666666">
        <ele>1324.1999999999987</ele>
        <time>2013-11-09T13:33:20.25</time>
      </trkpt>
      <trkpt lat="38.505833333333335" lon="-1.2618283333333333">
        <ele>1323.5999999999988</ele>
        <time>2013-11-09T13:33:21.25</time>
      </trkpt>
      <trkpt lat="38.505878333333335" lon="-1.2617683333333334">
        <ele>1322.8999999999987</ele>
        <time>2013-11-09T13:33:22.25</time>
      </trkpt>
      <trkpt lat="38.505923333333335" lon="-1.2617083333333334">
        <ele>1322.2999999999988</ele>
        <time>2013-11-09T13:33:23.25</time>
      </trkpt>
      <trkpt lat="38.50597166666667" lon="-1.2616416666666668">
        <ele>1321.699999999999</ele>
        <time>2013-11-09T13:33:24.26</time>
      </trkpt>
      <trkpt lat="38.506025" lon="-1.2615616666666667">
        <ele>1321.199999999999</ele>
        <time>2013-11-09T13:33:25.25</time>
      </trkpt>
      <trkpt lat="38.506078333333335" lon="-1.2614716666666665">
        <ele>1320.7999999999988</ele>
        <time>2013-11-09T13:33:26.25</time>
      </trkpt>
      <trkpt lat="38.50613166666667" lon="-1.2613833333333333">
        <ele>1320.3999999999987</ele>
        <time>2013-11-09T13:33:27.25</time>
      </trkpt>
      <trkpt lat="38.50617833333333" lon="-1.2613033333333332">
        <ele>1319.9999999999986</ele>
        <time>2013-11-09T13:33:28.25</time>
      </trkpt>
      <trkpt lat="38.506225" lon="-1.2612166666666667">
        <ele>1319.6999999999987</ele>
        <time>2013-11-09T13:33:29.26</time>
      </trkpt>
      <trkpt lat="38.50626833333333" lon="-1.2611316666666665">
        <ele>1319.2999999999986</ele>
        <time>2013-11-09T13:33:30.29</time>
      </trkpt>
      <trkpt lat="38.506315" lon="-1.2610383333333333">
        <ele>1318.8999999999985</ele>
        <time>2013-11-09T13:33:31.25</time>
      </trkpt>
      <trkpt lat="38.50636166666666" lon="-1.2609466666666667">
        <ele>1318.4999999999984</ele>
        <time>2013-11-09T13:33:32.25</time>
      </trkpt>
      <trkpt lat="38.50640166666667" lon="-1.2608583333333334">
        <ele>1318.0999999999983</ele>
        <time>2013-11-09T13:33:33.25</time>
      </trkpt>
      <trkpt lat="38.50644166666667" lon="-1.2607733333333333">
        <ele>1317.6999999999982</ele>
        <time>2013-11-09T13:33:34.25</time>
      </trkpt>
      <trkpt lat="38.506481666666666" lon="-1.2606883333333334">
        <ele>1317.2999999999981</ele>
        <time>2013-11-09T13:33:35.25</time>
      </trkpt>
      <trkpt lat="38.506523333333334" lon="-1.2605983333333333">
        <ele>1317.099999999998</ele>
        <time>2013-11-09T13:33:36.25</time>
      </trkpt>
      <trkpt lat="38.506566666666664" lon="-1.2605066666666667">
        <ele>1316.9999999999982</ele>
        <time>2013-11-09T13:33:37.28</time>
      </trkpt>
      <trkpt lat="38.50660666666667" lon="-1.2604216666666668">
        <ele>1316.8999999999983</ele>
        <time>2013-11-09T13:33:38.24</time>
      </trkpt>
      <trkpt lat="38.506645" lon="-1.2603466666666667">
        <ele>1316.4999999999982</ele>
        <time>2013-11-09T13:33:39.25</time>
      </trkpt>
      <trkpt lat="38.50668666666667" lon="-1.260275">
        <ele>1315.9999999999982</ele>
        <time>2013-11-09T13:33:40.25</time>
      </trkpt>
      <trkpt lat="38.506728333333335" lon="-1.2602033333333333">
        <ele>1315.4999999999982</ele>
        <time>2013-11-09T13:33:41.28</time>
      </trkpt>
      <trkpt lat="38.506771666666666" lon="-1.2601233333333333">
        <ele>1314.6999999999982</ele>
        <time>2013-11-09T13:33:42.28</time>
      </trkpt>
      <trkpt lat="38.50682" lon="-1.26004">
        <ele>1313.9999999999982</ele>
        <time>2013-11-09T13:33:43.29</time>
      </trkpt>
      <trkpt lat="38.506865" lon="-1.2599566666666666">
        <ele>1313.1999999999982</ele>
        <time>2013-11-09T13:33:44.25</time>
      </trkpt>
      <trkpt lat="38.506906666666666" lon="-1.259885">
        <ele>1312.4999999999982</ele>
        <time>2013-11-09T13:33:45.29</time>
      </trkpt>
      <trkpt lat="38.506948333333334" lon="-1.2598150000000001">
        <ele>1311.8999999999983</ele>
        <time>2013-11-09T13:33:46.25</time>
      </trkpt>
      <trkpt lat="38.506991666666664" lon="-1.25974">
        <ele>1311.3999999999983</ele>
        <time>2013-11-09T13:33:47.29</time>
      </trkpt>
      <trkpt lat="38.507038333333334" lon="-1.2596566666666666">
        <ele>1310.8999999999983</ele>
        <time>2013-11-09T13:33:48.29</time>
      </trkpt>
      <trkpt lat="38.507083333333334" lon="-1.25957">
        <ele>1310.4999999999982</ele>
        <time>2013-11-09T13:33:49.25</time>
      </trkpt>
      <trkpt lat="38.507128333333334" lon="-1.2594866666666666">
        <ele>1310.1999999999982</ele>
        <time>2013-11-09T13:33:50.25</time>
      </trkpt>
      <trkpt lat="38.507171666666665" lon="-1.2594066666666666">
        <ele>1309.5999999999983</ele>
        <time>2013-11-09T13:33:51.26</time>
      </trkpt>
      <trkpt lat="38.507218333333334" lon="-1.2593233333333334">
        <ele>1309.0999999999983</ele>
        <time>2013-11-09T13:33:52.25</time>
      </trkpt>
      <trkpt lat="38.507265" lon="-1.25924">
        <ele>1308.3999999999983</ele>
        <time>2013-11-09T13:33:53.31</time>
      </trkpt>
      <trkpt lat="38.50731" lon="-1.2591616666666667">
        <ele>1307.7999999999984</ele>
        <time>2013-11-09T13:33:54.25</time>
      </trkpt>
      <trkpt lat="38.507353333333334" lon="-1.2590933333333334">
        <ele>1307.1999999999985</ele>
        <time>2013-11-09T13:33:55.28</time>
      </trkpt>
      <trkpt lat="38.5074" lon="-1.25903">
        <ele>1306.6999999999985</ele>
        <time>2013-11-09T13:33:56.27</time>
      </trkpt>
      <trkpt lat="38.507443333333335" lon="-1.258975">
        <ele>1306.0999999999985</ele>
        <time>2013-11-09T13:33:57.25</time>
      </trkpt>
      <trkpt lat="38.507493333333336" lon="-1.2589166666666667">
        <ele>1305.1999999999985</ele>
        <time>2013-11-09T13:33:58.25</time>
      </trkpt>
      <trkpt lat="38.50754" lon="-1.2588566666666667">
        <ele>1304.2999999999984</ele>
        <time>2013-11-09T13:33:59.25</time>
      </trkpt>
      <trkpt lat="38.507585" lon="-1.2587983333333335">
        <ele>1303.1999999999985</ele>
        <time>2013-11-09T13:34:00.25</time>
      </trkpt>
      <trkpt lat="38.50763" lon="-1.2587366666666666">
        <ele>1302.1999999999985</ele>
        <time>2013-11-09T13:34:01.26</time>
      </trkpt>
      <trkpt lat="38.507675" lon="-1.2586733333333333">
        <ele>1301.0999999999985</ele>
        <time>2013-11-09T13:34:02.30</time>
      </trkpt>
      <trkpt lat="38.50772166666667" lon="-1.25861">
        <ele>1299.9999999999986</ele>
        <time>2013-11-09T13:34:03.38</time>
      </trkpt>
      <trkpt lat="38.50776166666667" lon="-1.2585549999999999">
        <ele>1298.9999999999986</ele>
        <time>2013-11-09T13:34:04.27</time>
      </trkpt>
      <trkpt lat="38.507798333333334" lon="-1.2585033333333333">
        <ele>1298.0999999999985</ele>
        <time>2013-11-09T13:34:05.28</time>
      </trkpt>
      <trkpt lat="38.50784" lon="-1.258445">
        <ele>1297.4999999999986</ele>
        <time>2013-11-09T13:34:06.29</time>
      </trkpt>
      <trkpt lat="38.50787833333333" lon="-1.258385">
        <ele>1297.1999999999987</ele>
        <time>2013-11-09T13:34:07.22</time>
      </trkpt>
      <trkpt lat="38.507911666666665" lon="-1.2583199999999999">
        <ele>1296.9999999999986</ele>
        <time>2013-11-09T13:34:08.29</time>
      </trkpt>
      <trkpt lat="38.507945" lon="-1.2582416666666667">
        <ele>1296.7999999999986</ele>
        <time>2013-11-09T13:34:09.25</time>
      </trkpt>
      <trkpt lat="38.50798" lon="-1.2581583333333333">
        <ele>1296.5999999999985</ele>
        <time>2013-11-09T13:34:10.25</time>
      </trkpt>
      <trkpt lat="38.50801666666667" lon="-1.25808">
        <ele>1296.6999999999985</ele>
        <time>2013-11-09T13:34:11.25</time>
      </trkpt>
      <trkpt lat="38.50805833333333" lon="-1.2580283333333333">
        <ele>1296.7999999999984</ele>
        <time>2013-11-09T13:34:12.22</time>
      </trkpt>
      <trkpt lat="38.508095" lon="-1.2579883333333333">
        <ele>1297.2999999999984</ele>
        <time>2013-11-09T13:34:13.26</time>
      </trkpt>
      <trkpt lat="38.50814333333334" lon="-1.2579566666666666">
        <ele>1297.8999999999983</ele>
        <time>2013-11-09T13:34:14.25</time>
      </trkpt>
      <trkpt lat="38.508176666666664" lon="-1.25794">
        <ele>1298.3999999999983</ele>
        <time>2013-11-09T13:34:15.25</time>
      </trkpt>
      <trkpt lat="38.50819666666667" lon="-1.2579333333333333">
        <ele>1298.3999999999983</ele>
        <time>2013-11-09T13:34:16.25</time>
      </trkpt>
      <trkpt lat="38.50821333333333" lon="-1.2579316666666667">
        <ele>1298.4999999999982</ele>
        <time>2013-11-09T13:34:17.29</time>
      </trkpt>
      <trkpt lat="38.50823666666667" lon="-1.257925">
        <ele>1298.4999999999982</ele>
        <time>2013-11-09T13:34:18.26</time>
      </trkpt>
      <trkpt lat="38.508265" lon="-1.2579166666666666">
        <ele>1298.4999999999982</ele>
        <time>2013-11-09T13:34:19.25</time>
      </trkpt>
      <trkpt lat="38.508295" lon="-1.257905">
        <ele>1298.599999999998</ele>
        <time>2013-11-09T13:34:20.28</time>
      </trkpt>
      <trkpt lat="38.50833" lon="-1.2578866666666666">
        <ele>1298.9999999999982</ele>
        <time>2013-11-09T13:34:21.25</time>
      </trkpt>
      <trkpt lat="38.50837" lon="-1.2578666666666667">
        <ele>1299.1999999999982</ele>
        <time>2013-11-09T13:34:22.25</time>
      </trkpt>
      <trkpt lat="38.508408333333335" lon="-1.2578483333333335">
        <ele>1299.2999999999981</ele>
        <time>2013-11-09T13:34:23.25</time>
      </trkpt>
      <trkpt lat="38.508448333333334" lon="-1.2578316666666667">
        <ele>1299.4999999999982</ele>
        <time>2013-11-09T13:34:24.25</time>
      </trkpt>
      <trkpt lat="38.50849" lon="-1.25782">
        <ele>1299.7999999999981</ele>
        <time>2013-11-09T13:34:25.25</time>
      </trkpt>
      <trkpt lat="38.508536666666664" lon="-1.2578083333333334">
        <ele>1300.099999999998</ele>
        <time>2013-11-09T13:34:26.25</time>
      </trkpt>
      <trkpt lat="38.50859" lon="-1.257815">
        <ele>1300.399999999998</ele>
        <time>2013-11-09T13:34:27.29</time>
      </trkpt>
      <trkpt lat="38.50863833333333" lon="-1.25784">
        <ele>1300.7999999999981</ele>
        <time>2013-11-09T13:34:28.25</time>
      </trkpt>
      <trkpt lat="38.508673333333334" lon="-1.2578883333333333">
        <ele>1301.2999999999981</ele>
        <time>2013-11-09T13:34:29.25</time>
      </trkpt>
      <trkpt lat="38.50868333333333" lon="-1.2579433333333334">
        <ele>1301.6999999999982</ele>
        <time>2013-11-09T13:34:30.24</time>
      </trkpt>
      <trkpt lat="38.50868833333333" lon="-1.2579966666666667">
        <ele>1301.9999999999982</ele>
        <time>2013-11-09T13:34:31.25</time>
      </trkpt>
      <trkpt lat="38.50867" lon="-1.2580466666666665">
        <ele>1302.2999999999981</ele>
        <time>2013-11-09T13:34:32.25</time>
      </trkpt>
      <trkpt lat="38.508645" lon="-1.2580933333333333">
        <ele>1302.7999999999981</ele>
        <time>2013-11-09T13:34:33.25</time>
      </trkpt>
      <trkpt lat="38.508608333333335" lon="-1.25814">
        <ele>1302.899999999998</ele>
        <time>2013-11-09T13:34:34.25</time>
      </trkpt>
      <trkpt lat="38.50855333333333" lon="-1.2581866666666666">
        <ele>1303.099999999998</ele>
        <time>2013-11-09T13:34:35.24</time>
      </trkpt>
      <trkpt lat="38.508485" lon="-1.258245">
        <ele>1303.2999999999981</ele>
        <time>2013-11-09T13:34:36.23</time>
      </trkpt>
      <trkpt lat="38.50841666666667" lon="-1.2583">
        <ele>1303.2999999999981</ele>
        <time>2013-11-09T13:34:37.26</time>
      </trkpt>
      <trkpt lat="38.508355" lon="-1.2583516666666665">
        <ele>1302.899999999998</ele>
        <time>2013-11-09T13:34:38.25</time>
      </trkpt>
      <trkpt lat="38.508313333333334" lon="-1.2584116666666667">
        <ele>1302.399999999998</ele>
        <time>2013-11-09T13:34:39.25</time>
      </trkpt>
      <trkpt lat="38.508285" lon="-1.2584633333333333">
        <ele>1301.699999999998</ele>
        <time>2013-11-09T13:34:40.25</time>
      </trkpt>
      <trkpt lat="38.50826333333333" lon="-1.2585250000000001">
        <ele>1301.099999999998</ele>
        <time>2013-11-09T13:34:41.24</time>
      </trkpt>
      <trkpt lat="38.508248333333334" lon="-1.2585833333333334">
        <ele>1300.4999999999982</ele>
        <time>2013-11-09T13:34:42.28</time>
      </trkpt>
      <trkpt lat="38.50823666666667" lon="-1.25864">
        <ele>1300.1999999999982</ele>
        <time>2013-11-09T13:34:43.29</time>
      </trkpt>
      <trkpt lat="38.508221666666664" lon="-1.2586933333333334">
        <ele>1300.1999999999982</ele>
        <time>2013-11-09T13:34:44.25</time>
      </trkpt>
      <trkpt lat="38.50822333333333" lon="-1.258735">
        <ele>1300.0999999999983</ele>
        <time>2013-11-09T13:34:45.26</time>
      </trkpt>
      <trkpt lat="38.508228333333335" lon="-1.2587683333333333">
        <ele>1300.0999999999983</ele>
        <time>2013-11-09T13:34:46.25</time>
      </trkpt>
      <trkpt lat="38.50823833333333" lon="-1.2587866666666667">
        <ele>1299.9999999999984</ele>
        <time>2013-11-09T13:34:47.25</time>
      </trkpt>
      <trkpt lat="38.50825" lon="-1.2588016666666666">
        <ele>1299.8999999999985</ele>
        <time>2013-11-09T13:34:48.28</time>
      </trkpt>
      <trkpt lat="38.50826333333333" lon="-1.2588133333333333">
        <ele>1299.7999999999986</ele>
        <time>2013-11-09T13:34:49.26</time>
      </trkpt>
      <trkpt lat="38.50827833333334" lon="-1.2588266666666668">
        <ele>1299.6999999999987</ele>
        <time>2013-11-09T13:34:50.28</time>
      </trkpt>
      <trkpt lat="38.508305" lon="-1.2588266666666668">
        <ele>1299.4999999999986</ele>
        <time>2013-11-09T13:34:51.27</time>
      </trkpt>
      <trkpt lat="38.508355" lon="-1.258795">
        <ele>1297.6999999999987</ele>
        <time>2013-11-09T13:34:52.30</time>
      </trkpt>
      <trkpt lat="38.50841833333333" lon="-1.2587283333333334">
        <ele>1296.1999999999987</ele>
        <time>2013-11-09T13:34:53.31</time>
      </trkpt>
      <trkpt lat="38.508485" lon="-1.2586566666666665">
        <ele>1294.8999999999987</ele>
        <time>2013-11-09T13:34:54.28</time>
      </trkpt>
      <trkpt lat="38.50855333333333" lon="-1.2585816666666667">
        <ele>1293.7999999999988</ele>
        <time>2013-11-09T13:34:55.30</time>
      </trkpt>
      <trkpt lat="38.50861833333333" lon="-1.2585116666666667">
        <ele>1292.7999999999988</ele>
        <time>2013-11-09T13:34:56.42</time>
      </trkpt>
      <trkpt lat="38.50868" lon="-1.25845">
        <ele>1291.8999999999987</ele>
        <time>2013-11-09T13:34:57.25</time>
      </trkpt>
      <trkpt lat="38.50875166666667" lon="-1.2583866666666665">
        <ele>1291.2999999999988</ele>
        <time>2013-11-09T13:34:58.28</time>
      </trkpt>
      <trkpt lat="38.508826666666664" lon="-1.25833">
        <ele>1290.9999999999989</ele>
        <time>2013-11-09T13:34:59.25</time>
      </trkpt>
      <trkpt lat="38.508896666666665" lon="-1.2582783333333334">
        <ele>1290.9999999999989</ele>
        <time>2013-11-09T13:35:00.28</time>
      </trkpt>
      <trkpt lat="38.50895833333333" lon="-1.258225">
        <ele>1291.199999999999</ele>
        <time>2013-11-09T13:35:01.26</time>
      </trkpt>
      <trkpt lat="38.509013333333336" lon="-1.2581716666666667">
        <ele>1291.4999999999989</ele>
        <time>2013-11-09T13:35:02.25</time>
      </trkpt>
      <trkpt lat="38.509065" lon="-1.2581283333333333">
        <ele>1291.5999999999988</ele>
        <time>2013-11-09T13:35:03.25</time>
      </trkpt>
      <trkpt lat="38.50912" lon="-1.258085">
        <ele>1291.5999999999988</ele>
        <time>2013-11-09T13:35:04.24</time>
      </trkpt>
      <trkpt lat="38.50917833333333" lon="-1.258045">
        <ele>1291.6999999999987</ele>
        <time>2013-11-09T13:35:05.28</time>
      </trkpt>
      <trkpt lat="38.50924" lon="-1.2579983333333333">
        <ele>1291.8999999999987</ele>
        <time>2013-11-09T13:35:06.32</time>
      </trkpt>
      <trkpt lat="38.50930666666667" lon="-1.2579366666666667">
        <ele>1292.0999999999988</ele>
        <time>2013-11-09T13:35:07.29</time>
      </trkpt>
      <trkpt lat="38.50935833333333" lon="-1.2578466666666666">
        <ele>1292.3999999999987</ele>
        <time>2013-11-09T13:35:08.25</time>
      </trkpt>
      <trkpt lat="38.50940833333333" lon="-1.257745">
        <ele>1293.2999999999988</ele>
        <time>2013-11-09T13:35:09.25</time>
      </trkpt>
      <trkpt lat="38.509455" lon="-1.2576333333333334">
        <ele>1294.2999999999988</ele>
        <time>2013-11-09T13:35:10.25</time>
      </trkpt>
      <trkpt lat="38.50949833333333" lon="-1.2575266666666667">
        <ele>1295.2999999999988</ele>
        <time>2013-11-09T13:35:11.30</time>
      </trkpt>
      <trkpt lat="38.509535" lon="-1.25743">
        <ele>1296.4999999999989</ele>
        <time>2013-11-09T13:35:12.25</time>
      </trkpt>
      <trkpt lat="38.50958" lon="-1.2573133333333333">
        <ele>1297.699999999999</ele>
        <time>2013-11-09T13:35:13.25</time>
      </trkpt>
      <trkpt lat="38.50962333333333" lon="-1.257185">
        <ele>1298.599999999999</ele>
        <time>2013-11-09T13:35:14.25</time>
      </trkpt>
      <trkpt lat="38.50964" lon="-1.2570216666666667">
        <ele>1299.399999999999</ele>
        <time>2013-11-09T13:35:15.25</time>
      </trkpt>
      <trkpt lat="38.50965333333333" lon="-1.25684">
        <ele>1300.399999999999</ele>
        <time>2013-11-09T13:35:16.25</time>
      </trkpt>
      <trkpt lat="38.509658333333334" lon="-1.2566516666666667">
        <ele>1301.599999999999</ele>
        <time>2013-11-09T13:35:17.24</time>
      </trkpt>
      <trkpt lat="38.50962666666667" lon="-1.256475">
        <ele>1302.899999999999</ele>
        <time>2013-11-09T13:35:18.25</time>
      </trkpt>
      <trkpt lat="38.50957833333333" lon="-1.2563016666666666">
        <ele>1304.299999999999</ele>
        <time>2013-11-09T13:35:19.26</time>
      </trkpt>
      <trkpt lat="38.509481666666666" lon="-1.2561200000000001">
        <ele>1305.599999999999</ele>
        <time>2013-11-09T13:35:20.28</time>
      </trkpt>
      <trkpt lat="38.50936" lon="-1.2559783333333334">
        <ele>1306.499999999999</ele>
        <time>2013-11-09T13:35:21.25</time>
      </trkpt>
      <trkpt lat="38.50922833333333" lon="-1.2558366666666667">
        <ele>1307.3999999999992</ele>
        <time>2013-11-09T13:35:22.28</time>
      </trkpt>
      <trkpt lat="38.50909" lon="-1.25575">
        <ele>1308.2999999999993</ele>
        <time>2013-11-09T13:35:23.28</time>
      </trkpt>
      <trkpt lat="38.50895166666667" lon="-1.255675">
        <ele>1309.0999999999992</ele>
        <time>2013-11-09T13:35:24.28</time>
      </trkpt>
      <trkpt lat="38.508813333333336" lon="-1.2556416666666665">
        <ele>1309.8999999999992</ele>
        <time>2013-11-09T13:35:25.28</time>
      </trkpt>
      <trkpt lat="38.508705" lon="-1.2556266666666667">
        <ele>1310.2999999999993</ele>
        <time>2013-11-09T13:35:26.28</time>
      </trkpt>
      <trkpt lat="38.508605" lon="-1.25566">
        <ele>1310.7999999999993</ele>
        <time>2013-11-09T13:35:27.26</time>
      </trkpt>
      <trkpt lat="38.508523333333336" lon="-1.2557033333333334">
        <ele>1311.4999999999993</ele>
        <time>2013-11-09T13:35:28.28</time>
      </trkpt>
      <trkpt lat="38.50845" lon="-1.2557733333333334">
        <ele>1312.2999999999993</ele>
        <time>2013-11-09T13:35:29.25</time>
      </trkpt>
      <trkpt lat="38.50839833333333" lon="-1.2558333333333334">
        <ele>1312.4999999999993</ele>
        <time>2013-11-09T13:35:30.29</time>
      </trkpt>
      <trkpt lat="38.508361666666666" lon="-1.2558816666666668">
        <ele>1312.5999999999992</ele>
        <time>2013-11-09T13:35:31.25</time>
      </trkpt>
      <trkpt lat="38.50833" lon="-1.255935">
        <ele>1312.6999999999991</ele>
        <time>2013-11-09T13:35:32.29</time>
      </trkpt>
      <trkpt lat="38.50832" lon="-1.2559883333333333">
        <ele>1312.8999999999992</ele>
        <time>2013-11-09T13:35:33.28</time>
      </trkpt>
      <trkpt lat="38.50830166666667" lon="-1.2560633333333333">
        <ele>1313.1999999999991</ele>
        <time>2013-11-09T13:35:34.25</time>
      </trkpt>
      <trkpt lat="38.50828666666666" lon="-1.2561433333333334">
        <ele>1313.3999999999992</ele>
        <time>2013-11-09T13:35:35.28</time>
      </trkpt>
      <trkpt lat="38.508275" lon="-1.2562083333333334">
        <ele>1313.8999999999992</ele>
        <time>2013-11-09T13:35:36.25</time>
      </trkpt>
      <trkpt lat="38.50825833333333" lon="-1.2562816666666667">
        <ele>1314.499999999999</ele>
        <time>2013-11-09T13:35:37.25</time>
      </trkpt>
      <trkpt lat="38.508248333333334" lon="-1.256335">
        <ele>1314.599999999999</ele>
        <time>2013-11-09T13:35:38.25</time>
      </trkpt>
      <trkpt lat="38.508246666666665" lon="-1.2563716666666667">
        <ele>1314.599999999999</ele>
        <time>2013-11-09T13:35:39.25</time>
      </trkpt>
      <trkpt lat="38.508251666666666" lon="-1.2563866666666668">
        <ele>1314.699999999999</ele>
        <time>2013-11-09T13:35:40.25</time>
      </trkpt>
      <trkpt lat="38.50826166666667" lon="-1.25643">
        <ele>1314.7999999999988</ele>
        <time>2013-11-09T13:35:41.29</time>
      </trkpt>
      <trkpt lat="38.50828166666667" lon="-1.256465">
        <ele>1314.8999999999987</ele>
        <time>2013-11-09T13:35:42.24</time>
      </trkpt>
      <trkpt lat="38.508316666666666" lon="-1.2564866666666668">
        <ele>1315.0999999999988</ele>
        <time>2013-11-09T13:35:43.25</time>
      </trkpt>
      <trkpt lat="38.508363333333335" lon="-1.2565083333333333">
        <ele>1316.5999999999988</ele>
        <time>2013-11-09T13:35:44.25</time>
      </trkpt>
      <trkpt lat="38.50841666666667" lon="-1.2565">
        <ele>1317.5999999999988</ele>
        <time>2013-11-09T13:35:45.28</time>
      </trkpt>
      <trkpt lat="38.508471666666665" lon="-1.2564783333333334">
        <ele>1319.0999999999988</ele>
        <time>2013-11-09T13:35:46.26</time>
      </trkpt>
      <trkpt lat="38.508516666666665" lon="-1.2564466666666667">
        <ele>1319.2999999999988</ele>
        <time>2013-11-09T13:35:47.24</time>
      </trkpt>
      <trkpt lat="38.508536666666664" lon="-1.256415">
        <ele>1319.4999999999989</ele>
        <time>2013-11-09T13:35:48.28</time>
      </trkpt>
      <trkpt lat="38.508565" lon="-1.2563783333333334">
        <ele>1319.699999999999</ele>
        <time>2013-11-09T13:35:49.25</time>
      </trkpt>
      <trkpt lat="38.50860333333333" lon="-1.2563333333333333">
        <ele>1321.4999999999989</ele>
        <time>2013-11-09T13:35:50.29</time>
      </trkpt>
      <trkpt lat="38.508646666666664" lon="-1.2562866666666666">
        <ele>1322.5999999999988</ele>
        <time>2013-11-09T13:35:51.28</time>
      </trkpt>
      <trkpt lat="38.50870333333334" lon="-1.2562266666666666">
        <ele>1323.3999999999987</ele>
        <time>2013-11-09T13:35:52.25</time>
      </trkpt>
      <trkpt lat="38.50877" lon="-1.256165">
        <ele>1323.8999999999987</ele>
        <time>2013-11-09T13:35:53.22</time>
      </trkpt>
      <trkpt lat="38.508825" lon="-1.2561133333333334">
        <ele>1324.1999999999987</ele>
        <time>2013-11-09T13:35:54.28</time>
      </trkpt>
      <trkpt lat="38.50888166666667" lon="-1.256065">
        <ele>1324.3999999999987</ele>
        <time>2013-11-09T13:35:55.29</time>
      </trkpt>
      <trkpt lat="38.50893333333333" lon="-1.2560233333333333">
        <ele>1324.4999999999986</ele>
        <time>2013-11-09T13:35:56.28</time>
      </trkpt>
      <trkpt lat="38.508988333333335" lon="-1.2559783333333334">
        <ele>1324.5999999999985</ele>
        <time>2013-11-09T13:35:57.25</time>
      </trkpt>
      <trkpt lat="38.50904" lon="-1.255925">
        <ele>1324.4999999999986</ele>
        <time>2013-11-09T13:35:58.27</time>
      </trkpt>
      <trkpt lat="38.50909166666667" lon="-1.2558716666666667">
        <ele>1324.2999999999986</ele>
        <time>2013-11-09T13:35:59.28</time>
      </trkpt>
      <trkpt lat="38.509146666666666" lon="-1.2558183333333333">
        <ele>1324.0999999999985</ele>
        <time>2013-11-09T13:36:00.29</time>
      </trkpt>
      <trkpt lat="38.50920333333333" lon="-1.255765">
        <ele>1324.0999999999985</ele>
        <time>2013-11-09T13:36:01.24</time>
      </trkpt>
      <trkpt lat="38.509255" lon="-1.2557066666666667">
        <ele>1324.3999999999985</ele>
        <time>2013-11-09T13:36:02.25</time>
      </trkpt>
      <trkpt lat="38.509303333333335" lon="-1.2556383333333334">
        <ele>1324.7999999999986</ele>
        <time>2013-11-09T13:36:03.24</time>
      </trkpt>
      <trkpt lat="38.50935" lon="-1.2555616666666667">
        <ele>1325.2999999999986</ele>
        <time>2013-11-09T13:36:04.42</time>
      </trkpt>
      <trkpt lat="38.509393333333335" lon="-1.2554816666666666">
        <ele>1325.9999999999986</ele>
        <time>2013-11-09T13:36:05.29</time>
      </trkpt>
      <trkpt lat="38.509438333333335" lon="-1.2553983333333334">
        <ele>1326.3999999999987</ele>
        <time>2013-11-09T13:36:06.25</time>
      </trkpt>
      <trkpt lat="38.50948833333333" lon="-1.2552916666666667">
        <ele>1326.7999999999988</ele>
        <time>2013-11-09T13:36:07.25</time>
      </trkpt>
      <trkpt lat="38.50954333333333" lon="-1.2551633333333334">
        <ele>1326.9999999999989</ele>
        <time>2013-11-09T13:36:08.25</time>
      </trkpt>
      <trkpt lat="38.50959" lon="-1.2550283333333334">
        <ele>1327.2999999999988</ele>
        <time>2013-11-09T13:36:09.28</time>
      </trkpt>
      <trkpt lat="38.50962333333333" lon="-1.25492">
        <ele>1327.5999999999988</ele>
        <time>2013-11-09T13:36:10.28</time>
      </trkpt>
      <trkpt lat="38.509658333333334" lon="-1.25482">
        <ele>1327.7999999999988</ele>
        <time>2013-11-09T13:36:11.25</time>
      </trkpt>
      <trkpt lat="38.50972" lon="-1.25473">
        <ele>1327.9999999999989</ele>
        <time>2013-11-09T13:36:12.23</time>
      </trkpt>
      <trkpt lat="38.50978333333333" lon="-1.254645">
        <ele>1328.4999999999989</ele>
        <time>2013-11-09T13:36:13.25</time>
      </trkpt>
      <trkpt lat="38.50984666666667" lon="-1.2545616666666666">
        <ele>1329.199999999999</ele>
        <time>2013-11-09T13:36:14.25</time>
      </trkpt>
      <trkpt lat="38.509915" lon="-1.25447">
        <ele>1330.199999999999</ele>
        <time>2013-11-09T13:36:15.29</time>
      </trkpt>
      <trkpt lat="38.509955" lon="-1.254415">
        <ele>1331.4999999999989</ele>
        <time>2013-11-09T13:36:16.27</time>
      </trkpt>
      <trkpt lat="38.509996666666666" lon="-1.2543483333333334">
        <ele>1332.899999999999</ele>
        <time>2013-11-09T13:36:17.25</time>
      </trkpt>
      <trkpt lat="38.51002666666667" lon="-1.2542816666666667">
        <ele>1334.199999999999</ele>
        <time>2013-11-09T13:36:18.28</time>
      </trkpt>
      <trkpt lat="38.510038333333334" lon="-1.2541983333333333">
        <ele>1335.199999999999</ele>
        <time>2013-11-09T13:36:19.28</time>
      </trkpt>
      <trkpt lat="38.51005333333333" lon="-1.2540933333333333">
        <ele>1335.9999999999989</ele>
        <time>2013-11-09T13:36:20.29</time>
      </trkpt>
      <trkpt lat="38.510075" lon="-1.2539733333333334">
        <ele>1337.199999999999</ele>
        <time>2013-11-09T13:36:21.25</time>
      </trkpt>
      <trkpt lat="38.51011" lon="-1.253845">
        <ele>1338.599999999999</ele>
        <time>2013-11-09T13:36:22.28</time>
      </trkpt>
      <trkpt lat="38.51014833333333" lon="-1.253715">
        <ele>1339.699999999999</ele>
        <time>2013-11-09T13:36:23.25</time>
      </trkpt>
      <trkpt lat="38.51018666666667" lon="-1.2536116666666666">
        <ele>1340.699999999999</ele>
        <time>2013-11-09T13:36:24.29</time>
      </trkpt>
      <trkpt lat="38.510243333333335" lon="-1.2535466666666666">
        <ele>1341.4999999999989</ele>
        <time>2013-11-09T13:36:25.28</time>
      </trkpt>
      <trkpt lat="38.510285" lon="-1.2535266666666667">
        <ele>1341.699999999999</ele>
        <time>2013-11-09T13:36:26.28</time>
      </trkpt>
      <trkpt lat="38.510328333333334" lon="-1.2535166666666666">
        <ele>1341.899999999999</ele>
        <time>2013-11-09T13:36:27.25</time>
      </trkpt>
      <trkpt lat="38.51036666666667" lon="-1.253505">
        <ele>1341.899999999999</ele>
        <time>2013-11-09T13:36:28.25</time>
      </trkpt>
      <trkpt lat="38.51038666666667" lon="-1.2535">
        <ele>1341.899999999999</ele>
        <time>2013-11-09T13:36:29.26</time>
      </trkpt>
      <trkpt lat="38.510396666666665" lon="-1.2534983333333334">
        <ele>1341.899999999999</ele>
        <time>2013-11-09T13:36:30.29</time>
      </trkpt>
      <trkpt lat="38.51040833333333" lon="-1.2534966666666667">
        <ele>1341.899999999999</ele>
        <time>2013-11-09T13:36:31.25</time>
      </trkpt>
      <trkpt lat="38.51042" lon="-1.25352">
        <ele>1341.899999999999</ele>
        <time>2013-11-09T13:36:32.25</time>
      </trkpt>
      <trkpt lat="38.51043" lon="-1.2535633333333334">
        <ele>1341.799999999999</ele>
        <time>2013-11-09T13:36:33.28</time>
      </trkpt>
      <trkpt lat="38.51043666666666" lon="-1.25362">
        <ele>1341.799999999999</ele>
        <time>2013-11-09T13:36:34.29</time>
      </trkpt>
      <trkpt lat="38.510421666666666" lon="-1.2536766666666668">
        <ele>1341.799999999999</ele>
        <time>2013-11-09T13:36:35.29</time>
      </trkpt>
      <trkpt lat="38.510403333333336" lon="-1.25372">
        <ele>1341.799999999999</ele>
        <time>2013-11-09T13:36:36.25</time>
      </trkpt>
      <trkpt lat="38.51038833333333" lon="-1.2537449999999999">
        <ele>1341.6999999999991</ele>
        <time>2013-11-09T13:36:37.27</time>
      </trkpt>
      <trkpt lat="38.510376666666666" lon="-1.2537616666666667">
        <ele>1341.799999999999</ele>
        <time>2013-11-09T13:36:38.24</time>
      </trkpt>
      <trkpt lat="38.510355" lon="-1.2537683333333334">
        <ele>1341.799999999999</ele>
        <time>2013-11-09T13:36:39.29</time>
      </trkpt>
      <trkpt lat="38.510328333333334" lon="-1.25379">
        <ele>1342.1999999999991</ele>
        <time>2013-11-09T13:36:40.23</time>
      </trkpt>
      <trkpt lat="38.51029" lon="-1.2538283333333333">
        <ele>1342.1999999999991</ele>
        <time>2013-11-09T13:36:41.25</time>
      </trkpt>
      <trkpt lat="38.51025166666667" lon="-1.253875">
        <ele>1341.8999999999992</ele>
        <time>2013-11-09T13:36:42.29</time>
      </trkpt>
      <trkpt lat="38.510218333333334" lon="-1.2539233333333333">
        <ele>1341.7999999999993</ele>
        <time>2013-11-09T13:36:43.25</time>
      </trkpt>
      <trkpt lat="38.510185" lon="-1.2539683333333334">
        <ele>1341.4999999999993</ele>
        <time>2013-11-09T13:36:44.88</time>
      </trkpt>
      <trkpt lat="38.510153333333335" lon="-1.2540083333333334">
        <ele>1341.2999999999993</ele>
        <time>2013-11-09T13:36:45.24</time>
      </trkpt>
      <trkpt lat="38.51012333333333" lon="-1.2540466666666668">
        <ele>1340.6999999999994</ele>
        <time>2013-11-09T13:36:46.28</time>
      </trkpt>
      <trkpt lat="38.510105" lon="-1.2540866666666668">
        <ele>1340.5999999999995</ele>
        <time>2013-11-09T13:36:47.25</time>
      </trkpt>
      <trkpt lat="38.510095" lon="-1.2541183333333334">
        <ele>1340.4999999999995</ele>
        <time>2013-11-09T13:36:48.25</time>
      </trkpt>
      <trkpt lat="38.510083333333334" lon="-1.2541716666666667">
        <ele>1339.0999999999995</ele>
        <time>2013-11-09T13:36:49.25</time>
      </trkpt>
      <trkpt lat="38.510075" lon="-1.254225">
        <ele>1337.9999999999995</ele>
        <time>2013-11-09T13:36:50.24</time>
      </trkpt>
      <trkpt lat="38.510065" lon="-1.2542816666666667">
        <ele>1337.8999999999996</ele>
        <time>2013-11-09T13:36:51.26</time>
      </trkpt>
      <trkpt lat="38.51005833333333" lon="-1.2543233333333332">
        <ele>1337.7999999999997</ele>
        <time>2013-11-09T13:36:52.25</time>
      </trkpt>
      <trkpt lat="38.51006" lon="-1.2543583333333332">
        <ele>1337.6999999999998</ele>
        <time>2013-11-09T13:36:53.54</time>
      </trkpt>
      <trkpt lat="38.510061666666665" lon="-1.2543883333333334">
        <ele>1337.4999999999998</ele>
        <time>2013-11-09T13:36:54.24</time>
      </trkpt>
      <trkpt lat="38.51006666666667" lon="-1.2544183333333334">
        <ele>1337.2999999999997</ele>
        <time>2013-11-09T13:36:55.24</time>
      </trkpt>
      <trkpt lat="38.51007166666667" lon="-1.2544483333333334">
        <ele>1337.0999999999997</ele>
        <time>2013-11-09T13:36:56.28</time>
      </trkpt>
      <trkpt lat="38.510083333333334" lon="-1.25448">
        <ele>1336.8999999999996</ele>
        <time>2013-11-09T13:36:57.32</time>
      </trkpt>
      <trkpt lat="38.51009333333333" lon="-1.2545033333333333">
        <ele>1336.6999999999996</ele>
        <time>2013-11-09T13:36:58.28</time>
      </trkpt>
      <trkpt lat="38.510108333333335" lon="-1.2545266666666666">
        <ele>1336.4999999999995</ele>
        <time>2013-11-09T13:36:59.25</time>
      </trkpt>
      <trkpt lat="38.51012333333333" lon="-1.2545466666666667">
        <ele>1336.1999999999996</ele>
        <time>2013-11-09T13:37:00.26</time>
      </trkpt>
      <trkpt lat="38.51013833333333" lon="-1.2545633333333333">
        <ele>1335.9999999999995</ele>
        <time>2013-11-09T13:37:01.28</time>
      </trkpt>
      <trkpt lat="38.510153333333335" lon="-1.2545766666666667">
        <ele>1335.6999999999996</ele>
        <time>2013-11-09T13:37:02.29</time>
      </trkpt>
      <trkpt lat="38.51017" lon="-1.2545916666666668">
        <ele>1335.3999999999996</ele>
        <time>2013-11-09T13:37:03.25</time>
      </trkpt>
      <trkpt lat="38.51019" lon="-1.25461">
        <ele>1335.0999999999997</ele>
        <time>2013-11-09T13:37:04.25</time>
      </trkpt>
      <trkpt lat="38.51021" lon="-1.2546283333333332">
        <ele>1334.7999999999997</ele>
        <time>2013-11-09T13:37:05.25</time>
      </trkpt>
      <trkpt lat="38.51022666666667" lon="-1.254645">
        <ele>1334.4999999999998</ele>
        <time>2013-11-09T13:37:06.25</time>
      </trkpt>
      <trkpt lat="38.510243333333335" lon="-1.2546683333333333">
        <ele>1334.0999999999997</ele>
        <time>2013-11-09T13:37:07.25</time>
      </trkpt>
      <trkpt lat="38.510261666666665" lon="-1.2547016666666666">
        <ele>1333.6999999999996</ele>
        <time>2013-11-09T13:37:08.28</time>
      </trkpt>
      <trkpt lat="38.51027833333333" lon="-1.254735">
        <ele>1333.3999999999996</ele>
        <time>2013-11-09T13:37:09.22</time>
      </trkpt>
      <trkpt lat="38.51029333333334" lon="-1.2547666666666666">
        <ele>1332.9999999999995</ele>
        <time>2013-11-09T13:37:10.25</time>
      </trkpt>
      <trkpt lat="38.510308333333334" lon="-1.25479">
        <ele>1332.6999999999996</ele>
        <time>2013-11-09T13:37:11.25</time>
      </trkpt>
      <trkpt lat="38.51032333333333" lon="-1.2548083333333333">
        <ele>1332.2999999999995</ele>
        <time>2013-11-09T13:37:12.23</time>
      </trkpt>
      <trkpt lat="38.51033833333334" lon="-1.2548300000000001">
        <ele>1331.7999999999995</ele>
        <time>2013-11-09T13:37:13.28</time>
      </trkpt>
      <trkpt lat="38.510353333333335" lon="-1.254855">
        <ele>1331.3999999999994</ele>
        <time>2013-11-09T13:37:14.27</time>
      </trkpt>
      <trkpt lat="38.51036833333333" lon="-1.25488">
        <ele>1330.8999999999994</ele>
        <time>2013-11-09T13:37:15.28</time>
      </trkpt>
      <trkpt lat="38.51038" lon="-1.254905">
        <ele>1330.3999999999994</ele>
        <time>2013-11-09T13:37:16.26</time>
      </trkpt>
      <trkpt lat="38.510396666666665" lon="-1.254925">
        <ele>1329.8999999999994</ele>
        <time>2013-11-09T13:37:17.28</time>
      </trkpt>
      <trkpt lat="38.51041333333333" lon="-1.2549433333333333">
        <ele>1329.3999999999994</ele>
        <time>2013-11-09T13:37:18.28</time>
      </trkpt>
      <trkpt lat="38.51042833333333" lon="-1.2549566666666667">
        <ele>1328.8999999999994</ele>
        <time>2013-11-09T13:37:19.26</time>
      </trkpt>
      <trkpt lat="38.510443333333335" lon="-1.2549666666666668">
        <ele>1328.3999999999994</ele>
        <time>2013-11-09T13:37:20.28</time>
      </trkpt>
      <trkpt lat="38.51045666666667" lon="-1.2549783333333333">
        <ele>1327.7999999999995</ele>
        <time>2013-11-09T13:37:21.25</time>
      </trkpt>
      <trkpt lat="38.51047666666667" lon="-1.2549916666666667">
        <ele>1327.1999999999996</ele>
        <time>2013-11-09T13:37:22.25</time>
      </trkpt>
      <trkpt lat="38.5105" lon="-1.2550066666666666">
        <ele>1326.5999999999997</ele>
        <time>2013-11-09T13:37:23.28</time>
      </trkpt>
      <trkpt lat="38.51052833333333" lon="-1.2550233333333334">
        <ele>1325.9999999999998</ele>
        <time>2013-11-09T13:37:24.28</time>
      </trkpt>
      <trkpt lat="38.510556666666666" lon="-1.2550416666666666">
        <ele>1325.4999999999998</ele>
        <time>2013-11-09T13:37:25.25</time>
      </trkpt>
      <trkpt lat="38.51058" lon="-1.25507">
        <ele>1324.8999999999999</ele>
        <time>2013-11-09T13:37:26.28</time>
      </trkpt>
      <trkpt lat="38.5106" lon="-1.2550966666666667">
        <ele>1324.3999999999999</ele>
        <time>2013-11-09T13:37:27.25</time>
      </trkpt>
      <trkpt lat="38.510615" lon="-1.2551183333333333">
        <ele>1323.8999999999999</ele>
        <time>2013-11-09T13:37:28.25</time>
      </trkpt>
      <trkpt lat="38.51063833333333" lon="-1.25513">
        <ele>1323.3999999999999</ele>
        <time>2013-11-09T13:37:29.24</time>
      </trkpt>
      <trkpt lat="38.51067" lon="-1.2551350000000001">
        <ele>1322.8</ele>
        <time>2013-11-09T13:37:30.29</time>
      </trkpt>
      <trkpt lat="38.5107" lon="-1.2551366666666666">
        <ele>1322.3</ele>
        <time>2013-11-09T13:37:31.25</time>
      </trkpt>
      <trkpt lat="38.510725" lon="-1.25513">
        <ele>1321.8</ele>
        <time>2013-11-09T13:37:32.25</time>
      </trkpt>
      <trkpt lat="38.51074833333333" lon="-1.2551233333333334">
        <ele>1321.3</ele>
        <time>2013-11-09T13:37:33.28</time>
      </trkpt>
      <trkpt lat="38.510775" lon="-1.2551066666666666">
        <ele>1320.8</ele>
        <time>2013-11-09T13:37:34.28</time>
      </trkpt>
      <trkpt lat="38.51080666666667" lon="-1.255085">
        <ele>1320.3</ele>
        <time>2013-11-09T13:37:35.26</time>
      </trkpt>
      <trkpt lat="38.510845" lon="-1.2550616666666667">
        <ele>1319.8</ele>
        <time>2013-11-09T13:37:36.28</time>
      </trkpt>
      <trkpt lat="38.51088166666667" lon="-1.2550383333333333">
        <ele>1319.2</ele>
        <time>2013-11-09T13:37:37.25</time>
      </trkpt>
      <trkpt lat="38.510918333333336" lon="-1.255005">
        <ele>1313.7</ele>
        <time>2013-11-09T13:37:38.28</time>
      </trkpt>
      <trkpt lat="38.51096" lon="-1.2549666666666668">
        <ele>1309.1000000000001</ele>
        <time>2013-11-09T13:37:39.27</time>
      </trkpt>
      <trkpt lat="38.511003333333335" lon="-1.25492">
        <ele>1305.5000000000002</ele>
        <time>2013-11-09T13:37:40.26</time>
      </trkpt>
      <trkpt lat="38.51104333333333" lon="-1.2548716666666666">
        <ele>1302.7000000000003</ele>
        <time>2013-11-09T13:37:41.25</time>
      </trkpt>
      <trkpt lat="38.511085" lon="-1.25482">
        <ele>1300.4000000000003</ele>
        <time>2013-11-09T13:37:42.28</time>
      </trkpt>
      <trkpt lat="38.51112833333333" lon="-1.2547666666666666">
        <ele>1298.5000000000002</ele>
        <time>2013-11-09T13:37:43.28</time>
      </trkpt>
      <trkpt lat="38.51117333333333" lon="-1.2547083333333333">
        <ele>1296.9000000000003</ele>
        <time>2013-11-09T13:37:44.28</time>
      </trkpt>
      <trkpt lat="38.511215" lon="-1.2546483333333334">
        <ele>1295.6000000000004</ele>
        <time>2013-11-09T13:37:45.29</time>
      </trkpt>
      <trkpt lat="38.511255" lon="-1.2545933333333332">
        <ele>1294.4000000000003</ele>
        <time>2013-11-09T13:37:46.25</time>
      </trkpt>
      <trkpt lat="38.511291666666665" lon="-1.2545483333333334">
        <ele>1293.3000000000004</ele>
        <time>2013-11-09T13:37:47.25</time>
      </trkpt>
      <trkpt lat="38.51133" lon="-1.25451">
        <ele>1292.4000000000003</ele>
        <time>2013-11-09T13:37:48.28</time>
      </trkpt>
      <trkpt lat="38.51136833333333" lon="-1.2544783333333334">
        <ele>1291.7000000000003</ele>
        <time>2013-11-09T13:37:49.29</time>
      </trkpt>
      <trkpt lat="38.51141166666667" lon="-1.2544483333333334">
        <ele>1291.1000000000004</ele>
        <time>2013-11-09T13:37:50.32</time>
      </trkpt>
      <trkpt lat="38.51145666666667" lon="-1.2544316666666666">
        <ele>1290.5000000000005</ele>
        <time>2013-11-09T13:37:51.28</time>
      </trkpt>
      <trkpt lat="38.511496666666666" lon="-1.25442">
        <ele>1290.0000000000005</ele>
        <time>2013-11-09T13:37:52.25</time>
      </trkpt>
      <trkpt lat="38.51153166666667" lon="-1.2544066666666667">
        <ele>1289.7000000000005</ele>
        <time>2013-11-09T13:37:53.25</time>
      </trkpt>
      <trkpt lat="38.51155" lon="-1.2544066666666667">
        <ele>1289.7000000000005</ele>
        <time>2013-11-09T13:37:54.24</time>
      </trkpt>
      <trkpt lat="38.511563333333335" lon="-1.254405">
        <ele>1289.7000000000005</ele>
        <time>2013-11-09T13:37:55.26</time>
      </trkpt>
      <trkpt lat="38.51157833333333" lon="-1.2543816666666667">
        <ele>1289.7000000000005</ele>
        <time>2013-11-09T13:37:56.28</time>
      </trkpt>
      <trkpt lat="38.511606666666665" lon="-1.254335">
        <ele>1290.2000000000005</ele>
        <time>2013-11-09T13:37:57.25</time>
      </trkpt>
      <trkpt lat="38.51163833333333" lon="-1.25428">
        <ele>1290.4000000000005</ele>
        <time>2013-11-09T13:37:58.25</time>
      </trkpt>
      <trkpt lat="38.511678333333336" lon="-1.2542333333333333">
        <ele>1290.7000000000005</ele>
        <time>2013-11-09T13:37:59.25</time>
      </trkpt>
      <trkpt lat="38.511721666666666" lon="-1.2542016666666667">
        <ele>1290.7000000000005</ele>
        <time>2013-11-09T13:38:00.25</time>
      </trkpt>
      <trkpt lat="38.51175833333333" lon="-1.2541816666666668">
        <ele>1290.7000000000005</ele>
        <time>2013-11-09T13:38:01.25</time>
      </trkpt>
      <trkpt lat="38.511785" lon="-1.2541733333333334">
        <ele>1290.7000000000005</ele>
        <time>2013-11-09T13:38:02.25</time>
      </trkpt>
      <trkpt lat="38.511808333333335" lon="-1.25417">
        <ele>1290.6000000000006</ele>
        <time>2013-11-09T13:38:03.25</time>
      </trkpt>
      <trkpt lat="38.511815" lon="-1.25418">
        <ele>1290.6000000000006</ele>
        <time>2013-11-09T13:38:04.25</time>
      </trkpt>
      <trkpt lat="38.51182166666667" lon="-1.25419">
        <ele>1290.5000000000007</ele>
        <time>2013-11-09T13:38:05.26</time>
      </trkpt>
      <trkpt lat="38.511845" lon="-1.25421">
        <ele>1290.4000000000008</ele>
        <time>2013-11-09T13:38:06.25</time>
      </trkpt>
      <trkpt lat="38.511875" lon="-1.2542416666666667">
        <ele>1290.3000000000009</ele>
        <time>2013-11-09T13:38:07.25</time>
      </trkpt>
      <trkpt lat="38.511896666666665" lon="-1.25427">
        <ele>1290.1000000000008</ele>
        <time>2013-11-09T13:38:08.25</time>
      </trkpt>
      <trkpt lat="38.511903333333336" lon="-1.254305">
        <ele>1290.000000000001</ele>
        <time>2013-11-09T13:38:09.25</time>
      </trkpt>
      <trkpt lat="38.511905" lon="-1.25434">
        <ele>1289.8000000000009</ele>
        <time>2013-11-09T13:38:10.25</time>
      </trkpt>
      <trkpt lat="38.51190666666667" lon="-1.254375">
        <ele>1289.700000000001</ele>
        <time>2013-11-09T13:38:11.25</time>
      </trkpt>
      <trkpt lat="38.51190833333333" lon="-1.254405">
        <ele>1289.500000000001</ele>
        <time>2013-11-09T13:38:12.23</time>
      </trkpt>
      <trkpt lat="38.511915" lon="-1.2544433333333334">
        <ele>1289.3000000000009</ele>
        <time>2013-11-09T13:38:13.25</time>
      </trkpt>
      <trkpt lat="38.51192666666667" lon="-1.2545016666666666">
        <ele>1289.200000000001</ele>
        <time>2013-11-09T13:38:14.25</time>
      </trkpt>
      <trkpt lat="38.511936666666664" lon="-1.25455">
        <ele>1289.000000000001</ele>
        <time>2013-11-09T13:38:15.26</time>
      </trkpt>
      <trkpt lat="38.511945" lon="-1.2545950000000001">
        <ele>1288.900000000001</ele>
        <time>2013-11-09T13:38:16.25</time>
      </trkpt>
      <trkpt lat="38.51195166666667" lon="-1.2546333333333333">
        <ele>1288.800000000001</ele>
        <time>2013-11-09T13:38:17.24</time>
      </trkpt>
      <trkpt lat="38.51195833333333" lon="-1.254665">
        <ele>1288.7000000000012</ele>
        <time>2013-11-09T13:38:18.33</time>
      </trkpt>
      <trkpt lat="38.51195666666667" lon="-1.25469">
        <ele>1288.5000000000011</ele>
        <time>2013-11-09T13:38:19.25</time>
      </trkpt>
      <trkpt lat="38.511955" lon="-1.25471">
        <ele>1288.4000000000012</ele>
        <time>2013-11-09T13:38:20.26</time>
      </trkpt>
      <trkpt lat="38.51196" lon="-1.254725">
        <ele>1288.3000000000013</ele>
        <time>2013-11-09T13:38:21.25</time>
      </trkpt>
      <trkpt lat="38.511975" lon="-1.25474">
        <ele>1288.1000000000013</ele>
        <time>2013-11-09T13:38:22.25</time>
      </trkpt>
      <trkpt lat="38.51200166666667" lon="-1.25475">
        <ele>1288.0000000000014</ele>
        <time>2013-11-09T13:38:23.25</time>
      </trkpt>
      <trkpt lat="38.512033333333335" lon="-1.2547533333333334">
        <ele>1287.8000000000013</ele>
        <time>2013-11-09T13:38:24.26</time>
      </trkpt>
      <trkpt lat="38.51207" lon="-1.2547516666666667">
        <ele>1287.7000000000014</ele>
        <time>2013-11-09T13:38:25.26</time>
      </trkpt>
      <trkpt lat="38.5121" lon="-1.2547516666666667">
        <ele>1287.6000000000015</ele>
        <time>2013-11-09T13:38:26.25</time>
      </trkpt>
      <trkpt lat="38.512121666666665" lon="-1.2547566666666667">
        <ele>1287.5000000000016</ele>
        <time>2013-11-09T13:38:27.25</time>
      </trkpt>
      <trkpt lat="38.512145" lon="-1.2547566666666667">
        <ele>1287.4000000000017</ele>
        <time>2013-11-09T13:38:28.25</time>
      </trkpt>
      <trkpt lat="38.512166666666666" lon="-1.2547416666666666">
        <ele>1287.4000000000017</ele>
        <time>2013-11-09T13:38:29.24</time>
      </trkpt>
      <trkpt lat="38.51219" lon="-1.2547116666666667">
        <ele>1287.4000000000017</ele>
        <time>2013-11-09T13:38:30.26</time>
      </trkpt>
      <trkpt lat="38.512208333333334" lon="-1.2546733333333333">
        <ele>1287.3000000000018</ele>
        <time>2013-11-09T13:38:31.25</time>
      </trkpt>
      <trkpt lat="38.51222666666666" lon="-1.254635">
        <ele>1287.3000000000018</ele>
        <time>2013-11-09T13:38:32.24</time>
      </trkpt>
      <trkpt lat="38.51224333333333" lon="-1.2545966666666666">
        <ele>1287.2000000000019</ele>
        <time>2013-11-09T13:38:33.25</time>
      </trkpt>
      <trkpt lat="38.512276666666665" lon="-1.2545616666666666">
        <ele>1286.7000000000019</ele>
        <time>2013-11-09T13:38:34.26</time>
      </trkpt>
      <trkpt lat="38.51231" lon="-1.25453">
        <ele>1286.600000000002</ele>
        <time>2013-11-09T13:38:35.26</time>
      </trkpt>
      <trkpt lat="38.512346666666666" lon="-1.254505">
        <ele>1286.600000000002</ele>
        <time>2013-11-09T13:38:36.25</time>
      </trkpt>
      <trkpt lat="38.51237833333333" lon="-1.2544983333333333">
        <ele>1286.500000000002</ele>
        <time>2013-11-09T13:38:37.25</time>
      </trkpt>
      <trkpt lat="38.512393333333335" lon="-1.2545033333333333">
        <ele>1286.500000000002</ele>
        <time>2013-11-09T13:38:38.28</time>
      </trkpt>
      <trkpt lat="38.51240833333333" lon="-1.2545083333333333">
        <ele>1286.4000000000021</ele>
        <time>2013-11-09T13:38:39.27</time>
      </trkpt>
      <trkpt lat="38.512425" lon="-1.2545116666666667">
        <ele>1286.4000000000021</ele>
        <time>2013-11-09T13:38:40.26</time>
      </trkpt>
      <trkpt lat="38.512436666666666" lon="-1.25452">
        <ele>1286.3000000000022</ele>
        <time>2013-11-09T13:38:41.28</time>
      </trkpt>
      <trkpt lat="38.51243" lon="-1.2545516666666667">
        <ele>1286.3000000000022</ele>
        <time>2013-11-09T13:38:42.31</time>
      </trkpt>
      <trkpt lat="38.512411666666665" lon="-1.2545866666666667">
        <ele>1286.2000000000023</ele>
        <time>2013-11-09T13:38:43.28</time>
      </trkpt>
      <trkpt lat="38.5124" lon="-1.254615">
        <ele>1286.2000000000023</ele>
        <time>2013-11-09T13:38:44.26</time>
      </trkpt>
      <trkpt lat="38.51238166666667" lon="-1.25465">
        <ele>1286.2000000000023</ele>
        <time>2013-11-09T13:38:45.27</time>
      </trkpt>
      <trkpt lat="38.512368333333335" lon="-1.2546783333333333">
        <ele>1286.1000000000024</ele>
        <time>2013-11-09T13:38:46.26</time>
      </trkpt>
      <trkpt lat="38.51236" lon="-1.2547116666666667">
        <ele>1286.0000000000025</ele>
        <time>2013-11-09T13:38:47.25</time>
      </trkpt>
      <trkpt lat="38.51236" lon="-1.254745">
        <ele>1285.9000000000026</ele>
        <time>2013-11-09T13:38:48.27</time>
      </trkpt>
      <trkpt lat="38.51237" lon="-1.2547766666666667">
        <ele>1285.8000000000027</ele>
        <time>2013-11-09T13:38:49.26</time>
      </trkpt>
      <trkpt lat="38.512395" lon="-1.2547933333333332">
        <ele>1285.6000000000026</ele>
        <time>2013-11-09T13:38:50.27</time>
      </trkpt>
      <trkpt lat="38.512425" lon="-1.254805">
        <ele>1285.4000000000026</ele>
        <time>2013-11-09T13:38:51.26</time>
      </trkpt>
      <trkpt lat="38.512458333333335" lon="-1.2548083333333333">
        <ele>1285.2000000000025</ele>
        <time>2013-11-09T13:38:52.27</time>
      </trkpt>
      <trkpt lat="38.51249166666667" lon="-1.2548">
        <ele>1285.0000000000025</ele>
        <time>2013-11-09T13:38:53.26</time>
      </trkpt>
      <trkpt lat="38.512521666666665" lon="-1.2548">
        <ele>1284.8000000000025</ele>
        <time>2013-11-09T13:38:54.27</time>
      </trkpt>
      <trkpt lat="38.51255166666667" lon="-1.2547983333333335">
        <ele>1282.2000000000025</ele>
        <time>2013-11-09T13:38:55.27</time>
      </trkpt>
      <trkpt lat="38.512591666666665" lon="-1.2548016666666666">
        <ele>1279.9000000000026</ele>
        <time>2013-11-09T13:38:56.26</time>
      </trkpt>
      <trkpt lat="38.51262333333333" lon="-1.2548016666666666">
        <ele>1277.7000000000025</ele>
        <time>2013-11-09T13:38:57.27</time>
      </trkpt>
      <trkpt lat="38.512658333333334" lon="-1.2547933333333332">
        <ele>1275.8000000000025</ele>
        <time>2013-11-09T13:38:58.26</time>
      </trkpt>
      <trkpt lat="38.512701666666665" lon="-1.2547766666666667">
        <ele>1274.4000000000024</ele>
        <time>2013-11-09T13:38:59.26</time>
      </trkpt>
      <trkpt lat="38.512753333333336" lon="-1.2547566666666667">
        <ele>1273.1000000000024</ele>
        <time>2013-11-09T13:39:00.26</time>
      </trkpt>
      <trkpt lat="38.512805" lon="-1.2547416666666666">
        <ele>1271.8000000000025</ele>
        <time>2013-11-09T13:39:01.26</time>
      </trkpt>
      <trkpt lat="38.51285166666667" lon="-1.2547333333333333">
        <ele>1270.6000000000024</ele>
        <time>2013-11-09T13:39:02.26</time>
      </trkpt>
      <trkpt lat="38.51289" lon="-1.2547233333333334">
        <ele>1270.5000000000025</ele>
        <time>2013-11-09T13:39:03.26</time>
      </trkpt>
      <trkpt lat="38.512933333333336" lon="-1.254705">
        <ele>1268.8000000000025</ele>
        <time>2013-11-09T13:39:04.26</time>
      </trkpt>
      <trkpt lat="38.51296833333333" lon="-1.2546833333333334">
        <ele>1267.3000000000025</ele>
        <time>2013-11-09T13:39:05.26</time>
      </trkpt>
      <trkpt lat="38.51301" lon="-1.2546633333333332">
        <ele>1265.8000000000025</ele>
        <time>2013-11-09T13:39:06.25</time>
      </trkpt>
      <trkpt lat="38.51305833333333" lon="-1.2546433333333333">
        <ele>1264.4000000000024</ele>
        <time>2013-11-09T13:39:07.26</time>
      </trkpt>
      <trkpt lat="38.5131" lon="-1.2546249999999999">
        <ele>1263.0000000000023</ele>
        <time>2013-11-09T13:39:08.25</time>
      </trkpt>
      <trkpt lat="38.513131666666666" lon="-1.254615">
        <ele>1262.8000000000022</ele>
        <time>2013-11-09T13:39:09.26</time>
      </trkpt>
      <trkpt lat="38.513146666666664" lon="-1.254615">
        <ele>1262.7000000000023</ele>
        <time>2013-11-09T13:39:10.26</time>
      </trkpt>
      <trkpt lat="38.51316333333333" lon="-1.25462">
        <ele>1262.5000000000023</ele>
        <time>2013-11-09T13:39:11.25</time>
      </trkpt>
      <trkpt lat="38.513173333333334" lon="-1.2546316666666666">
        <ele>1262.4000000000024</ele>
        <time>2013-11-09T13:39:12.26</time>
      </trkpt>
      <trkpt lat="38.51318166666667" lon="-1.2546516666666667">
        <ele>1262.2000000000023</ele>
        <time>2013-11-09T13:39:13.25</time>
      </trkpt>
      <trkpt lat="38.513191666666664" lon="-1.254675">
        <ele>1262.0000000000023</ele>
        <time>2013-11-09T13:39:14.26</time>
      </trkpt>
      <trkpt lat="38.51320166666667" lon="-1.2547083333333333">
        <ele>1259.2000000000023</ele>
        <time>2013-11-09T13:39:15.30</time>
      </trkpt>
      <trkpt lat="38.51321" lon="-1.2547483333333334">
        <ele>1256.6000000000024</ele>
        <time>2013-11-09T13:39:16.25</time>
      </trkpt>
      <trkpt lat="38.513176666666666" lon="-1.254825">
        <ele>1254.1000000000024</ele>
        <time>2013-11-09T13:39:17.25</time>
      </trkpt>
      <trkpt lat="38.51313833333333" lon="-1.2549016666666666">
        <ele>1251.7000000000023</ele>
        <time>2013-11-09T13:39:18.25</time>
      </trkpt>
      <trkpt lat="38.51309833333333" lon="-1.254975">
        <ele>1249.8000000000022</ele>
        <time>2013-11-09T13:39:19.26</time>
      </trkpt>
      <trkpt lat="38.51305333333333" lon="-1.2550416666666666">
        <ele>1248.3000000000022</ele>
        <time>2013-11-09T13:39:20.26</time>
      </trkpt>
      <trkpt lat="38.51301" lon="-1.25511">
        <ele>1246.8000000000022</ele>
        <time>2013-11-09T13:39:21.26</time>
      </trkpt>
      <trkpt lat="38.51296166666667" lon="-1.2551866666666667">
        <ele>1245.0000000000023</ele>
        <time>2013-11-09T13:39:22.25</time>
      </trkpt>
      <trkpt lat="38.512908333333336" lon="-1.2552716666666668">
        <ele>1243.2000000000023</ele>
        <time>2013-11-09T13:39:23.25</time>
      </trkpt>
      <trkpt lat="38.51285166666667" lon="-1.255355">
        <ele>1241.6000000000024</ele>
        <time>2013-11-09T13:39:24.25</time>
      </trkpt>
      <trkpt lat="38.512795" lon="-1.2554366666666668">
        <ele>1240.3000000000025</ele>
        <time>2013-11-09T13:39:25.26</time>
      </trkpt>
      <trkpt lat="38.51275" lon="-1.2555016666666667">
        <ele>1239.2000000000025</ele>
        <time>2013-11-09T13:39:26.26</time>
      </trkpt>
      <trkpt lat="38.512721666666664" lon="-1.25555">
        <ele>1238.1000000000026</ele>
        <time>2013-11-09T13:39:27.25</time>
      </trkpt>
      <trkpt lat="38.51269833333333" lon="-1.255595">
        <ele>1237.2000000000025</ele>
        <time>2013-11-09T13:39:28.25</time>
      </trkpt>
      <trkpt lat="38.51267" lon="-1.2556416666666665">
        <ele>1236.6000000000026</ele>
        <time>2013-11-09T13:39:29.24</time>
      </trkpt>
      <trkpt lat="38.512635" lon="-1.2556916666666667">
        <ele>1236.2000000000025</ele>
        <time>2013-11-09T13:39:30.26</time>
      </trkpt>
      <trkpt lat="38.5126" lon="-1.2557366666666667">
        <ele>1236.0000000000025</ele>
        <time>2013-11-09T13:39:31.26</time>
      </trkpt>
      <trkpt lat="38.512573333333336" lon="-1.2557683333333334">
        <ele>1236.0000000000025</ele>
        <time>2013-11-09T13:39:32.25</time>
      </trkpt>
      <trkpt lat="38.51256166666667" lon="-1.25579">
        <ele>1236.0000000000025</ele>
        <time>2013-11-09T13:39:33.34</time>
      </trkpt>
      <trkpt lat="38.512565" lon="-1.2557966666666667">
        <ele>1236.0000000000025</ele>
        <time>2013-11-09T13:39:34.25</time>
      </trkpt>
      <trkpt lat="38.51258166666667" lon="-1.2558033333333334">
        <ele>1236.1000000000024</ele>
        <time>2013-11-09T13:39:35.26</time>
      </trkpt>
      <trkpt lat="38.512611666666665" lon="-1.2557983333333333">
        <ele>1236.1000000000024</ele>
        <time>2013-11-09T13:39:36.26</time>
      </trkpt>
      <trkpt lat="38.51265" lon="-1.2557616666666667">
        <ele>1236.8000000000025</ele>
        <time>2013-11-09T13:39:37.26</time>
      </trkpt>
      <trkpt lat="38.512703333333334" lon="-1.25568">
        <ele>1237.7000000000025</ele>
        <time>2013-11-09T13:39:38.25</time>
      </trkpt>
      <trkpt lat="38.512748333333334" lon="-1.2556033333333334">
        <ele>1239.1000000000026</ele>
        <time>2013-11-09T13:39:39.26</time>
      </trkpt>
      <trkpt lat="38.51279" lon="-1.2555266666666667">
        <ele>1240.6000000000026</ele>
        <time>2013-11-09T13:39:40.29</time>
      </trkpt>
      <trkpt lat="38.51283333333333" lon="-1.255445">
        <ele>1242.5000000000027</ele>
        <time>2013-11-09T13:39:41.32</time>
      </trkpt>
      <trkpt lat="38.51287333333333" lon="-1.2553716666666666">
        <ele>1244.7000000000028</ele>
        <time>2013-11-09T13:39:42.25</time>
      </trkpt>
      <trkpt lat="38.512903333333334" lon="-1.255315">
        <ele>1246.8000000000027</ele>
        <time>2013-11-09T13:39:43.26</time>
      </trkpt>
      <trkpt lat="38.512926666666665" lon="-1.2552783333333333">
        <ele>1247.0000000000027</ele>
        <time>2013-11-09T13:39:44.26</time>
      </trkpt>
      <trkpt lat="38.51295666666667" lon="-1.2552633333333334">
        <ele>1247.2000000000028</ele>
        <time>2013-11-09T13:39:45.26</time>
      </trkpt>
      <trkpt lat="38.512985" lon="-1.2552716666666668">
        <ele>1247.5000000000027</ele>
        <time>2013-11-09T13:39:46.26</time>
      </trkpt>
      <trkpt lat="38.512996666666666" lon="-1.2553216666666667">
        <ele>1247.7000000000028</ele>
        <time>2013-11-09T13:39:47.25</time>
      </trkpt>
      <trkpt lat="38.512975" lon="-1.255395">
        <ele>1250.5000000000027</ele>
        <time>2013-11-09T13:39:48.26</time>
      </trkpt>
      <trkpt lat="38.512933333333336" lon="-1.25547">
        <ele>1253.4000000000028</ele>
        <time>2013-11-09T13:39:49.26</time>
      </trkpt>
      <trkpt lat="38.51289" lon="-1.2555516666666666">
        <ele>1255.800000000003</ele>
        <time>2013-11-09T13:39:50.24</time>
      </trkpt>
      <trkpt lat="38.51285166666667" lon="-1.25563">
        <ele>1258.000000000003</ele>
        <time>2013-11-09T13:39:51.25</time>
      </trkpt>
      <trkpt lat="38.512825" lon="-1.2556733333333334">
        <ele>1260.400000000003</ele>
        <time>2013-11-09T13:39:52.26</time>
      </trkpt>
      <trkpt lat="38.512815" lon="-1.2556983333333334">
        <ele>1260.700000000003</ele>
        <time>2013-11-09T13:39:53.31</time>
      </trkpt>
      <trkpt lat="38.512798333333336" lon="-1.2557616666666667">
        <ele>1263.900000000003</ele>
        <time>2013-11-09T13:39:54.36</time>
      </trkpt>
      <trkpt lat="38.512766666666664" lon="-1.2558483333333332">
        <ele>1266.700000000003</ele>
        <time>2013-11-09T13:39:55.26</time>
      </trkpt>
      <trkpt lat="38.51269666666666" lon="-1.255925">
        <ele>1268.600000000003</ele>
        <time>2013-11-09T13:39:56.23</time>
      </trkpt>
      <trkpt lat="38.51258833333333" lon="-1.25598">
        <ele>1270.0000000000032</ele>
        <time>2013-11-09T13:39:57.22</time>
      </trkpt>
      <trkpt lat="38.51246666666667" lon="-1.2560266666666666">
        <ele>1271.0000000000032</ele>
        <time>2013-11-09T13:39:58.22</time>
      </trkpt>
      <trkpt lat="38.512335" lon="-1.2559966666666667">
        <ele>1272.4000000000033</ele>
        <time>2013-11-09T13:39:59.24</time>
      </trkpt>
      <trkpt lat="38.512208333333334" lon="-1.2559066666666667">
        <ele>1273.7000000000032</ele>
        <time>2013-11-09T13:40:00.31</time>
      </trkpt>
      <trkpt lat="38.51206333333333" lon="-1.2557933333333333">
        <ele>1274.3000000000031</ele>
        <time>2013-11-09T13:40:01.24</time>
      </trkpt>
      <trkpt lat="38.511945" lon="-1.2556733333333334">
        <ele>1275.400000000003</ele>
        <time>2013-11-09T13:40:02.25</time>
      </trkpt>
      <trkpt lat="38.511845" lon="-1.2554816666666666">
        <ele>1276.700000000003</ele>
        <time>2013-11-09T13:40:03.25</time>
      </trkpt>
      <trkpt lat="38.511755" lon="-1.2552833333333333">
        <ele>1277.800000000003</ele>
        <time>2013-11-09T13:40:04.26</time>
      </trkpt>
      <trkpt lat="38.51168333333333" lon="-1.2550833333333333">
        <ele>1279.500000000003</ele>
        <time>2013-11-09T13:40:05.33</time>
      </trkpt>
      <trkpt lat="38.511653333333335" lon="-1.25489">
        <ele>1281.1000000000029</ele>
        <time>2013-11-09T13:40:06.26</time>
      </trkpt>
      <trkpt lat="38.51164333333333" lon="-1.2547216666666667">
        <ele>1284.000000000003</ele>
        <time>2013-11-09T13:40:07.26</time>
      </trkpt>
      <trkpt lat="38.511678333333336" lon="-1.25458">
        <ele>1287.400000000003</ele>
        <time>2013-11-09T13:40:08.30</time>
      </trkpt>
      <trkpt lat="38.51171" lon="-1.254485">
        <ele>1290.700000000003</ele>
        <time>2013-11-09T13:40:09.28</time>
      </trkpt>
      <trkpt lat="38.51175833333333" lon="-1.2543833333333334">
        <ele>1294.500000000003</ele>
        <time>2013-11-09T13:40:10.25</time>
      </trkpt>
      <trkpt lat="38.511806666666665" lon="-1.2542683333333333">
        <ele>1298.1000000000029</ele>
        <time>2013-11-09T13:40:11.25</time>
      </trkpt>
      <trkpt lat="38.511873333333334" lon="-1.254205">
        <ele>1301.7000000000028</ele>
        <time>2013-11-09T13:40:12.29</time>
      </trkpt>
      <trkpt lat="38.51193833333333" lon="-1.254155">
        <ele>1304.9000000000028</ele>
        <time>2013-11-09T13:40:13.25</time>
      </trkpt>
      <trkpt lat="38.511993333333336" lon="-1.2541116666666667">
        <ele>1308.0000000000027</ele>
        <time>2013-11-09T13:40:14.23</time>
      </trkpt>
      <trkpt lat="38.51203833333334" lon="-1.254095">
        <ele>1310.8000000000027</ele>
        <time>2013-11-09T13:40:15.25</time>
      </trkpt>
      <trkpt lat="38.512076666666665" lon="-1.2540816666666665">
        <ele>1313.6000000000026</ele>
        <time>2013-11-09T13:40:16.25</time>
      </trkpt>
      <trkpt lat="38.51210833333333" lon="-1.2540733333333334">
        <ele>1316.1000000000026</ele>
        <time>2013-11-09T13:40:17.25</time>
      </trkpt>
      <trkpt lat="38.51213166666667" lon="-1.2540816666666665">
        <ele>1316.4000000000026</ele>
        <time>2013-11-09T13:40:18.25</time>
      </trkpt>
      <trkpt lat="38.51215333333333" lon="-1.2540833333333334">
        <ele>1316.7000000000025</ele>
        <time>2013-11-09T13:40:19.25</time>
      </trkpt>
      <trkpt lat="38.51217333333334" lon="-1.254085">
        <ele>1317.0000000000025</ele>
        <time>2013-11-09T13:40:20.25</time>
      </trkpt>
      <trkpt lat="38.512195" lon="-1.2541283333333333">
        <ele>1317.4000000000026</ele>
        <time>2013-11-09T13:40:21.30</time>
      </trkpt>
      <trkpt lat="38.51220333333333" lon="-1.25419">
        <ele>1317.7000000000025</ele>
        <time>2013-11-09T13:40:22.26</time>
      </trkpt>
      <trkpt lat="38.512191666666666" lon="-1.2542566666666666">
        <ele>1321.7000000000025</ele>
        <time>2013-11-09T13:40:23.26</time>
      </trkpt>
      <trkpt lat="38.512175" lon="-1.25431">
        <ele>1322.1000000000026</ele>
        <time>2013-11-09T13:40:24.25</time>
      </trkpt>
      <trkpt lat="38.512161666666664" lon="-1.2543583333333332">
        <ele>1322.4000000000026</ele>
        <time>2013-11-09T13:40:25.26</time>
      </trkpt>
      <trkpt lat="38.512143333333334" lon="-1.2544033333333333">
        <ele>1322.8000000000027</ele>
        <time>2013-11-09T13:40:26.25</time>
      </trkpt>
      <trkpt lat="38.51212833333334" lon="-1.254445">
        <ele>1323.1000000000026</ele>
        <time>2013-11-09T13:40:27.25</time>
      </trkpt>
      <trkpt lat="38.51210666666667" lon="-1.2544966666666666">
        <ele>1326.4000000000026</ele>
        <time>2013-11-09T13:40:28.29</time>
      </trkpt>
      <trkpt lat="38.512051666666665" lon="-1.2545733333333333">
        <ele>1328.7000000000025</ele>
        <time>2013-11-09T13:40:29.25</time>
      </trkpt>
      <trkpt lat="38.51198333333333" lon="-1.2546616666666668">
        <ele>1330.7000000000025</ele>
        <time>2013-11-09T13:40:30.26</time>
      </trkpt>
      <trkpt lat="38.511885" lon="-1.2547383333333333">
        <ele>1331.8000000000025</ele>
        <time>2013-11-09T13:40:31.24</time>
      </trkpt>
      <trkpt lat="38.51179" lon="-1.2548083333333333">
        <ele>1332.5000000000025</ele>
        <time>2013-11-09T13:40:32.23</time>
      </trkpt>
      <trkpt lat="38.51170166666667" lon="-1.2548650000000001">
        <ele>1333.2000000000025</ele>
        <time>2013-11-09T13:40:33.21</time>
      </trkpt>
      <trkpt lat="38.511606666666665" lon="-1.25492">
        <ele>1333.5000000000025</ele>
        <time>2013-11-09T13:40:34.25</time>
      </trkpt>
      <trkpt lat="38.51150166666667" lon="-1.2549716666666666">
        <ele>1333.6000000000024</ele>
        <time>2013-11-09T13:40:35.39</time>
      </trkpt>
      <trkpt lat="38.511388333333336" lon="-1.2549933333333334">
        <ele>1333.8000000000025</ele>
        <time>2013-11-09T13:40:36.25</time>
      </trkpt>
      <trkpt lat="38.511273333333335" lon="-1.2550116666666666">
        <ele>1333.6000000000024</ele>
        <time>2013-11-09T13:40:37.25</time>
      </trkpt>
      <trkpt lat="38.511158333333334" lon="-1.255025">
        <ele>1333.4000000000024</ele>
        <time>2013-11-09T13:40:38.25</time>
      </trkpt>
      <trkpt lat="38.51104333333333" lon="-1.2550316666666665">
        <ele>1333.1000000000024</ele>
        <time>2013-11-09T13:40:39.25</time>
      </trkpt>
      <trkpt lat="38.51092333333333" lon="-1.255035">
        <ele>1332.9000000000024</ele>
        <time>2013-11-09T13:40:40.25</time>
      </trkpt>
      <trkpt lat="38.51080833333333" lon="-1.2550316666666665">
        <ele>1332.6000000000024</ele>
        <time>2013-11-09T13:40:41.83</time>
      </trkpt>
      <trkpt lat="38.51069" lon="-1.2550283333333334">
        <ele>1332.4000000000024</ele>
        <time>2013-11-09T13:40:42.25</time>
      </trkpt>
      <trkpt lat="38.51057" lon="-1.2550183333333333">
        <ele>1332.2000000000023</ele>
        <time>2013-11-09T13:40:43.22</time>
      </trkpt>
      <trkpt lat="38.51045166666667" lon="-1.2550266666666667">
        <ele>1332.0000000000023</ele>
        <time>2013-11-09T13:40:44.29</time>
      </trkpt>
      <trkpt lat="38.51033833333334" lon="-1.2550416666666666">
        <ele>1331.7000000000023</ele>
        <time>2013-11-09T13:40:45.19</time>
      </trkpt>
      <trkpt lat="38.510223333333336" lon="-1.2550583333333334">
        <ele>1331.3000000000022</ele>
        <time>2013-11-09T13:40:46.20</time>
      </trkpt>
      <trkpt lat="38.51012333333333" lon="-1.2550666666666666">
        <ele>1332.1000000000022</ele>
        <time>2013-11-09T13:40:47.19</time>
      </trkpt>
      <trkpt lat="38.510016666666665" lon="-1.2550866666666667">
        <ele>1332.8000000000022</ele>
        <time>2013-11-09T13:40:48.19</time>
      </trkpt>
      <trkpt lat="38.50991666666667" lon="-1.25512">
        <ele>1333.5000000000023</ele>
        <time>2013-11-09T13:40:49.19</time>
      </trkpt>
      <trkpt lat="38.50982666666667" lon="-1.2551533333333333">
        <ele>1334.5000000000023</ele>
        <time>2013-11-09T13:40:50.18</time>
      </trkpt>
      <trkpt lat="38.509746666666665" lon="-1.25519">
        <ele>1335.3000000000022</ele>
        <time>2013-11-09T13:40:51.18</time>
      </trkpt>
      <trkpt lat="38.509681666666665" lon="-1.2552266666666667">
        <ele>1336.1000000000022</ele>
        <time>2013-11-09T13:40:52.20</time>
      </trkpt>
      <trkpt lat="38.50962166666667" lon="-1.2552683333333334">
        <ele>1337.200000000002</ele>
        <time>2013-11-09T13:40:53.22</time>
      </trkpt>
      <trkpt lat="38.50956166666667" lon="-1.255315">
        <ele>1338.300000000002</ele>
        <time>2013-11-09T13:40:54.23</time>
      </trkpt>
      <trkpt lat="38.509501666666665" lon="-1.255365">
        <ele>1339.300000000002</ele>
        <time>2013-11-09T13:40:55.22</time>
      </trkpt>
      <trkpt lat="38.50944" lon="-1.2554183333333333">
        <ele>1340.400000000002</ele>
        <time>2013-11-09T13:40:56.22</time>
      </trkpt>
      <trkpt lat="38.509373333333336" lon="-1.2554750000000001">
        <ele>1341.400000000002</ele>
        <time>2013-11-09T13:40:57.21</time>
      </trkpt>
      <trkpt lat="38.509305" lon="-1.2555366666666667">
        <ele>1342.300000000002</ele>
        <time>2013-11-09T13:40:58.22</time>
      </trkpt>
      <trkpt lat="38.509236666666666" lon="-1.255595">
        <ele>1342.900000000002</ele>
        <time>2013-11-09T13:40:59.21</time>
      </trkpt>
      <trkpt lat="38.50917333333334" lon="-1.2556483333333333">
        <ele>1343.400000000002</ele>
        <time>2013-11-09T13:41:00.24</time>
      </trkpt>
      <trkpt lat="38.509121666666665" lon="-1.2556933333333333">
        <ele>1343.7000000000019</ele>
        <time>2013-11-09T13:41:01.23</time>
      </trkpt>
      <trkpt lat="38.50908166666667" lon="-1.25575">
        <ele>1343.5000000000018</ele>
        <time>2013-11-09T13:41:02.22</time>
      </trkpt>
      <trkpt lat="38.50906166666667" lon="-1.2558116666666668">
        <ele>1343.2000000000019</ele>
        <time>2013-11-09T13:41:03.22</time>
      </trkpt>
      <trkpt lat="38.509051666666664" lon="-1.255865">
        <ele>1342.7000000000019</ele>
        <time>2013-11-09T13:41:04.21</time>
      </trkpt>
      <trkpt lat="38.509055" lon="-1.2559066666666667">
        <ele>1342.7000000000019</ele>
        <time>2013-11-09T13:41:05.22</time>
      </trkpt>
      <trkpt lat="38.509058333333336" lon="-1.2559366666666667">
        <ele>1342.7000000000019</ele>
        <time>2013-11-09T13:41:06.22</time>
      </trkpt>
      <trkpt lat="38.50906166666667" lon="-1.2559533333333333">
        <ele>1342.600000000002</ele>
        <time>2013-11-09T13:41:07.19</time>
      </trkpt>
      <trkpt lat="38.50906666666667" lon="-1.25597">
        <ele>1342.600000000002</ele>
        <time>2013-11-09T13:41:08.18</time>
      </trkpt>
      <trkpt lat="38.509078333333335" lon="-1.25599">
        <ele>1342.600000000002</ele>
        <time>2013-11-09T13:41:09.17</time>
      </trkpt>
      <trkpt lat="38.509095" lon="-1.2560133333333332">
        <ele>1342.500000000002</ele>
        <time>2013-11-09T13:41:10.21</time>
      </trkpt>
      <trkpt lat="38.509121666666665" lon="-1.2560316666666667">
        <ele>1342.500000000002</ele>
        <time>2013-11-09T13:41:11.20</time>
      </trkpt>
      <trkpt lat="38.509155" lon="-1.2560283333333333">
        <ele>1342.4000000000021</ele>
        <time>2013-11-09T13:41:12.26</time>
      </trkpt>
      <trkpt lat="38.50919" lon="-1.256">
        <ele>1342.4000000000021</ele>
        <time>2013-11-09T13:41:13.22</time>
      </trkpt>
      <trkpt lat="38.50922833333333" lon="-1.2559683333333334">
        <ele>1342.3000000000022</ele>
        <time>2013-11-09T13:41:14.24</time>
      </trkpt>
      <trkpt lat="38.50926" lon="-1.2559416666666667">
        <ele>1342.2000000000023</ele>
        <time>2013-11-09T13:41:15.24</time>
      </trkpt>
      <trkpt lat="38.5093" lon="-1.255915">
        <ele>1342.1000000000024</ele>
        <time>2013-11-09T13:41:16.33</time>
      </trkpt>
      <trkpt lat="38.50933833333333" lon="-1.2558933333333333">
        <ele>1342.0000000000025</ele>
        <time>2013-11-09T13:41:17.21</time>
      </trkpt>
      <trkpt lat="38.50937833333333" lon="-1.2558449999999999">
        <ele>1340.8000000000025</ele>
        <time>2013-11-09T13:41:18.17</time>
      </trkpt>
      <trkpt lat="38.509415" lon="-1.2557666666666667">
        <ele>1339.8000000000025</ele>
        <time>2013-11-09T13:41:19.25</time>
      </trkpt>
      <trkpt lat="38.50944833333333" lon="-1.2556816666666666">
        <ele>1339.1000000000024</ele>
        <time>2013-11-09T13:41:20.24</time>
      </trkpt>
      <trkpt lat="38.509476666666664" lon="-1.2556033333333334">
        <ele>1338.3000000000025</ele>
        <time>2013-11-09T13:41:21.25</time>
      </trkpt>
      <trkpt lat="38.509503333333335" lon="-1.255525">
        <ele>1337.2000000000025</ele>
        <time>2013-11-09T13:41:22.20</time>
      </trkpt>
      <trkpt lat="38.50953166666667" lon="-1.255445">
        <ele>1336.0000000000025</ele>
        <time>2013-11-09T13:41:23.18</time>
      </trkpt>
      <trkpt lat="38.509565" lon="-1.2553616666666667">
        <ele>1334.6000000000024</ele>
        <time>2013-11-09T13:41:24.25</time>
      </trkpt>
      <trkpt lat="38.50961" lon="-1.2553016666666665">
        <ele>1333.1000000000024</ele>
        <time>2013-11-09T13:41:25.25</time>
      </trkpt>
      <trkpt lat="38.509655" lon="-1.2552699999999999">
        <ele>1331.8000000000025</ele>
        <time>2013-11-09T13:41:26.24</time>
      </trkpt>
      <trkpt lat="38.509695" lon="-1.25526">
        <ele>1331.6000000000024</ele>
        <time>2013-11-09T13:41:27.25</time>
      </trkpt>
      <trkpt lat="38.50973333333334" lon="-1.2552533333333333">
        <ele>1331.5000000000025</ele>
        <time>2013-11-09T13:41:28.24</time>
      </trkpt>
      <trkpt lat="38.509766666666664" lon="-1.2552483333333333">
        <ele>1331.4000000000026</ele>
        <time>2013-11-09T13:41:29.42</time>
      </trkpt>
      <trkpt lat="38.509793333333334" lon="-1.255245">
        <ele>1331.2000000000025</ele>
        <time>2013-11-09T13:41:30.24</time>
      </trkpt>
      <trkpt lat="38.509818333333335" lon="-1.255255">
        <ele>1331.1000000000026</ele>
        <time>2013-11-09T13:41:31.24</time>
      </trkpt>
      <trkpt lat="38.50983333333333" lon="-1.2552816666666666">
        <ele>1330.9000000000026</ele>
        <time>2013-11-09T13:41:32.25</time>
      </trkpt>
      <trkpt lat="38.509843333333336" lon="-1.2553166666666666">
        <ele>1330.7000000000025</ele>
        <time>2013-11-09T13:41:33.25</time>
      </trkpt>
      <trkpt lat="38.50984833333333" lon="-1.2553466666666666">
        <ele>1330.5000000000025</ele>
        <time>2013-11-09T13:41:34.25</time>
      </trkpt>
      <trkpt lat="38.50985333333333" lon="-1.2553733333333335">
        <ele>1330.3000000000025</ele>
        <time>2013-11-09T13:41:35.25</time>
      </trkpt>
      <trkpt lat="38.50984833333333" lon="-1.2554133333333333">
        <ele>1329.7</ele>
        <time>2013-11-09T13:41:38.25</time>
      </trkpt>
      <trkpt lat="38.509845" lon="-1.2554516666666666">
        <ele>1329.5</ele>
        <time>2013-11-09T13:41:39.21</time>
      </trkpt>
      <trkpt lat="38.509838333333335" lon="-1.2554883333333333">
        <ele>1329.3</ele>
        <time>2013-11-09T13:41:40.29</time>
      </trkpt>
      <trkpt lat="38.50983166666666" lon="-1.2555216666666666">
        <ele>1329</ele>
        <time>2013-11-09T13:41:41.21</time>
      </trkpt>
      <trkpt lat="38.50982833333333" lon="-1.25555">
        <ele>1328.7</ele>
        <time>2013-11-09T13:41:42.24</time>
      </trkpt>
      <trkpt lat="38.50982833333333" lon="-1.2555766666666668">
        <ele>1328.5</ele>
        <time>2013-11-09T13:41:43.24</time>
      </trkpt>
      <trkpt lat="38.50983166666666" lon="-1.2555916666666667">
        <ele>1328.2</ele>
        <time>2013-11-09T13:41:44.20</time>
      </trkpt>
      <trkpt lat="38.509838333333335" lon="-1.2556016666666667">
        <ele>1327.9</ele>
        <time>2013-11-09T13:41:45.25</time>
      </trkpt>
      <trkpt lat="38.50985" lon="-1.2556183333333333">
        <ele>1327.6000000000001</ele>
        <time>2013-11-09T13:41:46.25</time>
      </trkpt>
      <trkpt lat="38.509865" lon="-1.255635">
        <ele>1327.3000000000002</ele>
        <time>2013-11-09T13:41:47.25</time>
      </trkpt>
      <trkpt lat="38.50988" lon="-1.2556533333333333">
        <ele>1327.1000000000001</ele>
        <time>2013-11-09T13:41:48.25</time>
      </trkpt>
      <trkpt lat="38.50989666666667" lon="-1.25567">
        <ele>1326.8000000000002</ele>
        <time>2013-11-09T13:41:49.25</time>
      </trkpt>
      <trkpt lat="38.509908333333335" lon="-1.2556816666666666">
        <ele>1326.5000000000002</ele>
        <time>2013-11-09T13:41:50.20</time>
      </trkpt>
      <trkpt lat="38.50991166666667" lon="-1.255695">
        <ele>1326.3000000000002</ele>
        <time>2013-11-09T13:41:51.25</time>
      </trkpt>
      <trkpt lat="38.50991333333333" lon="-1.2557033333333334">
        <ele>1326.0000000000002</ele>
        <time>2013-11-09T13:41:52.25</time>
      </trkpt>
      <trkpt lat="38.509915" lon="-1.2557116666666666">
        <ele>1325.7000000000003</ele>
        <time>2013-11-09T13:41:53.25</time>
      </trkpt>
      <trkpt lat="38.50991833333333" lon="-1.25573">
        <ele>1325.4000000000003</ele>
        <time>2013-11-09T13:41:54.26</time>
      </trkpt>
      <trkpt lat="38.509915" lon="-1.2557766666666668">
        <ele>1325.1000000000004</ele>
        <time>2013-11-09T13:41:55.24</time>
      </trkpt>
      <trkpt lat="38.50991166666667" lon="-1.2558333333333334">
        <ele>1324.7000000000003</ele>
        <time>2013-11-09T13:41:56.25</time>
      </trkpt>
      <trkpt lat="38.50991166666667" lon="-1.2558799999999999">
        <ele>1324.4000000000003</ele>
        <time>2013-11-09T13:41:57.24</time>
      </trkpt>
      <trkpt lat="38.50991" lon="-1.2559216666666666">
        <ele>1324.1000000000004</ele>
        <time>2013-11-09T13:41:58.25</time>
      </trkpt>
      <trkpt lat="38.509908333333335" lon="-1.255955">
        <ele>1323.8000000000004</ele>
        <time>2013-11-09T13:41:59.26</time>
      </trkpt>
      <trkpt lat="38.5099" lon="-1.25599">
        <ele>1323.5000000000005</ele>
        <time>2013-11-09T13:42:00.21</time>
      </trkpt>
      <trkpt lat="38.50989333333333" lon="-1.256025">
        <ele>1323.2000000000005</ele>
        <time>2013-11-09T13:42:01.20</time>
      </trkpt>
      <trkpt lat="38.50989666666667" lon="-1.256055">
        <ele>1322.9000000000005</ele>
        <time>2013-11-09T13:42:02.24</time>
      </trkpt>
      <trkpt lat="38.509905" lon="-1.2560783333333334">
        <ele>1322.6000000000006</ele>
        <time>2013-11-09T13:42:03.20</time>
      </trkpt>
      <trkpt lat="38.50991666666667" lon="-1.256095">
        <ele>1322.3000000000006</ele>
        <time>2013-11-09T13:42:04.25</time>
      </trkpt>
      <trkpt lat="38.50993" lon="-1.2561133333333334">
        <ele>1322.1000000000006</ele>
        <time>2013-11-09T13:42:05.25</time>
      </trkpt>
      <trkpt lat="38.509945" lon="-1.2561316666666666">
        <ele>1321.8000000000006</ele>
        <time>2013-11-09T13:42:06.25</time>
      </trkpt>
      <trkpt lat="38.50995833333333" lon="-1.2561566666666666">
        <ele>1321.6000000000006</ele>
        <time>2013-11-09T13:42:07.25</time>
      </trkpt>
      <trkpt lat="38.509971666666665" lon="-1.2561883333333332">
        <ele>1321.3000000000006</ele>
        <time>2013-11-09T13:42:08.25</time>
      </trkpt>
      <trkpt lat="38.509973333333335" lon="-1.2562166666666665">
        <ele>1321.0000000000007</ele>
        <time>2013-11-09T13:42:09.43</time>
      </trkpt>
      <trkpt lat="38.50997" lon="-1.25625">
        <ele>1320.8000000000006</ele>
        <time>2013-11-09T13:42:10.19</time>
      </trkpt>
      <trkpt lat="38.50996333333333" lon="-1.2562866666666666">
        <ele>1320.6000000000006</ele>
        <time>2013-11-09T13:42:11.24</time>
      </trkpt>
      <trkpt lat="38.509955" lon="-1.2563266666666666">
        <ele>1320.3000000000006</ele>
        <time>2013-11-09T13:42:12.29</time>
      </trkpt>
      <trkpt lat="38.509946666666664" lon="-1.2563666666666666">
        <ele>1320.0000000000007</ele>
        <time>2013-11-09T13:42:13.25</time>
      </trkpt>
      <trkpt lat="38.509948333333334" lon="-1.2564">
        <ele>1319.7000000000007</ele>
        <time>2013-11-09T13:42:14.31</time>
      </trkpt>
      <trkpt lat="38.509953333333335" lon="-1.2564316666666666">
        <ele>1319.5000000000007</ele>
        <time>2013-11-09T13:42:15.24</time>
      </trkpt>
      <trkpt lat="38.50995666666667" lon="-1.2564683333333333">
        <ele>1319.2000000000007</ele>
        <time>2013-11-09T13:42:16.25</time>
      </trkpt>
      <trkpt lat="38.509945" lon="-1.2565016666666666">
        <ele>1319.0000000000007</ele>
        <time>2013-11-09T13:42:17.24</time>
      </trkpt>
      <trkpt lat="38.50993166666667" lon="-1.2565416666666667">
        <ele>1318.8000000000006</ele>
        <time>2013-11-09T13:42:18.26</time>
      </trkpt>
      <trkpt lat="38.509925" lon="-1.2565683333333333">
        <ele>1318.6000000000006</ele>
        <time>2013-11-09T13:42:19.25</time>
      </trkpt>
      <trkpt lat="38.50992333333333" lon="-1.2565933333333335">
        <ele>1318.3000000000006</ele>
        <time>2013-11-09T13:42:20.28</time>
      </trkpt>
      <trkpt lat="38.509925" lon="-1.256615">
        <ele>1318.0000000000007</ele>
        <time>2013-11-09T13:42:21.23</time>
      </trkpt>
      <trkpt lat="38.509926666666665" lon="-1.25663">
        <ele>1317.8000000000006</ele>
        <time>2013-11-09T13:42:22.19</time>
      </trkpt>
      <trkpt lat="38.509926666666665" lon="-1.2566566666666668">
        <ele>1317.5000000000007</ele>
        <time>2013-11-09T13:42:23.27</time>
      </trkpt>
      <trkpt lat="38.509915" lon="-1.2566983333333333">
        <ele>1314.5000000000007</ele>
        <time>2013-11-09T13:42:24.21</time>
      </trkpt>
      <trkpt lat="38.50989333333333" lon="-1.2567599999999999">
        <ele>1311.9000000000008</ele>
        <time>2013-11-09T13:42:25.25</time>
      </trkpt>
      <trkpt lat="38.50986666666667" lon="-1.2568216666666667">
        <ele>1309.9000000000008</ele>
        <time>2013-11-09T13:42:26.19</time>
      </trkpt>
      <trkpt lat="38.509835" lon="-1.2568866666666667">
        <ele>1308.2000000000007</ele>
        <time>2013-11-09T13:42:27.25</time>
      </trkpt>
      <trkpt lat="38.509805" lon="-1.2569366666666666">
        <ele>1307.3000000000006</ele>
        <time>2013-11-09T13:42:28.24</time>
      </trkpt>
      <trkpt lat="38.50977833333334" lon="-1.256975">
        <ele>1306.5000000000007</ele>
        <time>2013-11-09T13:42:29.25</time>
      </trkpt>
      <trkpt lat="38.509746666666665" lon="-1.2570216666666667">
        <ele>1305.5000000000007</ele>
        <time>2013-11-09T13:42:30.24</time>
      </trkpt>
      <trkpt lat="38.50971666666667" lon="-1.2570666666666668">
        <ele>1304.5000000000007</ele>
        <time>2013-11-09T13:42:31.25</time>
      </trkpt>
      <trkpt lat="38.509683333333335" lon="-1.2571166666666667">
        <ele>1303.7000000000007</ele>
        <time>2013-11-09T13:42:32.25</time>
      </trkpt>
      <trkpt lat="38.50964833333333" lon="-1.2571766666666666">
        <ele>1302.8000000000006</ele>
        <time>2013-11-09T13:42:33.25</time>
      </trkpt>
      <trkpt lat="38.50960666666667" lon="-1.25724">
        <ele>1301.9000000000005</ele>
        <time>2013-11-09T13:42:34.25</time>
      </trkpt>
      <trkpt lat="38.50956166666667" lon="-1.2573050000000001">
        <ele>1301.2000000000005</ele>
        <time>2013-11-09T13:42:35.24</time>
      </trkpt>
      <trkpt lat="38.50950666666667" lon="-1.2573699999999999">
        <ele>1300.3000000000004</ele>
        <time>2013-11-09T13:42:36.24</time>
      </trkpt>
      <trkpt lat="38.50945" lon="-1.2574316666666667">
        <ele>1299.1000000000004</ele>
        <time>2013-11-09T13:42:37.30</time>
      </trkpt>
      <trkpt lat="38.509393333333335" lon="-1.2574883333333333">
        <ele>1298.0000000000005</ele>
        <time>2013-11-09T13:42:38.24</time>
      </trkpt>
      <trkpt lat="38.50934" lon="-1.2575433333333335">
        <ele>1297.3000000000004</ele>
        <time>2013-11-09T13:42:39.20</time>
      </trkpt>
      <trkpt lat="38.509285" lon="-1.2576016666666667">
        <ele>1296.5000000000005</ele>
        <time>2013-11-09T13:42:40.25</time>
      </trkpt>
      <trkpt lat="38.50923" lon="-1.2576583333333333">
        <ele>1295.9000000000005</ele>
        <time>2013-11-09T13:42:41.23</time>
      </trkpt>
      <trkpt lat="38.50918" lon="-1.2577133333333332">
        <ele>1295.3000000000006</ele>
        <time>2013-11-09T13:42:42.32</time>
      </trkpt>
      <trkpt lat="38.50912833333334" lon="-1.2577666666666667">
        <ele>1294.9000000000005</ele>
        <time>2013-11-09T13:42:43.24</time>
      </trkpt>
      <trkpt lat="38.509075" lon="-1.2578216666666666">
        <ele>1294.4000000000005</ele>
        <time>2013-11-09T13:42:44.40</time>
      </trkpt>
      <trkpt lat="38.50902" lon="-1.25788">
        <ele>1293.8000000000006</ele>
        <time>2013-11-09T13:42:45.18</time>
      </trkpt>
      <trkpt lat="38.508966666666666" lon="-1.25794">
        <ele>1293.2000000000007</ele>
        <time>2013-11-09T13:42:46.18</time>
      </trkpt>
      <trkpt lat="38.508915" lon="-1.258">
        <ele>1292.4000000000008</ele>
        <time>2013-11-09T13:42:47.20</time>
      </trkpt>
      <trkpt lat="38.50887" lon="-1.2580583333333333">
        <ele>1291.5000000000007</ele>
        <time>2013-11-09T13:42:48.20</time>
      </trkpt>
      <trkpt lat="38.508828333333334" lon="-1.2581166666666665">
        <ele>1290.6000000000006</ele>
        <time>2013-11-09T13:42:49.19</time>
      </trkpt>
      <trkpt lat="38.508795" lon="-1.2581666666666667">
        <ele>1290.1000000000006</ele>
        <time>2013-11-09T13:42:50.20</time>
      </trkpt>
      <trkpt lat="38.50875666666666" lon="-1.2582233333333332">
        <ele>1289.1000000000006</ele>
        <time>2013-11-09T13:42:51.19</time>
      </trkpt>
      <trkpt lat="38.508721666666666" lon="-1.2582766666666667">
        <ele>1288.5000000000007</ele>
        <time>2013-11-09T13:42:52.20</time>
      </trkpt>
      <trkpt lat="38.50868333333333" lon="-1.25833">
        <ele>1287.9000000000008</ele>
        <time>2013-11-09T13:42:53.19</time>
      </trkpt>
      <trkpt lat="38.50864833333333" lon="-1.2583816666666667">
        <ele>1287.2000000000007</ele>
        <time>2013-11-09T13:42:54.20</time>
      </trkpt>
      <trkpt lat="38.508608333333335" lon="-1.2584416666666667">
        <ele>1286.0000000000007</ele>
        <time>2013-11-09T13:42:55.19</time>
      </trkpt>
      <trkpt lat="38.50856666666667" lon="-1.2585033333333333">
        <ele>1284.9000000000008</ele>
        <time>2013-11-09T13:42:56.20</time>
      </trkpt>
      <trkpt lat="38.508525" lon="-1.25857">
        <ele>1284.0000000000007</ele>
        <time>2013-11-09T13:42:57.20</time>
      </trkpt>
      <trkpt lat="38.508485" lon="-1.258635">
        <ele>1283.0000000000007</ele>
        <time>2013-11-09T13:42:58.24</time>
      </trkpt>
      <trkpt lat="38.50845" lon="-1.2586933333333334">
        <ele>1282.3000000000006</ele>
        <time>2013-11-09T13:42:59.26</time>
      </trkpt>
      <trkpt lat="38.50841166666667" lon="-1.2587533333333334">
        <ele>1281.5000000000007</ele>
        <time>2013-11-09T13:43:00.17</time>
      </trkpt>
      <trkpt lat="38.50837333333333" lon="-1.2588166666666667">
        <ele>1280.6000000000006</ele>
        <time>2013-11-09T13:43:01.18</time>
      </trkpt>
      <trkpt lat="38.50833166666666" lon="-1.25888">
        <ele>1279.7000000000005</ele>
        <time>2013-11-09T13:43:02.18</time>
      </trkpt>
      <trkpt lat="38.50828666666666" lon="-1.2589483333333333">
        <ele>1278.7000000000005</ele>
        <time>2013-11-09T13:43:03.19</time>
      </trkpt>
      <trkpt lat="38.50823666666667" lon="-1.2590183333333334">
        <ele>1277.7000000000005</ele>
        <time>2013-11-09T13:43:04.23</time>
      </trkpt>
      <trkpt lat="38.508183333333335" lon="-1.2590883333333334">
        <ele>1276.8000000000004</ele>
        <time>2013-11-09T13:43:05.18</time>
      </trkpt>
      <trkpt lat="38.50812666666667" lon="-1.25916">
        <ele>1275.7000000000005</ele>
        <time>2013-11-09T13:43:06.19</time>
      </trkpt>
      <trkpt lat="38.508073333333336" lon="-1.2592233333333334">
        <ele>1275.2000000000005</ele>
        <time>2013-11-09T13:43:07.32</time>
      </trkpt>
      <trkpt lat="38.50801833333333" lon="-1.259285">
        <ele>1274.6000000000006</ele>
        <time>2013-11-09T13:43:08.18</time>
      </trkpt>
      <trkpt lat="38.50796166666667" lon="-1.2593466666666666">
        <ele>1274.0000000000007</ele>
        <time>2013-11-09T13:43:09.19</time>
      </trkpt>
      <trkpt lat="38.50790333333333" lon="-1.25941">
        <ele>1273.4000000000008</ele>
        <time>2013-11-09T13:43:10.19</time>
      </trkpt>
      <trkpt lat="38.507848333333335" lon="-1.2594716666666668">
        <ele>1272.7000000000007</ele>
        <time>2013-11-09T13:43:11.20</time>
      </trkpt>
      <trkpt lat="38.50778666666667" lon="-1.2595383333333334">
        <ele>1271.6000000000008</ele>
        <time>2013-11-09T13:43:12.23</time>
      </trkpt>
      <trkpt lat="38.50772" lon="-1.2596133333333333">
        <ele>1270.4000000000008</ele>
        <time>2013-11-09T13:43:13.20</time>
      </trkpt>
      <trkpt lat="38.50765" lon="-1.2596933333333333">
        <ele>1269.2000000000007</ele>
        <time>2013-11-09T13:43:14.20</time>
      </trkpt>
      <trkpt lat="38.50758833333333" lon="-1.25976">
        <ele>1268.1000000000008</ele>
        <time>2013-11-09T13:43:15.20</time>
      </trkpt>
      <trkpt lat="38.50753" lon="-1.2598233333333333">
        <ele>1267.2000000000007</ele>
        <time>2013-11-09T13:43:16.19</time>
      </trkpt>
      <trkpt lat="38.507463333333334" lon="-1.2598933333333333">
        <ele>1266.1000000000008</ele>
        <time>2013-11-09T13:43:17.18</time>
      </trkpt>
      <trkpt lat="38.50739333333333" lon="-1.259965">
        <ele>1264.9000000000008</ele>
        <time>2013-11-09T13:43:18.21</time>
      </trkpt>
      <trkpt lat="38.507328333333334" lon="-1.2600283333333333">
        <ele>1264.0000000000007</ele>
        <time>2013-11-09T13:43:19.18</time>
      </trkpt>
      <trkpt lat="38.50725833333333" lon="-1.260095">
        <ele>1263.3000000000006</ele>
        <time>2013-11-09T13:43:20.19</time>
      </trkpt>
      <trkpt lat="38.507178333333336" lon="-1.2601633333333333">
        <ele>1262.7000000000007</ele>
        <time>2013-11-09T13:43:21.20</time>
      </trkpt>
      <trkpt lat="38.50709666666667" lon="-1.2602316666666666">
        <ele>1262.0000000000007</ele>
        <time>2013-11-09T13:43:22.20</time>
      </trkpt>
      <trkpt lat="38.50700666666667" lon="-1.2603">
        <ele>1261.2000000000007</ele>
        <time>2013-11-09T13:43:23.19</time>
      </trkpt>
      <trkpt lat="38.506928333333335" lon="-1.2603533333333332">
        <ele>1260.5000000000007</ele>
        <time>2013-11-09T13:43:24.19</time>
      </trkpt>
      <trkpt lat="38.506841666666666" lon="-1.260415">
        <ele>1259.6000000000006</ele>
        <time>2013-11-09T13:43:25.20</time>
      </trkpt>
      <trkpt lat="38.506753333333336" lon="-1.26048">
        <ele>1258.7000000000005</ele>
        <time>2013-11-09T13:43:26.19</time>
      </trkpt>
      <trkpt lat="38.50666833333333" lon="-1.2605433333333333">
        <ele>1257.8000000000004</ele>
        <time>2013-11-09T13:43:27.20</time>
      </trkpt>
      <trkpt lat="38.506595" lon="-1.2605983333333333">
        <ele>1257.3000000000004</ele>
        <time>2013-11-09T13:43:28.19</time>
      </trkpt>
      <trkpt lat="38.50651666666667" lon="-1.2606633333333332">
        <ele>1256.7000000000005</ele>
        <time>2013-11-09T13:43:29.19</time>
      </trkpt>
      <trkpt lat="38.50644833333333" lon="-1.2607233333333334">
        <ele>1256.1000000000006</ele>
        <time>2013-11-09T13:43:30.18</time>
      </trkpt>
      <trkpt lat="38.506386666666664" lon="-1.2607866666666667">
        <ele>1255.2000000000005</ele>
        <time>2013-11-09T13:43:31.21</time>
      </trkpt>
      <trkpt lat="38.506326666666666" lon="-1.2608533333333334">
        <ele>1254.2000000000005</ele>
        <time>2013-11-09T13:43:32.22</time>
      </trkpt>
      <trkpt lat="38.506278333333334" lon="-1.26091">
        <ele>1253.7000000000005</ele>
        <time>2013-11-09T13:43:33.21</time>
      </trkpt>
      <trkpt lat="38.50621666666667" lon="-1.2609766666666666">
        <ele>1253.1000000000006</ele>
        <time>2013-11-09T13:43:34.40</time>
      </trkpt>
      <trkpt lat="38.506146666666666" lon="-1.2610466666666666">
        <ele>1252.5000000000007</ele>
        <time>2013-11-09T13:43:35.20</time>
      </trkpt>
      <trkpt lat="38.50606833333333" lon="-1.2611166666666667">
        <ele>1251.9000000000008</ele>
        <time>2013-11-09T13:43:36.18</time>
      </trkpt>
      <trkpt lat="38.50598166666666" lon="-1.261185">
        <ele>1251.5000000000007</ele>
        <time>2013-11-09T13:43:37.19</time>
      </trkpt>
      <trkpt lat="38.5059" lon="-1.2612466666666666">
        <ele>1250.9000000000008</ele>
        <time>2013-11-09T13:43:38.19</time>
      </trkpt>
      <trkpt lat="38.505825" lon="-1.2613033333333332">
        <ele>1250.0000000000007</ele>
        <time>2013-11-09T13:43:39.22</time>
      </trkpt>
      <trkpt lat="38.50575166666667" lon="-1.26136">
        <ele>1248.8000000000006</ele>
        <time>2013-11-09T13:43:40.21</time>
      </trkpt>
      <trkpt lat="38.505685" lon="-1.2614166666666666">
        <ele>1247.6000000000006</ele>
        <time>2013-11-09T13:43:41.18</time>
      </trkpt>
      <trkpt lat="38.505633333333336" lon="-1.2614583333333333">
        <ele>1246.2000000000005</ele>
        <time>2013-11-09T13:43:42.19</time>
      </trkpt>
      <trkpt lat="38.50559" lon="-1.2614966666666667">
        <ele>1244.6000000000006</ele>
        <time>2013-11-09T13:43:43.19</time>
      </trkpt>
      <trkpt lat="38.505545" lon="-1.2615416666666666">
        <ele>1243.0000000000007</ele>
        <time>2013-11-09T13:43:44.19</time>
      </trkpt>
      <trkpt lat="38.50551166666666" lon="-1.2615816666666666">
        <ele>1241.5000000000007</ele>
        <time>2013-11-09T13:43:45.19</time>
      </trkpt>
      <trkpt lat="38.505478333333336" lon="-1.2616283333333334">
        <ele>1239.8000000000006</ele>
        <time>2013-11-09T13:43:46.18</time>
      </trkpt>
      <trkpt lat="38.505433333333336" lon="-1.26169">
        <ele>1238.3000000000006</ele>
        <time>2013-11-09T13:43:47.20</time>
      </trkpt>
      <trkpt lat="38.505388333333336" lon="-1.2617566666666666">
        <ele>1236.7000000000007</ele>
        <time>2013-11-09T13:43:48.18</time>
      </trkpt>
      <trkpt lat="38.505335" lon="-1.26183">
        <ele>1234.8000000000006</ele>
        <time>2013-11-09T13:43:49.21</time>
      </trkpt>
      <trkpt lat="38.50529" lon="-1.2619">
        <ele>1232.8000000000006</ele>
        <time>2013-11-09T13:43:50.18</time>
      </trkpt>
      <trkpt lat="38.50526" lon="-1.2619816666666668">
        <ele>1230.5000000000007</ele>
        <time>2013-11-09T13:43:51.18</time>
      </trkpt>
      <trkpt lat="38.50523166666667" lon="-1.2620566666666666">
        <ele>1228.3000000000006</ele>
        <time>2013-11-09T13:43:52.18</time>
      </trkpt>
      <trkpt lat="38.505201666666665" lon="-1.2621266666666666">
        <ele>1226.2000000000007</ele>
        <time>2013-11-09T13:43:53.19</time>
      </trkpt>
      <trkpt lat="38.505165" lon="-1.2621933333333333">
        <ele>1224.2000000000007</ele>
        <time>2013-11-09T13:43:54.19</time>
      </trkpt>
      <trkpt lat="38.50512666666667" lon="-1.26226">
        <ele>1222.1000000000008</ele>
        <time>2013-11-09T13:43:55.17</time>
      </trkpt>
      <trkpt lat="38.50508833333333" lon="-1.26233">
        <ele>1220.1000000000008</ele>
        <time>2013-11-09T13:43:56.18</time>
      </trkpt>
      <trkpt lat="38.50507" lon="-1.2623866666666665">
        <ele>1218.8000000000009</ele>
        <time>2013-11-09T13:43:57.21</time>
      </trkpt>
      <trkpt lat="38.505048333333335" lon="-1.2624283333333333">
        <ele>1217.9000000000008</ele>
        <time>2013-11-09T13:43:58.18</time>
      </trkpt>
      <trkpt lat="38.505008333333336" lon="-1.2624683333333333">
        <ele>1217.1000000000008</ele>
        <time>2013-11-09T13:43:59.18</time>
      </trkpt>
      <trkpt lat="38.504956666666665" lon="-1.2625116666666667">
        <ele>1216.000000000001</ele>
        <time>2013-11-09T13:44:00.19</time>
      </trkpt>
      <trkpt lat="38.50490666666666" lon="-1.2625566666666668">
        <ele>1214.900000000001</ele>
        <time>2013-11-09T13:44:01.19</time>
      </trkpt>
      <trkpt lat="38.50486166666666" lon="-1.2626">
        <ele>1213.600000000001</ele>
        <time>2013-11-09T13:44:02.17</time>
      </trkpt>
      <trkpt lat="38.504846666666666" lon="-1.2626416666666667">
        <ele>1212.600000000001</ele>
        <time>2013-11-09T13:44:03.16</time>
      </trkpt>
      <trkpt lat="38.50483666666667" lon="-1.262695">
        <ele>1211.700000000001</ele>
        <time>2013-11-09T13:44:04.18</time>
      </trkpt>
      <trkpt lat="38.504828333333336" lon="-1.2627283333333335">
        <ele>1211.600000000001</ele>
        <time>2013-11-09T13:44:05.22</time>
      </trkpt>
      <trkpt lat="38.504821666666665" lon="-1.2627516666666667">
        <ele>1211.5000000000011</ele>
        <time>2013-11-09T13:44:06.17</time>
      </trkpt>
      <trkpt lat="38.50481833333333" lon="-1.2627783333333333">
        <ele>1211.5000000000011</ele>
        <time>2013-11-09T13:44:07.17</time>
      </trkpt>
      <trkpt lat="38.504815" lon="-1.2628016666666666">
        <ele>1211.4000000000012</ele>
        <time>2013-11-09T13:44:08.21</time>
      </trkpt>
      <trkpt lat="38.50481166666667" lon="-1.262835">
        <ele>1211.3000000000013</ele>
        <time>2013-11-09T13:44:09.17</time>
      </trkpt>
      <trkpt lat="38.504801666666665" lon="-1.2628733333333333">
        <ele>1211.3000000000013</ele>
        <time>2013-11-09T13:44:10.21</time>
      </trkpt>
      <trkpt lat="38.504785" lon="-1.26291">
        <ele>1211.2000000000014</ele>
        <time>2013-11-09T13:44:11.17</time>
      </trkpt>
      <trkpt lat="38.50476166666667" lon="-1.2629516666666667">
        <ele>1210.7000000000014</ele>
        <time>2013-11-09T13:44:12.24</time>
      </trkpt>
      <trkpt lat="38.504738333333336" lon="-1.2629916666666667">
        <ele>1210.3000000000013</ele>
        <time>2013-11-09T13:44:13.23</time>
      </trkpt>
      <trkpt lat="38.504713333333335" lon="-1.26304">
        <ele>1210.1000000000013</ele>
        <time>2013-11-09T13:44:14.17</time>
      </trkpt>
      <trkpt lat="38.50468333333333" lon="-1.26309">
        <ele>1209.9000000000012</ele>
        <time>2013-11-09T13:44:15.17</time>
      </trkpt>
      <trkpt lat="38.504655" lon="-1.26311">
        <ele>1210.0000000000011</ele>
        <time>2013-11-09T13:44:16.20</time>
      </trkpt>
      <trkpt lat="38.504625" lon="-1.2631216666666667">
        <ele>1210.100000000001</ele>
        <time>2013-11-09T13:44:17.17</time>
      </trkpt>
      <trkpt lat="38.50459166666667" lon="-1.26311">
        <ele>1210.200000000001</ele>
        <time>2013-11-09T13:44:18.17</time>
      </trkpt>
      <trkpt lat="38.50457" lon="-1.26309">
        <ele>1210.400000000001</ele>
        <time>2013-11-09T13:44:19.17</time>
      </trkpt>
      <trkpt lat="38.50454833333333" lon="-1.2630933333333334">
        <ele>1210.500000000001</ele>
        <time>2013-11-09T13:44:20.17</time>
      </trkpt>
      <trkpt lat="38.50452166666667" lon="-1.2631066666666666">
        <ele>1210.6000000000008</ele>
        <time>2013-11-09T13:44:21.17</time>
      </trkpt>
      <trkpt lat="38.50447666666667" lon="-1.26313">
        <ele>1211.9000000000008</ele>
        <time>2013-11-09T13:44:22.23</time>
      </trkpt>
      <trkpt lat="38.504425" lon="-1.2631666666666668">
        <ele>1213.1000000000008</ele>
        <time>2013-11-09T13:44:23.18</time>
      </trkpt>
      <trkpt lat="38.50438" lon="-1.2631966666666667">
        <ele>1214.1000000000008</ele>
        <time>2013-11-09T13:44:24.20</time>
      </trkpt>
      <trkpt lat="38.504333333333335" lon="-1.2632116666666666">
        <ele>1215.000000000001</ele>
        <time>2013-11-09T13:44:26.55</time>
      </trkpt>
      <trkpt lat="38.50429333333334" lon="-1.263225">
        <ele>1215.6000000000008</ele>
        <time>2013-11-09T13:44:26.55</time>
      </trkpt>
      <trkpt lat="38.50425333333333" lon="-1.2632433333333333">
        <ele>1215.6000000000008</ele>
        <time>2013-11-09T13:44:27.18</time>
      </trkpt>
      <trkpt lat="38.50421" lon="-1.2632933333333334">
        <ele>1215.1000000000008</ele>
        <time>2013-11-09T13:44:28.16</time>
      </trkpt>
      <trkpt lat="38.504171666666664" lon="-1.2633433333333333">
        <ele>1214.6000000000008</ele>
        <time>2013-11-09T13:44:29.17</time>
      </trkpt>
      <trkpt lat="38.504146666666664" lon="-1.2633833333333333">
        <ele>1214.500000000001</ele>
        <time>2013-11-09T13:44:30.19</time>
      </trkpt>
      <trkpt lat="38.504128333333334" lon="-1.26341">
        <ele>1214.500000000001</ele>
        <time>2013-11-09T13:44:31.19</time>
      </trkpt>
      <trkpt lat="38.50411833333333" lon="-1.26341">
        <ele>1214.6000000000008</ele>
        <time>2013-11-09T13:44:32.17</time>
      </trkpt>
      <trkpt lat="38.50411" lon="-1.2634133333333333">
        <ele>1214.7000000000007</ele>
        <time>2013-11-09T13:44:33.18</time>
      </trkpt>
      <trkpt lat="38.504101666666664" lon="-1.2634183333333333">
        <ele>1214.8000000000006</ele>
        <time>2013-11-09T13:44:34.24</time>
      </trkpt>
      <trkpt lat="38.50411833333333" lon="-1.263435">
        <ele>1214.8000000000006</ele>
        <time>2013-11-09T13:44:35.24</time>
      </trkpt>
      <trkpt lat="38.504145" lon="-1.263425">
        <ele>1214.9000000000005</ele>
        <time>2013-11-09T13:44:36.24</time>
      </trkpt>
      <trkpt lat="38.50418166666667" lon="-1.2633866666666667">
        <ele>1215.5000000000005</ele>
        <time>2013-11-09T13:44:37.18</time>
      </trkpt>
      <trkpt lat="38.50421" lon="-1.2633483333333333">
        <ele>1215.9000000000005</ele>
        <time>2013-11-09T13:44:38.23</time>
      </trkpt>
      <trkpt lat="38.50423833333333" lon="-1.26331">
        <ele>1216.1000000000006</ele>
        <time>2013-11-09T13:44:39.18</time>
      </trkpt>
      <trkpt lat="38.504263333333334" lon="-1.2632916666666667">
        <ele>1216.1000000000006</ele>
        <time>2013-11-09T13:44:40.20</time>
      </trkpt>
      <trkpt lat="38.504288333333335" lon="-1.2632883333333333">
        <ele>1216.1000000000006</ele>
        <time>2013-11-09T13:44:41.24</time>
      </trkpt>
      <trkpt lat="38.504311666666666" lon="-1.2632966666666667">
        <ele>1216.0000000000007</ele>
        <time>2013-11-09T13:44:42.23</time>
      </trkpt>
      <trkpt lat="38.50429833333333" lon="-1.26334">
        <ele>1216.0000000000007</ele>
        <time>2013-11-09T13:44:43.23</time>
      </trkpt>
      <trkpt lat="38.504255" lon="-1.2633866666666667">
        <ele>1215.8000000000006</ele>
        <time>2013-11-09T13:44:44.20</time>
      </trkpt>
      <trkpt lat="38.50420833333333" lon="-1.2634216666666667">
        <ele>1215.6000000000006</ele>
        <time>2013-11-09T13:44:45.28</time>
      </trkpt>
      <trkpt lat="38.504173333333334" lon="-1.2634516666666666">
        <ele>1215.6000000000006</ele>
        <time>2013-11-09T13:44:46.24</time>
      </trkpt>
      <trkpt lat="38.50415" lon="-1.2634750000000001">
        <ele>1215.6000000000006</ele>
        <time>2013-11-09T13:44:47.24</time>
      </trkpt>
      <trkpt lat="38.50412333333333" lon="-1.2635066666666668">
        <ele>1215.6000000000006</ele>
        <time>2013-11-09T13:44:48.24</time>
      </trkpt>
      <trkpt lat="38.50409" lon="-1.26356">
        <ele>1215.9000000000005</ele>
        <time>2013-11-09T13:44:49.24</time>
      </trkpt>
      <trkpt lat="38.504061666666665" lon="-1.2636033333333334">
        <ele>1216.9000000000005</ele>
        <time>2013-11-09T13:44:50.19</time>
      </trkpt>
      <trkpt lat="38.504025" lon="-1.26365">
        <ele>1217.9000000000005</ele>
        <time>2013-11-09T13:44:51.20</time>
      </trkpt>
      <trkpt lat="38.50400166666667" lon="-1.26368">
        <ele>1218.0000000000005</ele>
        <time>2013-11-09T13:44:52.23</time>
      </trkpt>
      <trkpt lat="38.50398" lon="-1.2637033333333334">
        <ele>1218.1000000000004</ele>
        <time>2013-11-09T13:44:53.29</time>
      </trkpt>
      <trkpt lat="38.50396166666667" lon="-1.2637233333333333">
        <ele>1218.3000000000004</ele>
        <time>2013-11-09T13:44:54.24</time>
      </trkpt>
      <trkpt lat="38.503953333333335" lon="-1.263735">
        <ele>1218.5000000000005</ele>
        <time>2013-11-09T13:44:55.24</time>
      </trkpt>
      <trkpt lat="38.503928333333334" lon="-1.2637716666666667">
        <ele>1220.5000000000005</ele>
        <time>2013-11-09T13:44:56.26</time>
      </trkpt>
      <trkpt lat="38.503888333333336" lon="-1.26383">
        <ele>1222.5000000000005</ele>
        <time>2013-11-09T13:44:57.27</time>
      </trkpt>
      <trkpt lat="38.50384" lon="-1.2638916666666666">
        <ele>1224.9000000000005</ele>
        <time>2013-11-09T13:44:58.23</time>
      </trkpt>
      <trkpt lat="38.50378166666667" lon="-1.2639283333333333">
        <ele>1228.3000000000006</ele>
        <time>2013-11-09T13:44:59.24</time>
      </trkpt>
      <trkpt lat="38.503708333333336" lon="-1.2639733333333334">
        <ele>1231.2000000000007</ele>
        <time>2013-11-09T13:45:00.24</time>
      </trkpt>
      <trkpt lat="38.50362166666667" lon="-1.2640216666666666">
        <ele>1234.0000000000007</ele>
        <time>2013-11-09T13:45:01.23</time>
      </trkpt>
      <trkpt lat="38.503523333333334" lon="-1.264065">
        <ele>1236.8000000000006</ele>
        <time>2013-11-09T13:45:02.24</time>
      </trkpt>
      <trkpt lat="38.503416666666666" lon="-1.2640799999999999">
        <ele>1239.6000000000006</ele>
        <time>2013-11-09T13:45:03.24</time>
      </trkpt>
      <trkpt lat="38.503321666666665" lon="-1.2640866666666666">
        <ele>1242.6000000000006</ele>
        <time>2013-11-09T13:45:04.26</time>
      </trkpt>
      <trkpt lat="38.503233333333334" lon="-1.2640866666666666">
        <ele>1245.9000000000005</ele>
        <time>2013-11-09T13:45:05.24</time>
      </trkpt>
      <trkpt lat="38.50315666666667" lon="-1.26407">
        <ele>1249.2000000000005</ele>
        <time>2013-11-09T13:45:06.27</time>
      </trkpt>
      <trkpt lat="38.50309" lon="-1.2640616666666666">
        <ele>1252.1000000000006</ele>
        <time>2013-11-09T13:45:07.25</time>
      </trkpt>
      <trkpt lat="38.503035" lon="-1.2640616666666666">
        <ele>1255.1000000000006</ele>
        <time>2013-11-09T13:45:08.20</time>
      </trkpt>
      <trkpt lat="38.50300166666667" lon="-1.2640666666666667">
        <ele>1257.9000000000005</ele>
        <time>2013-11-09T13:45:09.21</time>
      </trkpt>
      <trkpt lat="38.503011666666666" lon="-1.2640983333333333">
        <ele>1260.6000000000006</ele>
        <time>2013-11-09T13:45:10.25</time>
      </trkpt>
      <trkpt lat="38.50304" lon="-1.2641316666666667">
        <ele>1260.9000000000005</ele>
        <time>2013-11-09T13:45:11.25</time>
      </trkpt>
      <trkpt lat="38.50307333333333" lon="-1.264165">
        <ele>1261.2000000000005</ele>
        <time>2013-11-09T13:45:12.20</time>
      </trkpt>
      <trkpt lat="38.503125" lon="-1.2641266666666666">
        <ele>1264.2000000000005</ele>
        <time>2013-11-09T13:45:13.19</time>
      </trkpt>
      <trkpt lat="38.503175" lon="-1.2640416666666667">
        <ele>1267.4000000000005</ele>
        <time>2013-11-09T13:45:14.25</time>
      </trkpt>
      <trkpt lat="38.50321666666667" lon="-1.2638983333333333">
        <ele>1271.4000000000005</ele>
        <time>2013-11-09T13:45:15.23</time>
      </trkpt>
      <trkpt lat="38.50325333333333" lon="-1.263725">
        <ele>1275.0000000000005</ele>
        <time>2013-11-09T13:45:16.24</time>
      </trkpt>
      <trkpt lat="38.50326333333334" lon="-1.26353">
        <ele>1279.1000000000004</ele>
        <time>2013-11-09T13:45:17.19</time>
      </trkpt>
      <trkpt lat="38.503236666666666" lon="-1.2633266666666667">
        <ele>1283.0000000000005</ele>
        <time>2013-11-09T13:45:18.24</time>
      </trkpt>
      <trkpt lat="38.50315833333333" lon="-1.263115">
        <ele>1286.8000000000004</ele>
        <time>2013-11-09T13:45:19.24</time>
      </trkpt>
      <trkpt lat="38.50306666666667" lon="-1.2629366666666666">
        <ele>1289.5000000000005</ele>
        <time>2013-11-09T13:45:20.23</time>
      </trkpt>
      <trkpt lat="38.502915" lon="-1.2628266666666668">
        <ele>1291.7000000000005</ele>
        <time>2013-11-09T13:45:21.30</time>
      </trkpt>
      <trkpt lat="38.502743333333335" lon="-1.2627616666666666">
        <ele>1294.5000000000005</ele>
        <time>2013-11-09T13:45:22.54</time>
      </trkpt>
      <trkpt lat="38.50262" lon="-1.2627333333333333">
        <ele>1297.1000000000004</ele>
        <time>2013-11-09T13:45:23.51</time>
      </trkpt>
      <trkpt lat="38.502545" lon="-1.262745">
        <ele>1299.5000000000005</ele>
        <time>2013-11-09T13:45:24.53</time>
      </trkpt>
      <trkpt lat="38.5025" lon="-1.262765">
        <ele>1301.7000000000005</ele>
        <time>2013-11-09T13:45:25.51</time>
      </trkpt>
      <trkpt lat="38.50247666666667" lon="-1.2627883333333334">
        <ele>1302.0000000000005</ele>
        <time>2013-11-09T13:45:26.51</time>
      </trkpt>
      <trkpt lat="38.502453333333335" lon="-1.2628016666666666">
        <ele>1302.3000000000004</ele>
        <time>2013-11-09T13:45:27.52</time>
      </trkpt>
      <trkpt lat="38.502433333333336" lon="-1.2628183333333334">
        <ele>1302.7000000000005</ele>
        <time>2013-11-09T13:45:28.57</time>
      </trkpt>
      <trkpt lat="38.50239833333333" lon="-1.2629416666666666">
        <ele>1304.3</ele>
        <time>2013-11-09T13:45:31.58</time>
      </trkpt>
      <trkpt lat="38.502381666666665" lon="-1.2629883333333334">
        <ele>1304.8999999999999</ele>
        <time>2013-11-09T13:45:32.58</time>
      </trkpt>
      <trkpt lat="38.50236" lon="-1.26303">
        <ele>1305.6999999999998</ele>
        <time>2013-11-09T13:45:33.57</time>
      </trkpt>
      <trkpt lat="38.502338333333334" lon="-1.2630716666666666">
        <ele>1306.4999999999998</ele>
        <time>2013-11-09T13:45:34.57</time>
      </trkpt>
      <trkpt lat="38.50231" lon="-1.2631133333333333">
        <ele>1307.2999999999997</ele>
        <time>2013-11-09T13:45:35.58</time>
      </trkpt>
      <trkpt lat="38.50228833333333" lon="-1.26316">
        <ele>1308.0999999999997</ele>
        <time>2013-11-09T13:45:36.58</time>
      </trkpt>
      <trkpt lat="38.502295" lon="-1.26321">
        <ele>1309.0999999999997</ele>
        <time>2013-11-09T13:45:37.57</time>
      </trkpt>
      <trkpt lat="38.50230833333333" lon="-1.2632516666666667">
        <ele>1309.9999999999998</ele>
        <time>2013-11-09T13:45:38.57</time>
      </trkpt>
      <trkpt lat="38.50232833333333" lon="-1.2632733333333332">
        <ele>1310.9999999999998</ele>
        <time>2013-11-09T13:45:39.57</time>
      </trkpt>
      <trkpt lat="38.502365" lon="-1.26327">
        <ele>1311.8999999999999</ele>
        <time>2013-11-09T13:45:40.62</time>
      </trkpt>
      <trkpt lat="38.502426666666665" lon="-1.2632333333333334">
        <ele>1321.4999999999998</ele>
        <time>2013-11-09T13:45:41.61</time>
      </trkpt>
      <trkpt lat="38.50250333333334" lon="-1.2631383333333333">
        <ele>1329.2999999999997</ele>
        <time>2013-11-09T13:45:42.63</time>
      </trkpt>
      <trkpt lat="38.502575" lon="-1.2629966666666665">
        <ele>1336.1999999999998</ele>
        <time>2013-11-09T13:45:43.58</time>
      </trkpt>
      <trkpt lat="38.502625" lon="-1.2628083333333333">
        <ele>1342.7999999999997</ele>
        <time>2013-11-09T13:45:44.57</time>
      </trkpt>
      <trkpt lat="38.502633333333335" lon="-1.2626066666666667">
        <ele>1349.1999999999998</ele>
        <time>2013-11-09T13:45:45.58</time>
      </trkpt>
      <trkpt lat="38.502626666666664" lon="-1.2623916666666666">
        <ele>1354.6999999999998</ele>
        <time>2013-11-09T13:45:46.57</time>
      </trkpt>
      <trkpt lat="38.502563333333335" lon="-1.2622033333333333">
        <ele>1359.6999999999998</ele>
        <time>2013-11-09T13:45:47.52</time>
      </trkpt>
      <trkpt lat="38.50248833333333" lon="-1.2620183333333332">
        <ele>1364.1</ele>
        <time>2013-11-09T13:45:48.58</time>
      </trkpt>
      <trkpt lat="38.50237833333333" lon="-1.2618666666666667">
        <ele>1367.6</ele>
        <time>2013-11-09T13:45:49.57</time>
      </trkpt>
      <trkpt lat="38.502265" lon="-1.26173">
        <ele>1370.6999999999998</ele>
        <time>2013-11-09T13:45:50.58</time>
      </trkpt>
      <trkpt lat="38.50212166666667" lon="-1.2616383333333334">
        <ele>1373.3999999999999</ele>
        <time>2013-11-09T13:45:51.59</time>
      </trkpt>
      <trkpt lat="38.501981666666666" lon="-1.2615683333333334">
        <ele>1376.4999999999998</ele>
        <time>2013-11-09T13:45:52.58</time>
      </trkpt>
      <trkpt lat="38.50185166666667" lon="-1.261545">
        <ele>1379.0999999999997</ele>
        <time>2013-11-09T13:45:53.59</time>
      </trkpt>
      <trkpt lat="38.50174666666667" lon="-1.2615583333333333">
        <ele>1381.0999999999997</ele>
        <time>2013-11-09T13:45:54.57</time>
      </trkpt>
      <trkpt lat="38.501686666666664" lon="-1.2615766666666666">
        <ele>1382.8999999999996</ele>
        <time>2013-11-09T13:45:55.57</time>
      </trkpt>
      <trkpt lat="38.50165833333333" lon="-1.261615">
        <ele>1384.6999999999996</ele>
        <time>2013-11-09T13:45:56.57</time>
      </trkpt>
      <trkpt lat="38.501645" lon="-1.2616450000000001">
        <ele>1384.8999999999996</ele>
        <time>2013-11-09T13:45:57.58</time>
      </trkpt>
      <trkpt lat="38.50163666666667" lon="-1.2616783333333332">
        <ele>1385.0999999999997</ele>
        <time>2013-11-09T13:45:58.58</time>
      </trkpt>
      <trkpt lat="38.50163333333333" lon="-1.2617083333333334">
        <ele>1385.2999999999997</ele>
        <time>2013-11-09T13:45:59.57</time>
      </trkpt>
      <trkpt lat="38.501621666666665" lon="-1.261765">
        <ele>1385.6999999999998</ele>
        <time>2013-11-09T13:46:00.57</time>
      </trkpt>
      <trkpt lat="38.50161333333333" lon="-1.2618033333333334">
        <ele>1386.1999999999998</ele>
        <time>2013-11-09T13:46:01.57</time>
      </trkpt>
      <trkpt lat="38.501605" lon="-1.26183">
        <ele>1386.6</ele>
        <time>2013-11-09T13:46:02.58</time>
      </trkpt>
      <trkpt lat="38.50159" lon="-1.261865">
        <ele>1387.1999999999998</ele>
        <time>2013-11-09T13:46:03.59</time>
      </trkpt>
      <trkpt lat="38.50157333333333" lon="-1.2619033333333334">
        <ele>1387.6999999999998</ele>
        <time>2013-11-09T13:46:04.57</time>
      </trkpt>
      <trkpt lat="38.501556666666666" lon="-1.2619366666666667">
        <ele>1388.2999999999997</ele>
        <time>2013-11-09T13:46:05.57</time>
      </trkpt>
      <trkpt lat="38.501538333333336" lon="-1.26197">
        <ele>1388.9999999999998</ele>
        <time>2013-11-09T13:46:06.57</time>
      </trkpt>
      <trkpt lat="38.501513333333335" lon="-1.2620033333333334">
        <ele>1389.7999999999997</ele>
        <time>2013-11-09T13:46:07.57</time>
      </trkpt>
      <trkpt lat="38.50147666666667" lon="-1.2620466666666665">
        <ele>1398.0999999999997</ele>
        <time>2013-11-09T13:46:08.59</time>
      </trkpt>
      <trkpt lat="38.501435" lon="-1.2621033333333334">
        <ele>1405.4999999999998</ele>
        <time>2013-11-09T13:46:09.59</time>
      </trkpt>
      <trkpt lat="38.501385" lon="-1.2621533333333335">
        <ele>1412.0999999999997</ele>
        <time>2013-11-09T13:46:10.62</time>
      </trkpt>
      <trkpt lat="38.50132" lon="-1.262195">
        <ele>1418.2999999999997</ele>
        <time>2013-11-09T13:46:11.56</time>
      </trkpt>
      <trkpt lat="38.501218333333334" lon="-1.262225">
        <ele>1423.7999999999997</ele>
        <time>2013-11-09T13:46:12.87</time>
      </trkpt>
      <trkpt lat="38.501106666666665" lon="-1.2622433333333334">
        <ele>1428.8999999999996</ele>
        <time>2013-11-09T13:46:13.58</time>
      </trkpt>
      <trkpt lat="38.50098166666667" lon="-1.2622283333333333">
        <ele>1433.7999999999997</ele>
        <time>2013-11-09T13:46:14.57</time>
      </trkpt>
      <trkpt lat="38.500836666666665" lon="-1.2622066666666667">
        <ele>1437.9999999999998</ele>
        <time>2013-11-09T13:46:15.54</time>
      </trkpt>
      <trkpt lat="38.500701666666664" lon="-1.2621733333333334">
        <ele>1441.8999999999999</ele>
        <time>2013-11-09T13:46:16.57</time>
      </trkpt>
      <trkpt lat="38.50058" lon="-1.262095">
        <ele>1445.3</ele>
        <time>2013-11-09T13:46:17.55</time>
      </trkpt>
      <trkpt lat="38.500481666666666" lon="-1.261955">
        <ele>1449.1</ele>
        <time>2013-11-09T13:46:18.58</time>
      </trkpt>
      <trkpt lat="38.50040166666667" lon="-1.2617533333333333">
        <ele>1452.5</ele>
        <time>2013-11-09T13:46:19.57</time>
      </trkpt>
      <trkpt lat="38.500325" lon="-1.2615483333333333">
        <ele>1455.9</ele>
        <time>2013-11-09T13:46:20.57</time>
      </trkpt>
      <trkpt lat="38.50029166666667" lon="-1.2613116666666666">
        <ele>1459.6000000000001</ele>
        <time>2013-11-09T13:46:21.57</time>
      </trkpt>
      <trkpt lat="38.500276666666664" lon="-1.26112">
        <ele>1462.6000000000001</ele>
        <time>2013-11-09T13:46:22.59</time>
      </trkpt>
      <trkpt lat="38.50030666666667" lon="-1.260935">
        <ele>1465.5000000000002</ele>
        <time>2013-11-09T13:46:23.59</time>
      </trkpt>
      <trkpt lat="38.50035333333334" lon="-1.2607866666666667">
        <ele>1468.9000000000003</ele>
        <time>2013-11-09T13:46:24.56</time>
      </trkpt>
      <trkpt lat="38.500413333333334" lon="-1.2606516666666667">
        <ele>1472.9000000000003</ele>
        <time>2013-11-09T13:46:25.54</time>
      </trkpt>
      <trkpt lat="38.50049833333333" lon="-1.26055">
        <ele>1476.3000000000004</ele>
        <time>2013-11-09T13:46:26.54</time>
      </trkpt>
      <trkpt lat="38.50058666666666" lon="-1.26044">
        <ele>1480.2000000000005</ele>
        <time>2013-11-09T13:46:27.56</time>
      </trkpt>
      <trkpt lat="38.500685" lon="-1.2603916666666666">
        <ele>1484.2000000000005</ele>
        <time>2013-11-09T13:46:28.57</time>
      </trkpt>
      <trkpt lat="38.500766666666664" lon="-1.2603666666666666">
        <ele>1488.2000000000005</ele>
        <time>2013-11-09T13:46:29.57</time>
      </trkpt>
      <trkpt lat="38.500825" lon="-1.260375">
        <ele>1492.2000000000005</ele>
        <time>2013-11-09T13:46:30.65</time>
      </trkpt>
      <trkpt lat="38.50085833333333" lon="-1.2603916666666666">
        <ele>1492.6000000000006</ele>
        <time>2013-11-09T13:46:31.57</time>
      </trkpt>
      <trkpt lat="38.500818333333335" lon="-1.26047">
        <ele>1495.2</ele>
        <time>2013-11-09T13:46:37.58</time>
      </trkpt>
      <trkpt lat="38.500778333333336" lon="-1.2605216666666665">
        <ele>1503.3</ele>
        <time>2013-11-09T13:46:38.58</time>
      </trkpt>
      <trkpt lat="38.500733333333336" lon="-1.2605766666666667">
        <ele>1510.3</ele>
        <time>2013-11-09T13:46:39.57</time>
      </trkpt>
      <trkpt lat="38.50068" lon="-1.260635">
        <ele>1516.3999999999999</ele>
        <time>2013-11-09T13:46:40.24</time>
      </trkpt>
      <trkpt lat="38.500618333333335" lon="-1.2606933333333332">
        <ele>1521.8</ele>
        <time>2013-11-09T13:46:41.59</time>
      </trkpt>
      <trkpt lat="38.50054" lon="-1.2607516666666667">
        <ele>1526.8999999999999</ele>
        <time>2013-11-09T13:46:42.59</time>
      </trkpt>
      <trkpt lat="38.500458333333334" lon="-1.2607916666666668">
        <ele>1531.4999999999998</ele>
        <time>2013-11-09T13:46:43.79</time>
      </trkpt>
      <trkpt lat="38.50036166666667" lon="-1.2608316666666668">
        <ele>1535.4999999999998</ele>
        <time>2013-11-09T13:46:44.49</time>
      </trkpt>
      <trkpt lat="38.500225" lon="-1.2608733333333333">
        <ele>1539.5999999999997</ele>
        <time>2013-11-09T13:46:45.49</time>
      </trkpt>
      <trkpt lat="38.50007166666666" lon="-1.260875">
        <ele>1543.7999999999997</ele>
        <time>2013-11-09T13:46:46.14</time>
      </trkpt>
      <trkpt lat="38.49991833333333" lon="-1.2608616666666665">
        <ele>1547.9999999999998</ele>
        <time>2013-11-09T13:46:47.69</time>
      </trkpt>
      <trkpt lat="38.499766666666666" lon="-1.2608433333333333">
        <ele>1551.4999999999998</ele>
        <time>2013-11-09T13:46:48.59</time>
      </trkpt>
      <trkpt lat="38.49963833333333" lon="-1.2607883333333334">
        <ele>1555.6999999999998</ele>
        <time>2013-11-09T13:46:49.69</time>
      </trkpt>
      <trkpt lat="38.49950166666667" lon="-1.2607083333333333">
        <ele>1559.1</ele>
        <time>2013-11-09T13:46:50.79</time>
      </trkpt>
      <trkpt lat="38.49937" lon="-1.26061">
        <ele>1562.1</ele>
        <time>2013-11-09T13:46:51.79</time>
      </trkpt>
      <trkpt lat="38.49926" lon="-1.26047">
        <ele>1564.6</ele>
        <time>2013-11-09T13:46:52.69</time>
      </trkpt>
      <trkpt lat="38.49917166666667" lon="-1.260285">
        <ele>1567.1</ele>
        <time>2013-11-09T13:46:53.69</time>
      </trkpt>
      <trkpt lat="38.499093333333334" lon="-1.2600883333333333">
        <ele>1569.6</ele>
        <time>2013-11-09T13:46:54.79</time>
      </trkpt>
      <trkpt lat="38.49905" lon="-1.2598683333333334">
        <ele>1571.6999999999998</ele>
        <time>2013-11-09T13:46:55.79</time>
      </trkpt>
      <trkpt lat="38.499015" lon="-1.2596483333333333">
        <ele>1573.8999999999999</ele>
        <time>2013-11-09T13:46:56.79</time>
      </trkpt>
      <trkpt lat="38.499025" lon="-1.2594433333333332">
        <ele>1576.1999999999998</ele>
        <time>2013-11-09T13:46:57.89</time>
      </trkpt>
      <trkpt lat="38.49905833333333" lon="-1.2592816666666666">
        <ele>1578.9999999999998</ele>
        <time>2013-11-09T13:46:58.10</time>
      </trkpt>
      <trkpt lat="38.499115" lon="-1.2591516666666667">
        <ele>1581.5999999999997</ele>
        <time>2013-11-09T13:46:59.12</time>
      </trkpt>
      <trkpt lat="38.49916833333333" lon="-1.2590583333333334">
        <ele>1584.0999999999997</ele>
        <time>2013-11-09T13:47:00.12</time>
      </trkpt>
      <trkpt lat="38.49922" lon="-1.2589716666666666">
        <ele>1586.8999999999996</ele>
        <time>2013-11-09T13:47:01.20</time>
      </trkpt>
      <trkpt lat="38.499266666666664" lon="-1.2588633333333332">
        <ele>1589.5999999999997</ele>
        <time>2013-11-09T13:47:02.79</time>
      </trkpt>
      <trkpt lat="38.4993" lon="-1.25875">
        <ele>1592.2999999999997</ele>
        <time>2013-11-09T13:47:03.10</time>
      </trkpt>
      <trkpt lat="38.499336666666665" lon="-1.2586633333333332">
        <ele>1594.6999999999998</ele>
        <time>2013-11-09T13:47:04.11</time>
      </trkpt>
      <trkpt lat="38.49937166666667" lon="-1.2585883333333334">
        <ele>1597.2999999999997</ele>
        <time>2013-11-09T13:47:05.10</time>
      </trkpt>
      <trkpt lat="38.49940333333333" lon="-1.2585233333333332">
        <ele>1599.6999999999998</ele>
        <time>2013-11-09T13:47:06.10</time>
      </trkpt>
      <trkpt lat="38.49944166666667" lon="-1.2584816666666667">
        <ele>1602.2999999999997</ele>
        <time>2013-11-09T13:47:07.10</time>
      </trkpt>
      <trkpt lat="38.49948" lon="-1.25844">
        <ele>1605.3999999999996</ele>
        <time>2013-11-09T13:47:08.10</time>
      </trkpt>
      <trkpt lat="38.49951166666666" lon="-1.2584016666666666">
        <ele>1608.3999999999996</ele>
        <time>2013-11-09T13:47:09.59</time>
      </trkpt>
      <trkpt lat="38.499515" lon="-1.2583733333333333">
        <ele>1611.4999999999995</ele>
        <time>2013-11-09T13:47:10.10</time>
      </trkpt>
      <trkpt lat="38.499518333333334" lon="-1.25835">
        <ele>1611.7999999999995</ele>
        <time>2013-11-09T13:47:11.10</time>
      </trkpt>
      <trkpt lat="38.499525" lon="-1.2583416666666667">
        <ele>1612.0999999999995</ele>
        <time>2013-11-09T13:47:12.23</time>
      </trkpt>
      <trkpt lat="38.499555" lon="-1.2583333333333333">
        <ele>1612.3999999999994</ele>
        <time>2013-11-09T13:47:13.10</time>
      </trkpt>
      <trkpt lat="38.499585" lon="-1.2583233333333332">
        <ele>1612.6999999999994</ele>
        <time>2013-11-09T13:47:14.10</time>
      </trkpt>
      <trkpt lat="38.499613333333336" lon="-1.2583183333333334">
        <ele>1613.0999999999995</ele>
        <time>2013-11-09T13:47:15.10</time>
      </trkpt>
      <trkpt lat="38.49964" lon="-1.2583066666666667">
        <ele>1614.8</ele>
        <time>2013-11-09T13:47:18.10</time>
      </trkpt>
      <trkpt lat="38.49965" lon="-1.2582866666666668">
        <ele>1615.3999999999999</ele>
        <time>2013-11-09T13:47:19.11</time>
      </trkpt>
      <trkpt lat="38.49966" lon="-1.25826">
        <ele>1616.1</ele>
        <time>2013-11-09T13:47:20.10</time>
      </trkpt>
      <trkpt lat="38.499676666666666" lon="-1.2582366666666667">
        <ele>1616.8999999999999</ele>
        <time>2013-11-09T13:47:21.10</time>
      </trkpt>
      <trkpt lat="38.499705" lon="-1.2582183333333332">
        <ele>1617.6999999999998</ele>
        <time>2013-11-09T13:47:22.10</time>
      </trkpt>
      <trkpt lat="38.49973166666667" lon="-1.2581966666666666">
        <ele>1618.6</ele>
        <time>2013-11-09T13:47:23.10</time>
      </trkpt>
      <trkpt lat="38.49975666666667" lon="-1.258165">
        <ele>1619.5</ele>
        <time>2013-11-09T13:47:24.10</time>
      </trkpt>
      <trkpt lat="38.49977666666667" lon="-1.2581283333333333">
        <ele>1620.5</ele>
        <time>2013-11-09T13:47:25.10</time>
      </trkpt>
      <trkpt lat="38.49979666666667" lon="-1.25808">
        <ele>1621.5</ele>
        <time>2013-11-09T13:47:26.10</time>
      </trkpt>
      <trkpt lat="38.499826666666664" lon="-1.25801">
        <ele>1632</ele>
        <time>2013-11-09T13:47:27.10</time>
      </trkpt>
      <trkpt lat="38.499865" lon="-1.2579233333333333">
        <ele>1640.4</ele>
        <time>2013-11-09T13:47:28.11</time>
      </trkpt>
      <trkpt lat="38.499905" lon="-1.2578416666666667">
        <ele>1647.3000000000002</ele>
        <time>2013-11-09T13:47:29.10</time>
      </trkpt>
      <trkpt lat="38.49995" lon="-1.2577483333333332">
        <ele>1653.0000000000002</ele>
        <time>2013-11-09T13:47:30.10</time>
      </trkpt>
      <trkpt lat="38.49997666666667" lon="-1.2576133333333332">
        <ele>1657.4000000000003</ele>
        <time>2013-11-09T13:47:31.10</time>
      </trkpt>
      <trkpt lat="38.50000166666667" lon="-1.257435">
        <ele>1661.2000000000003</ele>
        <time>2013-11-09T13:47:32.10</time>
      </trkpt>
      <trkpt lat="38.50001833333334" lon="-1.2572466666666666">
        <ele>1664.7000000000003</ele>
        <time>2013-11-09T13:47:33.10</time>
      </trkpt>
      <trkpt lat="38.50002166666667" lon="-1.25706">
        <ele>1667.7000000000003</ele>
        <time>2013-11-09T13:47:34.10</time>
      </trkpt>
      <trkpt lat="38.50001833333334" lon="-1.2568716666666666">
        <ele>1670.3000000000002</ele>
        <time>2013-11-09T13:47:35.11</time>
      </trkpt>
      <trkpt lat="38.500005" lon="-1.2566816666666667">
        <ele>1672.3000000000002</ele>
        <time>2013-11-09T13:47:36.69</time>
      </trkpt>
      <trkpt lat="38.499975" lon="-1.25648">
        <ele>1674.1000000000001</ele>
        <time>2013-11-09T13:47:37.69</time>
      </trkpt>
      <trkpt lat="38.49988666666667" lon="-1.256265">
        <ele>1675.8000000000002</ele>
        <time>2013-11-09T13:47:38.10</time>
      </trkpt>
      <trkpt lat="38.499793333333336" lon="-1.256055">
        <ele>1677.5000000000002</ele>
        <time>2013-11-09T13:47:39.59</time>
      </trkpt>
      <trkpt lat="38.499651666666665" lon="-1.255875">
        <ele>1678.3000000000002</ele>
        <time>2013-11-09T13:47:40.10</time>
      </trkpt>
      <trkpt lat="38.49949" lon="-1.2557483333333335">
        <ele>1678.2000000000003</ele>
        <time>2013-11-09T13:47:41.59</time>
      </trkpt>
      <trkpt lat="38.49931" lon="-1.2556783333333335">
        <ele>1677.1000000000004</ele>
        <time>2013-11-09T13:47:42.10</time>
      </trkpt>
      <trkpt lat="38.49914666666667" lon="-1.2556733333333334">
        <ele>1675.8000000000004</ele>
        <time>2013-11-09T13:47:43.11</time>
      </trkpt>
      <trkpt lat="38.49901166666667" lon="-1.2556766666666666">
        <ele>1675.3000000000004</ele>
        <time>2013-11-09T13:47:44.10</time>
      </trkpt>
      <trkpt lat="38.49890666666667" lon="-1.2556883333333333">
        <ele>1675.0000000000005</ele>
        <time>2013-11-09T13:47:45.79</time>
      </trkpt>
      <trkpt lat="38.498815" lon="-1.25571">
        <ele>1674.6000000000004</ele>
        <time>2013-11-09T13:47:46.10</time>
      </trkpt>
      <trkpt lat="38.49874666666667" lon="-1.255735">
        <ele>1674.3000000000004</ele>
        <time>2013-11-09T13:47:47.69</time>
      </trkpt>
      <trkpt lat="38.498673333333336" lon="-1.25577">
        <ele>1674.3000000000004</ele>
        <time>2013-11-09T13:47:48.11</time>
      </trkpt>
      <trkpt lat="38.498603333333335" lon="-1.255805">
        <ele>1674.7000000000005</ele>
        <time>2013-11-09T13:47:49.10</time>
      </trkpt>
      <trkpt lat="38.498551666666664" lon="-1.2558333333333334">
        <ele>1675.0000000000005</ele>
        <time>2013-11-09T13:47:50.11</time>
      </trkpt>
      <trkpt lat="38.498505" lon="-1.2558616666666667">
        <ele>1675.5000000000005</ele>
        <time>2013-11-09T13:47:51.10</time>
      </trkpt>
      <trkpt lat="38.49847" lon="-1.2558833333333332">
        <ele>1675.5000000000005</ele>
        <time>2013-11-09T13:47:52.79</time>
      </trkpt>
      <trkpt lat="38.49845333333333" lon="-1.255905">
        <ele>1675.6000000000004</ele>
        <time>2013-11-09T13:47:53.10</time>
      </trkpt>
      <trkpt lat="38.49845166666667" lon="-1.2559383333333334">
        <ele>1675.6000000000004</ele>
        <time>2013-11-09T13:47:54.19</time>
      </trkpt>
      <trkpt lat="38.49848333333333" lon="-1.255985">
        <ele>1675.7000000000003</ele>
        <time>2013-11-09T13:47:55.11</time>
      </trkpt>
      <trkpt lat="38.498515" lon="-1.256015">
        <ele>1675.7000000000003</ele>
        <time>2013-11-09T13:47:56.10</time>
      </trkpt>
      <trkpt lat="38.49854333333333" lon="-1.2560316666666667">
        <ele>1675.9000000000003</ele>
        <time>2013-11-09T13:47:57.79</time>
      </trkpt>
      <trkpt lat="38.498565" lon="-1.2560433333333334">
        <ele>1676.1000000000004</ele>
        <time>2013-11-09T13:47:58.79</time>
      </trkpt>
      <trkpt lat="38.498603333333335" lon="-1.25602">
        <ele>1678.1000000000004</ele>
        <time>2013-11-09T13:47:59.10</time>
      </trkpt>
      <trkpt lat="38.498645" lon="-1.2559883333333333">
        <ele>1680.5000000000005</ele>
        <time>2013-11-09T13:48:00.11</time>
      </trkpt>
      <trkpt lat="38.4987" lon="-1.255945">
        <ele>1682.6000000000004</ele>
        <time>2013-11-09T13:48:01.10</time>
      </trkpt>
      <trkpt lat="38.498736666666666" lon="-1.2559033333333334">
        <ele>1684.4000000000003</ele>
        <time>2013-11-09T13:48:02.10</time>
      </trkpt>
      <trkpt lat="38.498776666666664" lon="-1.2558566666666666">
        <ele>1685.7000000000003</ele>
        <time>2013-11-09T13:48:03.10</time>
      </trkpt>
      <trkpt lat="38.49881" lon="-1.2558166666666666">
        <ele>1687.0000000000002</ele>
        <time>2013-11-09T13:48:04.10</time>
      </trkpt>
      <trkpt lat="38.498846666666665" lon="-1.2557800000000001">
        <ele>1688.2000000000003</ele>
        <time>2013-11-09T13:48:05.10</time>
      </trkpt>
      <trkpt lat="38.498868333333334" lon="-1.2557416666666668">
        <ele>1688.3000000000002</ele>
        <time>2013-11-09T13:48:06.11</time>
      </trkpt>
      <trkpt lat="38.498875" lon="-1.2557216666666666">
        <ele>1688.3000000000002</ele>
        <time>2013-11-09T13:48:07.69</time>
      </trkpt>
      <trkpt lat="38.49889" lon="-1.25572">
        <ele>1688.3000000000002</ele>
        <time>2013-11-09T13:48:08.69</time>
      </trkpt>
      <trkpt lat="38.498913333333334" lon="-1.2557183333333333">
        <ele>1688.3000000000002</ele>
        <time>2013-11-09T13:48:09.10</time>
      </trkpt>
      <trkpt lat="38.49894833333333" lon="-1.2557266666666667">
        <ele>1688.2000000000003</ele>
        <time>2013-11-09T13:48:10.69</time>
      </trkpt>
      <trkpt lat="38.49898666666667" lon="-1.25574">
        <ele>1688.2000000000003</ele>
        <time>2013-11-09T13:48:11.11</time>
      </trkpt>
      <trkpt lat="38.499015" lon="-1.25577">
        <ele>1688.1000000000004</ele>
        <time>2013-11-09T13:48:12.10</time>
      </trkpt>
      <trkpt lat="38.499025" lon="-1.2558099999999999">
        <ele>1688.1000000000004</ele>
        <time>2013-11-09T13:48:13.69</time>
      </trkpt>
      <trkpt lat="38.49903" lon="-1.2558433333333334">
        <ele>1688.0000000000005</ele>
        <time>2013-11-09T13:48:14.10</time>
      </trkpt>
      <trkpt lat="38.49903333333334" lon="-1.2558783333333334">
        <ele>1687.9000000000005</ele>
        <time>2013-11-09T13:48:15.10</time>
      </trkpt>
      <trkpt lat="38.49903666666667" lon="-1.2559133333333334">
        <ele>1687.9000000000005</ele>
        <time>2013-11-09T13:48:16.11</time>
      </trkpt>
      <trkpt lat="38.49903666666667" lon="-1.2559466666666665">
        <ele>1687.8000000000006</ele>
        <time>2013-11-09T13:48:17.89</time>
      </trkpt>
      <trkpt lat="38.499021666666664" lon="-1.2559883333333333">
        <ele>1687.7000000000007</ele>
        <time>2013-11-09T13:48:18.10</time>
      </trkpt>
      <trkpt lat="38.49899666666666" lon="-1.2560283333333333">
        <ele>1687.7000000000007</ele>
        <time>2013-11-09T13:48:19.79</time>
      </trkpt>
      <trkpt lat="38.49897" lon="-1.2560716666666667">
        <ele>1686.5000000000007</ele>
        <time>2013-11-09T13:48:20.10</time>
      </trkpt>
      <trkpt lat="38.49894166666667" lon="-1.2561200000000001">
        <ele>1685.3000000000006</ele>
        <time>2013-11-09T13:48:21.11</time>
      </trkpt>
      <trkpt lat="38.498911666666665" lon="-1.2561733333333334">
        <ele>1683.9000000000005</ele>
        <time>2013-11-09T13:48:22.10</time>
      </trkpt>
      <trkpt lat="38.49888166666667" lon="-1.2562283333333333">
        <ele>1682.6000000000006</ele>
        <time>2013-11-09T13:48:23.10</time>
      </trkpt>
      <trkpt lat="38.498845" lon="-1.256285">
        <ele>1681.4000000000005</ele>
        <time>2013-11-09T13:48:24.10</time>
      </trkpt>
      <trkpt lat="38.498801666666665" lon="-1.256335">
        <ele>1680.3000000000006</ele>
        <time>2013-11-09T13:48:25.11</time>
      </trkpt>
      <trkpt lat="38.49876" lon="-1.2563816666666667">
        <ele>1679.2000000000007</ele>
        <time>2013-11-09T13:48:26.10</time>
      </trkpt>
      <trkpt lat="38.49872" lon="-1.2564233333333332">
        <ele>1677.8000000000006</ele>
        <time>2013-11-09T13:48:27.10</time>
      </trkpt>
      <trkpt lat="38.49867666666667" lon="-1.25647">
        <ele>1676.2000000000007</ele>
        <time>2013-11-09T13:48:28.10</time>
      </trkpt>
      <trkpt lat="38.498625" lon="-1.256525">
        <ele>1674.6000000000008</ele>
        <time>2013-11-09T13:48:29.79</time>
      </trkpt>
      <trkpt lat="38.49856" lon="-1.2565883333333334">
        <ele>1673.000000000001</ele>
        <time>2013-11-09T13:48:30.10</time>
      </trkpt>
      <trkpt lat="38.498486666666665" lon="-1.256655">
        <ele>1671.6000000000008</ele>
        <time>2013-11-09T13:48:31.11</time>
      </trkpt>
      <trkpt lat="38.498416666666664" lon="-1.2567166666666667">
        <ele>1670.2000000000007</ele>
        <time>2013-11-09T13:48:32.10</time>
      </trkpt>
      <trkpt lat="38.49835" lon="-1.2567766666666667">
        <ele>1668.9000000000008</ele>
        <time>2013-11-09T13:48:33.10</time>
      </trkpt>
      <trkpt lat="38.49828333333333" lon="-1.2568333333333332">
        <ele>1667.8000000000009</ele>
        <time>2013-11-09T13:48:34.79</time>
      </trkpt>
      <trkpt lat="38.498198333333335" lon="-1.2568716666666666">
        <ele>1666.700000000001</ele>
        <time>2013-11-09T13:48:35.79</time>
      </trkpt>
      <trkpt lat="38.49812" lon="-1.2569016666666666">
        <ele>1665.8000000000009</ele>
        <time>2013-11-09T13:48:36.11</time>
      </trkpt>
      <trkpt lat="38.498038333333334" lon="-1.2569333333333335">
        <ele>1664.8000000000009</ele>
        <time>2013-11-09T13:48:37.11</time>
      </trkpt>
      <trkpt lat="38.49796333333333" lon="-1.2569666666666666">
        <ele>1663.500000000001</ele>
        <time>2013-11-09T13:48:38.10</time>
      </trkpt>
      <trkpt lat="38.49788" lon="-1.2570116666666666">
        <ele>1661.8000000000009</ele>
        <time>2013-11-09T13:48:39.10</time>
      </trkpt>
      <trkpt lat="38.497796666666666" lon="-1.2570649999999999">
        <ele>1660.3000000000009</ele>
        <time>2013-11-09T13:48:40.79</time>
      </trkpt>
      <trkpt lat="38.4977" lon="-1.2571316666666665">
        <ele>1658.700000000001</ele>
        <time>2013-11-09T13:48:41.19</time>
      </trkpt>
      <trkpt lat="38.4976" lon="-1.2571916666666667">
        <ele>1657.400000000001</ele>
        <time>2013-11-09T13:48:42.10</time>
      </trkpt>
      <trkpt lat="38.497508333333336" lon="-1.25724">
        <ele>1656.300000000001</ele>
        <time>2013-11-09T13:48:43.10</time>
      </trkpt>
      <trkpt lat="38.49742833333333" lon="-1.257275">
        <ele>1655.100000000001</ele>
        <time>2013-11-09T13:48:44.10</time>
      </trkpt>
      <trkpt lat="38.49735166666667" lon="-1.2573116666666666">
        <ele>1653.800000000001</ele>
        <time>2013-11-09T13:48:45.11</time>
      </trkpt>
      <trkpt lat="38.49726666666667" lon="-1.25736">
        <ele>1652.100000000001</ele>
        <time>2013-11-09T13:48:46.11</time>
      </trkpt>
      <trkpt lat="38.497166666666665" lon="-1.257415">
        <ele>1650.600000000001</ele>
        <time>2013-11-09T13:48:47.10</time>
      </trkpt>
      <trkpt lat="38.49704333333333" lon="-1.257475">
        <ele>1649.100000000001</ele>
        <time>2013-11-09T13:48:48.11</time>
      </trkpt>
      <trkpt lat="38.496903333333336" lon="-1.25753">
        <ele>1647.5000000000011</ele>
        <time>2013-11-09T13:48:49.79</time>
      </trkpt>
      <trkpt lat="38.49677333333333" lon="-1.257575">
        <ele>1645.800000000001</ele>
        <time>2013-11-09T13:48:50.11</time>
      </trkpt>
      <trkpt lat="38.49666166666667" lon="-1.2576083333333332">
        <ele>1644.5000000000011</ele>
        <time>2013-11-09T13:48:51.11</time>
      </trkpt>
      <trkpt lat="38.49657333333333" lon="-1.2576316666666667">
        <ele>1643.800000000001</ele>
        <time>2013-11-09T13:48:52.10</time>
      </trkpt>
      <trkpt lat="38.49645666666667" lon="-1.25767">
        <ele>1643.2000000000012</ele>
        <time>2013-11-09T13:48:53.99</time>
      </trkpt>
      <trkpt lat="38.49632833333333" lon="-1.2577016666666667">
        <ele>1642.6000000000013</ele>
        <time>2013-11-09T13:48:54.13</time>
      </trkpt>
      <trkpt lat="38.496215" lon="-1.2577183333333333">
        <ele>1642.2000000000012</ele>
        <time>2013-11-09T13:48:55.99</time>
      </trkpt>
      <trkpt lat="38.49610833333333" lon="-1.2577316666666667">
        <ele>1642.0000000000011</ele>
        <time>2013-11-09T13:48:56.99</time>
      </trkpt>
      <trkpt lat="38.496015" lon="-1.257745">
        <ele>1642.100000000001</ele>
        <time>2013-11-09T13:48:57.10</time>
      </trkpt>
      <trkpt lat="38.49592666666667" lon="-1.2577483333333332">
        <ele>1642.600000000001</ele>
        <time>2013-11-09T13:48:58.99</time>
      </trkpt>
      <trkpt lat="38.495801666666665" lon="-1.2577683333333334">
        <ele>1642.900000000001</ele>
        <time>2013-11-09T13:48:59.10</time>
      </trkpt>
      <trkpt lat="38.49565666666667" lon="-1.2577883333333333">
        <ele>1642.700000000001</ele>
        <time>2013-11-09T13:49:00.99</time>
      </trkpt>
      <trkpt lat="38.49551666666667" lon="-1.2578016666666667">
        <ele>1642.400000000001</ele>
        <time>2013-11-09T13:49:01.99</time>
      </trkpt>
      <trkpt lat="38.49539333333333" lon="-1.2578116666666666">
        <ele>1642.200000000001</ele>
        <time>2013-11-09T13:49:02.99</time>
      </trkpt>
      <trkpt lat="38.49527" lon="-1.2578266666666666">
        <ele>1642.3000000000009</ele>
        <time>2013-11-09T13:49:03.99</time>
      </trkpt>
      <trkpt lat="38.49514" lon="-1.257845">
        <ele>1642.1000000000008</ele>
        <time>2013-11-09T13:49:04.99</time>
      </trkpt>
      <trkpt lat="38.49500833333333" lon="-1.25786">
        <ele>1642.3000000000009</ele>
        <time>2013-11-09T13:49:05.99</time>
      </trkpt>
      <trkpt lat="38.49489333333333" lon="-1.2578366666666667">
        <ele>1643.000000000001</ele>
        <time>2013-11-09T13:49:06.99</time>
      </trkpt>
      <trkpt lat="38.494791666666664" lon="-1.2578083333333334">
        <ele>1644.400000000001</ele>
        <time>2013-11-09T13:49:07.99</time>
      </trkpt>
      <trkpt lat="38.49468666666667" lon="-1.2577866666666666">
        <ele>1646.000000000001</ele>
        <time>2013-11-09T13:49:08.99</time>
      </trkpt>
      <trkpt lat="38.494573333333335" lon="-1.2577783333333334">
        <ele>1647.400000000001</ele>
        <time>2013-11-09T13:49:09.99</time>
      </trkpt>
      <trkpt lat="38.49447" lon="-1.257815">
        <ele>1648.800000000001</ele>
        <time>2013-11-09T13:49:10.99</time>
      </trkpt>
      <trkpt lat="38.494386666666664" lon="-1.25785">
        <ele>1650.300000000001</ele>
        <time>2013-11-09T13:49:11.99</time>
      </trkpt>
      <trkpt lat="38.494335" lon="-1.257875">
        <ele>1651.900000000001</ele>
        <time>2013-11-09T13:49:12.13</time>
      </trkpt>
      <trkpt lat="38.494301666666665" lon="-1.2578816666666666">
        <ele>1652.100000000001</ele>
        <time>2013-11-09T13:49:13.99</time>
      </trkpt>
      <trkpt lat="38.49426833333333" lon="-1.2578866666666666">
        <ele>1652.300000000001</ele>
        <time>2013-11-09T13:49:14.99</time>
      </trkpt>
      <trkpt lat="38.49424333333333" lon="-1.257875">
        <ele>1652.5000000000011</ele>
        <time>2013-11-09T13:49:15.99</time>
      </trkpt>
      <trkpt lat="38.494233333333334" lon="-1.257845">
        <ele>1652.7000000000012</ele>
        <time>2013-11-09T13:49:16.10</time>
      </trkpt>
      <trkpt lat="38.494231666666664" lon="-1.2578033333333334">
        <ele>1652.9000000000012</ele>
        <time>2013-11-09T13:49:17.10</time>
      </trkpt>
      <trkpt lat="38.49427" lon="-1.257745">
        <ele>1654.4000000000012</ele>
        <time>2013-11-09T13:49:18.79</time>
      </trkpt>
      <trkpt lat="38.494315" lon="-1.2576766666666668">
        <ele>1655.4000000000012</ele>
        <time>2013-11-09T13:49:19.11</time>
      </trkpt>
      <trkpt lat="38.49435833333333" lon="-1.25756">
        <ele>1656.6000000000013</ele>
        <time>2013-11-09T13:49:20.10</time>
      </trkpt>
      <trkpt lat="38.494393333333335" lon="-1.2574266666666667">
        <ele>1657.9000000000012</ele>
        <time>2013-11-09T13:49:21.11</time>
      </trkpt>
      <trkpt lat="38.49440666666667" lon="-1.2572666666666668">
        <ele>1659.5000000000011</ele>
        <time>2013-11-09T13:49:22.69</time>
      </trkpt>
      <trkpt lat="38.49440333333333" lon="-1.2570833333333333">
        <ele>1660.9000000000012</ele>
        <time>2013-11-09T13:49:23.79</time>
      </trkpt>
      <trkpt lat="38.494386666666664" lon="-1.2568933333333334">
        <ele>1661.9000000000012</ele>
        <time>2013-11-09T13:49:24.10</time>
      </trkpt>
      <trkpt lat="38.49435666666667" lon="-1.2566866666666667">
        <ele>1662.9000000000012</ele>
        <time>2013-11-09T13:49:25.11</time>
      </trkpt>
      <trkpt lat="38.49428666666667" lon="-1.2564783333333334">
        <ele>1663.4000000000012</ele>
        <time>2013-11-09T13:49:26.69</time>
      </trkpt>
      <trkpt lat="38.49420833333333" lon="-1.2562666666666666">
        <ele>1663.3000000000013</ele>
        <time>2013-11-09T13:49:27.10</time>
      </trkpt>
      <trkpt lat="38.49411833333333" lon="-1.256065">
        <ele>1662.7000000000014</ele>
        <time>2013-11-09T13:49:28.79</time>
      </trkpt>
      <trkpt lat="38.49400833333333" lon="-1.2558716666666667">
        <ele>1662.2000000000014</ele>
        <time>2013-11-09T13:49:29.11</time>
      </trkpt>
      <trkpt lat="38.49384166666667" lon="-1.25569">
        <ele>1661.2000000000014</ele>
        <time>2013-11-09T13:49:30.11</time>
      </trkpt>
      <trkpt lat="38.493671666666664" lon="-1.2555533333333333">
        <ele>1660.4000000000015</ele>
        <time>2013-11-09T13:49:31.10</time>
      </trkpt>
      <trkpt lat="38.49351" lon="-1.2554333333333334">
        <ele>1659.6000000000015</ele>
        <time>2013-11-09T13:49:32.10</time>
      </trkpt>
      <trkpt lat="38.49336" lon="-1.25532">
        <ele>1658.5000000000016</ele>
        <time>2013-11-09T13:49:33.10</time>
      </trkpt>
      <trkpt lat="38.493203333333334" lon="-1.2552016666666668">
        <ele>1657.5000000000016</ele>
        <time>2013-11-09T13:49:34.11</time>
      </trkpt>
      <trkpt lat="38.493046666666665" lon="-1.2550833333333333">
        <ele>1656.8000000000015</ele>
        <time>2013-11-09T13:49:35.10</time>
      </trkpt>
      <trkpt lat="38.49288166666667" lon="-1.2549933333333334">
        <ele>1656.3000000000015</ele>
        <time>2013-11-09T13:49:36.10</time>
      </trkpt>
      <trkpt lat="38.49270666666666" lon="-1.2549616666666668">
        <ele>1655.8000000000015</ele>
        <time>2013-11-09T13:49:37.10</time>
      </trkpt>
      <trkpt lat="38.492531666666665" lon="-1.2549416666666666">
        <ele>1655.5000000000016</ele>
        <time>2013-11-09T13:49:38.10</time>
      </trkpt>
      <trkpt lat="38.492378333333335" lon="-1.2549283333333334">
        <ele>1655.1000000000015</ele>
        <time>2013-11-09T13:49:39.11</time>
      </trkpt>
      <trkpt lat="38.49228166666666" lon="-1.2549383333333333">
        <ele>1655.2000000000014</ele>
        <time>2013-11-09T13:49:40.69</time>
      </trkpt>
      <trkpt lat="38.492198333333334" lon="-1.254955">
        <ele>1655.7000000000014</ele>
        <time>2013-11-09T13:49:41.10</time>
      </trkpt>
      <trkpt lat="38.492106666666665" lon="-1.254975">
        <ele>1656.2000000000014</ele>
        <time>2013-11-09T13:49:42.69</time>
      </trkpt>
      <trkpt lat="38.49202833333333" lon="-1.2550333333333334">
        <ele>1656.7000000000014</ele>
        <time>2013-11-09T13:49:43.11</time>
      </trkpt>
      <trkpt lat="38.49194" lon="-1.2551">
        <ele>1657.5000000000014</ele>
        <time>2013-11-09T13:49:44.69</time>
      </trkpt>
      <trkpt lat="38.49184666666667" lon="-1.2551733333333333">
        <ele>1658.4000000000015</ele>
        <time>2013-11-09T13:49:45.10</time>
      </trkpt>
      <trkpt lat="38.49176833333333" lon="-1.2552366666666668">
        <ele>1659.2000000000014</ele>
        <time>2013-11-09T13:49:46.79</time>
      </trkpt>
      <trkpt lat="38.491695" lon="-1.2553">
        <ele>1660.0000000000014</ele>
        <time>2013-11-09T13:49:47.69</time>
      </trkpt>
      <trkpt lat="38.491618333333335" lon="-1.2554066666666666">
        <ele>1660.7000000000014</ele>
        <time>2013-11-09T13:49:48.11</time>
      </trkpt>
      <trkpt lat="38.49155" lon="-1.2555116666666666">
        <ele>1661.8000000000013</ele>
        <time>2013-11-09T13:49:49.11</time>
      </trkpt>
      <trkpt lat="38.49149166666667" lon="-1.255595">
        <ele>1663.2000000000014</ele>
        <time>2013-11-09T13:49:50.69</time>
      </trkpt>
      <trkpt lat="38.49142666666667" lon="-1.2556783333333335">
        <ele>1664.5000000000014</ele>
        <time>2013-11-09T13:49:51.11</time>
      </trkpt>
      <trkpt lat="38.49135833333333" lon="-1.2557583333333333">
        <ele>1665.9000000000015</ele>
        <time>2013-11-09T13:49:52.11</time>
      </trkpt>
      <trkpt lat="38.491315" lon="-1.2558283333333333">
        <ele>1666.9000000000015</ele>
        <time>2013-11-09T13:49:53.11</time>
      </trkpt>
      <trkpt lat="38.49131333333333" lon="-1.255895">
        <ele>1667.7000000000014</ele>
        <time>2013-11-09T13:49:54.11</time>
      </trkpt>
      <trkpt lat="38.491353333333336" lon="-1.2560016666666667">
        <ele>1668.4000000000015</ele>
        <time>2013-11-09T13:49:55.10</time>
      </trkpt>
      <trkpt lat="38.49143333333333" lon="-1.2560716666666667">
        <ele>1669.4000000000015</ele>
        <time>2013-11-09T13:49:56.10</time>
      </trkpt>
      <trkpt lat="38.491506666666666" lon="-1.2560716666666667">
        <ele>1670.0000000000014</ele>
        <time>2013-11-09T13:49:57.11</time>
      </trkpt>
      <trkpt lat="38.491565" lon="-1.2560166666666666">
        <ele>1670.6000000000013</ele>
        <time>2013-11-09T13:49:58.59</time>
      </trkpt>
      <trkpt lat="38.49155666666667" lon="-1.2558916666666666">
        <ele>1671.5000000000014</ele>
        <time>2013-11-09T13:49:59.11</time>
      </trkpt>
      <trkpt lat="38.49148666666667" lon="-1.2557366666666667">
        <ele>1672.4000000000015</ele>
        <time>2013-11-09T13:50:00.11</time>
      </trkpt>
      <trkpt lat="38.49139" lon="-1.2555516666666666">
        <ele>1673.2000000000014</ele>
        <time>2013-11-09T13:50:01.11</time>
      </trkpt>
      <trkpt lat="38.49127333333333" lon="-1.255385">
        <ele>1674.1000000000015</ele>
        <time>2013-11-09T13:50:02.11</time>
      </trkpt>
      <trkpt lat="38.491126666666666" lon="-1.25525">
        <ele>1674.8000000000015</ele>
        <time>2013-11-09T13:50:03.69</time>
      </trkpt>
      <trkpt lat="38.49097666666667" lon="-1.25512">
        <ele>1676.0000000000016</ele>
        <time>2013-11-09T13:50:04.11</time>
      </trkpt>
      <trkpt lat="38.49084166666667" lon="-1.2550333333333334">
        <ele>1678.0000000000016</ele>
        <time>2013-11-09T13:50:05.79</time>
      </trkpt>
      <trkpt lat="38.490715" lon="-1.2550183333333333">
        <ele>1679.7000000000016</ele>
        <time>2013-11-09T13:50:06.79</time>
      </trkpt>
      <trkpt lat="38.49060333333333" lon="-1.2550683333333335">
        <ele>1681.2000000000016</ele>
        <time>2013-11-09T13:50:07.11</time>
      </trkpt>
      <trkpt lat="38.49049" lon="-1.2551483333333333">
        <ele>1682.9000000000017</ele>
        <time>2013-11-09T13:50:08.16</time>
      </trkpt>
      <trkpt lat="38.490385" lon="-1.2552566666666667">
        <ele>1684.3000000000018</ele>
        <time>2013-11-09T13:50:09.11</time>
      </trkpt>
      <trkpt lat="38.49032833333333" lon="-1.2553833333333333">
        <ele>1684.9000000000017</ele>
        <time>2013-11-09T13:50:10.11</time>
      </trkpt>
      <trkpt lat="38.490293333333334" lon="-1.2555100000000001">
        <ele>1685.8000000000018</ele>
        <time>2013-11-09T13:50:11.11</time>
      </trkpt>
      <trkpt lat="38.49035" lon="-1.2556633333333334">
        <ele>1686.5000000000018</ele>
        <time>2013-11-09T13:50:12.18</time>
      </trkpt>
      <trkpt lat="38.490415" lon="-1.2557383333333334">
        <ele>1687.0000000000018</ele>
        <time>2013-11-09T13:50:13.11</time>
      </trkpt>
      <trkpt lat="38.49044166666667" lon="-1.2556933333333333">
        <ele>1691.2000000000019</ele>
        <time>2013-11-09T13:50:15.10</time>
      </trkpt>
      <trkpt lat="38.49037333333333" lon="-1.2555833333333333">
        <ele>1694.0000000000018</ele>
        <time>2013-11-09T13:50:16.11</time>
      </trkpt>
      <trkpt lat="38.49033333333333" lon="-1.2554333333333334">
        <ele>1695.7000000000019</ele>
        <time>2013-11-09T13:50:17.11</time>
      </trkpt>
      <trkpt lat="38.49033333333333" lon="-1.2552983333333334">
        <ele>1696.8000000000018</ele>
        <time>2013-11-09T13:50:18.10</time>
      </trkpt>
      <trkpt lat="38.490345" lon="-1.2551766666666666">
        <ele>1697.8000000000018</ele>
        <time>2013-11-09T13:50:19.10</time>
      </trkpt>
      <trkpt lat="38.490388333333335" lon="-1.2550733333333333">
        <ele>1698.6000000000017</ele>
        <time>2013-11-09T13:50:20.10</time>
      </trkpt>
      <trkpt lat="38.490408333333335" lon="-1.25495">
        <ele>1699.3000000000018</ele>
        <time>2013-11-09T13:50:21.11</time>
      </trkpt>
      <trkpt lat="38.490395" lon="-1.2547966666666666">
        <ele>1699.6000000000017</ele>
        <time>2013-11-09T13:50:22.10</time>
      </trkpt>
      <trkpt lat="38.49036666666667" lon="-1.2546383333333333">
        <ele>1700.2000000000016</ele>
        <time>2013-11-09T13:50:23.14</time>
      </trkpt>
      <trkpt lat="38.490298333333335" lon="-1.2544933333333335">
        <ele>1701.1000000000017</ele>
        <time>2013-11-09T13:50:24.11</time>
      </trkpt>
      <trkpt lat="38.49022333333333" lon="-1.2543516666666668">
        <ele>1701.9000000000017</ele>
        <time>2013-11-09T13:50:25.11</time>
      </trkpt>
      <trkpt lat="38.490143333333336" lon="-1.254225">
        <ele>1701.9000000000017</ele>
        <time>2013-11-09T13:50:26.11</time>
      </trkpt>
      <trkpt lat="38.49006" lon="-1.25409">
        <ele>1701.6000000000017</ele>
        <time>2013-11-09T13:50:27.15</time>
      </trkpt>
      <trkpt lat="38.489961666666666" lon="-1.253945">
        <ele>1700.3000000000018</ele>
        <time>2013-11-09T13:50:28.11</time>
      </trkpt>
      <trkpt lat="38.48986" lon="-1.2538016666666667">
        <ele>1698.2000000000019</ele>
        <time>2013-11-09T13:50:29.10</time>
      </trkpt>
      <trkpt lat="38.489763333333336" lon="-1.2536816666666666">
        <ele>1696.0000000000018</ele>
        <time>2013-11-09T13:50:30.11</time>
      </trkpt>
      <trkpt lat="38.489668333333334" lon="-1.2535733333333332">
        <ele>1694.5000000000018</ele>
        <time>2013-11-09T13:50:31.11</time>
      </trkpt>
      <trkpt lat="38.48958666666667" lon="-1.2534833333333333">
        <ele>1692.7000000000019</ele>
        <time>2013-11-09T13:50:32.69</time>
      </trkpt>
      <trkpt lat="38.489506666666664" lon="-1.253395">
        <ele>1690.900000000002</ele>
        <time>2013-11-09T13:50:33.11</time>
      </trkpt>
      <trkpt lat="38.48941333333333" lon="-1.253275">
        <ele>1689.5000000000018</ele>
        <time>2013-11-09T13:50:34.11</time>
      </trkpt>
      <trkpt lat="38.489325" lon="-1.2531433333333333">
        <ele>1688.8000000000018</ele>
        <time>2013-11-09T13:50:35.11</time>
      </trkpt>
      <trkpt lat="38.48925333333333" lon="-1.2530233333333334">
        <ele>1689.0000000000018</ele>
        <time>2013-11-09T13:50:36.11</time>
      </trkpt>
      <trkpt lat="38.489196666666665" lon="-1.252915">
        <ele>1689.3000000000018</ele>
        <time>2013-11-09T13:50:37.69</time>
      </trkpt>
      <trkpt lat="38.489131666666665" lon="-1.2527916666666667">
        <ele>1689.0000000000018</ele>
        <time>2013-11-09T13:50:38.11</time>
      </trkpt>
      <trkpt lat="38.48907" lon="-1.2526783333333333">
        <ele>1688.6000000000017</ele>
        <time>2013-11-09T13:50:39.11</time>
      </trkpt>
      <trkpt lat="38.488996666666665" lon="-1.25254">
        <ele>1687.7000000000016</ele>
        <time>2013-11-09T13:50:40.11</time>
      </trkpt>
      <trkpt lat="38.48891" lon="-1.252355">
        <ele>1686.8000000000015</ele>
        <time>2013-11-09T13:50:41.79</time>
      </trkpt>
      <trkpt lat="38.488843333333335" lon="-1.25218">
        <ele>1686.7000000000016</ele>
        <time>2013-11-09T13:50:42.11</time>
      </trkpt>
      <trkpt lat="38.48879" lon="-1.2520216666666666">
        <ele>1686.7000000000016</ele>
        <time>2013-11-09T13:50:43.10</time>
      </trkpt>
      <trkpt lat="38.48876166666667" lon="-1.251905">
        <ele>1687.7000000000016</ele>
        <time>2013-11-09T13:50:44.11</time>
      </trkpt>
      <trkpt lat="38.48872166666666" lon="-1.2517633333333333">
        <ele>1689.2000000000016</ele>
        <time>2013-11-09T13:50:45.79</time>
      </trkpt>
      <trkpt lat="38.488685" lon="-1.2516266666666667">
        <ele>1690.6000000000017</ele>
        <time>2013-11-09T13:50:46.11</time>
      </trkpt>
      <trkpt lat="38.48864666666667" lon="-1.2514933333333333">
        <ele>1692.2000000000016</ele>
        <time>2013-11-09T13:50:47.79</time>
      </trkpt>
      <trkpt lat="38.488555" lon="-1.2513483333333333">
        <ele>1693.5000000000016</ele>
        <time>2013-11-09T13:50:48.11</time>
      </trkpt>
      <trkpt lat="38.48845166666667" lon="-1.2512016666666668">
        <ele>1694.6000000000015</ele>
        <time>2013-11-09T13:50:49.11</time>
      </trkpt>
      <trkpt lat="38.48835166666667" lon="-1.2510833333333333">
        <ele>1695.6000000000015</ele>
        <time>2013-11-09T13:50:50.11</time>
      </trkpt>
      <trkpt lat="38.48825166666666" lon="-1.250975">
        <ele>1696.5000000000016</ele>
        <time>2013-11-09T13:50:51.15</time>
      </trkpt>
      <trkpt lat="38.488155" lon="-1.2508733333333333">
        <ele>1696.9000000000017</ele>
        <time>2013-11-09T13:50:52.79</time>
      </trkpt>
      <trkpt lat="38.488063333333336" lon="-1.2507683333333333">
        <ele>1696.7000000000016</ele>
        <time>2013-11-09T13:50:53.11</time>
      </trkpt>
      <trkpt lat="38.487966666666665" lon="-1.2506533333333334">
        <ele>1696.3000000000015</ele>
        <time>2013-11-09T13:50:54.11</time>
      </trkpt>
      <trkpt lat="38.487865" lon="-1.2505316666666666">
        <ele>1695.3000000000015</ele>
        <time>2013-11-09T13:50:55.12</time>
      </trkpt>
      <trkpt lat="38.487768333333335" lon="-1.2504166666666667">
        <ele>1693.8000000000015</ele>
        <time>2013-11-09T13:50:56.11</time>
      </trkpt>
      <trkpt lat="38.487678333333335" lon="-1.2502933333333333">
        <ele>1692.1000000000015</ele>
        <time>2013-11-09T13:50:57.11</time>
      </trkpt>
      <trkpt lat="38.48759833333333" lon="-1.250165">
        <ele>1689.8000000000015</ele>
        <time>2013-11-09T13:50:58.79</time>
      </trkpt>
      <trkpt lat="38.48755166666667" lon="-1.2500183333333332">
        <ele>1687.8000000000015</ele>
        <time>2013-11-09T13:50:59.79</time>
      </trkpt>
      <trkpt lat="38.487503333333336" lon="-1.249875">
        <ele>1685.7000000000016</ele>
        <time>2013-11-09T13:51:00.12</time>
      </trkpt>
      <trkpt lat="38.487453333333335" lon="-1.2497283333333333">
        <ele>1683.8000000000015</ele>
        <time>2013-11-09T13:51:01.69</time>
      </trkpt>
      <trkpt lat="38.487405" lon="-1.2495833333333333">
        <ele>1681.9000000000015</ele>
        <time>2013-11-09T13:51:02.11</time>
      </trkpt>
      <trkpt lat="38.48735833333333" lon="-1.2494483333333333">
        <ele>1679.8000000000015</ele>
        <time>2013-11-09T13:51:03.69</time>
      </trkpt>
      <trkpt lat="38.48730166666667" lon="-1.2492933333333334">
        <ele>1677.5000000000016</ele>
        <time>2013-11-09T13:51:04.12</time>
      </trkpt>
      <trkpt lat="38.487233333333336" lon="-1.2491333333333334">
        <ele>1675.1000000000015</ele>
        <time>2013-11-09T13:51:05.89</time>
      </trkpt>
      <trkpt lat="38.487165" lon="-1.248975">
        <ele>1672.9000000000015</ele>
        <time>2013-11-09T13:51:06.11</time>
      </trkpt>
      <trkpt lat="38.4871" lon="-1.2488233333333334">
        <ele>1670.4000000000015</ele>
        <time>2013-11-09T13:51:07.79</time>
      </trkpt>
      <trkpt lat="38.48703833333333" lon="-1.248665">
        <ele>1667.9000000000015</ele>
        <time>2013-11-09T13:51:08.11</time>
      </trkpt>
      <trkpt lat="38.486981666666665" lon="-1.24851">
        <ele>1665.3000000000015</ele>
        <time>2013-11-09T13:51:09.79</time>
      </trkpt>
      <trkpt lat="38.486915" lon="-1.2483433333333334">
        <ele>1662.3000000000015</ele>
        <time>2013-11-09T13:51:10.12</time>
      </trkpt>
      <trkpt lat="38.486853333333336" lon="-1.2481833333333334">
        <ele>1658.9000000000015</ele>
        <time>2013-11-09T13:51:11.69</time>
      </trkpt>
      <trkpt lat="38.486785" lon="-1.2480133333333334">
        <ele>1655.7000000000014</ele>
        <time>2013-11-09T13:51:12.17</time>
      </trkpt>
      <trkpt lat="38.486716666666666" lon="-1.2478366666666667">
        <ele>1653.0000000000014</ele>
        <time>2013-11-09T13:51:13.69</time>
      </trkpt>
      <trkpt lat="38.48665166666667" lon="-1.2476866666666666">
        <ele>1650.6000000000013</ele>
        <time>2013-11-09T13:51:14.11</time>
      </trkpt>
      <trkpt lat="38.48659166666667" lon="-1.2475633333333334">
        <ele>1648.5000000000014</ele>
        <time>2013-11-09T13:51:15.12</time>
      </trkpt>
      <trkpt lat="38.486533333333334" lon="-1.24745">
        <ele>1646.5000000000014</ele>
        <time>2013-11-09T13:51:16.11</time>
      </trkpt>
      <trkpt lat="38.48647166666667" lon="-1.247325">
        <ele>1644.5000000000014</ele>
        <time>2013-11-09T13:51:17.11</time>
      </trkpt>
      <trkpt lat="38.486415" lon="-1.247195">
        <ele>1642.2000000000014</ele>
        <time>2013-11-09T13:51:18.11</time>
      </trkpt>
      <trkpt lat="38.48634666666667" lon="-1.24704">
        <ele>1640.1000000000015</ele>
        <time>2013-11-09T13:51:19.11</time>
      </trkpt>
      <trkpt lat="38.48627333333334" lon="-1.24688">
        <ele>1638.5000000000016</ele>
        <time>2013-11-09T13:51:20.11</time>
      </trkpt>
      <trkpt lat="38.486203333333336" lon="-1.2467316666666668">
        <ele>1636.7000000000016</ele>
        <time>2013-11-09T13:51:21.11</time>
      </trkpt>
      <trkpt lat="38.486135" lon="-1.2465883333333334">
        <ele>1635.0000000000016</ele>
        <time>2013-11-09T13:51:22.69</time>
      </trkpt>
      <trkpt lat="38.486066666666666" lon="-1.2464416666666667">
        <ele>1633.3000000000015</ele>
        <time>2013-11-09T13:51:23.11</time>
      </trkpt>
      <trkpt lat="38.48600166666667" lon="-1.2463066666666667">
        <ele>1631.6000000000015</ele>
        <time>2013-11-09T13:51:24.11</time>
      </trkpt>
      <trkpt lat="38.48593666666667" lon="-1.246165">
        <ele>1630.2000000000014</ele>
        <time>2013-11-09T13:51:25.11</time>
      </trkpt>
      <trkpt lat="38.485875" lon="-1.2460366666666667">
        <ele>1629.5000000000014</ele>
        <time>2013-11-09T13:51:26.11</time>
      </trkpt>
      <trkpt lat="38.485823333333336" lon="-1.2459333333333333">
        <ele>1629.2000000000014</ele>
        <time>2013-11-09T13:51:27.69</time>
      </trkpt>
      <trkpt lat="38.485775" lon="-1.24583">
        <ele>1629.4000000000015</ele>
        <time>2013-11-09T13:51:28.11</time>
      </trkpt>
      <trkpt lat="38.485726666666665" lon="-1.2457233333333333">
        <ele>1629.4000000000015</ele>
        <time>2013-11-09T13:51:29.16</time>
      </trkpt>
      <trkpt lat="38.48567333333333" lon="-1.2456033333333334">
        <ele>1628.9000000000015</ele>
        <time>2013-11-09T13:51:30.11</time>
      </trkpt>
      <trkpt lat="38.48561333333333" lon="-1.2454666666666667">
        <ele>1628.0000000000014</ele>
        <time>2013-11-09T13:51:31.10</time>
      </trkpt>
      <trkpt lat="38.48553666666667" lon="-1.2453133333333333">
        <ele>1627.4000000000015</ele>
        <time>2013-11-09T13:51:32.16</time>
      </trkpt>
      <trkpt lat="38.485438333333335" lon="-1.2451933333333334">
        <ele>1627.1000000000015</ele>
        <time>2013-11-09T13:51:33.11</time>
      </trkpt>
      <trkpt lat="38.485346666666665" lon="-1.2450933333333334">
        <ele>1627.2000000000014</ele>
        <time>2013-11-09T13:51:34.79</time>
      </trkpt>
      <trkpt lat="38.48527" lon="-1.2450216666666667">
        <ele>1627.8000000000013</ele>
        <time>2013-11-09T13:51:35.11</time>
      </trkpt>
      <trkpt lat="38.485185" lon="-1.2449516666666667">
        <ele>1628.7000000000014</ele>
        <time>2013-11-09T13:51:36.12</time>
      </trkpt>
      <trkpt lat="38.485103333333335" lon="-1.2449083333333333">
        <ele>1629.7000000000014</ele>
        <time>2013-11-09T13:51:37.11</time>
      </trkpt>
      <trkpt lat="38.48499" lon="-1.2448966666666665">
        <ele>1630.4000000000015</ele>
        <time>2013-11-09T13:51:38.11</time>
      </trkpt>
      <trkpt lat="38.484853333333334" lon="-1.24489">
        <ele>1631.2000000000014</ele>
        <time>2013-11-09T13:51:39.79</time>
      </trkpt>
      <trkpt lat="38.484725" lon="-1.2449233333333334">
        <ele>1632.0000000000014</ele>
        <time>2013-11-09T13:51:40.11</time>
      </trkpt>
      <trkpt lat="38.48461" lon="-1.24496">
        <ele>1633.1000000000013</ele>
        <time>2013-11-09T13:51:41.79</time>
      </trkpt>
      <trkpt lat="38.48450833333333" lon="-1.2449983333333332">
        <ele>1634.1000000000013</ele>
        <time>2013-11-09T13:51:42.11</time>
      </trkpt>
      <trkpt lat="38.48441666666667" lon="-1.2450333333333332">
        <ele>1635.0000000000014</ele>
        <time>2013-11-09T13:51:43.11</time>
      </trkpt>
      <trkpt lat="38.48433166666667" lon="-1.2450666666666668">
        <ele>1635.6000000000013</ele>
        <time>2013-11-09T13:51:44.69</time>
      </trkpt>
      <trkpt lat="38.48424833333333" lon="-1.2451050000000001">
        <ele>1636.2000000000012</ele>
        <time>2013-11-09T13:51:45.17</time>
      </trkpt>
      <trkpt lat="38.48415333333333" lon="-1.2451566666666667">
        <ele>1636.2000000000012</ele>
        <time>2013-11-09T13:51:46.69</time>
      </trkpt>
      <trkpt lat="38.48406166666667" lon="-1.24521">
        <ele>1636.1000000000013</ele>
        <time>2013-11-09T13:51:47.11</time>
      </trkpt>
      <trkpt lat="38.48395333333333" lon="-1.245265">
        <ele>1635.6000000000013</ele>
        <time>2013-11-09T13:51:48.69</time>
      </trkpt>
      <trkpt lat="38.48382333333333" lon="-1.2453116666666666">
        <ele>1634.7000000000012</ele>
        <time>2013-11-09T13:51:49.11</time>
      </trkpt>
      <trkpt lat="38.48369666666667" lon="-1.2453416666666666">
        <ele>1633.7000000000012</ele>
        <time>2013-11-09T13:51:50.11</time>
      </trkpt>
      <trkpt lat="38.48355166666666" lon="-1.245305">
        <ele>1633.2000000000012</ele>
        <time>2013-11-09T13:51:51.16</time>
      </trkpt>
      <trkpt lat="38.48343833333333" lon="-1.2452683333333334">
        <ele>1633.1000000000013</ele>
        <time>2013-11-09T13:51:52.11</time>
      </trkpt>
      <trkpt lat="38.483336666666666" lon="-1.2452283333333334">
        <ele>1633.3000000000013</ele>
        <time>2013-11-09T13:51:53.59</time>
      </trkpt>
      <trkpt lat="38.48323833333333" lon="-1.245195">
        <ele>1633.6000000000013</ele>
        <time>2013-11-09T13:51:54.11</time>
      </trkpt>
      <trkpt lat="38.483133333333335" lon="-1.245165">
        <ele>1633.9000000000012</ele>
        <time>2013-11-09T13:51:55.11</time>
      </trkpt>
      <trkpt lat="38.483018333333334" lon="-1.2451349999999999">
        <ele>1633.5000000000011</ele>
        <time>2013-11-09T13:51:56.89</time>
      </trkpt>
      <trkpt lat="38.48289" lon="-1.2451050000000001">
        <ele>1632.800000000001</ele>
        <time>2013-11-09T13:51:57.11</time>
      </trkpt>
      <trkpt lat="38.482746666666664" lon="-1.245075">
        <ele>1632.0000000000011</ele>
        <time>2013-11-09T13:51:58.89</time>
      </trkpt>
      <trkpt lat="38.48262166666667" lon="-1.245045">
        <ele>1631.4000000000012</ele>
        <time>2013-11-09T13:51:59.69</time>
      </trkpt>
      <trkpt lat="38.48251666666667" lon="-1.24501">
        <ele>1630.9000000000012</ele>
        <time>2013-11-09T13:52:00.11</time>
      </trkpt>
      <trkpt lat="38.482435" lon="-1.2449516666666667">
        <ele>1630.7000000000012</ele>
        <time>2013-11-09T13:52:01.12</time>
      </trkpt>
      <trkpt lat="38.482373333333335" lon="-1.244875">
        <ele>1630.800000000001</ele>
        <time>2013-11-09T13:52:02.11</time>
      </trkpt>
      <trkpt lat="38.48231833333333" lon="-1.2447966666666668">
        <ele>1631.0000000000011</ele>
        <time>2013-11-09T13:52:03.11</time>
      </trkpt>
      <trkpt lat="38.482255" lon="-1.2447016666666666">
        <ele>1631.5000000000011</ele>
        <time>2013-11-09T13:52:04.14</time>
      </trkpt>
      <trkpt lat="38.48217833333333" lon="-1.244595">
        <ele>1631.800000000001</ele>
        <time>2013-11-09T13:52:05.12</time>
      </trkpt>
      <trkpt lat="38.48209166666667" lon="-1.2444866666666667">
        <ele>1631.800000000001</ele>
        <time>2013-11-09T13:52:06.69</time>
      </trkpt>
      <trkpt lat="38.481991666666666" lon="-1.2443716666666667">
        <ele>1631.7000000000012</ele>
        <time>2013-11-09T13:52:07.18</time>
      </trkpt>
      <trkpt lat="38.481901666666666" lon="-1.24427">
        <ele>1631.5000000000011</ele>
        <time>2013-11-09T13:52:08.89</time>
      </trkpt>
      <trkpt lat="38.48182166666667" lon="-1.2441783333333334">
        <ele>1630.9000000000012</ele>
        <time>2013-11-09T13:52:09.11</time>
      </trkpt>
      <trkpt lat="38.481741666666665" lon="-1.2440833333333332">
        <ele>1630.1000000000013</ele>
        <time>2013-11-09T13:52:10.79</time>
      </trkpt>
      <trkpt lat="38.48166" lon="-1.2439866666666668">
        <ele>1628.8000000000013</ele>
        <time>2013-11-09T13:52:11.12</time>
      </trkpt>
      <trkpt lat="38.481575" lon="-1.2438916666666666">
        <ele>1627.5000000000014</ele>
        <time>2013-11-09T13:52:12.18</time>
      </trkpt>
      <trkpt lat="38.48148333333334" lon="-1.2437833333333335">
        <ele>1626.3000000000013</ele>
        <time>2013-11-09T13:52:13.79</time>
      </trkpt>
      <trkpt lat="38.481386666666666" lon="-1.24366">
        <ele>1625.2000000000014</ele>
        <time>2013-11-09T13:52:14.11</time>
      </trkpt>
      <trkpt lat="38.481296666666665" lon="-1.2435416666666668">
        <ele>1624.4000000000015</ele>
        <time>2013-11-09T13:52:15.11</time>
      </trkpt>
      <trkpt lat="38.481215" lon="-1.24343">
        <ele>1623.9000000000015</ele>
        <time>2013-11-09T13:52:16.12</time>
      </trkpt>
      <trkpt lat="38.48115333333333" lon="-1.243335">
        <ele>1623.9000000000015</ele>
        <time>2013-11-09T13:52:17.11</time>
      </trkpt>
      <trkpt lat="38.48108166666667" lon="-1.2432083333333332">
        <ele>1623.9000000000015</ele>
        <time>2013-11-09T13:52:18.69</time>
      </trkpt>
      <trkpt lat="38.48101166666667" lon="-1.24307">
        <ele>1623.6000000000015</ele>
        <time>2013-11-09T13:52:19.11</time>
      </trkpt>
      <trkpt lat="38.480945" lon="-1.2429299999999999">
        <ele>1622.8000000000015</ele>
        <time>2013-11-09T13:52:20.11</time>
      </trkpt>
      <trkpt lat="38.480875" lon="-1.2427733333333333">
        <ele>1621.9000000000015</ele>
        <time>2013-11-09T13:52:21.17</time>
      </trkpt>
      <trkpt lat="38.480806666666666" lon="-1.24261">
        <ele>1621.3000000000015</ele>
        <time>2013-11-09T13:52:22.10</time>
      </trkpt>
      <trkpt lat="38.48075166666667" lon="-1.24246">
        <ele>1621.0000000000016</ele>
        <time>2013-11-09T13:52:23.11</time>
      </trkpt>
      <trkpt lat="38.480693333333335" lon="-1.2423033333333333">
        <ele>1621.0000000000016</ele>
        <time>2013-11-09T13:52:24.11</time>
      </trkpt>
      <trkpt lat="38.48063333333333" lon="-1.24215">
        <ele>1621.2000000000016</ele>
        <time>2013-11-09T13:52:25.79</time>
      </trkpt>
      <trkpt lat="38.48057166666667" lon="-1.2420149999999999">
        <ele>1621.3000000000015</ele>
        <time>2013-11-09T13:52:26.12</time>
      </trkpt>
      <trkpt lat="38.4805" lon="-1.2418933333333333">
        <ele>1621.5000000000016</ele>
        <time>2013-11-09T13:52:27.13</time>
      </trkpt>
      <trkpt lat="38.480415" lon="-1.2417666666666667">
        <ele>1621.4000000000017</ele>
        <time>2013-11-09T13:52:28.11</time>
      </trkpt>
      <trkpt lat="38.48032666666667" lon="-1.2416416666666668">
        <ele>1620.7000000000016</ele>
        <time>2013-11-09T13:52:29.11</time>
      </trkpt>
      <trkpt lat="38.48024" lon="-1.24152">
        <ele>1619.7000000000016</ele>
        <time>2013-11-09T13:52:30.11</time>
      </trkpt>
      <trkpt lat="38.480158333333335" lon="-1.2414066666666668">
        <ele>1618.4000000000017</ele>
        <time>2013-11-09T13:52:31.12</time>
      </trkpt>
      <trkpt lat="38.480066666666666" lon="-1.2412816666666666">
        <ele>1616.8000000000018</ele>
        <time>2013-11-09T13:52:32.11</time>
      </trkpt>
      <trkpt lat="38.479978333333335" lon="-1.241155">
        <ele>1615.7000000000019</ele>
        <time>2013-11-09T13:52:33.11</time>
      </trkpt>
      <trkpt lat="38.47989333333334" lon="-1.241025">
        <ele>1614.900000000002</ele>
        <time>2013-11-09T13:52:34.11</time>
      </trkpt>
      <trkpt lat="38.479815" lon="-1.2408883333333334">
        <ele>1614.800000000002</ele>
        <time>2013-11-09T13:52:35.11</time>
      </trkpt>
      <trkpt lat="38.479753333333335" lon="-1.2407783333333333">
        <ele>1615.000000000002</ele>
        <time>2013-11-09T13:52:36.69</time>
      </trkpt>
      <trkpt lat="38.479708333333335" lon="-1.2406983333333335">
        <ele>1615.4000000000021</ele>
        <time>2013-11-09T13:52:37.11</time>
      </trkpt>
      <trkpt lat="38.479663333333335" lon="-1.2406333333333333">
        <ele>1615.700000000002</ele>
        <time>2013-11-09T13:52:38.79</time>
      </trkpt>
      <trkpt lat="38.479615" lon="-1.2405666666666666">
        <ele>1615.6000000000022</ele>
        <time>2013-11-09T13:52:39.89</time>
      </trkpt>
      <trkpt lat="38.47955" lon="-1.2404866666666667">
        <ele>1614.9000000000021</ele>
        <time>2013-11-09T13:52:40.79</time>
      </trkpt>
      <trkpt lat="38.47945833333333" lon="-1.2403866666666667">
        <ele>1614.1000000000022</ele>
        <time>2013-11-09T13:52:41.11</time>
      </trkpt>
      <trkpt lat="38.47934333333333" lon="-1.2402983333333333">
        <ele>1613.3000000000022</ele>
        <time>2013-11-09T13:52:42.11</time>
      </trkpt>
      <trkpt lat="38.47922166666667" lon="-1.2402283333333333">
        <ele>1612.9000000000021</ele>
        <time>2013-11-09T13:52:43.79</time>
      </trkpt>
      <trkpt lat="38.47911" lon="-1.2401733333333333">
        <ele>1612.700000000002</ele>
        <time>2013-11-09T13:52:44.11</time>
      </trkpt>
      <trkpt lat="38.47900833333333" lon="-1.2401233333333335">
        <ele>1612.6000000000022</ele>
        <time>2013-11-09T13:52:45.11</time>
      </trkpt>
      <trkpt lat="38.478905" lon="-1.2400716666666667">
        <ele>1612.3000000000022</ele>
        <time>2013-11-09T13:52:46.11</time>
      </trkpt>
      <trkpt lat="38.47880833333333" lon="-1.2400133333333334">
        <ele>1611.5000000000023</ele>
        <time>2013-11-09T13:52:47.11</time>
      </trkpt>
      <trkpt lat="38.47871" lon="-1.2399533333333332">
        <ele>1610.4000000000024</ele>
        <time>2013-11-09T13:52:48.10</time>
      </trkpt>
      <trkpt lat="38.478608333333334" lon="-1.2398816666666668">
        <ele>1609.2000000000023</ele>
        <time>2013-11-09T13:52:49.12</time>
      </trkpt>
      <trkpt lat="38.47850666666667" lon="-1.239805">
        <ele>1607.8000000000022</ele>
        <time>2013-11-09T13:52:50.11</time>
      </trkpt>
      <trkpt lat="38.47840333333333" lon="-1.2397183333333333">
        <ele>1606.5000000000023</ele>
        <time>2013-11-09T13:52:51.11</time>
      </trkpt>
      <trkpt lat="38.478305" lon="-1.239635">
        <ele>1605.2000000000023</ele>
        <time>2013-11-09T13:52:52.11</time>
      </trkpt>
      <trkpt lat="38.47821666666667" lon="-1.23956">
        <ele>1604.3000000000022</ele>
        <time>2013-11-09T13:52:53.99</time>
      </trkpt>
      <trkpt lat="38.478125" lon="-1.2394816666666666">
        <ele>1603.5000000000023</ele>
        <time>2013-11-09T13:52:54.11</time>
      </trkpt>
      <trkpt lat="38.478031666666666" lon="-1.2393983333333334">
        <ele>1602.7000000000023</ele>
        <time>2013-11-09T13:52:55.11</time>
      </trkpt>
      <trkpt lat="38.477936666666665" lon="-1.2393066666666668">
        <ele>1601.6000000000024</ele>
        <time>2013-11-09T13:52:56.11</time>
      </trkpt>
      <trkpt lat="38.477826666666665" lon="-1.23921">
        <ele>1600.0000000000025</ele>
        <time>2013-11-09T13:52:57.79</time>
      </trkpt>
      <trkpt lat="38.47772333333333" lon="-1.239115">
        <ele>1599.5000000000025</ele>
        <time>2013-11-09T13:52:58.12</time>
      </trkpt>
      <trkpt lat="38.477628333333335" lon="-1.2390266666666667">
        <ele>1599.1000000000024</ele>
        <time>2013-11-09T13:52:59.11</time>
      </trkpt>
      <trkpt lat="38.47754" lon="-1.2389416666666666">
        <ele>1598.8000000000025</ele>
        <time>2013-11-09T13:53:00.11</time>
      </trkpt>
      <trkpt lat="38.47745833333333" lon="-1.2388616666666667">
        <ele>1598.5000000000025</ele>
        <time>2013-11-09T13:53:01.11</time>
      </trkpt>
      <trkpt lat="38.477376666666665" lon="-1.238775">
        <ele>1598.2000000000025</ele>
        <time>2013-11-09T13:53:02.11</time>
      </trkpt>
      <trkpt lat="38.477291666666666" lon="-1.23868">
        <ele>1598.0000000000025</ele>
        <time>2013-11-09T13:53:03.11</time>
      </trkpt>
      <trkpt lat="38.47720833333333" lon="-1.23858">
        <ele>1597.9000000000026</ele>
        <time>2013-11-09T13:53:04.11</time>
      </trkpt>
      <trkpt lat="38.47712666666666" lon="-1.2384766666666667">
        <ele>1598.1000000000026</ele>
        <time>2013-11-09T13:53:05.11</time>
      </trkpt>
      <trkpt lat="38.47705" lon="-1.2383783333333334">
        <ele>1598.3000000000027</ele>
        <time>2013-11-09T13:53:06.11</time>
      </trkpt>
      <trkpt lat="38.476975" lon="-1.238285">
        <ele>1598.4000000000026</ele>
        <time>2013-11-09T13:53:07.11</time>
      </trkpt>
      <trkpt lat="38.4769" lon="-1.2382016666666666">
        <ele>1598.4000000000026</ele>
        <time>2013-11-09T13:53:08.11</time>
      </trkpt>
      <trkpt lat="38.476825" lon="-1.2381166666666668">
        <ele>1598.2000000000025</ele>
        <time>2013-11-09T13:53:09.11</time>
      </trkpt>
      <trkpt lat="38.47673833333333" lon="-1.2380200000000001">
        <ele>1597.7000000000025</ele>
        <time>2013-11-09T13:53:10.11</time>
      </trkpt>
      <trkpt lat="38.476645" lon="-1.2379166666666666">
        <ele>1596.7000000000025</ele>
        <time>2013-11-09T13:53:11.11</time>
      </trkpt>
      <trkpt lat="38.47655666666667" lon="-1.23782">
        <ele>1595.6000000000026</ele>
        <time>2013-11-09T13:53:12.17</time>
      </trkpt>
      <trkpt lat="38.476463333333335" lon="-1.2377166666666666">
        <ele>1594.5000000000027</ele>
        <time>2013-11-09T13:53:13.79</time>
      </trkpt>
      <trkpt lat="38.47639" lon="-1.237625">
        <ele>1593.5000000000027</ele>
        <time>2013-11-09T13:53:14.12</time>
      </trkpt>
      <trkpt lat="38.476346666666664" lon="-1.2375116666666668">
        <ele>1592.2000000000028</ele>
        <time>2013-11-09T13:53:15.79</time>
      </trkpt>
      <trkpt lat="38.476308333333336" lon="-1.2374">
        <ele>1590.7000000000028</ele>
        <time>2013-11-09T13:53:16.11</time>
      </trkpt>
      <trkpt lat="38.476265" lon="-1.2372833333333333">
        <ele>1588.5000000000027</ele>
        <time>2013-11-09T13:53:17.79</time>
      </trkpt>
      <trkpt lat="38.476211666666664" lon="-1.237175">
        <ele>1585.6000000000026</ele>
        <time>2013-11-09T13:53:18.11</time>
      </trkpt>
      <trkpt lat="38.476135" lon="-1.2370766666666666">
        <ele>1582.6000000000026</ele>
        <time>2013-11-09T13:53:19.10</time>
      </trkpt>
      <trkpt lat="38.47606" lon="-1.2369766666666666">
        <ele>1579.3000000000027</ele>
        <time>2013-11-09T13:53:20.11</time>
      </trkpt>
      <trkpt lat="38.47598333333333" lon="-1.2368833333333333">
        <ele>1576.1000000000026</ele>
        <time>2013-11-09T13:53:21.79</time>
      </trkpt>
      <trkpt lat="38.475896666666664" lon="-1.23679">
        <ele>1572.7000000000025</ele>
        <time>2013-11-09T13:53:22.11</time>
      </trkpt>
      <trkpt lat="38.47579833333333" lon="-1.2366866666666667">
        <ele>1569.2000000000025</ele>
        <time>2013-11-09T13:53:23.17</time>
      </trkpt>
      <trkpt lat="38.475696666666664" lon="-1.23658">
        <ele>1565.7000000000025</ele>
        <time>2013-11-09T13:53:24.11</time>
      </trkpt>
      <trkpt lat="38.475593333333336" lon="-1.236465">
        <ele>1562.1000000000026</ele>
        <time>2013-11-09T13:53:25.11</time>
      </trkpt>
      <trkpt lat="38.475498333333334" lon="-1.2363483333333334">
        <ele>1558.7000000000025</ele>
        <time>2013-11-09T13:53:26.11</time>
      </trkpt>
      <trkpt lat="38.475408333333334" lon="-1.2362250000000001">
        <ele>1555.6000000000026</ele>
        <time>2013-11-09T13:53:27.11</time>
      </trkpt>
      <trkpt lat="38.47532" lon="-1.2361033333333333">
        <ele>1552.4000000000026</ele>
        <time>2013-11-09T13:53:28.79</time>
      </trkpt>
      <trkpt lat="38.47524333333333" lon="-1.235985">
        <ele>1549.2000000000025</ele>
        <time>2013-11-09T13:53:29.79</time>
      </trkpt>
      <trkpt lat="38.475165" lon="-1.2358566666666666">
        <ele>1545.8000000000025</ele>
        <time>2013-11-09T13:53:30.11</time>
      </trkpt>
      <trkpt lat="38.475095" lon="-1.23573">
        <ele>1542.2000000000025</ele>
        <time>2013-11-09T13:53:31.18</time>
      </trkpt>
      <trkpt lat="38.475026666666665" lon="-1.2356">
        <ele>1538.0000000000025</ele>
        <time>2013-11-09T13:53:32.11</time>
      </trkpt>
      <trkpt lat="38.47495333333333" lon="-1.23546">
        <ele>1533.7000000000025</ele>
        <time>2013-11-09T13:53:33.79</time>
      </trkpt>
      <trkpt lat="38.474878333333336" lon="-1.2353066666666668">
        <ele>1529.6000000000026</ele>
        <time>2013-11-09T13:53:34.11</time>
      </trkpt>
      <trkpt lat="38.47481166666667" lon="-1.2351516666666666">
        <ele>1526.1000000000026</ele>
        <time>2013-11-09T13:53:35.79</time>
      </trkpt>
      <trkpt lat="38.474745" lon="-1.23499">
        <ele>1523.1000000000026</ele>
        <time>2013-11-09T13:53:36.11</time>
      </trkpt>
      <trkpt lat="38.474685" lon="-1.234835">
        <ele>1520.3000000000027</ele>
        <time>2013-11-09T13:53:37.12</time>
      </trkpt>
      <trkpt lat="38.47463666666667" lon="-1.2347000000000001">
        <ele>1517.6000000000026</ele>
        <time>2013-11-09T13:53:38.11</time>
      </trkpt>
      <trkpt lat="38.47459166666667" lon="-1.23457">
        <ele>1515.0000000000027</ele>
        <time>2013-11-09T13:53:39.11</time>
      </trkpt>
      <trkpt lat="38.474558333333334" lon="-1.2344683333333333">
        <ele>1512.5000000000027</ele>
        <time>2013-11-09T13:53:40.12</time>
      </trkpt>
      <trkpt lat="38.474511666666665" lon="-1.2343333333333333">
        <ele>1510.3000000000027</ele>
        <time>2013-11-09T13:53:41.79</time>
      </trkpt>
      <trkpt lat="38.47445333333334" lon="-1.234185">
        <ele>1508.0000000000027</ele>
        <time>2013-11-09T13:53:42.19</time>
      </trkpt>
      <trkpt lat="38.47439" lon="-1.23404">
        <ele>1505.5000000000027</ele>
        <time>2013-11-09T13:53:43.79</time>
      </trkpt>
      <trkpt lat="38.47433" lon="-1.2339033333333334">
        <ele>1503.0000000000027</ele>
        <time>2013-11-09T13:53:44.11</time>
      </trkpt>
      <trkpt lat="38.47427166666667" lon="-1.2337850000000001">
        <ele>1500.6000000000026</ele>
        <time>2013-11-09T13:53:45.11</time>
      </trkpt>
      <trkpt lat="38.474205" lon="-1.2336583333333333">
        <ele>1497.9000000000026</ele>
        <time>2013-11-09T13:53:46.11</time>
      </trkpt>
      <trkpt lat="38.47411833333334" lon="-1.2335133333333332">
        <ele>1494.8000000000027</ele>
        <time>2013-11-09T13:53:47.11</time>
      </trkpt>
      <trkpt lat="38.474025" lon="-1.2333666666666667">
        <ele>1490.8000000000027</ele>
        <time>2013-11-09T13:53:48.11</time>
      </trkpt>
      <trkpt lat="38.473935" lon="-1.2332216666666667">
        <ele>1486.5000000000027</ele>
        <time>2013-11-09T13:53:49.11</time>
      </trkpt>
      <trkpt lat="38.473845" lon="-1.233075">
        <ele>1482.4000000000028</ele>
        <time>2013-11-09T13:53:50.79</time>
      </trkpt>
      <trkpt lat="38.473776666666666" lon="-1.2329483333333333">
        <ele>1478.7000000000028</ele>
        <time>2013-11-09T13:53:51.11</time>
      </trkpt>
      <trkpt lat="38.47373" lon="-1.2328483333333333">
        <ele>1475.6000000000029</ele>
        <time>2013-11-09T13:53:52.11</time>
      </trkpt>
      <trkpt lat="38.47369" lon="-1.2327583333333334">
        <ele>1472.500000000003</ele>
        <time>2013-11-09T13:53:53.11</time>
      </trkpt>
      <trkpt lat="38.473641666666666" lon="-1.2326483333333333">
        <ele>1469.300000000003</ele>
        <time>2013-11-09T13:53:54.11</time>
      </trkpt>
      <trkpt lat="38.473578333333336" lon="-1.2325116666666667">
        <ele>1465.800000000003</ele>
        <time>2013-11-09T13:53:55.18</time>
      </trkpt>
      <trkpt lat="38.473506666666665" lon="-1.232365">
        <ele>1462.4000000000028</ele>
        <time>2013-11-09T13:53:56.11</time>
      </trkpt>
      <trkpt lat="38.47342833333333" lon="-1.2322116666666667">
        <ele>1459.2000000000028</ele>
        <time>2013-11-09T13:53:57.11</time>
      </trkpt>
      <trkpt lat="38.473353333333336" lon="-1.232075">
        <ele>1456.5000000000027</ele>
        <time>2013-11-09T13:53:58.11</time>
      </trkpt>
      <trkpt lat="38.473283333333335" lon="-1.2319566666666666">
        <ele>1453.8000000000027</ele>
        <time>2013-11-09T13:53:59.69</time>
      </trkpt>
      <trkpt lat="38.473211666666664" lon="-1.23184">
        <ele>1451.1000000000026</ele>
        <time>2013-11-09T13:54:00.20</time>
      </trkpt>
      <trkpt lat="38.47314333333333" lon="-1.2317266666666666">
        <ele>1447.5000000000027</ele>
        <time>2013-11-09T13:54:01.11</time>
      </trkpt>
      <trkpt lat="38.47307" lon="-1.2316016666666667">
        <ele>1443.8000000000027</ele>
        <time>2013-11-09T13:54:02.11</time>
      </trkpt>
      <trkpt lat="38.472986666666664" lon="-1.23147">
        <ele>1440.1000000000026</ele>
        <time>2013-11-09T13:54:03.11</time>
      </trkpt>
      <trkpt lat="38.472896666666664" lon="-1.2313333333333334">
        <ele>1436.8000000000027</ele>
        <time>2013-11-09T13:54:04.11</time>
      </trkpt>
      <trkpt lat="38.47280333333333" lon="-1.2312016666666667">
        <ele>1433.6000000000026</ele>
        <time>2013-11-09T13:54:05.12</time>
      </trkpt>
      <trkpt lat="38.47270833333334" lon="-1.231075">
        <ele>1430.9000000000026</ele>
        <time>2013-11-09T13:54:06.11</time>
      </trkpt>
      <trkpt lat="38.47260833333333" lon="-1.2309433333333333">
        <ele>1428.5000000000025</ele>
        <time>2013-11-09T13:54:07.11</time>
      </trkpt>
      <trkpt lat="38.472516666666664" lon="-1.2308233333333334">
        <ele>1425.8000000000025</ele>
        <time>2013-11-09T13:54:08.11</time>
      </trkpt>
      <trkpt lat="38.472435" lon="-1.2307016666666666">
        <ele>1423.1000000000024</ele>
        <time>2013-11-09T13:54:09.11</time>
      </trkpt>
      <trkpt lat="38.47235666666667" lon="-1.2305683333333333">
        <ele>1420.4000000000024</ele>
        <time>2013-11-09T13:54:10.11</time>
      </trkpt>
      <trkpt lat="38.47228166666667" lon="-1.23043">
        <ele>1417.7000000000023</ele>
        <time>2013-11-09T13:54:11.12</time>
      </trkpt>
      <trkpt lat="38.472213333333336" lon="-1.2302916666666666">
        <ele>1415.2000000000023</ele>
        <time>2013-11-09T13:54:12.25</time>
      </trkpt>
      <trkpt lat="38.47215166666667" lon="-1.2301583333333332">
        <ele>1412.9000000000024</ele>
        <time>2013-11-09T13:54:13.11</time>
      </trkpt>
      <trkpt lat="38.472096666666665" lon="-1.2300283333333333">
        <ele>1410.8000000000025</ele>
        <time>2013-11-09T13:54:14.12</time>
      </trkpt>
      <trkpt lat="38.47204333333333" lon="-1.2298933333333333">
        <ele>1408.6000000000024</ele>
        <time>2013-11-09T13:54:15.11</time>
      </trkpt>
      <trkpt lat="38.47199333333333" lon="-1.229755">
        <ele>1406.2000000000023</ele>
        <time>2013-11-09T13:54:16.12</time>
      </trkpt>
      <trkpt lat="38.47194666666667" lon="-1.2296233333333333">
        <ele>1403.7000000000023</ele>
        <time>2013-11-09T13:54:17.15</time>
      </trkpt>
      <trkpt lat="38.47190166666667" lon="-1.229485">
        <ele>1401.3000000000022</ele>
        <time>2013-11-09T13:54:18.79</time>
      </trkpt>
      <trkpt lat="38.471855" lon="-1.2293466666666666">
        <ele>1399.0000000000023</ele>
        <time>2013-11-09T13:54:19.11</time>
      </trkpt>
      <trkpt lat="38.471803333333334" lon="-1.2292066666666668">
        <ele>1396.5000000000023</ele>
        <time>2013-11-09T13:54:20.11</time>
      </trkpt>
      <trkpt lat="38.47175333333333" lon="-1.22907">
        <ele>1393.9000000000024</ele>
        <time>2013-11-09T13:54:21.12</time>
      </trkpt>
      <trkpt lat="38.47170666666667" lon="-1.2289333333333334">
        <ele>1391.2000000000023</ele>
        <time>2013-11-09T13:54:22.11</time>
      </trkpt>
      <trkpt lat="38.471665" lon="-1.2287883333333334">
        <ele>1388.6000000000024</ele>
        <time>2013-11-09T13:54:23.11</time>
      </trkpt>
      <trkpt lat="38.47162" lon="-1.22864">
        <ele>1386.0000000000025</ele>
        <time>2013-11-09T13:54:24.11</time>
      </trkpt>
      <trkpt lat="38.47156666666667" lon="-1.2284950000000001">
        <ele>1383.5000000000025</ele>
        <time>2013-11-09T13:54:25.11</time>
      </trkpt>
      <trkpt lat="38.47150833333333" lon="-1.2283483333333334">
        <ele>1381.0000000000025</ele>
        <time>2013-11-09T13:54:26.11</time>
      </trkpt>
      <trkpt lat="38.471453333333336" lon="-1.2282083333333333">
        <ele>1378.6000000000024</ele>
        <time>2013-11-09T13:54:27.12</time>
      </trkpt>
      <trkpt lat="38.47140666666667" lon="-1.2280716666666667">
        <ele>1376.2000000000023</ele>
        <time>2013-11-09T13:54:28.11</time>
      </trkpt>
      <trkpt lat="38.471365" lon="-1.22793">
        <ele>1373.7000000000023</ele>
        <time>2013-11-09T13:54:29.69</time>
      </trkpt>
      <trkpt lat="38.47133" lon="-1.2277866666666666">
        <ele>1371.2000000000023</ele>
        <time>2013-11-09T13:54:30.11</time>
      </trkpt>
      <trkpt lat="38.471295" lon="-1.2276383333333334">
        <ele>1369.0000000000023</ele>
        <time>2013-11-09T13:54:31.11</time>
      </trkpt>
      <trkpt lat="38.47125666666667" lon="-1.2274883333333333">
        <ele>1366.8000000000022</ele>
        <time>2013-11-09T13:54:32.13</time>
      </trkpt>
      <trkpt lat="38.47121833333333" lon="-1.2273416666666668">
        <ele>1364.5000000000023</ele>
        <time>2013-11-09T13:54:33.11</time>
      </trkpt>
      <trkpt lat="38.471181666666666" lon="-1.2271966666666667">
        <ele>1362.3000000000022</ele>
        <time>2013-11-09T13:54:34.79</time>
      </trkpt>
      <trkpt lat="38.471145" lon="-1.2270533333333333">
        <ele>1360.0000000000023</ele>
        <time>2013-11-09T13:54:35.11</time>
      </trkpt>
      <trkpt lat="38.47110833333333" lon="-1.2269">
        <ele>1357.7000000000023</ele>
        <time>2013-11-09T13:54:36.11</time>
      </trkpt>
      <trkpt lat="38.471066666666665" lon="-1.2267350000000001">
        <ele>1355.7000000000023</ele>
        <time>2013-11-09T13:54:37.12</time>
      </trkpt>
      <trkpt lat="38.47102833333334" lon="-1.226575">
        <ele>1353.8000000000022</ele>
        <time>2013-11-09T13:54:38.12</time>
      </trkpt>
      <trkpt lat="38.470998333333334" lon="-1.2264133333333334">
        <ele>1352.0000000000023</ele>
        <time>2013-11-09T13:54:39.11</time>
      </trkpt>
      <trkpt lat="38.47097333333333" lon="-1.2262666666666666">
        <ele>1350.4000000000024</ele>
        <time>2013-11-09T13:54:40.69</time>
      </trkpt>
      <trkpt lat="38.47094833333333" lon="-1.2261266666666666">
        <ele>1348.9000000000024</ele>
        <time>2013-11-09T13:54:41.11</time>
      </trkpt>
      <trkpt lat="38.47092166666667" lon="-1.22598">
        <ele>1347.2000000000023</ele>
        <time>2013-11-09T13:54:42.12</time>
      </trkpt>
      <trkpt lat="38.470893333333336" lon="-1.2258333333333333">
        <ele>1345.6000000000024</ele>
        <time>2013-11-09T13:54:43.11</time>
      </trkpt>
      <trkpt lat="38.47086" lon="-1.225685">
        <ele>1344.0000000000025</ele>
        <time>2013-11-09T13:54:44.10</time>
      </trkpt>
      <trkpt lat="38.47082833333333" lon="-1.2255366666666667">
        <ele>1342.3000000000025</ele>
        <time>2013-11-09T13:54:45.99</time>
      </trkpt>
      <trkpt lat="38.470796666666665" lon="-1.22539">
        <ele>1340.6000000000024</ele>
        <time>2013-11-09T13:54:46.11</time>
      </trkpt>
      <trkpt lat="38.47076666666667" lon="-1.2252399999999999">
        <ele>1339.1000000000024</ele>
        <time>2013-11-09T13:54:47.11</time>
      </trkpt>
      <trkpt lat="38.47073833333334" lon="-1.2251016666666668">
        <ele>1337.3000000000025</ele>
        <time>2013-11-09T13:54:48.12</time>
      </trkpt>
      <trkpt lat="38.47071" lon="-1.2249616666666667">
        <ele>1335.5000000000025</ele>
        <time>2013-11-09T13:54:49.11</time>
      </trkpt>
      <trkpt lat="38.470683333333334" lon="-1.224815">
        <ele>1333.4000000000026</ele>
        <time>2013-11-09T13:54:50.11</time>
      </trkpt>
      <trkpt lat="38.47065666666666" lon="-1.224665">
        <ele>1331.1000000000026</ele>
        <time>2013-11-09T13:54:51.11</time>
      </trkpt>
      <trkpt lat="38.47063" lon="-1.22451">
        <ele>1328.7000000000025</ele>
        <time>2013-11-09T13:54:52.11</time>
      </trkpt>
      <trkpt lat="38.4706" lon="-1.22435">
        <ele>1326.1000000000026</ele>
        <time>2013-11-09T13:54:53.14</time>
      </trkpt>
      <trkpt lat="38.47057" lon="-1.2241816666666667">
        <ele>1323.6000000000026</ele>
        <time>2013-11-09T13:54:54.11</time>
      </trkpt>
      <trkpt lat="38.47054333333333" lon="-1.224015">
        <ele>1321.3000000000027</ele>
        <time>2013-11-09T13:54:55.11</time>
      </trkpt>
      <trkpt lat="38.47051833333333" lon="-1.2238566666666666">
        <ele>1319.1000000000026</ele>
        <time>2013-11-09T13:54:56.49</time>
      </trkpt>
      <trkpt lat="38.470495" lon="-1.2237033333333334">
        <ele>1317.0000000000027</ele>
        <time>2013-11-09T13:54:57.49</time>
      </trkpt>
      <trkpt lat="38.47047333333333" lon="-1.2235583333333333">
        <ele>1314.7000000000028</ele>
        <time>2013-11-09T13:54:58.19</time>
      </trkpt>
      <trkpt lat="38.47045333333333" lon="-1.2234116666666668">
        <ele>1312.2000000000028</ele>
        <time>2013-11-09T13:54:59.11</time>
      </trkpt>
      <trkpt lat="38.470438333333334" lon="-1.2232750000000001">
        <ele>1309.3000000000027</ele>
        <time>2013-11-09T13:55:00.11</time>
      </trkpt>
      <trkpt lat="38.47042833333333" lon="-1.2231283333333334">
        <ele>1306.1000000000026</ele>
        <time>2013-11-09T13:55:01.11</time>
      </trkpt>
      <trkpt lat="38.470416666666665" lon="-1.2229733333333332">
        <ele>1303.1000000000026</ele>
        <time>2013-11-09T13:55:02.11</time>
      </trkpt>
      <trkpt lat="38.47040333333333" lon="-1.2228183333333333">
        <ele>1300.1000000000026</ele>
        <time>2013-11-09T13:55:03.11</time>
      </trkpt>
      <trkpt lat="38.47038666666667" lon="-1.2226650000000001">
        <ele>1297.0000000000027</ele>
        <time>2013-11-09T13:55:04.11</time>
      </trkpt>
      <trkpt lat="38.47036833333333" lon="-1.22253">
        <ele>1293.8000000000027</ele>
        <time>2013-11-09T13:55:05.11</time>
      </trkpt>
      <trkpt lat="38.470346666666664" lon="-1.2223816666666667">
        <ele>1290.5000000000027</ele>
        <time>2013-11-09T13:55:06.11</time>
      </trkpt>
      <trkpt lat="38.470325" lon="-1.2222316666666666">
        <ele>1287.1000000000026</ele>
        <time>2013-11-09T13:55:07.12</time>
      </trkpt>
      <trkpt lat="38.4703" lon="-1.22207">
        <ele>1283.6000000000026</ele>
        <time>2013-11-09T13:55:08.14</time>
      </trkpt>
      <trkpt lat="38.47027" lon="-1.2219">
        <ele>1280.4000000000026</ele>
        <time>2013-11-09T13:55:09.11</time>
      </trkpt>
      <trkpt lat="38.47024" lon="-1.2217333333333333">
        <ele>1277.2000000000025</ele>
        <time>2013-11-09T13:55:10.11</time>
      </trkpt>
      <trkpt lat="38.470215" lon="-1.2215583333333333">
        <ele>1274.5000000000025</ele>
        <time>2013-11-09T13:55:11.69</time>
      </trkpt>
      <trkpt lat="38.470191666666665" lon="-1.2214083333333332">
        <ele>1272.1000000000024</ele>
        <time>2013-11-09T13:55:12.20</time>
      </trkpt>
      <trkpt lat="38.470173333333335" lon="-1.221265">
        <ele>1269.7000000000023</ele>
        <time>2013-11-09T13:55:13.11</time>
      </trkpt>
      <trkpt lat="38.470155" lon="-1.2211383333333332">
        <ele>1266.9000000000024</ele>
        <time>2013-11-09T13:55:14.11</time>
      </trkpt>
      <trkpt lat="38.470135" lon="-1.2209983333333334">
        <ele>1264.0000000000023</ele>
        <time>2013-11-09T13:55:15.11</time>
      </trkpt>
      <trkpt lat="38.47011" lon="-1.22085">
        <ele>1260.9000000000024</ele>
        <time>2013-11-09T13:55:16.11</time>
      </trkpt>
      <trkpt lat="38.470081666666665" lon="-1.2207">
        <ele>1257.9000000000024</ele>
        <time>2013-11-09T13:55:17.11</time>
      </trkpt>
      <trkpt lat="38.470058333333334" lon="-1.2205599999999999">
        <ele>1254.9000000000024</ele>
        <time>2013-11-09T13:55:18.20</time>
      </trkpt>
      <trkpt lat="38.47003" lon="-1.2204133333333333">
        <ele>1252.2000000000023</ele>
        <time>2013-11-09T13:55:19.12</time>
      </trkpt>
      <trkpt lat="38.469995" lon="-1.220275">
        <ele>1249.5000000000023</ele>
        <time>2013-11-09T13:55:20.11</time>
      </trkpt>
      <trkpt lat="38.46995666666667" lon="-1.220135">
        <ele>1246.7000000000023</ele>
        <time>2013-11-09T13:55:21.11</time>
      </trkpt>
      <trkpt lat="38.46991833333333" lon="-1.2199833333333334">
        <ele>1243.9000000000024</ele>
        <time>2013-11-09T13:55:22.11</time>
      </trkpt>
      <trkpt lat="38.469881666666666" lon="-1.2198466666666667">
        <ele>1240.9000000000024</ele>
        <time>2013-11-09T13:55:23.11</time>
      </trkpt>
      <trkpt lat="38.46984333333333" lon="-1.2196883333333333">
        <ele>1238.2000000000023</ele>
        <time>2013-11-09T13:55:24.11</time>
      </trkpt>
      <trkpt lat="38.46980833333333" lon="-1.2195466666666666">
        <ele>1235.7000000000023</ele>
        <time>2013-11-09T13:55:25.11</time>
      </trkpt>
      <trkpt lat="38.46977166666667" lon="-1.219405">
        <ele>1233.0000000000023</ele>
        <time>2013-11-09T13:55:26.11</time>
      </trkpt>
      <trkpt lat="38.46973666666667" lon="-1.2192566666666667">
        <ele>1230.2000000000023</ele>
        <time>2013-11-09T13:55:27.11</time>
      </trkpt>
      <trkpt lat="38.469701666666666" lon="-1.21911">
        <ele>1227.1000000000024</ele>
        <time>2013-11-09T13:55:28.11</time>
      </trkpt>
      <trkpt lat="38.46966833333333" lon="-1.2189616666666667">
        <ele>1223.8000000000025</ele>
        <time>2013-11-09T13:55:29.12</time>
      </trkpt>
      <trkpt lat="38.469635" lon="-1.2188116666666666">
        <ele>1220.5000000000025</ele>
        <time>2013-11-09T13:55:30.11</time>
      </trkpt>
      <trkpt lat="38.469605" lon="-1.2186683333333335">
        <ele>1217.4000000000026</ele>
        <time>2013-11-09T13:55:31.11</time>
      </trkpt>
      <trkpt lat="38.46957333333334" lon="-1.2185216666666667">
        <ele>1214.4000000000026</ele>
        <time>2013-11-09T13:55:32.11</time>
      </trkpt>
      <trkpt lat="38.469548333333336" lon="-1.2183766666666667">
        <ele>1211.6000000000026</ele>
        <time>2013-11-09T13:55:33.11</time>
      </trkpt>
      <trkpt lat="38.46952666666667" lon="-1.2182383333333333">
        <ele>1208.8000000000027</ele>
        <time>2013-11-09T13:55:34.11</time>
      </trkpt>
      <trkpt lat="38.46951166666667" lon="-1.2180933333333333">
        <ele>1206.2000000000028</ele>
        <time>2013-11-09T13:55:35.11</time>
      </trkpt>
      <trkpt lat="38.4695" lon="-1.2179466666666667">
        <ele>1203.6000000000029</ele>
        <time>2013-11-09T13:55:36.11</time>
      </trkpt>
      <trkpt lat="38.46949" lon="-1.2178033333333333">
        <ele>1201.300000000003</ele>
        <time>2013-11-09T13:55:37.11</time>
      </trkpt>
      <trkpt lat="38.46948166666667" lon="-1.2176616666666666">
        <ele>1199.000000000003</ele>
        <time>2013-11-09T13:55:38.11</time>
      </trkpt>
      <trkpt lat="38.469475" lon="-1.21752">
        <ele>1196.800000000003</ele>
        <time>2013-11-09T13:55:39.11</time>
      </trkpt>
      <trkpt lat="38.46947" lon="-1.21739">
        <ele>1194.700000000003</ele>
        <time>2013-11-09T13:55:40.11</time>
      </trkpt>
      <trkpt lat="38.46947" lon="-1.2172683333333334">
        <ele>1192.400000000003</ele>
        <time>2013-11-09T13:55:41.11</time>
      </trkpt>
      <trkpt lat="38.469471666666664" lon="-1.21713">
        <ele>1190.100000000003</ele>
        <time>2013-11-09T13:55:42.11</time>
      </trkpt>
      <trkpt lat="38.469475" lon="-1.2169916666666667">
        <ele>1187.700000000003</ele>
        <time>2013-11-09T13:55:43.11</time>
      </trkpt>
      <trkpt lat="38.469478333333335" lon="-1.2168466666666666">
        <ele>1185.400000000003</ele>
        <time>2013-11-09T13:55:44.11</time>
      </trkpt>
      <trkpt lat="38.46948166666667" lon="-1.2167016666666668">
        <ele>1183.3000000000031</ele>
        <time>2013-11-09T13:55:45.79</time>
      </trkpt>
      <trkpt lat="38.469483333333336" lon="-1.2165716666666666">
        <ele>1180.900000000003</ele>
        <time>2013-11-09T13:55:46.11</time>
      </trkpt>
      <trkpt lat="38.46948166666667" lon="-1.2164266666666665">
        <ele>1178.400000000003</ele>
        <time>2013-11-09T13:55:47.11</time>
      </trkpt>
      <trkpt lat="38.46948" lon="-1.2162866666666667">
        <ele>1176.000000000003</ele>
        <time>2013-11-09T13:55:48.11</time>
      </trkpt>
      <trkpt lat="38.469478333333335" lon="-1.2161483333333334">
        <ele>1173.6000000000029</ele>
        <time>2013-11-09T13:55:49.11</time>
      </trkpt>
      <trkpt lat="38.46948" lon="-1.2160083333333334">
        <ele>1171.4000000000028</ele>
        <time>2013-11-09T13:55:50.23</time>
      </trkpt>
      <trkpt lat="38.46948166666667" lon="-1.2158666666666667">
        <ele>1169.300000000003</ele>
        <time>2013-11-09T13:55:51.11</time>
      </trkpt>
      <trkpt lat="38.46948166666667" lon="-1.2157433333333334">
        <ele>1167.200000000003</ele>
        <time>2013-11-09T13:55:52.11</time>
      </trkpt>
      <trkpt lat="38.469478333333335" lon="-1.2156133333333332">
        <ele>1165.200000000003</ele>
        <time>2013-11-09T13:55:53.11</time>
      </trkpt>
      <trkpt lat="38.46947333333333" lon="-1.21548">
        <ele>1163.100000000003</ele>
        <time>2013-11-09T13:55:54.11</time>
      </trkpt>
      <trkpt lat="38.46946333333333" lon="-1.2153466666666666">
        <ele>1161.0000000000032</ele>
        <time>2013-11-09T13:55:55.20</time>
      </trkpt>
      <trkpt lat="38.469455" lon="-1.2152083333333334">
        <ele>1159.0000000000032</ele>
        <time>2013-11-09T13:55:56.11</time>
      </trkpt>
      <trkpt lat="38.46944166666667" lon="-1.2150699999999999">
        <ele>1156.9000000000033</ele>
        <time>2013-11-09T13:55:57.10</time>
      </trkpt>
      <trkpt lat="38.46943" lon="-1.2149316666666667">
        <ele>1154.3000000000034</ele>
        <time>2013-11-09T13:55:58.11</time>
      </trkpt>
      <trkpt lat="38.46942166666667" lon="-1.214785">
        <ele>1151.7000000000035</ele>
        <time>2013-11-09T13:55:59.10</time>
      </trkpt>
      <trkpt lat="38.469413333333335" lon="-1.21464">
        <ele>1149.1000000000035</ele>
        <time>2013-11-09T13:56:00.11</time>
      </trkpt>
      <trkpt lat="38.46941" lon="-1.2145066666666666">
        <ele>1146.7000000000035</ele>
        <time>2013-11-09T13:56:01.12</time>
      </trkpt>
      <trkpt lat="38.46941" lon="-1.214375">
        <ele>1144.2000000000035</ele>
        <time>2013-11-09T13:56:02.11</time>
      </trkpt>
      <trkpt lat="38.469408333333334" lon="-1.2142566666666665">
        <ele>1141.9000000000035</ele>
        <time>2013-11-09T13:56:03.11</time>
      </trkpt>
      <trkpt lat="38.469411666666666" lon="-1.2141383333333333">
        <ele>1139.9000000000035</ele>
        <time>2013-11-09T13:56:04.11</time>
      </trkpt>
      <trkpt lat="38.46941666666667" lon="-1.214015">
        <ele>1138.1000000000035</ele>
        <time>2013-11-09T13:56:05.11</time>
      </trkpt>
      <trkpt lat="38.46942666666666" lon="-1.2138766666666667">
        <ele>1136.6000000000035</ele>
        <time>2013-11-09T13:56:06.11</time>
      </trkpt>
      <trkpt lat="38.46943666666667" lon="-1.2137416666666667">
        <ele>1135.2000000000035</ele>
        <time>2013-11-09T13:56:07.79</time>
      </trkpt>
      <trkpt lat="38.46944333333333" lon="-1.2136033333333334">
        <ele>1134.0000000000034</ele>
        <time>2013-11-09T13:56:08.85</time>
      </trkpt>
      <trkpt lat="38.46944833333333" lon="-1.2134816666666666">
        <ele>1132.8000000000034</ele>
        <time>2013-11-09T13:56:09.34</time>
      </trkpt>
      <trkpt lat="38.469453333333334" lon="-1.2133683333333334">
        <ele>1131.4000000000033</ele>
        <time>2013-11-09T13:56:10.99</time>
      </trkpt>
      <trkpt lat="38.46946333333333" lon="-1.2132683333333334">
        <ele>1129.8000000000034</ele>
        <time>2013-11-09T13:56:11.49</time>
      </trkpt>
      <trkpt lat="38.469478333333335" lon="-1.2131616666666667">
        <ele>1128.3000000000034</ele>
        <time>2013-11-09T13:56:12.49</time>
      </trkpt>
      <trkpt lat="38.469501666666666" lon="-1.213045">
        <ele>1126.8000000000034</ele>
        <time>2013-11-09T13:56:13.89</time>
      </trkpt>
      <trkpt lat="38.46953333333333" lon="-1.2129333333333334">
        <ele>1125.6000000000033</ele>
        <time>2013-11-09T13:56:14.20</time>
      </trkpt>
      <trkpt lat="38.469566666666665" lon="-1.2128333333333332">
        <ele>1124.4000000000033</ele>
        <time>2013-11-09T13:56:15.23</time>
      </trkpt>
      <trkpt lat="38.46960166666667" lon="-1.212745">
        <ele>1123.1000000000033</ele>
        <time>2013-11-09T13:56:16.66</time>
      </trkpt>
      <trkpt lat="38.46973166666667" lon="-1.2125">
        <ele>1118.1</ele>
        <time>2013-11-09T13:56:19.46</time>
      </trkpt>
      <trkpt lat="38.469775" lon="-1.2124283333333334">
        <ele>1115.8</ele>
        <time>2013-11-09T13:56:20.79</time>
      </trkpt>
      <trkpt lat="38.469818333333336" lon="-1.2123483333333334">
        <ele>1113.5</ele>
        <time>2013-11-09T13:56:21.10</time>
      </trkpt>
      <trkpt lat="38.46986" lon="-1.2122633333333332">
        <ele>1111.4</ele>
        <time>2013-11-09T13:56:22.59</time>
      </trkpt>
      <trkpt lat="38.469901666666665" lon="-1.2121783333333334">
        <ele>1109.4</ele>
        <time>2013-11-09T13:56:23.10</time>
      </trkpt>
      <trkpt lat="38.469941666666664" lon="-1.2120883333333334">
        <ele>1107.4</ele>
        <time>2013-11-09T13:56:24.49</time>
      </trkpt>
      <trkpt lat="38.46997833333333" lon="-1.211995">
        <ele>1105.2</ele>
        <time>2013-11-09T13:56:25.12</time>
      </trkpt>
      <trkpt lat="38.47001" lon="-1.2119083333333334">
        <ele>1102.7</ele>
        <time>2013-11-09T13:56:26.21</time>
      </trkpt>
      <trkpt lat="38.47004666666667" lon="-1.2118066666666667">
        <ele>1100.3</ele>
        <time>2013-11-09T13:56:27.79</time>
      </trkpt>
      <trkpt lat="38.47008666666667" lon="-1.2117016666666667">
        <ele>1098.2</ele>
        <time>2013-11-09T13:56:28.12</time>
      </trkpt>
      <trkpt lat="38.47011333333333" lon="-1.2116233333333333">
        <ele>1095.4</ele>
        <time>2013-11-09T13:56:29.12</time>
      </trkpt>
      <trkpt lat="38.47015" lon="-1.2115266666666666">
        <ele>1092.7</ele>
        <time>2013-11-09T13:56:30.11</time>
      </trkpt>
      <trkpt lat="38.47019" lon="-1.2114216666666666">
        <ele>1090.4</ele>
        <time>2013-11-09T13:56:31.11</time>
      </trkpt>
      <trkpt lat="38.47023166666666" lon="-1.211315">
        <ele>1088.5</ele>
        <time>2013-11-09T13:56:32.14</time>
      </trkpt>
      <trkpt lat="38.47027166666667" lon="-1.2112116666666668">
        <ele>1086.9</ele>
        <time>2013-11-09T13:56:33.11</time>
      </trkpt>
      <trkpt lat="38.470308333333335" lon="-1.2111100000000001">
        <ele>1085.5</ele>
        <time>2013-11-09T13:56:34.11</time>
      </trkpt>
      <trkpt lat="38.470346666666664" lon="-1.2110133333333333">
        <ele>1084.1</ele>
        <time>2013-11-09T13:56:35.16</time>
      </trkpt>
      <trkpt lat="38.47038333333333" lon="-1.21092">
        <ele>1082.6999999999998</ele>
        <time>2013-11-09T13:56:36.10</time>
      </trkpt>
      <trkpt lat="38.47042166666667" lon="-1.2108316666666668">
        <ele>1081.1999999999998</ele>
        <time>2013-11-09T13:56:37.11</time>
      </trkpt>
      <trkpt lat="38.470463333333335" lon="-1.21075">
        <ele>1079.4999999999998</ele>
        <time>2013-11-09T13:56:38.11</time>
      </trkpt>
      <trkpt lat="38.470506666666665" lon="-1.210675">
        <ele>1077.5999999999997</ele>
        <time>2013-11-09T13:56:39.11</time>
      </trkpt>
      <trkpt lat="38.470555" lon="-1.210595">
        <ele>1075.7999999999997</ele>
        <time>2013-11-09T13:56:40.89</time>
      </trkpt>
      <trkpt lat="38.47060833333333" lon="-1.21052">
        <ele>1073.8999999999996</ele>
        <time>2013-11-09T13:56:41.12</time>
      </trkpt>
      <trkpt lat="38.470666666666666" lon="-1.2104516666666667">
        <ele>1071.9999999999995</ele>
        <time>2013-11-09T13:56:42.11</time>
      </trkpt>
      <trkpt lat="38.47072" lon="-1.2103966666666666">
        <ele>1070.5999999999995</ele>
        <time>2013-11-09T13:56:43.12</time>
      </trkpt>
      <trkpt lat="38.47078" lon="-1.210335">
        <ele>1069.0999999999995</ele>
        <time>2013-11-09T13:56:44.89</time>
      </trkpt>
      <trkpt lat="38.47083166666667" lon="-1.2102816666666667">
        <ele>1067.7999999999995</ele>
        <time>2013-11-09T13:56:45.11</time>
      </trkpt>
      <trkpt lat="38.47089" lon="-1.2102233333333334">
        <ele>1066.2999999999995</ele>
        <time>2013-11-09T13:56:46.11</time>
      </trkpt>
      <trkpt lat="38.470938333333336" lon="-1.210175">
        <ele>1064.7999999999995</ele>
        <time>2013-11-09T13:56:47.13</time>
      </trkpt>
      <trkpt lat="38.47099" lon="-1.2101216666666668">
        <ele>1063.4999999999995</ele>
        <time>2013-11-09T13:56:48.12</time>
      </trkpt>
      <trkpt lat="38.47105166666667" lon="-1.210055">
        <ele>1062.0999999999995</ele>
        <time>2013-11-09T13:56:49.79</time>
      </trkpt>
      <trkpt lat="38.471113333333335" lon="-1.209985">
        <ele>1060.8999999999994</ele>
        <time>2013-11-09T13:56:50.11</time>
      </trkpt>
      <trkpt lat="38.47117333333333" lon="-1.2099166666666668">
        <ele>1059.6999999999994</ele>
        <time>2013-11-09T13:56:51.11</time>
      </trkpt>
      <trkpt lat="38.471228333333336" lon="-1.2098516666666668">
        <ele>1058.5999999999995</ele>
        <time>2013-11-09T13:56:52.12</time>
      </trkpt>
      <trkpt lat="38.471266666666665" lon="-1.20981">
        <ele>1057.7999999999995</ele>
        <time>2013-11-09T13:56:53.12</time>
      </trkpt>
      <trkpt lat="38.47130833333333" lon="-1.209765">
        <ele>1057.0999999999995</ele>
        <time>2013-11-09T13:56:54.10</time>
      </trkpt>
      <trkpt lat="38.471358333333335" lon="-1.20971">
        <ele>1056.3999999999994</ele>
        <time>2013-11-09T13:56:55.11</time>
      </trkpt>
      <trkpt lat="38.47141666666667" lon="-1.20965">
        <ele>1055.5999999999995</ele>
        <time>2013-11-09T13:56:56.11</time>
      </trkpt>
      <trkpt lat="38.471475" lon="-1.2095883333333333">
        <ele>1054.5999999999995</ele>
        <time>2013-11-09T13:56:57.89</time>
      </trkpt>
      <trkpt lat="38.471531666666664" lon="-1.2095283333333333">
        <ele>1053.3999999999994</ele>
        <time>2013-11-09T13:56:58.12</time>
      </trkpt>
      <trkpt lat="38.471583333333335" lon="-1.209475">
        <ele>1052.0999999999995</ele>
        <time>2013-11-09T13:56:59.12</time>
      </trkpt>
      <trkpt lat="38.47163" lon="-1.209425">
        <ele>1050.7999999999995</ele>
        <time>2013-11-09T13:57:00.12</time>
      </trkpt>
      <trkpt lat="38.47168166666667" lon="-1.2093666666666667">
        <ele>1049.4999999999995</ele>
        <time>2013-11-09T13:57:01.13</time>
      </trkpt>
      <trkpt lat="38.471736666666665" lon="-1.209305">
        <ele>1048.0999999999995</ele>
        <time>2013-11-09T13:57:02.12</time>
      </trkpt>
      <trkpt lat="38.47179166666667" lon="-1.2092416666666668">
        <ele>1046.4999999999995</ele>
        <time>2013-11-09T13:57:03.11</time>
      </trkpt>
      <trkpt lat="38.47184333333333" lon="-1.2092100000000001">
        <ele>1044.3999999999996</ele>
        <time>2013-11-09T13:57:04.11</time>
      </trkpt>
      <trkpt lat="38.4719" lon="-1.2092">
        <ele>1041.9999999999995</ele>
        <time>2013-11-09T13:57:05.11</time>
      </trkpt>
      <trkpt lat="38.47195833333333" lon="-1.20919">
        <ele>1039.5999999999995</ele>
        <time>2013-11-09T13:57:06.12</time>
      </trkpt>
      <trkpt lat="38.47201333333334" lon="-1.2091833333333333">
        <ele>1037.2999999999995</ele>
        <time>2013-11-09T13:57:07.11</time>
      </trkpt>
      <trkpt lat="38.472073333333334" lon="-1.2091683333333334">
        <ele>1035.1999999999996</ele>
        <time>2013-11-09T13:57:08.11</time>
      </trkpt>
      <trkpt lat="38.472135" lon="-1.2091466666666666">
        <ele>1032.9999999999995</ele>
        <time>2013-11-09T13:57:09.11</time>
      </trkpt>
      <trkpt lat="38.47219166666667" lon="-1.2091166666666666">
        <ele>1030.4999999999995</ele>
        <time>2013-11-09T13:57:10.56</time>
      </trkpt>
      <trkpt lat="38.47224833333333" lon="-1.20907">
        <ele>1027.7999999999995</ele>
        <time>2013-11-09T13:57:11.89</time>
      </trkpt>
      <trkpt lat="38.472305" lon="-1.2090133333333333">
        <ele>1025.1999999999996</ele>
        <time>2013-11-09T13:57:12.12</time>
      </trkpt>
      <trkpt lat="38.472366666666666" lon="-1.208955">
        <ele>1022.7999999999996</ele>
        <time>2013-11-09T13:57:13.12</time>
      </trkpt>
      <trkpt lat="38.472431666666665" lon="-1.2088933333333334">
        <ele>1020.4999999999997</ele>
        <time>2013-11-09T13:57:14.12</time>
      </trkpt>
      <trkpt lat="38.47249166666667" lon="-1.2088383333333335">
        <ele>1018.2999999999996</ele>
        <time>2013-11-09T13:57:15.31</time>
      </trkpt>
      <trkpt lat="38.472545" lon="-1.2087916666666667">
        <ele>1016.2999999999996</ele>
        <time>2013-11-09T13:57:16.12</time>
      </trkpt>
      <trkpt lat="38.472595" lon="-1.2087483333333333">
        <ele>1014.3999999999996</ele>
        <time>2013-11-09T13:57:17.12</time>
      </trkpt>
      <trkpt lat="38.472645" lon="-1.20871">
        <ele>1012.3999999999996</ele>
        <time>2013-11-09T13:57:19.10</time>
      </trkpt>
      <trkpt lat="38.472696666666664" lon="-1.2086766666666666">
        <ele>1010.0999999999997</ele>
        <time>2013-11-09T13:57:19.91</time>
      </trkpt>
      <trkpt lat="38.472748333333335" lon="-1.2086616666666667">
        <ele>1007.5999999999997</ele>
        <time>2013-11-09T13:57:21.23</time>
      </trkpt>
      <trkpt lat="38.47280166666667" lon="-1.2086516666666667">
        <ele>1005.1999999999997</ele>
        <time>2013-11-09T13:57:21.93</time>
      </trkpt>
      <trkpt lat="38.472855" lon="-1.2086483333333333">
        <ele>1002.8999999999997</ele>
        <time>2013-11-09T13:57:22.95</time>
      </trkpt>
      <trkpt lat="38.47290666666667" lon="-1.2086433333333333">
        <ele>1000.7999999999997</ele>
        <time>2013-11-09T13:57:23.96</time>
      </trkpt>
      <trkpt lat="38.47294333333333" lon="-1.2086299999999999">
        <ele>998.5999999999997</ele>
        <time>2013-11-09T13:57:24.95</time>
      </trkpt>
      <trkpt lat="38.472971666666666" lon="-1.208615">
        <ele>996.0999999999997</ele>
        <time>2013-11-09T13:57:25.92</time>
      </trkpt>
      <trkpt lat="38.47301" lon="-1.2085933333333334">
        <ele>994.0999999999997</ele>
        <time>2013-11-09T13:57:26.92</time>
      </trkpt>
      <trkpt lat="38.47306" lon="-1.2085716666666666">
        <ele>991.8999999999996</ele>
        <time>2013-11-09T13:57:27.97</time>
      </trkpt>
      <trkpt lat="38.47311" lon="-1.2085466666666667">
        <ele>989.7999999999996</ele>
        <time>2013-11-09T13:57:28.91</time>
      </trkpt>
      <trkpt lat="38.47315666666667" lon="-1.20852">
        <ele>987.4999999999997</ele>
        <time>2013-11-09T13:57:29.90</time>
      </trkpt>
      <trkpt lat="38.47320333333333" lon="-1.2084933333333334">
        <ele>985.1999999999997</ele>
        <time>2013-11-09T13:57:30.94</time>
      </trkpt>
      <trkpt lat="38.47324666666667" lon="-1.20847">
        <ele>982.8999999999997</ele>
        <time>2013-11-09T13:57:31.94</time>
      </trkpt>
      <trkpt lat="38.473325" lon="-1.2084483333333333">
        <ele>977.7</ele>
        <time>2013-11-09T13:57:34.75</time>
      </trkpt>
      <trkpt lat="38.47336333333333" lon="-1.2084383333333333">
        <ele>974.9000000000001</ele>
        <time>2013-11-09T13:57:34.91</time>
      </trkpt>
      <trkpt lat="38.47340166666667" lon="-1.2084333333333332">
        <ele>972.2</ele>
        <time>2013-11-09T13:57:35.96</time>
      </trkpt>
      <trkpt lat="38.473443333333336" lon="-1.20843">
        <ele>969.4000000000001</ele>
        <time>2013-11-09T13:57:36.91</time>
      </trkpt>
      <trkpt lat="38.473486666666666" lon="-1.20843">
        <ele>966.8000000000001</ele>
        <time>2013-11-09T13:57:37.93</time>
      </trkpt>
      <trkpt lat="38.47353" lon="-1.2084333333333332">
        <ele>964.4000000000001</ele>
        <time>2013-11-09T13:57:38.93</time>
      </trkpt>
      <trkpt lat="38.473573333333334" lon="-1.2084383333333333">
        <ele>961.9000000000001</ele>
        <time>2013-11-09T13:57:39.93</time>
      </trkpt>
      <trkpt lat="38.473618333333334" lon="-1.20844">
        <ele>959.3000000000001</ele>
        <time>2013-11-09T13:57:40.90</time>
      </trkpt>
      <trkpt lat="38.473665" lon="-1.2084416666666666">
        <ele>956.7</ele>
        <time>2013-11-09T13:57:42.9</time>
      </trkpt>
      <trkpt lat="38.4737" lon="-1.2084383333333333">
        <ele>954.3000000000001</ele>
        <time>2013-11-09T13:57:42.95</time>
      </trkpt>
      <trkpt lat="38.473733333333335" lon="-1.2084366666666666">
        <ele>952.0000000000001</ele>
        <time>2013-11-09T13:57:43.90</time>
      </trkpt>
      <trkpt lat="38.473765" lon="-1.2084383333333333">
        <ele>949.8000000000001</ele>
        <time>2013-11-09T13:57:45.10</time>
      </trkpt>
      <trkpt lat="38.473795" lon="-1.20844">
        <ele>947.9000000000001</ele>
        <time>2013-11-09T13:57:45.90</time>
      </trkpt>
      <trkpt lat="38.473818333333334" lon="-1.20844">
        <ele>947.7</ele>
        <time>2013-11-09T13:57:46.93</time>
      </trkpt>
      <trkpt lat="38.47384" lon="-1.20844">
        <ele>947.5</ele>
        <time>2013-11-09T13:57:47.97</time>
      </trkpt>
      <trkpt lat="38.473866666666666" lon="-1.2084416666666666">
        <ele>947.3</ele>
        <time>2013-11-09T13:57:48.96</time>
      </trkpt>
      <trkpt lat="38.473888333333335" lon="-1.2084433333333333">
        <ele>947</ele>
        <time>2013-11-09T13:57:49.98</time>
      </trkpt>
      <trkpt lat="38.47392333333333" lon="-1.2084433333333333">
        <ele>944.6</ele>
        <time>2013-11-09T13:57:50.99</time>
      </trkpt>
      <trkpt lat="38.47396333333333" lon="-1.2084383333333333">
        <ele>942.3000000000001</ele>
        <time>2013-11-09T13:57:51.92</time>
      </trkpt>
      <trkpt lat="38.474001666666666" lon="-1.20841">
        <ele>940.4000000000001</ele>
        <time>2013-11-09T13:57:52.97</time>
      </trkpt>
      <trkpt lat="38.47403333333333" lon="-1.2083599999999999">
        <ele>938.8000000000001</ele>
        <time>2013-11-09T13:57:53.96</time>
      </trkpt>
      <trkpt lat="38.474068333333335" lon="-1.2083083333333333">
        <ele>937.3000000000001</ele>
        <time>2013-11-09T13:57:55.69</time>
      </trkpt>
      <trkpt lat="38.47410166666667" lon="-1.208265">
        <ele>935.7</ele>
        <time>2013-11-09T13:57:55.96</time>
      </trkpt>
      <trkpt lat="38.474136666666666" lon="-1.208225">
        <ele>934.1</ele>
        <time>2013-11-09T13:57:56.97</time>
      </trkpt>
      <trkpt lat="38.47418666666667" lon="-1.2081716666666666">
        <ele>932.4</ele>
        <time>2013-11-09T13:57:57.96</time>
      </trkpt>
      <trkpt lat="38.47425166666667" lon="-1.2080883333333334">
        <ele>930.8</ele>
        <time>2013-11-09T13:57:58.97</time>
      </trkpt>
      <trkpt lat="38.474318333333336" lon="-1.2079900000000001">
        <ele>929.4</ele>
        <time>2013-11-09T13:57:59.97</time>
      </trkpt>
      <trkpt lat="38.47437333333333" lon="-1.2079066666666667">
        <ele>928.1999999999999</ele>
        <time>2013-11-09T13:58:00.93</time>
      </trkpt>
      <trkpt lat="38.47441" lon="-1.20785">
        <ele>927.0999999999999</ele>
        <time>2013-11-09T13:58:01.91</time>
      </trkpt>
      <trkpt lat="38.47444333333333" lon="-1.2077966666666666">
        <ele>926.3</ele>
        <time>2013-11-09T13:58:02.97</time>
      </trkpt>
      <trkpt lat="38.47447666666667" lon="-1.2077316666666666">
        <ele>925.4</ele>
        <time>2013-11-09T13:58:03.96</time>
      </trkpt>
      <trkpt lat="38.47450666666667" lon="-1.2076683333333333">
        <ele>924.3</ele>
        <time>2013-11-09T13:58:04.97</time>
      </trkpt>
      <trkpt lat="38.47454166666667" lon="-1.207605">
        <ele>923.0999999999999</ele>
        <time>2013-11-09T13:58:06.89</time>
      </trkpt>
      <trkpt lat="38.474581666666666" lon="-1.207565">
        <ele>921.8</ele>
        <time>2013-11-09T13:58:06.97</time>
      </trkpt>
      <trkpt lat="38.47461833333333" lon="-1.20753">
        <ele>920.4</ele>
        <time>2013-11-09T13:58:08.39</time>
      </trkpt>
      <trkpt lat="38.474648333333334" lon="-1.207495">
        <ele>919.1</ele>
        <time>2013-11-09T13:58:08.97</time>
      </trkpt>
      <trkpt lat="38.47467833333333" lon="-1.2074583333333333">
        <ele>917.7</ele>
        <time>2013-11-09T13:58:09.96</time>
      </trkpt>
      <trkpt lat="38.47470666666667" lon="-1.20744">
        <ele>916.1</ele>
        <time>2013-11-09T13:58:10.97</time>
      </trkpt>
      <trkpt lat="38.474743333333336" lon="-1.20744">
        <ele>914.4</ele>
        <time>2013-11-09T13:58:12.39</time>
      </trkpt>
      <trkpt lat="38.474781666666665" lon="-1.2074383333333334">
        <ele>914.3</ele>
        <time>2013-11-09T13:58:12.97</time>
      </trkpt>
      <trkpt lat="38.474826666666665" lon="-1.2074333333333334">
        <ele>912.4</ele>
        <time>2013-11-09T13:58:13.96</time>
      </trkpt>
      <trkpt lat="38.474866666666664" lon="-1.2074233333333333">
        <ele>910.9</ele>
        <time>2013-11-09T13:58:14.97</time>
      </trkpt>
      <trkpt lat="38.474905" lon="-1.2074133333333332">
        <ele>910.6999999999999</ele>
        <time>2013-11-09T13:58:15.97</time>
      </trkpt>
      <trkpt lat="38.47493333333333" lon="-1.2074066666666667">
        <ele>910.5999999999999</ele>
        <time>2013-11-09T13:58:16.97</time>
      </trkpt>
      <trkpt lat="38.47497" lon="-1.2073883333333333">
        <ele>908.8999999999999</ele>
        <time>2013-11-09T13:58:17.96</time>
      </trkpt>
      <trkpt lat="38.47502166666666" lon="-1.2073583333333333">
        <ele>907.1999999999998</ele>
        <time>2013-11-09T13:58:18.97</time>
      </trkpt>
      <trkpt lat="38.475078333333336" lon="-1.2073266666666667">
        <ele>905.6999999999998</ele>
        <time>2013-11-09T13:58:19.96</time>
      </trkpt>
      <trkpt lat="38.47513166666667" lon="-1.2072933333333333">
        <ele>904.2999999999998</ele>
        <time>2013-11-09T13:58:20.94</time>
      </trkpt>
      <trkpt lat="38.475168333333336" lon="-1.2072766666666666">
        <ele>904.0999999999998</ele>
        <time>2013-11-09T13:58:21.97</time>
      </trkpt>
      <trkpt lat="38.475208333333335" lon="-1.2072783333333335">
        <ele>903.9999999999998</ele>
        <time>2013-11-09T13:58:22.97</time>
      </trkpt>
      <trkpt lat="38.47524166666667" lon="-1.20729">
        <ele>903.7999999999997</ele>
        <time>2013-11-09T13:58:23.96</time>
      </trkpt>
      <trkpt lat="38.47528833333333" lon="-1.2073083333333332">
        <ele>901.8999999999997</ele>
        <time>2013-11-09T13:58:24.97</time>
      </trkpt>
      <trkpt lat="38.475343333333335" lon="-1.2072983333333334">
        <ele>900.4999999999998</ele>
        <time>2013-11-09T13:58:25.96</time>
      </trkpt>
      <trkpt lat="38.475395" lon="-1.207275">
        <ele>899.6999999999998</ele>
        <time>2013-11-09T13:58:26.96</time>
      </trkpt>
      <trkpt lat="38.47544833333333" lon="-1.2072433333333334">
        <ele>899.1999999999998</ele>
        <time>2013-11-09T13:58:27.96</time>
      </trkpt>
      <trkpt lat="38.47549166666667" lon="-1.2072066666666665">
        <ele>898.8999999999999</ele>
        <time>2013-11-09T13:58:28.97</time>
      </trkpt>
      <trkpt lat="38.47552833333334" lon="-1.2071749999999999">
        <ele>899.1999999999998</ele>
        <time>2013-11-09T13:58:29.97</time>
      </trkpt>
      <trkpt lat="38.47557166666667" lon="-1.207145">
        <ele>899.8999999999999</ele>
        <time>2013-11-09T13:58:30.96</time>
      </trkpt>
      <trkpt lat="38.47560333333333" lon="-1.2071183333333333">
        <ele>900.9999999999999</ele>
        <time>2013-11-09T13:58:31.93</time>
      </trkpt>
      <trkpt lat="38.47564166666667" lon="-1.207065">
        <ele>902.5999999999999</ele>
        <time>2013-11-09T13:58:32.97</time>
      </trkpt>
      <trkpt lat="38.47567166666666" lon="-1.2070133333333333">
        <ele>904.3999999999999</ele>
        <time>2013-11-09T13:58:33.97</time>
      </trkpt>
      <trkpt lat="38.47571" lon="-1.2069433333333333">
        <ele>906.5999999999999</ele>
        <time>2013-11-09T13:58:34.97</time>
      </trkpt>
      <trkpt lat="38.47574" lon="-1.206855">
        <ele>908.6999999999999</ele>
        <time>2013-11-09T13:58:35.96</time>
      </trkpt>
      <trkpt lat="38.47576333333333" lon="-1.2067266666666667">
        <ele>910.4</ele>
        <time>2013-11-09T13:58:36.96</time>
      </trkpt>
      <trkpt lat="38.475786666666664" lon="-1.2065866666666667">
        <ele>911.9</ele>
        <time>2013-11-09T13:58:37.96</time>
      </trkpt>
      <trkpt lat="38.47581" lon="-1.2064166666666667">
        <ele>913.3</ele>
        <time>2013-11-09T13:58:38.98</time>
      </trkpt>
      <trkpt lat="38.475805" lon="-1.20623">
        <ele>914.5</ele>
        <time>2013-11-09T13:58:39.97</time>
      </trkpt>
      <trkpt lat="38.47575666666667" lon="-1.206045">
        <ele>915.6</ele>
        <time>2013-11-09T13:58:40.98</time>
      </trkpt>
      <trkpt lat="38.475658333333335" lon="-1.2058783333333334">
        <ele>916.2</ele>
        <time>2013-11-09T13:58:41.96</time>
      </trkpt>
      <trkpt lat="38.47552666666667" lon="-1.2057466666666667">
        <ele>916</ele>
        <time>2013-11-09T13:58:42.98</time>
      </trkpt>
      <trkpt lat="38.475361666666664" lon="-1.20566">
        <ele>915.6</ele>
        <time>2013-11-09T13:58:43.97</time>
      </trkpt>
      <trkpt lat="38.47519833333333" lon="-1.205635">
        <ele>915.2</ele>
        <time>2013-11-09T13:58:44.96</time>
      </trkpt>
      <trkpt lat="38.475065" lon="-1.20566">
        <ele>914.6</ele>
        <time>2013-11-09T13:58:45.96</time>
      </trkpt>
      <trkpt lat="38.47495833333333" lon="-1.2057133333333334">
        <ele>913.9</ele>
        <time>2013-11-09T13:58:47.49</time>
      </trkpt>
      <trkpt lat="38.47490833333333" lon="-1.2058033333333333">
        <ele>914.1999999999999</ele>
        <time>2013-11-09T13:58:47.92</time>
      </trkpt>
      <trkpt lat="38.474911666666664" lon="-1.2059133333333334">
        <ele>914.5999999999999</ele>
        <time>2013-11-09T13:58:48.97</time>
      </trkpt>
      <trkpt lat="38.47492333333334" lon="-1.2059616666666666">
        <ele>914.6999999999999</ele>
        <time>2013-11-09T13:58:49.97</time>
      </trkpt>
      <trkpt lat="38.47494833333333" lon="-1.2059966666666666">
        <ele>914.6999999999999</ele>
        <time>2013-11-09T13:58:50.97</time>
      </trkpt>
      <trkpt lat="38.47497666666667" lon="-1.2060266666666666">
        <ele>914.8</ele>
        <time>2013-11-09T13:58:51.93</time>
      </trkpt>
      <trkpt lat="38.475001666666664" lon="-1.2060483333333334">
        <ele>915.5</ele>
        <time>2013-11-09T13:58:54.97</time>
      </trkpt>
      <trkpt lat="38.475015" lon="-1.2060733333333333">
        <ele>915.7</ele>
        <time>2013-11-09T13:58:55.97</time>
      </trkpt>
      <trkpt lat="38.47503" lon="-1.2061083333333333">
        <ele>916.1</ele>
        <time>2013-11-09T13:58:56.91</time>
      </trkpt>
      <trkpt lat="38.475045" lon="-1.206165">
        <ele>916.4</ele>
        <time>2013-11-09T13:58:57.97</time>
      </trkpt>
      <trkpt lat="38.475033333333336" lon="-1.2062283333333332">
        <ele>919.9</ele>
        <time>2013-11-09T13:58:58.96</time>
      </trkpt>
      <trkpt lat="38.47497" lon="-1.206315">
        <ele>923.4</ele>
        <time>2013-11-09T13:58:59.97</time>
      </trkpt>
      <trkpt lat="38.474875" lon="-1.2063666666666666">
        <ele>926.6</ele>
        <time>2013-11-09T13:59:00.96</time>
      </trkpt>
      <trkpt lat="38.474763333333335" lon="-1.2063866666666667">
        <ele>929.2</ele>
        <time>2013-11-09T13:59:01.97</time>
      </trkpt>
      <trkpt lat="38.47463" lon="-1.2063433333333333">
        <ele>931.2</ele>
        <time>2013-11-09T13:59:02.97</time>
      </trkpt>
      <trkpt lat="38.47446333333333" lon="-1.2062816666666667">
        <ele>932.1</ele>
        <time>2013-11-09T13:59:03.96</time>
      </trkpt>
      <trkpt lat="38.474356666666665" lon="-1.2060566666666666">
        <ele>933.1</ele>
        <time>2013-11-09T13:59:04.96</time>
      </trkpt>
      <trkpt lat="38.47432833333333" lon="-1.2058316666666666">
        <ele>934.4</ele>
        <time>2013-11-09T13:59:05.96</time>
      </trkpt>
      <trkpt lat="38.47430833333333" lon="-1.2056266666666666">
        <ele>935.6</ele>
        <time>2013-11-09T13:59:06.98</time>
      </trkpt>
      <trkpt lat="38.47435333333333" lon="-1.2055083333333334">
        <ele>936.3000000000001</ele>
        <time>2013-11-09T13:59:07.97</time>
      </trkpt>
      <trkpt lat="38.474395" lon="-1.2054333333333334">
        <ele>937.6</ele>
        <time>2013-11-09T13:59:08.97</time>
      </trkpt>
      <trkpt lat="38.47444333333333" lon="-1.2053916666666666">
        <ele>938.8000000000001</ele>
        <time>2013-11-09T13:59:09.93</time>
      </trkpt>
      <trkpt lat="38.474525" lon="-1.20534">
        <ele>941.1</ele>
        <time>2013-11-09T13:59:10.92</time>
      </trkpt>
      <trkpt lat="38.47459166666667" lon="-1.2053083333333334">
        <ele>943.7</ele>
        <time>2013-11-09T13:59:12.33</time>
      </trkpt>
      <trkpt lat="38.47465166666667" lon="-1.2053033333333334">
        <ele>946.2</ele>
        <time>2013-11-09T13:59:12.96</time>
      </trkpt>
      <trkpt lat="38.47470666666667" lon="-1.205335">
        <ele>948.7</ele>
        <time>2013-11-09T13:59:13.96</time>
      </trkpt>
      <trkpt lat="38.47473166666666" lon="-1.2054066666666667">
        <ele>951.3000000000001</ele>
        <time>2013-11-09T13:59:15.79</time>
      </trkpt>
      <trkpt lat="38.474736666666665" lon="-1.2054966666666667">
        <ele>954.2</ele>
        <time>2013-11-09T13:59:15.96</time>
      </trkpt>
      <trkpt lat="38.47470166666667" lon="-1.205595">
        <ele>956.9000000000001</ele>
        <time>2013-11-09T13:59:16.99</time>
      </trkpt>
      <trkpt lat="38.47464166666666" lon="-1.205665">
        <ele>958.9000000000001</ele>
        <time>2013-11-09T13:59:17.97</time>
      </trkpt>
      <trkpt lat="38.47454" lon="-1.2057183333333334">
        <ele>961.1000000000001</ele>
        <time>2013-11-09T13:59:18.97</time>
      </trkpt>
      <trkpt lat="38.47441833333333" lon="-1.2057366666666667">
        <ele>962.8000000000002</ele>
        <time>2013-11-09T13:59:19.96</time>
      </trkpt>
      <trkpt lat="38.474293333333335" lon="-1.2057366666666667">
        <ele>964.5000000000002</ele>
        <time>2013-11-09T13:59:20.93</time>
      </trkpt>
      <trkpt lat="38.474158333333335" lon="-1.20568">
        <ele>966.0000000000002</ele>
        <time>2013-11-09T13:59:21.93</time>
      </trkpt>
      <trkpt lat="38.47402" lon="-1.2055483333333332">
        <ele>966.5000000000002</ele>
        <time>2013-11-09T13:59:22.92</time>
      </trkpt>
      <trkpt lat="38.473925" lon="-1.2053783333333334">
        <ele>966.9000000000002</ele>
        <time>2013-11-09T13:59:23.98</time>
      </trkpt>
      <trkpt lat="38.47389" lon="-1.2051883333333333">
        <ele>967.0000000000002</ele>
        <time>2013-11-09T13:59:24.99</time>
      </trkpt>
      <trkpt lat="38.47387833333333" lon="-1.2049933333333334">
        <ele>967.2000000000003</ele>
        <time>2013-11-09T13:59:26.9</time>
      </trkpt>
      <trkpt lat="38.47389666666667" lon="-1.2048133333333333">
        <ele>967.9000000000003</ele>
        <time>2013-11-09T13:59:26.92</time>
      </trkpt>
      <trkpt lat="38.47392166666667" lon="-1.204685">
        <ele>968.8000000000003</ele>
        <time>2013-11-09T13:59:27.97</time>
      </trkpt>
      <trkpt lat="38.47398" lon="-1.2046000000000001">
        <ele>969.8000000000003</ele>
        <time>2013-11-09T13:59:28.97</time>
      </trkpt>
      <trkpt lat="38.47403166666667" lon="-1.204535">
        <ele>970.9000000000003</ele>
        <time>2013-11-09T13:59:29.97</time>
      </trkpt>
      <trkpt lat="38.474086666666665" lon="-1.2044716666666666">
        <ele>972.0000000000003</ele>
        <time>2013-11-09T13:59:30.93</time>
      </trkpt>
      <trkpt lat="38.474136666666666" lon="-1.204415">
        <ele>972.8000000000003</ele>
        <time>2013-11-09T13:59:31.99</time>
      </trkpt>
      <trkpt lat="38.47418166666667" lon="-1.2043583333333334">
        <ele>973.6000000000003</ele>
        <time>2013-11-09T13:59:32.97</time>
      </trkpt>
      <trkpt lat="38.474221666666665" lon="-1.2043016666666666">
        <ele>974.3000000000003</ele>
        <time>2013-11-09T13:59:33.96</time>
      </trkpt>
      <trkpt lat="38.474268333333335" lon="-1.2042616666666666">
        <ele>974.5000000000003</ele>
        <time>2013-11-09T13:59:34.97</time>
      </trkpt>
      <trkpt lat="38.47432833333333" lon="-1.204235">
        <ele>974.7000000000004</ele>
        <time>2013-11-09T13:59:35.97</time>
      </trkpt>
      <trkpt lat="38.47439166666667" lon="-1.204225">
        <ele>975.1000000000004</ele>
        <time>2013-11-09T13:59:36.92</time>
      </trkpt>
      <trkpt lat="38.47443666666667" lon="-1.2042283333333335">
        <ele>975.1000000000004</ele>
        <time>2013-11-09T13:59:37.97</time>
      </trkpt>
      <trkpt lat="38.474466666666665" lon="-1.2042333333333333">
        <ele>975.3000000000004</ele>
        <time>2013-11-09T13:59:38.97</time>
      </trkpt>
      <trkpt lat="38.47449666666667" lon="-1.204235">
        <ele>975.5000000000005</ele>
        <time>2013-11-09T13:59:39.97</time>
      </trkpt>
      <trkpt lat="38.47452833333333" lon="-1.20423">
        <ele>975.7000000000005</ele>
        <time>2013-11-09T13:59:40.97</time>
      </trkpt>
      <trkpt lat="38.474563333333336" lon="-1.2042266666666666">
        <ele>976.0000000000005</ele>
        <time>2013-11-09T13:59:42.69</time>
      </trkpt>
      <trkpt lat="38.474595" lon="-1.2042333333333333">
        <ele>976.3000000000004</ele>
        <time>2013-11-09T13:59:42.97</time>
      </trkpt>
      <trkpt lat="38.474623333333334" lon="-1.2042816666666667">
        <ele>979.1000000000004</ele>
        <time>2013-11-09T13:59:43.97</time>
      </trkpt>
      <trkpt lat="38.47463833333333" lon="-1.204385">
        <ele>981.8000000000004</ele>
        <time>2013-11-09T13:59:44.97</time>
      </trkpt>
      <trkpt lat="38.47459833333333" lon="-1.2045">
        <ele>984.1000000000004</ele>
        <time>2013-11-09T13:59:45.97</time>
      </trkpt>
      <trkpt lat="38.474511666666665" lon="-1.204625">
        <ele>985.9000000000003</ele>
        <time>2013-11-09T13:59:46.96</time>
      </trkpt>
      <trkpt lat="38.47437333333333" lon="-1.2047166666666667">
        <ele>987.3000000000003</ele>
        <time>2013-11-09T13:59:47.97</time>
      </trkpt>
      <trkpt lat="38.474228333333336" lon="-1.20478">
        <ele>989.0000000000003</ele>
        <time>2013-11-09T13:59:48.96</time>
      </trkpt>
      <trkpt lat="38.47407166666667" lon="-1.20475">
        <ele>990.0000000000003</ele>
        <time>2013-11-09T13:59:49.97</time>
      </trkpt>
      <trkpt lat="38.473926666666664" lon="-1.2047116666666666">
        <ele>990.1000000000004</ele>
        <time>2013-11-09T13:59:50.96</time>
      </trkpt>
      <trkpt lat="38.47381" lon="-1.2046316666666668">
        <ele>990.6000000000004</ele>
        <time>2013-11-09T13:59:51.96</time>
      </trkpt>
      <trkpt lat="38.473726666666664" lon="-1.2045066666666666">
        <ele>991.9000000000003</ele>
        <time>2013-11-09T13:59:52.96</time>
      </trkpt>
      <trkpt lat="38.47365833333333" lon="-1.2043650000000001">
        <ele>993.3000000000003</ele>
        <time>2013-11-09T13:59:53.93</time>
      </trkpt>
      <trkpt lat="38.47360333333334" lon="-1.2041783333333334">
        <ele>995.1000000000003</ele>
        <time>2013-11-09T13:59:54.97</time>
      </trkpt>
      <trkpt lat="38.47358" lon="-1.203975">
        <ele>997.5000000000002</ele>
        <time>2013-11-09T13:59:55.96</time>
      </trkpt>
      <trkpt lat="38.47358833333333" lon="-1.203795">
        <ele>999.9000000000002</ele>
        <time>2013-11-09T13:59:56.96</time>
      </trkpt>
      <trkpt lat="38.473618333333334" lon="-1.2036733333333334">
        <ele>1002.1000000000003</ele>
        <time>2013-11-09T13:59:57.95</time>
      </trkpt>
      <trkpt lat="38.47365" lon="-1.20356">
        <ele>1004.6000000000003</ele>
        <time>2013-11-09T13:59:58.97</time>
      </trkpt>
      <trkpt lat="38.473685" lon="-1.2034616666666667">
        <ele>1007.0000000000002</ele>
        <time>2013-11-09T13:59:59.98</time>
      </trkpt>
      <trkpt lat="38.47372166666667" lon="-1.2033800000000001">
        <ele>1009.5000000000002</ele>
        <time>2013-11-09T14:00:01.59</time>
      </trkpt>
      <trkpt lat="38.473753333333335" lon="-1.2033133333333335">
        <ele>1011.8000000000002</ele>
        <time>2013-11-09T14:00:01.97</time>
      </trkpt>
      <trkpt lat="38.47379" lon="-1.2032533333333333">
        <ele>1013.6000000000001</ele>
        <time>2013-11-09T14:00:02.90</time>
      </trkpt>
      <trkpt lat="38.473843333333335" lon="-1.2032033333333334">
        <ele>1014.6000000000001</ele>
        <time>2013-11-09T14:00:03.92</time>
      </trkpt>
      <trkpt lat="38.47389833333333" lon="-1.2031633333333334">
        <ele>1015.0000000000001</ele>
        <time>2013-11-09T14:00:04.92</time>
      </trkpt>
      <trkpt lat="38.473965" lon="-1.2031333333333334">
        <ele>1014.9000000000001</ele>
        <time>2013-11-09T14:00:06.19</time>
      </trkpt>
      <trkpt lat="38.47403833333333" lon="-1.2031399999999999">
        <ele>1014.2</ele>
        <time>2013-11-09T14:00:06.97</time>
      </trkpt>
      <trkpt lat="38.47409666666667" lon="-1.203195">
        <ele>1013.6</ele>
        <time>2013-11-09T14:00:07.92</time>
      </trkpt>
      <trkpt lat="38.474145" lon="-1.2032366666666667">
        <ele>1012.7</ele>
        <time>2013-11-09T14:00:08.97</time>
      </trkpt>
      <trkpt lat="38.474185" lon="-1.20327">
        <ele>1011.8000000000001</ele>
        <time>2013-11-09T14:00:10.10</time>
      </trkpt>
      <trkpt lat="38.474223333333335" lon="-1.2033066666666667">
        <ele>1011.1</ele>
        <time>2013-11-09T14:00:10.98</time>
      </trkpt>
      <trkpt lat="38.47425166666667" lon="-1.2033566666666666">
        <ele>1010.4</ele>
        <time>2013-11-09T14:00:12.59</time>
      </trkpt>
      <trkpt lat="38.47427833333333" lon="-1.2034583333333333">
        <ele>1010</ele>
        <time>2013-11-09T14:00:12.97</time>
      </trkpt>
      <trkpt lat="38.47427" lon="-1.203575">
        <ele>1009.7</ele>
        <time>2013-11-09T14:00:13.93</time>
      </trkpt>
      <trkpt lat="38.47426333333333" lon="-1.2036850000000001">
        <ele>1009.4000000000001</ele>
        <time>2013-11-09T14:00:14.93</time>
      </trkpt>
      <trkpt lat="38.474255" lon="-1.2037733333333334">
        <ele>1009.4000000000001</ele>
        <time>2013-11-09T14:00:15.97</time>
      </trkpt>
      <trkpt lat="38.474246666666666" lon="-1.20384">
        <ele>1009.8000000000001</ele>
        <time>2013-11-09T14:00:16.96</time>
      </trkpt>
      <trkpt lat="38.474241666666664" lon="-1.2038933333333333">
        <ele>1010.0000000000001</ele>
        <time>2013-11-09T14:00:17.97</time>
      </trkpt>
      <trkpt lat="38.474246666666666" lon="-1.2039533333333332">
        <ele>1010.1000000000001</ele>
        <time>2013-11-09T14:00:18.92</time>
      </trkpt>
      <trkpt lat="38.47427" lon="-1.2040316666666666">
        <ele>1010.3000000000002</ele>
        <time>2013-11-09T14:00:20.39</time>
      </trkpt>
      <trkpt lat="38.47430166666667" lon="-1.2041133333333334">
        <ele>1010.8000000000002</ele>
        <time>2013-11-09T14:00:20.96</time>
      </trkpt>
      <trkpt lat="38.474336666666666" lon="-1.2041583333333334">
        <ele>1011.6000000000001</ele>
        <time>2013-11-09T14:00:21.92</time>
      </trkpt>
      <trkpt lat="38.474375" lon="-1.204185">
        <ele>1012.3000000000002</ele>
        <time>2013-11-09T14:00:22.96</time>
      </trkpt>
      <trkpt lat="38.474415" lon="-1.20421">
        <ele>1013.1000000000001</ele>
        <time>2013-11-09T14:00:23.97</time>
      </trkpt>
      <trkpt lat="38.474448333333335" lon="-1.2042266666666666">
        <ele>1014.0000000000001</ele>
        <time>2013-11-09T14:00:24.97</time>
      </trkpt>
      <trkpt lat="38.47448" lon="-1.2042416666666667">
        <ele>1014.7000000000002</ele>
        <time>2013-11-09T14:00:25.96</time>
      </trkpt>
      <trkpt lat="38.47450666666667" lon="-1.20427">
        <ele>1015.5000000000001</ele>
        <time>2013-11-09T14:00:26.98</time>
      </trkpt>
      <trkpt lat="38.474525" lon="-1.20432">
        <ele>1016.0000000000001</ele>
        <time>2013-11-09T14:00:27.93</time>
      </trkpt>
      <trkpt lat="38.474531666666664" lon="-1.2043966666666668">
        <ele>1016.5000000000001</ele>
        <time>2013-11-09T14:00:28.97</time>
      </trkpt>
      <trkpt lat="38.474531666666664" lon="-1.204485">
        <ele>1017.1000000000001</ele>
        <time>2013-11-09T14:00:29.97</time>
      </trkpt>
      <trkpt lat="38.4745" lon="-1.2045866666666667">
        <ele>1018.1000000000001</ele>
        <time>2013-11-09T14:00:30.96</time>
      </trkpt>
      <trkpt lat="38.474448333333335" lon="-1.204675">
        <ele>1019.1000000000001</ele>
        <time>2013-11-09T14:00:31.97</time>
      </trkpt>
      <trkpt lat="38.474385" lon="-1.2047533333333333">
        <ele>1021.0000000000001</ele>
        <time>2013-11-09T14:00:32.96</time>
      </trkpt>
      <trkpt lat="38.47429833333333" lon="-1.2048166666666666">
        <ele>1023.0000000000001</ele>
        <time>2013-11-09T14:00:33.92</time>
      </trkpt>
      <trkpt lat="38.474201666666666" lon="-1.2048783333333333">
        <ele>1024.9</ele>
        <time>2013-11-09T14:00:34.97</time>
      </trkpt>
      <trkpt lat="38.47409833333333" lon="-1.2049333333333334">
        <ele>1026.4</ele>
        <time>2013-11-09T14:00:35.96</time>
      </trkpt>
      <trkpt lat="38.473953333333334" lon="-1.20495">
        <ele>1027.6000000000001</ele>
        <time>2013-11-09T14:00:36.95</time>
      </trkpt>
      <trkpt lat="38.4738" lon="-1.2049516666666666">
        <ele>1028.4</ele>
        <time>2013-11-09T14:00:37.95</time>
      </trkpt>
      <trkpt lat="38.47363166666667" lon="-1.204885">
        <ele>1029.1000000000001</ele>
        <time>2013-11-09T14:00:38.99</time>
      </trkpt>
      <trkpt lat="38.47348" lon="-1.2047716666666668">
        <ele>1029.4</ele>
        <time>2013-11-09T14:00:39.96</time>
      </trkpt>
      <trkpt lat="38.47337" lon="-1.20464">
        <ele>1029.9</ele>
        <time>2013-11-09T14:00:40.97</time>
      </trkpt>
      <trkpt lat="38.473303333333334" lon="-1.2044683333333333">
        <ele>1030.3000000000002</ele>
        <time>2013-11-09T14:00:41.97</time>
      </trkpt>
      <trkpt lat="38.47325" lon="-1.2043116666666667">
        <ele>1030.6000000000001</ele>
        <time>2013-11-09T14:00:43.39</time>
      </trkpt>
      <trkpt lat="38.47324166666667" lon="-1.20415">
        <ele>1030.9</ele>
        <time>2013-11-09T14:00:43.96</time>
      </trkpt>
      <trkpt lat="38.473238333333335" lon="-1.2039966666666666">
        <ele>1031.1000000000001</ele>
        <time>2013-11-09T14:00:44.97</time>
      </trkpt>
      <trkpt lat="38.47327166666667" lon="-1.2038783333333334">
        <ele>1031.0000000000002</ele>
        <time>2013-11-09T14:00:45.97</time>
      </trkpt>
      <trkpt lat="38.47331166666667" lon="-1.2037583333333333">
        <ele>1031.3000000000002</ele>
        <time>2013-11-09T14:00:46.97</time>
      </trkpt>
      <trkpt lat="38.473345" lon="-1.2036766666666667">
        <ele>1031.5000000000002</ele>
        <time>2013-11-09T14:00:47.93</time>
      </trkpt>
      <trkpt lat="38.47340166666667" lon="-1.20359">
        <ele>1031.9000000000003</ele>
        <time>2013-11-09T14:00:48.96</time>
      </trkpt>
      <trkpt lat="38.473463333333335" lon="-1.2035266666666666">
        <ele>1032.4000000000003</ele>
        <time>2013-11-09T14:00:49.96</time>
      </trkpt>
      <trkpt lat="38.473526666666665" lon="-1.203485">
        <ele>1032.3000000000004</ele>
        <time>2013-11-09T14:00:50.96</time>
      </trkpt>
      <trkpt lat="38.47358833333333" lon="-1.2034533333333333">
        <ele>1032.3000000000004</ele>
        <time>2013-11-09T14:00:51.97</time>
      </trkpt>
      <trkpt lat="38.47364833333334" lon="-1.2034166666666666">
        <ele>1032.3000000000004</ele>
        <time>2013-11-09T14:00:52.97</time>
      </trkpt>
      <trkpt lat="38.473706666666665" lon="-1.2033833333333332">
        <ele>1032.2000000000005</ele>
        <time>2013-11-09T14:00:53.93</time>
      </trkpt>
      <trkpt lat="38.47375666666667" lon="-1.20335">
        <ele>1032.3000000000004</ele>
        <time>2013-11-09T14:00:54.96</time>
      </trkpt>
      <trkpt lat="38.473796666666665" lon="-1.20331">
        <ele>1032.6000000000004</ele>
        <time>2013-11-09T14:00:55.96</time>
      </trkpt>
      <trkpt lat="38.47383833333333" lon="-1.2032733333333334">
        <ele>1033.0000000000005</ele>
        <time>2013-11-09T14:00:56.97</time>
      </trkpt>
      <trkpt lat="38.473885" lon="-1.2032283333333333">
        <ele>1033.2000000000005</ele>
        <time>2013-11-09T14:00:57.97</time>
      </trkpt>
      <trkpt lat="38.47393666666667" lon="-1.2031783333333332">
        <ele>1033.6000000000006</ele>
        <time>2013-11-09T14:00:58.94</time>
      </trkpt>
      <trkpt lat="38.47398833333333" lon="-1.2031216666666666">
        <ele>1034.0000000000007</ele>
        <time>2013-11-09T14:00:59.96</time>
      </trkpt>
      <trkpt lat="38.47403666666666" lon="-1.2030616666666667">
        <ele>1034.2000000000007</ele>
        <time>2013-11-09T14:01:00.97</time>
      </trkpt>
      <trkpt lat="38.47408333333333" lon="-1.2030016666666667">
        <ele>1034.5000000000007</ele>
        <time>2013-11-09T14:01:01.99</time>
      </trkpt>
      <trkpt lat="38.47413" lon="-1.20294">
        <ele>1034.7000000000007</ele>
        <time>2013-11-09T14:01:02.97</time>
      </trkpt>
      <trkpt lat="38.474185" lon="-1.2028633333333334">
        <ele>1035.0000000000007</ele>
        <time>2013-11-09T14:01:03.96</time>
      </trkpt>
      <trkpt lat="38.47423833333333" lon="-1.2027733333333332">
        <ele>1035.7000000000007</ele>
        <time>2013-11-09T14:01:04.96</time>
      </trkpt>
      <trkpt lat="38.47427666666667" lon="-1.2026383333333333">
        <ele>1036.3000000000006</ele>
        <time>2013-11-09T14:01:05.97</time>
      </trkpt>
      <trkpt lat="38.47430833333333" lon="-1.2025033333333333">
        <ele>1037.1000000000006</ele>
        <time>2013-11-09T14:01:06.97</time>
      </trkpt>
      <trkpt lat="38.474331666666664" lon="-1.2023733333333333">
        <ele>1037.8000000000006</ele>
        <time>2013-11-09T14:01:07.97</time>
      </trkpt>
      <trkpt lat="38.47434333333333" lon="-1.20225">
        <ele>1038.3000000000006</ele>
        <time>2013-11-09T14:01:08.97</time>
      </trkpt>
      <trkpt lat="38.47434166666667" lon="-1.2021183333333334">
        <ele>1039.0000000000007</ele>
        <time>2013-11-09T14:01:09.96</time>
      </trkpt>
      <trkpt lat="38.474315" lon="-1.201945">
        <ele>1039.4000000000008</ele>
        <time>2013-11-09T14:01:10.97</time>
      </trkpt>
      <trkpt lat="38.474245" lon="-1.20176">
        <ele>1039.0000000000007</ele>
        <time>2013-11-09T14:01:12.39</time>
      </trkpt>
      <trkpt lat="38.47412666666666" lon="-1.201575">
        <ele>1038.8000000000006</ele>
        <time>2013-11-09T14:01:12.95</time>
      </trkpt>
      <trkpt lat="38.47401333333333" lon="-1.201445">
        <ele>1038.3000000000006</ele>
        <time>2013-11-09T14:01:13.97</time>
      </trkpt>
      <trkpt lat="38.473855" lon="-1.2013683333333334">
        <ele>1037.5000000000007</ele>
        <time>2013-11-09T14:01:14.94</time>
      </trkpt>
      <trkpt lat="38.47371" lon="-1.2013316666666667">
        <ele>1037.1000000000006</ele>
        <time>2013-11-09T14:01:15.97</time>
      </trkpt>
      <trkpt lat="38.473595" lon="-1.201355">
        <ele>1037.8000000000006</ele>
        <time>2013-11-09T14:01:17.19</time>
      </trkpt>
      <trkpt lat="38.473501666666664" lon="-1.201395">
        <ele>1039.1000000000006</ele>
        <time>2013-11-09T14:01:17.97</time>
      </trkpt>
      <trkpt lat="38.47342666666667" lon="-1.20147">
        <ele>1041.0000000000007</ele>
        <time>2013-11-09T14:01:19.9</time>
      </trkpt>
      <trkpt lat="38.47338166666667" lon="-1.20157">
        <ele>1043.5000000000007</ele>
        <time>2013-11-09T14:01:19.92</time>
      </trkpt>
      <trkpt lat="38.47335833333333" lon="-1.201665">
        <ele>1046.1000000000006</ele>
        <time>2013-11-09T14:01:21.39</time>
      </trkpt>
      <trkpt lat="38.47336" lon="-1.2017366666666667">
        <ele>1046.4000000000005</ele>
        <time>2013-11-09T14:01:21.93</time>
      </trkpt>
      <trkpt lat="38.473378333333336" lon="-1.201795">
        <ele>1046.7000000000005</ele>
        <time>2013-11-09T14:01:23.9</time>
      </trkpt>
      <trkpt lat="38.473416666666665" lon="-1.2018216666666666">
        <ele>1047.0000000000005</ele>
        <time>2013-11-09T14:01:23.96</time>
      </trkpt>
      <trkpt lat="38.473461666666665" lon="-1.2018183333333332">
        <ele>1047.4000000000005</ele>
        <time>2013-11-09T14:01:24.96</time>
      </trkpt>
      <trkpt lat="38.47351" lon="-1.2017966666666666">
        <ele>1051.1000000000006</ele>
        <time>2013-11-09T14:01:25.93</time>
      </trkpt>
      <trkpt lat="38.47356333333333" lon="-1.2017483333333334">
        <ele>1054.3000000000006</ele>
        <time>2013-11-09T14:01:26.96</time>
      </trkpt>
      <trkpt lat="38.47363" lon="-1.201675">
        <ele>1057.0000000000007</ele>
        <time>2013-11-09T14:01:28.10</time>
      </trkpt>
      <trkpt lat="38.47369" lon="-1.20157">
        <ele>1059.8000000000006</ele>
        <time>2013-11-09T14:01:29.10</time>
      </trkpt>
      <trkpt lat="38.47374" lon="-1.2014666666666667">
        <ele>1062.7000000000007</ele>
        <time>2013-11-09T14:01:29.97</time>
      </trkpt>
      <trkpt lat="38.47378666666667" lon="-1.201355">
        <ele>1065.3000000000006</ele>
        <time>2013-11-09T14:01:30.97</time>
      </trkpt>
      <trkpt lat="38.47380833333333" lon="-1.2012450000000001">
        <ele>1067.6000000000006</ele>
        <time>2013-11-09T14:01:31.95</time>
      </trkpt>
      <trkpt lat="38.47383166666667" lon="-1.20114">
        <ele>1069.1000000000006</ele>
        <time>2013-11-09T14:01:32.97</time>
      </trkpt>
      <trkpt lat="38.47387666666667" lon="-1.20107">
        <ele>1070.6000000000006</ele>
        <time>2013-11-09T14:01:33.97</time>
      </trkpt>
      <trkpt lat="38.47393" lon="-1.2009766666666666">
        <ele>1071.4000000000005</ele>
        <time>2013-11-09T14:01:34.97</time>
      </trkpt>
      <trkpt lat="38.47398333333334" lon="-1.2009016666666668">
        <ele>1072.0000000000005</ele>
        <time>2013-11-09T14:01:35.97</time>
      </trkpt>
      <trkpt lat="38.47403166666667" lon="-1.20084">
        <ele>1072.4000000000005</ele>
        <time>2013-11-09T14:01:37.29</time>
      </trkpt>
      <trkpt lat="38.474068333333335" lon="-1.2008383333333335">
        <ele>1072.5000000000005</ele>
        <time>2013-11-09T14:01:37.92</time>
      </trkpt>
      <trkpt lat="38.47410333333333" lon="-1.2008766666666666">
        <ele>1072.9000000000005</ele>
        <time>2013-11-09T14:01:38.94</time>
      </trkpt>
      <trkpt lat="38.47412" lon="-1.2009583333333333">
        <ele>1073.0000000000005</ele>
        <time>2013-11-09T14:01:39.97</time>
      </trkpt>
      <trkpt lat="38.47412" lon="-1.2010433333333332">
        <ele>1073.3000000000004</ele>
        <time>2013-11-09T14:01:40.97</time>
      </trkpt>
      <trkpt lat="38.474088333333334" lon="-1.2011366666666667">
        <ele>1073.5000000000005</ele>
        <time>2013-11-09T14:01:41.97</time>
      </trkpt>
      <trkpt lat="38.474003333333336" lon="-1.2012266666666667">
        <ele>1073.8000000000004</ele>
        <time>2013-11-09T14:01:42.97</time>
      </trkpt>
      <trkpt lat="38.47389666666667" lon="-1.20129">
        <ele>1074.3000000000004</ele>
        <time>2013-11-09T14:01:43.97</time>
      </trkpt>
      <trkpt lat="38.473775" lon="-1.2013449999999999">
        <ele>1074.8000000000004</ele>
        <time>2013-11-09T14:01:44.97</time>
      </trkpt>
      <trkpt lat="38.47363" lon="-1.20136">
        <ele>1075.0000000000005</ele>
        <time>2013-11-09T14:01:45.97</time>
      </trkpt>
      <trkpt lat="38.473495" lon="-1.2013533333333333">
        <ele>1075.2000000000005</ele>
        <time>2013-11-09T14:01:46.92</time>
      </trkpt>
      <trkpt lat="38.473355" lon="-1.2013099999999999">
        <ele>1075.2000000000005</ele>
        <time>2013-11-09T14:01:47.97</time>
      </trkpt>
      <trkpt lat="38.473218333333335" lon="-1.2012466666666666">
        <ele>1075.5000000000005</ele>
        <time>2013-11-09T14:01:48.97</time>
      </trkpt>
      <trkpt lat="38.47309333333333" lon="-1.2011466666666666">
        <ele>1075.1000000000004</ele>
        <time>2013-11-09T14:01:50.19</time>
      </trkpt>
      <trkpt lat="38.47297" lon="-1.2010366666666668">
        <ele>1074.1000000000004</ele>
        <time>2013-11-09T14:01:50.97</time>
      </trkpt>
      <trkpt lat="38.472865" lon="-1.2008933333333334">
        <ele>1073.0000000000005</ele>
        <time>2013-11-09T14:01:51.96</time>
      </trkpt>
      <trkpt lat="38.472775" lon="-1.2007466666666666">
        <ele>1072.0000000000005</ele>
        <time>2013-11-09T14:01:52.97</time>
      </trkpt>
      <trkpt lat="38.47271666666666" lon="-1.2005766666666666">
        <ele>1071.5000000000005</ele>
        <time>2013-11-09T14:01:53.93</time>
      </trkpt>
      <trkpt lat="38.472681666666666" lon="-1.2004133333333333">
        <ele>1071.1000000000004</ele>
        <time>2013-11-09T14:01:54.97</time>
      </trkpt>
      <trkpt lat="38.47267" lon="-1.200225">
        <ele>1070.3000000000004</ele>
        <time>2013-11-09T14:01:55.93</time>
      </trkpt>
      <trkpt lat="38.47267166666666" lon="-1.2000616666666666">
        <ele>1069.6000000000004</ele>
        <time>2013-11-09T14:01:56.97</time>
      </trkpt>
      <trkpt lat="38.472698333333334" lon="-1.1999166666666667">
        <ele>1069.5000000000005</ele>
        <time>2013-11-09T14:01:57.97</time>
      </trkpt>
      <trkpt lat="38.472728333333336" lon="-1.1997866666666668">
        <ele>1069.7000000000005</ele>
        <time>2013-11-09T14:01:58.91</time>
      </trkpt>
      <trkpt lat="38.47276" lon="-1.19969">
        <ele>1070.0000000000005</ele>
        <time>2013-11-09T14:01:59.99</time>
      </trkpt>
      <trkpt lat="38.4728" lon="-1.1996066666666667">
        <ele>1070.4000000000005</ele>
        <time>2013-11-09T14:02:00.96</time>
      </trkpt>
      <trkpt lat="38.472836666666666" lon="-1.1995416666666667">
        <ele>1070.3000000000006</ele>
        <time>2013-11-09T14:02:01.97</time>
      </trkpt>
      <trkpt lat="38.472875" lon="-1.199485">
        <ele>1069.5000000000007</ele>
        <time>2013-11-09T14:02:02.96</time>
      </trkpt>
      <trkpt lat="38.47291166666667" lon="-1.19944">
        <ele>1068.5000000000007</ele>
        <time>2013-11-09T14:02:03.92</time>
      </trkpt>
      <trkpt lat="38.47296" lon="-1.1994016666666667">
        <ele>1067.5000000000007</ele>
        <time>2013-11-09T14:02:04.97</time>
      </trkpt>
      <trkpt lat="38.47302333333333" lon="-1.1993766666666668">
        <ele>1066.1000000000006</ele>
        <time>2013-11-09T14:02:05.96</time>
      </trkpt>
      <trkpt lat="38.47308" lon="-1.19936">
        <ele>1064.8000000000006</ele>
        <time>2013-11-09T14:02:06.93</time>
      </trkpt>
      <trkpt lat="38.47313" lon="-1.199345">
        <ele>1063.6000000000006</ele>
        <time>2013-11-09T14:02:07.96</time>
      </trkpt>
      <trkpt lat="38.47316333333333" lon="-1.1993383333333334">
        <ele>1063.4000000000005</ele>
        <time>2013-11-09T14:02:08.93</time>
      </trkpt>
      <trkpt lat="38.47318333333333" lon="-1.1993266666666667">
        <ele>1063.3000000000006</ele>
        <time>2013-11-09T14:02:09.96</time>
      </trkpt>
      <trkpt lat="38.47319666666667" lon="-1.199305">
        <ele>1061.5000000000007</ele>
        <time>2013-11-09T14:02:10.96</time>
      </trkpt>
      <trkpt lat="38.47323333333333" lon="-1.1992616666666667">
        <ele>1059.8000000000006</ele>
        <time>2013-11-09T14:02:12.39</time>
      </trkpt>
      <trkpt lat="38.47328" lon="-1.1992099999999999">
        <ele>1058.4000000000005</ele>
        <time>2013-11-09T14:02:12.93</time>
      </trkpt>
      <trkpt lat="38.47331333333333" lon="-1.1991616666666667">
        <ele>1057.2000000000005</ele>
        <time>2013-11-09T14:02:13.92</time>
      </trkpt>
      <trkpt lat="38.47334333333333" lon="-1.199095">
        <ele>1056.2000000000005</ele>
        <time>2013-11-09T14:02:14.92</time>
      </trkpt>
      <trkpt lat="38.473365" lon="-1.199">
        <ele>1055.5000000000005</ele>
        <time>2013-11-09T14:02:15.93</time>
      </trkpt>
      <trkpt lat="38.47338333333333" lon="-1.1988766666666666">
        <ele>1054.4000000000005</ele>
        <time>2013-11-09T14:02:16.96</time>
      </trkpt>
      <trkpt lat="38.47339" lon="-1.1987466666666666">
        <ele>1053.1000000000006</ele>
        <time>2013-11-09T14:02:17.96</time>
      </trkpt>
      <trkpt lat="38.47337" lon="-1.1985816666666667">
        <ele>1051.5000000000007</ele>
        <time>2013-11-09T14:02:18.97</time>
      </trkpt>
      <trkpt lat="38.47333833333333" lon="-1.19842">
        <ele>1049.8000000000006</ele>
        <time>2013-11-09T14:02:19.96</time>
      </trkpt>
      <trkpt lat="38.473283333333335" lon="-1.1982583333333334">
        <ele>1047.9000000000005</ele>
        <time>2013-11-09T14:02:21.59</time>
      </trkpt>
      <trkpt lat="38.473238333333335" lon="-1.1980766666666667">
        <ele>1046.2000000000005</ele>
        <time>2013-11-09T14:02:21.96</time>
      </trkpt>
      <trkpt lat="38.473166666666664" lon="-1.1979366666666666">
        <ele>1044.4000000000005</ele>
        <time>2013-11-09T14:02:22.97</time>
      </trkpt>
      <trkpt lat="38.473103333333334" lon="-1.19777">
        <ele>1042.8000000000006</ele>
        <time>2013-11-09T14:02:23.96</time>
      </trkpt>
      <trkpt lat="38.473035" lon="-1.1975933333333333">
        <ele>1040.9000000000005</ele>
        <time>2013-11-09T14:02:24.96</time>
      </trkpt>
      <trkpt lat="38.472921666666664" lon="-1.19747">
        <ele>1039.1000000000006</ele>
        <time>2013-11-09T14:02:25.96</time>
      </trkpt>
      <trkpt lat="38.47281666666667" lon="-1.19732">
        <ele>1037.2000000000005</ele>
        <time>2013-11-09T14:02:26.94</time>
      </trkpt>
      <trkpt lat="38.472715" lon="-1.1971783333333335">
        <ele>1035.1000000000006</ele>
        <time>2013-11-09T14:02:27.96</time>
      </trkpt>
      <trkpt lat="38.47262666666666" lon="-1.1970366666666667">
        <ele>1033.0000000000007</ele>
        <time>2013-11-09T14:02:28.96</time>
      </trkpt>
      <trkpt lat="38.472548333333336" lon="-1.196905">
        <ele>1031.2000000000007</ele>
        <time>2013-11-09T14:02:29.96</time>
      </trkpt>
      <trkpt lat="38.47247333333333" lon="-1.1967816666666666">
        <ele>1029.8000000000006</ele>
        <time>2013-11-09T14:02:30.99</time>
      </trkpt>
      <trkpt lat="38.472405" lon="-1.1966649999999999">
        <ele>1028.2000000000007</ele>
        <time>2013-11-09T14:02:31.93</time>
      </trkpt>
      <trkpt lat="38.47234" lon="-1.19655">
        <ele>1026.4000000000008</ele>
        <time>2013-11-09T14:02:32.97</time>
      </trkpt>
      <trkpt lat="38.472265" lon="-1.19642">
        <ele>1023.7000000000007</ele>
        <time>2013-11-09T14:02:33.96</time>
      </trkpt>
      <trkpt lat="38.472188333333335" lon="-1.1962983333333335">
        <ele>1021.2000000000007</ele>
        <time>2013-11-09T14:02:34.96</time>
      </trkpt>
      <trkpt lat="38.4721" lon="-1.1961783333333333">
        <ele>1019.0000000000007</ele>
        <time>2013-11-09T14:02:35.96</time>
      </trkpt>
      <trkpt lat="38.47201833333333" lon="-1.1960566666666668">
        <ele>1016.5000000000007</ele>
        <time>2013-11-09T14:02:36.97</time>
      </trkpt>
      <trkpt lat="38.47194666666667" lon="-1.1959333333333333">
        <ele>1013.9000000000007</ele>
        <time>2013-11-09T14:02:37.98</time>
      </trkpt>
      <trkpt lat="38.47188166666667" lon="-1.19581">
        <ele>1011.0000000000007</ele>
        <time>2013-11-09T14:02:38.96</time>
      </trkpt>
      <trkpt lat="38.47181" lon="-1.1956666666666667">
        <ele>1007.9000000000007</ele>
        <time>2013-11-09T14:02:39.96</time>
      </trkpt>
      <trkpt lat="38.471735" lon="-1.19552">
        <ele>1004.7000000000006</ele>
        <time>2013-11-09T14:02:40.96</time>
      </trkpt>
      <trkpt lat="38.471651666666666" lon="-1.1953716666666667">
        <ele>1001.6000000000006</ele>
        <time>2013-11-09T14:02:41.97</time>
      </trkpt>
      <trkpt lat="38.47156833333333" lon="-1.195225">
        <ele>998.8000000000006</ele>
        <time>2013-11-09T14:02:42.97</time>
      </trkpt>
      <trkpt lat="38.47148833333333" lon="-1.1950933333333333">
        <ele>995.8000000000006</ele>
        <time>2013-11-09T14:02:43.94</time>
      </trkpt>
      <trkpt lat="38.471405" lon="-1.1949683333333334">
        <ele>993.0000000000007</ele>
        <time>2013-11-09T14:02:44.92</time>
      </trkpt>
      <trkpt lat="38.47132333333333" lon="-1.1948516666666666">
        <ele>991.1000000000007</ele>
        <time>2013-11-09T14:02:45.96</time>
      </trkpt>
      <trkpt lat="38.471241666666664" lon="-1.1947183333333333">
        <ele>989.2000000000007</ele>
        <time>2013-11-09T14:02:46.97</time>
      </trkpt>
      <trkpt lat="38.47117166666666" lon="-1.1945966666666668">
        <ele>987.3000000000008</ele>
        <time>2013-11-09T14:02:47.97</time>
      </trkpt>
      <trkpt lat="38.47110833333333" lon="-1.1944833333333333">
        <ele>985.2000000000007</ele>
        <time>2013-11-09T14:02:48.97</time>
      </trkpt>
      <trkpt lat="38.471043333333334" lon="-1.1943666666666668">
        <ele>982.6000000000007</ele>
        <time>2013-11-09T14:02:49.93</time>
      </trkpt>
      <trkpt lat="38.47096833333333" lon="-1.194235">
        <ele>979.7000000000007</ele>
        <time>2013-11-09T14:02:50.96</time>
      </trkpt>
      <trkpt lat="38.470888333333335" lon="-1.1941016666666666">
        <ele>976.4000000000008</ele>
        <time>2013-11-09T14:02:51.97</time>
      </trkpt>
      <trkpt lat="38.47080166666667" lon="-1.1939533333333334">
        <ele>973.4000000000008</ele>
        <time>2013-11-09T14:02:52.97</time>
      </trkpt>
      <trkpt lat="38.47071666666667" lon="-1.1938216666666666">
        <ele>970.5000000000008</ele>
        <time>2013-11-09T14:02:53.96</time>
      </trkpt>
      <trkpt lat="38.47063" lon="-1.1937133333333334">
        <ele>967.4000000000008</ele>
        <time>2013-11-09T14:02:54.96</time>
      </trkpt>
      <trkpt lat="38.47054" lon="-1.193605">
        <ele>964.2000000000007</ele>
        <time>2013-11-09T14:02:55.96</time>
      </trkpt>
      <trkpt lat="38.47044" lon="-1.1934983333333333">
        <ele>961.1000000000007</ele>
        <time>2013-11-09T14:02:56.97</time>
      </trkpt>
      <trkpt lat="38.47034" lon="-1.1933883333333333">
        <ele>957.9000000000007</ele>
        <time>2013-11-09T14:02:57.98</time>
      </trkpt>
      <trkpt lat="38.470238333333334" lon="-1.1932766666666668">
        <ele>954.8000000000006</ele>
        <time>2013-11-09T14:02:58.97</time>
      </trkpt>
      <trkpt lat="38.470135" lon="-1.1931683333333334">
        <ele>951.5000000000007</ele>
        <time>2013-11-09T14:02:59.96</time>
      </trkpt>
      <trkpt lat="38.470031666666664" lon="-1.1930583333333333">
        <ele>948.2000000000007</ele>
        <time>2013-11-09T14:03:00.92</time>
      </trkpt>
      <trkpt lat="38.469928333333336" lon="-1.192945">
        <ele>944.8000000000008</ele>
        <time>2013-11-09T14:03:01.97</time>
      </trkpt>
      <trkpt lat="38.469835" lon="-1.1928266666666667">
        <ele>941.4000000000008</ele>
        <time>2013-11-09T14:03:02.97</time>
      </trkpt>
      <trkpt lat="38.469745" lon="-1.1926983333333334">
        <ele>938.3000000000008</ele>
        <time>2013-11-09T14:03:03.97</time>
      </trkpt>
      <trkpt lat="38.469656666666666" lon="-1.1925666666666666">
        <ele>935.4000000000008</ele>
        <time>2013-11-09T14:03:04.96</time>
      </trkpt>
      <trkpt lat="38.46956" lon="-1.1924433333333333">
        <ele>933.1000000000008</ele>
        <time>2013-11-09T14:03:05.96</time>
      </trkpt>
      <trkpt lat="38.469453333333334" lon="-1.1923583333333334">
        <ele>930.9000000000008</ele>
        <time>2013-11-09T14:03:06.97</time>
      </trkpt>
      <trkpt lat="38.46935833333333" lon="-1.192295">
        <ele>929.2000000000007</ele>
        <time>2013-11-09T14:03:07.92</time>
      </trkpt>
      <trkpt lat="38.469255" lon="-1.19223">
        <ele>927.6000000000007</ele>
        <time>2013-11-09T14:03:08.93</time>
      </trkpt>
      <trkpt lat="38.46914666666667" lon="-1.1921599999999999">
        <ele>925.4000000000007</ele>
        <time>2013-11-09T14:03:09.96</time>
      </trkpt>
      <trkpt lat="38.46904333333333" lon="-1.1920899999999999">
        <ele>923.3000000000006</ele>
        <time>2013-11-09T14:03:10.92</time>
      </trkpt>
      <trkpt lat="38.46893" lon="-1.1919933333333335">
        <ele>921.4000000000007</ele>
        <time>2013-11-09T14:03:11.93</time>
      </trkpt>
      <trkpt lat="38.468806666666666" lon="-1.1918916666666668">
        <ele>919.7000000000006</ele>
        <time>2013-11-09T14:03:12.97</time>
      </trkpt>
      <trkpt lat="38.468685" lon="-1.1917766666666667">
        <ele>917.9000000000007</ele>
        <time>2013-11-09T14:03:13.93</time>
      </trkpt>
      <trkpt lat="38.46856666666667" lon="-1.1916516666666666">
        <ele>915.7000000000006</ele>
        <time>2013-11-09T14:03:14.99</time>
      </trkpt>
      <trkpt lat="38.468471666666666" lon="-1.1915533333333332">
        <ele>912.8000000000006</ele>
        <time>2013-11-09T14:03:15.96</time>
      </trkpt>
      <trkpt lat="38.46837166666667" lon="-1.1914483333333332">
        <ele>909.5000000000007</ele>
        <time>2013-11-09T14:03:16.97</time>
      </trkpt>
      <trkpt lat="38.46825833333333" lon="-1.19134">
        <ele>906.0000000000007</ele>
        <time>2013-11-09T14:03:17.96</time>
      </trkpt>
      <trkpt lat="38.46814" lon="-1.1912283333333333">
        <ele>902.7000000000007</ele>
        <time>2013-11-09T14:03:18.91</time>
      </trkpt>
      <trkpt lat="38.468023333333335" lon="-1.191115">
        <ele>899.6000000000007</ele>
        <time>2013-11-09T14:03:20.49</time>
      </trkpt>
      <trkpt lat="38.46791666666667" lon="-1.1910033333333334">
        <ele>896.7000000000007</ele>
        <time>2013-11-09T14:03:20.96</time>
      </trkpt>
      <trkpt lat="38.467816666666664" lon="-1.1909">
        <ele>894.0000000000007</ele>
        <time>2013-11-09T14:03:21.97</time>
      </trkpt>
      <trkpt lat="38.467713333333336" lon="-1.190795">
        <ele>891.6000000000007</ele>
        <time>2013-11-09T14:03:22.93</time>
      </trkpt>
      <trkpt lat="38.46762" lon="-1.1906983333333334">
        <ele>889.2000000000007</ele>
        <time>2013-11-09T14:03:23.97</time>
      </trkpt>
      <trkpt lat="38.46752" lon="-1.1906066666666666">
        <ele>887.5000000000007</ele>
        <time>2013-11-09T14:03:24.96</time>
      </trkpt>
      <trkpt lat="38.46742666666667" lon="-1.190525">
        <ele>886.4000000000007</ele>
        <time>2013-11-09T14:03:25.93</time>
      </trkpt>
      <trkpt lat="38.46734333333333" lon="-1.1904583333333334">
        <ele>885.7000000000006</ele>
        <time>2013-11-09T14:03:26.96</time>
      </trkpt>
      <trkpt lat="38.46725166666667" lon="-1.1903916666666667">
        <ele>885.2000000000006</ele>
        <time>2013-11-09T14:03:27.97</time>
      </trkpt>
      <trkpt lat="38.46715" lon="-1.1903266666666668">
        <ele>884.8000000000006</ele>
        <time>2013-11-09T14:03:28.98</time>
      </trkpt>
      <trkpt lat="38.467035" lon="-1.1902666666666666">
        <ele>885.1000000000006</ele>
        <time>2013-11-09T14:03:29.96</time>
      </trkpt>
      <trkpt lat="38.46691333333333" lon="-1.1902466666666667">
        <ele>885.3000000000006</ele>
        <time>2013-11-09T14:03:30.96</time>
      </trkpt>
      <trkpt lat="38.466813333333334" lon="-1.1902300000000001">
        <ele>885.3000000000006</ele>
        <time>2013-11-09T14:03:31.93</time>
      </trkpt>
      <trkpt lat="38.46671166666667" lon="-1.1902066666666666">
        <ele>884.8000000000006</ele>
        <time>2013-11-09T14:03:32.92</time>
      </trkpt>
      <trkpt lat="38.46662166666667" lon="-1.190135">
        <ele>884.0000000000007</ele>
        <time>2013-11-09T14:03:33.97</time>
      </trkpt>
      <trkpt lat="38.466525" lon="-1.1900466666666667">
        <ele>882.8000000000006</ele>
        <time>2013-11-09T14:03:34.99</time>
      </trkpt>
      <trkpt lat="38.466458333333335" lon="-1.18993">
        <ele>881.4000000000007</ele>
        <time>2013-11-09T14:03:35.96</time>
      </trkpt>
      <trkpt lat="38.46638333333333" lon="-1.1898083333333334">
        <ele>879.6000000000007</ele>
        <time>2013-11-09T14:03:36.96</time>
      </trkpt>
      <trkpt lat="38.46631333333333" lon="-1.1897016666666667">
        <ele>877.7000000000007</ele>
        <time>2013-11-09T14:03:37.92</time>
      </trkpt>
      <trkpt lat="38.46624833333333" lon="-1.18961">
        <ele>876.0000000000007</ele>
        <time>2013-11-09T14:03:38.93</time>
      </trkpt>
      <trkpt lat="38.466175" lon="-1.1895116666666667">
        <ele>874.1000000000007</ele>
        <time>2013-11-09T14:03:39.96</time>
      </trkpt>
      <trkpt lat="38.46608666666667" lon="-1.1894016666666667">
        <ele>872.3000000000008</ele>
        <time>2013-11-09T14:03:40.96</time>
      </trkpt>
      <trkpt lat="38.465986666666666" lon="-1.1892783333333332">
        <ele>870.3000000000008</ele>
        <time>2013-11-09T14:03:41.93</time>
      </trkpt>
      <trkpt lat="38.46588333333333" lon="-1.1891483333333333">
        <ele>868.4000000000008</ele>
        <time>2013-11-09T14:03:43.59</time>
      </trkpt>
      <trkpt lat="38.465801666666664" lon="-1.188995">
        <ele>867.3000000000008</ele>
        <time>2013-11-09T14:03:43.96</time>
      </trkpt>
      <trkpt lat="38.465735" lon="-1.1888483333333333">
        <ele>866.8000000000008</ele>
        <time>2013-11-09T14:03:44.97</time>
      </trkpt>
      <trkpt lat="38.46568333333333" lon="-1.1887166666666666">
        <ele>867.2000000000007</ele>
        <time>2013-11-09T14:03:45.96</time>
      </trkpt>
      <trkpt lat="38.46564" lon="-1.1886033333333335">
        <ele>867.6000000000007</ele>
        <time>2013-11-09T14:03:46.94</time>
      </trkpt>
      <trkpt lat="38.465595" lon="-1.1884933333333334">
        <ele>868.0000000000007</ele>
        <time>2013-11-09T14:03:48.9</time>
      </trkpt>
      <trkpt lat="38.46554" lon="-1.1883783333333333">
        <ele>868.1000000000007</ele>
        <time>2013-11-09T14:03:49</time>
      </trkpt>
      <trkpt lat="38.46547833333333" lon="-1.1882533333333334">
        <ele>868.0000000000007</ele>
        <time>2013-11-09T14:03:50.9</time>
      </trkpt>
      <trkpt lat="38.46541" lon="-1.1881216666666667">
        <ele>867.5000000000007</ele>
        <time>2013-11-09T14:03:51.10</time>
      </trkpt>
      <trkpt lat="38.465336666666666" lon="-1.1879766666666667">
        <ele>867.0000000000007</ele>
        <time>2013-11-09T14:03:51.94</time>
      </trkpt>
      <trkpt lat="38.46526333333333" lon="-1.1878233333333332">
        <ele>866.5000000000007</ele>
        <time>2013-11-09T14:03:52.97</time>
      </trkpt>
      <trkpt lat="38.465203333333335" lon="-1.18767">
        <ele>866.4000000000007</ele>
        <time>2013-11-09T14:03:53.99</time>
      </trkpt>
      <trkpt lat="38.465156666666665" lon="-1.1875283333333333">
        <ele>866.5000000000007</ele>
        <time>2013-11-09T14:03:55.9</time>
      </trkpt>
      <trkpt lat="38.465113333333335" lon="-1.1874033333333334">
        <ele>867.0000000000007</ele>
        <time>2013-11-09T14:03:55.98</time>
      </trkpt>
      <trkpt lat="38.46505833333333" lon="-1.1872916666666666">
        <ele>867.3000000000006</ele>
        <time>2013-11-09T14:03:57.29</time>
      </trkpt>
      <trkpt lat="38.464996666666664" lon="-1.187185">
        <ele>867.2000000000006</ele>
        <time>2013-11-09T14:03:57.99</time>
      </trkpt>
      <trkpt lat="38.464931666666665" lon="-1.18708">
        <ele>866.7000000000006</ele>
        <time>2013-11-09T14:03:58.97</time>
      </trkpt>
      <trkpt lat="38.464863333333334" lon="-1.1869633333333334">
        <ele>866.0000000000006</ele>
        <time>2013-11-09T14:03:59.99</time>
      </trkpt>
      <trkpt lat="38.46478666666667" lon="-1.1868466666666666">
        <ele>864.9000000000005</ele>
        <time>2013-11-09T14:04:00.99</time>
      </trkpt>
      <trkpt lat="38.46469166666667" lon="-1.1867116666666666">
        <ele>863.9000000000005</ele>
        <time>2013-11-09T14:04:01.99</time>
      </trkpt>
      <trkpt lat="38.464591666666664" lon="-1.186585">
        <ele>863.0000000000006</ele>
        <time>2013-11-09T14:04:02.94</time>
      </trkpt>
      <trkpt lat="38.464485" lon="-1.1864733333333333">
        <ele>862.4000000000005</ele>
        <time>2013-11-09T14:04:03.97</time>
      </trkpt>
      <trkpt lat="38.46437" lon="-1.18637">
        <ele>861.9000000000005</ele>
        <time>2013-11-09T14:04:04.93</time>
      </trkpt>
      <trkpt lat="38.464255" lon="-1.1862633333333332">
        <ele>861.5000000000006</ele>
        <time>2013-11-09T14:04:05.99</time>
      </trkpt>
      <trkpt lat="38.464148333333334" lon="-1.186155">
        <ele>861.0000000000006</ele>
        <time>2013-11-09T14:04:06.93</time>
      </trkpt>
      <trkpt lat="38.46405333333333" lon="-1.1860483333333334">
        <ele>861.1000000000006</ele>
        <time>2013-11-09T14:04:07.93</time>
      </trkpt>
      <trkpt lat="38.46398166666667" lon="-1.1859533333333334">
        <ele>861.1000000000006</ele>
        <time>2013-11-09T14:04:08.93</time>
      </trkpt>
      <trkpt lat="38.46394" lon="-1.185845">
        <ele>861.3000000000006</ele>
        <time>2013-11-09T14:04:09.97</time>
      </trkpt>
      <trkpt lat="38.46391333333333" lon="-1.1857366666666667">
        <ele>861.4000000000007</ele>
        <time>2013-11-09T14:04:10.98</time>
      </trkpt>
      <trkpt lat="38.463903333333334" lon="-1.1855933333333333">
        <ele>861.3000000000006</ele>
        <time>2013-11-09T14:04:12.10</time>
      </trkpt>
      <trkpt lat="38.463895" lon="-1.185445">
        <ele>861.2000000000006</ele>
        <time>2013-11-09T14:04:13.39</time>
      </trkpt>
      <trkpt lat="38.46389833333333" lon="-1.1853083333333334">
        <ele>861.3000000000006</ele>
        <time>2013-11-09T14:04:13.96</time>
      </trkpt>
      <trkpt lat="38.463925" lon="-1.185185">
        <ele>861.8000000000006</ele>
        <time>2013-11-09T14:04:15.49</time>
      </trkpt>
      <trkpt lat="38.46396333333333" lon="-1.1850933333333333">
        <ele>862.4000000000007</ele>
        <time>2013-11-09T14:04:15.97</time>
      </trkpt>
      <trkpt lat="38.46400166666667" lon="-1.1850116666666666">
        <ele>863.6000000000007</ele>
        <time>2013-11-09T14:04:17.99</time>
      </trkpt>
      <trkpt lat="38.464056666666664" lon="-1.1849416666666666">
        <ele>864.8000000000008</ele>
        <time>2013-11-09T14:04:17.96</time>
      </trkpt>
      <trkpt lat="38.46411" lon="-1.1848766666666666">
        <ele>866.0000000000008</ele>
        <time>2013-11-09T14:04:19</time>
      </trkpt>
      <trkpt lat="38.464171666666665" lon="-1.1848466666666666">
        <ele>867.7000000000008</ele>
        <time>2013-11-09T14:04:19.96</time>
      </trkpt>
      <trkpt lat="38.464263333333335" lon="-1.1848483333333333">
        <ele>869.0000000000008</ele>
        <time>2013-11-09T14:04:21.19</time>
      </trkpt>
      <trkpt lat="38.464328333333334" lon="-1.1849066666666666">
        <ele>870.4000000000008</ele>
        <time>2013-11-09T14:04:21.96</time>
      </trkpt>
      <trkpt lat="38.464375" lon="-1.1849633333333334">
        <ele>871.9000000000008</ele>
        <time>2013-11-09T14:04:22.93</time>
      </trkpt>
      <trkpt lat="38.464398333333335" lon="-1.1850383333333334">
        <ele>873.3000000000008</ele>
        <time>2013-11-09T14:04:23.92</time>
      </trkpt>
      <trkpt lat="38.46436666666666" lon="-1.1851366666666667">
        <ele>874.3000000000008</ele>
        <time>2013-11-09T14:04:24.94</time>
      </trkpt>
      <trkpt lat="38.46431833333333" lon="-1.18525">
        <ele>875.7000000000007</ele>
        <time>2013-11-09T14:04:25.91</time>
      </trkpt>
      <trkpt lat="38.464265" lon="-1.1853666666666667">
        <ele>877.7000000000007</ele>
        <time>2013-11-09T14:04:26.93</time>
      </trkpt>
      <trkpt lat="38.46418" lon="-1.185455">
        <ele>879.2000000000007</ele>
        <time>2013-11-09T14:04:28.69</time>
      </trkpt>
      <trkpt lat="38.46409166666667" lon="-1.1855233333333333">
        <ele>880.3000000000008</ele>
        <time>2013-11-09T14:04:29.69</time>
      </trkpt>
      <trkpt lat="38.463965" lon="-1.185545">
        <ele>880.9000000000008</ele>
        <time>2013-11-09T14:04:30.39</time>
      </trkpt>
      <trkpt lat="38.46386" lon="-1.185535">
        <ele>882.1000000000008</ele>
        <time>2013-11-09T14:04:30.97</time>
      </trkpt>
      <trkpt lat="38.463785" lon="-1.1854633333333333">
        <ele>883.1000000000008</ele>
        <time>2013-11-09T14:04:32.14</time>
      </trkpt>
      <trkpt lat="38.46368833333333" lon="-1.1853449999999999">
        <ele>883.8000000000009</ele>
        <time>2013-11-09T14:04:32.93</time>
      </trkpt>
      <trkpt lat="38.46362666666667" lon="-1.1852216666666666">
        <ele>884.5000000000009</ele>
        <time>2013-11-09T14:04:33.97</time>
      </trkpt>
      <trkpt lat="38.463665" lon="-1.1850566666666666">
        <ele>884.700000000001</ele>
        <time>2013-11-09T14:04:34.92</time>
      </trkpt>
      <trkpt lat="38.46373666666667" lon="-1.18492">
        <ele>885.6000000000009</ele>
        <time>2013-11-09T14:04:36.19</time>
      </trkpt>
      <trkpt lat="38.46382166666667" lon="-1.1848516666666666">
        <ele>886.5000000000009</ele>
        <time>2013-11-09T14:04:36.97</time>
      </trkpt>
      <trkpt lat="38.463903333333334" lon="-1.1848016666666668">
        <ele>887.9000000000009</ele>
        <time>2013-11-09T14:04:37.94</time>
      </trkpt>
      <trkpt lat="38.463973333333335" lon="-1.1847716666666668">
        <ele>889.6000000000009</ele>
        <time>2013-11-09T14:04:38.97</time>
      </trkpt>
      <trkpt lat="38.464018333333335" lon="-1.184745">
        <ele>891.300000000001</ele>
        <time>2013-11-09T14:04:39.94</time>
      </trkpt>
      <trkpt lat="38.46406666666667" lon="-1.1847166666666666">
        <ele>893.1000000000009</ele>
        <time>2013-11-09T14:04:40.92</time>
      </trkpt>
      <trkpt lat="38.46412" lon="-1.184685">
        <ele>894.800000000001</ele>
        <time>2013-11-09T14:04:41.94</time>
      </trkpt>
      <trkpt lat="38.464171666666665" lon="-1.18466">
        <ele>896.200000000001</ele>
        <time>2013-11-09T14:04:42.94</time>
      </trkpt>
      <trkpt lat="38.46423" lon="-1.1846583333333334">
        <ele>897.700000000001</ele>
        <time>2013-11-09T14:04:43.93</time>
      </trkpt>
      <trkpt lat="38.464295" lon="-1.184665">
        <ele>899.400000000001</ele>
        <time>2013-11-09T14:04:44.93</time>
      </trkpt>
      <trkpt lat="38.46434166666667" lon="-1.1847016666666668">
        <ele>901.400000000001</ele>
        <time>2013-11-09T14:04:45.94</time>
      </trkpt>
      <trkpt lat="38.464346666666664" lon="-1.1848">
        <ele>903.700000000001</ele>
        <time>2013-11-09T14:04:46.94</time>
      </trkpt>
      <trkpt lat="38.464285" lon="-1.184925">
        <ele>906.0000000000009</ele>
        <time>2013-11-09T14:04:47.95</time>
      </trkpt>
      <trkpt lat="38.46417833333334" lon="-1.1850100000000001">
        <ele>908.4000000000009</ele>
        <time>2013-11-09T14:04:48.94</time>
      </trkpt>
      <trkpt lat="38.46407" lon="-1.1850666666666667">
        <ele>910.9000000000009</ele>
        <time>2013-11-09T14:04:49.94</time>
      </trkpt>
      <trkpt lat="38.46395" lon="-1.185085">
        <ele>914.2000000000008</ele>
        <time>2013-11-09T14:04:50.94</time>
      </trkpt>
      <trkpt lat="38.463831666666664" lon="-1.1850383333333334">
        <ele>917.7000000000008</ele>
        <time>2013-11-09T14:04:51.94</time>
      </trkpt>
      <trkpt lat="38.46371333333333" lon="-1.18499">
        <ele>920.5000000000008</ele>
        <time>2013-11-09T14:04:52.94</time>
      </trkpt>
      <trkpt lat="38.463631666666664" lon="-1.184895">
        <ele>922.8000000000008</ele>
        <time>2013-11-09T14:04:54.29</time>
      </trkpt>
      <trkpt lat="38.46359" lon="-1.1847583333333334">
        <ele>925.2000000000007</ele>
        <time>2013-11-09T14:04:54.94</time>
      </trkpt>
      <trkpt lat="38.46356" lon="-1.1845983333333334">
        <ele>928.0000000000007</ele>
        <time>2013-11-09T14:04:55.94</time>
      </trkpt>
      <trkpt lat="38.46356" lon="-1.1844366666666666">
        <ele>931.1000000000007</ele>
        <time>2013-11-09T14:04:56.94</time>
      </trkpt>
      <trkpt lat="38.463565" lon="-1.1842983333333335">
        <ele>934.4000000000007</ele>
        <time>2013-11-09T14:04:57.95</time>
      </trkpt>
      <trkpt lat="38.46361" lon="-1.1842">
        <ele>937.5000000000007</ele>
        <time>2013-11-09T14:04:58.94</time>
      </trkpt>
      <trkpt lat="38.46366" lon="-1.18412">
        <ele>939.9000000000007</ele>
        <time>2013-11-09T14:04:59.94</time>
      </trkpt>
      <trkpt lat="38.46375166666667" lon="-1.1841016666666666">
        <ele>941.9000000000007</ele>
        <time>2013-11-09T14:05:00.92</time>
      </trkpt>
      <trkpt lat="38.46383333333333" lon="-1.1841033333333333">
        <ele>943.1000000000007</ele>
        <time>2013-11-09T14:05:01.94</time>
      </trkpt>
      <trkpt lat="38.4639" lon="-1.1841366666666666">
        <ele>943.9000000000007</ele>
        <time>2013-11-09T14:05:02.94</time>
      </trkpt>
      <trkpt lat="38.46395666666667" lon="-1.18421">
        <ele>945.4000000000007</ele>
        <time>2013-11-09T14:05:03.93</time>
      </trkpt>
      <trkpt lat="38.463975" lon="-1.1843066666666666">
        <ele>947.6000000000007</ele>
        <time>2013-11-09T14:05:04.93</time>
      </trkpt>
      <trkpt lat="38.46393666666667" lon="-1.1843933333333334">
        <ele>949.5000000000007</ele>
        <time>2013-11-09T14:05:05.94</time>
      </trkpt>
      <trkpt lat="38.46387333333333" lon="-1.1844916666666667">
        <ele>951.4000000000007</ele>
        <time>2013-11-09T14:05:06.97</time>
      </trkpt>
      <trkpt lat="38.46378" lon="-1.1845616666666667">
        <ele>953.4000000000007</ele>
        <time>2013-11-09T14:05:07.94</time>
      </trkpt>
      <trkpt lat="38.46370833333334" lon="-1.184615">
        <ele>955.7000000000006</ele>
        <time>2013-11-09T14:05:08.94</time>
      </trkpt>
      <trkpt lat="38.463636666666666" lon="-1.1847116666666666">
        <ele>959.7000000000006</ele>
        <time>2013-11-09T14:05:09.94</time>
      </trkpt>
      <trkpt lat="38.463545" lon="-1.184785">
        <ele>964.2000000000006</ele>
        <time>2013-11-09T14:05:10.94</time>
      </trkpt>
      <trkpt lat="38.46344" lon="-1.1848066666666668">
        <ele>968.4000000000007</ele>
        <time>2013-11-09T14:05:12.11</time>
      </trkpt>
      <trkpt lat="38.463315" lon="-1.184785">
        <ele>972.1000000000007</ele>
        <time>2013-11-09T14:05:12.97</time>
      </trkpt>
      <trkpt lat="38.463188333333335" lon="-1.1847466666666666">
        <ele>975.2000000000007</ele>
        <time>2013-11-09T14:05:13.95</time>
      </trkpt>
      <trkpt lat="38.463078333333335" lon="-1.1846383333333335">
        <ele>978.3000000000008</ele>
        <time>2013-11-09T14:05:14.96</time>
      </trkpt>
      <trkpt lat="38.46301166666667" lon="-1.18451">
        <ele>981.3000000000008</ele>
        <time>2013-11-09T14:05:15.97</time>
      </trkpt>
      <trkpt lat="38.46297166666667" lon="-1.1843916666666667">
        <ele>984.4000000000008</ele>
        <time>2013-11-09T14:05:16.94</time>
      </trkpt>
      <trkpt lat="38.462961666666665" lon="-1.1842733333333333">
        <ele>987.4000000000008</ele>
        <time>2013-11-09T14:05:17.93</time>
      </trkpt>
      <trkpt lat="38.46296" lon="-1.1841300000000001">
        <ele>990.1000000000008</ele>
        <time>2013-11-09T14:05:18.94</time>
      </trkpt>
      <trkpt lat="38.46299333333333" lon="-1.1840083333333333">
        <ele>993.0000000000008</ele>
        <time>2013-11-09T14:05:19.93</time>
      </trkpt>
      <trkpt lat="38.463035" lon="-1.1839083333333333">
        <ele>996.2000000000008</ele>
        <time>2013-11-09T14:05:20.93</time>
      </trkpt>
      <trkpt lat="38.463103333333336" lon="-1.18385">
        <ele>998.8000000000009</ele>
        <time>2013-11-09T14:05:21.93</time>
      </trkpt>
      <trkpt lat="38.46317" lon="-1.1838166666666667">
        <ele>1001.0000000000009</ele>
        <time>2013-11-09T14:05:23.29</time>
      </trkpt>
      <trkpt lat="38.46322833333333" lon="-1.1838466666666667">
        <ele>1003.1000000000009</ele>
        <time>2013-11-09T14:05:23.98</time>
      </trkpt>
      <trkpt lat="38.46326333333333" lon="-1.1838966666666666">
        <ele>1005.1000000000009</ele>
        <time>2013-11-09T14:05:24.97</time>
      </trkpt>
      <trkpt lat="38.463285" lon="-1.1839666666666666">
        <ele>1007.5000000000009</ele>
        <time>2013-11-09T14:05:25.93</time>
      </trkpt>
      <trkpt lat="38.46326333333333" lon="-1.1840916666666668">
        <ele>1010.0000000000009</ele>
        <time>2013-11-09T14:05:26.98</time>
      </trkpt>
      <trkpt lat="38.463185" lon="-1.1842033333333333">
        <ele>1013.0000000000009</ele>
        <time>2013-11-09T14:05:28.19</time>
      </trkpt>
      <trkpt lat="38.46307" lon="-1.18429">
        <ele>1016.200000000001</ele>
        <time>2013-11-09T14:05:28.94</time>
      </trkpt>
      <trkpt lat="38.462945" lon="-1.1843133333333333">
        <ele>1019.400000000001</ele>
        <time>2013-11-09T14:05:29.94</time>
      </trkpt>
      <trkpt lat="38.46282" lon="-1.18432">
        <ele>1022.300000000001</ele>
        <time>2013-11-09T14:05:30.94</time>
      </trkpt>
      <trkpt lat="38.4627" lon="-1.1843216666666667">
        <ele>1024.700000000001</ele>
        <time>2013-11-09T14:05:31.95</time>
      </trkpt>
      <trkpt lat="38.462601666666664" lon="-1.18429">
        <ele>1027.700000000001</ele>
        <time>2013-11-09T14:05:32.95</time>
      </trkpt>
      <trkpt lat="38.46250166666667" lon="-1.1842716666666666">
        <ele>1030.100000000001</ele>
        <time>2013-11-09T14:05:33.94</time>
      </trkpt>
      <trkpt lat="38.4624" lon="-1.1842166666666667">
        <ele>1033.0000000000011</ele>
        <time>2013-11-09T14:05:34.94</time>
      </trkpt>
      <trkpt lat="38.462311666666665" lon="-1.1841783333333333">
        <ele>1035.600000000001</ele>
        <time>2013-11-09T14:05:35.94</time>
      </trkpt>
      <trkpt lat="38.46223" lon="-1.184115">
        <ele>1037.700000000001</ele>
        <time>2013-11-09T14:05:36.94</time>
      </trkpt>
      <trkpt lat="38.46215333333333" lon="-1.184005">
        <ele>1039.8000000000009</ele>
        <time>2013-11-09T14:05:37.94</time>
      </trkpt>
      <trkpt lat="38.462095" lon="-1.1838416666666667">
        <ele>1042.3000000000009</ele>
        <time>2013-11-09T14:05:38.92</time>
      </trkpt>
      <trkpt lat="38.46207833333333" lon="-1.1836466666666667">
        <ele>1044.700000000001</ele>
        <time>2013-11-09T14:05:39.93</time>
      </trkpt>
      <trkpt lat="38.46211" lon="-1.1834883333333333">
        <ele>1047.500000000001</ele>
        <time>2013-11-09T14:05:41.19</time>
      </trkpt>
      <trkpt lat="38.46214833333333" lon="-1.183355">
        <ele>1050.400000000001</ele>
        <time>2013-11-09T14:05:41.94</time>
      </trkpt>
      <trkpt lat="38.462215" lon="-1.1832366666666667">
        <ele>1052.900000000001</ele>
        <time>2013-11-09T14:05:43.9</time>
      </trkpt>
      <trkpt lat="38.462275" lon="-1.1831583333333333">
        <ele>1054.700000000001</ele>
        <time>2013-11-09T14:05:43.94</time>
      </trkpt>
      <trkpt lat="38.462331666666664" lon="-1.1831233333333333">
        <ele>1056.500000000001</ele>
        <time>2013-11-09T14:05:44.94</time>
      </trkpt>
      <trkpt lat="38.46239" lon="-1.1831083333333332">
        <ele>1058.000000000001</ele>
        <time>2013-11-09T14:05:45.94</time>
      </trkpt>
      <trkpt lat="38.462446666666665" lon="-1.1831216666666666">
        <ele>1059.500000000001</ele>
        <time>2013-11-09T14:05:46.95</time>
      </trkpt>
      <trkpt lat="38.462511666666664" lon="-1.1831783333333332">
        <ele>1061.6000000000008</ele>
        <time>2013-11-09T14:05:47.94</time>
      </trkpt>
      <trkpt lat="38.462565" lon="-1.1832433333333334">
        <ele>1064.000000000001</ele>
        <time>2013-11-09T14:05:48.94</time>
      </trkpt>
      <trkpt lat="38.462608333333336" lon="-1.1833183333333332">
        <ele>1066.8000000000009</ele>
        <time>2013-11-09T14:05:49.94</time>
      </trkpt>
      <trkpt lat="38.46264333333333" lon="-1.1833883333333333">
        <ele>1069.6000000000008</ele>
        <time>2013-11-09T14:05:50.94</time>
      </trkpt>
      <trkpt lat="38.46261666666667" lon="-1.18349">
        <ele>1072.7000000000007</ele>
        <time>2013-11-09T14:05:51.94</time>
      </trkpt>
      <trkpt lat="38.46255166666667" lon="-1.183605">
        <ele>1075.6000000000008</ele>
        <time>2013-11-09T14:05:52.94</time>
      </trkpt>
      <trkpt lat="38.462468333333334" lon="-1.1837233333333335">
        <ele>1078.500000000001</ele>
        <time>2013-11-09T14:05:53.94</time>
      </trkpt>
      <trkpt lat="38.462363333333336" lon="-1.1838166666666667">
        <ele>1081.200000000001</ele>
        <time>2013-11-09T14:05:54.94</time>
      </trkpt>
      <trkpt lat="38.46225666666667" lon="-1.183895">
        <ele>1083.600000000001</ele>
        <time>2013-11-09T14:05:55.94</time>
      </trkpt>
      <trkpt lat="38.462151666666664" lon="-1.1839583333333334">
        <ele>1085.900000000001</ele>
        <time>2013-11-09T14:05:56.92</time>
      </trkpt>
      <trkpt lat="38.462043333333334" lon="-1.1839883333333334">
        <ele>1088.000000000001</ele>
        <time>2013-11-09T14:05:57.94</time>
      </trkpt>
      <trkpt lat="38.46194833333333" lon="-1.1840066666666667">
        <ele>1090.1000000000008</ele>
        <time>2013-11-09T14:05:58.94</time>
      </trkpt>
      <trkpt lat="38.461843333333334" lon="-1.184025">
        <ele>1091.9000000000008</ele>
        <time>2013-11-09T14:05:59.94</time>
      </trkpt>
      <trkpt lat="38.461731666666665" lon="-1.184035">
        <ele>1093.4000000000008</ele>
        <time>2013-11-09T14:06:00.93</time>
      </trkpt>
      <trkpt lat="38.461616666666664" lon="-1.1839966666666666">
        <ele>1094.9000000000008</ele>
        <time>2013-11-09T14:06:01.94</time>
      </trkpt>
      <trkpt lat="38.46151" lon="-1.1839433333333333">
        <ele>1097.0000000000007</ele>
        <time>2013-11-09T14:06:02.94</time>
      </trkpt>
      <trkpt lat="38.46142833333333" lon="-1.1838933333333332">
        <ele>1098.8000000000006</ele>
        <time>2013-11-09T14:06:03.94</time>
      </trkpt>
      <trkpt lat="38.46133666666667" lon="-1.1838516666666667">
        <ele>1100.4000000000005</ele>
        <time>2013-11-09T14:06:04.94</time>
      </trkpt>
      <trkpt lat="38.46124" lon="-1.183815">
        <ele>1101.8000000000006</ele>
        <time>2013-11-09T14:06:06.9</time>
      </trkpt>
      <trkpt lat="38.46114" lon="-1.1837183333333332">
        <ele>1102.9000000000005</ele>
        <time>2013-11-09T14:06:06.94</time>
      </trkpt>
      <trkpt lat="38.46104166666667" lon="-1.1835766666666667">
        <ele>1103.8000000000006</ele>
        <time>2013-11-09T14:06:07.94</time>
      </trkpt>
      <trkpt lat="38.460955" lon="-1.1834216666666666">
        <ele>1104.8000000000006</ele>
        <time>2013-11-09T14:06:08.94</time>
      </trkpt>
      <trkpt lat="38.46092" lon="-1.18325">
        <ele>1106.0000000000007</ele>
        <time>2013-11-09T14:06:09.94</time>
      </trkpt>
      <trkpt lat="38.460895" lon="-1.1831016666666667">
        <ele>1107.1000000000006</ele>
        <time>2013-11-09T14:06:10.94</time>
      </trkpt>
      <trkpt lat="38.46088" lon="-1.18297">
        <ele>1109.0000000000007</ele>
        <time>2013-11-09T14:06:11.94</time>
      </trkpt>
      <trkpt lat="38.46089333333333" lon="-1.1828566666666667">
        <ele>1110.6000000000006</ele>
        <time>2013-11-09T14:06:12.98</time>
      </trkpt>
      <trkpt lat="38.460935" lon="-1.18274">
        <ele>1112.3000000000006</ele>
        <time>2013-11-09T14:06:13.94</time>
      </trkpt>
      <trkpt lat="38.461013333333334" lon="-1.1826383333333332">
        <ele>1114.0000000000007</ele>
        <time>2013-11-09T14:06:14.98</time>
      </trkpt>
      <trkpt lat="38.461108333333335" lon="-1.1825666666666668">
        <ele>1115.5000000000007</ele>
        <time>2013-11-09T14:06:15.94</time>
      </trkpt>
      <trkpt lat="38.46118833333333" lon="-1.1825233333333334">
        <ele>1116.7000000000007</ele>
        <time>2013-11-09T14:06:16.93</time>
      </trkpt>
      <trkpt lat="38.46124833333333" lon="-1.1825">
        <ele>1118.0000000000007</ele>
        <time>2013-11-09T14:06:17.94</time>
      </trkpt>
      <trkpt lat="38.461308333333335" lon="-1.1824833333333333">
        <ele>1119.3000000000006</ele>
        <time>2013-11-09T14:06:18.94</time>
      </trkpt>
      <trkpt lat="38.46136166666667" lon="-1.1825">
        <ele>1120.6000000000006</ele>
        <time>2013-11-09T14:06:19.94</time>
      </trkpt>
      <trkpt lat="38.461416666666665" lon="-1.1825633333333334">
        <ele>1122.1000000000006</ele>
        <time>2013-11-09T14:06:20.94</time>
      </trkpt>
      <trkpt lat="38.46145833333333" lon="-1.1826533333333333">
        <ele>1123.8000000000006</ele>
        <time>2013-11-09T14:06:21.94</time>
      </trkpt>
      <trkpt lat="38.46147666666667" lon="-1.18275">
        <ele>1125.8000000000006</ele>
        <time>2013-11-09T14:06:22.94</time>
      </trkpt>
      <trkpt lat="38.46145333333333" lon="-1.1828483333333333">
        <ele>1128.0000000000007</ele>
        <time>2013-11-09T14:06:23.94</time>
      </trkpt>
      <trkpt lat="38.46141" lon="-1.1829383333333334">
        <ele>1130.2000000000007</ele>
        <time>2013-11-09T14:06:24.94</time>
      </trkpt>
      <trkpt lat="38.461365" lon="-1.1830183333333333">
        <ele>1131.6000000000008</ele>
        <time>2013-11-09T14:06:25.94</time>
      </trkpt>
      <trkpt lat="38.461328333333334" lon="-1.1830733333333334">
        <ele>1133.6000000000008</ele>
        <time>2013-11-09T14:06:26.95</time>
      </trkpt>
      <trkpt lat="38.46127333333333" lon="-1.183125">
        <ele>1135.9000000000008</ele>
        <time>2013-11-09T14:06:27.98</time>
      </trkpt>
      <trkpt lat="38.461193333333334" lon="-1.183195">
        <ele>1138.4000000000008</ele>
        <time>2013-11-09T14:06:28.93</time>
      </trkpt>
      <trkpt lat="38.4611" lon="-1.18327">
        <ele>1140.8000000000009</ele>
        <time>2013-11-09T14:06:29.94</time>
      </trkpt>
      <trkpt lat="38.46098666666666" lon="-1.1833183333333332">
        <ele>1143.3000000000009</ele>
        <time>2013-11-09T14:06:30.93</time>
      </trkpt>
      <trkpt lat="38.460875" lon="-1.1833533333333333">
        <ele>1145.9000000000008</ele>
        <time>2013-11-09T14:06:31.94</time>
      </trkpt>
      <trkpt lat="38.46076333333333" lon="-1.1833716666666667">
        <ele>1148.5000000000007</ele>
        <time>2013-11-09T14:06:32.93</time>
      </trkpt>
      <trkpt lat="38.46066833333333" lon="-1.1833733333333334">
        <ele>1150.8000000000006</ele>
        <time>2013-11-09T14:06:33.93</time>
      </trkpt>
      <trkpt lat="38.46055833333333" lon="-1.1833633333333333">
        <ele>1153.0000000000007</ele>
        <time>2013-11-09T14:06:34.93</time>
      </trkpt>
      <trkpt lat="38.460465" lon="-1.1833266666666666">
        <ele>1155.2000000000007</ele>
        <time>2013-11-09T14:06:35.94</time>
      </trkpt>
      <trkpt lat="38.460365" lon="-1.1832516666666666">
        <ele>1157.0000000000007</ele>
        <time>2013-11-09T14:06:36.93</time>
      </trkpt>
      <trkpt lat="38.46025" lon="-1.1831383333333334">
        <ele>1158.1000000000006</ele>
        <time>2013-11-09T14:06:37.94</time>
      </trkpt>
      <trkpt lat="38.460166666666666" lon="-1.1829866666666666">
        <ele>1158.9000000000005</ele>
        <time>2013-11-09T14:06:38.94</time>
      </trkpt>
      <trkpt lat="38.460121666666666" lon="-1.1828016666666668">
        <ele>1159.2000000000005</ele>
        <time>2013-11-09T14:06:39.93</time>
      </trkpt>
      <trkpt lat="38.46013" lon="-1.1826266666666667">
        <ele>1159.3000000000004</ele>
        <time>2013-11-09T14:06:40.93</time>
      </trkpt>
      <trkpt lat="38.460148333333336" lon="-1.18246">
        <ele>1160.2000000000005</ele>
        <time>2013-11-09T14:06:41.94</time>
      </trkpt>
      <trkpt lat="38.46020166666667" lon="-1.1823299999999999">
        <ele>1162.2000000000005</ele>
        <time>2013-11-09T14:06:42.94</time>
      </trkpt>
      <trkpt lat="38.460256666666666" lon="-1.182205">
        <ele>1163.9000000000005</ele>
        <time>2013-11-09T14:06:43.91</time>
      </trkpt>
      <trkpt lat="38.46031333333333" lon="-1.1821033333333333">
        <ele>1165.5000000000005</ele>
        <time>2013-11-09T14:06:44.92</time>
      </trkpt>
      <trkpt lat="38.460393333333336" lon="-1.1820433333333333">
        <ele>1167.2000000000005</ele>
        <time>2013-11-09T14:06:45.90</time>
      </trkpt>
      <trkpt lat="38.46047333333333" lon="-1.1819899999999999">
        <ele>1168.8000000000004</ele>
        <time>2013-11-09T14:06:46.93</time>
      </trkpt>
      <trkpt lat="38.460548333333335" lon="-1.1819916666666668">
        <ele>1170.3000000000004</ele>
        <time>2013-11-09T14:06:47.94</time>
      </trkpt>
      <trkpt lat="38.460615" lon="-1.1820316666666666">
        <ele>1171.2000000000005</ele>
        <time>2013-11-09T14:06:48.91</time>
      </trkpt>
      <trkpt lat="38.46067166666667" lon="-1.182095">
        <ele>1172.3000000000004</ele>
        <time>2013-11-09T14:06:49.93</time>
      </trkpt>
      <trkpt lat="38.46069166666667" lon="-1.182185">
        <ele>1173.5000000000005</ele>
        <time>2013-11-09T14:06:50.93</time>
      </trkpt>
      <trkpt lat="38.460683333333336" lon="-1.1822716666666666">
        <ele>1174.5000000000005</ele>
        <time>2013-11-09T14:06:51.94</time>
      </trkpt>
      <trkpt lat="38.460645" lon="-1.1823883333333334">
        <ele>1176.6000000000004</ele>
        <time>2013-11-09T14:06:52.94</time>
      </trkpt>
      <trkpt lat="38.46058166666667" lon="-1.1824866666666667">
        <ele>1179.6000000000004</ele>
        <time>2013-11-09T14:06:53.90</time>
      </trkpt>
      <trkpt lat="38.460503333333335" lon="-1.1825416666666666">
        <ele>1182.5000000000005</ele>
        <time>2013-11-09T14:06:54.94</time>
      </trkpt>
      <trkpt lat="38.46041666666667" lon="-1.1825633333333334">
        <ele>1185.0000000000005</ele>
        <time>2013-11-09T14:06:55.92</time>
      </trkpt>
      <trkpt lat="38.460315" lon="-1.1825866666666667">
        <ele>1187.2000000000005</ele>
        <time>2013-11-09T14:06:56.93</time>
      </trkpt>
      <trkpt lat="38.460193333333336" lon="-1.1826033333333332">
        <ele>1188.9000000000005</ele>
        <time>2013-11-09T14:06:57.93</time>
      </trkpt>
      <trkpt lat="38.46009166666666" lon="-1.1826083333333333">
        <ele>1191.0000000000005</ele>
        <time>2013-11-09T14:06:58.94</time>
      </trkpt>
      <trkpt lat="38.45999" lon="-1.1825933333333334">
        <ele>1193.0000000000005</ele>
        <time>2013-11-09T14:06:59.93</time>
      </trkpt>
      <trkpt lat="38.45988833333333" lon="-1.1825433333333333">
        <ele>1194.5000000000005</ele>
        <time>2013-11-09T14:07:00.93</time>
      </trkpt>
      <trkpt lat="38.459781666666665" lon="-1.1824666666666666">
        <ele>1195.8000000000004</ele>
        <time>2013-11-09T14:07:01.92</time>
      </trkpt>
      <trkpt lat="38.45968833333333" lon="-1.182355">
        <ele>1197.2000000000005</ele>
        <time>2013-11-09T14:07:02.98</time>
      </trkpt>
      <trkpt lat="38.459601666666664" lon="-1.1822433333333333">
        <ele>1198.7000000000005</ele>
        <time>2013-11-09T14:07:03.94</time>
      </trkpt>
      <trkpt lat="38.459525" lon="-1.18214">
        <ele>1199.8000000000004</ele>
        <time>2013-11-09T14:07:04.93</time>
      </trkpt>
      <trkpt lat="38.45946" lon="-1.1820333333333333">
        <ele>1201.1000000000004</ele>
        <time>2013-11-09T14:07:05.93</time>
      </trkpt>
      <trkpt lat="38.459406666666666" lon="-1.1818816666666667">
        <ele>1202.2000000000003</ele>
        <time>2013-11-09T14:07:06.93</time>
      </trkpt>
      <trkpt lat="38.459363333333336" lon="-1.1817183333333334">
        <ele>1203.3000000000002</ele>
        <time>2013-11-09T14:07:07.94</time>
      </trkpt>
      <trkpt lat="38.45936833333333" lon="-1.1815166666666665">
        <ele>1204.3000000000002</ele>
        <time>2013-11-09T14:07:08.94</time>
      </trkpt>
      <trkpt lat="38.459376666666664" lon="-1.18134">
        <ele>1205.6000000000001</ele>
        <time>2013-11-09T14:07:09.93</time>
      </trkpt>
      <trkpt lat="38.45939666666666" lon="-1.181195">
        <ele>1207.4</ele>
        <time>2013-11-09T14:07:10.92</time>
      </trkpt>
      <trkpt lat="38.459426666666666" lon="-1.1810816666666666">
        <ele>1209.7</ele>
        <time>2013-11-09T14:07:12.14</time>
      </trkpt>
      <trkpt lat="38.459455" lon="-1.18096">
        <ele>1212</ele>
        <time>2013-11-09T14:07:12.94</time>
      </trkpt>
      <trkpt lat="38.45947666666667" lon="-1.1808366666666665">
        <ele>1214.5</ele>
        <time>2013-11-09T14:07:13.94</time>
      </trkpt>
      <trkpt lat="38.45950166666667" lon="-1.1806916666666667">
        <ele>1216.9</ele>
        <time>2013-11-09T14:07:14.94</time>
      </trkpt>
      <trkpt lat="38.45956" lon="-1.18054">
        <ele>1219.2</ele>
        <time>2013-11-09T14:07:15.98</time>
      </trkpt>
      <trkpt lat="38.459625" lon="-1.1803983333333332">
        <ele>1221.3</ele>
        <time>2013-11-09T14:07:16.93</time>
      </trkpt>
      <trkpt lat="38.45972666666667" lon="-1.1802933333333334">
        <ele>1223</ele>
        <time>2013-11-09T14:07:17.94</time>
      </trkpt>
      <trkpt lat="38.45982333333333" lon="-1.18022">
        <ele>1224</ele>
        <time>2013-11-09T14:07:18.94</time>
      </trkpt>
      <trkpt lat="38.459898333333335" lon="-1.1802383333333333">
        <ele>1224.6</ele>
        <time>2013-11-09T14:07:20.19</time>
      </trkpt>
      <trkpt lat="38.459943333333335" lon="-1.1802833333333334">
        <ele>1225.6</ele>
        <time>2013-11-09T14:07:20.93</time>
      </trkpt>
      <trkpt lat="38.45995666666666" lon="-1.1803383333333333">
        <ele>1225.8</ele>
        <time>2013-11-09T14:07:21.94</time>
      </trkpt>
      <trkpt lat="38.45995666666666" lon="-1.1803983333333332">
        <ele>1228.3999999999999</ele>
        <time>2013-11-09T14:07:22.95</time>
      </trkpt>
      <trkpt lat="38.45994833333334" lon="-1.1804816666666667">
        <ele>1231.6</ele>
        <time>2013-11-09T14:07:23.91</time>
      </trkpt>
      <trkpt lat="38.459916666666665" lon="-1.1805683333333334">
        <ele>1234.6</ele>
        <time>2013-11-09T14:07:24.94</time>
      </trkpt>
      <trkpt lat="38.45985666666667" lon="-1.1806516666666667">
        <ele>1237.3</ele>
        <time>2013-11-09T14:07:25.94</time>
      </trkpt>
      <trkpt lat="38.459763333333335" lon="-1.180725">
        <ele>1240.3</ele>
        <time>2013-11-09T14:07:26.93</time>
      </trkpt>
      <trkpt lat="38.45965" lon="-1.1807633333333334">
        <ele>1242.8999999999999</ele>
        <time>2013-11-09T14:07:27.94</time>
      </trkpt>
      <trkpt lat="38.459536666666665" lon="-1.1807616666666667">
        <ele>1245.1999999999998</ele>
        <time>2013-11-09T14:07:28.93</time>
      </trkpt>
      <trkpt lat="38.459425" lon="-1.18075">
        <ele>1247.3999999999999</ele>
        <time>2013-11-09T14:07:29.94</time>
      </trkpt>
      <trkpt lat="38.45932333333333" lon="-1.1807233333333333">
        <ele>1249.3999999999999</ele>
        <time>2013-11-09T14:07:30.94</time>
      </trkpt>
      <trkpt lat="38.459228333333336" lon="-1.1806933333333334">
        <ele>1250.6</ele>
        <time>2013-11-09T14:07:31.93</time>
      </trkpt>
      <trkpt lat="38.45912333333333" lon="-1.18061">
        <ele>1252</ele>
        <time>2013-11-09T14:07:32.94</time>
      </trkpt>
      <trkpt lat="38.45903833333333" lon="-1.1804933333333334">
        <ele>1253.1</ele>
        <time>2013-11-09T14:07:33.92</time>
      </trkpt>
      <trkpt lat="38.458951666666664" lon="-1.180355">
        <ele>1253.8999999999999</ele>
        <time>2013-11-09T14:07:34.94</time>
      </trkpt>
      <trkpt lat="38.458911666666665" lon="-1.1802033333333333">
        <ele>1254.8</ele>
        <time>2013-11-09T14:07:36.49</time>
      </trkpt>
      <trkpt lat="38.45887" lon="-1.1800383333333333">
        <ele>1256.2</ele>
        <time>2013-11-09T14:07:36.93</time>
      </trkpt>
      <trkpt lat="38.45884" lon="-1.1798783333333334">
        <ele>1257.8</ele>
        <time>2013-11-09T14:07:37.94</time>
      </trkpt>
      <trkpt lat="38.458845" lon="-1.1797266666666666">
        <ele>1259.5</ele>
        <time>2013-11-09T14:07:38.91</time>
      </trkpt>
      <trkpt lat="38.45887166666667" lon="-1.17959">
        <ele>1261.3</ele>
        <time>2013-11-09T14:07:39.94</time>
      </trkpt>
      <trkpt lat="38.45894166666667" lon="-1.17947">
        <ele>1263.3</ele>
        <time>2013-11-09T14:07:40.98</time>
      </trkpt>
      <trkpt lat="38.45901" lon="-1.1793583333333333">
        <ele>1265.2</ele>
        <time>2013-11-09T14:07:41.93</time>
      </trkpt>
      <trkpt lat="38.459093333333335" lon="-1.179285">
        <ele>1266.4</ele>
        <time>2013-11-09T14:07:42.93</time>
      </trkpt>
      <trkpt lat="38.45916833333333" lon="-1.1792316666666667">
        <ele>1267.1000000000001</ele>
        <time>2013-11-09T14:07:43.94</time>
      </trkpt>
      <trkpt lat="38.45923333333333" lon="-1.1791933333333333">
        <ele>1267.4</ele>
        <time>2013-11-09T14:07:44.93</time>
      </trkpt>
      <trkpt lat="38.45928833333333" lon="-1.17917">
        <ele>1267.8000000000002</ele>
        <time>2013-11-09T14:07:45.94</time>
      </trkpt>
      <trkpt lat="38.459331666666664" lon="-1.1791583333333333">
        <ele>1268.3000000000002</ele>
        <time>2013-11-09T14:07:46.93</time>
      </trkpt>
      <trkpt lat="38.459363333333336" lon="-1.17916">
        <ele>1268.3000000000002</ele>
        <time>2013-11-09T14:07:47.94</time>
      </trkpt>
      <trkpt lat="38.45939166666667" lon="-1.1791866666666666">
        <ele>1268.4</ele>
        <time>2013-11-09T14:07:48.94</time>
      </trkpt>
      <trkpt lat="38.45941666666667" lon="-1.179235">
        <ele>1268.5</ele>
        <time>2013-11-09T14:07:49.92</time>
      </trkpt>
      <trkpt lat="38.45943" lon="-1.1793033333333334">
        <ele>1269.7</ele>
        <time>2013-11-09T14:07:50.94</time>
      </trkpt>
      <trkpt lat="38.45944" lon="-1.1793766666666667">
        <ele>1271.2</ele>
        <time>2013-11-09T14:07:51.93</time>
      </trkpt>
      <trkpt lat="38.45945" lon="-1.1794833333333332">
        <ele>1273.8</ele>
        <time>2013-11-09T14:07:52.93</time>
      </trkpt>
      <trkpt lat="38.45943833333333" lon="-1.1795933333333333">
        <ele>1277.1</ele>
        <time>2013-11-09T14:07:53.93</time>
      </trkpt>
      <trkpt lat="38.459403333333334" lon="-1.17968">
        <ele>1280.5</ele>
        <time>2013-11-09T14:07:54.93</time>
      </trkpt>
      <trkpt lat="38.45934666666667" lon="-1.179765">
        <ele>1283.6</ele>
        <time>2013-11-09T14:07:55.92</time>
      </trkpt>
      <trkpt lat="38.45928333333333" lon="-1.179845">
        <ele>1286.5</ele>
        <time>2013-11-09T14:07:56.93</time>
      </trkpt>
      <trkpt lat="38.45919166666667" lon="-1.1799">
        <ele>1288.9</ele>
        <time>2013-11-09T14:07:57.93</time>
      </trkpt>
      <trkpt lat="38.459086666666664" lon="-1.17995">
        <ele>1290.7</ele>
        <time>2013-11-09T14:07:58.93</time>
      </trkpt>
      <trkpt lat="38.458976666666665" lon="-1.1799883333333334">
        <ele>1292.5</ele>
        <time>2013-11-09T14:07:59.91</time>
      </trkpt>
      <trkpt lat="38.458865" lon="-1.1800216666666667">
        <ele>1294.7</ele>
        <time>2013-11-09T14:08:00.94</time>
      </trkpt>
      <trkpt lat="38.458776666666665" lon="-1.1800416666666667">
        <ele>1297.2</ele>
        <time>2013-11-09T14:08:01.93</time>
      </trkpt>
      <trkpt lat="38.458706666666664" lon="-1.18005">
        <ele>1299.7</ele>
        <time>2013-11-09T14:08:02.93</time>
      </trkpt>
      <trkpt lat="38.45863833333333" lon="-1.1800583333333332">
        <ele>1301.7</ele>
        <time>2013-11-09T14:08:03.93</time>
      </trkpt>
      <trkpt lat="38.45856333333333" lon="-1.1800616666666666">
        <ele>1303.5</ele>
        <time>2013-11-09T14:08:04.93</time>
      </trkpt>
      <trkpt lat="38.458483333333334" lon="-1.1800566666666668">
        <ele>1305.1</ele>
        <time>2013-11-09T14:08:05.94</time>
      </trkpt>
      <trkpt lat="38.458378333333336" lon="-1.1800483333333334">
        <ele>1306.8999999999999</ele>
        <time>2013-11-09T14:08:06.93</time>
      </trkpt>
      <trkpt lat="38.45827166666667" lon="-1.18001">
        <ele>1308.8999999999999</ele>
        <time>2013-11-09T14:08:07.93</time>
      </trkpt>
      <trkpt lat="38.45816333333333" lon="-1.1799683333333333">
        <ele>1310.6</ele>
        <time>2013-11-09T14:08:08.93</time>
      </trkpt>
      <trkpt lat="38.458056666666664" lon="-1.1799333333333333">
        <ele>1312.1</ele>
        <time>2013-11-09T14:08:09.94</time>
      </trkpt>
      <trkpt lat="38.457955" lon="-1.1798933333333332">
        <ele>1313.8</ele>
        <time>2013-11-09T14:08:10.94</time>
      </trkpt>
      <trkpt lat="38.45784666666667" lon="-1.1798549999999999">
        <ele>1315.3999999999999</ele>
        <time>2013-11-09T14:08:11.93</time>
      </trkpt>
      <trkpt lat="38.45775166666667" lon="-1.1797866666666668">
        <ele>1316.8</ele>
        <time>2013-11-09T14:08:12.93</time>
      </trkpt>
      <trkpt lat="38.457656666666665" lon="-1.17971">
        <ele>1318.2</ele>
        <time>2013-11-09T14:08:13.93</time>
      </trkpt>
      <trkpt lat="38.45757666666667" lon="-1.179595">
        <ele>1319.4</ele>
        <time>2013-11-09T14:08:14.94</time>
      </trkpt>
      <trkpt lat="38.45750666666667" lon="-1.1794466666666668">
        <ele>1321.2</ele>
        <time>2013-11-09T14:08:15.93</time>
      </trkpt>
      <trkpt lat="38.457475" lon="-1.1792500000000001">
        <ele>1322.8</ele>
        <time>2013-11-09T14:08:16.91</time>
      </trkpt>
      <trkpt lat="38.45748666666667" lon="-1.1790783333333335">
        <ele>1325</ele>
        <time>2013-11-09T14:08:17.93</time>
      </trkpt>
      <trkpt lat="38.457501666666666" lon="-1.1789216666666666">
        <ele>1327.2</ele>
        <time>2013-11-09T14:08:18.93</time>
      </trkpt>
      <trkpt lat="38.457543333333334" lon="-1.1787816666666666">
        <ele>1329.5</ele>
        <time>2013-11-09T14:08:19.94</time>
      </trkpt>
      <trkpt lat="38.45759" lon="-1.1786583333333334">
        <ele>1331.9</ele>
        <time>2013-11-09T14:08:20.95</time>
      </trkpt>
      <trkpt lat="38.457656666666665" lon="-1.1785583333333334">
        <ele>1334.1000000000001</ele>
        <time>2013-11-09T14:08:21.92</time>
      </trkpt>
      <trkpt lat="38.457728333333336" lon="-1.1784966666666667">
        <ele>1336.5000000000002</ele>
        <time>2013-11-09T14:08:22.91</time>
      </trkpt>
      <trkpt lat="38.457815" lon="-1.1784533333333334">
        <ele>1338.4000000000003</ele>
        <time>2013-11-09T14:08:23.92</time>
      </trkpt>
      <trkpt lat="38.45791666666667" lon="-1.1784383333333333">
        <ele>1339.7000000000003</ele>
        <time>2013-11-09T14:08:24.93</time>
      </trkpt>
      <trkpt lat="38.45800166666667" lon="-1.1784333333333334">
        <ele>1340.9000000000003</ele>
        <time>2013-11-09T14:08:25.93</time>
      </trkpt>
      <trkpt lat="38.458056666666664" lon="-1.178435">
        <ele>1341.0000000000002</ele>
        <time>2013-11-09T14:08:26.91</time>
      </trkpt>
      <trkpt lat="38.45809333333333" lon="-1.1784383333333333">
        <ele>1342.5000000000002</ele>
        <time>2013-11-09T14:08:27.93</time>
      </trkpt>
      <trkpt lat="38.45811833333333" lon="-1.17846">
        <ele>1344.6000000000001</ele>
        <time>2013-11-09T14:08:28.93</time>
      </trkpt>
      <trkpt lat="38.458126666666665" lon="-1.1785116666666666">
        <ele>1344.9</ele>
        <time>2013-11-09T14:08:29.91</time>
      </trkpt>
      <trkpt lat="38.458151666666666" lon="-1.1785933333333334">
        <ele>1347.8000000000002</ele>
        <time>2013-11-09T14:08:30.94</time>
      </trkpt>
      <trkpt lat="38.458153333333335" lon="-1.1786716666666668">
        <ele>1350.2000000000003</ele>
        <time>2013-11-09T14:08:31.93</time>
      </trkpt>
      <trkpt lat="38.45813833333333" lon="-1.1787666666666667">
        <ele>1352.6000000000004</ele>
        <time>2013-11-09T14:08:32.93</time>
      </trkpt>
      <trkpt lat="38.458105" lon="-1.1788533333333333">
        <ele>1355.1000000000004</ele>
        <time>2013-11-09T14:08:33.99</time>
      </trkpt>
      <trkpt lat="38.458065" lon="-1.1789366666666667">
        <ele>1358.2000000000003</ele>
        <time>2013-11-09T14:08:34.94</time>
      </trkpt>
      <trkpt lat="38.45802666666667" lon="-1.1790066666666665">
        <ele>1361.3000000000002</ele>
        <time>2013-11-09T14:08:35.94</time>
      </trkpt>
      <trkpt lat="38.45798166666667" lon="-1.179065">
        <ele>1364.1000000000001</ele>
        <time>2013-11-09T14:08:36.93</time>
      </trkpt>
      <trkpt lat="38.457915" lon="-1.1791216666666666">
        <ele>1366.7</ele>
        <time>2013-11-09T14:08:37.94</time>
      </trkpt>
      <trkpt lat="38.45783" lon="-1.1791800000000001">
        <ele>1369.3</ele>
        <time>2013-11-09T14:08:38.93</time>
      </trkpt>
      <trkpt lat="38.45773666666667" lon="-1.1792233333333333">
        <ele>1371.6</ele>
        <time>2013-11-09T14:08:39.94</time>
      </trkpt>
      <trkpt lat="38.457633333333334" lon="-1.1792666666666667">
        <ele>1373.6999999999998</ele>
        <time>2013-11-09T14:08:40.92</time>
      </trkpt>
      <trkpt lat="38.45753" lon="-1.1793">
        <ele>1375.9999999999998</ele>
        <time>2013-11-09T14:08:41.93</time>
      </trkpt>
      <trkpt lat="38.45741833333334" lon="-1.179335">
        <ele>1378.1999999999998</ele>
        <time>2013-11-09T14:08:42.93</time>
      </trkpt>
      <trkpt lat="38.457341666666665" lon="-1.1793333333333333">
        <ele>1380.8999999999999</ele>
        <time>2013-11-09T14:08:43.91</time>
      </trkpt>
      <trkpt lat="38.45724666666667" lon="-1.1793133333333334">
        <ele>1383.3999999999999</ele>
        <time>2013-11-09T14:08:44.93</time>
      </trkpt>
      <trkpt lat="38.45714" lon="-1.1792966666666667">
        <ele>1385.6</ele>
        <time>2013-11-09T14:08:45.94</time>
      </trkpt>
      <trkpt lat="38.45702166666667" lon="-1.1792666666666667">
        <ele>1387.6</ele>
        <time>2013-11-09T14:08:46.93</time>
      </trkpt>
      <trkpt lat="38.45688333333333" lon="-1.179235">
        <ele>1389.3</ele>
        <time>2013-11-09T14:08:47.95</time>
      </trkpt>
      <trkpt lat="38.456801666666664" lon="-1.1791766666666668">
        <ele>1391.3</ele>
        <time>2013-11-09T14:08:48.95</time>
      </trkpt>
      <trkpt lat="38.456716666666665" lon="-1.1791083333333332">
        <ele>1393.1</ele>
        <time>2013-11-09T14:08:49.94</time>
      </trkpt>
      <trkpt lat="38.45661666666667" lon="-1.179035">
        <ele>1394.3999999999999</ele>
        <time>2013-11-09T14:08:50.95</time>
      </trkpt>
      <trkpt lat="38.456516666666666" lon="-1.1789633333333334">
        <ele>1395.6</ele>
        <time>2013-11-09T14:08:51.94</time>
      </trkpt>
      <trkpt lat="38.456408333333336" lon="-1.1788816666666666">
        <ele>1397.1</ele>
        <time>2013-11-09T14:08:52.95</time>
      </trkpt>
      <trkpt lat="38.456295" lon="-1.1788016666666667">
        <ele>1398.3</ele>
        <time>2013-11-09T14:08:53.95</time>
      </trkpt>
      <trkpt lat="38.456178333333334" lon="-1.1787083333333332">
        <ele>1399.3999999999999</ele>
        <time>2013-11-09T14:08:54.94</time>
      </trkpt>
      <trkpt lat="38.456095" lon="-1.1785516666666667">
        <ele>1400.9999999999998</ele>
        <time>2013-11-09T14:08:55.95</time>
      </trkpt>
      <trkpt lat="38.45603" lon="-1.1783966666666665">
        <ele>1403.0999999999997</ele>
        <time>2013-11-09T14:08:56.95</time>
      </trkpt>
      <trkpt lat="38.45600666666667" lon="-1.178225">
        <ele>1405.1999999999996</ele>
        <time>2013-11-09T14:08:57.95</time>
      </trkpt>
      <trkpt lat="38.45599166666667" lon="-1.1780533333333334">
        <ele>1407.7999999999995</ele>
        <time>2013-11-09T14:08:58.95</time>
      </trkpt>
      <trkpt lat="38.45600833333334" lon="-1.1779183333333334">
        <ele>1410.1999999999996</ele>
        <time>2013-11-09T14:08:59.94</time>
      </trkpt>
      <trkpt lat="38.456045" lon="-1.1777983333333333">
        <ele>1412.9999999999995</ele>
        <time>2013-11-09T14:09:00.95</time>
      </trkpt>
      <trkpt lat="38.45610333333333" lon="-1.1776933333333333">
        <ele>1415.7999999999995</ele>
        <time>2013-11-09T14:09:01.95</time>
      </trkpt>
      <trkpt lat="38.456181666666666" lon="-1.1776200000000001">
        <ele>1418.0999999999995</ele>
        <time>2013-11-09T14:09:02.94</time>
      </trkpt>
      <trkpt lat="38.45625833333333" lon="-1.1775566666666666">
        <ele>1419.9999999999995</ele>
        <time>2013-11-09T14:09:03.91</time>
      </trkpt>
      <trkpt lat="38.456338333333335" lon="-1.1775383333333334">
        <ele>1421.8999999999996</ele>
        <time>2013-11-09T14:09:04.94</time>
      </trkpt>
      <trkpt lat="38.456401666666665" lon="-1.1775533333333335">
        <ele>1423.4999999999995</ele>
        <time>2013-11-09T14:09:05.95</time>
      </trkpt>
      <trkpt lat="38.45643833333333" lon="-1.1775766666666667">
        <ele>1424.5999999999995</ele>
        <time>2013-11-09T14:09:06.94</time>
      </trkpt>
      <trkpt lat="38.456475" lon="-1.1776033333333333">
        <ele>1425.5999999999995</ele>
        <time>2013-11-09T14:09:07.95</time>
      </trkpt>
      <trkpt lat="38.45653" lon="-1.1776566666666666">
        <ele>1427.2999999999995</ele>
        <time>2013-11-09T14:09:08.97</time>
      </trkpt>
      <trkpt lat="38.456565" lon="-1.177745">
        <ele>1429.8999999999994</ele>
        <time>2013-11-09T14:09:09.95</time>
      </trkpt>
      <trkpt lat="38.456558333333334" lon="-1.1778483333333334">
        <ele>1432.7999999999995</ele>
        <time>2013-11-09T14:09:10.95</time>
      </trkpt>
      <trkpt lat="38.456536666666665" lon="-1.1779316666666666">
        <ele>1435.5999999999995</ele>
        <time>2013-11-09T14:09:11.95</time>
      </trkpt>
      <trkpt lat="38.456498333333336" lon="-1.1780183333333334">
        <ele>1437.9999999999995</ele>
        <time>2013-11-09T14:09:12.95</time>
      </trkpt>
      <trkpt lat="38.456445" lon="-1.178095">
        <ele>1440.4999999999995</ele>
        <time>2013-11-09T14:09:13.95</time>
      </trkpt>
      <trkpt lat="38.456381666666665" lon="-1.1781533333333334">
        <ele>1443.0999999999995</ele>
        <time>2013-11-09T14:09:14.95</time>
      </trkpt>
      <trkpt lat="38.456295" lon="-1.1782">
        <ele>1445.6999999999994</ele>
        <time>2013-11-09T14:09:15.95</time>
      </trkpt>
      <trkpt lat="38.45619166666667" lon="-1.1782216666666667">
        <ele>1448.0999999999995</ele>
        <time>2013-11-09T14:09:16.95</time>
      </trkpt>
      <trkpt lat="38.45607666666667" lon="-1.1782416666666666">
        <ele>1450.4999999999995</ele>
        <time>2013-11-09T14:09:17.95</time>
      </trkpt>
      <trkpt lat="38.45596" lon="-1.1782283333333332">
        <ele>1453.0999999999995</ele>
        <time>2013-11-09T14:09:18.95</time>
      </trkpt>
      <trkpt lat="38.45585333333333" lon="-1.1782083333333333">
        <ele>1455.7999999999995</ele>
        <time>2013-11-09T14:09:19.95</time>
      </trkpt>
      <trkpt lat="38.45574666666667" lon="-1.1781833333333334">
        <ele>1458.3999999999994</ele>
        <time>2013-11-09T14:09:20.95</time>
      </trkpt>
      <trkpt lat="38.455641666666665" lon="-1.178155">
        <ele>1460.5999999999995</ele>
        <time>2013-11-09T14:09:21.95</time>
      </trkpt>
      <trkpt lat="38.455535" lon="-1.178115">
        <ele>1462.7999999999995</ele>
        <time>2013-11-09T14:09:22.95</time>
      </trkpt>
      <trkpt lat="38.455421666666666" lon="-1.1780633333333332">
        <ele>1464.8999999999994</ele>
        <time>2013-11-09T14:09:24.19</time>
      </trkpt>
      <trkpt lat="38.45530333333333" lon="-1.1779983333333333">
        <ele>1467.0999999999995</ele>
        <time>2013-11-09T14:09:24.95</time>
      </trkpt>
      <trkpt lat="38.45518666666667" lon="-1.1779283333333335">
        <ele>1468.6999999999994</ele>
        <time>2013-11-09T14:09:25.95</time>
      </trkpt>
      <trkpt lat="38.45509" lon="-1.1778583333333335">
        <ele>1470.4999999999993</ele>
        <time>2013-11-09T14:09:26.95</time>
      </trkpt>
      <trkpt lat="38.45499" lon="-1.177795">
        <ele>1471.9999999999993</ele>
        <time>2013-11-09T14:09:27.96</time>
      </trkpt>
      <trkpt lat="38.45489333333333" lon="-1.1777233333333332">
        <ele>1473.5999999999992</ele>
        <time>2013-11-09T14:09:28.92</time>
      </trkpt>
      <trkpt lat="38.45479666666667" lon="-1.1776566666666666">
        <ele>1474.9999999999993</ele>
        <time>2013-11-09T14:09:29.95</time>
      </trkpt>
      <trkpt lat="38.45469666666666" lon="-1.1775833333333332">
        <ele>1476.1999999999994</ele>
        <time>2013-11-09T14:09:30.95</time>
      </trkpt>
      <trkpt lat="38.454591666666666" lon="-1.1774933333333333">
        <ele>1477.2999999999993</ele>
        <time>2013-11-09T14:09:31.95</time>
      </trkpt>
      <trkpt lat="38.45448666666667" lon="-1.1773916666666666">
        <ele>1478.4999999999993</ele>
        <time>2013-11-09T14:09:32.96</time>
      </trkpt>
      <trkpt lat="38.454386666666664" lon="-1.1772633333333333">
        <ele>1480.3999999999994</ele>
        <time>2013-11-09T14:09:33.95</time>
      </trkpt>
      <trkpt lat="38.45429" lon="-1.1771483333333332">
        <ele>1482.4999999999993</ele>
        <time>2013-11-09T14:09:34.95</time>
      </trkpt>
      <trkpt lat="38.45419833333333" lon="-1.17705">
        <ele>1484.8999999999994</ele>
        <time>2013-11-09T14:09:35.95</time>
      </trkpt>
      <trkpt lat="38.45410833333333" lon="-1.1769516666666666">
        <ele>1487.1999999999994</ele>
        <time>2013-11-09T14:09:36.95</time>
      </trkpt>
      <trkpt lat="38.454015" lon="-1.1768483333333333">
        <ele>1489.3999999999994</ele>
        <time>2013-11-09T14:09:37.95</time>
      </trkpt>
      <trkpt lat="38.453916666666665" lon="-1.1767366666666668">
        <ele>1491.3999999999994</ele>
        <time>2013-11-09T14:09:38.95</time>
      </trkpt>
      <trkpt lat="38.45381833333333" lon="-1.1766166666666666">
        <ele>1493.3999999999994</ele>
        <time>2013-11-09T14:09:39.91</time>
      </trkpt>
      <trkpt lat="38.45372166666667" lon="-1.1764933333333334">
        <ele>1495.3999999999994</ele>
        <time>2013-11-09T14:09:40.95</time>
      </trkpt>
      <trkpt lat="38.45362" lon="-1.17635">
        <ele>1497.3999999999994</ele>
        <time>2013-11-09T14:09:41.95</time>
      </trkpt>
      <trkpt lat="38.45353333333333" lon="-1.1762133333333333">
        <ele>1499.4999999999993</ele>
        <time>2013-11-09T14:09:42.95</time>
      </trkpt>
      <trkpt lat="38.45345666666667" lon="-1.1760783333333333">
        <ele>1501.4999999999993</ele>
        <time>2013-11-09T14:09:43.97</time>
      </trkpt>
      <trkpt lat="38.453381666666665" lon="-1.1759416666666667">
        <ele>1502.9999999999993</ele>
        <time>2013-11-09T14:09:44.95</time>
      </trkpt>
      <trkpt lat="38.45334666666667" lon="-1.1758016666666666">
        <ele>1504.2999999999993</ele>
        <time>2013-11-09T14:09:45.95</time>
      </trkpt>
      <trkpt lat="38.453311666666664" lon="-1.1756516666666665">
        <ele>1505.6999999999994</ele>
        <time>2013-11-09T14:09:46.95</time>
      </trkpt>
      <trkpt lat="38.45329666666667" lon="-1.175495">
        <ele>1506.8999999999994</ele>
        <time>2013-11-09T14:09:47.95</time>
      </trkpt>
      <trkpt lat="38.45328833333333" lon="-1.1753583333333333">
        <ele>1508.2999999999995</ele>
        <time>2013-11-09T14:09:48.95</time>
      </trkpt>
      <trkpt lat="38.45328666666666" lon="-1.17523">
        <ele>1509.9999999999995</ele>
        <time>2013-11-09T14:09:49.95</time>
      </trkpt>
      <trkpt lat="38.453313333333334" lon="-1.1750933333333333">
        <ele>1511.7999999999995</ele>
        <time>2013-11-09T14:09:50.98</time>
      </trkpt>
      <trkpt lat="38.453345" lon="-1.1749533333333333">
        <ele>1513.6999999999996</ele>
        <time>2013-11-09T14:09:51.95</time>
      </trkpt>
      <trkpt lat="38.45338666666667" lon="-1.17481">
        <ele>1515.1999999999996</ele>
        <time>2013-11-09T14:09:52.95</time>
      </trkpt>
      <trkpt lat="38.45343833333333" lon="-1.174685">
        <ele>1516.7999999999995</ele>
        <time>2013-11-09T14:09:53.95</time>
      </trkpt>
      <trkpt lat="38.45352166666667" lon="-1.174585">
        <ele>1518.0999999999995</ele>
        <time>2013-11-09T14:09:54.95</time>
      </trkpt>
      <trkpt lat="38.453633333333336" lon="-1.1745516666666667">
        <ele>1519.1999999999994</ele>
        <time>2013-11-09T14:09:56.9</time>
      </trkpt>
      <trkpt lat="38.45373166666667" lon="-1.1745333333333332">
        <ele>1520.3999999999994</ele>
        <time>2013-11-09T14:09:56.92</time>
      </trkpt>
      <trkpt lat="38.45381166666667" lon="-1.174535">
        <ele>1521.2999999999995</ele>
        <time>2013-11-09T14:09:57.90</time>
      </trkpt>
      <trkpt lat="38.453876666666666" lon="-1.1745416666666666">
        <ele>1522.2999999999995</ele>
        <time>2013-11-09T14:09:58.90</time>
      </trkpt>
      <trkpt lat="38.453925" lon="-1.1745566666666667">
        <ele>1523.7999999999995</ele>
        <time>2013-11-09T14:09:59.89</time>
      </trkpt>
      <trkpt lat="38.45395333333333" lon="-1.174565">
        <ele>1523.8999999999994</ele>
        <time>2013-11-09T14:10:00.97</time>
      </trkpt>
      <trkpt lat="38.453986666666665" lon="-1.1746050000000001">
        <ele>1524.0999999999995</ele>
        <time>2013-11-09T14:10:01.96</time>
      </trkpt>
      <trkpt lat="38.45402166666667" lon="-1.1746633333333334">
        <ele>1525.5999999999995</ele>
        <time>2013-11-09T14:10:02.91</time>
      </trkpt>
      <trkpt lat="38.454055" lon="-1.1747366666666665">
        <ele>1527.2999999999995</ele>
        <time>2013-11-09T14:10:04.9</time>
      </trkpt>
      <trkpt lat="38.454071666666664" lon="-1.1748216666666667">
        <ele>1528.9999999999995</ele>
        <time>2013-11-09T14:10:04.99</time>
      </trkpt>
      <trkpt lat="38.45407" lon="-1.1748966666666667">
        <ele>1530.6999999999996</ele>
        <time>2013-11-09T14:10:05.94</time>
      </trkpt>
      <trkpt lat="38.454033333333335" lon="-1.1749916666666667">
        <ele>1532.5999999999997</ele>
        <time>2013-11-09T14:10:06.96</time>
      </trkpt>
      <trkpt lat="38.453981666666664" lon="-1.17508">
        <ele>1534.3999999999996</ele>
        <time>2013-11-09T14:10:07.92</time>
      </trkpt>
      <trkpt lat="38.453923333333336" lon="-1.175155">
        <ele>1536.4999999999995</ele>
        <time>2013-11-09T14:10:08.96</time>
      </trkpt>
      <trkpt lat="38.453845" lon="-1.1752016666666667">
        <ele>1538.5999999999995</ele>
        <time>2013-11-09T14:10:09.95</time>
      </trkpt>
      <trkpt lat="38.45376666666667" lon="-1.1752316666666667">
        <ele>1540.3999999999994</ele>
        <time>2013-11-09T14:10:10.97</time>
      </trkpt>
      <trkpt lat="38.45366833333333" lon="-1.1752633333333333">
        <ele>1542.1999999999994</ele>
        <time>2013-11-09T14:10:12.19</time>
      </trkpt>
      <trkpt lat="38.45356" lon="-1.175265">
        <ele>1544.2999999999993</ele>
        <time>2013-11-09T14:10:12.91</time>
      </trkpt>
      <trkpt lat="38.453446666666665" lon="-1.1752583333333333">
        <ele>1546.5999999999992</ele>
        <time>2013-11-09T14:10:14.29</time>
      </trkpt>
      <trkpt lat="38.45333333333333" lon="-1.1752483333333332">
        <ele>1548.9999999999993</ele>
        <time>2013-11-09T14:10:14.96</time>
      </trkpt>
      <trkpt lat="38.45323166666667" lon="-1.1752083333333334">
        <ele>1551.4999999999993</ele>
        <time>2013-11-09T14:10:15.96</time>
      </trkpt>
      <trkpt lat="38.453105" lon="-1.1751716666666667">
        <ele>1553.7999999999993</ele>
        <time>2013-11-09T14:10:16.92</time>
      </trkpt>
      <trkpt lat="38.45301666666667" lon="-1.1751">
        <ele>1555.9999999999993</ele>
        <time>2013-11-09T14:10:17.96</time>
      </trkpt>
      <trkpt lat="38.45294333333333" lon="-1.1750283333333333">
        <ele>1557.7999999999993</ele>
        <time>2013-11-09T14:10:18.96</time>
      </trkpt>
      <trkpt lat="38.452875" lon="-1.1749399999999999">
        <ele>1559.2999999999993</ele>
        <time>2013-11-09T14:10:19.92</time>
      </trkpt>
      <trkpt lat="38.45278166666667" lon="-1.1748216666666667">
        <ele>1560.7999999999993</ele>
        <time>2013-11-09T14:10:20.96</time>
      </trkpt>
      <trkpt lat="38.45268166666666" lon="-1.1747">
        <ele>1562.0999999999992</ele>
        <time>2013-11-09T14:10:22.19</time>
      </trkpt>
      <trkpt lat="38.452605" lon="-1.1745533333333333">
        <ele>1563.2999999999993</ele>
        <time>2013-11-09T14:10:22.96</time>
      </trkpt>
      <trkpt lat="38.452535" lon="-1.1744083333333333">
        <ele>1564.3999999999992</ele>
        <time>2013-11-09T14:10:23.96</time>
      </trkpt>
      <trkpt lat="38.45247166666667" lon="-1.1742583333333334">
        <ele>1564.8999999999992</ele>
        <time>2013-11-09T14:10:24.91</time>
      </trkpt>
      <trkpt lat="38.45243166666667" lon="-1.1740883333333334">
        <ele>1565.2999999999993</ele>
        <time>2013-11-09T14:10:25.96</time>
      </trkpt>
      <trkpt lat="38.452398333333335" lon="-1.1739116666666667">
        <ele>1565.8999999999992</ele>
        <time>2013-11-09T14:10:26.97</time>
      </trkpt>
      <trkpt lat="38.452378333333336" lon="-1.1737483333333334">
        <ele>1566.6999999999991</ele>
        <time>2013-11-09T14:10:27.96</time>
      </trkpt>
      <trkpt lat="38.45238166666667" lon="-1.173575">
        <ele>1567.999999999999</ele>
        <time>2013-11-09T14:10:28.96</time>
      </trkpt>
      <trkpt lat="38.45238833333333" lon="-1.1734033333333334">
        <ele>1569.6999999999991</ele>
        <time>2013-11-09T14:10:29.94</time>
      </trkpt>
      <trkpt lat="38.45241166666667" lon="-1.1732516666666666">
        <ele>1571.1999999999991</ele>
        <time>2013-11-09T14:10:30.92</time>
      </trkpt>
      <trkpt lat="38.45245333333333" lon="-1.1731116666666668">
        <ele>1573.1999999999991</ele>
        <time>2013-11-09T14:10:31.96</time>
      </trkpt>
      <trkpt lat="38.45252833333333" lon="-1.173005">
        <ele>1574.999999999999</ele>
        <time>2013-11-09T14:10:32.96</time>
      </trkpt>
      <trkpt lat="38.452621666666666" lon="-1.1729133333333333">
        <ele>1576.299999999999</ele>
        <time>2013-11-09T14:10:33.92</time>
      </trkpt>
      <trkpt lat="38.45270166666667" lon="-1.1728433333333332">
        <ele>1577.299999999999</ele>
        <time>2013-11-09T14:10:34.97</time>
      </trkpt>
      <trkpt lat="38.45278833333333" lon="-1.1728066666666668">
        <ele>1578.399999999999</ele>
        <time>2013-11-09T14:10:35.96</time>
      </trkpt>
      <trkpt lat="38.452848333333336" lon="-1.1727866666666666">
        <ele>1579.4999999999989</ele>
        <time>2013-11-09T14:10:36.96</time>
      </trkpt>
      <trkpt lat="38.452891666666666" lon="-1.1727933333333334">
        <ele>1579.5999999999988</ele>
        <time>2013-11-09T14:10:37.96</time>
      </trkpt>
      <trkpt lat="38.45292166666667" lon="-1.172835">
        <ele>1579.7999999999988</ele>
        <time>2013-11-09T14:10:38.92</time>
      </trkpt>
      <trkpt lat="38.45295333333333" lon="-1.1729033333333334">
        <ele>1579.9999999999989</ele>
        <time>2013-11-09T14:10:39.96</time>
      </trkpt>
      <trkpt lat="38.45295333333333" lon="-1.1729766666666666">
        <ele>1582.699999999999</ele>
        <time>2013-11-09T14:10:40.90</time>
      </trkpt>
      <trkpt lat="38.452938333333336" lon="-1.173055">
        <ele>1585.099999999999</ele>
        <time>2013-11-09T14:10:41.96</time>
      </trkpt>
      <trkpt lat="38.45289" lon="-1.1731583333333333">
        <ele>1587.899999999999</ele>
        <time>2013-11-09T14:10:42.97</time>
      </trkpt>
      <trkpt lat="38.45284" lon="-1.1732433333333334">
        <ele>1590.9999999999989</ele>
        <time>2013-11-09T14:10:44.39</time>
      </trkpt>
      <trkpt lat="38.45278666666667" lon="-1.1733133333333332">
        <ele>1594.0999999999988</ele>
        <time>2013-11-09T14:10:44.99</time>
      </trkpt>
      <trkpt lat="38.45273666666667" lon="-1.1733766666666667">
        <ele>1597.0999999999988</ele>
        <time>2013-11-09T14:10:46.9</time>
      </trkpt>
      <trkpt lat="38.452693333333336" lon="-1.1734316666666667">
        <ele>1599.7999999999988</ele>
        <time>2013-11-09T14:10:46.96</time>
      </trkpt>
      <trkpt lat="38.452655" lon="-1.1734816666666665">
        <ele>1602.2999999999988</ele>
        <time>2013-11-09T14:10:47.96</time>
      </trkpt>
      <trkpt lat="38.452618333333334" lon="-1.1735283333333333">
        <ele>1604.3999999999987</ele>
        <time>2013-11-09T14:10:48.96</time>
      </trkpt>
      <trkpt lat="38.45256333333333" lon="-1.1735783333333334">
        <ele>1606.4999999999986</ele>
        <time>2013-11-09T14:10:49.96</time>
      </trkpt>
      <trkpt lat="38.452505" lon="-1.1736333333333333">
        <ele>1608.4999999999986</ele>
        <time>2013-11-09T14:10:50.96</time>
      </trkpt>
      <trkpt lat="38.45244666666667" lon="-1.1736916666666666">
        <ele>1610.2999999999986</ele>
        <time>2013-11-09T14:10:51.96</time>
      </trkpt>
      <trkpt lat="38.4524" lon="-1.1737383333333333">
        <ele>1612.2999999999986</ele>
        <time>2013-11-09T14:10:52.96</time>
      </trkpt>
      <trkpt lat="38.45236833333333" lon="-1.1737733333333333">
        <ele>1614.4999999999986</ele>
        <time>2013-11-09T14:10:53.96</time>
      </trkpt>
      <trkpt lat="38.452331666666666" lon="-1.173815">
        <ele>1616.5999999999985</ele>
        <time>2013-11-09T14:10:54.96</time>
      </trkpt>
      <trkpt lat="38.45229" lon="-1.173865">
        <ele>1618.6999999999985</ele>
        <time>2013-11-09T14:10:55.90</time>
      </trkpt>
      <trkpt lat="38.452241666666666" lon="-1.1739233333333332">
        <ele>1620.5999999999985</ele>
        <time>2013-11-09T14:10:57.19</time>
      </trkpt>
      <trkpt lat="38.452195" lon="-1.1739866666666667">
        <ele>1622.6999999999985</ele>
        <time>2013-11-09T14:10:57.97</time>
      </trkpt>
      <trkpt lat="38.452148333333334" lon="-1.1740483333333334">
        <ele>1624.3999999999985</ele>
        <time>2013-11-09T14:10:58.96</time>
      </trkpt>
      <trkpt lat="38.45211333333334" lon="-1.1741016666666666">
        <ele>1626.2999999999986</ele>
        <time>2013-11-09T14:10:59.96</time>
      </trkpt>
      <trkpt lat="38.452081666666665" lon="-1.17415">
        <ele>1627.9999999999986</ele>
        <time>2013-11-09T14:11:00.96</time>
      </trkpt>
      <trkpt lat="38.452038333333334" lon="-1.1742066666666666">
        <ele>1629.6999999999987</ele>
        <time>2013-11-09T14:11:01.96</time>
      </trkpt>
      <trkpt lat="38.451971666666665" lon="-1.1742583333333334">
        <ele>1631.4999999999986</ele>
        <time>2013-11-09T14:11:02.96</time>
      </trkpt>
      <trkpt lat="38.451883333333335" lon="-1.1742933333333334">
        <ele>1633.2999999999986</ele>
        <time>2013-11-09T14:11:03.96</time>
      </trkpt>
      <trkpt lat="38.45178166666667" lon="-1.1743000000000001">
        <ele>1635.0999999999985</ele>
        <time>2013-11-09T14:11:05.79</time>
      </trkpt>
      <trkpt lat="38.45169" lon="-1.1743016666666666">
        <ele>1637.0999999999985</ele>
        <time>2013-11-09T14:11:05.96</time>
      </trkpt>
      <trkpt lat="38.45159" lon="-1.1743066666666666">
        <ele>1638.3999999999985</ele>
        <time>2013-11-09T14:11:06.95</time>
      </trkpt>
      <trkpt lat="38.45149333333333" lon="-1.1742966666666668">
        <ele>1639.8999999999985</ele>
        <time>2013-11-09T14:11:07.96</time>
      </trkpt>
      <trkpt lat="38.451386666666664" lon="-1.174295">
        <ele>1641.5999999999985</ele>
        <time>2013-11-09T14:11:08.97</time>
      </trkpt>
      <trkpt lat="38.451256666666666" lon="-1.1742483333333333">
        <ele>1643.4999999999986</ele>
        <time>2013-11-09T14:11:09.96</time>
      </trkpt>
      <trkpt lat="38.45113166666667" lon="-1.1741833333333334">
        <ele>1645.5999999999985</ele>
        <time>2013-11-09T14:11:10.92</time>
      </trkpt>
      <trkpt lat="38.451026666666664" lon="-1.174085">
        <ele>1647.2999999999986</ele>
        <time>2013-11-09T14:11:11.91</time>
      </trkpt>
      <trkpt lat="38.45094" lon="-1.1739666666666666">
        <ele>1648.2999999999986</ele>
        <time>2013-11-09T14:11:12.97</time>
      </trkpt>
      <trkpt lat="38.45086166666667" lon="-1.1738416666666667">
        <ele>1648.9999999999986</ele>
        <time>2013-11-09T14:11:13.97</time>
      </trkpt>
      <trkpt lat="38.450815" lon="-1.1736733333333333">
        <ele>1649.5999999999985</ele>
        <time>2013-11-09T14:11:14.96</time>
      </trkpt>
      <trkpt lat="38.450775" lon="-1.1735066666666667">
        <ele>1650.5999999999985</ele>
        <time>2013-11-09T14:11:15.94</time>
      </trkpt>
      <trkpt lat="38.450755" lon="-1.1733433333333334">
        <ele>1651.3999999999985</ele>
        <time>2013-11-09T14:11:17.49</time>
      </trkpt>
      <trkpt lat="38.45078" lon="-1.1731833333333332">
        <ele>1652.4999999999984</ele>
        <time>2013-11-09T14:11:18.49</time>
      </trkpt>
      <trkpt lat="38.450835" lon="-1.1730466666666666">
        <ele>1653.7999999999984</ele>
        <time>2013-11-09T14:11:19.11</time>
      </trkpt>
      <trkpt lat="38.45091" lon="-1.1729416666666665">
        <ele>1655.4999999999984</ele>
        <time>2013-11-09T14:11:19.96</time>
      </trkpt>
      <trkpt lat="38.451006666666665" lon="-1.1728733333333334">
        <ele>1657.2999999999984</ele>
        <time>2013-11-09T14:11:20.99</time>
      </trkpt>
      <trkpt lat="38.451098333333334" lon="-1.1728166666666666">
        <ele>1658.6999999999985</ele>
        <time>2013-11-09T14:11:21.98</time>
      </trkpt>
      <trkpt lat="38.45118166666666" lon="-1.1727933333333334">
        <ele>1659.8999999999985</ele>
        <time>2013-11-09T14:11:22.92</time>
      </trkpt>
      <trkpt lat="38.451251666666664" lon="-1.1728100000000001">
        <ele>1660.8999999999985</ele>
        <time>2013-11-09T14:11:23.96</time>
      </trkpt>
      <trkpt lat="38.45131166666667" lon="-1.1728466666666666">
        <ele>1662.0999999999985</ele>
        <time>2013-11-09T14:11:25.39</time>
      </trkpt>
      <trkpt lat="38.45136333333333" lon="-1.1729083333333334">
        <ele>1663.4999999999986</ele>
        <time>2013-11-09T14:11:25.96</time>
      </trkpt>
      <trkpt lat="38.45140166666667" lon="-1.1729783333333335">
        <ele>1665.7999999999986</ele>
        <time>2013-11-09T14:11:27.29</time>
      </trkpt>
      <trkpt lat="38.451405" lon="-1.1730616666666667">
        <ele>1668.5999999999985</ele>
        <time>2013-11-09T14:11:27.96</time>
      </trkpt>
      <trkpt lat="38.45137833333333" lon="-1.17314">
        <ele>1671.4999999999986</ele>
        <time>2013-11-09T14:11:28.96</time>
      </trkpt>
      <trkpt lat="38.451355" lon="-1.1731983333333333">
        <ele>1671.7999999999986</ele>
        <time>2013-11-09T14:11:29.96</time>
      </trkpt>
      <trkpt lat="38.451328333333336" lon="-1.173245">
        <ele>1674.9999999999986</ele>
        <time>2013-11-09T14:11:30.94</time>
      </trkpt>
      <trkpt lat="38.45129" lon="-1.173315">
        <ele>1677.5999999999985</ele>
        <time>2013-11-09T14:11:31.97</time>
      </trkpt>
      <trkpt lat="38.451225" lon="-1.1733966666666666">
        <ele>1679.8999999999985</ele>
        <time>2013-11-09T14:11:32.97</time>
      </trkpt>
      <trkpt lat="38.45116" lon="-1.1734683333333333">
        <ele>1682.1999999999985</ele>
        <time>2013-11-09T14:11:34.49</time>
      </trkpt>
      <trkpt lat="38.451078333333335" lon="-1.1735133333333334">
        <ele>1684.3999999999985</ele>
        <time>2013-11-09T14:11:34.96</time>
      </trkpt>
      <trkpt lat="38.451005" lon="-1.1735483333333334">
        <ele>1686.5999999999985</ele>
        <time>2013-11-09T14:11:35.92</time>
      </trkpt>
      <trkpt lat="38.450936666666664" lon="-1.173575">
        <ele>1688.5999999999985</ele>
        <time>2013-11-09T14:11:36.92</time>
      </trkpt>
      <trkpt lat="38.45086166666667" lon="-1.173605">
        <ele>1690.4999999999986</ele>
        <time>2013-11-09T14:11:37.96</time>
      </trkpt>
      <trkpt lat="38.450783333333334" lon="-1.1736333333333333">
        <ele>1692.2999999999986</ele>
        <time>2013-11-09T14:11:38.96</time>
      </trkpt>
      <trkpt lat="38.450691666666664" lon="-1.1736716666666667">
        <ele>1694.2999999999986</ele>
        <time>2013-11-09T14:11:39.96</time>
      </trkpt>
      <trkpt lat="38.45059333333333" lon="-1.1737116666666667">
        <ele>1696.2999999999986</ele>
        <time>2013-11-09T14:11:40.96</time>
      </trkpt>
      <trkpt lat="38.45050666666667" lon="-1.1737066666666667">
        <ele>1698.1999999999987</ele>
        <time>2013-11-09T14:11:41.97</time>
      </trkpt>
      <trkpt lat="38.45042" lon="-1.1736983333333333">
        <ele>1700.1999999999987</ele>
        <time>2013-11-09T14:11:42.94</time>
      </trkpt>
      <trkpt lat="38.45033" lon="-1.1736933333333333">
        <ele>1701.7999999999986</ele>
        <time>2013-11-09T14:11:43.96</time>
      </trkpt>
      <trkpt lat="38.45023333333334" lon="-1.17368">
        <ele>1703.0999999999985</ele>
        <time>2013-11-09T14:11:44.92</time>
      </trkpt>
      <trkpt lat="38.450131666666664" lon="-1.1736316666666666">
        <ele>1704.8999999999985</ele>
        <time>2013-11-09T14:11:45.93</time>
      </trkpt>
      <trkpt lat="38.45001666666667" lon="-1.17358">
        <ele>1706.4999999999984</ele>
        <time>2013-11-09T14:11:46.90</time>
      </trkpt>
      <trkpt lat="38.449925" lon="-1.173505">
        <ele>1708.3999999999985</ele>
        <time>2013-11-09T14:11:47.89</time>
      </trkpt>
      <trkpt lat="38.44983333333333" lon="-1.1734149999999999">
        <ele>1710.3999999999985</ele>
        <time>2013-11-09T14:11:48.92</time>
      </trkpt>
      <trkpt lat="38.44974166666667" lon="-1.1733216666666666">
        <ele>1711.8999999999985</ele>
        <time>2013-11-09T14:11:49.94</time>
      </trkpt>
      <trkpt lat="38.44967166666667" lon="-1.1731766666666665">
        <ele>1713.0999999999985</ele>
        <time>2013-11-09T14:11:50.92</time>
      </trkpt>
      <trkpt lat="38.44962666666667" lon="-1.173">
        <ele>1714.7999999999986</ele>
        <time>2013-11-09T14:11:51.96</time>
      </trkpt>
      <trkpt lat="38.44958666666667" lon="-1.1728399999999999">
        <ele>1716.3999999999985</ele>
        <time>2013-11-09T14:11:52.99</time>
      </trkpt>
      <trkpt lat="38.449558333333336" lon="-1.1726933333333334">
        <ele>1718.3999999999985</ele>
        <time>2013-11-09T14:11:53.96</time>
      </trkpt>
      <trkpt lat="38.44955" lon="-1.1725316666666667">
        <ele>1720.8999999999985</ele>
        <time>2013-11-09T14:11:54.96</time>
      </trkpt>
      <trkpt lat="38.449585" lon="-1.17238">
        <ele>1723.3999999999985</ele>
        <time>2013-11-09T14:11:55.96</time>
      </trkpt>
      <trkpt lat="38.449623333333335" lon="-1.1722366666666666">
        <ele>1725.7999999999986</ele>
        <time>2013-11-09T14:11:56.96</time>
      </trkpt>
      <trkpt lat="38.449693333333336" lon="-1.1721183333333334">
        <ele>1728.0999999999985</ele>
        <time>2013-11-09T14:11:57.96</time>
      </trkpt>
      <trkpt lat="38.449785" lon="-1.1720533333333334">
        <ele>1730.0999999999985</ele>
        <time>2013-11-09T14:11:58.91</time>
      </trkpt>
      <trkpt lat="38.44987666666667" lon="-1.1719916666666665">
        <ele>1731.6999999999985</ele>
        <time>2013-11-09T14:11:59.97</time>
      </trkpt>
      <trkpt lat="38.44995333333333" lon="-1.1719816666666667">
        <ele>1733.9999999999984</ele>
        <time>2013-11-09T14:12:00.96</time>
      </trkpt>
      <trkpt lat="38.45001666666667" lon="-1.1719833333333334">
        <ele>1736.7999999999984</ele>
        <time>2013-11-09T14:12:01.96</time>
      </trkpt>
      <trkpt lat="38.45006333333333" lon="-1.1720233333333334">
        <ele>1739.7999999999984</ele>
        <time>2013-11-09T14:12:02.96</time>
      </trkpt>
      <trkpt lat="38.45010166666667" lon="-1.1720833333333334">
        <ele>1742.4999999999984</ele>
        <time>2013-11-09T14:12:04.49</time>
      </trkpt>
      <trkpt lat="38.45012333333333" lon="-1.1721616666666668">
        <ele>1745.1999999999985</ele>
        <time>2013-11-09T14:12:04.91</time>
      </trkpt>
      <trkpt lat="38.450111666666665" lon="-1.1722583333333334">
        <ele>1747.9999999999984</ele>
        <time>2013-11-09T14:12:05.92</time>
      </trkpt>
      <trkpt lat="38.450066666666665" lon="-1.1723483333333333">
        <ele>1750.8999999999985</ele>
        <time>2013-11-09T14:12:06.96</time>
      </trkpt>
      <trkpt lat="38.45001833333333" lon="-1.17243">
        <ele>1753.6999999999985</ele>
        <time>2013-11-09T14:12:07.97</time>
      </trkpt>
      <trkpt lat="38.449958333333335" lon="-1.172485">
        <ele>1756.4999999999984</ele>
        <time>2013-11-09T14:12:09.12</time>
      </trkpt>
      <trkpt lat="38.449886666666664" lon="-1.17252">
        <ele>1759.0999999999983</ele>
        <time>2013-11-09T14:12:09.96</time>
      </trkpt>
      <trkpt lat="38.449805" lon="-1.17255">
        <ele>1761.5999999999983</ele>
        <time>2013-11-09T14:12:11.39</time>
      </trkpt>
      <trkpt lat="38.44971833333334" lon="-1.1725766666666666">
        <ele>1763.7999999999984</ele>
        <time>2013-11-09T14:12:12.29</time>
      </trkpt>
      <trkpt lat="38.44961166666667" lon="-1.1725983333333334">
        <ele>1765.9999999999984</ele>
        <time>2013-11-09T14:12:12.97</time>
      </trkpt>
      <trkpt lat="38.44951666666667" lon="-1.172605">
        <ele>1768.2999999999984</ele>
        <time>2013-11-09T14:12:13.97</time>
      </trkpt>
      <trkpt lat="38.44941166666667" lon="-1.172615">
        <ele>1770.1999999999985</ele>
        <time>2013-11-09T14:12:14.96</time>
      </trkpt>
      <trkpt lat="38.449328333333334" lon="-1.1726">
        <ele>1772.3999999999985</ele>
        <time>2013-11-09T14:12:15.96</time>
      </trkpt>
      <trkpt lat="38.449238333333334" lon="-1.1725783333333333">
        <ele>1774.6999999999985</ele>
        <time>2013-11-09T14:12:16.96</time>
      </trkpt>
      <trkpt lat="38.44914166666667" lon="-1.1725533333333333">
        <ele>1776.9999999999984</ele>
        <time>2013-11-09T14:12:17.99</time>
      </trkpt>
      <trkpt lat="38.44903333333333" lon="-1.1725316666666667">
        <ele>1779.1999999999985</ele>
        <time>2013-11-09T14:12:18.96</time>
      </trkpt>
      <trkpt lat="38.448915" lon="-1.1725016666666668">
        <ele>1780.8999999999985</ele>
        <time>2013-11-09T14:12:19.93</time>
      </trkpt>
      <trkpt lat="38.44878333333333" lon="-1.17246">
        <ele>1782.5999999999985</ele>
        <time>2013-11-09T14:12:21.99</time>
      </trkpt>
      <trkpt lat="38.448661666666666" lon="-1.1723766666666666">
        <ele>1784.2999999999986</ele>
        <time>2013-11-09T14:12:21.96</time>
      </trkpt>
      <trkpt lat="38.44855" lon="-1.17228">
        <ele>1786.1999999999987</ele>
        <time>2013-11-09T14:12:22.92</time>
      </trkpt>
      <trkpt lat="38.448451666666664" lon="-1.1721766666666666">
        <ele>1788.3999999999987</ele>
        <time>2013-11-09T14:12:23.96</time>
      </trkpt>
      <trkpt lat="38.44835333333333" lon="-1.1720566666666667">
        <ele>1790.9999999999986</ele>
        <time>2013-11-09T14:12:25.19</time>
      </trkpt>
      <trkpt lat="38.44826833333333" lon="-1.1719166666666667">
        <ele>1794.2999999999986</ele>
        <time>2013-11-09T14:12:25.96</time>
      </trkpt>
      <trkpt lat="38.4482" lon="-1.1717966666666666">
        <ele>1797.8999999999985</ele>
        <time>2013-11-09T14:12:26.96</time>
      </trkpt>
      <trkpt lat="38.44813" lon="-1.171685">
        <ele>1800.8999999999985</ele>
        <time>2013-11-09T14:12:27.97</time>
      </trkpt>
      <trkpt lat="38.448075" lon="-1.17153">
        <ele>1803.5999999999985</ele>
        <time>2013-11-09T14:12:28.96</time>
      </trkpt>
      <trkpt lat="38.448031666666665" lon="-1.171375">
        <ele>1806.3999999999985</ele>
        <time>2013-11-09T14:12:29.92</time>
      </trkpt>
      <trkpt lat="38.448015" lon="-1.1712066666666667">
        <ele>1808.9999999999984</ele>
        <time>2013-11-09T14:12:30.97</time>
      </trkpt>
      <trkpt lat="38.44804166666667" lon="-1.1710616666666667">
        <ele>1811.7999999999984</ele>
        <time>2013-11-09T14:12:32.49</time>
      </trkpt>
      <trkpt lat="38.4481" lon="-1.1709616666666667">
        <ele>1814.2999999999984</ele>
        <time>2013-11-09T14:12:32.96</time>
      </trkpt>
      <trkpt lat="38.448155" lon="-1.1708733333333332">
        <ele>1817.0999999999983</ele>
        <time>2013-11-09T14:12:33.96</time>
      </trkpt>
      <trkpt lat="38.448231666666665" lon="-1.1708033333333334">
        <ele>1819.2999999999984</ele>
        <time>2013-11-09T14:12:34.96</time>
      </trkpt>
      <trkpt lat="38.44829" lon="-1.170775">
        <ele>1821.6999999999985</ele>
        <time>2013-11-09T14:12:35.96</time>
      </trkpt>
      <trkpt lat="38.44838" lon="-1.1707666666666667">
        <ele>1823.8999999999985</ele>
        <time>2013-11-09T14:12:37.39</time>
      </trkpt>
      <trkpt lat="38.44847" lon="-1.170785">
        <ele>1825.6999999999985</ele>
        <time>2013-11-09T14:12:37.97</time>
      </trkpt>
      <trkpt lat="38.44853833333333" lon="-1.17084">
        <ele>1827.3999999999985</ele>
        <time>2013-11-09T14:12:39.79</time>
      </trkpt>
      <trkpt lat="38.44859" lon="-1.1708833333333333">
        <ele>1828.7999999999986</ele>
        <time>2013-11-09T14:12:39.97</time>
      </trkpt>
      <trkpt lat="38.44859833333334" lon="-1.17095">
        <ele>1830.0999999999985</ele>
        <time>2013-11-09T14:12:40.92</time>
      </trkpt>
      <trkpt lat="38.44858833333333" lon="-1.1710433333333334">
        <ele>1832.3999999999985</ele>
        <time>2013-11-09T14:12:41.92</time>
      </trkpt>
      <trkpt lat="38.44857" lon="-1.1711816666666666">
        <ele>1835.8999999999985</ele>
        <time>2013-11-09T14:12:42.96</time>
      </trkpt>
      <trkpt lat="38.44852" lon="-1.1712816666666668">
        <ele>1839.6999999999985</ele>
        <time>2013-11-09T14:12:43.96</time>
      </trkpt>
      <trkpt lat="38.44846833333333" lon="-1.1713633333333333">
        <ele>1843.7999999999984</ele>
        <time>2013-11-09T14:12:44.93</time>
      </trkpt>
      <trkpt lat="38.448413333333335" lon="-1.171435">
        <ele>1847.7999999999984</ele>
        <time>2013-11-09T14:12:46.79</time>
      </trkpt>
      <trkpt lat="38.448328333333336" lon="-1.1714766666666667">
        <ele>1851.3999999999983</ele>
        <time>2013-11-09T14:12:46.96</time>
      </trkpt>
      <trkpt lat="38.44822" lon="-1.171505">
        <ele>1855.2999999999984</ele>
        <time>2013-11-09T14:12:47.97</time>
      </trkpt>
      <trkpt lat="38.448103333333336" lon="-1.1715333333333333">
        <ele>1859.0999999999983</ele>
        <time>2013-11-09T14:12:48.96</time>
      </trkpt>
      <trkpt lat="38.447995" lon="-1.1715566666666666">
        <ele>1862.8999999999983</ele>
        <time>2013-11-09T14:12:49.92</time>
      </trkpt>
      <trkpt lat="38.447895" lon="-1.1715666666666666">
        <ele>1866.3999999999983</ele>
        <time>2013-11-09T14:12:50.99</time>
      </trkpt>
      <trkpt lat="38.44781666666667" lon="-1.171565">
        <ele>1869.5999999999983</ele>
        <time>2013-11-09T14:12:51.96</time>
      </trkpt>
      <trkpt lat="38.447736666666664" lon="-1.1715616666666666">
        <ele>1872.0999999999983</ele>
        <time>2013-11-09T14:12:52.97</time>
      </trkpt>
      <trkpt lat="38.44762166666667" lon="-1.1715550000000001">
        <ele>1874.1999999999982</ele>
        <time>2013-11-09T14:12:53.98</time>
      </trkpt>
      <trkpt lat="38.44748833333333" lon="-1.1715416666666667">
        <ele>1875.8999999999983</ele>
        <time>2013-11-09T14:12:54.92</time>
      </trkpt>
      <trkpt lat="38.44735" lon="-1.1715183333333332">
        <ele>1877.5999999999983</ele>
        <time>2013-11-09T14:12:55.97</time>
      </trkpt>
      <trkpt lat="38.447228333333335" lon="-1.171445">
        <ele>1879.6999999999982</ele>
        <time>2013-11-09T14:12:56.96</time>
      </trkpt>
      <trkpt lat="38.447118333333336" lon="-1.1713766666666667">
        <ele>1881.3999999999983</ele>
        <time>2013-11-09T14:12:57.92</time>
      </trkpt>
      <trkpt lat="38.447023333333334" lon="-1.17126">
        <ele>1883.1999999999982</ele>
        <time>2013-11-09T14:12:58.96</time>
      </trkpt>
      <trkpt lat="38.44695166666666" lon="-1.171135">
        <ele>1884.3999999999983</ele>
        <time>2013-11-09T14:12:59.96</time>
      </trkpt>
      <trkpt lat="38.446873333333336" lon="-1.1710183333333333">
        <ele>1885.4999999999982</ele>
        <time>2013-11-09T14:13:00.97</time>
      </trkpt>
      <trkpt lat="38.446796666666664" lon="-1.1709166666666666">
        <ele>1886.3999999999983</ele>
        <time>2013-11-09T14:13:01.96</time>
      </trkpt>
      <trkpt lat="38.44672833333333" lon="-1.1708283333333334">
        <ele>1887.4999999999982</ele>
        <time>2013-11-09T14:13:02.97</time>
      </trkpt>
      <trkpt lat="38.446646666666666" lon="-1.1707616666666667">
        <ele>1888.1999999999982</ele>
        <time>2013-11-09T14:13:03.96</time>
      </trkpt>
      <trkpt lat="38.44656" lon="-1.1706883333333333">
        <ele>1888.6999999999982</ele>
        <time>2013-11-09T14:13:04.96</time>
      </trkpt>
      <trkpt lat="38.446468333333335" lon="-1.17061">
        <ele>1888.9999999999982</ele>
        <time>2013-11-09T14:13:05.96</time>
      </trkpt>
      <trkpt lat="38.446378333333335" lon="-1.170525">
        <ele>1889.3999999999983</ele>
        <time>2013-11-09T14:13:06.96</time>
      </trkpt>
      <trkpt lat="38.44629" lon="-1.170395">
        <ele>1889.7999999999984</ele>
        <time>2013-11-09T14:13:07.93</time>
      </trkpt>
      <trkpt lat="38.44622666666667" lon="-1.17024">
        <ele>1890.4999999999984</ele>
        <time>2013-11-09T14:13:08.97</time>
      </trkpt>
      <trkpt lat="38.446185" lon="-1.1700616666666668">
        <ele>1891.4999999999984</ele>
        <time>2013-11-09T14:13:09.92</time>
      </trkpt>
      <trkpt lat="38.44615" lon="-1.169885">
        <ele>1892.7999999999984</ele>
        <time>2013-11-09T14:13:10.92</time>
      </trkpt>
      <trkpt lat="38.446125" lon="-1.169715">
        <ele>1894.6999999999985</ele>
        <time>2013-11-09T14:13:12.20</time>
      </trkpt>
      <trkpt lat="38.44611666666667" lon="-1.1695733333333334">
        <ele>1896.8999999999985</ele>
        <time>2013-11-09T14:13:12.96</time>
      </trkpt>
      <trkpt lat="38.44611333333334" lon="-1.1694200000000001">
        <ele>1899.1999999999985</ele>
        <time>2013-11-09T14:13:13.97</time>
      </trkpt>
      <trkpt lat="38.44611666666667" lon="-1.169265">
        <ele>1901.6999999999985</ele>
        <time>2013-11-09T14:13:14.94</time>
      </trkpt>
      <trkpt lat="38.44613" lon="-1.1691066666666667">
        <ele>1904.3999999999985</ele>
        <time>2013-11-09T14:13:15.97</time>
      </trkpt>
      <trkpt lat="38.44613833333333" lon="-1.16895">
        <ele>1907.3999999999985</ele>
        <time>2013-11-09T14:13:16.96</time>
      </trkpt>
      <trkpt lat="38.44614" lon="-1.1688033333333334">
        <ele>1910.4999999999984</ele>
        <time>2013-11-09T14:13:17.96</time>
      </trkpt>
      <trkpt lat="38.44614" lon="-1.16865">
        <ele>1913.4999999999984</ele>
        <time>2013-11-09T14:13:18.92</time>
      </trkpt>
      <trkpt lat="38.446115" lon="-1.16849">
        <ele>1916.2999999999984</ele>
        <time>2013-11-09T14:13:19.96</time>
      </trkpt>
      <trkpt lat="38.446086666666666" lon="-1.1683266666666667">
        <ele>1918.5999999999983</ele>
        <time>2013-11-09T14:13:20.92</time>
      </trkpt>
      <trkpt lat="38.446063333333335" lon="-1.1681683333333333">
        <ele>1920.7999999999984</ele>
        <time>2013-11-09T14:13:21.96</time>
      </trkpt>
      <trkpt lat="38.44607" lon="-1.168">
        <ele>1922.3999999999983</ele>
        <time>2013-11-09T14:13:23.59</time>
      </trkpt>
      <trkpt lat="38.446085" lon="-1.1678366666666666">
        <ele>1923.4999999999982</ele>
        <time>2013-11-09T14:13:24.69</time>
      </trkpt>
      <trkpt lat="38.44613833333333" lon="-1.167705">
        <ele>1923.9999999999982</ele>
        <time>2013-11-09T14:13:24.93</time>
      </trkpt>
      <trkpt lat="38.446215" lon="-1.1675983333333333">
        <ele>1924.1999999999982</ele>
        <time>2013-11-09T14:13:25.92</time>
      </trkpt>
      <trkpt lat="38.44629666666667" lon="-1.16753">
        <ele>1923.8999999999983</ele>
        <time>2013-11-09T14:13:26.96</time>
      </trkpt>
      <trkpt lat="38.446365" lon="-1.1675133333333334">
        <ele>1923.2999999999984</ele>
        <time>2013-11-09T14:13:28.49</time>
      </trkpt>
      <trkpt lat="38.44639" lon="-1.1675316666666666">
        <ele>1922.3999999999983</ele>
        <time>2013-11-09T14:13:28.97</time>
      </trkpt>
      <trkpt lat="38.44642833333333" lon="-1.16756">
        <ele>1921.4999999999982</ele>
        <time>2013-11-09T14:13:29.96</time>
      </trkpt>
      <trkpt lat="38.446445" lon="-1.1676183333333334">
        <ele>1920.6999999999982</ele>
        <time>2013-11-09T14:13:30.97</time>
      </trkpt>
      <trkpt lat="38.44643833333333" lon="-1.16771">
        <ele>1920.4999999999982</ele>
        <time>2013-11-09T14:13:31.96</time>
      </trkpt>
      <trkpt lat="38.44639166666666" lon="-1.1678016666666666">
        <ele>1920.7999999999981</ele>
        <time>2013-11-09T14:13:32.97</time>
      </trkpt>
      <trkpt lat="38.446325" lon="-1.1678783333333334">
        <ele>1921.2999999999981</ele>
        <time>2013-11-09T14:13:33.97</time>
      </trkpt>
      <trkpt lat="38.44624833333334" lon="-1.167955">
        <ele>1922.1999999999982</ele>
        <time>2013-11-09T14:13:34.96</time>
      </trkpt>
      <trkpt lat="38.44616166666667" lon="-1.1680016666666666">
        <ele>1923.8999999999983</ele>
        <time>2013-11-09T14:13:35.96</time>
      </trkpt>
      <trkpt lat="38.446086666666666" lon="-1.168035">
        <ele>1925.4999999999982</ele>
        <time>2013-11-09T14:13:36.96</time>
      </trkpt>
      <trkpt lat="38.44602666666667" lon="-1.1680816666666667">
        <ele>1927.4999999999982</ele>
        <time>2013-11-09T14:13:37.96</time>
      </trkpt>
      <trkpt lat="38.44599" lon="-1.1681516666666667">
        <ele>1929.6999999999982</ele>
        <time>2013-11-09T14:13:38.96</time>
      </trkpt>
      <trkpt lat="38.445951666666666" lon="-1.1682316666666668">
        <ele>1932.0999999999983</ele>
        <time>2013-11-09T14:13:39.91</time>
      </trkpt>
      <trkpt lat="38.44591666666667" lon="-1.1683183333333333">
        <ele>1934.9999999999984</ele>
        <time>2013-11-09T14:13:40.96</time>
      </trkpt>
      <trkpt lat="38.445883333333335" lon="-1.1683966666666667">
        <ele>1937.9999999999984</ele>
        <time>2013-11-09T14:13:41.96</time>
      </trkpt>
      <trkpt lat="38.445855" lon="-1.168465">
        <ele>1940.9999999999984</ele>
        <time>2013-11-09T14:13:42.96</time>
      </trkpt>
      <trkpt lat="38.445845" lon="-1.1685016666666668">
        <ele>1943.2999999999984</ele>
        <time>2013-11-09T14:13:43.96</time>
      </trkpt>
      <trkpt lat="38.445856666666664" lon="-1.1685666666666668">
        <ele>1945.0999999999983</ele>
        <time>2013-11-09T14:13:44.96</time>
      </trkpt>
      <trkpt lat="38.445901666666664" lon="-1.1686233333333333">
        <ele>1946.4999999999984</ele>
        <time>2013-11-09T14:13:45.96</time>
      </trkpt>
      <trkpt lat="38.445978333333336" lon="-1.1686533333333333">
        <ele>1947.7999999999984</ele>
        <time>2013-11-09T14:13:46.97</time>
      </trkpt>
      <trkpt lat="38.44606666666667" lon="-1.1686533333333333">
        <ele>1948.3999999999983</ele>
        <time>2013-11-09T14:13:47.96</time>
      </trkpt>
      <trkpt lat="38.44616166666667" lon="-1.1685966666666667">
        <ele>1949.0999999999983</ele>
        <time>2013-11-09T14:13:48.96</time>
      </trkpt>
      <trkpt lat="38.446235" lon="-1.1684933333333334">
        <ele>1949.8999999999983</ele>
        <time>2013-11-09T14:13:49.96</time>
      </trkpt>
      <trkpt lat="38.446283333333334" lon="-1.1683433333333333">
        <ele>1951.1999999999982</ele>
        <time>2013-11-09T14:13:50.96</time>
      </trkpt>
      <trkpt lat="38.44630333333333" lon="-1.1681816666666667">
        <ele>1952.5999999999983</ele>
        <time>2013-11-09T14:13:51.96</time>
      </trkpt>
      <trkpt lat="38.446313333333336" lon="-1.168005">
        <ele>1954.5999999999983</ele>
        <time>2013-11-09T14:13:52.96</time>
      </trkpt>
      <trkpt lat="38.446288333333335" lon="-1.1678283333333332">
        <ele>1956.7999999999984</ele>
        <time>2013-11-09T14:13:53.96</time>
      </trkpt>
      <trkpt lat="38.44624833333334" lon="-1.1676566666666668">
        <ele>1958.3999999999983</ele>
        <time>2013-11-09T14:13:54.96</time>
      </trkpt>
      <trkpt lat="38.446198333333335" lon="-1.1674883333333335">
        <ele>1960.1999999999982</ele>
        <time>2013-11-09T14:13:55.96</time>
      </trkpt>
      <trkpt lat="38.44613833333333" lon="-1.1673166666666668">
        <ele>1961.9999999999982</ele>
        <time>2013-11-09T14:13:56.99</time>
      </trkpt>
      <trkpt lat="38.446045" lon="-1.16719">
        <ele>1964.099999999998</ele>
        <time>2013-11-09T14:13:57.92</time>
      </trkpt>
      <trkpt lat="38.445928333333335" lon="-1.16708">
        <ele>1965.699999999998</ele>
        <time>2013-11-09T14:13:58.96</time>
      </trkpt>
      <trkpt lat="38.44580833333333" lon="-1.166965">
        <ele>1967.299999999998</ele>
        <time>2013-11-09T14:13:59.96</time>
      </trkpt>
      <trkpt lat="38.44569" lon="-1.1668666666666667">
        <ele>1968.799999999998</ele>
        <time>2013-11-09T14:14:00.96</time>
      </trkpt>
      <trkpt lat="38.44558" lon="-1.166785">
        <ele>1970.3999999999978</ele>
        <time>2013-11-09T14:14:01.97</time>
      </trkpt>
      <trkpt lat="38.445481666666666" lon="-1.16671">
        <ele>1971.8999999999978</ele>
        <time>2013-11-09T14:14:02.91</time>
      </trkpt>
      <trkpt lat="38.44536166666666" lon="-1.1666750000000001">
        <ele>1973.5999999999979</ele>
        <time>2013-11-09T14:14:03.90</time>
      </trkpt>
      <trkpt lat="38.44524166666667" lon="-1.1666416666666666">
        <ele>1975.1999999999978</ele>
        <time>2013-11-09T14:14:04.89</time>
      </trkpt>
      <trkpt lat="38.44513333333333" lon="-1.1666116666666666">
        <ele>1976.9999999999977</ele>
        <time>2013-11-09T14:14:05.91</time>
      </trkpt>
      <trkpt lat="38.445033333333335" lon="-1.1665933333333334">
        <ele>1978.7999999999977</ele>
        <time>2013-11-09T14:14:06.92</time>
      </trkpt>
      <trkpt lat="38.444915" lon="-1.1666033333333332">
        <ele>1980.3999999999976</ele>
        <time>2013-11-09T14:14:07.92</time>
      </trkpt>
      <trkpt lat="38.444811666666666" lon="-1.1666400000000001">
        <ele>1982.1999999999975</ele>
        <time>2013-11-09T14:14:08.91</time>
      </trkpt>
      <trkpt lat="38.44470833333333" lon="-1.1666833333333333">
        <ele>1984.4999999999975</ele>
        <time>2013-11-09T14:14:09.91</time>
      </trkpt>
      <trkpt lat="38.44462333333333" lon="-1.1667283333333334">
        <ele>1987.0999999999974</ele>
        <time>2013-11-09T14:14:10.92</time>
      </trkpt>
      <trkpt lat="38.44455166666667" lon="-1.16677">
        <ele>1989.9999999999975</ele>
        <time>2013-11-09T14:14:11.91</time>
      </trkpt>
      <trkpt lat="38.444496666666666" lon="-1.166805">
        <ele>1992.8999999999976</ele>
        <time>2013-11-09T14:14:12.90</time>
      </trkpt>
      <trkpt lat="38.44445" lon="-1.166855">
        <ele>1995.4999999999975</ele>
        <time>2013-11-09T14:14:13.90</time>
      </trkpt>
      <trkpt lat="38.444415" lon="-1.16694">
        <ele>1997.7999999999975</ele>
        <time>2013-11-09T14:14:14.91</time>
      </trkpt>
      <trkpt lat="38.44441666666667" lon="-1.167035">
        <ele>1999.5999999999974</ele>
        <time>2013-11-09T14:14:15.90</time>
      </trkpt>
      <trkpt lat="38.444445" lon="-1.1671216666666666">
        <ele>2001.0999999999974</ele>
        <time>2013-11-09T14:14:16.89</time>
      </trkpt>
      <trkpt lat="38.44450666666667" lon="-1.16716">
        <ele>2002.0999999999974</ele>
        <time>2013-11-09T14:14:17.89</time>
      </trkpt>
      <trkpt lat="38.44459333333333" lon="-1.167155">
        <ele>2002.2999999999975</ele>
        <time>2013-11-09T14:14:18.92</time>
      </trkpt>
      <trkpt lat="38.44470833333333" lon="-1.1670816666666668">
        <ele>2003.1999999999975</ele>
        <time>2013-11-09T14:14:19.91</time>
      </trkpt>
      <trkpt lat="38.444788333333335" lon="-1.1669366666666667">
        <ele>2004.6999999999975</ele>
        <time>2013-11-09T14:14:20.92</time>
      </trkpt>
      <trkpt lat="38.44481666666667" lon="-1.1667883333333333">
        <ele>2006.4999999999975</ele>
        <time>2013-11-09T14:14:21.91</time>
      </trkpt>
      <trkpt lat="38.44484166666667" lon="-1.1666400000000001">
        <ele>2008.2999999999975</ele>
        <time>2013-11-09T14:14:22.91</time>
      </trkpt>
      <trkpt lat="38.444828333333334" lon="-1.1664883333333333">
        <ele>2009.7999999999975</ele>
        <time>2013-11-09T14:14:23.92</time>
      </trkpt>
      <trkpt lat="38.44480333333333" lon="-1.166325">
        <ele>2011.2999999999975</ele>
        <time>2013-11-09T14:14:24.91</time>
      </trkpt>
      <trkpt lat="38.44477" lon="-1.166145">
        <ele>2012.4999999999975</ele>
        <time>2013-11-09T14:14:25.90</time>
      </trkpt>
      <trkpt lat="38.444696666666665" lon="-1.1659883333333334">
        <ele>2013.3999999999976</ele>
        <time>2013-11-09T14:14:26.90</time>
      </trkpt>
      <trkpt lat="38.44461833333333" lon="-1.1658516666666667">
        <ele>2014.4999999999975</ele>
        <time>2013-11-09T14:14:27.90</time>
      </trkpt>
      <trkpt lat="38.444485" lon="-1.1657366666666666">
        <ele>2016.2999999999975</ele>
        <time>2013-11-09T14:14:28.91</time>
      </trkpt>
      <trkpt lat="38.444343333333336" lon="-1.1656716666666667">
        <ele>2018.3999999999974</ele>
        <time>2013-11-09T14:14:29.91</time>
      </trkpt>
      <trkpt lat="38.444221666666664" lon="-1.1656233333333335">
        <ele>2020.3999999999974</ele>
        <time>2013-11-09T14:14:30.91</time>
      </trkpt>
      <trkpt lat="38.444113333333334" lon="-1.1655966666666666">
        <ele>2022.3999999999974</ele>
        <time>2013-11-09T14:14:31.91</time>
      </trkpt>
      <trkpt lat="38.44400666666667" lon="-1.16558">
        <ele>2024.2999999999975</ele>
        <time>2013-11-09T14:14:32.92</time>
      </trkpt>
      <trkpt lat="38.443895" lon="-1.16559">
        <ele>2026.0999999999974</ele>
        <time>2013-11-09T14:14:33.91</time>
      </trkpt>
      <trkpt lat="38.44379833333333" lon="-1.1656083333333334">
        <ele>2027.8999999999974</ele>
        <time>2013-11-09T14:14:34.91</time>
      </trkpt>
      <trkpt lat="38.44371" lon="-1.1656566666666666">
        <ele>2029.3999999999974</ele>
        <time>2013-11-09T14:14:35.91</time>
      </trkpt>
      <trkpt lat="38.44363833333333" lon="-1.16571">
        <ele>2031.1999999999973</ele>
        <time>2013-11-09T14:14:36.90</time>
      </trkpt>
      <trkpt lat="38.44358166666667" lon="-1.1657833333333334">
        <ele>2032.6999999999973</ele>
        <time>2013-11-09T14:14:37.90</time>
      </trkpt>
      <trkpt lat="38.44354333333333" lon="-1.1658433333333333">
        <ele>2034.0999999999974</ele>
        <time>2013-11-09T14:14:38.89</time>
      </trkpt>
      <trkpt lat="38.443525" lon="-1.1659">
        <ele>2035.3999999999974</ele>
        <time>2013-11-09T14:14:39.91</time>
      </trkpt>
      <trkpt lat="38.44352333333333" lon="-1.16595">
        <ele>2035.4999999999973</ele>
        <time>2013-11-09T14:14:40.91</time>
      </trkpt>
      <trkpt lat="38.44352666666666" lon="-1.1659833333333334">
        <ele>2035.5999999999972</ele>
        <time>2013-11-09T14:14:41.91</time>
      </trkpt>
      <trkpt lat="38.44354666666667" lon="-1.1660383333333333">
        <ele>2036.3999999999971</ele>
        <time>2013-11-09T14:14:42.90</time>
      </trkpt>
      <trkpt lat="38.443585" lon="-1.1660933333333334">
        <ele>2036.5999999999972</ele>
        <time>2013-11-09T14:14:43.91</time>
      </trkpt>
      <trkpt lat="38.443641666666664" lon="-1.1661433333333333">
        <ele>2036.7999999999972</ele>
        <time>2013-11-09T14:14:44.91</time>
      </trkpt>
      <trkpt lat="38.44371" lon="-1.1661583333333334">
        <ele>2037.1999999999973</ele>
        <time>2013-11-09T14:14:45.90</time>
      </trkpt>
      <trkpt lat="38.443775" lon="-1.16616">
        <ele>2037.5999999999974</ele>
        <time>2013-11-09T14:14:46.90</time>
      </trkpt>
      <trkpt lat="38.443848333333335" lon="-1.1661333333333332">
        <ele>2037.8999999999974</ele>
        <time>2013-11-09T14:14:47.90</time>
      </trkpt>
      <trkpt lat="38.443913333333334" lon="-1.16609">
        <ele>2038.1999999999973</ele>
        <time>2013-11-09T14:14:48.90</time>
      </trkpt>
      <trkpt lat="38.44397333333333" lon="-1.1660366666666666">
        <ele>2038.5999999999974</ele>
        <time>2013-11-09T14:14:49.90</time>
      </trkpt>
      <trkpt lat="38.44404333333333" lon="-1.1659783333333333">
        <ele>2038.7999999999975</ele>
        <time>2013-11-09T14:14:50.91</time>
      </trkpt>
      <trkpt lat="38.44412666666667" lon="-1.1659016666666666">
        <ele>2038.5999999999974</ele>
        <time>2013-11-09T14:14:51.90</time>
      </trkpt>
      <trkpt lat="38.44421833333333" lon="-1.1658083333333333">
        <ele>2038.4999999999975</ele>
        <time>2013-11-09T14:14:52.90</time>
      </trkpt>
      <trkpt lat="38.444305" lon="-1.1657199999999999">
        <ele>2038.5999999999974</ele>
        <time>2013-11-09T14:14:53.91</time>
      </trkpt>
      <trkpt lat="38.44437166666667" lon="-1.16565">
        <ele>2038.4999999999975</ele>
        <time>2013-11-09T14:14:54.90</time>
      </trkpt>
      <trkpt lat="38.44443" lon="-1.1655933333333333">
        <ele>2038.2999999999975</ele>
        <time>2013-11-09T14:14:55.92</time>
      </trkpt>
      <trkpt lat="38.44448333333333" lon="-1.1655466666666667">
        <ele>2038.2999999999975</ele>
        <time>2013-11-09T14:14:56.92</time>
      </trkpt>
      <trkpt lat="38.444523333333336" lon="-1.1655083333333334">
        <ele>2038.7999999999975</ele>
        <time>2013-11-09T14:14:57.90</time>
      </trkpt>
      <trkpt lat="38.444585000000004" lon="-1.16546">
        <ele>2039.1999999999975</ele>
        <time>2013-11-09T14:14:58.90</time>
      </trkpt>
      <trkpt lat="38.44465833333334" lon="-1.16543">
        <ele>2039.4999999999975</ele>
        <time>2013-11-09T14:14:59.90</time>
      </trkpt>
      <trkpt lat="38.44472833333333" lon="-1.165425">
        <ele>2039.7999999999975</ele>
        <time>2013-11-09T14:15:00.91</time>
      </trkpt>
      <trkpt lat="38.44477666666667" lon="-1.1654316666666666">
        <ele>2040.2999999999975</ele>
        <time>2013-11-09T14:15:01.93</time>
      </trkpt>
      <trkpt lat="38.44481666666667" lon="-1.1654333333333333">
        <ele>2040.6999999999975</ele>
        <time>2013-11-09T14:15:02.90</time>
      </trkpt>
      <trkpt lat="38.44486666666667" lon="-1.16541">
        <ele>2040.6999999999975</ele>
        <time>2013-11-09T14:15:03.90</time>
      </trkpt>
      <trkpt lat="38.44492" lon="-1.1653850000000001">
        <ele>2040.7999999999975</ele>
        <time>2013-11-09T14:15:04.90</time>
      </trkpt>
      <trkpt lat="38.444975" lon="-1.1653850000000001">
        <ele>2040.7999999999975</ele>
        <time>2013-11-09T14:15:05.90</time>
      </trkpt>
      <trkpt lat="38.445033333333335" lon="-1.1654216666666666">
        <ele>2040.2999999999975</ele>
        <time>2013-11-09T14:15:06.90</time>
      </trkpt>
      <trkpt lat="38.44506333333333" lon="-1.1654916666666666">
        <ele>2040.1999999999975</ele>
        <time>2013-11-09T14:15:07.91</time>
      </trkpt>
      <trkpt lat="38.44509" lon="-1.165585">
        <ele>2039.7999999999975</ele>
        <time>2013-11-09T14:15:08.89</time>
      </trkpt>
      <trkpt lat="38.445085" lon="-1.1656833333333334">
        <ele>2040.4999999999975</ele>
        <time>2013-11-09T14:15:09.89</time>
      </trkpt>
      <trkpt lat="38.445053333333334" lon="-1.1657766666666667">
        <ele>2041.6999999999975</ele>
        <time>2013-11-09T14:15:10.90</time>
      </trkpt>
      <trkpt lat="38.444993333333336" lon="-1.1658533333333334">
        <ele>2042.6999999999975</ele>
        <time>2013-11-09T14:15:11.89</time>
      </trkpt>
      <trkpt lat="38.44491166666667" lon="-1.1659133333333334">
        <ele>2043.3999999999976</ele>
        <time>2013-11-09T14:15:12.91</time>
      </trkpt>
      <trkpt lat="38.444805" lon="-1.1659483333333334">
        <ele>2043.7999999999977</ele>
        <time>2013-11-09T14:15:13.89</time>
      </trkpt>
      <trkpt lat="38.444691666666664" lon="-1.165975">
        <ele>2043.7999999999977</ele>
        <time>2013-11-09T14:15:14.90</time>
      </trkpt>
      <trkpt lat="38.44458" lon="-1.165985">
        <ele>2043.5999999999976</ele>
        <time>2013-11-09T14:15:15.90</time>
      </trkpt>
      <trkpt lat="38.444471666666665" lon="-1.1659616666666666">
        <ele>2042.9999999999977</ele>
        <time>2013-11-09T14:15:16.90</time>
      </trkpt>
      <trkpt lat="38.44436666666667" lon="-1.1659383333333333">
        <ele>2041.9999999999977</ele>
        <time>2013-11-09T14:15:17.89</time>
      </trkpt>
      <trkpt lat="38.44426166666667" lon="-1.1659133333333334">
        <ele>2041.1999999999978</ele>
        <time>2013-11-09T14:15:18.90</time>
      </trkpt>
      <trkpt lat="38.44419" lon="-1.165875">
        <ele>2039.6999999999978</ele>
        <time>2013-11-09T14:15:19.90</time>
      </trkpt>
      <trkpt lat="38.444075" lon="-1.165795">
        <ele>2038.2999999999977</ele>
        <time>2013-11-09T14:15:20.89</time>
      </trkpt>
      <trkpt lat="38.44398833333333" lon="-1.16571">
        <ele>2036.5999999999976</ele>
        <time>2013-11-09T14:15:21.90</time>
      </trkpt>
      <trkpt lat="38.44390333333333" lon="-1.1656066666666667">
        <ele>2034.5999999999976</ele>
        <time>2013-11-09T14:15:22.89</time>
      </trkpt>
      <trkpt lat="38.443826666666666" lon="-1.165475">
        <ele>2032.3999999999976</ele>
        <time>2013-11-09T14:15:23.90</time>
      </trkpt>
      <trkpt lat="38.44375" lon="-1.16533">
        <ele>2029.7999999999977</ele>
        <time>2013-11-09T14:15:24.90</time>
      </trkpt>
      <trkpt lat="38.443675" lon="-1.1651883333333333">
        <ele>2027.0999999999976</ele>
        <time>2013-11-09T14:15:25.89</time>
      </trkpt>
      <trkpt lat="38.443601666666666" lon="-1.1650333333333334">
        <ele>2024.6999999999975</ele>
        <time>2013-11-09T14:15:26.89</time>
      </trkpt>
      <trkpt lat="38.443553333333334" lon="-1.1648450000000001">
        <ele>2022.2999999999975</ele>
        <time>2013-11-09T14:15:27.89</time>
      </trkpt>
      <trkpt lat="38.443505" lon="-1.164665">
        <ele>2020.4999999999975</ele>
        <time>2013-11-09T14:15:28.90</time>
      </trkpt>
      <trkpt lat="38.44345333333333" lon="-1.164485">
        <ele>2018.6999999999975</ele>
        <time>2013-11-09T14:15:29.93</time>
      </trkpt>
      <trkpt lat="38.44340833333333" lon="-1.1643266666666667">
        <ele>2016.8999999999976</ele>
        <time>2013-11-09T14:15:30.96</time>
      </trkpt>
      <trkpt lat="38.443371666666664" lon="-1.1641683333333332">
        <ele>2015.2999999999977</ele>
        <time>2013-11-09T14:15:31.96</time>
      </trkpt>
      <trkpt lat="38.44334" lon="-1.1640183333333334">
        <ele>2013.6999999999978</ele>
        <time>2013-11-09T14:15:32.96</time>
      </trkpt>
      <trkpt lat="38.443311666666666" lon="-1.163855">
        <ele>2011.9999999999977</ele>
        <time>2013-11-09T14:15:33.91</time>
      </trkpt>
      <trkpt lat="38.44329166666667" lon="-1.1636816666666667">
        <ele>2009.9999999999977</ele>
        <time>2013-11-09T14:15:35.49</time>
      </trkpt>
      <trkpt lat="38.443286666666665" lon="-1.1634983333333333">
        <ele>2007.9999999999977</ele>
        <time>2013-11-09T14:15:36.9</time>
      </trkpt>
      <trkpt lat="38.44332166666667" lon="-1.1633333333333333">
        <ele>2006.3999999999978</ele>
        <time>2013-11-09T14:15:36.96</time>
      </trkpt>
      <trkpt lat="38.443355" lon="-1.1631833333333335">
        <ele>2005.5999999999979</ele>
        <time>2013-11-09T14:15:38.19</time>
      </trkpt>
      <trkpt lat="38.44338" lon="-1.1630416666666668">
        <ele>2005.0999999999979</ele>
        <time>2013-11-09T14:15:38.96</time>
      </trkpt>
      <trkpt lat="38.44340166666667" lon="-1.1629183333333333">
        <ele>2004.8999999999978</ele>
        <time>2013-11-09T14:15:40.49</time>
      </trkpt>
      <trkpt lat="38.443423333333335" lon="-1.1627916666666667">
        <ele>2004.6999999999978</ele>
        <time>2013-11-09T14:15:40.96</time>
      </trkpt>
      <trkpt lat="38.44344666666667" lon="-1.1626733333333332">
        <ele>2003.9999999999977</ele>
        <time>2013-11-09T14:15:41.95</time>
      </trkpt>
      <trkpt lat="38.44348" lon="-1.1625266666666667">
        <ele>2003.0999999999976</ele>
        <time>2013-11-09T14:15:43.9</time>
      </trkpt>
      <trkpt lat="38.44352166666667" lon="-1.1623716666666666">
        <ele>2002.1999999999975</ele>
        <time>2013-11-09T14:15:44.49</time>
      </trkpt>
      <trkpt lat="38.44357" lon="-1.1622033333333333">
        <ele>2001.4999999999975</ele>
        <time>2013-11-09T14:15:44.96</time>
      </trkpt>
      <trkpt lat="38.443616666666664" lon="-1.1620516666666667">
        <ele>2000.6999999999975</ele>
        <time>2013-11-09T14:15:45.97</time>
      </trkpt>
      <trkpt lat="38.44366333333333" lon="-1.1619133333333334">
        <ele>2000.1999999999975</ele>
        <time>2013-11-09T14:15:46.97</time>
      </trkpt>
      <trkpt lat="38.44371666666667" lon="-1.1617883333333334">
        <ele>1999.6999999999975</ele>
        <time>2013-11-09T14:15:47.96</time>
      </trkpt>
      <trkpt lat="38.443776666666665" lon="-1.1616616666666666">
        <ele>1999.1999999999975</ele>
        <time>2013-11-09T14:15:48.96</time>
      </trkpt>
      <trkpt lat="38.443841666666664" lon="-1.1615383333333333">
        <ele>1998.3999999999976</ele>
        <time>2013-11-09T14:15:49.96</time>
      </trkpt>
      <trkpt lat="38.443905" lon="-1.161425">
        <ele>1997.4999999999975</ele>
        <time>2013-11-09T14:15:50.93</time>
      </trkpt>
      <trkpt lat="38.443963333333336" lon="-1.16132">
        <ele>1996.4999999999975</ele>
        <time>2013-11-09T14:15:51.97</time>
      </trkpt>
      <trkpt lat="38.444021666666664" lon="-1.1612216666666666">
        <ele>1995.3999999999976</ele>
        <time>2013-11-09T14:15:52.97</time>
      </trkpt>
      <trkpt lat="38.44408333333333" lon="-1.1611116666666668">
        <ele>1994.2999999999977</ele>
        <time>2013-11-09T14:15:53.96</time>
      </trkpt>
      <trkpt lat="38.44414833333333" lon="-1.1610083333333334">
        <ele>1993.3999999999976</ele>
        <time>2013-11-09T14:15:54.96</time>
      </trkpt>
      <trkpt lat="38.444215" lon="-1.1609083333333334">
        <ele>1992.3999999999976</ele>
        <time>2013-11-09T14:15:55.96</time>
      </trkpt>
      <trkpt lat="38.44428" lon="-1.1608100000000001">
        <ele>1991.2999999999977</ele>
        <time>2013-11-09T14:15:56.97</time>
      </trkpt>
      <trkpt lat="38.444345" lon="-1.1607283333333334">
        <ele>1990.0999999999976</ele>
        <time>2013-11-09T14:15:57.97</time>
      </trkpt>
      <trkpt lat="38.44441166666667" lon="-1.16064">
        <ele>1988.8999999999976</ele>
        <time>2013-11-09T14:15:58.92</time>
      </trkpt>
      <trkpt lat="38.444475" lon="-1.1605483333333333">
        <ele>1987.8999999999976</ele>
        <time>2013-11-09T14:15:59.99</time>
      </trkpt>
      <trkpt lat="38.444541666666666" lon="-1.1604583333333334">
        <ele>1986.7999999999977</ele>
        <time>2013-11-09T14:16:00.98</time>
      </trkpt>
      <trkpt lat="38.444608333333335" lon="-1.1603683333333334">
        <ele>1985.4999999999977</ele>
        <time>2013-11-09T14:16:01.98</time>
      </trkpt>
      <trkpt lat="38.444673333333334" lon="-1.1602833333333333">
        <ele>1984.0999999999976</ele>
        <time>2013-11-09T14:16:02.97</time>
      </trkpt>
      <trkpt lat="38.444736666666664" lon="-1.1601883333333334">
        <ele>1982.6999999999975</ele>
        <time>2013-11-09T14:16:03.92</time>
      </trkpt>
      <trkpt lat="38.444815" lon="-1.1600816666666667">
        <ele>1980.8999999999976</ele>
        <time>2013-11-09T14:16:04.96</time>
      </trkpt>
      <trkpt lat="38.4449" lon="-1.1599733333333333">
        <ele>1979.3999999999976</ele>
        <time>2013-11-09T14:16:05.96</time>
      </trkpt>
      <trkpt lat="38.44498" lon="-1.1598683333333333">
        <ele>1977.7999999999977</ele>
        <time>2013-11-09T14:16:07.69</time>
      </trkpt>
      <trkpt lat="38.445058333333336" lon="-1.15977">
        <ele>1975.8999999999976</ele>
        <time>2013-11-09T14:16:08.69</time>
      </trkpt>
      <trkpt lat="38.445125" lon="-1.159685">
        <ele>1974.2999999999977</ele>
        <time>2013-11-09T14:16:08.96</time>
      </trkpt>
      <trkpt lat="38.445195" lon="-1.1595933333333333">
        <ele>1972.3999999999976</ele>
        <time>2013-11-09T14:16:09.96</time>
      </trkpt>
      <trkpt lat="38.44527" lon="-1.15949">
        <ele>1970.2999999999977</ele>
        <time>2013-11-09T14:16:10.96</time>
      </trkpt>
      <trkpt lat="38.445341666666664" lon="-1.1593833333333334">
        <ele>1968.3999999999976</ele>
        <time>2013-11-09T14:16:12.39</time>
      </trkpt>
      <trkpt lat="38.44540833333333" lon="-1.1592766666666667">
        <ele>1966.8999999999976</ele>
        <time>2013-11-09T14:16:12.97</time>
      </trkpt>
      <trkpt lat="38.44548" lon="-1.159155">
        <ele>1965.2999999999977</ele>
        <time>2013-11-09T14:16:13.96</time>
      </trkpt>
      <trkpt lat="38.44555" lon="-1.1590466666666668">
        <ele>1963.6999999999978</ele>
        <time>2013-11-09T14:16:14.93</time>
      </trkpt>
      <trkpt lat="38.44560833333333" lon="-1.1589633333333333">
        <ele>1962.4999999999977</ele>
        <time>2013-11-09T14:16:15.96</time>
      </trkpt>
      <trkpt lat="38.44567166666667" lon="-1.158885">
        <ele>1961.1999999999978</ele>
        <time>2013-11-09T14:16:16.97</time>
      </trkpt>
      <trkpt lat="38.44574" lon="-1.1588066666666665">
        <ele>1959.6999999999978</ele>
        <time>2013-11-09T14:16:17.97</time>
      </trkpt>
      <trkpt lat="38.445813333333334" lon="-1.1587266666666667">
        <ele>1957.7999999999977</ele>
        <time>2013-11-09T14:16:18.96</time>
      </trkpt>
      <trkpt lat="38.44588666666667" lon="-1.1586483333333333">
        <ele>1955.8999999999976</ele>
        <time>2013-11-09T14:16:20.13</time>
      </trkpt>
      <trkpt lat="38.44596" lon="-1.1585766666666666">
        <ele>1954.0999999999976</ele>
        <time>2013-11-09T14:16:20.96</time>
      </trkpt>
      <trkpt lat="38.44602666666667" lon="-1.15852">
        <ele>1952.4999999999977</ele>
        <time>2013-11-09T14:16:21.97</time>
      </trkpt>
      <trkpt lat="38.44609833333333" lon="-1.1584666666666665">
        <ele>1950.8999999999978</ele>
        <time>2013-11-09T14:16:22.97</time>
      </trkpt>
      <trkpt lat="38.44617" lon="-1.1584166666666667">
        <ele>1949.299999999998</ele>
        <time>2013-11-09T14:16:23.96</time>
      </trkpt>
      <trkpt lat="38.44625333333333" lon="-1.1583583333333334">
        <ele>1947.799999999998</ele>
        <time>2013-11-09T14:16:24.96</time>
      </trkpt>
      <trkpt lat="38.44633666666667" lon="-1.1583">
        <ele>1946.499999999998</ele>
        <time>2013-11-09T14:16:25.96</time>
      </trkpt>
      <trkpt lat="38.446415" lon="-1.1582433333333333">
        <ele>1945.499999999998</ele>
        <time>2013-11-09T14:16:26.96</time>
      </trkpt>
      <trkpt lat="38.446488333333335" lon="-1.15819">
        <ele>1944.499999999998</ele>
        <time>2013-11-09T14:16:27.97</time>
      </trkpt>
      <trkpt lat="38.44656833333333" lon="-1.1581233333333334">
        <ele>1943.0999999999979</ele>
        <time>2013-11-09T14:16:28.96</time>
      </trkpt>
      <trkpt lat="38.446643333333334" lon="-1.1580583333333334">
        <ele>1941.799999999998</ele>
        <time>2013-11-09T14:16:29.93</time>
      </trkpt>
      <trkpt lat="38.446738333333336" lon="-1.15798">
        <ele>1940.299999999998</ele>
        <time>2013-11-09T14:16:31.22</time>
      </trkpt>
      <trkpt lat="38.44682" lon="-1.157915">
        <ele>1939.199999999998</ele>
        <time>2013-11-09T14:16:31.92</time>
      </trkpt>
      <trkpt lat="38.446885" lon="-1.1578716666666666">
        <ele>1938.499999999998</ele>
        <time>2013-11-09T14:16:32.97</time>
      </trkpt>
      <trkpt lat="38.446976666666664" lon="-1.157805">
        <ele>1937.5999999999979</ele>
        <time>2013-11-09T14:16:33.96</time>
      </trkpt>
      <trkpt lat="38.44706333333333" lon="-1.1577416666666667">
        <ele>1936.299999999998</ele>
        <time>2013-11-09T14:16:34.96</time>
      </trkpt>
      <trkpt lat="38.447135" lon="-1.1576916666666666">
        <ele>1935.0999999999979</ele>
        <time>2013-11-09T14:16:35.90</time>
      </trkpt>
      <trkpt lat="38.44721" lon="-1.1576416666666667">
        <ele>1933.8999999999978</ele>
        <time>2013-11-09T14:16:36.97</time>
      </trkpt>
      <trkpt lat="38.447285" lon="-1.1575966666666666">
        <ele>1932.799999999998</ele>
        <time>2013-11-09T14:16:37.97</time>
      </trkpt>
      <trkpt lat="38.447385" lon="-1.1575333333333333">
        <ele>1931.699999999998</ele>
        <time>2013-11-09T14:16:38.96</time>
      </trkpt>
      <trkpt lat="38.447478333333336" lon="-1.1574716666666667">
        <ele>1930.799999999998</ele>
        <time>2013-11-09T14:16:39.96</time>
      </trkpt>
      <trkpt lat="38.44754" lon="-1.157425">
        <ele>1929.999999999998</ele>
        <time>2013-11-09T14:16:40.91</time>
      </trkpt>
      <trkpt lat="38.44761" lon="-1.15736">
        <ele>1928.999999999998</ele>
        <time>2013-11-09T14:16:41.96</time>
      </trkpt>
      <trkpt lat="38.447665" lon="-1.1573066666666667">
        <ele>1927.899999999998</ele>
        <time>2013-11-09T14:16:42.96</time>
      </trkpt>
      <trkpt lat="38.447723333333336" lon="-1.1572533333333332">
        <ele>1926.7999999999981</ele>
        <time>2013-11-09T14:16:43.97</time>
      </trkpt>
      <trkpt lat="38.44779666666667" lon="-1.1571916666666666">
        <ele>1925.399999999998</ele>
        <time>2013-11-09T14:16:44.91</time>
      </trkpt>
      <trkpt lat="38.447878333333335" lon="-1.1571316666666667">
        <ele>1923.7999999999981</ele>
        <time>2013-11-09T14:16:45.96</time>
      </trkpt>
      <trkpt lat="38.447955" lon="-1.1570833333333335">
        <ele>1922.4999999999982</ele>
        <time>2013-11-09T14:16:46.96</time>
      </trkpt>
      <trkpt lat="38.448031666666665" lon="-1.1570216666666666">
        <ele>1921.4999999999982</ele>
        <time>2013-11-09T14:16:47.96</time>
      </trkpt>
      <trkpt lat="38.448103333333336" lon="-1.1569683333333334">
        <ele>1920.4999999999982</ele>
        <time>2013-11-09T14:16:48.96</time>
      </trkpt>
      <trkpt lat="38.44815833333333" lon="-1.156935">
        <ele>1919.599999999998</ele>
        <time>2013-11-09T14:16:49.93</time>
      </trkpt>
      <trkpt lat="38.44822166666667" lon="-1.1569">
        <ele>1918.599999999998</ele>
        <time>2013-11-09T14:16:50.97</time>
      </trkpt>
      <trkpt lat="38.448323333333335" lon="-1.1568733333333334">
        <ele>1917.399999999998</ele>
        <time>2013-11-09T14:16:51.98</time>
      </trkpt>
      <trkpt lat="38.44839833333333" lon="-1.1568666666666667">
        <ele>1915.599999999998</ele>
        <time>2013-11-09T14:16:52.96</time>
      </trkpt>
      <trkpt lat="38.448485" lon="-1.156835">
        <ele>1913.9999999999982</ele>
        <time>2013-11-09T14:16:53.96</time>
      </trkpt>
      <trkpt lat="38.448555" lon="-1.156785">
        <ele>1912.3999999999983</ele>
        <time>2013-11-09T14:16:54.96</time>
      </trkpt>
      <trkpt lat="38.448631666666664" lon="-1.15673">
        <ele>1911.4999999999982</ele>
        <time>2013-11-09T14:16:55.96</time>
      </trkpt>
      <trkpt lat="38.44869" lon="-1.1566816666666666">
        <ele>1910.9999999999982</ele>
        <time>2013-11-09T14:16:56.96</time>
      </trkpt>
      <trkpt lat="38.44875666666667" lon="-1.15663">
        <ele>1910.3999999999983</ele>
        <time>2013-11-09T14:16:58.19</time>
      </trkpt>
      <trkpt lat="38.44882166666667" lon="-1.1565733333333332">
        <ele>1909.2999999999984</ele>
        <time>2013-11-09T14:16:58.96</time>
      </trkpt>
      <trkpt lat="38.44889833333333" lon="-1.1565133333333333">
        <ele>1907.8999999999983</ele>
        <time>2013-11-09T14:16:59.96</time>
      </trkpt>
      <trkpt lat="38.44897666666667" lon="-1.156455">
        <ele>1906.5999999999983</ele>
        <time>2013-11-09T14:17:00.96</time>
      </trkpt>
      <trkpt lat="38.449041666666666" lon="-1.1564066666666666">
        <ele>1905.8999999999983</ele>
        <time>2013-11-09T14:17:02.49</time>
      </trkpt>
      <trkpt lat="38.44909" lon="-1.15637">
        <ele>1905.5999999999983</ele>
        <time>2013-11-09T14:17:02.96</time>
      </trkpt>
      <trkpt lat="38.44913666666667" lon="-1.1563266666666667">
        <ele>1905.0999999999983</ele>
        <time>2013-11-09T14:17:03.96</time>
      </trkpt>
      <trkpt lat="38.449191666666664" lon="-1.1562683333333332">
        <ele>1904.1999999999982</ele>
        <time>2013-11-09T14:17:04.97</time>
      </trkpt>
      <trkpt lat="38.449268333333336" lon="-1.156185">
        <ele>1903.0999999999983</ele>
        <time>2013-11-09T14:17:05.96</time>
      </trkpt>
      <trkpt lat="38.449345" lon="-1.156095">
        <ele>1902.1999999999982</ele>
        <time>2013-11-09T14:17:06.97</time>
      </trkpt>
      <trkpt lat="38.449425" lon="-1.1560083333333333">
        <ele>1901.3999999999983</ele>
        <time>2013-11-09T14:17:07.97</time>
      </trkpt>
      <trkpt lat="38.449495" lon="-1.1559383333333333">
        <ele>1900.7999999999984</ele>
        <time>2013-11-09T14:17:08.97</time>
      </trkpt>
      <trkpt lat="38.44954333333333" lon="-1.1558833333333334">
        <ele>1900.0999999999983</ele>
        <time>2013-11-09T14:17:09.96</time>
      </trkpt>
      <trkpt lat="38.449585" lon="-1.1558333333333333">
        <ele>1899.3999999999983</ele>
        <time>2013-11-09T14:17:10.97</time>
      </trkpt>
      <trkpt lat="38.44963166666667" lon="-1.1557766666666667">
        <ele>1898.5999999999983</ele>
        <time>2013-11-09T14:17:12.29</time>
      </trkpt>
      <trkpt lat="38.449688333333334" lon="-1.1557116666666667">
        <ele>1897.3999999999983</ele>
        <time>2013-11-09T14:17:12.97</time>
      </trkpt>
      <trkpt lat="38.449755" lon="-1.1556333333333333">
        <ele>1896.1999999999982</ele>
        <time>2013-11-09T14:17:13.92</time>
      </trkpt>
      <trkpt lat="38.449823333333335" lon="-1.155555">
        <ele>1895.0999999999983</ele>
        <time>2013-11-09T14:17:14.97</time>
      </trkpt>
      <trkpt lat="38.44989" lon="-1.1554766666666667">
        <ele>1893.8999999999983</ele>
        <time>2013-11-09T14:17:15.97</time>
      </trkpt>
      <trkpt lat="38.449951666666664" lon="-1.1554116666666667">
        <ele>1892.6999999999982</ele>
        <time>2013-11-09T14:17:16.96</time>
      </trkpt>
      <trkpt lat="38.45001166666667" lon="-1.1553550000000001">
        <ele>1891.4999999999982</ele>
        <time>2013-11-09T14:17:17.96</time>
      </trkpt>
      <trkpt lat="38.45007" lon="-1.1552983333333333">
        <ele>1890.3999999999983</ele>
        <time>2013-11-09T14:17:18.96</time>
      </trkpt>
      <trkpt lat="38.45012666666667" lon="-1.1552366666666667">
        <ele>1889.0999999999983</ele>
        <time>2013-11-09T14:17:19.97</time>
      </trkpt>
      <trkpt lat="38.450185" lon="-1.1551683333333334">
        <ele>1887.6999999999982</ele>
        <time>2013-11-09T14:17:20.96</time>
      </trkpt>
      <trkpt lat="38.45024333333333" lon="-1.1550966666666667">
        <ele>1886.0999999999983</ele>
        <time>2013-11-09T14:17:21.96</time>
      </trkpt>
      <trkpt lat="38.45030333333333" lon="-1.1550233333333333">
        <ele>1884.4999999999984</ele>
        <time>2013-11-09T14:17:22.96</time>
      </trkpt>
      <trkpt lat="38.450365" lon="-1.1549466666666666">
        <ele>1882.6999999999985</ele>
        <time>2013-11-09T14:17:23.97</time>
      </trkpt>
      <trkpt lat="38.450433333333336" lon="-1.1548633333333334">
        <ele>1880.9999999999984</ele>
        <time>2013-11-09T14:17:24.97</time>
      </trkpt>
      <trkpt lat="38.45050333333333" lon="-1.1547749999999999">
        <ele>1879.2999999999984</ele>
        <time>2013-11-09T14:17:25.93</time>
      </trkpt>
      <trkpt lat="38.450581666666665" lon="-1.1546816666666666">
        <ele>1877.7999999999984</ele>
        <time>2013-11-09T14:17:26.96</time>
      </trkpt>
      <trkpt lat="38.45066" lon="-1.15459">
        <ele>1876.5999999999983</ele>
        <time>2013-11-09T14:17:27.96</time>
      </trkpt>
      <trkpt lat="38.450736666666664" lon="-1.15451">
        <ele>1875.1999999999982</ele>
        <time>2013-11-09T14:17:28.99</time>
      </trkpt>
      <trkpt lat="38.45081" lon="-1.1544383333333332">
        <ele>1873.6999999999982</ele>
        <time>2013-11-09T14:17:29.97</time>
      </trkpt>
      <trkpt lat="38.45088333333333" lon="-1.1543700000000001">
        <ele>1871.9999999999982</ele>
        <time>2013-11-09T14:17:30.96</time>
      </trkpt>
      <trkpt lat="38.45094" lon="-1.15432">
        <ele>1870.2999999999981</ele>
        <time>2013-11-09T14:17:31.97</time>
      </trkpt>
      <trkpt lat="38.451" lon="-1.15426">
        <ele>1868.4999999999982</ele>
        <time>2013-11-09T14:17:32.97</time>
      </trkpt>
      <trkpt lat="38.451071666666664" lon="-1.1541866666666667">
        <ele>1866.6999999999982</ele>
        <time>2013-11-09T14:17:34.39</time>
      </trkpt>
      <trkpt lat="38.451148333333336" lon="-1.154115">
        <ele>1865.0999999999983</ele>
        <time>2013-11-09T14:17:34.96</time>
      </trkpt>
      <trkpt lat="38.45121666666667" lon="-1.15406">
        <ele>1863.4999999999984</ele>
        <time>2013-11-09T14:17:35.96</time>
      </trkpt>
      <trkpt lat="38.45129333333333" lon="-1.154">
        <ele>1861.9999999999984</ele>
        <time>2013-11-09T14:17:36.96</time>
      </trkpt>
      <trkpt lat="38.45137166666667" lon="-1.1539383333333333">
        <ele>1860.4999999999984</ele>
        <time>2013-11-09T14:17:37.97</time>
      </trkpt>
      <trkpt lat="38.45144" lon="-1.1538816666666667">
        <ele>1858.9999999999984</ele>
        <time>2013-11-09T14:17:39.59</time>
      </trkpt>
      <trkpt lat="38.4515" lon="-1.1538366666666666">
        <ele>1857.4999999999984</ele>
        <time>2013-11-09T14:17:39.96</time>
      </trkpt>
      <trkpt lat="38.45155" lon="-1.15381">
        <ele>1856.0999999999983</ele>
        <time>2013-11-09T14:17:40.96</time>
      </trkpt>
      <trkpt lat="38.45162666666667" lon="-1.153765">
        <ele>1854.5999999999983</ele>
        <time>2013-11-09T14:17:41.96</time>
      </trkpt>
      <trkpt lat="38.45171166666667" lon="-1.153715">
        <ele>1852.9999999999984</ele>
        <time>2013-11-09T14:17:42.96</time>
      </trkpt>
      <trkpt lat="38.4518" lon="-1.153665">
        <ele>1851.1999999999985</ele>
        <time>2013-11-09T14:17:44.19</time>
      </trkpt>
      <trkpt lat="38.45188" lon="-1.1536183333333334">
        <ele>1849.4999999999984</ele>
        <time>2013-11-09T14:17:44.92</time>
      </trkpt>
      <trkpt lat="38.45195666666667" lon="-1.1535666666666666">
        <ele>1847.9999999999984</ele>
        <time>2013-11-09T14:17:45.96</time>
      </trkpt>
      <trkpt lat="38.45203166666667" lon="-1.153515">
        <ele>1846.2999999999984</ele>
        <time>2013-11-09T14:17:46.96</time>
      </trkpt>
      <trkpt lat="38.45210333333333" lon="-1.15346">
        <ele>1844.4999999999984</ele>
        <time>2013-11-09T14:17:47.92</time>
      </trkpt>
      <trkpt lat="38.452173333333334" lon="-1.153405">
        <ele>1842.4999999999984</ele>
        <time>2013-11-09T14:17:48.97</time>
      </trkpt>
      <trkpt lat="38.45224" lon="-1.1533516666666666">
        <ele>1840.5999999999983</ele>
        <time>2013-11-09T14:17:49.91</time>
      </trkpt>
      <trkpt lat="38.452306666666665" lon="-1.153295">
        <ele>1838.5999999999983</ele>
        <time>2013-11-09T14:17:50.96</time>
      </trkpt>
      <trkpt lat="38.45237" lon="-1.1532383333333334">
        <ele>1836.7999999999984</ele>
        <time>2013-11-09T14:17:51.96</time>
      </trkpt>
      <trkpt lat="38.45243333333333" lon="-1.1531799999999999">
        <ele>1834.9999999999984</ele>
        <time>2013-11-09T14:17:52.93</time>
      </trkpt>
      <trkpt lat="38.45249666666667" lon="-1.15312">
        <ele>1833.1999999999985</ele>
        <time>2013-11-09T14:17:53.97</time>
      </trkpt>
      <trkpt lat="38.45256166666667" lon="-1.1530583333333333">
        <ele>1831.3999999999985</ele>
        <time>2013-11-09T14:17:54.96</time>
      </trkpt>
      <trkpt lat="38.45262833333334" lon="-1.1529983333333333">
        <ele>1829.4999999999984</ele>
        <time>2013-11-09T14:17:55.92</time>
      </trkpt>
      <trkpt lat="38.45269666666667" lon="-1.15294">
        <ele>1827.6999999999985</ele>
        <time>2013-11-09T14:17:56.96</time>
      </trkpt>
      <trkpt lat="38.452755" lon="-1.1528833333333333">
        <ele>1825.7999999999984</ele>
        <time>2013-11-09T14:17:57.97</time>
      </trkpt>
      <trkpt lat="38.45282666666667" lon="-1.15282">
        <ele>1823.9999999999984</ele>
        <time>2013-11-09T14:17:58.98</time>
      </trkpt>
      <trkpt lat="38.452886666666664" lon="-1.1527633333333334">
        <ele>1822.1999999999985</ele>
        <time>2013-11-09T14:17:59.97</time>
      </trkpt>
      <trkpt lat="38.452955" lon="-1.1526966666666667">
        <ele>1820.5999999999985</ele>
        <time>2013-11-09T14:18:00.97</time>
      </trkpt>
      <trkpt lat="38.45302" lon="-1.1526266666666667">
        <ele>1818.9999999999986</ele>
        <time>2013-11-09T14:18:01.96</time>
      </trkpt>
      <trkpt lat="38.45308333333333" lon="-1.1525566666666667">
        <ele>1817.2999999999986</ele>
        <time>2013-11-09T14:18:02.96</time>
      </trkpt>
      <trkpt lat="38.45314833333333" lon="-1.1524816666666666">
        <ele>1815.5999999999985</ele>
        <time>2013-11-09T14:18:03.96</time>
      </trkpt>
      <trkpt lat="38.45321166666667" lon="-1.1524066666666666">
        <ele>1813.6999999999985</ele>
        <time>2013-11-09T14:18:04.97</time>
      </trkpt>
      <trkpt lat="38.453285" lon="-1.152325">
        <ele>1812.1999999999985</ele>
        <time>2013-11-09T14:18:05.92</time>
      </trkpt>
      <trkpt lat="38.453363333333336" lon="-1.15224">
        <ele>1810.6999999999985</ele>
        <time>2013-11-09T14:18:06.96</time>
      </trkpt>
      <trkpt lat="38.453426666666665" lon="-1.152165">
        <ele>1809.3999999999985</ele>
        <time>2013-11-09T14:18:07.92</time>
      </trkpt>
      <trkpt lat="38.453498333333336" lon="-1.1520833333333333">
        <ele>1807.7999999999986</ele>
        <time>2013-11-09T14:18:08.96</time>
      </trkpt>
      <trkpt lat="38.45357" lon="-1.1520016666666666">
        <ele>1806.2999999999986</ele>
        <time>2013-11-09T14:18:09.96</time>
      </trkpt>
      <trkpt lat="38.45364" lon="-1.1519216666666667">
        <ele>1804.7999999999986</ele>
        <time>2013-11-09T14:18:10.96</time>
      </trkpt>
      <trkpt lat="38.453715" lon="-1.1518366666666666">
        <ele>1803.4999999999986</ele>
        <time>2013-11-09T14:18:12.29</time>
      </trkpt>
      <trkpt lat="38.453786666666666" lon="-1.1517466666666667">
        <ele>1802.0999999999985</ele>
        <time>2013-11-09T14:18:12.96</time>
      </trkpt>
      <trkpt lat="38.45385" lon="-1.1516566666666668">
        <ele>1800.7999999999986</ele>
        <time>2013-11-09T14:18:13.93</time>
      </trkpt>
      <trkpt lat="38.45391333333333" lon="-1.1515633333333333">
        <ele>1799.5999999999985</ele>
        <time>2013-11-09T14:18:14.97</time>
      </trkpt>
      <trkpt lat="38.453986666666665" lon="-1.1514583333333333">
        <ele>1798.4999999999986</ele>
        <time>2013-11-09T14:18:15.96</time>
      </trkpt>
      <trkpt lat="38.454055" lon="-1.1513550000000001">
        <ele>1797.2999999999986</ele>
        <time>2013-11-09T14:18:16.96</time>
      </trkpt>
      <trkpt lat="38.454125" lon="-1.151255">
        <ele>1796.1999999999987</ele>
        <time>2013-11-09T14:18:17.96</time>
      </trkpt>
      <trkpt lat="38.45419" lon="-1.1511633333333333">
        <ele>1795.3999999999987</ele>
        <time>2013-11-09T14:18:18.96</time>
      </trkpt>
      <trkpt lat="38.45424833333333" lon="-1.1510816666666668">
        <ele>1794.7999999999988</ele>
        <time>2013-11-09T14:18:19.93</time>
      </trkpt>
      <trkpt lat="38.454298333333334" lon="-1.1509966666666667">
        <ele>1794.0999999999988</ele>
        <time>2013-11-09T14:18:21.79</time>
      </trkpt>
      <trkpt lat="38.454343333333334" lon="-1.1509183333333333">
        <ele>1793.4999999999989</ele>
        <time>2013-11-09T14:18:21.96</time>
      </trkpt>
      <trkpt lat="38.45438166666667" lon="-1.1508483333333333">
        <ele>1792.899999999999</ele>
        <time>2013-11-09T14:18:22.96</time>
      </trkpt>
      <trkpt lat="38.454415" lon="-1.1507833333333333">
        <ele>1792.099999999999</ele>
        <time>2013-11-09T14:18:23.96</time>
      </trkpt>
      <trkpt lat="38.45446333333334" lon="-1.1507366666666667">
        <ele>1791.299999999999</ele>
        <time>2013-11-09T14:18:24.96</time>
      </trkpt>
      <trkpt lat="38.454526666666666" lon="-1.15068">
        <ele>1790.299999999999</ele>
        <time>2013-11-09T14:18:25.90</time>
      </trkpt>
      <trkpt lat="38.4546" lon="-1.1506333333333334">
        <ele>1789.399999999999</ele>
        <time>2013-11-09T14:18:26.92</time>
      </trkpt>
      <trkpt lat="38.45467" lon="-1.15059">
        <ele>1788.699999999999</ele>
        <time>2013-11-09T14:18:27.93</time>
      </trkpt>
      <trkpt lat="38.45474333333333" lon="-1.1505483333333333">
        <ele>1787.9999999999989</ele>
        <time>2013-11-09T14:18:28.93</time>
      </trkpt>
      <trkpt lat="38.45482333333333" lon="-1.1505116666666666">
        <ele>1787.399999999999</ele>
        <time>2013-11-09T14:18:29.96</time>
      </trkpt>
      <trkpt lat="38.45489666666667" lon="-1.1504833333333333">
        <ele>1786.799999999999</ele>
        <time>2013-11-09T14:18:30.90</time>
      </trkpt>
      <trkpt lat="38.45496833333333" lon="-1.1504583333333334">
        <ele>1786.1999999999991</ele>
        <time>2013-11-09T14:18:31.93</time>
      </trkpt>
      <trkpt lat="38.455025" lon="-1.15045">
        <ele>1785.799999999999</ele>
        <time>2013-11-09T14:18:32.92</time>
      </trkpt>
      <trkpt lat="38.455088333333336" lon="-1.1504366666666668">
        <ele>1785.599999999999</ele>
        <time>2013-11-09T14:18:33.93</time>
      </trkpt>
      <trkpt lat="38.45516" lon="-1.1504133333333333">
        <ele>1785.299999999999</ele>
        <time>2013-11-09T14:18:34.96</time>
      </trkpt>
      <trkpt lat="38.45523333333333" lon="-1.15039">
        <ele>1785.099999999999</ele>
        <time>2013-11-09T14:18:36.79</time>
      </trkpt>
      <trkpt lat="38.45530333333333" lon="-1.150365">
        <ele>1784.499999999999</ele>
        <time>2013-11-09T14:18:36.91</time>
      </trkpt>
      <trkpt lat="38.455376666666666" lon="-1.1503416666666666">
        <ele>1783.8999999999992</ele>
        <time>2013-11-09T14:18:37.96</time>
      </trkpt>
      <trkpt lat="38.455445" lon="-1.1503183333333333">
        <ele>1783.1999999999991</ele>
        <time>2013-11-09T14:18:38.96</time>
      </trkpt>
      <trkpt lat="38.455511666666666" lon="-1.1502916666666667">
        <ele>1782.499999999999</ele>
        <time>2013-11-09T14:18:39.96</time>
      </trkpt>
      <trkpt lat="38.45556333333333" lon="-1.1502716666666666">
        <ele>1781.599999999999</ele>
        <time>2013-11-09T14:18:40.96</time>
      </trkpt>
      <trkpt lat="38.45563666666666" lon="-1.150235">
        <ele>1780.599999999999</ele>
        <time>2013-11-09T14:18:41.97</time>
      </trkpt>
      <trkpt lat="38.455713333333335" lon="-1.1501866666666667">
        <ele>1779.499999999999</ele>
        <time>2013-11-09T14:18:42.96</time>
      </trkpt>
      <trkpt lat="38.45579333333333" lon="-1.1501333333333332">
        <ele>1778.3999999999992</ele>
        <time>2013-11-09T14:18:43.98</time>
      </trkpt>
      <trkpt lat="38.45587833333333" lon="-1.1500766666666666">
        <ele>1777.1999999999991</ele>
        <time>2013-11-09T14:18:44.97</time>
      </trkpt>
      <trkpt lat="38.45596833333333" lon="-1.1500166666666667">
        <ele>1776.0999999999992</ele>
        <time>2013-11-09T14:18:45.97</time>
      </trkpt>
      <trkpt lat="38.45604" lon="-1.1499633333333334">
        <ele>1774.8999999999992</ele>
        <time>2013-11-09T14:18:46.97</time>
      </trkpt>
      <trkpt lat="38.45612333333333" lon="-1.1498933333333334">
        <ele>1773.499999999999</ele>
        <time>2013-11-09T14:18:47.96</time>
      </trkpt>
      <trkpt lat="38.456215" lon="-1.149815">
        <ele>1772.1999999999991</ele>
        <time>2013-11-09T14:18:48.97</time>
      </trkpt>
      <trkpt lat="38.456293333333335" lon="-1.1497416666666667">
        <ele>1770.999999999999</ele>
        <time>2013-11-09T14:18:49.96</time>
      </trkpt>
      <trkpt lat="38.45637333333333" lon="-1.149665">
        <ele>1769.6999999999991</ele>
        <time>2013-11-09T14:18:50.97</time>
      </trkpt>
      <trkpt lat="38.45646166666667" lon="-1.1495783333333334">
        <ele>1768.799999999999</ele>
        <time>2013-11-09T14:18:51.96</time>
      </trkpt>
      <trkpt lat="38.45655" lon="-1.1494933333333333">
        <ele>1767.899999999999</ele>
        <time>2013-11-09T14:18:52.95</time>
      </trkpt>
      <trkpt lat="38.45662333333333" lon="-1.1494166666666668">
        <ele>1766.9999999999989</ele>
        <time>2013-11-09T14:18:53.96</time>
      </trkpt>
      <trkpt lat="38.45670666666667" lon="-1.149335">
        <ele>1765.899999999999</ele>
        <time>2013-11-09T14:18:54.93</time>
      </trkpt>
      <trkpt lat="38.45679" lon="-1.1492499999999999">
        <ele>1764.699999999999</ele>
        <time>2013-11-09T14:18:55.96</time>
      </trkpt>
      <trkpt lat="38.456878333333336" lon="-1.1491666666666667">
        <ele>1763.599999999999</ele>
        <time>2013-11-09T14:18:56.96</time>
      </trkpt>
      <trkpt lat="38.456968333333336" lon="-1.1490916666666666">
        <ele>1762.699999999999</ele>
        <time>2013-11-09T14:18:58.9</time>
      </trkpt>
      <trkpt lat="38.45705" lon="-1.1490266666666666">
        <ele>1761.699999999999</ele>
        <time>2013-11-09T14:18:58.96</time>
      </trkpt>
      <trkpt lat="38.457121666666666" lon="-1.148995">
        <ele>1760.599999999999</ele>
        <time>2013-11-09T14:18:59.95</time>
      </trkpt>
      <trkpt lat="38.4572" lon="-1.1489583333333333">
        <ele>1759.099999999999</ele>
        <time>2013-11-09T14:19:00.96</time>
      </trkpt>
      <trkpt lat="38.457265" lon="-1.148935">
        <ele>1757.999999999999</ele>
        <time>2013-11-09T14:19:01.97</time>
      </trkpt>
      <trkpt lat="38.45733166666667" lon="-1.1489">
        <ele>1756.999999999999</ele>
        <time>2013-11-09T14:19:03.19</time>
      </trkpt>
      <trkpt lat="38.45739666666667" lon="-1.1488616666666667">
        <ele>1755.6999999999991</ele>
        <time>2013-11-09T14:19:03.96</time>
      </trkpt>
      <trkpt lat="38.45747333333333" lon="-1.1488133333333335">
        <ele>1754.1999999999991</ele>
        <time>2013-11-09T14:19:04.96</time>
      </trkpt>
      <trkpt lat="38.45756166666666" lon="-1.1487533333333333">
        <ele>1752.799999999999</ele>
        <time>2013-11-09T14:19:05.96</time>
      </trkpt>
      <trkpt lat="38.45762333333333" lon="-1.1486883333333333">
        <ele>1751.599999999999</ele>
        <time>2013-11-09T14:19:06.96</time>
      </trkpt>
      <trkpt lat="38.457678333333334" lon="-1.1486266666666667">
        <ele>1750.899999999999</ele>
        <time>2013-11-09T14:19:07.97</time>
      </trkpt>
      <trkpt lat="38.457723333333334" lon="-1.1485699999999999">
        <ele>1750.299999999999</ele>
        <time>2013-11-09T14:19:08.92</time>
      </trkpt>
      <trkpt lat="38.45774333333333" lon="-1.148505">
        <ele>1749.999999999999</ele>
        <time>2013-11-09T14:19:09.92</time>
      </trkpt>
      <trkpt lat="38.457775" lon="-1.1484266666666667">
        <ele>1749.299999999999</ele>
        <time>2013-11-09T14:19:10.96</time>
      </trkpt>
      <trkpt lat="38.45782166666667" lon="-1.14836">
        <ele>1748.499999999999</ele>
        <time>2013-11-09T14:19:12.11</time>
      </trkpt>
      <trkpt lat="38.45787166666667" lon="-1.14829">
        <ele>1747.8999999999992</ele>
        <time>2013-11-09T14:19:12.97</time>
      </trkpt>
      <trkpt lat="38.457926666666665" lon="-1.148215">
        <ele>1747.3999999999992</ele>
        <time>2013-11-09T14:19:14.49</time>
      </trkpt>
      <trkpt lat="38.45798" lon="-1.14814">
        <ele>1746.3999999999992</ele>
        <time>2013-11-09T14:19:14.96</time>
      </trkpt>
      <trkpt lat="38.458025" lon="-1.1480683333333332">
        <ele>1745.2999999999993</ele>
        <time>2013-11-09T14:19:15.96</time>
      </trkpt>
      <trkpt lat="38.458055" lon="-1.1480166666666667">
        <ele>1744.1999999999994</ele>
        <time>2013-11-09T14:19:16.96</time>
      </trkpt>
      <trkpt lat="38.45809666666667" lon="-1.1479566666666667">
        <ele>1742.9999999999993</ele>
        <time>2013-11-09T14:19:17.92</time>
      </trkpt>
      <trkpt lat="38.458146666666664" lon="-1.147895">
        <ele>1741.5999999999992</ele>
        <time>2013-11-09T14:19:18.96</time>
      </trkpt>
      <trkpt lat="38.45820666666667" lon="-1.1478283333333335">
        <ele>1740.1999999999991</ele>
        <time>2013-11-09T14:19:19.92</time>
      </trkpt>
      <trkpt lat="38.45827333333333" lon="-1.1477516666666667">
        <ele>1739.0999999999992</ele>
        <time>2013-11-09T14:19:20.93</time>
      </trkpt>
      <trkpt lat="38.45834166666667" lon="-1.1476633333333333">
        <ele>1738.3999999999992</ele>
        <time>2013-11-09T14:19:21.97</time>
      </trkpt>
      <trkpt lat="38.45841" lon="-1.1475633333333333">
        <ele>1737.5999999999992</ele>
        <time>2013-11-09T14:19:23.29</time>
      </trkpt>
      <trkpt lat="38.458475" lon="-1.1474683333333333">
        <ele>1736.6999999999991</ele>
        <time>2013-11-09T14:19:23.96</time>
      </trkpt>
      <trkpt lat="38.45854166666667" lon="-1.1473733333333334">
        <ele>1735.8999999999992</ele>
        <time>2013-11-09T14:19:24.98</time>
      </trkpt>
      <trkpt lat="38.45860666666667" lon="-1.1472733333333334">
        <ele>1735.1999999999991</ele>
        <time>2013-11-09T14:19:25.96</time>
      </trkpt>
      <trkpt lat="38.45865" lon="-1.1471533333333332">
        <ele>1734.6999999999991</ele>
        <time>2013-11-09T14:19:26.97</time>
      </trkpt>
      <trkpt lat="38.45870166666667" lon="-1.1470216666666666">
        <ele>1733.6999999999991</ele>
        <time>2013-11-09T14:19:28.9</time>
      </trkpt>
      <trkpt lat="38.458733333333335" lon="-1.14692">
        <ele>1732.8999999999992</ele>
        <time>2013-11-09T14:19:28.97</time>
      </trkpt>
      <trkpt lat="38.45877" lon="-1.146815">
        <ele>1731.6999999999991</ele>
        <time>2013-11-09T14:19:29.98</time>
      </trkpt>
      <trkpt lat="38.458803333333336" lon="-1.1467083333333332">
        <ele>1730.1999999999991</ele>
        <time>2013-11-09T14:19:30.97</time>
      </trkpt>
      <trkpt lat="38.45883666666667" lon="-1.14659">
        <ele>1728.299999999999</ele>
        <time>2013-11-09T14:19:31.98</time>
      </trkpt>
      <trkpt lat="38.45887333333334" lon="-1.1464633333333334">
        <ele>1726.499999999999</ele>
        <time>2013-11-09T14:19:32.97</time>
      </trkpt>
      <trkpt lat="38.458911666666665" lon="-1.1463483333333333">
        <ele>1724.999999999999</ele>
        <time>2013-11-09T14:19:34.69</time>
      </trkpt>
      <trkpt lat="38.458956666666666" lon="-1.1462383333333332">
        <ele>1723.599999999999</ele>
        <time>2013-11-09T14:19:34.97</time>
      </trkpt>
      <trkpt lat="38.458998333333334" lon="-1.146125">
        <ele>1722.199999999999</ele>
        <time>2013-11-09T14:19:35.97</time>
      </trkpt>
      <trkpt lat="38.45904" lon="-1.1460266666666667">
        <ele>1720.699999999999</ele>
        <time>2013-11-09T14:19:36.97</time>
      </trkpt>
      <trkpt lat="38.459085" lon="-1.145925">
        <ele>1719.099999999999</ele>
        <time>2013-11-09T14:19:37.97</time>
      </trkpt>
      <trkpt lat="38.45914" lon="-1.1458166666666667">
        <ele>1717.299999999999</ele>
        <time>2013-11-09T14:19:39.69</time>
      </trkpt>
      <trkpt lat="38.459196666666664" lon="-1.1457083333333333">
        <ele>1715.999999999999</ele>
        <time>2013-11-09T14:19:39.97</time>
      </trkpt>
      <trkpt lat="38.45926166666667" lon="-1.1455983333333333">
        <ele>1714.799999999999</ele>
        <time>2013-11-09T14:19:40.97</time>
      </trkpt>
      <trkpt lat="38.459318333333336" lon="-1.1455016666666666">
        <ele>1713.399999999999</ele>
        <time>2013-11-09T14:19:41.97</time>
      </trkpt>
      <trkpt lat="38.45936833333333" lon="-1.1454166666666667">
        <ele>1711.399999999999</ele>
        <time>2013-11-09T14:19:42.94</time>
      </trkpt>
      <trkpt lat="38.45942333333333" lon="-1.1453283333333333">
        <ele>1709.299999999999</ele>
        <time>2013-11-09T14:19:43.98</time>
      </trkpt>
      <trkpt lat="38.45947" lon="-1.14526">
        <ele>1707.799999999999</ele>
        <time>2013-11-09T14:19:44.97</time>
      </trkpt>
      <trkpt lat="38.45953166666666" lon="-1.1451683333333333">
        <ele>1706.599999999999</ele>
        <time>2013-11-09T14:19:45.98</time>
      </trkpt>
      <trkpt lat="38.45959833333333" lon="-1.1450716666666667">
        <ele>1705.599999999999</ele>
        <time>2013-11-09T14:19:46.97</time>
      </trkpt>
      <trkpt lat="38.45966333333333" lon="-1.144985">
        <ele>1704.699999999999</ele>
        <time>2013-11-09T14:19:47.94</time>
      </trkpt>
      <trkpt lat="38.459723333333336" lon="-1.1449150000000001">
        <ele>1704.099999999999</ele>
        <time>2013-11-09T14:19:48.98</time>
      </trkpt>
      <trkpt lat="38.45977" lon="-1.1448766666666668">
        <ele>1702.899999999999</ele>
        <time>2013-11-09T14:19:49.97</time>
      </trkpt>
      <trkpt lat="38.459831666666666" lon="-1.14482">
        <ele>1701.099999999999</ele>
        <time>2013-11-09T14:19:50.98</time>
      </trkpt>
      <trkpt lat="38.45988666666667" lon="-1.144765">
        <ele>1698.999999999999</ele>
        <time>2013-11-09T14:19:51.98</time>
      </trkpt>
      <trkpt lat="38.45994" lon="-1.14471">
        <ele>1696.499999999999</ele>
        <time>2013-11-09T14:19:53.69</time>
      </trkpt>
      <trkpt lat="38.459995" lon="-1.1446516666666666">
        <ele>1694.099999999999</ele>
        <time>2013-11-09T14:19:53.97</time>
      </trkpt>
      <trkpt lat="38.46004166666667" lon="-1.1446100000000001">
        <ele>1692.599999999999</ele>
        <time>2013-11-09T14:19:54.97</time>
      </trkpt>
      <trkpt lat="38.460098333333335" lon="-1.1445533333333333">
        <ele>1691.299999999999</ele>
        <time>2013-11-09T14:19:55.97</time>
      </trkpt>
      <trkpt lat="38.460163333333334" lon="-1.1444883333333333">
        <ele>1690.299999999999</ele>
        <time>2013-11-09T14:19:56.97</time>
      </trkpt>
      <trkpt lat="38.46023" lon="-1.14442">
        <ele>1689.399999999999</ele>
        <time>2013-11-09T14:19:57.97</time>
      </trkpt>
      <trkpt lat="38.46027333333333" lon="-1.1443699999999999">
        <ele>1688.099999999999</ele>
        <time>2013-11-09T14:19:58.92</time>
      </trkpt>
      <trkpt lat="38.46033166666667" lon="-1.1442933333333334">
        <ele>1687.099999999999</ele>
        <time>2013-11-09T14:19:59.93</time>
      </trkpt>
      <trkpt lat="38.460391666666666" lon="-1.144205">
        <ele>1685.999999999999</ele>
        <time>2013-11-09T14:20:00.99</time>
      </trkpt>
      <trkpt lat="38.46044333333333" lon="-1.14412">
        <ele>1684.8999999999992</ele>
        <time>2013-11-09T14:20:01.94</time>
      </trkpt>
      <trkpt lat="38.46049166666667" lon="-1.1440383333333333">
        <ele>1683.499999999999</ele>
        <time>2013-11-09T14:20:02.94</time>
      </trkpt>
      <trkpt lat="38.46053666666667" lon="-1.1439666666666666">
        <ele>1681.999999999999</ele>
        <time>2013-11-09T14:20:04.10</time>
      </trkpt>
      <trkpt lat="38.460591666666666" lon="-1.1438916666666668">
        <ele>1680.1999999999991</ele>
        <time>2013-11-09T14:20:04.97</time>
      </trkpt>
      <trkpt lat="38.46065" lon="-1.1438233333333334">
        <ele>1678.0999999999992</ele>
        <time>2013-11-09T14:20:05.97</time>
      </trkpt>
      <trkpt lat="38.460696666666664" lon="-1.1437783333333333">
        <ele>1676.2999999999993</ele>
        <time>2013-11-09T14:20:06.97</time>
      </trkpt>
      <trkpt lat="38.460748333333335" lon="-1.14373">
        <ele>1674.2999999999993</ele>
        <time>2013-11-09T14:20:07.98</time>
      </trkpt>
      <trkpt lat="38.46078333333333" lon="-1.1437016666666666">
        <ele>1672.2999999999993</ele>
        <time>2013-11-09T14:20:09.19</time>
      </trkpt>
      <trkpt lat="38.460836666666665" lon="-1.1436583333333332">
        <ele>1670.0999999999992</ele>
        <time>2013-11-09T14:20:09.97</time>
      </trkpt>
      <trkpt lat="38.46088" lon="-1.14363">
        <ele>1668.2999999999993</ele>
        <time>2013-11-09T14:20:10.97</time>
      </trkpt>
      <trkpt lat="38.46093166666667" lon="-1.1435916666666666">
        <ele>1666.7999999999993</ele>
        <time>2013-11-09T14:20:12.49</time>
      </trkpt>
      <trkpt lat="38.46097666666667" lon="-1.14356">
        <ele>1665.0999999999992</ele>
        <time>2013-11-09T14:20:12.98</time>
      </trkpt>
      <trkpt lat="38.46102333333333" lon="-1.1435266666666666">
        <ele>1663.3999999999992</ele>
        <time>2013-11-09T14:20:13.98</time>
      </trkpt>
      <trkpt lat="38.46107666666666" lon="-1.1434883333333334">
        <ele>1661.499999999999</ele>
        <time>2013-11-09T14:20:14.98</time>
      </trkpt>
      <trkpt lat="38.461135" lon="-1.1434416666666667">
        <ele>1659.6999999999991</ele>
        <time>2013-11-09T14:20:15.97</time>
      </trkpt>
      <trkpt lat="38.46118" lon="-1.1434033333333333">
        <ele>1657.5999999999992</ele>
        <time>2013-11-09T14:20:16.97</time>
      </trkpt>
      <trkpt lat="38.461236666666665" lon="-1.1433516666666668">
        <ele>1655.4999999999993</ele>
        <time>2013-11-09T14:20:17.94</time>
      </trkpt>
      <trkpt lat="38.46129166666667" lon="-1.1433066666666667">
        <ele>1653.5999999999992</ele>
        <time>2013-11-09T14:20:18.97</time>
      </trkpt>
      <trkpt lat="38.46135" lon="-1.1432566666666666">
        <ele>1651.5999999999992</ele>
        <time>2013-11-09T14:20:19.98</time>
      </trkpt>
      <trkpt lat="38.46141" lon="-1.1431966666666666">
        <ele>1649.5999999999992</ele>
        <time>2013-11-09T14:20:20.97</time>
      </trkpt>
      <trkpt lat="38.461461666666665" lon="-1.1431416666666667">
        <ele>1647.9999999999993</ele>
        <time>2013-11-09T14:20:21.97</time>
      </trkpt>
      <trkpt lat="38.46151666666667" lon="-1.1430866666666666">
        <ele>1646.3999999999994</ele>
        <time>2013-11-09T14:20:22.97</time>
      </trkpt>
      <trkpt lat="38.46157" lon="-1.1430316666666667">
        <ele>1644.7999999999995</ele>
        <time>2013-11-09T14:20:23.93</time>
      </trkpt>
      <trkpt lat="38.461625" lon="-1.1429766666666668">
        <ele>1643.2999999999995</ele>
        <time>2013-11-09T14:20:24.94</time>
      </trkpt>
      <trkpt lat="38.461685" lon="-1.142925">
        <ele>1641.7999999999995</ele>
        <time>2013-11-09T14:20:25.93</time>
      </trkpt>
      <trkpt lat="38.46174666666667" lon="-1.14287">
        <ele>1640.0999999999995</ele>
        <time>2013-11-09T14:20:26.97</time>
      </trkpt>
      <trkpt lat="38.461803333333336" lon="-1.1428283333333333">
        <ele>1637.8999999999994</ele>
        <time>2013-11-09T14:20:27.97</time>
      </trkpt>
      <trkpt lat="38.461866666666666" lon="-1.1427683333333334">
        <ele>1635.9999999999993</ele>
        <time>2013-11-09T14:20:28.93</time>
      </trkpt>
      <trkpt lat="38.46192166666667" lon="-1.1427233333333333">
        <ele>1633.6999999999994</ele>
        <time>2013-11-09T14:20:29.99</time>
      </trkpt>
      <trkpt lat="38.46198166666667" lon="-1.142685">
        <ele>1631.2999999999993</ele>
        <time>2013-11-09T14:20:30.93</time>
      </trkpt>
      <trkpt lat="38.462043333333334" lon="-1.142645">
        <ele>1628.6999999999994</ele>
        <time>2013-11-09T14:20:31.97</time>
      </trkpt>
      <trkpt lat="38.46209666666667" lon="-1.1426183333333333">
        <ele>1626.5999999999995</ele>
        <time>2013-11-09T14:20:32.98</time>
      </trkpt>
      <trkpt lat="38.46216" lon="-1.1425733333333334">
        <ele>1624.8999999999994</ele>
        <time>2013-11-09T14:20:33.93</time>
      </trkpt>
      <trkpt lat="38.462223333333334" lon="-1.1425266666666667">
        <ele>1623.3999999999994</ele>
        <time>2013-11-09T14:20:34.97</time>
      </trkpt>
      <trkpt lat="38.46229" lon="-1.1424783333333333">
        <ele>1621.9999999999993</ele>
        <time>2013-11-09T14:20:36.69</time>
      </trkpt>
      <trkpt lat="38.46235166666666" lon="-1.14243">
        <ele>1620.3999999999994</ele>
        <time>2013-11-09T14:20:36.93</time>
      </trkpt>
      <trkpt lat="38.462406666666666" lon="-1.1423883333333333">
        <ele>1618.5999999999995</ele>
        <time>2013-11-09T14:20:37.98</time>
      </trkpt>
      <trkpt lat="38.462455" lon="-1.1423533333333333">
        <ele>1616.0999999999995</ele>
        <time>2013-11-09T14:20:38.93</time>
      </trkpt>
      <trkpt lat="38.462518333333335" lon="-1.1423033333333334">
        <ele>1613.4999999999995</ele>
        <time>2013-11-09T14:20:39.98</time>
      </trkpt>
      <trkpt lat="38.46259666666667" lon="-1.142235">
        <ele>1611.3999999999996</ele>
        <time>2013-11-09T14:20:40.97</time>
      </trkpt>
      <trkpt lat="38.462666666666664" lon="-1.1421700000000001">
        <ele>1609.5999999999997</ele>
        <time>2013-11-09T14:20:41.97</time>
      </trkpt>
      <trkpt lat="38.46273" lon="-1.14211">
        <ele>1607.9999999999998</ele>
        <time>2013-11-09T14:20:42.95</time>
      </trkpt>
      <trkpt lat="38.462788333333336" lon="-1.14205">
        <ele>1606.5999999999997</ele>
        <time>2013-11-09T14:20:43.97</time>
      </trkpt>
      <trkpt lat="38.46284833333333" lon="-1.14199">
        <ele>1604.7999999999997</ele>
        <time>2013-11-09T14:20:44.97</time>
      </trkpt>
      <trkpt lat="38.462895" lon="-1.1419366666666666">
        <ele>1602.4999999999998</ele>
        <time>2013-11-09T14:20:46.59</time>
      </trkpt>
      <trkpt lat="38.462963333333335" lon="-1.1418666666666666">
        <ele>1599.7999999999997</ele>
        <time>2013-11-09T14:20:47.79</time>
      </trkpt>
      <trkpt lat="38.463026666666664" lon="-1.141805">
        <ele>1596.7999999999997</ele>
        <time>2013-11-09T14:20:47.97</time>
      </trkpt>
      <trkpt lat="38.463091666666664" lon="-1.1417383333333333">
        <ele>1593.6999999999998</ele>
        <time>2013-11-09T14:20:48.93</time>
      </trkpt>
      <trkpt lat="38.463165" lon="-1.14166">
        <ele>1590.8999999999999</ele>
        <time>2013-11-09T14:20:49.98</time>
      </trkpt>
      <trkpt lat="38.46323833333334" lon="-1.1415766666666667">
        <ele>1588.6</ele>
        <time>2013-11-09T14:20:50.98</time>
      </trkpt>
      <trkpt lat="38.46329" lon="-1.141505">
        <ele>1586.3999999999999</ele>
        <time>2013-11-09T14:20:52.69</time>
      </trkpt>
      <trkpt lat="38.463348333333336" lon="-1.1414316666666666">
        <ele>1584.1</ele>
        <time>2013-11-09T14:20:52.98</time>
      </trkpt>
      <trkpt lat="38.46340166666667" lon="-1.1413583333333333">
        <ele>1581.6999999999998</ele>
        <time>2013-11-09T14:20:53.98</time>
      </trkpt>
      <trkpt lat="38.46346833333333" lon="-1.1412783333333334">
        <ele>1579.1999999999998</ele>
        <time>2013-11-09T14:20:54.98</time>
      </trkpt>
      <trkpt lat="38.46353833333333" lon="-1.1411983333333333">
        <ele>1577.1999999999998</ele>
        <time>2013-11-09T14:20:55.98</time>
      </trkpt>
      <trkpt lat="38.463615" lon="-1.1411083333333334">
        <ele>1575.4999999999998</ele>
        <time>2013-11-09T14:20:57.9</time>
      </trkpt>
      <trkpt lat="38.463695" lon="-1.141015">
        <ele>1574.2999999999997</ele>
        <time>2013-11-09T14:20:57.94</time>
      </trkpt>
      <trkpt lat="38.46376" lon="-1.1409316666666667">
        <ele>1573.5999999999997</ele>
        <time>2013-11-09T14:20:58.98</time>
      </trkpt>
      <trkpt lat="38.463813333333334" lon="-1.1408616666666667">
        <ele>1572.9999999999998</ele>
        <time>2013-11-09T14:20:59.98</time>
      </trkpt>
      <trkpt lat="38.463861666666666" lon="-1.140795">
        <ele>1572.1999999999998</ele>
        <time>2013-11-09T14:21:00.98</time>
      </trkpt>
      <trkpt lat="38.46391666666667" lon="-1.1407216666666666">
        <ele>1571.1</ele>
        <time>2013-11-09T14:21:02.19</time>
      </trkpt>
      <trkpt lat="38.46398" lon="-1.1406416666666668">
        <ele>1569.5</ele>
        <time>2013-11-09T14:21:02.99</time>
      </trkpt>
      <trkpt lat="38.46404166666667" lon="-1.1405716666666668">
        <ele>1567.8</ele>
        <time>2013-11-09T14:21:04.19</time>
      </trkpt>
      <trkpt lat="38.464105" lon="-1.14051">
        <ele>1566.2</ele>
        <time>2013-11-09T14:21:04.94</time>
      </trkpt>
      <trkpt lat="38.464165" lon="-1.14045">
        <ele>1565</ele>
        <time>2013-11-09T14:21:05.98</time>
      </trkpt>
      <trkpt lat="38.46422" lon="-1.140395">
        <ele>1563.8</ele>
        <time>2013-11-09T14:21:06.98</time>
      </trkpt>
      <trkpt lat="38.46426833333334" lon="-1.140345">
        <ele>1562.1</ele>
        <time>2013-11-09T14:21:07.93</time>
      </trkpt>
      <trkpt lat="38.46432" lon="-1.140295">
        <ele>1560</ele>
        <time>2013-11-09T14:21:08.94</time>
      </trkpt>
      <trkpt lat="38.46438" lon="-1.140245">
        <ele>1557.9</ele>
        <time>2013-11-09T14:21:09.94</time>
      </trkpt>
      <trkpt lat="38.46445666666666" lon="-1.140195">
        <ele>1555.7</ele>
        <time>2013-11-09T14:21:10.93</time>
      </trkpt>
      <trkpt lat="38.46452333333333" lon="-1.1401516666666667">
        <ele>1553.9</ele>
        <time>2013-11-09T14:21:12.10</time>
      </trkpt>
      <trkpt lat="38.464591666666664" lon="-1.1401083333333333">
        <ele>1552.2</ele>
        <time>2013-11-09T14:21:12.94</time>
      </trkpt>
      <trkpt lat="38.46465833333333" lon="-1.14006">
        <ele>1550.1000000000001</ele>
        <time>2013-11-09T14:21:13.94</time>
      </trkpt>
      <trkpt lat="38.46471" lon="-1.1400266666666667">
        <ele>1547.9</ele>
        <time>2013-11-09T14:21:14.98</time>
      </trkpt>
      <trkpt lat="38.46477333333333" lon="-1.1399766666666666">
        <ele>1545.4</ele>
        <time>2013-11-09T14:21:15.98</time>
      </trkpt>
      <trkpt lat="38.464843333333334" lon="-1.1399233333333334">
        <ele>1542.8000000000002</ele>
        <time>2013-11-09T14:21:16.94</time>
      </trkpt>
      <trkpt lat="38.46492" lon="-1.1398616666666666">
        <ele>1540.5000000000002</ele>
        <time>2013-11-09T14:21:17.98</time>
      </trkpt>
      <trkpt lat="38.465" lon="-1.13979">
        <ele>1538.8000000000002</ele>
        <time>2013-11-09T14:21:19.69</time>
      </trkpt>
      <trkpt lat="38.46507166666667" lon="-1.1397166666666667">
        <ele>1537.5000000000002</ele>
        <time>2013-11-09T14:21:19.94</time>
      </trkpt>
      <trkpt lat="38.465135" lon="-1.13965">
        <ele>1536.6000000000001</ele>
        <time>2013-11-09T14:21:20.98</time>
      </trkpt>
      <trkpt lat="38.465181666666666" lon="-1.1395933333333335">
        <ele>1535.5000000000002</ele>
        <time>2013-11-09T14:21:21.98</time>
      </trkpt>
      <trkpt lat="38.46523333333333" lon="-1.139525">
        <ele>1534.4000000000003</ele>
        <time>2013-11-09T14:21:22.99</time>
      </trkpt>
      <trkpt lat="38.46528833333333" lon="-1.1394483333333334">
        <ele>1533.4000000000003</ele>
        <time>2013-11-09T14:21:23.98</time>
      </trkpt>
      <trkpt lat="38.46534" lon="-1.13937">
        <ele>1532.6000000000004</ele>
        <time>2013-11-09T14:21:24.98</time>
      </trkpt>
      <trkpt lat="38.4654" lon="-1.1392766666666667">
        <ele>1531.7000000000003</ele>
        <time>2013-11-09T14:21:25.98</time>
      </trkpt>
      <trkpt lat="38.465466666666664" lon="-1.139195">
        <ele>1530.6000000000004</ele>
        <time>2013-11-09T14:21:26.99</time>
      </trkpt>
      <trkpt lat="38.46553333333333" lon="-1.1391233333333333">
        <ele>1529.6000000000004</ele>
        <time>2013-11-09T14:21:27.98</time>
      </trkpt>
      <trkpt lat="38.46559833333333" lon="-1.1390583333333333">
        <ele>1528.8000000000004</ele>
        <time>2013-11-09T14:21:28.98</time>
      </trkpt>
      <trkpt lat="38.46566" lon="-1.139">
        <ele>1527.7000000000005</ele>
        <time>2013-11-09T14:21:29.98</time>
      </trkpt>
      <trkpt lat="38.465716666666665" lon="-1.13895">
        <ele>1526.9000000000005</ele>
        <time>2013-11-09T14:21:30.98</time>
      </trkpt>
      <trkpt lat="38.465763333333335" lon="-1.1389133333333334">
        <ele>1526.2000000000005</ele>
        <time>2013-11-09T14:21:31.98</time>
      </trkpt>
      <trkpt lat="38.46579833333333" lon="-1.1388966666666667">
        <ele>1524.9000000000005</ele>
        <time>2013-11-09T14:21:32.98</time>
      </trkpt>
      <trkpt lat="38.46585" lon="-1.1388716666666667">
        <ele>1523.2000000000005</ele>
        <time>2013-11-09T14:21:33.98</time>
      </trkpt>
      <trkpt lat="38.465915" lon="-1.13884">
        <ele>1521.3000000000004</ele>
        <time>2013-11-09T14:21:34.98</time>
      </trkpt>
      <trkpt lat="38.465995" lon="-1.1387966666666667">
        <ele>1519.8000000000004</ele>
        <time>2013-11-09T14:21:35.98</time>
      </trkpt>
      <trkpt lat="38.46606833333333" lon="-1.13875">
        <ele>1518.7000000000005</ele>
        <time>2013-11-09T14:21:37.9</time>
      </trkpt>
      <trkpt lat="38.466136666666664" lon="-1.1387016666666667">
        <ele>1517.8000000000004</ele>
        <time>2013-11-09T14:21:37.98</time>
      </trkpt>
      <trkpt lat="38.46620166666667" lon="-1.1386533333333333">
        <ele>1517.0000000000005</ele>
        <time>2013-11-09T14:21:39.89</time>
      </trkpt>
      <trkpt lat="38.46626666666667" lon="-1.138605">
        <ele>1515.9000000000005</ele>
        <time>2013-11-09T14:21:39.98</time>
      </trkpt>
      <trkpt lat="38.466335" lon="-1.1385516666666666">
        <ele>1514.7000000000005</ele>
        <time>2013-11-09T14:21:40.99</time>
      </trkpt>
      <trkpt lat="38.466405" lon="-1.1384966666666667">
        <ele>1513.3000000000004</ele>
        <time>2013-11-09T14:21:41.98</time>
      </trkpt>
      <trkpt lat="38.46646166666667" lon="-1.1384566666666667">
        <ele>1512.5000000000005</ele>
        <time>2013-11-09T14:21:42.98</time>
      </trkpt>
      <trkpt lat="38.466521666666665" lon="-1.1384166666666666">
        <ele>1511.8000000000004</ele>
        <time>2013-11-09T14:21:43.99</time>
      </trkpt>
      <trkpt lat="38.46659" lon="-1.1383683333333332">
        <ele>1510.9000000000003</ele>
        <time>2013-11-09T14:21:44.98</time>
      </trkpt>
      <trkpt lat="38.466651666666664" lon="-1.138325">
        <ele>1510.4000000000003</ele>
        <time>2013-11-09T14:21:45.99</time>
      </trkpt>
      <trkpt lat="38.46671833333333" lon="-1.1382733333333332">
        <ele>1509.9000000000003</ele>
        <time>2013-11-09T14:21:46.98</time>
      </trkpt>
      <trkpt lat="38.466786666666664" lon="-1.138215">
        <ele>1509.5000000000002</ele>
        <time>2013-11-09T14:21:47.98</time>
      </trkpt>
      <trkpt lat="38.46685166666666" lon="-1.13816">
        <ele>1509.2000000000003</ele>
        <time>2013-11-09T14:21:48.99</time>
      </trkpt>
      <trkpt lat="38.466905" lon="-1.1381183333333333">
        <ele>1508.8000000000002</ele>
        <time>2013-11-09T14:21:49.99</time>
      </trkpt>
      <trkpt lat="38.46695833333333" lon="-1.1380933333333334">
        <ele>1508.4</ele>
        <time>2013-11-09T14:21:50.99</time>
      </trkpt>
      <trkpt lat="38.46702" lon="-1.1380616666666667">
        <ele>1507.9</ele>
        <time>2013-11-09T14:21:51.98</time>
      </trkpt>
      <trkpt lat="38.46707" lon="-1.1380316666666666">
        <ele>1507.1000000000001</ele>
        <time>2013-11-09T14:21:52.94</time>
      </trkpt>
      <trkpt lat="38.46714" lon="-1.1379816666666667">
        <ele>1506.3000000000002</ele>
        <time>2013-11-09T14:21:53.93</time>
      </trkpt>
      <trkpt lat="38.46721333333333" lon="-1.137925">
        <ele>1505.7000000000003</ele>
        <time>2013-11-09T14:21:54.99</time>
      </trkpt>
      <trkpt lat="38.46727833333333" lon="-1.1378733333333333">
        <ele>1505.2000000000003</ele>
        <time>2013-11-09T14:21:55.98</time>
      </trkpt>
      <trkpt lat="38.46733" lon="-1.1378283333333332">
        <ele>1504.7000000000003</ele>
        <time>2013-11-09T14:21:56.98</time>
      </trkpt>
      <trkpt lat="38.46738166666667" lon="-1.137785">
        <ele>1504.3000000000002</ele>
        <time>2013-11-09T14:21:57.98</time>
      </trkpt>
      <trkpt lat="38.467435" lon="-1.1377333333333333">
        <ele>1503.9</ele>
        <time>2013-11-09T14:21:58.94</time>
      </trkpt>
      <trkpt lat="38.467488333333336" lon="-1.13768">
        <ele>1503.4</ele>
        <time>2013-11-09T14:21:59.99</time>
      </trkpt>
      <trkpt lat="38.46754166666667" lon="-1.1376249999999999">
        <ele>1502.7</ele>
        <time>2013-11-09T14:22:00.99</time>
      </trkpt>
      <trkpt lat="38.467595" lon="-1.13757">
        <ele>1502</ele>
        <time>2013-11-09T14:22:01.99</time>
      </trkpt>
      <trkpt lat="38.467643333333335" lon="-1.1375216666666668">
        <ele>1501.1</ele>
        <time>2013-11-09T14:22:02.98</time>
      </trkpt>
      <trkpt lat="38.46769666666667" lon="-1.1374733333333333">
        <ele>1500</ele>
        <time>2013-11-09T14:22:04.99</time>
      </trkpt>
      <trkpt lat="38.46774833333333" lon="-1.1374333333333333">
        <ele>1499.1</ele>
        <time>2013-11-09T14:22:05.19</time>
      </trkpt>
      <trkpt lat="38.467796666666665" lon="-1.1373983333333333">
        <ele>1498.3</ele>
        <time>2013-11-09T14:22:05.98</time>
      </trkpt>
      <trkpt lat="38.46786" lon="-1.1373533333333334">
        <ele>1497.7</ele>
        <time>2013-11-09T14:22:06.98</time>
      </trkpt>
      <trkpt lat="38.46792666666666" lon="-1.1373033333333333">
        <ele>1497.1000000000001</ele>
        <time>2013-11-09T14:22:07.98</time>
      </trkpt>
      <trkpt lat="38.46799" lon="-1.1372566666666666">
        <ele>1496.5000000000002</ele>
        <time>2013-11-09T14:22:08.98</time>
      </trkpt>
      <trkpt lat="38.46805333333333" lon="-1.1372083333333334">
        <ele>1495.6000000000001</ele>
        <time>2013-11-09T14:22:09.99</time>
      </trkpt>
      <trkpt lat="38.46811" lon="-1.137165">
        <ele>1494.8000000000002</ele>
        <time>2013-11-09T14:22:10.99</time>
      </trkpt>
      <trkpt lat="38.468165" lon="-1.13712">
        <ele>1493.8000000000002</ele>
        <time>2013-11-09T14:22:12.10</time>
      </trkpt>
      <trkpt lat="38.468221666666665" lon="-1.1370666666666667">
        <ele>1492.8000000000002</ele>
        <time>2013-11-09T14:22:12.94</time>
      </trkpt>
      <trkpt lat="38.46828333333333" lon="-1.1370149999999999">
        <ele>1491.7000000000003</ele>
        <time>2013-11-09T14:22:13.98</time>
      </trkpt>
      <trkpt lat="38.46834333333334" lon="-1.1369666666666667">
        <ele>1490.6000000000004</ele>
        <time>2013-11-09T14:22:14.98</time>
      </trkpt>
      <trkpt lat="38.468403333333335" lon="-1.1369183333333333">
        <ele>1489.3000000000004</ele>
        <time>2013-11-09T14:22:15.94</time>
      </trkpt>
      <trkpt lat="38.468466666666664" lon="-1.1368666666666667">
        <ele>1488.3000000000004</ele>
        <time>2013-11-09T14:22:16.98</time>
      </trkpt>
      <trkpt lat="38.468525" lon="-1.1368166666666666">
        <ele>1487.1000000000004</ele>
        <time>2013-11-09T14:22:17.98</time>
      </trkpt>
      <trkpt lat="38.46857833333333" lon="-1.1367716666666667">
        <ele>1485.8000000000004</ele>
        <time>2013-11-09T14:22:19.99</time>
      </trkpt>
      <trkpt lat="38.46863" lon="-1.1367283333333333">
        <ele>1484.4000000000003</ele>
        <time>2013-11-09T14:22:19.94</time>
      </trkpt>
      <trkpt lat="38.46868666666667" lon="-1.136685">
        <ele>1483.0000000000002</ele>
        <time>2013-11-09T14:22:20.98</time>
      </trkpt>
      <trkpt lat="38.46875" lon="-1.1366333333333334">
        <ele>1481.5000000000002</ele>
        <time>2013-11-09T14:22:21.98</time>
      </trkpt>
      <trkpt lat="38.46881666666667" lon="-1.1365783333333332">
        <ele>1479.9000000000003</ele>
        <time>2013-11-09T14:22:22.98</time>
      </trkpt>
      <trkpt lat="38.46888" lon="-1.1365266666666667">
        <ele>1478.1000000000004</ele>
        <time>2013-11-09T14:22:23.94</time>
      </trkpt>
      <trkpt lat="38.468936666666664" lon="-1.1364766666666666">
        <ele>1476.0000000000005</ele>
        <time>2013-11-09T14:22:24.98</time>
      </trkpt>
      <trkpt lat="38.46899333333333" lon="-1.13643">
        <ele>1473.7000000000005</ele>
        <time>2013-11-09T14:22:25.95</time>
      </trkpt>
      <trkpt lat="38.469053333333335" lon="-1.1363833333333333">
        <ele>1471.4000000000005</ele>
        <time>2013-11-09T14:22:26.94</time>
      </trkpt>
      <trkpt lat="38.469115" lon="-1.1363366666666668">
        <ele>1469.2000000000005</ele>
        <time>2013-11-09T14:22:27.98</time>
      </trkpt>
      <trkpt lat="38.469185" lon="-1.1362883333333333">
        <ele>1467.1000000000006</ele>
        <time>2013-11-09T14:22:28.99</time>
      </trkpt>
      <trkpt lat="38.469255" lon="-1.1362416666666666">
        <ele>1465.1000000000006</ele>
        <time>2013-11-09T14:22:29.99</time>
      </trkpt>
      <trkpt lat="38.469325" lon="-1.136195">
        <ele>1463.0000000000007</ele>
        <time>2013-11-09T14:22:30.98</time>
      </trkpt>
      <trkpt lat="38.469393333333336" lon="-1.1361466666666666">
        <ele>1461.4000000000008</ele>
        <time>2013-11-09T14:22:31.98</time>
      </trkpt>
      <trkpt lat="38.469453333333334" lon="-1.1361016666666668">
        <ele>1460.1000000000008</ele>
        <time>2013-11-09T14:22:32.98</time>
      </trkpt>
      <trkpt lat="38.46951333333333" lon="-1.1360633333333334">
        <ele>1458.8000000000009</ele>
        <time>2013-11-09T14:22:33.98</time>
      </trkpt>
      <trkpt lat="38.46956333333333" lon="-1.1360383333333333">
        <ele>1457.6000000000008</ele>
        <time>2013-11-09T14:22:34.99</time>
      </trkpt>
      <trkpt lat="38.469631666666665" lon="-1.1360033333333333">
        <ele>1456.4000000000008</ele>
        <time>2013-11-09T14:22:35.98</time>
      </trkpt>
      <trkpt lat="38.46968833333333" lon="-1.1359816666666667">
        <ele>1455.6000000000008</ele>
        <time>2013-11-09T14:22:36.98</time>
      </trkpt>
      <trkpt lat="38.46975833333333" lon="-1.135955">
        <ele>1454.9000000000008</ele>
        <time>2013-11-09T14:22:37.94</time>
      </trkpt>
      <trkpt lat="38.469815" lon="-1.1359433333333333">
        <ele>1454.9000000000008</ele>
        <time>2013-11-09T14:22:38.99</time>
      </trkpt>
      <trkpt lat="38.46986833333333" lon="-1.1359233333333334">
        <ele>1455.0000000000007</ele>
        <time>2013-11-09T14:22:39.99</time>
      </trkpt>
      <trkpt lat="38.469921666666664" lon="-1.1358916666666667">
        <ele>1454.9000000000008</ele>
        <time>2013-11-09T14:22:40.98</time>
      </trkpt>
      <trkpt lat="38.46997833333333" lon="-1.1358516666666667">
        <ele>1454.6000000000008</ele>
        <time>2013-11-09T14:22:42.99</time>
      </trkpt>
      <trkpt lat="38.47004" lon="-1.135805">
        <ele>1453.9000000000008</ele>
        <time>2013-11-09T14:22:42.99</time>
      </trkpt>
      <trkpt lat="38.470103333333334" lon="-1.1357516666666667">
        <ele>1453.0000000000007</ele>
        <time>2013-11-09T14:22:43.99</time>
      </trkpt>
      <trkpt lat="38.470165" lon="-1.1356983333333333">
        <ele>1451.9000000000008</ele>
        <time>2013-11-09T14:22:44.94</time>
      </trkpt>
      <trkpt lat="38.470225" lon="-1.1356483333333334">
        <ele>1450.8000000000009</ele>
        <time>2013-11-09T14:22:45.98</time>
      </trkpt>
      <trkpt lat="38.470283333333334" lon="-1.1355983333333333">
        <ele>1449.8000000000009</ele>
        <time>2013-11-09T14:22:46.98</time>
      </trkpt>
      <trkpt lat="38.47034333333333" lon="-1.135545">
        <ele>1448.8000000000009</ele>
        <time>2013-11-09T14:22:47.99</time>
      </trkpt>
      <trkpt lat="38.47040333333333" lon="-1.1354899999999999">
        <ele>1447.6000000000008</ele>
        <time>2013-11-09T14:22:48.98</time>
      </trkpt>
      <trkpt lat="38.470456666666664" lon="-1.1354366666666666">
        <ele>1446.2000000000007</ele>
        <time>2013-11-09T14:22:49.98</time>
      </trkpt>
      <trkpt lat="38.47051166666667" lon="-1.1353866666666668">
        <ele>1444.9000000000008</ele>
        <time>2013-11-09T14:22:50.99</time>
      </trkpt>
      <trkpt lat="38.470575" lon="-1.1353366666666667">
        <ele>1443.5000000000007</ele>
        <time>2013-11-09T14:22:51.98</time>
      </trkpt>
      <trkpt lat="38.47064" lon="-1.1352833333333334">
        <ele>1442.4000000000008</ele>
        <time>2013-11-09T14:22:52.98</time>
      </trkpt>
      <trkpt lat="38.47071" lon="-1.1352233333333333">
        <ele>1441.3000000000009</ele>
        <time>2013-11-09T14:22:53.95</time>
      </trkpt>
      <trkpt lat="38.47077" lon="-1.1351733333333334">
        <ele>1440.200000000001</ele>
        <time>2013-11-09T14:22:54.98</time>
      </trkpt>
      <trkpt lat="38.47083" lon="-1.1351233333333333">
        <ele>1439.100000000001</ele>
        <time>2013-11-09T14:22:55.94</time>
      </trkpt>
      <trkpt lat="38.4709" lon="-1.1350633333333333">
        <ele>1437.900000000001</ele>
        <time>2013-11-09T14:22:57.10</time>
      </trkpt>
      <trkpt lat="38.470971666666664" lon="-1.1350016666666667">
        <ele>1436.400000000001</ele>
        <time>2013-11-09T14:22:57.99</time>
      </trkpt>
      <trkpt lat="38.471043333333334" lon="-1.1349416666666667">
        <ele>1434.900000000001</ele>
        <time>2013-11-09T14:22:58.94</time>
      </trkpt>
      <trkpt lat="38.471111666666665" lon="-1.1348833333333332">
        <ele>1433.500000000001</ele>
        <time>2013-11-09T14:22:59.98</time>
      </trkpt>
      <trkpt lat="38.471158333333335" lon="-1.13485">
        <ele>1432.6000000000008</ele>
        <time>2013-11-09T14:23:00.95</time>
      </trkpt>
      <trkpt lat="38.47121" lon="-1.1348099999999999">
        <ele>1432.000000000001</ele>
        <time>2013-11-09T14:23:02.69</time>
      </trkpt>
      <trkpt lat="38.47126333333333" lon="-1.13477">
        <ele>1431.200000000001</ele>
        <time>2013-11-09T14:23:02.99</time>
      </trkpt>
      <trkpt lat="38.47132" lon="-1.1347266666666667">
        <ele>1430.400000000001</ele>
        <time>2013-11-09T14:23:03.98</time>
      </trkpt>
      <trkpt lat="38.471376666666664" lon="-1.13468">
        <ele>1429.700000000001</ele>
        <time>2013-11-09T14:23:04.99</time>
      </trkpt>
      <trkpt lat="38.47143333333333" lon="-1.13463">
        <ele>1428.900000000001</ele>
        <time>2013-11-09T14:23:05.98</time>
      </trkpt>
      <trkpt lat="38.471486666666664" lon="-1.1345833333333333">
        <ele>1428.000000000001</ele>
        <time>2013-11-09T14:23:06.98</time>
      </trkpt>
      <trkpt lat="38.47154333333334" lon="-1.13453">
        <ele>1426.900000000001</ele>
        <time>2013-11-09T14:23:07.94</time>
      </trkpt>
      <trkpt lat="38.471603333333334" lon="-1.1344750000000001">
        <ele>1425.700000000001</ele>
        <time>2013-11-09T14:23:08.95</time>
      </trkpt>
      <trkpt lat="38.471665" lon="-1.1344233333333333">
        <ele>1424.600000000001</ele>
        <time>2013-11-09T14:23:09.98</time>
      </trkpt>
      <trkpt lat="38.471718333333335" lon="-1.1343766666666666">
        <ele>1423.600000000001</ele>
        <time>2013-11-09T14:23:10.98</time>
      </trkpt>
      <trkpt lat="38.471775" lon="-1.1343316666666667">
        <ele>1422.600000000001</ele>
        <time>2013-11-09T14:23:12.39</time>
      </trkpt>
      <trkpt lat="38.47183666666667" lon="-1.1342833333333333">
        <ele>1421.200000000001</ele>
        <time>2013-11-09T14:23:12.95</time>
      </trkpt>
      <trkpt lat="38.47188833333333" lon="-1.13424">
        <ele>1420.100000000001</ele>
        <time>2013-11-09T14:23:14.79</time>
      </trkpt>
      <trkpt lat="38.47194833333333" lon="-1.1341883333333334">
        <ele>1418.700000000001</ele>
        <time>2013-11-09T14:23:14.98</time>
      </trkpt>
      <trkpt lat="38.47200333333333" lon="-1.13414">
        <ele>1417.100000000001</ele>
        <time>2013-11-09T14:23:15.98</time>
      </trkpt>
      <trkpt lat="38.47206" lon="-1.1340933333333334">
        <ele>1415.400000000001</ele>
        <time>2013-11-09T14:23:16.98</time>
      </trkpt>
      <trkpt lat="38.47211" lon="-1.1340566666666667">
        <ele>1413.600000000001</ele>
        <time>2013-11-09T14:23:17.99</time>
      </trkpt>
      <trkpt lat="38.472165" lon="-1.1340116666666666">
        <ele>1411.700000000001</ele>
        <time>2013-11-09T14:23:18.99</time>
      </trkpt>
      <trkpt lat="38.47222166666667" lon="-1.1339616666666665">
        <ele>1409.600000000001</ele>
        <time>2013-11-09T14:23:19.98</time>
      </trkpt>
      <trkpt lat="38.47226333333333" lon="-1.1339283333333334">
        <ele>1407.900000000001</ele>
        <time>2013-11-09T14:23:20.99</time>
      </trkpt>
      <trkpt lat="38.472321666666666" lon="-1.1338766666666666">
        <ele>1405.800000000001</ele>
        <time>2013-11-09T14:23:21.98</time>
      </trkpt>
      <trkpt lat="38.472375" lon="-1.1338333333333332">
        <ele>1403.800000000001</ele>
        <time>2013-11-09T14:23:22.99</time>
      </trkpt>
      <trkpt lat="38.47243666666667" lon="-1.133785">
        <ele>1401.900000000001</ele>
        <time>2013-11-09T14:23:23.99</time>
      </trkpt>
      <trkpt lat="38.472505" lon="-1.1337383333333333">
        <ele>1400.100000000001</ele>
        <time>2013-11-09T14:23:24.98</time>
      </trkpt>
      <trkpt lat="38.47257" lon="-1.1336933333333334">
        <ele>1398.300000000001</ele>
        <time>2013-11-09T14:23:25.98</time>
      </trkpt>
      <trkpt lat="38.472635" lon="-1.1336483333333334">
        <ele>1396.400000000001</ele>
        <time>2013-11-09T14:23:27.69</time>
      </trkpt>
      <trkpt lat="38.47269" lon="-1.1336133333333334">
        <ele>1394.400000000001</ele>
        <time>2013-11-09T14:23:27.99</time>
      </trkpt>
      <trkpt lat="38.47273666666667" lon="-1.1335883333333334">
        <ele>1392.400000000001</ele>
        <time>2013-11-09T14:23:28.98</time>
      </trkpt>
      <trkpt lat="38.472785" lon="-1.1335583333333332">
        <ele>1390.400000000001</ele>
        <time>2013-11-09T14:23:29.99</time>
      </trkpt>
      <trkpt lat="38.47284166666667" lon="-1.1335216666666668">
        <ele>1388.300000000001</ele>
        <time>2013-11-09T14:23:30.98</time>
      </trkpt>
      <trkpt lat="38.472901666666665" lon="-1.1334783333333334">
        <ele>1386.100000000001</ele>
        <time>2013-11-09T14:23:31.99</time>
      </trkpt>
      <trkpt lat="38.47294333333333" lon="-1.1334433333333334">
        <ele>1384.100000000001</ele>
        <time>2013-11-09T14:23:32.98</time>
      </trkpt>
      <trkpt lat="38.472991666666665" lon="-1.1334083333333334">
        <ele>1382.0000000000011</ele>
        <time>2013-11-09T14:23:33.99</time>
      </trkpt>
      <trkpt lat="38.473038333333335" lon="-1.1333733333333333">
        <ele>1380.0000000000011</ele>
        <time>2013-11-09T14:23:34.99</time>
      </trkpt>
      <trkpt lat="38.47309" lon="-1.133335">
        <ele>1378.0000000000011</ele>
        <time>2013-11-09T14:23:35.98</time>
      </trkpt>
      <trkpt lat="38.473148333333334" lon="-1.1332866666666668">
        <ele>1376.0000000000011</ele>
        <time>2013-11-09T14:23:36.98</time>
      </trkpt>
      <trkpt lat="38.473211666666664" lon="-1.133235">
        <ele>1374.0000000000011</ele>
        <time>2013-11-09T14:23:37.99</time>
      </trkpt>
      <trkpt lat="38.473275" lon="-1.1331833333333332">
        <ele>1372.4000000000012</ele>
        <time>2013-11-09T14:23:38.99</time>
      </trkpt>
      <trkpt lat="38.47333666666667" lon="-1.1331283333333333">
        <ele>1371.2000000000012</ele>
        <time>2013-11-09T14:23:39.99</time>
      </trkpt>
      <trkpt lat="38.47339" lon="-1.1330733333333334">
        <ele>1370.2000000000012</ele>
        <time>2013-11-09T14:23:40.99</time>
      </trkpt>
      <trkpt lat="38.473435" lon="-1.1330183333333332">
        <ele>1369.2000000000012</ele>
        <time>2013-11-09T14:23:41.99</time>
      </trkpt>
      <trkpt lat="38.47346833333334" lon="-1.13297">
        <ele>1368.5000000000011</ele>
        <time>2013-11-09T14:23:42.99</time>
      </trkpt>
      <trkpt lat="38.47351166666667" lon="-1.1329116666666668">
        <ele>1367.7000000000012</ele>
        <time>2013-11-09T14:23:43.98</time>
      </trkpt>
      <trkpt lat="38.47356666666667" lon="-1.1328383333333334">
        <ele>1367.0000000000011</ele>
        <time>2013-11-09T14:23:44.99</time>
      </trkpt>
      <trkpt lat="38.473635" lon="-1.1327583333333333">
        <ele>1366.300000000001</ele>
        <time>2013-11-09T14:23:45.98</time>
      </trkpt>
      <trkpt lat="38.47369166666667" lon="-1.132685">
        <ele>1365.5000000000011</ele>
        <time>2013-11-09T14:23:46.95</time>
      </trkpt>
      <trkpt lat="38.473735" lon="-1.1326216666666666">
        <ele>1365.2000000000012</ele>
        <time>2013-11-09T14:23:47.99</time>
      </trkpt>
      <trkpt lat="38.47377" lon="-1.1325516666666666">
        <ele>1365.300000000001</ele>
        <time>2013-11-09T14:23:48.98</time>
      </trkpt>
      <trkpt lat="38.473805" lon="-1.1324883333333333">
        <ele>1365.5000000000011</ele>
        <time>2013-11-09T14:23:49.99</time>
      </trkpt>
      <trkpt lat="38.473818333333334" lon="-1.13244">
        <ele>1365.9000000000012</ele>
        <time>2013-11-09T14:23:50.94</time>
      </trkpt>
      <trkpt lat="38.47385333333333" lon="-1.1323716666666668">
        <ele>1366.0000000000011</ele>
        <time>2013-11-09T14:23:51.99</time>
      </trkpt>
      <trkpt lat="38.47389166666667" lon="-1.1323">
        <ele>1366.2000000000012</ele>
        <time>2013-11-09T14:23:52.99</time>
      </trkpt>
      <trkpt lat="38.47392833333333" lon="-1.1322383333333335">
        <ele>1366.6000000000013</ele>
        <time>2013-11-09T14:23:53.98</time>
      </trkpt>
      <trkpt lat="38.473951666666665" lon="-1.1321983333333334">
        <ele>1367.2000000000012</ele>
        <time>2013-11-09T14:23:54.98</time>
      </trkpt>
      <trkpt lat="38.47396833333333" lon="-1.1321716666666666">
        <ele>1367.300000000001</ele>
        <time>2013-11-09T14:23:56.9</time>
      </trkpt>
      <trkpt lat="38.47398666666667" lon="-1.13216">
        <ele>1367.400000000001</ele>
        <time>2013-11-09T14:23:56.99</time>
      </trkpt>
      <trkpt lat="38.47400833333333" lon="-1.1321633333333334">
        <ele>1367.500000000001</ele>
        <time>2013-11-09T14:23:57.98</time>
      </trkpt>
      <trkpt lat="38.47403166666667" lon="-1.1321766666666666">
        <ele>1367.700000000001</ele>
        <time>2013-11-09T14:23:58.95</time>
      </trkpt>
      <trkpt lat="38.47405833333333" lon="-1.1321983333333334">
        <ele>1367.900000000001</ele>
        <time>2013-11-09T14:23:59.98</time>
      </trkpt>
      <trkpt lat="38.47409" lon="-1.1322183333333333">
        <ele>1368.200000000001</ele>
        <time>2013-11-09T14:24:00.99</time>
      </trkpt>
      <trkpt lat="38.47412166666667" lon="-1.1322183333333333">
        <ele>1370.600000000001</ele>
        <time>2013-11-09T14:24:01.98</time>
      </trkpt>
      <trkpt lat="38.474158333333335" lon="-1.1321983333333334">
        <ele>1372.700000000001</ele>
        <time>2013-11-09T14:24:02.94</time>
      </trkpt>
      <trkpt lat="38.474203333333335" lon="-1.1321633333333334">
        <ele>1374.600000000001</ele>
        <time>2013-11-09T14:24:03.98</time>
      </trkpt>
      <trkpt lat="38.47425166666667" lon="-1.1321183333333333">
        <ele>1376.200000000001</ele>
        <time>2013-11-09T14:24:04.94</time>
      </trkpt>
      <trkpt lat="38.47430666666666" lon="-1.13206">
        <ele>1377.400000000001</ele>
        <time>2013-11-09T14:24:05.99</time>
      </trkpt>
      <trkpt lat="38.474363333333336" lon="-1.1320000000000001">
        <ele>1378.400000000001</ele>
        <time>2013-11-09T14:24:06.98</time>
      </trkpt>
      <trkpt lat="38.474423333333334" lon="-1.131935">
        <ele>1379.400000000001</ele>
        <time>2013-11-09T14:24:07.99</time>
      </trkpt>
      <trkpt lat="38.47448166666667" lon="-1.1318616666666665">
        <ele>1380.500000000001</ele>
        <time>2013-11-09T14:24:08.98</time>
      </trkpt>
      <trkpt lat="38.47452833333333" lon="-1.1317616666666668">
        <ele>1381.500000000001</ele>
        <time>2013-11-09T14:24:09.98</time>
      </trkpt>
      <trkpt lat="38.474556666666665" lon="-1.1316366666666666">
        <ele>1382.500000000001</ele>
        <time>2013-11-09T14:24:10.99</time>
      </trkpt>
      <trkpt lat="38.474581666666666" lon="-1.1314983333333333">
        <ele>1383.500000000001</ele>
        <time>2013-11-09T14:24:12.11</time>
      </trkpt>
      <trkpt lat="38.4746" lon="-1.13135">
        <ele>1384.900000000001</ele>
        <time>2013-11-09T14:24:12.99</time>
      </trkpt>
      <trkpt lat="38.47459" lon="-1.1311849999999999">
        <ele>1385.900000000001</ele>
        <time>2013-11-09T14:24:13.98</time>
      </trkpt>
      <trkpt lat="38.474545" lon="-1.1309983333333333">
        <ele>1386.700000000001</ele>
        <time>2013-11-09T14:24:14.98</time>
      </trkpt>
      <trkpt lat="38.474468333333334" lon="-1.1308433333333334">
        <ele>1387.500000000001</ele>
        <time>2013-11-09T14:24:15.98</time>
      </trkpt>
      <trkpt lat="38.474383333333336" lon="-1.1307116666666666">
        <ele>1388.000000000001</ele>
        <time>2013-11-09T14:24:16.99</time>
      </trkpt>
      <trkpt lat="38.474288333333334" lon="-1.130585">
        <ele>1388.700000000001</ele>
        <time>2013-11-09T14:24:17.98</time>
      </trkpt>
      <trkpt lat="38.474153333333334" lon="-1.130495">
        <ele>1389.600000000001</ele>
        <time>2013-11-09T14:24:18.98</time>
      </trkpt>
      <trkpt lat="38.47401166666667" lon="-1.1304283333333334">
        <ele>1391.200000000001</ele>
        <time>2013-11-09T14:24:19.93</time>
      </trkpt>
      <trkpt lat="38.473865" lon="-1.1303983333333334">
        <ele>1393.3000000000009</ele>
        <time>2013-11-09T14:24:20.99</time>
      </trkpt>
      <trkpt lat="38.473733333333335" lon="-1.1303816666666666">
        <ele>1395.200000000001</ele>
        <time>2013-11-09T14:24:21.98</time>
      </trkpt>
      <trkpt lat="38.47360333333334" lon="-1.1303783333333333">
        <ele>1397.100000000001</ele>
        <time>2013-11-09T14:24:22.99</time>
      </trkpt>
      <trkpt lat="38.473483333333334" lon="-1.1304116666666666">
        <ele>1399.0000000000011</ele>
        <time>2013-11-09T14:24:23.94</time>
      </trkpt>
      <trkpt lat="38.473385" lon="-1.1304483333333333">
        <ele>1400.600000000001</ele>
        <time>2013-11-09T14:24:24.96</time>
      </trkpt>
      <trkpt lat="38.473306666666666" lon="-1.1305216666666666">
        <ele>1401.900000000001</ele>
        <time>2013-11-09T14:24:25.96</time>
      </trkpt>
      <trkpt lat="38.47324833333333" lon="-1.1306116666666668">
        <ele>1403.000000000001</ele>
        <time>2013-11-09T14:24:26.96</time>
      </trkpt>
      <trkpt lat="38.47320666666667" lon="-1.1306883333333333">
        <ele>1404.3000000000009</ele>
        <time>2013-11-09T14:24:27.96</time>
      </trkpt>
      <trkpt lat="38.47318" lon="-1.130765">
        <ele>1405.8000000000009</ele>
        <time>2013-11-09T14:24:28.96</time>
      </trkpt>
      <trkpt lat="38.47317833333334" lon="-1.130825">
        <ele>1405.9000000000008</ele>
        <time>2013-11-09T14:24:29.95</time>
      </trkpt>
      <trkpt lat="38.47320833333333" lon="-1.1308733333333334">
        <ele>1406.1000000000008</ele>
        <time>2013-11-09T14:24:30.96</time>
      </trkpt>
      <trkpt lat="38.47325333333333" lon="-1.130905">
        <ele>1408.000000000001</ele>
        <time>2013-11-09T14:24:31.95</time>
      </trkpt>
      <trkpt lat="38.47331" lon="-1.13092">
        <ele>1409.3000000000009</ele>
        <time>2013-11-09T14:24:32.98</time>
      </trkpt>
      <trkpt lat="38.473366666666664" lon="-1.1309266666666666">
        <ele>1409.8000000000009</ele>
        <time>2013-11-09T14:24:33.96</time>
      </trkpt>
      <trkpt lat="38.473418333333335" lon="-1.13093">
        <ele>1410.4000000000008</ele>
        <time>2013-11-09T14:24:34.96</time>
      </trkpt>
      <trkpt lat="38.47346833333334" lon="-1.13091">
        <ele>1411.3000000000009</ele>
        <time>2013-11-09T14:24:35.96</time>
      </trkpt>
      <trkpt lat="38.473528333333334" lon="-1.1308866666666666">
        <ele>1411.700000000001</ele>
        <time>2013-11-09T14:24:36.96</time>
      </trkpt>
      <trkpt lat="38.47356666666667" lon="-1.1308616666666667">
        <ele>1412.500000000001</ele>
        <time>2013-11-09T14:24:37.95</time>
      </trkpt>
      <trkpt lat="38.473623333333336" lon="-1.13083">
        <ele>1413.000000000001</ele>
        <time>2013-11-09T14:24:38.96</time>
      </trkpt>
      <trkpt lat="38.473683333333334" lon="-1.1308">
        <ele>1413.500000000001</ele>
        <time>2013-11-09T14:24:39.96</time>
      </trkpt>
      <trkpt lat="38.47375666666667" lon="-1.130765">
        <ele>1414.1000000000008</ele>
        <time>2013-11-09T14:24:40.93</time>
      </trkpt>
      <trkpt lat="38.473821666666666" lon="-1.1306783333333335">
        <ele>1415.1000000000008</ele>
        <time>2013-11-09T14:24:41.95</time>
      </trkpt>
      <trkpt lat="38.47385333333333" lon="-1.1305466666666666">
        <ele>1416.6000000000008</ele>
        <time>2013-11-09T14:24:42.96</time>
      </trkpt>
      <trkpt lat="38.47385666666667" lon="-1.1303983333333334">
        <ele>1417.8000000000009</ele>
        <time>2013-11-09T14:24:43.96</time>
      </trkpt>
      <trkpt lat="38.473835" lon="-1.13024">
        <ele>1419.3000000000009</ele>
        <time>2013-11-09T14:24:44.96</time>
      </trkpt>
      <trkpt lat="38.473795" lon="-1.130095">
        <ele>1420.700000000001</ele>
        <time>2013-11-09T14:24:45.95</time>
      </trkpt>
      <trkpt lat="38.47372166666667" lon="-1.1299383333333333">
        <ele>1422.400000000001</ele>
        <time>2013-11-09T14:24:46.95</time>
      </trkpt>
      <trkpt lat="38.47363" lon="-1.1298">
        <ele>1423.500000000001</ele>
        <time>2013-11-09T14:24:47.96</time>
      </trkpt>
      <trkpt lat="38.473495" lon="-1.1296716666666666">
        <ele>1424.700000000001</ele>
        <time>2013-11-09T14:24:48.96</time>
      </trkpt>
      <trkpt lat="38.47334333333333" lon="-1.1295916666666668">
        <ele>1426.100000000001</ele>
        <time>2013-11-09T14:24:49.96</time>
      </trkpt>
      <trkpt lat="38.47320833333333" lon="-1.1295366666666666">
        <ele>1427.600000000001</ele>
        <time>2013-11-09T14:24:50.96</time>
      </trkpt>
      <trkpt lat="38.47306" lon="-1.1295366666666666">
        <ele>1429.5000000000011</ele>
        <time>2013-11-09T14:24:51.98</time>
      </trkpt>
      <trkpt lat="38.472948333333335" lon="-1.129585">
        <ele>1431.300000000001</ele>
        <time>2013-11-09T14:24:52.96</time>
      </trkpt>
      <trkpt lat="38.47286166666667" lon="-1.129635">
        <ele>1433.100000000001</ele>
        <time>2013-11-09T14:24:54.39</time>
      </trkpt>
      <trkpt lat="38.472766666666665" lon="-1.129695">
        <ele>1434.600000000001</ele>
        <time>2013-11-09T14:24:54.94</time>
      </trkpt>
      <trkpt lat="38.47267" lon="-1.129765">
        <ele>1435.900000000001</ele>
        <time>2013-11-09T14:24:56.19</time>
      </trkpt>
      <trkpt lat="38.472593333333336" lon="-1.1298566666666667">
        <ele>1436.900000000001</ele>
        <time>2013-11-09T14:24:56.93</time>
      </trkpt>
      <trkpt lat="38.47255166666667" lon="-1.1299649999999999">
        <ele>1437.500000000001</ele>
        <time>2013-11-09T14:24:57.93</time>
      </trkpt>
      <trkpt lat="38.472561666666664" lon="-1.13007">
        <ele>1437.900000000001</ele>
        <time>2013-11-09T14:24:58.96</time>
      </trkpt>
      <trkpt lat="38.472588333333334" lon="-1.1301433333333333">
        <ele>1438.600000000001</ele>
        <time>2013-11-09T14:24:59.95</time>
      </trkpt>
      <trkpt lat="38.472615" lon="-1.1302033333333332">
        <ele>1439.200000000001</ele>
        <time>2013-11-09T14:25:00.93</time>
      </trkpt>
      <trkpt lat="38.472635" lon="-1.1302383333333332">
        <ele>1439.900000000001</ele>
        <time>2013-11-09T14:25:01.94</time>
      </trkpt>
      <trkpt lat="38.47266666666667" lon="-1.1302566666666667">
        <ele>1439.900000000001</ele>
        <time>2013-11-09T14:25:02.93</time>
      </trkpt>
      <trkpt lat="38.47272666666667" lon="-1.13026">
        <ele>1440.200000000001</ele>
        <time>2013-11-09T14:25:03.92</time>
      </trkpt>
      <trkpt lat="38.472793333333335" lon="-1.1302616666666667">
        <ele>1440.3000000000009</ele>
        <time>2013-11-09T14:25:04.94</time>
      </trkpt>
      <trkpt lat="38.47287" lon="-1.1302616666666667">
        <ele>1440.200000000001</ele>
        <time>2013-11-09T14:25:05.93</time>
      </trkpt>
      <trkpt lat="38.472941666666664" lon="-1.1302566666666667">
        <ele>1440.000000000001</ele>
        <time>2013-11-09T14:25:06.96</time>
      </trkpt>
      <trkpt lat="38.47299666666667" lon="-1.1302216666666667">
        <ele>1439.8000000000009</ele>
        <time>2013-11-09T14:25:07.96</time>
      </trkpt>
      <trkpt lat="38.47304166666667" lon="-1.1301733333333333">
        <ele>1439.6000000000008</ele>
        <time>2013-11-09T14:25:08.95</time>
      </trkpt>
      <trkpt lat="38.473095" lon="-1.1301133333333333">
        <ele>1439.2000000000007</ele>
        <time>2013-11-09T14:25:09.99</time>
      </trkpt>
      <trkpt lat="38.47315666666667" lon="-1.1300233333333334">
        <ele>1439.4000000000008</ele>
        <time>2013-11-09T14:25:10.93</time>
      </trkpt>
      <trkpt lat="38.47321" lon="-1.1299066666666666">
        <ele>1440.1000000000008</ele>
        <time>2013-11-09T14:25:12.69</time>
      </trkpt>
      <trkpt lat="38.47325333333333" lon="-1.129775">
        <ele>1440.6000000000008</ele>
        <time>2013-11-09T14:25:12.96</time>
      </trkpt>
      <trkpt lat="38.47326833333333" lon="-1.1296183333333334">
        <ele>1441.2000000000007</ele>
        <time>2013-11-09T14:25:13.96</time>
      </trkpt>
      <trkpt lat="38.47327833333333" lon="-1.1294583333333335">
        <ele>1441.4000000000008</ele>
        <time>2013-11-09T14:25:14.96</time>
      </trkpt>
      <trkpt lat="38.473281666666665" lon="-1.1293083333333334">
        <ele>1441.4000000000008</ele>
        <time>2013-11-09T14:25:15.95</time>
      </trkpt>
      <trkpt lat="38.473255" lon="-1.1291683333333333">
        <ele>1441.5000000000007</ele>
        <time>2013-11-09T14:25:16.96</time>
      </trkpt>
      <trkpt lat="38.473215" lon="-1.1290283333333333">
        <ele>1441.4000000000008</ele>
        <time>2013-11-09T14:25:17.96</time>
      </trkpt>
      <trkpt lat="38.473168333333334" lon="-1.128895">
        <ele>1441.8000000000009</ele>
        <time>2013-11-09T14:25:18.95</time>
      </trkpt>
      <trkpt lat="38.47309833333333" lon="-1.12874">
        <ele>1442.200000000001</ele>
        <time>2013-11-09T14:25:19.96</time>
      </trkpt>
      <trkpt lat="38.473" lon="-1.12857">
        <ele>1442.8000000000009</ele>
        <time>2013-11-09T14:25:20.93</time>
      </trkpt>
      <trkpt lat="38.472883333333336" lon="-1.1284416666666668">
        <ele>1442.6000000000008</ele>
        <time>2013-11-09T14:25:21.96</time>
      </trkpt>
      <trkpt lat="38.47275333333333" lon="-1.1284">
        <ele>1442.4000000000008</ele>
        <time>2013-11-09T14:25:22.95</time>
      </trkpt>
      <trkpt lat="38.4726" lon="-1.1283816666666666">
        <ele>1442.5000000000007</ele>
        <time>2013-11-09T14:25:23.95</time>
      </trkpt>
      <trkpt lat="38.472471666666664" lon="-1.1283783333333333">
        <ele>1443.0000000000007</ele>
        <time>2013-11-09T14:25:24.96</time>
      </trkpt>
      <trkpt lat="38.47235666666667" lon="-1.1283866666666666">
        <ele>1443.7000000000007</ele>
        <time>2013-11-09T14:25:25.94</time>
      </trkpt>
      <trkpt lat="38.47225666666667" lon="-1.128425">
        <ele>1444.4000000000008</ele>
        <time>2013-11-09T14:25:26.96</time>
      </trkpt>
      <trkpt lat="38.472168333333336" lon="-1.128465">
        <ele>1445.2000000000007</ele>
        <time>2013-11-09T14:25:27.96</time>
      </trkpt>
      <trkpt lat="38.47208833333333" lon="-1.12851">
        <ele>1446.1000000000008</ele>
        <time>2013-11-09T14:25:28.95</time>
      </trkpt>
      <trkpt lat="38.47199666666667" lon="-1.128565">
        <ele>1447.000000000001</ele>
        <time>2013-11-09T14:25:29.95</time>
      </trkpt>
      <trkpt lat="38.47191333333333" lon="-1.1286266666666667">
        <ele>1448.200000000001</ele>
        <time>2013-11-09T14:25:30.95</time>
      </trkpt>
      <trkpt lat="38.471835" lon="-1.128715">
        <ele>1449.200000000001</ele>
        <time>2013-11-09T14:25:31.96</time>
      </trkpt>
      <trkpt lat="38.47176833333333" lon="-1.1288016666666667">
        <ele>1450.3000000000009</ele>
        <time>2013-11-09T14:25:32.95</time>
      </trkpt>
      <trkpt lat="38.471713333333334" lon="-1.128895">
        <ele>1451.4000000000008</ele>
        <time>2013-11-09T14:25:33.96</time>
      </trkpt>
      <trkpt lat="38.47168" lon="-1.128985">
        <ele>1452.3000000000009</ele>
        <time>2013-11-09T14:25:34.95</time>
      </trkpt>
      <trkpt lat="38.47165" lon="-1.1290666666666667">
        <ele>1453.000000000001</ele>
        <time>2013-11-09T14:25:35.96</time>
      </trkpt>
      <trkpt lat="38.47162333333333" lon="-1.129145">
        <ele>1453.6000000000008</ele>
        <time>2013-11-09T14:25:36.96</time>
      </trkpt>
      <trkpt lat="38.471606666666666" lon="-1.1292416666666667">
        <ele>1454.000000000001</ele>
        <time>2013-11-09T14:25:37.95</time>
      </trkpt>
      <trkpt lat="38.4716" lon="-1.1293133333333334">
        <ele>1454.200000000001</ele>
        <time>2013-11-09T14:25:38.95</time>
      </trkpt>
      <trkpt lat="38.47161166666667" lon="-1.1293866666666668">
        <ele>1454.3000000000009</ele>
        <time>2013-11-09T14:25:39.95</time>
      </trkpt>
      <trkpt lat="38.47163" lon="-1.1294566666666666">
        <ele>1454.200000000001</ele>
        <time>2013-11-09T14:25:40.96</time>
      </trkpt>
      <trkpt lat="38.47166333333333" lon="-1.1295266666666666">
        <ele>1454.000000000001</ele>
        <time>2013-11-09T14:25:41.96</time>
      </trkpt>
      <trkpt lat="38.47170166666667" lon="-1.1295783333333334">
        <ele>1453.900000000001</ele>
        <time>2013-11-09T14:25:42.96</time>
      </trkpt>
      <trkpt lat="38.47174833333333" lon="-1.1296033333333333">
        <ele>1454.000000000001</ele>
        <time>2013-11-09T14:25:43.95</time>
      </trkpt>
      <trkpt lat="38.471788333333336" lon="-1.1296083333333333">
        <ele>1454.000000000001</ele>
        <time>2013-11-09T14:25:44.96</time>
      </trkpt>
      <trkpt lat="38.47182333333333" lon="-1.1296083333333333">
        <ele>1453.900000000001</ele>
        <time>2013-11-09T14:25:45.96</time>
      </trkpt>
      <trkpt lat="38.47187" lon="-1.1296033333333333">
        <ele>1452.600000000001</ele>
        <time>2013-11-09T14:25:46.95</time>
      </trkpt>
      <trkpt lat="38.471916666666665" lon="-1.1295983333333333">
        <ele>1450.600000000001</ele>
        <time>2013-11-09T14:25:47.98</time>
      </trkpt>
      <trkpt lat="38.471981666666665" lon="-1.129585">
        <ele>1448.0000000000011</ele>
        <time>2013-11-09T14:25:48.96</time>
      </trkpt>
      <trkpt lat="38.472051666666665" lon="-1.1295633333333333">
        <ele>1445.100000000001</ele>
        <time>2013-11-09T14:25:49.96</time>
      </trkpt>
      <trkpt lat="38.472125" lon="-1.1295250000000001">
        <ele>1442.100000000001</ele>
        <time>2013-11-09T14:25:50.95</time>
      </trkpt>
      <trkpt lat="38.47219" lon="-1.1295">
        <ele>1439.0000000000011</ele>
        <time>2013-11-09T14:25:51.96</time>
      </trkpt>
      <trkpt lat="38.472255" lon="-1.1294866666666667">
        <ele>1436.2000000000012</ele>
        <time>2013-11-09T14:25:52.94</time>
      </trkpt>
      <trkpt lat="38.4723" lon="-1.129465">
        <ele>1433.300000000001</ele>
        <time>2013-11-09T14:25:53.96</time>
      </trkpt>
      <trkpt lat="38.47234666666667" lon="-1.1294416666666667">
        <ele>1430.400000000001</ele>
        <time>2013-11-09T14:25:54.96</time>
      </trkpt>
      <trkpt lat="38.47240333333333" lon="-1.1294183333333334">
        <ele>1427.200000000001</ele>
        <time>2013-11-09T14:25:55.96</time>
      </trkpt>
      <trkpt lat="38.47246" lon="-1.129395">
        <ele>1424.100000000001</ele>
        <time>2013-11-09T14:25:56.97</time>
      </trkpt>
      <trkpt lat="38.47251166666667" lon="-1.129375">
        <ele>1421.0000000000011</ele>
        <time>2013-11-09T14:25:57.95</time>
      </trkpt>
      <trkpt lat="38.47257166666667" lon="-1.12936">
        <ele>1418.0000000000011</ele>
        <time>2013-11-09T14:25:58.95</time>
      </trkpt>
      <trkpt lat="38.472625" lon="-1.12935">
        <ele>1415.0000000000011</ele>
        <time>2013-11-09T14:25:59.95</time>
      </trkpt>
      <trkpt lat="38.472683333333336" lon="-1.1293433333333334">
        <ele>1412.100000000001</ele>
        <time>2013-11-09T14:26:00.93</time>
      </trkpt>
      <trkpt lat="38.47274" lon="-1.12934">
        <ele>1409.300000000001</ele>
        <time>2013-11-09T14:26:01.95</time>
      </trkpt>
      <trkpt lat="38.47280166666667" lon="-1.129335">
        <ele>1406.900000000001</ele>
        <time>2013-11-09T14:26:02.95</time>
      </trkpt>
      <trkpt lat="38.47287" lon="-1.1293266666666666">
        <ele>1404.600000000001</ele>
        <time>2013-11-09T14:26:03.94</time>
      </trkpt>
      <trkpt lat="38.47293666666667" lon="-1.1293199999999999">
        <ele>1402.300000000001</ele>
        <time>2013-11-09T14:26:04.95</time>
      </trkpt>
      <trkpt lat="38.473015" lon="-1.12931">
        <ele>1399.900000000001</ele>
        <time>2013-11-09T14:26:06.19</time>
      </trkpt>
      <trkpt lat="38.473065" lon="-1.1293016666666666">
        <ele>1397.300000000001</ele>
        <time>2013-11-09T14:26:07.99</time>
      </trkpt>
      <trkpt lat="38.473135" lon="-1.1292833333333334">
        <ele>1395.100000000001</ele>
        <time>2013-11-09T14:26:07.96</time>
      </trkpt>
      <trkpt lat="38.47319666666667" lon="-1.1292233333333332">
        <ele>1393.0000000000011</ele>
        <time>2013-11-09T14:26:08.96</time>
      </trkpt>
      <trkpt lat="38.473255" lon="-1.1291616666666666">
        <ele>1390.600000000001</ele>
        <time>2013-11-09T14:26:09.94</time>
      </trkpt>
      <trkpt lat="38.47331" lon="-1.1291066666666667">
        <ele>1387.900000000001</ele>
        <time>2013-11-09T14:26:10.96</time>
      </trkpt>
      <trkpt lat="38.473373333333335" lon="-1.1290533333333332">
        <ele>1385.200000000001</ele>
        <time>2013-11-09T14:26:11.99</time>
      </trkpt>
      <trkpt lat="38.47343333333333" lon="-1.1290183333333332">
        <ele>1382.900000000001</ele>
        <time>2013-11-09T14:26:12.95</time>
      </trkpt>
      <trkpt lat="38.473495" lon="-1.1289816666666668">
        <ele>1380.800000000001</ele>
        <time>2013-11-09T14:26:13.95</time>
      </trkpt>
      <trkpt lat="38.47355833333334" lon="-1.1289516666666666">
        <ele>1378.7000000000012</ele>
        <time>2013-11-09T14:26:14.95</time>
      </trkpt>
      <trkpt lat="38.473625" lon="-1.1289216666666666">
        <ele>1376.9000000000012</ele>
        <time>2013-11-09T14:26:15.96</time>
      </trkpt>
      <trkpt lat="38.47369" lon="-1.1288883333333333">
        <ele>1375.2000000000012</ele>
        <time>2013-11-09T14:26:16.95</time>
      </trkpt>
      <trkpt lat="38.473745" lon="-1.1288583333333333">
        <ele>1373.300000000001</ele>
        <time>2013-11-09T14:26:17.95</time>
      </trkpt>
      <trkpt lat="38.473798333333335" lon="-1.1288283333333333">
        <ele>1371.400000000001</ele>
        <time>2013-11-09T14:26:18.96</time>
      </trkpt>
      <trkpt lat="38.473863333333334" lon="-1.1288">
        <ele>1369.600000000001</ele>
        <time>2013-11-09T14:26:19.95</time>
      </trkpt>
      <trkpt lat="38.47389" lon="-1.1287866666666666">
        <ele>1367.800000000001</ele>
        <time>2013-11-09T14:26:20.96</time>
      </trkpt>
      <trkpt lat="38.47394333333333" lon="-1.1287616666666667">
        <ele>1365.900000000001</ele>
        <time>2013-11-09T14:26:21.96</time>
      </trkpt>
      <trkpt lat="38.474" lon="-1.1287366666666667">
        <ele>1364.100000000001</ele>
        <time>2013-11-09T14:26:22.94</time>
      </trkpt>
      <trkpt lat="38.474025" lon="-1.1287233333333333">
        <ele>1361.800000000001</ele>
        <time>2013-11-09T14:26:23.95</time>
      </trkpt>
      <trkpt lat="38.474065" lon="-1.1287033333333334">
        <ele>1359.5000000000011</ele>
        <time>2013-11-09T14:26:24.95</time>
      </trkpt>
      <trkpt lat="38.474111666666666" lon="-1.1286833333333333">
        <ele>1357.0000000000011</ele>
        <time>2013-11-09T14:26:25.96</time>
      </trkpt>
      <trkpt lat="38.47416166666667" lon="-1.1286633333333334">
        <ele>1354.5000000000011</ele>
        <time>2013-11-09T14:26:26.96</time>
      </trkpt>
      <trkpt lat="38.474228333333336" lon="-1.1286383333333334">
        <ele>1352.2000000000012</ele>
        <time>2013-11-09T14:26:27.95</time>
      </trkpt>
      <trkpt lat="38.47427666666667" lon="-1.12862">
        <ele>1350.0000000000011</ele>
        <time>2013-11-09T14:26:28.95</time>
      </trkpt>
      <trkpt lat="38.474315" lon="-1.128605">
        <ele>1347.800000000001</ele>
        <time>2013-11-09T14:26:29.96</time>
      </trkpt>
      <trkpt lat="38.474358333333335" lon="-1.1285883333333333">
        <ele>1345.600000000001</ele>
        <time>2013-11-09T14:26:30.96</time>
      </trkpt>
      <trkpt lat="38.47441" lon="-1.128575">
        <ele>1343.800000000001</ele>
        <time>2013-11-09T14:26:31.96</time>
      </trkpt>
      <trkpt lat="38.474471666666666" lon="-1.128555">
        <ele>1342.0000000000011</ele>
        <time>2013-11-09T14:26:32.95</time>
      </trkpt>
      <trkpt lat="38.47452833333333" lon="-1.1285366666666667">
        <ele>1340.4000000000012</ele>
        <time>2013-11-09T14:26:33.96</time>
      </trkpt>
      <trkpt lat="38.47459" lon="-1.1285166666666666">
        <ele>1339.0000000000011</ele>
        <time>2013-11-09T14:26:34.96</time>
      </trkpt>
      <trkpt lat="38.474645" lon="-1.128495">
        <ele>1337.300000000001</ele>
        <time>2013-11-09T14:26:35.96</time>
      </trkpt>
      <trkpt lat="38.47470166666667" lon="-1.128475">
        <ele>1335.400000000001</ele>
        <time>2013-11-09T14:26:36.96</time>
      </trkpt>
      <trkpt lat="38.474763333333335" lon="-1.128455">
        <ele>1333.300000000001</ele>
        <time>2013-11-09T14:26:37.96</time>
      </trkpt>
      <trkpt lat="38.47481833333333" lon="-1.128435">
        <ele>1331.2000000000012</ele>
        <time>2013-11-09T14:26:38.96</time>
      </trkpt>
      <trkpt lat="38.474855" lon="-1.1284166666666666">
        <ele>1328.7000000000012</ele>
        <time>2013-11-09T14:26:39.96</time>
      </trkpt>
      <trkpt lat="38.474911666666664" lon="-1.128395">
        <ele>1326.2000000000012</ele>
        <time>2013-11-09T14:26:40.96</time>
      </trkpt>
      <trkpt lat="38.474955" lon="-1.128375">
        <ele>1323.4000000000012</ele>
        <time>2013-11-09T14:26:41.96</time>
      </trkpt>
      <trkpt lat="38.47500333333333" lon="-1.128355">
        <ele>1320.4000000000012</ele>
        <time>2013-11-09T14:26:42.96</time>
      </trkpt>
      <trkpt lat="38.47506666666666" lon="-1.128335">
        <ele>1317.5000000000011</ele>
        <time>2013-11-09T14:26:43.96</time>
      </trkpt>
      <trkpt lat="38.475121666666666" lon="-1.1283166666666666">
        <ele>1314.7000000000012</ele>
        <time>2013-11-09T14:26:44.96</time>
      </trkpt>
      <trkpt lat="38.475186666666666" lon="-1.1282983333333334">
        <ele>1312.0000000000011</ele>
        <time>2013-11-09T14:26:45.96</time>
      </trkpt>
      <trkpt lat="38.47524166666667" lon="-1.1282816666666666">
        <ele>1309.4000000000012</ele>
        <time>2013-11-09T14:26:46.94</time>
      </trkpt>
      <trkpt lat="38.47529333333333" lon="-1.1282683333333334">
        <ele>1307.0000000000011</ele>
        <time>2013-11-09T14:26:47.95</time>
      </trkpt>
      <trkpt lat="38.475343333333335" lon="-1.1282566666666667">
        <ele>1304.800000000001</ele>
        <time>2013-11-09T14:26:48.96</time>
      </trkpt>
      <trkpt lat="38.47539833333333" lon="-1.1282416666666666">
        <ele>1302.600000000001</ele>
        <time>2013-11-09T14:26:49.96</time>
      </trkpt>
      <trkpt lat="38.475453333333334" lon="-1.128225">
        <ele>1300.800000000001</ele>
        <time>2013-11-09T14:26:50.92</time>
      </trkpt>
      <trkpt lat="38.47551" lon="-1.1282083333333333">
        <ele>1299.100000000001</ele>
        <time>2013-11-09T14:26:51.95</time>
      </trkpt>
      <trkpt lat="38.475566666666666" lon="-1.1281866666666667">
        <ele>1297.600000000001</ele>
        <time>2013-11-09T14:26:52.95</time>
      </trkpt>
      <trkpt lat="38.47561666666667" lon="-1.1281666666666668">
        <ele>1296.100000000001</ele>
        <time>2013-11-09T14:26:53.94</time>
      </trkpt>
      <trkpt lat="38.47566666666667" lon="-1.1281433333333333">
        <ele>1294.600000000001</ele>
        <time>2013-11-09T14:26:54.96</time>
      </trkpt>
      <trkpt lat="38.47571166666667" lon="-1.1281216666666667">
        <ele>1292.800000000001</ele>
        <time>2013-11-09T14:26:55.96</time>
      </trkpt>
      <trkpt lat="38.47576166666666" lon="-1.1281033333333332">
        <ele>1291.100000000001</ele>
        <time>2013-11-09T14:26:56.92</time>
      </trkpt>
      <trkpt lat="38.475813333333335" lon="-1.1280816666666666">
        <ele>1289.400000000001</ele>
        <time>2013-11-09T14:26:57.96</time>
      </trkpt>
      <trkpt lat="38.47586666666667" lon="-1.128065">
        <ele>1287.700000000001</ele>
        <time>2013-11-09T14:26:58.94</time>
      </trkpt>
      <trkpt lat="38.475925" lon="-1.1280483333333333">
        <ele>1286.000000000001</ele>
        <time>2013-11-09T14:26:59.92</time>
      </trkpt>
      <trkpt lat="38.47598166666667" lon="-1.1280316666666668">
        <ele>1284.400000000001</ele>
        <time>2013-11-09T14:27:01.99</time>
      </trkpt>
      <trkpt lat="38.476025" lon="-1.128015">
        <ele>1282.900000000001</ele>
        <time>2013-11-09T14:27:01.94</time>
      </trkpt>
      <trkpt lat="38.47606" lon="-1.1280016666666666">
        <ele>1281.800000000001</ele>
        <time>2013-11-09T14:27:02.92</time>
      </trkpt>
      <trkpt lat="38.476103333333334" lon="-1.127985">
        <ele>1280.7000000000012</ele>
        <time>2013-11-09T14:27:03.92</time>
      </trkpt>
      <trkpt lat="38.476148333333335" lon="-1.127965">
        <ele>1279.1000000000013</ele>
        <time>2013-11-09T14:27:04.93</time>
      </trkpt>
      <trkpt lat="38.476195" lon="-1.1279433333333333">
        <ele>1277.5000000000014</ele>
        <time>2013-11-09T14:27:05.97</time>
      </trkpt>
      <trkpt lat="38.476245" lon="-1.1279233333333334">
        <ele>1275.8000000000013</ele>
        <time>2013-11-09T14:27:06.92</time>
      </trkpt>
      <trkpt lat="38.47629166666667" lon="-1.1279033333333333">
        <ele>1274.1000000000013</ele>
        <time>2013-11-09T14:27:07.93</time>
      </trkpt>
      <trkpt lat="38.47633833333333" lon="-1.127885">
        <ele>1272.5000000000014</ele>
        <time>2013-11-09T14:27:08.97</time>
      </trkpt>
      <trkpt lat="38.47638333333333" lon="-1.127865">
        <ele>1271.1000000000013</ele>
        <time>2013-11-09T14:27:09.92</time>
      </trkpt>
      <trkpt lat="38.47643" lon="-1.1278433333333333">
        <ele>1269.6000000000013</ele>
        <time>2013-11-09T14:27:10.91</time>
      </trkpt>
      <trkpt lat="38.476483333333334" lon="-1.1278233333333334">
        <ele>1268.2000000000012</ele>
        <time>2013-11-09T14:27:11.92</time>
      </trkpt>
      <trkpt lat="38.47654166666667" lon="-1.1278033333333333">
        <ele>1266.800000000001</ele>
        <time>2013-11-09T14:27:12.92</time>
      </trkpt>
      <trkpt lat="38.476615" lon="-1.12778">
        <ele>1265.7000000000012</ele>
        <time>2013-11-09T14:27:13.91</time>
      </trkpt>
      <trkpt lat="38.47667333333333" lon="-1.127755">
        <ele>1264.6000000000013</ele>
        <time>2013-11-09T14:27:14.95</time>
      </trkpt>
      <trkpt lat="38.47672" lon="-1.12772">
        <ele>1263.6000000000013</ele>
        <time>2013-11-09T14:27:15.94</time>
      </trkpt>
      <trkpt lat="38.476798333333335" lon="-1.1276983333333332">
        <ele>1261.2000000000012</ele>
        <time>2013-11-09T14:27:17.99</time>
      </trkpt>
      <trkpt lat="38.476845" lon="-1.1276966666666666">
        <ele>1259.6000000000013</ele>
        <time>2013-11-09T14:27:18.92</time>
      </trkpt>
      <trkpt lat="38.47689666666667" lon="-1.1276933333333332">
        <ele>1258.2000000000012</ele>
        <time>2013-11-09T14:27:19.94</time>
      </trkpt>
      <trkpt lat="38.476956666666666" lon="-1.1276883333333334">
        <ele>1256.9000000000012</ele>
        <time>2013-11-09T14:27:20.96</time>
      </trkpt>
      <trkpt lat="38.47701" lon="-1.1277033333333333">
        <ele>1255.7000000000012</ele>
        <time>2013-11-09T14:27:21.96</time>
      </trkpt>
      <trkpt lat="38.47705833333333" lon="-1.12772">
        <ele>1254.800000000001</ele>
        <time>2013-11-09T14:27:22.96</time>
      </trkpt>
      <trkpt lat="38.47710166666667" lon="-1.1277383333333333">
        <ele>1254.100000000001</ele>
        <time>2013-11-09T14:27:23.94</time>
      </trkpt>
      <trkpt lat="38.47713666666667" lon="-1.1277366666666666">
        <ele>1254.300000000001</ele>
        <time>2013-11-09T14:27:24.96</time>
      </trkpt>
      <trkpt lat="38.47718166666667" lon="-1.1277233333333334">
        <ele>1254.5000000000011</ele>
        <time>2013-11-09T14:27:25.95</time>
      </trkpt>
      <trkpt lat="38.47723" lon="-1.1277066666666666">
        <ele>1254.7000000000012</ele>
        <time>2013-11-09T14:27:26.96</time>
      </trkpt>
      <trkpt lat="38.477288333333334" lon="-1.127685">
        <ele>1254.7000000000012</ele>
        <time>2013-11-09T14:27:27.96</time>
      </trkpt>
      <trkpt lat="38.477351666666664" lon="-1.1276633333333332">
        <ele>1254.4000000000012</ele>
        <time>2013-11-09T14:27:28.96</time>
      </trkpt>
      <trkpt lat="38.47741" lon="-1.1276466666666667">
        <ele>1254.1000000000013</ele>
        <time>2013-11-09T14:27:29.96</time>
      </trkpt>
      <trkpt lat="38.47746" lon="-1.1276333333333333">
        <ele>1253.5000000000014</ele>
        <time>2013-11-09T14:27:30.96</time>
      </trkpt>
      <trkpt lat="38.47750333333333" lon="-1.12762">
        <ele>1252.9000000000015</ele>
        <time>2013-11-09T14:27:31.95</time>
      </trkpt>
      <trkpt lat="38.47754833333333" lon="-1.1276066666666666">
        <ele>1252.6000000000015</ele>
        <time>2013-11-09T14:27:32.95</time>
      </trkpt>
      <trkpt lat="38.47758833333334" lon="-1.1275966666666666">
        <ele>1252.0000000000016</ele>
        <time>2013-11-09T14:27:33.96</time>
      </trkpt>
      <trkpt lat="38.477635" lon="-1.12759">
        <ele>1250.9000000000017</ele>
        <time>2013-11-09T14:27:34.96</time>
      </trkpt>
      <trkpt lat="38.47769" lon="-1.1275883333333334">
        <ele>1249.7000000000016</ele>
        <time>2013-11-09T14:27:35.95</time>
      </trkpt>
      <trkpt lat="38.47775166666667" lon="-1.1275866666666667">
        <ele>1248.5000000000016</ele>
        <time>2013-11-09T14:27:36.95</time>
      </trkpt>
      <trkpt lat="38.47781333333333" lon="-1.1275833333333334">
        <ele>1247.4000000000017</ele>
        <time>2013-11-09T14:27:37.96</time>
      </trkpt>
      <trkpt lat="38.47787666666667" lon="-1.1275766666666667">
        <ele>1246.4000000000017</ele>
        <time>2013-11-09T14:27:38.96</time>
      </trkpt>
      <trkpt lat="38.477938333333334" lon="-1.12757">
        <ele>1245.3000000000018</ele>
        <time>2013-11-09T14:27:39.96</time>
      </trkpt>
      <trkpt lat="38.47801" lon="-1.127565">
        <ele>1244.1000000000017</ele>
        <time>2013-11-09T14:27:40.95</time>
      </trkpt>
      <trkpt lat="38.478078333333336" lon="-1.1275583333333334">
        <ele>1243.1000000000017</ele>
        <time>2013-11-09T14:27:41.95</time>
      </trkpt>
      <trkpt lat="38.478141666666666" lon="-1.1275466666666667">
        <ele>1242.3000000000018</ele>
        <time>2013-11-09T14:27:42.95</time>
      </trkpt>
      <trkpt lat="38.47818" lon="-1.127535">
        <ele>1241.7000000000019</ele>
        <time>2013-11-09T14:27:43.96</time>
      </trkpt>
      <trkpt lat="38.478231666666666" lon="-1.1275183333333334">
        <ele>1240.600000000002</ele>
        <time>2013-11-09T14:27:44.95</time>
      </trkpt>
      <trkpt lat="38.478271666666664" lon="-1.1275066666666667">
        <ele>1239.800000000002</ele>
        <time>2013-11-09T14:27:45.96</time>
      </trkpt>
      <trkpt lat="38.478325" lon="-1.1274899999999999">
        <ele>1238.700000000002</ele>
        <time>2013-11-09T14:27:46.95</time>
      </trkpt>
      <trkpt lat="38.478385" lon="-1.12747">
        <ele>1237.6000000000022</ele>
        <time>2013-11-09T14:27:47.95</time>
      </trkpt>
      <trkpt lat="38.478455" lon="-1.1274483333333334">
        <ele>1236.3000000000022</ele>
        <time>2013-11-09T14:27:48.97</time>
      </trkpt>
      <trkpt lat="38.47852666666667" lon="-1.1274250000000001">
        <ele>1235.2000000000023</ele>
        <time>2013-11-09T14:27:49.96</time>
      </trkpt>
      <trkpt lat="38.478593333333336" lon="-1.1273966666666666">
        <ele>1234.1000000000024</ele>
        <time>2013-11-09T14:27:50.98</time>
      </trkpt>
      <trkpt lat="38.478635" lon="-1.12737">
        <ele>1233.2000000000023</ele>
        <time>2013-11-09T14:27:51.96</time>
      </trkpt>
      <trkpt lat="38.478676666666665" lon="-1.1273416666666667">
        <ele>1232.0000000000023</ele>
        <time>2013-11-09T14:27:52.95</time>
      </trkpt>
      <trkpt lat="38.47873333333333" lon="-1.12731">
        <ele>1230.7000000000023</ele>
        <time>2013-11-09T14:27:53.96</time>
      </trkpt>
      <trkpt lat="38.478793333333336" lon="-1.127275">
        <ele>1228.9000000000024</ele>
        <time>2013-11-09T14:27:54.96</time>
      </trkpt>
      <trkpt lat="38.478856666666665" lon="-1.12724">
        <ele>1227.6000000000024</ele>
        <time>2013-11-09T14:27:55.93</time>
      </trkpt>
      <trkpt lat="38.47890833333334" lon="-1.1272116666666667">
        <ele>1226.0000000000025</ele>
        <time>2013-11-09T14:27:56.98</time>
      </trkpt>
      <trkpt lat="38.478971666666666" lon="-1.12718">
        <ele>1224.3000000000025</ele>
        <time>2013-11-09T14:27:57.98</time>
      </trkpt>
      <trkpt lat="38.47904" lon="-1.1271483333333334">
        <ele>1222.7000000000025</ele>
        <time>2013-11-09T14:27:58.94</time>
      </trkpt>
      <trkpt lat="38.479081666666666" lon="-1.1271283333333333">
        <ele>1221.2000000000025</ele>
        <time>2013-11-09T14:27:59.98</time>
      </trkpt>
      <trkpt lat="38.47914" lon="-1.1271">
        <ele>1219.6000000000026</ele>
        <time>2013-11-09T14:28:00.98</time>
      </trkpt>
      <trkpt lat="38.47920166666667" lon="-1.1270716666666667">
        <ele>1218.1000000000026</ele>
        <time>2013-11-09T14:28:01.98</time>
      </trkpt>
      <trkpt lat="38.47927" lon="-1.127045">
        <ele>1216.5000000000027</ele>
        <time>2013-11-09T14:28:02.98</time>
      </trkpt>
      <trkpt lat="38.479345" lon="-1.1270183333333335">
        <ele>1214.7000000000028</ele>
        <time>2013-11-09T14:28:03.98</time>
      </trkpt>
      <trkpt lat="38.47941333333333" lon="-1.126995">
        <ele>1212.6000000000029</ele>
        <time>2013-11-09T14:28:04.94</time>
      </trkpt>
      <trkpt lat="38.47945166666667" lon="-1.12698">
        <ele>1210.6000000000029</ele>
        <time>2013-11-09T14:28:05.98</time>
      </trkpt>
      <trkpt lat="38.479495" lon="-1.1269633333333333">
        <ele>1208.300000000003</ele>
        <time>2013-11-09T14:28:06.98</time>
      </trkpt>
      <trkpt lat="38.479545" lon="-1.1269433333333334">
        <ele>1205.9000000000028</ele>
        <time>2013-11-09T14:28:07.98</time>
      </trkpt>
      <trkpt lat="38.47960666666667" lon="-1.1269216666666666">
        <ele>1203.4000000000028</ele>
        <time>2013-11-09T14:28:08.98</time>
      </trkpt>
      <trkpt lat="38.47966" lon="-1.1269033333333334">
        <ele>1201.300000000003</ele>
        <time>2013-11-09T14:28:09.98</time>
      </trkpt>
      <trkpt lat="38.479715" lon="-1.126885">
        <ele>1199.300000000003</ele>
        <time>2013-11-09T14:28:10.94</time>
      </trkpt>
      <trkpt lat="38.479765" lon="-1.1268683333333334">
        <ele>1197.700000000003</ele>
        <time>2013-11-09T14:28:12.9</time>
      </trkpt>
      <trkpt lat="38.479798333333335" lon="-1.1268583333333333">
        <ele>1195.900000000003</ele>
        <time>2013-11-09T14:28:12.98</time>
      </trkpt>
      <trkpt lat="38.47984" lon="-1.1268466666666668">
        <ele>1194.000000000003</ele>
        <time>2013-11-09T14:28:13.98</time>
      </trkpt>
      <trkpt lat="38.47988333333333" lon="-1.1268333333333334">
        <ele>1191.900000000003</ele>
        <time>2013-11-09T14:28:14.98</time>
      </trkpt>
      <trkpt lat="38.47993" lon="-1.12682">
        <ele>1189.900000000003</ele>
        <time>2013-11-09T14:28:15.98</time>
      </trkpt>
      <trkpt lat="38.47998166666667" lon="-1.1268066666666667">
        <ele>1188.100000000003</ele>
        <time>2013-11-09T14:28:17.19</time>
      </trkpt>
      <trkpt lat="38.480043333333334" lon="-1.12679">
        <ele>1186.400000000003</ele>
        <time>2013-11-09T14:28:17.98</time>
      </trkpt>
      <trkpt lat="38.48010333333333" lon="-1.1267716666666667">
        <ele>1184.8000000000031</ele>
        <time>2013-11-09T14:28:19.9</time>
      </trkpt>
      <trkpt lat="38.480155" lon="-1.1267533333333333">
        <ele>1183.100000000003</ele>
        <time>2013-11-09T14:28:19.98</time>
      </trkpt>
      <trkpt lat="38.48018666666667" lon="-1.1267416666666668">
        <ele>1181.400000000003</ele>
        <time>2013-11-09T14:28:20.98</time>
      </trkpt>
      <trkpt lat="38.480223333333335" lon="-1.1267316666666667">
        <ele>1179.600000000003</ele>
        <time>2013-11-09T14:28:21.98</time>
      </trkpt>
      <trkpt lat="38.48027" lon="-1.1267166666666666">
        <ele>1177.8000000000031</ele>
        <time>2013-11-09T14:28:22.94</time>
      </trkpt>
      <trkpt lat="38.480315" lon="-1.1267033333333334">
        <ele>1176.0000000000032</ele>
        <time>2013-11-09T14:28:23.98</time>
      </trkpt>
      <trkpt lat="38.480358333333335" lon="-1.1266883333333333">
        <ele>1174.2000000000032</ele>
        <time>2013-11-09T14:28:24.98</time>
      </trkpt>
      <trkpt lat="38.48040833333334" lon="-1.126675">
        <ele>1172.6000000000033</ele>
        <time>2013-11-09T14:28:25.98</time>
      </trkpt>
      <trkpt lat="38.48045666666667" lon="-1.1266616666666667">
        <ele>1171.1000000000033</ele>
        <time>2013-11-09T14:28:26.98</time>
      </trkpt>
      <trkpt lat="38.48050333333333" lon="-1.12665">
        <ele>1169.3000000000034</ele>
        <time>2013-11-09T14:28:27.98</time>
      </trkpt>
      <trkpt lat="38.480545" lon="-1.1266383333333334">
        <ele>1167.5000000000034</ele>
        <time>2013-11-09T14:28:28.94</time>
      </trkpt>
      <trkpt lat="38.480583333333335" lon="-1.12663">
        <ele>1165.8000000000034</ele>
        <time>2013-11-09T14:28:29.98</time>
      </trkpt>
      <trkpt lat="38.48061833333333" lon="-1.12662">
        <ele>1163.9000000000033</ele>
        <time>2013-11-09T14:28:30.98</time>
      </trkpt>
      <trkpt lat="38.480665" lon="-1.1266116666666668">
        <ele>1161.9000000000033</ele>
        <time>2013-11-09T14:28:31.98</time>
      </trkpt>
      <trkpt lat="38.48072" lon="-1.1265983333333334">
        <ele>1159.9000000000033</ele>
        <time>2013-11-09T14:28:32.98</time>
      </trkpt>
      <trkpt lat="38.48078" lon="-1.12658">
        <ele>1157.9000000000033</ele>
        <time>2013-11-09T14:28:33.93</time>
      </trkpt>
      <trkpt lat="38.480845" lon="-1.1265583333333333">
        <ele>1156.1000000000033</ele>
        <time>2013-11-09T14:28:34.98</time>
      </trkpt>
      <trkpt lat="38.4809" lon="-1.1265383333333334">
        <ele>1154.3000000000034</ele>
        <time>2013-11-09T14:28:35.98</time>
      </trkpt>
      <trkpt lat="38.48095" lon="-1.1265183333333333">
        <ele>1152.4000000000033</ele>
        <time>2013-11-09T14:28:36.98</time>
      </trkpt>
      <trkpt lat="38.481" lon="-1.1264983333333334">
        <ele>1150.5000000000032</ele>
        <time>2013-11-09T14:28:37.98</time>
      </trkpt>
      <trkpt lat="38.48105" lon="-1.1264783333333332">
        <ele>1148.3000000000031</ele>
        <time>2013-11-09T14:28:38.94</time>
      </trkpt>
      <trkpt lat="38.481105" lon="-1.126455">
        <ele>1145.8000000000031</ele>
        <time>2013-11-09T14:28:39.98</time>
      </trkpt>
      <trkpt lat="38.48115833333333" lon="-1.1264333333333334">
        <ele>1143.3000000000031</ele>
        <time>2013-11-09T14:28:40.93</time>
      </trkpt>
      <trkpt lat="38.48121666666667" lon="-1.1264066666666666">
        <ele>1140.8000000000031</ele>
        <time>2013-11-09T14:28:41.99</time>
      </trkpt>
      <trkpt lat="38.481276666666666" lon="-1.12638">
        <ele>1138.3000000000031</ele>
        <time>2013-11-09T14:28:42.98</time>
      </trkpt>
      <trkpt lat="38.48133833333333" lon="-1.1263533333333333">
        <ele>1135.7000000000032</ele>
        <time>2013-11-09T14:28:43.98</time>
      </trkpt>
      <trkpt lat="38.481395" lon="-1.12633">
        <ele>1133.4000000000033</ele>
        <time>2013-11-09T14:28:44.94</time>
      </trkpt>
      <trkpt lat="38.481453333333334" lon="-1.1263033333333334">
        <ele>1131.4000000000033</ele>
        <time>2013-11-09T14:28:45.98</time>
      </trkpt>
      <trkpt lat="38.481503333333336" lon="-1.1262766666666666">
        <ele>1129.5000000000032</ele>
        <time>2013-11-09T14:28:46.99</time>
      </trkpt>
      <trkpt lat="38.481555" lon="-1.1262466666666666">
        <ele>1127.3000000000031</ele>
        <time>2013-11-09T14:28:47.99</time>
      </trkpt>
      <trkpt lat="38.481606666666664" lon="-1.12622">
        <ele>1124.7000000000032</ele>
        <time>2013-11-09T14:28:48.98</time>
      </trkpt>
      <trkpt lat="38.48166333333333" lon="-1.126195">
        <ele>1122.2000000000032</ele>
        <time>2013-11-09T14:28:49.98</time>
      </trkpt>
      <trkpt lat="38.48173" lon="-1.1261716666666666">
        <ele>1120.1000000000033</ele>
        <time>2013-11-09T14:28:50.98</time>
      </trkpt>
      <trkpt lat="38.481786666666665" lon="-1.126155">
        <ele>1118.4000000000033</ele>
        <time>2013-11-09T14:28:51.98</time>
      </trkpt>
      <trkpt lat="38.481856666666665" lon="-1.126135">
        <ele>1116.7000000000032</ele>
        <time>2013-11-09T14:28:52.99</time>
      </trkpt>
      <trkpt lat="38.48191333333333" lon="-1.12612">
        <ele>1114.8000000000031</ele>
        <time>2013-11-09T14:28:54.19</time>
      </trkpt>
      <trkpt lat="38.481965" lon="-1.126105">
        <ele>1112.7000000000032</ele>
        <time>2013-11-09T14:28:54.98</time>
      </trkpt>
      <trkpt lat="38.48202333333333" lon="-1.1260933333333334">
        <ele>1110.4000000000033</ele>
        <time>2013-11-09T14:28:55.98</time>
      </trkpt>
      <trkpt lat="38.482085" lon="-1.1260783333333333">
        <ele>1108.1000000000033</ele>
        <time>2013-11-09T14:28:56.98</time>
      </trkpt>
      <trkpt lat="38.482146666666665" lon="-1.1260566666666667">
        <ele>1105.8000000000034</ele>
        <time>2013-11-09T14:28:57.99</time>
      </trkpt>
      <trkpt lat="38.48220833333333" lon="-1.12603">
        <ele>1103.7000000000035</ele>
        <time>2013-11-09T14:28:58.98</time>
      </trkpt>
      <trkpt lat="38.48227333333333" lon="-1.1260033333333332">
        <ele>1101.4000000000035</ele>
        <time>2013-11-09T14:28:59.99</time>
      </trkpt>
      <trkpt lat="38.48233166666667" lon="-1.12598">
        <ele>1099.3000000000036</ele>
        <time>2013-11-09T14:29:00.98</time>
      </trkpt>
      <trkpt lat="38.482391666666665" lon="-1.125955">
        <ele>1097.3000000000036</ele>
        <time>2013-11-09T14:29:01.98</time>
      </trkpt>
      <trkpt lat="38.482456666666664" lon="-1.1259283333333334">
        <ele>1095.2000000000037</ele>
        <time>2013-11-09T14:29:02.99</time>
      </trkpt>
      <trkpt lat="38.48252" lon="-1.1259016666666666">
        <ele>1093.2000000000037</ele>
        <time>2013-11-09T14:29:03.98</time>
      </trkpt>
      <trkpt lat="38.48258" lon="-1.125875">
        <ele>1091.3000000000036</ele>
        <time>2013-11-09T14:29:04.95</time>
      </trkpt>
      <trkpt lat="38.48264" lon="-1.12585">
        <ele>1089.5000000000036</ele>
        <time>2013-11-09T14:29:05.98</time>
      </trkpt>
      <trkpt lat="38.48269833333333" lon="-1.1258266666666668">
        <ele>1087.8000000000036</ele>
        <time>2013-11-09T14:29:06.95</time>
      </trkpt>
      <trkpt lat="38.48276166666667" lon="-1.1258">
        <ele>1085.9000000000035</ele>
        <time>2013-11-09T14:29:07.99</time>
      </trkpt>
      <trkpt lat="38.482818333333334" lon="-1.125775">
        <ele>1083.9000000000035</ele>
        <time>2013-11-09T14:29:08.98</time>
      </trkpt>
      <trkpt lat="38.48287333333333" lon="-1.1257483333333334">
        <ele>1081.8000000000036</ele>
        <time>2013-11-09T14:29:09.98</time>
      </trkpt>
      <trkpt lat="38.482931666666666" lon="-1.1257216666666667">
        <ele>1079.7000000000037</ele>
        <time>2013-11-09T14:29:10.99</time>
      </trkpt>
      <trkpt lat="38.482985" lon="-1.1256966666666668">
        <ele>1077.7000000000037</ele>
        <time>2013-11-09T14:29:12.19</time>
      </trkpt>
      <trkpt lat="38.48305" lon="-1.125665">
        <ele>1075.6000000000038</ele>
        <time>2013-11-09T14:29:12.98</time>
      </trkpt>
      <trkpt lat="38.483126666666664" lon="-1.1256316666666666">
        <ele>1073.5000000000039</ele>
        <time>2013-11-09T14:29:13.98</time>
      </trkpt>
      <trkpt lat="38.4832" lon="-1.1256016666666666">
        <ele>1071.900000000004</ele>
        <time>2013-11-09T14:29:14.98</time>
      </trkpt>
      <trkpt lat="38.48327" lon="-1.12557">
        <ele>1070.700000000004</ele>
        <time>2013-11-09T14:29:15.98</time>
      </trkpt>
      <trkpt lat="38.48334166666667" lon="-1.1255366666666666">
        <ele>1069.5000000000039</ele>
        <time>2013-11-09T14:29:17.29</time>
      </trkpt>
      <trkpt lat="38.48341166666667" lon="-1.1255016666666666">
        <ele>1068.0000000000039</ele>
        <time>2013-11-09T14:29:17.99</time>
      </trkpt>
      <trkpt lat="38.48348" lon="-1.125475">
        <ele>1066.5000000000039</ele>
        <time>2013-11-09T14:29:18.99</time>
      </trkpt>
      <trkpt lat="38.483536666666666" lon="-1.1254516666666667">
        <ele>1065.1000000000038</ele>
        <time>2013-11-09T14:29:19.98</time>
      </trkpt>
      <trkpt lat="38.48359333333333" lon="-1.1254316666666666">
        <ele>1063.5000000000039</ele>
        <time>2013-11-09T14:29:20.98</time>
      </trkpt>
      <trkpt lat="38.483646666666665" lon="-1.1254133333333334">
        <ele>1061.8000000000038</ele>
        <time>2013-11-09T14:29:21.98</time>
      </trkpt>
      <trkpt lat="38.48370166666667" lon="-1.125395">
        <ele>1059.700000000004</ele>
        <time>2013-11-09T14:29:22.95</time>
      </trkpt>
      <trkpt lat="38.483736666666665" lon="-1.1253766666666667">
        <ele>1057.600000000004</ele>
        <time>2013-11-09T14:29:23.99</time>
      </trkpt>
      <trkpt lat="38.483761666666666" lon="-1.125365">
        <ele>1055.800000000004</ele>
        <time>2013-11-09T14:29:24.98</time>
      </trkpt>
      <trkpt lat="38.48381333333333" lon="-1.1253533333333334">
        <ele>1053.800000000004</ele>
        <time>2013-11-09T14:29:25.98</time>
      </trkpt>
      <trkpt lat="38.483848333333334" lon="-1.1253366666666667">
        <ele>1051.900000000004</ele>
        <time>2013-11-09T14:29:26.99</time>
      </trkpt>
      <trkpt lat="38.483885" lon="-1.125305">
        <ele>1050.200000000004</ele>
        <time>2013-11-09T14:29:28.19</time>
      </trkpt>
      <trkpt lat="38.48392666666667" lon="-1.1252716666666667">
        <ele>1048.400000000004</ele>
        <time>2013-11-09T14:29:28.96</time>
      </trkpt>
      <trkpt lat="38.483985" lon="-1.1252333333333333">
        <ele>1046.400000000004</ele>
        <time>2013-11-09T14:29:29.98</time>
      </trkpt>
      <trkpt lat="38.484048333333334" lon="-1.1252016666666667">
        <ele>1044.200000000004</ele>
        <time>2013-11-09T14:29:31.12</time>
      </trkpt>
      <trkpt lat="38.48411" lon="-1.1251716666666667">
        <ele>1042.100000000004</ele>
        <time>2013-11-09T14:29:31.98</time>
      </trkpt>
      <trkpt lat="38.484161666666665" lon="-1.12515">
        <ele>1040.600000000004</ele>
        <time>2013-11-09T14:29:33.99</time>
      </trkpt>
      <trkpt lat="38.48421666666667" lon="-1.1251316666666666">
        <ele>1039.200000000004</ele>
        <time>2013-11-09T14:29:33.99</time>
      </trkpt>
      <trkpt lat="38.48424333333333" lon="-1.12512">
        <ele>1037.700000000004</ele>
        <time>2013-11-09T14:29:35.29</time>
      </trkpt>
      <trkpt lat="38.484273333333334" lon="-1.125105">
        <ele>1036.0000000000039</ele>
        <time>2013-11-09T14:29:35.98</time>
      </trkpt>
      <trkpt lat="38.48431" lon="-1.125085">
        <ele>1034.0000000000039</ele>
        <time>2013-11-09T14:29:36.98</time>
      </trkpt>
      <trkpt lat="38.484355" lon="-1.1250616666666666">
        <ele>1031.8000000000038</ele>
        <time>2013-11-09T14:29:38.19</time>
      </trkpt>
      <trkpt lat="38.484413333333336" lon="-1.1250316666666667">
        <ele>1029.700000000004</ele>
        <time>2013-11-09T14:29:38.98</time>
      </trkpt>
      <trkpt lat="38.484476666666666" lon="-1.125005">
        <ele>1027.600000000004</ele>
        <time>2013-11-09T14:29:39.98</time>
      </trkpt>
      <trkpt lat="38.48453666666666" lon="-1.124985">
        <ele>1025.700000000004</ele>
        <time>2013-11-09T14:29:40.99</time>
      </trkpt>
      <trkpt lat="38.48459166666667" lon="-1.1249683333333333">
        <ele>1023.8000000000039</ele>
        <time>2013-11-09T14:29:41.98</time>
      </trkpt>
      <trkpt lat="38.48464333333333" lon="-1.1249533333333332">
        <ele>1022.000000000004</ele>
        <time>2013-11-09T14:29:42.95</time>
      </trkpt>
      <trkpt lat="38.48468833333333" lon="-1.1249433333333334">
        <ele>1020.600000000004</ele>
        <time>2013-11-09T14:29:43.98</time>
      </trkpt>
      <trkpt lat="38.484735" lon="-1.124935">
        <ele>1019.400000000004</ele>
        <time>2013-11-09T14:29:44.98</time>
      </trkpt>
      <trkpt lat="38.484791666666666" lon="-1.1249233333333333">
        <ele>1018.100000000004</ele>
        <time>2013-11-09T14:29:45.98</time>
      </trkpt>
      <trkpt lat="38.48481666666667" lon="-1.1249233333333333">
        <ele>1016.700000000004</ele>
        <time>2013-11-09T14:29:46.98</time>
      </trkpt>
      <trkpt lat="38.48485" lon="-1.124915">
        <ele>1015.500000000004</ele>
        <time>2013-11-09T14:29:47.95</time>
      </trkpt>
      <trkpt lat="38.48489" lon="-1.1248983333333333">
        <ele>1014.100000000004</ele>
        <time>2013-11-09T14:29:48.98</time>
      </trkpt>
      <trkpt lat="38.484925" lon="-1.1248816666666666">
        <ele>1012.700000000004</ele>
        <time>2013-11-09T14:29:49.99</time>
      </trkpt>
      <trkpt lat="38.48496" lon="-1.1248683333333334">
        <ele>1011.4000000000041</ele>
        <time>2013-11-09T14:29:50.99</time>
      </trkpt>
      <trkpt lat="38.485" lon="-1.1248533333333333">
        <ele>1010.4000000000041</ele>
        <time>2013-11-09T14:29:51.98</time>
      </trkpt>
      <trkpt lat="38.485045" lon="-1.1248366666666667">
        <ele>1009.800000000004</ele>
        <time>2013-11-09T14:29:52.98</time>
      </trkpt>
      <trkpt lat="38.485103333333335" lon="-1.1248166666666666">
        <ele>1009.100000000004</ele>
        <time>2013-11-09T14:29:53.98</time>
      </trkpt>
      <trkpt lat="38.48518166666667" lon="-1.1247933333333333">
        <ele>1007.800000000004</ele>
        <time>2013-11-09T14:29:54.99</time>
      </trkpt>
      <trkpt lat="38.485231666666664" lon="-1.1247783333333334">
        <ele>1006.800000000004</ele>
        <time>2013-11-09T14:29:55.98</time>
      </trkpt>
      <trkpt lat="38.48527333333333" lon="-1.1247683333333334">
        <ele>1006.200000000004</ele>
        <time>2013-11-09T14:29:56.98</time>
      </trkpt>
      <trkpt lat="38.48531666666667" lon="-1.1247566666666666">
        <ele>1005.4000000000041</ele>
        <time>2013-11-09T14:29:57.98</time>
      </trkpt>
      <trkpt lat="38.485368333333334" lon="-1.12474">
        <ele>1004.1000000000041</ele>
        <time>2013-11-09T14:29:58.98</time>
      </trkpt>
      <trkpt lat="38.48541" lon="-1.1247233333333333">
        <ele>1002.9000000000041</ele>
        <time>2013-11-09T14:29:59.99</time>
      </trkpt>
      <trkpt lat="38.485461666666666" lon="-1.1247066666666667">
        <ele>1001.300000000004</ele>
        <time>2013-11-09T14:30:00.98</time>
      </trkpt>
      <trkpt lat="38.48551666666667" lon="-1.1246916666666666">
        <ele>999.9000000000041</ele>
        <time>2013-11-09T14:30:01.98</time>
      </trkpt>
      <trkpt lat="38.48556166666667" lon="-1.12468">
        <ele>998.6000000000041</ele>
        <time>2013-11-09T14:30:02.98</time>
      </trkpt>
      <trkpt lat="38.485605" lon="-1.1246583333333333">
        <ele>997.4000000000041</ele>
        <time>2013-11-09T14:30:03.99</time>
      </trkpt>
      <trkpt lat="38.48565333333333" lon="-1.1246366666666667">
        <ele>996.1000000000041</ele>
        <time>2013-11-09T14:30:04.99</time>
      </trkpt>
      <trkpt lat="38.485708333333335" lon="-1.124615">
        <ele>994.7000000000041</ele>
        <time>2013-11-09T14:30:05.98</time>
      </trkpt>
      <trkpt lat="38.485765" lon="-1.124595">
        <ele>993.3000000000042</ele>
        <time>2013-11-09T14:30:06.98</time>
      </trkpt>
      <trkpt lat="38.485823333333336" lon="-1.1245716666666667">
        <ele>992.8000000000042</ele>
        <time>2013-11-09T14:30:07.98</time>
      </trkpt>
      <trkpt lat="38.48588" lon="-1.124545">
        <ele>992.4000000000042</ele>
        <time>2013-11-09T14:30:08.98</time>
      </trkpt>
      <trkpt lat="38.485931666666666" lon="-1.1245233333333333">
        <ele>992.1000000000042</ele>
        <time>2013-11-09T14:30:09.99</time>
      </trkpt>
      <trkpt lat="38.485975" lon="-1.124525">
        <ele>991.8000000000043</ele>
        <time>2013-11-09T14:30:11.29</time>
      </trkpt>
      <trkpt lat="38.486021666666666" lon="-1.1245283333333334">
        <ele>991.6000000000042</ele>
        <time>2013-11-09T14:30:12.39</time>
      </trkpt>
      <trkpt lat="38.486081666666664" lon="-1.1245233333333333">
        <ele>991.3000000000043</ele>
        <time>2013-11-09T14:30:12.98</time>
      </trkpt>
      <trkpt lat="38.48611" lon="-1.1245183333333333">
        <ele>990.9000000000043</ele>
        <time>2013-11-09T14:30:13.99</time>
      </trkpt>
      <trkpt lat="38.48614666666667" lon="-1.1245083333333334">
        <ele>990.3000000000043</ele>
        <time>2013-11-09T14:30:14.99</time>
      </trkpt>
      <trkpt lat="38.48619" lon="-1.1244966666666667">
        <ele>989.3000000000043</ele>
        <time>2013-11-09T14:30:15.99</time>
      </trkpt>
      <trkpt lat="38.48623333333333" lon="-1.1244816666666666">
        <ele>988.4000000000043</ele>
        <time>2013-11-09T14:30:17.29</time>
      </trkpt>
      <trkpt lat="38.48628" lon="-1.124455">
        <ele>987.5000000000043</ele>
        <time>2013-11-09T14:30:17.98</time>
      </trkpt>
      <trkpt lat="38.486331666666665" lon="-1.1244166666666666">
        <ele>986.9000000000043</ele>
        <time>2013-11-09T14:30:18.98</time>
      </trkpt>
      <trkpt lat="38.48638166666667" lon="-1.1243816666666666">
        <ele>986.5000000000043</ele>
        <time>2013-11-09T14:30:19.98</time>
      </trkpt>
      <trkpt lat="38.48641166666667" lon="-1.1243583333333333">
        <ele>986.4000000000043</ele>
        <time>2013-11-09T14:30:21.59</time>
      </trkpt>
      <trkpt lat="38.486443333333334" lon="-1.12434">
        <ele>986.4000000000043</ele>
        <time>2013-11-09T14:30:21.98</time>
      </trkpt>
      <trkpt lat="38.48647833333333" lon="-1.1243216666666667">
        <ele>986.3000000000043</ele>
        <time>2013-11-09T14:30:22.94</time>
      </trkpt>
      <trkpt lat="38.48651666666667" lon="-1.12431">
        <ele>985.3000000000043</ele>
        <time>2013-11-09T14:30:23.99</time>
      </trkpt>
      <trkpt lat="38.48656666666667" lon="-1.1243016666666668">
        <ele>984.1000000000042</ele>
        <time>2013-11-09T14:30:24.99</time>
      </trkpt>
      <trkpt lat="38.486621666666665" lon="-1.12431">
        <ele>983.0000000000042</ele>
        <time>2013-11-09T14:30:25.99</time>
      </trkpt>
      <trkpt lat="38.48667" lon="-1.1243183333333333">
        <ele>981.9000000000042</ele>
        <time>2013-11-09T14:30:26.99</time>
      </trkpt>
      <trkpt lat="38.486725" lon="-1.1243133333333333">
        <ele>981.0000000000042</ele>
        <time>2013-11-09T14:30:27.94</time>
      </trkpt>
      <trkpt lat="38.48677333333333" lon="-1.12427">
        <ele>980.7000000000043</ele>
        <time>2013-11-09T14:30:28.99</time>
      </trkpt>
      <trkpt lat="38.486825" lon="-1.1242216666666667">
        <ele>980.5000000000042</ele>
        <time>2013-11-09T14:30:29.99</time>
      </trkpt>
      <trkpt lat="38.486871666666666" lon="-1.1241816666666666">
        <ele>980.2000000000043</ele>
        <time>2013-11-09T14:30:30.99</time>
      </trkpt>
      <trkpt lat="38.48692666666667" lon="-1.1241633333333334">
        <ele>979.9000000000043</ele>
        <time>2013-11-09T14:30:31.95</time>
      </trkpt>
      <trkpt lat="38.48697833333333" lon="-1.124145">
        <ele>979.5000000000043</ele>
        <time>2013-11-09T14:30:32.99</time>
      </trkpt>
      <trkpt lat="38.48702" lon="-1.124115">
        <ele>979.1000000000043</ele>
        <time>2013-11-09T14:30:33.99</time>
      </trkpt>
      <trkpt lat="38.487051666666666" lon="-1.1240866666666667">
        <ele>979.0000000000043</ele>
        <time>2013-11-09T14:30:34.95</time>
      </trkpt>
      <trkpt lat="38.48706333333333" lon="-1.1240733333333333">
        <ele>979.0000000000043</ele>
        <time>2013-11-09T14:30:35.94</time>
      </trkpt>
      <trkpt lat="38.48707" lon="-1.124075">
        <ele>979.0000000000043</ele>
        <time>2013-11-09T14:30:36.93</time>
      </trkpt>
      <trkpt lat="38.48708333333333" lon="-1.124075">
        <ele>978.9000000000043</ele>
        <time>2013-11-09T14:30:37.95</time>
      </trkpt>
      <trkpt lat="38.487111666666664" lon="-1.1240716666666666">
        <ele>978.9000000000043</ele>
        <time>2013-11-09T14:30:38.99</time>
      </trkpt>
      <trkpt lat="38.48716666666667" lon="-1.1240483333333333">
        <ele>978.2000000000043</ele>
        <time>2013-11-09T14:30:39.99</time>
      </trkpt>
      <trkpt lat="38.487235" lon="-1.1240133333333333">
        <ele>977.0000000000042</ele>
        <time>2013-11-09T14:30:40.98</time>
      </trkpt>
      <trkpt lat="38.487291666666664" lon="-1.12398">
        <ele>975.5000000000042</ele>
        <time>2013-11-09T14:30:41.98</time>
      </trkpt>
      <trkpt lat="38.487338333333334" lon="-1.1239316666666668">
        <ele>974.2000000000043</ele>
        <time>2013-11-09T14:30:43.19</time>
      </trkpt>
      <trkpt lat="38.487383333333334" lon="-1.1238816666666667">
        <ele>972.9000000000043</ele>
        <time>2013-11-09T14:30:43.99</time>
      </trkpt>
      <trkpt lat="38.48743" lon="-1.1238383333333333">
        <ele>971.6000000000043</ele>
        <time>2013-11-09T14:30:45.29</time>
      </trkpt>
      <trkpt lat="38.487471666666664" lon="-1.1237966666666668">
        <ele>970.1000000000043</ele>
        <time>2013-11-09T14:30:45.99</time>
      </trkpt>
      <trkpt lat="38.48751166666667" lon="-1.1237633333333332">
        <ele>968.6000000000043</ele>
        <time>2013-11-09T14:30:46.98</time>
      </trkpt>
      <trkpt lat="38.487555" lon="-1.1237316666666666">
        <ele>967.2000000000044</ele>
        <time>2013-11-09T14:30:47.98</time>
      </trkpt>
      <trkpt lat="38.48759666666667" lon="-1.1237033333333333">
        <ele>966.0000000000043</ele>
        <time>2013-11-09T14:30:49.19</time>
      </trkpt>
      <trkpt lat="38.487633333333335" lon="-1.1236783333333333">
        <ele>964.9000000000043</ele>
        <time>2013-11-09T14:30:49.98</time>
      </trkpt>
      <trkpt lat="38.487671666666664" lon="-1.123655">
        <ele>964.7000000000043</ele>
        <time>2013-11-09T14:30:50.98</time>
      </trkpt>
      <trkpt lat="38.487715" lon="-1.1236383333333333">
        <ele>964.6000000000042</ele>
        <time>2013-11-09T14:30:51.95</time>
      </trkpt>
      <trkpt lat="38.48776" lon="-1.1236183333333334">
        <ele>963.0000000000042</ele>
        <time>2013-11-09T14:30:52.98</time>
      </trkpt>
      <trkpt lat="38.487805" lon="-1.1235983333333333">
        <ele>961.3000000000042</ele>
        <time>2013-11-09T14:30:53.99</time>
      </trkpt>
      <trkpt lat="38.487845" lon="-1.123585">
        <ele>959.8000000000042</ele>
        <time>2013-11-09T14:30:55.49</time>
      </trkpt>
      <trkpt lat="38.48788666666667" lon="-1.1235833333333334">
        <ele>958.6000000000041</ele>
        <time>2013-11-09T14:30:56.59</time>
      </trkpt>
      <trkpt lat="38.48793" lon="-1.12358">
        <ele>957.5000000000041</ele>
        <time>2013-11-09T14:30:56.98</time>
      </trkpt>
      <trkpt lat="38.48797833333333" lon="-1.1235516666666667">
        <ele>956.800000000004</ele>
        <time>2013-11-09T14:30:57.98</time>
      </trkpt>
      <trkpt lat="38.488031666666664" lon="-1.1235166666666667">
        <ele>956.5000000000041</ele>
        <time>2013-11-09T14:30:58.98</time>
      </trkpt>
      <trkpt lat="38.488065" lon="-1.12347">
        <ele>956.5000000000041</ele>
        <time>2013-11-09T14:30:59.98</time>
      </trkpt>
      <trkpt lat="38.488085" lon="-1.123425">
        <ele>957.2000000000041</ele>
        <time>2013-11-09T14:31:00.98</time>
      </trkpt>
      <trkpt lat="38.48808" lon="-1.123415">
        <ele>957.2000000000041</ele>
        <time>2013-11-09T14:31:01.98</time>
      </trkpt>
      <trkpt lat="38.488078333333334" lon="-1.123395">
        <ele>957.3000000000042</ele>
        <time>2013-11-09T14:31:02.98</time>
      </trkpt>
      <trkpt lat="38.48808833333333" lon="-1.12338">
        <ele>957.3000000000042</ele>
        <time>2013-11-09T14:31:03.98</time>
      </trkpt>
      <trkpt lat="38.4881" lon="-1.12336">
        <ele>956.9000000000042</ele>
        <time>2013-11-09T14:31:04.99</time>
      </trkpt>
      <trkpt lat="38.4881" lon="-1.1234183333333334">
        <ele>956.5</ele>
        <time>2013-11-09T14:31:10.98</time>
      </trkpt>
      <trkpt lat="38.488115" lon="-1.1234383333333333">
        <ele>956.3</ele>
        <time>2013-11-09T14:31:12.19</time>
      </trkpt>
      <trkpt lat="38.48813166666667" lon="-1.1234633333333333">
        <ele>956.1999999999999</ele>
        <time>2013-11-09T14:31:12.99</time>
      </trkpt>
      <trkpt lat="38.48815833333333" lon="-1.1235033333333333">
        <ele>956.0999999999999</ele>
        <time>2013-11-09T14:31:14.9</time>
      </trkpt>
      <trkpt lat="38.488191666666665" lon="-1.1235166666666667">
        <ele>955.8999999999999</ele>
        <time>2013-11-09T14:31:14.99</time>
      </trkpt>
      <trkpt lat="38.488225" lon="-1.1235283333333332">
        <ele>955.6999999999998</ele>
        <time>2013-11-09T14:31:15.98</time>
      </trkpt>
      <trkpt lat="38.488256666666665" lon="-1.1235333333333333">
        <ele>955.4999999999998</ele>
        <time>2013-11-09T14:31:16.98</time>
      </trkpt>
      <trkpt lat="38.48827166666667" lon="-1.1235416666666667">
        <ele>955.3999999999997</ele>
        <time>2013-11-09T14:31:17.99</time>
      </trkpt>
      <trkpt lat="38.48827166666667" lon="-1.1235666666666666">
        <ele>955.2999999999997</ele>
        <time>2013-11-09T14:31:19.49</time>
      </trkpt>
      <trkpt lat="38.48827333333333" lon="-1.1235916666666668">
        <ele>955.2999999999997</ele>
        <time>2013-11-09T14:31:19.99</time>
      </trkpt>
      <trkpt lat="38.48829" lon="-1.1236066666666666">
        <ele>955.1999999999997</ele>
        <time>2013-11-09T14:31:20.98</time>
      </trkpt>
      <trkpt lat="38.488323333333334" lon="-1.1236083333333333">
        <ele>955.1999999999997</ele>
        <time>2013-11-09T14:31:21.99</time>
      </trkpt>
      <trkpt lat="38.48837666666667" lon="-1.1235933333333334">
        <ele>953.7999999999997</ele>
        <time>2013-11-09T14:31:22.99</time>
      </trkpt>
      <trkpt lat="38.48842833333333" lon="-1.12357">
        <ele>952.6999999999997</ele>
        <time>2013-11-09T14:31:23.99</time>
      </trkpt>
      <trkpt lat="38.488475" lon="-1.1235333333333333">
        <ele>952.5999999999997</ele>
        <time>2013-11-09T14:31:24.99</time>
      </trkpt>
      <trkpt lat="38.4885" lon="-1.1235066666666667">
        <ele>952.5999999999997</ele>
        <time>2013-11-09T14:31:25.98</time>
      </trkpt>
      <trkpt lat="38.48851833333333" lon="-1.1234933333333332">
        <ele>952.4999999999997</ele>
        <time>2013-11-09T14:31:26.98</time>
      </trkpt>
      <trkpt lat="38.48853" lon="-1.1234866666666667">
        <ele>952.3999999999996</ele>
        <time>2013-11-09T14:31:27.99</time>
      </trkpt>
      <trkpt lat="38.48854" lon="-1.1234833333333334">
        <ele>952.3999999999996</ele>
        <time>2013-11-09T14:31:28.99</time>
      </trkpt>
      <trkpt lat="38.488548333333334" lon="-1.1234833333333334">
        <ele>952.2999999999996</ele>
        <time>2013-11-09T14:31:29.95</time>
      </trkpt>
      <trkpt lat="38.48855666666667" lon="-1.1234866666666667">
        <ele>952.1999999999996</ele>
        <time>2013-11-09T14:31:30.98</time>
      </trkpt>
      <trkpt lat="38.48857" lon="-1.1234916666666668">
        <ele>952.1999999999996</ele>
        <time>2013-11-09T14:31:31.99</time>
      </trkpt>
      <trkpt lat="38.48858166666667" lon="-1.1234983333333333">
        <ele>952.2999999999996</ele>
        <time>2013-11-09T14:31:32.99</time>
      </trkpt>
      <trkpt lat="38.48859" lon="-1.123505">
        <ele>952.3999999999996</ele>
        <time>2013-11-09T14:31:33.98</time>
      </trkpt>
      <trkpt lat="38.4886" lon="-1.123515">
        <ele>952.4999999999997</ele>
        <time>2013-11-09T14:31:34.98</time>
      </trkpt>
      <trkpt lat="38.48861" lon="-1.1235233333333334">
        <ele>952.6999999999997</ele>
        <time>2013-11-09T14:31:35.94</time>
      </trkpt>
      <trkpt lat="38.48862666666667" lon="-1.123535">
        <ele>952.8999999999997</ele>
        <time>2013-11-09T14:31:36.98</time>
      </trkpt>
      <trkpt lat="38.488663333333335" lon="-1.1235483333333334">
        <ele>953.1999999999997</ele>
        <time>2013-11-09T14:31:37.98</time>
      </trkpt>
      <trkpt lat="38.48869666666667" lon="-1.1235583333333334">
        <ele>953.3999999999997</ele>
        <time>2013-11-09T14:31:38.98</time>
      </trkpt>
      <trkpt lat="38.48873" lon="-1.1235666666666666">
        <ele>953.6999999999997</ele>
        <time>2013-11-09T14:31:39.99</time>
      </trkpt>
      <trkpt lat="38.48876666666666" lon="-1.1235383333333333">
        <ele>953.9999999999997</ele>
        <time>2013-11-09T14:31:41.99</time>
      </trkpt>
      <trkpt lat="38.48878" lon="-1.1234816666666667">
        <ele>954.2999999999996</ele>
        <time>2013-11-09T14:31:42.99</time>
      </trkpt>
      <trkpt lat="38.48880666666667" lon="-1.1234383333333333">
        <ele>957.4999999999997</ele>
        <time>2013-11-09T14:31:43.98</time>
      </trkpt>
      <trkpt lat="38.48884666666667" lon="-1.123405">
        <ele>959.5999999999997</ele>
        <time>2013-11-09T14:31:44.98</time>
      </trkpt>
      <trkpt lat="38.48887" lon="-1.1233866666666668">
        <ele>961.1999999999997</ele>
        <time>2013-11-09T14:31:45.98</time>
      </trkpt>
      <trkpt lat="38.4889" lon="-1.1233783333333334">
        <ele>961.2999999999997</ele>
        <time>2013-11-09T14:31:46.98</time>
      </trkpt>
      <trkpt lat="38.488933333333335" lon="-1.1233783333333334">
        <ele>961.4999999999998</ele>
        <time>2013-11-09T14:31:47.95</time>
      </trkpt>
      <trkpt lat="38.48897" lon="-1.1233666666666666">
        <ele>961.5999999999998</ele>
        <time>2013-11-09T14:31:48.98</time>
      </trkpt>
      <trkpt lat="38.48900666666667" lon="-1.12335">
        <ele>961.7999999999998</ele>
        <time>2013-11-09T14:31:49.98</time>
      </trkpt>
      <trkpt lat="38.489045" lon="-1.1233216666666668">
        <ele>961.9999999999999</ele>
        <time>2013-11-09T14:31:50.98</time>
      </trkpt>
      <trkpt lat="38.489086666666665" lon="-1.1232816666666667">
        <ele>962.1999999999999</ele>
        <time>2013-11-09T14:31:51.95</time>
      </trkpt>
      <trkpt lat="38.48912" lon="-1.1232366666666667">
        <ele>962.4999999999999</ele>
        <time>2013-11-09T14:31:52.99</time>
      </trkpt>
      <trkpt lat="38.48914666666667" lon="-1.1231933333333333">
        <ele>962.7999999999998</ele>
        <time>2013-11-09T14:31:53.98</time>
      </trkpt>
      <trkpt lat="38.48917333333333" lon="-1.1231483333333334">
        <ele>965.4999999999999</ele>
        <time>2013-11-09T14:31:54.98</time>
      </trkpt>
      <trkpt lat="38.489205" lon="-1.123105">
        <ele>967.7999999999998</ele>
        <time>2013-11-09T14:31:55.98</time>
      </trkpt>
      <trkpt lat="38.48924" lon="-1.123055">
        <ele>969.4999999999999</ele>
        <time>2013-11-09T14:31:56.98</time>
      </trkpt>
      <trkpt lat="38.489268333333335" lon="-1.123015">
        <ele>969.6999999999999</ele>
        <time>2013-11-09T14:31:57.98</time>
      </trkpt>
      <trkpt lat="38.489286666666665" lon="-1.1229766666666667">
        <ele>969.9</ele>
        <time>2013-11-09T14:31:58.98</time>
      </trkpt>
      <trkpt lat="38.48932" lon="-1.1229383333333334">
        <ele>972.1</ele>
        <time>2013-11-09T14:31:59.98</time>
      </trkpt>
      <trkpt lat="38.48936166666667" lon="-1.1229016666666667">
        <ele>974.2</ele>
        <time>2013-11-09T14:32:00.98</time>
      </trkpt>
      <trkpt lat="38.48941166666667" lon="-1.122855">
        <ele>976.6</ele>
        <time>2013-11-09T14:32:01.99</time>
      </trkpt>
      <trkpt lat="38.48946333333333" lon="-1.12281">
        <ele>979.1</ele>
        <time>2013-11-09T14:32:02.98</time>
      </trkpt>
      <trkpt lat="38.48951" lon="-1.12277">
        <ele>982.2</ele>
        <time>2013-11-09T14:32:03.98</time>
      </trkpt>
      <trkpt lat="38.48955" lon="-1.122735">
        <ele>985.2</ele>
        <time>2013-11-09T14:32:04.98</time>
      </trkpt>
      <trkpt lat="38.48959166666667" lon="-1.1227016666666667">
        <ele>988.4000000000001</ele>
        <time>2013-11-09T14:32:05.95</time>
      </trkpt>
      <trkpt lat="38.48963" lon="-1.12265">
        <ele>991.5000000000001</ele>
        <time>2013-11-09T14:32:06.98</time>
      </trkpt>
      <trkpt lat="38.48968" lon="-1.12259">
        <ele>994.2000000000002</ele>
        <time>2013-11-09T14:32:07.99</time>
      </trkpt>
      <trkpt lat="38.48972833333333" lon="-1.1225316666666667">
        <ele>996.8000000000002</ele>
        <time>2013-11-09T14:32:08.98</time>
      </trkpt>
      <trkpt lat="38.48977" lon="-1.1224833333333333">
        <ele>999.2000000000002</ele>
        <time>2013-11-09T14:32:09.99</time>
      </trkpt>
      <trkpt lat="38.489808333333336" lon="-1.12243">
        <ele>1001.2000000000002</ele>
        <time>2013-11-09T14:32:10.95</time>
      </trkpt>
      <trkpt lat="38.48985" lon="-1.1223616666666667">
        <ele>1003.2000000000002</ele>
        <time>2013-11-09T14:32:11.94</time>
      </trkpt>
      <trkpt lat="38.489898333333336" lon="-1.122285">
        <ele>1005.4000000000002</ele>
        <time>2013-11-09T14:32:13.19</time>
      </trkpt>
      <trkpt lat="38.48994666666667" lon="-1.1222183333333333">
        <ele>1007.0000000000002</ele>
        <time>2013-11-09T14:32:13.98</time>
      </trkpt>
      <trkpt lat="38.489988333333336" lon="-1.1221666666666668">
        <ele>1008.2000000000003</ele>
        <time>2013-11-09T14:32:14.98</time>
      </trkpt>
      <trkpt lat="38.490021666666664" lon="-1.122145">
        <ele>1009.1000000000003</ele>
        <time>2013-11-09T14:32:15.98</time>
      </trkpt>
      <trkpt lat="38.49006" lon="-1.1221116666666666">
        <ele>1009.7000000000003</ele>
        <time>2013-11-09T14:32:17.29</time>
      </trkpt>
      <trkpt lat="38.490098333333336" lon="-1.122075">
        <ele>1010.3000000000003</ele>
        <time>2013-11-09T14:32:17.99</time>
      </trkpt>
      <trkpt lat="38.49013333333333" lon="-1.1220366666666666">
        <ele>1010.9000000000003</ele>
        <time>2013-11-09T14:32:18.98</time>
      </trkpt>
      <trkpt lat="38.490163333333335" lon="-1.1219983333333334">
        <ele>1011.5000000000003</ele>
        <time>2013-11-09T14:32:19.99</time>
      </trkpt>
      <trkpt lat="38.490195" lon="-1.12196">
        <ele>1011.9000000000003</ele>
        <time>2013-11-09T14:32:20.94</time>
      </trkpt>
      <trkpt lat="38.490228333333334" lon="-1.12192">
        <ele>1012.4000000000003</ele>
        <time>2013-11-09T14:32:21.99</time>
      </trkpt>
      <trkpt lat="38.490265" lon="-1.121875">
        <ele>1012.9000000000003</ele>
        <time>2013-11-09T14:32:22.99</time>
      </trkpt>
      <trkpt lat="38.49030166666667" lon="-1.121835">
        <ele>1013.6000000000004</ele>
        <time>2013-11-09T14:32:23.99</time>
      </trkpt>
      <trkpt lat="38.490338333333334" lon="-1.1218016666666666">
        <ele>1014.3000000000004</ele>
        <time>2013-11-09T14:32:24.95</time>
      </trkpt>
      <trkpt lat="38.49037833333333" lon="-1.12178">
        <ele>1014.3000000000004</ele>
        <time>2013-11-09T14:32:25.98</time>
      </trkpt>
      <trkpt lat="38.49041" lon="-1.1217633333333332">
        <ele>1014.4000000000004</ele>
        <time>2013-11-09T14:32:26.98</time>
      </trkpt>
      <trkpt lat="38.490458333333336" lon="-1.1217416666666666">
        <ele>1014.3000000000004</ele>
        <time>2013-11-09T14:32:27.98</time>
      </trkpt>
      <trkpt lat="38.4905" lon="-1.1217283333333334">
        <ele>1014.4000000000004</ele>
        <time>2013-11-09T14:32:28.98</time>
      </trkpt>
      <trkpt lat="38.49053833333333" lon="-1.121715">
        <ele>1014.4000000000004</ele>
        <time>2013-11-09T14:32:29.98</time>
      </trkpt>
      <trkpt lat="38.49057333333333" lon="-1.1217033333333333">
        <ele>1014.5000000000005</ele>
        <time>2013-11-09T14:32:30.99</time>
      </trkpt>
      <trkpt lat="38.49060166666667" lon="-1.121695">
        <ele>1014.5000000000005</ele>
        <time>2013-11-09T14:32:31.98</time>
      </trkpt>
      <trkpt lat="38.490633333333335" lon="-1.1216883333333334">
        <ele>1014.6000000000005</ele>
        <time>2013-11-09T14:32:32.98</time>
      </trkpt>
      <trkpt lat="38.49066833333333" lon="-1.1216816666666667">
        <ele>1014.6000000000005</ele>
        <time>2013-11-09T14:32:33.98</time>
      </trkpt>
      <trkpt lat="38.49071" lon="-1.1216716666666666">
        <ele>1015.2000000000005</ele>
        <time>2013-11-09T14:32:35.39</time>
      </trkpt>
      <trkpt lat="38.49075333333333" lon="-1.1216483333333334">
        <ele>1015.8000000000005</ele>
        <time>2013-11-09T14:32:35.99</time>
      </trkpt>
      <trkpt lat="38.4908" lon="-1.1216183333333334">
        <ele>1016.4000000000005</ele>
        <time>2013-11-09T14:32:36.99</time>
      </trkpt>
      <trkpt lat="38.490845" lon="-1.1215866666666667">
        <ele>1016.9000000000005</ele>
        <time>2013-11-09T14:32:37.99</time>
      </trkpt>
      <trkpt lat="38.49089" lon="-1.1215583333333334">
        <ele>1017.2000000000005</ele>
        <time>2013-11-09T14:32:38.99</time>
      </trkpt>
      <trkpt lat="38.49093" lon="-1.1215383333333333">
        <ele>1017.4000000000005</ele>
        <time>2013-11-09T14:32:39.99</time>
      </trkpt>
      <trkpt lat="38.49097833333333" lon="-1.121515">
        <ele>1017.3000000000005</ele>
        <time>2013-11-09T14:32:40.94</time>
      </trkpt>
      <trkpt lat="38.49102833333333" lon="-1.1214883333333334">
        <ele>1017.5000000000006</ele>
        <time>2013-11-09T14:32:41.99</time>
      </trkpt>
      <trkpt lat="38.49108" lon="-1.1214583333333332">
        <ele>1018.2000000000006</ele>
        <time>2013-11-09T14:32:42.99</time>
      </trkpt>
      <trkpt lat="38.491121666666665" lon="-1.1214266666666666">
        <ele>1019.6000000000006</ele>
        <time>2013-11-09T14:32:43.99</time>
      </trkpt>
      <trkpt lat="38.49115166666667" lon="-1.121385">
        <ele>1019.7000000000006</ele>
        <time>2013-11-09T14:32:45.49</time>
      </trkpt>
      <trkpt lat="38.49117" lon="-1.12135">
        <ele>1019.9000000000007</ele>
        <time>2013-11-09T14:32:45.99</time>
      </trkpt>
      <trkpt lat="38.49118166666667" lon="-1.1213433333333334">
        <ele>1020.1000000000007</ele>
        <time>2013-11-09T14:32:46.99</time>
      </trkpt>
      <trkpt lat="38.491185" lon="-1.1213516666666667">
        <ele>1020.3000000000008</ele>
        <time>2013-11-09T14:32:47.99</time>
      </trkpt>
      <trkpt lat="38.49120166666667" lon="-1.1213666666666666">
        <ele>1020.6000000000007</ele>
        <time>2013-11-09T14:32:50.29</time>
      </trkpt>
      <trkpt lat="38.491225" lon="-1.1213716666666667">
        <ele>1022.2000000000007</ele>
        <time>2013-11-09T14:32:51.39</time>
      </trkpt>
      <trkpt lat="38.491276666666664" lon="-1.121315">
        <ele>1023.5000000000007</ele>
        <time>2013-11-09T14:32:52.9</time>
      </trkpt>
      <trkpt lat="38.49134333333333" lon="-1.1212416666666667">
        <ele>1024.8000000000006</ele>
        <time>2013-11-09T14:32:52.98</time>
      </trkpt>
      <trkpt lat="38.491398333333336" lon="-1.1211783333333334">
        <ele>1026.1000000000006</ele>
        <time>2013-11-09T14:32:53.99</time>
      </trkpt>
      <trkpt lat="38.49144666666667" lon="-1.1211266666666666">
        <ele>1027.3000000000006</ele>
        <time>2013-11-09T14:32:55.89</time>
      </trkpt>
      <trkpt lat="38.49148666666667" lon="-1.12108">
        <ele>1028.2000000000007</ele>
        <time>2013-11-09T14:32:56.9</time>
      </trkpt>
      <trkpt lat="38.49153" lon="-1.1210316666666666">
        <ele>1029.1000000000008</ele>
        <time>2013-11-09T14:32:56.99</time>
      </trkpt>
      <trkpt lat="38.49157833333334" lon="-1.1209766666666667">
        <ele>1030.000000000001</ele>
        <time>2013-11-09T14:32:57.95</time>
      </trkpt>
      <trkpt lat="38.49162166666667" lon="-1.1209266666666666">
        <ele>1031.400000000001</ele>
        <time>2013-11-09T14:32:58.99</time>
      </trkpt>
      <trkpt lat="38.49165333333333" lon="-1.1208816666666668">
        <ele>1033.000000000001</ele>
        <time>2013-11-09T14:32:59.99</time>
      </trkpt>
      <trkpt lat="38.491686666666666" lon="-1.1208316666666667">
        <ele>1034.1000000000008</ele>
        <time>2013-11-09T14:33:00.99</time>
      </trkpt>
      <trkpt lat="38.49171833333333" lon="-1.12078">
        <ele>1034.1000000000008</ele>
        <time>2013-11-09T14:33:01.98</time>
      </trkpt>
      <trkpt lat="38.491751666666666" lon="-1.120725">
        <ele>1033.6000000000008</ele>
        <time>2013-11-09T14:33:02.99</time>
      </trkpt>
      <trkpt lat="38.49178166666667" lon="-1.1206766666666668">
        <ele>1033.1000000000008</ele>
        <time>2013-11-09T14:33:03.99</time>
      </trkpt>
      <trkpt lat="38.49181166666666" lon="-1.12063">
        <ele>1032.7000000000007</ele>
        <time>2013-11-09T14:33:04.99</time>
      </trkpt>
      <trkpt lat="38.491836666666664" lon="-1.1205916666666667">
        <ele>1032.5000000000007</ele>
        <time>2013-11-09T14:33:05.94</time>
      </trkpt>
      <trkpt lat="38.491863333333335" lon="-1.12056">
        <ele>1032.8000000000006</ele>
        <time>2013-11-09T14:33:06.99</time>
      </trkpt>
      <trkpt lat="38.49189666666667" lon="-1.1205183333333333">
        <ele>1032.9000000000005</ele>
        <time>2013-11-09T14:33:07.99</time>
      </trkpt>
      <trkpt lat="38.49193666666667" lon="-1.12047">
        <ele>1033.6000000000006</ele>
        <time>2013-11-09T14:33:08.99</time>
      </trkpt>
      <trkpt lat="38.491973333333334" lon="-1.1204283333333334">
        <ele>1034.6000000000006</ele>
        <time>2013-11-09T14:33:10.19</time>
      </trkpt>
      <trkpt lat="38.492005" lon="-1.1203866666666666">
        <ele>1035.9000000000005</ele>
        <time>2013-11-09T14:33:10.99</time>
      </trkpt>
      <trkpt lat="38.49202" lon="-1.1203616666666667">
        <ele>1036.0000000000005</ele>
        <time>2013-11-09T14:33:11.94</time>
      </trkpt>
      <trkpt lat="38.49203" lon="-1.1203316666666667">
        <ele>1037.1000000000004</ele>
        <time>2013-11-09T14:33:13.39</time>
      </trkpt>
      <trkpt lat="38.492041666666665" lon="-1.1203016666666668">
        <ele>1037.2000000000003</ele>
        <time>2013-11-09T14:33:13.99</time>
      </trkpt>
      <trkpt lat="38.492055" lon="-1.1202733333333332">
        <ele>1037.3000000000002</ele>
        <time>2013-11-09T14:33:14.99</time>
      </trkpt>
      <trkpt lat="38.49207" lon="-1.1202566666666667">
        <ele>1037.4</ele>
        <time>2013-11-09T14:33:15.98</time>
      </trkpt>
      <trkpt lat="38.492088333333335" lon="-1.12025">
        <ele>1037.5</ele>
        <time>2013-11-09T14:33:17.79</time>
      </trkpt>
      <trkpt lat="38.4921" lon="-1.12025">
        <ele>1037.7</ele>
        <time>2013-11-09T14:33:18.9</time>
      </trkpt>
      <trkpt lat="38.49213" lon="-1.1202683333333334">
        <ele>1038.9</ele>
        <time>2013-11-09T14:33:22.99</time>
      </trkpt>
      <trkpt lat="38.49216333333333" lon="-1.1202766666666666">
        <ele>1039.2</ele>
        <time>2013-11-09T14:33:23.98</time>
      </trkpt>
      <trkpt lat="38.492195" lon="-1.120295">
        <ele>1039.5</ele>
        <time>2013-11-09T14:33:24.99</time>
      </trkpt>
      <trkpt lat="38.492225" lon="-1.1203166666666666">
        <ele>1039.9</ele>
        <time>2013-11-09T14:33:25.99</time>
      </trkpt>
      <trkpt lat="38.49225166666667" lon="-1.1203316666666667">
        <ele>1040.2</ele>
        <time>2013-11-09T14:33:26.99</time>
      </trkpt>
      <trkpt lat="38.49228166666666" lon="-1.1203266666666667">
        <ele>1040.6000000000001</ele>
        <time>2013-11-09T14:33:28.59</time>
      </trkpt>
      <trkpt lat="38.492313333333335" lon="-1.1203">
        <ele>1040.9</ele>
        <time>2013-11-09T14:33:28.94</time>
      </trkpt>
      <trkpt lat="38.49234333333333" lon="-1.1202666666666667">
        <ele>1041.3000000000002</ele>
        <time>2013-11-09T14:33:29.98</time>
      </trkpt>
      <trkpt lat="38.49237" lon="-1.12024">
        <ele>1041.7000000000003</ele>
        <time>2013-11-09T14:33:30.99</time>
      </trkpt>
      <trkpt lat="38.492405" lon="-1.1202266666666667">
        <ele>1042.0000000000002</ele>
        <time>2013-11-09T14:33:31.99</time>
      </trkpt>
      <trkpt lat="38.49243666666667" lon="-1.120215">
        <ele>1042.4000000000003</ele>
        <time>2013-11-09T14:33:32.99</time>
      </trkpt>
      <trkpt lat="38.49247" lon="-1.1202016666666668">
        <ele>1042.7000000000003</ele>
        <time>2013-11-09T14:33:34.79</time>
      </trkpt>
      <trkpt lat="38.492495" lon="-1.1201883333333333">
        <ele>1043.1000000000004</ele>
        <time>2013-11-09T14:33:34.99</time>
      </trkpt>
      <trkpt lat="38.492513333333335" lon="-1.1201833333333333">
        <ele>1043.4000000000003</ele>
        <time>2013-11-09T14:33:35.94</time>
      </trkpt>
      <trkpt lat="38.49254" lon="-1.1202016666666668">
        <ele>1043.8000000000004</ele>
        <time>2013-11-09T14:33:36.99</time>
      </trkpt>
      <trkpt lat="38.492578333333334" lon="-1.1202166666666666">
        <ele>1047.5000000000005</ele>
        <time>2013-11-09T14:33:37.98</time>
      </trkpt>
      <trkpt lat="38.492628333333336" lon="-1.1202166666666666">
        <ele>1051.1000000000004</ele>
        <time>2013-11-09T14:33:38.99</time>
      </trkpt>
      <trkpt lat="38.492673333333336" lon="-1.120215">
        <ele>1054.4000000000003</ele>
        <time>2013-11-09T14:33:39.99</time>
      </trkpt>
      <trkpt lat="38.492715" lon="-1.12021">
        <ele>1057.5000000000002</ele>
        <time>2013-11-09T14:33:40.99</time>
      </trkpt>
      <trkpt lat="38.49275" lon="-1.1202016666666668">
        <ele>1060.2000000000003</ele>
        <time>2013-11-09T14:33:41.98</time>
      </trkpt>
      <trkpt lat="38.492776666666664" lon="-1.120175">
        <ele>1062.4000000000003</ele>
        <time>2013-11-09T14:33:42.98</time>
      </trkpt>
      <trkpt lat="38.49281333333333" lon="-1.12014">
        <ele>1064.1000000000004</ele>
        <time>2013-11-09T14:33:43.98</time>
      </trkpt>
      <trkpt lat="38.49286" lon="-1.120095">
        <ele>1065.5000000000005</ele>
        <time>2013-11-09T14:33:44.99</time>
      </trkpt>
      <trkpt lat="38.49292333333333" lon="-1.1200383333333332">
        <ele>1066.4000000000005</ele>
        <time>2013-11-09T14:33:45.99</time>
      </trkpt>
      <trkpt lat="38.49299833333333" lon="-1.1199683333333332">
        <ele>1067.6000000000006</ele>
        <time>2013-11-09T14:33:46.99</time>
      </trkpt>
      <trkpt lat="38.49308" lon="-1.1198933333333334">
        <ele>1069.1000000000006</ele>
        <time>2013-11-09T14:33:47.98</time>
      </trkpt>
      <trkpt lat="38.49315166666667" lon="-1.11983">
        <ele>1071.1000000000006</ele>
        <time>2013-11-09T14:33:48.98</time>
      </trkpt>
      <trkpt lat="38.49321333333334" lon="-1.1197733333333333">
        <ele>1073.3000000000006</ele>
        <time>2013-11-09T14:33:50.39</time>
      </trkpt>
      <trkpt lat="38.49325833333333" lon="-1.1197183333333334">
        <ele>1075.7000000000007</ele>
        <time>2013-11-09T14:33:50.99</time>
      </trkpt>
      <trkpt lat="38.493296666666666" lon="-1.119635">
        <ele>1077.9000000000008</ele>
        <time>2013-11-09T14:33:51.99</time>
      </trkpt>
      <trkpt lat="38.493341666666666" lon="-1.1195316666666666">
        <ele>1079.5000000000007</ele>
        <time>2013-11-09T14:33:52.98</time>
      </trkpt>
      <trkpt lat="38.49339" lon="-1.1194233333333334">
        <ele>1080.9000000000008</ele>
        <time>2013-11-09T14:33:53.99</time>
      </trkpt>
      <trkpt lat="38.493433333333336" lon="-1.1193266666666666">
        <ele>1083.0000000000007</ele>
        <time>2013-11-09T14:33:55.9</time>
      </trkpt>
      <trkpt lat="38.493475" lon="-1.119235">
        <ele>1085.6000000000006</ele>
        <time>2013-11-09T14:33:55.99</time>
      </trkpt>
      <trkpt lat="38.493515" lon="-1.1191433333333334">
        <ele>1087.7000000000005</ele>
        <time>2013-11-09T14:33:56.98</time>
      </trkpt>
      <trkpt lat="38.49354666666667" lon="-1.119065">
        <ele>1089.0000000000005</ele>
        <time>2013-11-09T14:33:57.98</time>
      </trkpt>
      <trkpt lat="38.49358333333333" lon="-1.1190133333333334">
        <ele>1089.7000000000005</ele>
        <time>2013-11-09T14:33:58.99</time>
      </trkpt>
      <trkpt lat="38.49362166666667" lon="-1.1189666666666667">
        <ele>1090.0000000000005</ele>
        <time>2013-11-09T14:33:59.98</time>
      </trkpt>
      <trkpt lat="38.49365" lon="-1.11894">
        <ele>1092.0000000000005</ele>
        <time>2013-11-09T14:34:00.99</time>
      </trkpt>
      <trkpt lat="38.493698333333334" lon="-1.1188916666666666">
        <ele>1093.8000000000004</ele>
        <time>2013-11-09T14:34:01.99</time>
      </trkpt>
      <trkpt lat="38.49375333333333" lon="-1.1188333333333333">
        <ele>1095.4000000000003</ele>
        <time>2013-11-09T14:34:02.99</time>
      </trkpt>
      <trkpt lat="38.49382" lon="-1.1187716666666667">
        <ele>1096.9000000000003</ele>
        <time>2013-11-09T14:34:03.95</time>
      </trkpt>
      <trkpt lat="38.493883333333336" lon="-1.118715">
        <ele>1098.6000000000004</ele>
        <time>2013-11-09T14:34:05.19</time>
      </trkpt>
      <trkpt lat="38.493946666666666" lon="-1.1186583333333333">
        <ele>1099.8000000000004</ele>
        <time>2013-11-09T14:34:06.9</time>
      </trkpt>
      <trkpt lat="38.49399833333333" lon="-1.1186133333333332">
        <ele>1101.0000000000005</ele>
        <time>2013-11-09T14:34:06.99</time>
      </trkpt>
      <trkpt lat="38.494055" lon="-1.118565">
        <ele>1101.9000000000005</ele>
        <time>2013-11-09T14:34:07.99</time>
      </trkpt>
      <trkpt lat="38.49410666666667" lon="-1.1185233333333333">
        <ele>1102.1000000000006</ele>
        <time>2013-11-09T14:34:08.99</time>
      </trkpt>
      <trkpt lat="38.49415666666667" lon="-1.1184833333333333">
        <ele>1102.1000000000006</ele>
        <time>2013-11-09T14:34:09.99</time>
      </trkpt>
      <trkpt lat="38.494195" lon="-1.1184216666666666">
        <ele>1102.1000000000006</ele>
        <time>2013-11-09T14:34:10.99</time>
      </trkpt>
      <trkpt lat="38.49422833333333" lon="-1.1183616666666667">
        <ele>1102.0000000000007</ele>
        <time>2013-11-09T14:34:11.95</time>
      </trkpt>
      <trkpt lat="38.494263333333336" lon="-1.1183016666666667">
        <ele>1101.2000000000007</ele>
        <time>2013-11-09T14:34:12.99</time>
      </trkpt>
      <trkpt lat="38.494305" lon="-1.1182316666666667">
        <ele>1100.1000000000008</ele>
        <time>2013-11-09T14:34:14.79</time>
      </trkpt>
      <trkpt lat="38.494366666666664" lon="-1.11817">
        <ele>1099.1000000000008</ele>
        <time>2013-11-09T14:34:14.99</time>
      </trkpt>
      <trkpt lat="38.49442833333333" lon="-1.1181133333333333">
        <ele>1098.2000000000007</ele>
        <time>2013-11-09T14:34:15.99</time>
      </trkpt>
      <trkpt lat="38.49447833333333" lon="-1.1180616666666667">
        <ele>1097.5000000000007</ele>
        <time>2013-11-09T14:34:17.69</time>
      </trkpt>
      <trkpt lat="38.494515" lon="-1.1180083333333333">
        <ele>1097.1000000000006</ele>
        <time>2013-11-09T14:34:17.98</time>
      </trkpt>
      <trkpt lat="38.49453" lon="-1.117995">
        <ele>1097.1000000000006</ele>
        <time>2013-11-09T14:34:18.98</time>
      </trkpt>
      <trkpt lat="38.494528333333335" lon="-1.11802">
        <ele>1097.1000000000006</ele>
        <time>2013-11-09T14:34:20.99</time>
      </trkpt>
      <trkpt lat="38.494525" lon="-1.1180433333333333">
        <ele>1097.2000000000005</ele>
        <time>2013-11-09T14:34:21.99</time>
      </trkpt>
      <trkpt lat="38.494535" lon="-1.1180783333333333">
        <ele>1097.2000000000005</ele>
        <time>2013-11-09T14:34:22.99</time>
      </trkpt>
      <trkpt lat="38.494566666666664" lon="-1.118105">
        <ele>1097.7000000000005</ele>
        <time>2013-11-09T14:34:23.99</time>
      </trkpt>
      <trkpt lat="38.494615" lon="-1.1181">
        <ele>1098.6000000000006</ele>
        <time>2013-11-09T14:34:24.99</time>
      </trkpt>
      <trkpt lat="38.49467" lon="-1.118095">
        <ele>1100.8000000000006</ele>
        <time>2013-11-09T14:34:25.99</time>
      </trkpt>
      <trkpt lat="38.494726666666665" lon="-1.11806">
        <ele>1102.8000000000006</ele>
        <time>2013-11-09T14:34:26.99</time>
      </trkpt>
      <trkpt lat="38.49477666666667" lon="-1.1180283333333334">
        <ele>1104.6000000000006</ele>
        <time>2013-11-09T14:34:27.99</time>
      </trkpt>
      <trkpt lat="38.494823333333336" lon="-1.1179916666666667">
        <ele>1106.0000000000007</ele>
        <time>2013-11-09T14:34:28.99</time>
      </trkpt>
      <trkpt lat="38.49487333333333" lon="-1.117955">
        <ele>1107.2000000000007</ele>
        <time>2013-11-09T14:34:29.99</time>
      </trkpt>
      <trkpt lat="38.49494" lon="-1.11791">
        <ele>1107.8000000000006</ele>
        <time>2013-11-09T14:34:30.99</time>
      </trkpt>
      <trkpt lat="38.49501" lon="-1.11786">
        <ele>1108.3000000000006</ele>
        <time>2013-11-09T14:34:31.93</time>
      </trkpt>
      <trkpt lat="38.495075" lon="-1.1178016666666666">
        <ele>1108.4000000000005</ele>
        <time>2013-11-09T14:34:32.99</time>
      </trkpt>
      <trkpt lat="38.495125" lon="-1.1177483333333333">
        <ele>1108.4000000000005</ele>
        <time>2013-11-09T14:34:33.99</time>
      </trkpt>
      <trkpt lat="38.49516833333333" lon="-1.1177033333333333">
        <ele>1108.1000000000006</ele>
        <time>2013-11-09T14:34:34.99</time>
      </trkpt>
      <trkpt lat="38.495205" lon="-1.117665">
        <ele>1107.6000000000006</ele>
        <time>2013-11-09T14:34:35.99</time>
      </trkpt>
      <trkpt lat="38.49525" lon="-1.1176183333333334">
        <ele>1107.2000000000005</ele>
        <time>2013-11-09T14:34:36.99</time>
      </trkpt>
      <trkpt lat="38.49529833333333" lon="-1.1175733333333333">
        <ele>1106.8000000000004</ele>
        <time>2013-11-09T14:34:37.99</time>
      </trkpt>
      <trkpt lat="38.495356666666666" lon="-1.1175233333333334">
        <ele>1106.1000000000004</ele>
        <time>2013-11-09T14:34:38.99</time>
      </trkpt>
      <trkpt lat="38.49541333333333" lon="-1.117475">
        <ele>1105.0000000000005</ele>
        <time>2013-11-09T14:34:39.99</time>
      </trkpt>
      <trkpt lat="38.49547166666667" lon="-1.117425">
        <ele>1104.0000000000005</ele>
        <time>2013-11-09T14:34:40.99</time>
      </trkpt>
      <trkpt lat="38.49552166666667" lon="-1.1173816666666667">
        <ele>1103.3000000000004</ele>
        <time>2013-11-09T14:34:41.99</time>
      </trkpt>
      <trkpt lat="38.49557166666666" lon="-1.1173366666666666">
        <ele>1102.6000000000004</ele>
        <time>2013-11-09T14:34:42.99</time>
      </trkpt>
      <trkpt lat="38.49563166666667" lon="-1.1172883333333334">
        <ele>1102.3000000000004</ele>
        <time>2013-11-09T14:34:43.99</time>
      </trkpt>
      <trkpt lat="38.49570166666667" lon="-1.11723">
        <ele>1102.0000000000005</ele>
        <time>2013-11-09T14:34:44.99</time>
      </trkpt>
      <trkpt lat="38.495775" lon="-1.1171633333333333">
        <ele>1101.7000000000005</ele>
        <time>2013-11-09T14:34:45.99</time>
      </trkpt>
      <trkpt lat="38.49583166666667" lon="-1.117105">
        <ele>1101.2000000000005</ele>
        <time>2013-11-09T14:34:46.99</time>
      </trkpt>
      <trkpt lat="38.495886666666664" lon="-1.1170516666666668">
        <ele>1101.0000000000005</ele>
        <time>2013-11-09T14:34:47.99</time>
      </trkpt>
      <trkpt lat="38.49594" lon="-1.1170016666666667">
        <ele>1100.9000000000005</ele>
        <time>2013-11-09T14:34:48.99</time>
      </trkpt>
      <trkpt lat="38.496001666666665" lon="-1.1169466666666668">
        <ele>1100.9000000000005</ele>
        <time>2013-11-09T14:34:50.9</time>
      </trkpt>
      <trkpt lat="38.496071666666666" lon="-1.116885">
        <ele>1101.0000000000005</ele>
        <time>2013-11-09T14:34:50.99</time>
      </trkpt>
      <trkpt lat="38.49614833333333" lon="-1.1168166666666666">
        <ele>1100.9000000000005</ele>
        <time>2013-11-09T14:34:51.99</time>
      </trkpt>
      <trkpt lat="38.496226666666665" lon="-1.1167516666666666">
        <ele>1100.5000000000005</ele>
        <time>2013-11-09T14:34:52.99</time>
      </trkpt>
      <trkpt lat="38.49630333333333" lon="-1.1166916666666666">
        <ele>1100.0000000000005</ele>
        <time>2013-11-09T14:34:54.49</time>
      </trkpt>
      <trkpt lat="38.496383333333334" lon="-1.116625">
        <ele>1099.2000000000005</ele>
        <time>2013-11-09T14:34:55.9</time>
      </trkpt>
      <trkpt lat="38.49645666666667" lon="-1.1165633333333334">
        <ele>1098.5000000000005</ele>
        <time>2013-11-09T14:34:55.99</time>
      </trkpt>
      <trkpt lat="38.49652666666667" lon="-1.116505">
        <ele>1098.1000000000004</ele>
        <time>2013-11-09T14:34:56.99</time>
      </trkpt>
      <trkpt lat="38.49659833333333" lon="-1.1164483333333333">
        <ele>1097.6000000000004</ele>
        <time>2013-11-09T14:34:57.99</time>
      </trkpt>
      <trkpt lat="38.496671666666664" lon="-1.116395">
        <ele>1097.0000000000005</ele>
        <time>2013-11-09T14:34:58.99</time>
      </trkpt>
      <trkpt lat="38.49675" lon="-1.1163416666666666">
        <ele>1096.4000000000005</ele>
        <time>2013-11-09T14:35:00.9</time>
      </trkpt>
      <trkpt lat="38.496825" lon="-1.1162933333333334">
        <ele>1096.0000000000005</ele>
        <time>2013-11-09T14:35:00.99</time>
      </trkpt>
      <trkpt lat="38.496898333333334" lon="-1.1162466666666666">
        <ele>1095.6000000000004</ele>
        <time>2013-11-09T14:35:01.99</time>
      </trkpt>
      <trkpt lat="38.49697333333334" lon="-1.1161983333333334">
        <ele>1095.4000000000003</ele>
        <time>2013-11-09T14:35:03.9</time>
      </trkpt>
      <trkpt lat="38.49704833333333" lon="-1.1161483333333333">
        <ele>1095.3000000000004</ele>
        <time>2013-11-09T14:35:03.99</time>
      </trkpt>
      <trkpt lat="38.497125" lon="-1.1160933333333334">
        <ele>1095.2000000000005</ele>
        <time>2013-11-09T14:35:05.9</time>
      </trkpt>
      <trkpt lat="38.49719" lon="-1.1160383333333332">
        <ele>1095.2000000000005</ele>
        <time>2013-11-09T14:35:05.99</time>
      </trkpt>
      <trkpt lat="38.49725333333333" lon="-1.115985">
        <ele>1095.0000000000005</ele>
        <time>2013-11-09T14:35:07.9</time>
      </trkpt>
      <trkpt lat="38.497326666666666" lon="-1.115925">
        <ele>1094.9000000000005</ele>
        <time>2013-11-09T14:35:07.99</time>
      </trkpt>
      <trkpt lat="38.497405" lon="-1.1158666666666666">
        <ele>1094.8000000000006</ele>
        <time>2013-11-09T14:35:09</time>
      </trkpt>
      <trkpt lat="38.49748" lon="-1.1158066666666666">
        <ele>1094.7000000000007</ele>
        <time>2013-11-09T14:35:09.99</time>
      </trkpt>
      <trkpt lat="38.49754166666666" lon="-1.1157483333333333">
        <ele>1095.0000000000007</ele>
        <time>2013-11-09T14:35:10.99</time>
      </trkpt>
      <trkpt lat="38.497598333333336" lon="-1.1156916666666667">
        <ele>1095.0000000000007</ele>
        <time>2013-11-09T14:35:12.79</time>
      </trkpt>
      <trkpt lat="38.49765333333333" lon="-1.115635">
        <ele>1095.2000000000007</ele>
        <time>2013-11-09T14:35:12.99</time>
      </trkpt>
      <trkpt lat="38.497695" lon="-1.11559">
        <ele>1096.3000000000006</ele>
        <time>2013-11-09T14:35:14.9</time>
      </trkpt>
      <trkpt lat="38.497746666666664" lon="-1.1155316666666666">
        <ele>1097.6000000000006</ele>
        <time>2013-11-09T14:35:14.99</time>
      </trkpt>
      <trkpt lat="38.49781333333333" lon="-1.11546">
        <ele>1098.5000000000007</ele>
        <time>2013-11-09T14:35:15.99</time>
      </trkpt>
      <trkpt lat="38.497885" lon="-1.1153916666666666">
        <ele>1099.5000000000007</ele>
        <time>2013-11-09T14:35:16.99</time>
      </trkpt>
      <trkpt lat="38.49796666666667" lon="-1.1153166666666667">
        <ele>1100.4000000000008</ele>
        <time>2013-11-09T14:35:17.99</time>
      </trkpt>
      <trkpt lat="38.49804" lon="-1.115245">
        <ele>1101.3000000000009</ele>
        <time>2013-11-09T14:35:18.99</time>
      </trkpt>
      <trkpt lat="38.49809833333333" lon="-1.11519">
        <ele>1102.700000000001</ele>
        <time>2013-11-09T14:35:20.9</time>
      </trkpt>
      <trkpt lat="38.498158333333336" lon="-1.1151266666666666">
        <ele>1103.900000000001</ele>
        <time>2013-11-09T14:35:20.95</time>
      </trkpt>
      <trkpt lat="38.498205" lon="-1.1150716666666667">
        <ele>1104.700000000001</ele>
        <time>2013-11-09T14:35:21.99</time>
      </trkpt>
      <trkpt lat="38.49824666666667" lon="-1.1150233333333333">
        <ele>1105.3000000000009</ele>
        <time>2013-11-09T14:35:22.99</time>
      </trkpt>
      <trkpt lat="38.498285" lon="-1.1149783333333334">
        <ele>1105.9000000000008</ele>
        <time>2013-11-09T14:35:23.99</time>
      </trkpt>
      <trkpt lat="38.49832" lon="-1.1149316666666667">
        <ele>1106.6000000000008</ele>
        <time>2013-11-09T14:35:24.99</time>
      </trkpt>
      <trkpt lat="38.498358333333336" lon="-1.1148833333333332">
        <ele>1107.4000000000008</ele>
        <time>2013-11-09T14:35:25.99</time>
      </trkpt>
      <trkpt lat="38.498403333333336" lon="-1.1148366666666667">
        <ele>1108.3000000000009</ele>
        <time>2013-11-09T14:35:26.97</time>
      </trkpt>
      <trkpt lat="38.49845166666667" lon="-1.1147933333333333">
        <ele>1109.4000000000008</ele>
        <time>2013-11-09T14:35:27.99</time>
      </trkpt>
      <trkpt lat="38.4985" lon="-1.1147666666666667">
        <ele>1110.8000000000009</ele>
        <time>2013-11-09T14:35:28.99</time>
      </trkpt>
      <trkpt lat="38.49856" lon="-1.114755">
        <ele>1112.4000000000008</ele>
        <time>2013-11-09T14:35:29.99</time>
      </trkpt>
      <trkpt lat="38.498615" lon="-1.1147516666666666">
        <ele>1114.3000000000009</ele>
        <time>2013-11-09T14:35:31.9</time>
      </trkpt>
      <trkpt lat="38.49866333333333" lon="-1.114745">
        <ele>1116.4000000000008</ele>
        <time>2013-11-09T14:35:31.99</time>
      </trkpt>
      <trkpt lat="38.49872166666667" lon="-1.1147033333333334">
        <ele>1118.4000000000008</ele>
        <time>2013-11-09T14:35:33.9</time>
      </trkpt>
      <trkpt lat="38.498785" lon="-1.1146533333333333">
        <ele>1120.4000000000008</ele>
        <time>2013-11-09T14:35:33.99</time>
      </trkpt>
      <trkpt lat="38.49885166666667" lon="-1.1145966666666667">
        <ele>1122.8000000000009</ele>
        <time>2013-11-09T14:35:34.99</time>
      </trkpt>
      <trkpt lat="38.498911666666665" lon="-1.1145516666666666">
        <ele>1125.500000000001</ele>
        <time>2013-11-09T14:35:35.99</time>
      </trkpt>
      <trkpt lat="38.49895" lon="-1.1145266666666667">
        <ele>1129.400000000001</ele>
        <time>2013-11-09T14:35:36.99</time>
      </trkpt>
      <trkpt lat="38.498995" lon="-1.11449">
        <ele>1133.100000000001</ele>
        <time>2013-11-09T14:35:37.99</time>
      </trkpt>
      <trkpt lat="38.49903" lon="-1.11448">
        <ele>1133.5000000000011</ele>
        <time>2013-11-09T14:35:38.98</time>
      </trkpt>
      <trkpt lat="38.499053333333336" lon="-1.1144883333333333">
        <ele>1133.800000000001</ele>
        <time>2013-11-09T14:35:39.99</time>
      </trkpt>
      <trkpt lat="38.49907" lon="-1.114555">
        <ele>1137.400000000001</ele>
        <time>2013-11-09T14:35:40.98</time>
      </trkpt>
      <trkpt lat="38.49907833333334" lon="-1.1146316666666667">
        <ele>1140.200000000001</ele>
        <time>2013-11-09T14:35:41.94</time>
      </trkpt>
      <trkpt lat="38.499065" lon="-1.1147166666666666">
        <ele>1143.400000000001</ele>
        <time>2013-11-09T14:35:42.99</time>
      </trkpt>
      <trkpt lat="38.49903666666667" lon="-1.1148166666666666">
        <ele>1145.700000000001</ele>
        <time>2013-11-09T14:35:43.93</time>
      </trkpt>
      <trkpt lat="38.498961666666666" lon="-1.114915">
        <ele>1149.600000000001</ele>
        <time>2013-11-09T14:35:44.98</time>
      </trkpt>
      <trkpt lat="38.49884333333333" lon="-1.1149466666666668">
        <ele>1153.800000000001</ele>
        <time>2013-11-09T14:35:45.98</time>
      </trkpt>
      <trkpt lat="38.49870666666666" lon="-1.1149566666666666">
        <ele>1158.100000000001</ele>
        <time>2013-11-09T14:35:46.98</time>
      </trkpt>
      <trkpt lat="38.49854166666667" lon="-1.1149016666666667">
        <ele>1162.400000000001</ele>
        <time>2013-11-09T14:35:48.69</time>
      </trkpt>
      <trkpt lat="38.49837" lon="-1.1148383333333334">
        <ele>1166.100000000001</ele>
        <time>2013-11-09T14:35:48.98</time>
      </trkpt>
      <trkpt lat="38.498266666666666" lon="-1.1146966666666667">
        <ele>1169.700000000001</ele>
        <time>2013-11-09T14:35:49.99</time>
      </trkpt>
      <trkpt lat="38.49819" lon="-1.1145233333333333">
        <ele>1172.600000000001</ele>
        <time>2013-11-09T14:35:50.98</time>
      </trkpt>
      <trkpt lat="38.49813" lon="-1.1143583333333333">
        <ele>1175.100000000001</ele>
        <time>2013-11-09T14:35:52.49</time>
      </trkpt>
      <trkpt lat="38.49811666666667" lon="-1.114175">
        <ele>1177.300000000001</ele>
        <time>2013-11-09T14:35:52.96</time>
      </trkpt>
      <trkpt lat="38.49814333333333" lon="-1.114025">
        <ele>1179.800000000001</ele>
        <time>2013-11-09T14:35:53.98</time>
      </trkpt>
      <trkpt lat="38.498178333333335" lon="-1.113885">
        <ele>1182.400000000001</ele>
        <time>2013-11-09T14:35:54.98</time>
      </trkpt>
      <trkpt lat="38.49822" lon="-1.1137833333333333">
        <ele>1185.000000000001</ele>
        <time>2013-11-09T14:35:56.9</time>
      </trkpt>
      <trkpt lat="38.49825333333333" lon="-1.1136966666666666">
        <ele>1187.400000000001</ele>
        <time>2013-11-09T14:35:56.98</time>
      </trkpt>
      <trkpt lat="38.498285" lon="-1.1136233333333334">
        <ele>1189.800000000001</ele>
        <time>2013-11-09T14:35:57.98</time>
      </trkpt>
      <trkpt lat="38.49831666666667" lon="-1.1135666666666666">
        <ele>1192.300000000001</ele>
        <time>2013-11-09T14:35:58.93</time>
      </trkpt>
      <trkpt lat="38.49835" lon="-1.1135283333333332">
        <ele>1195.100000000001</ele>
        <time>2013-11-09T14:35:59.98</time>
      </trkpt>
      <trkpt lat="38.49838166666667" lon="-1.11351">
        <ele>1197.800000000001</ele>
        <time>2013-11-09T14:36:00.92</time>
      </trkpt>
      <trkpt lat="38.498396666666665" lon="-1.1134766666666667">
        <ele>1198.0000000000011</ele>
        <time>2013-11-09T14:36:01.98</time>
      </trkpt>
      <trkpt lat="38.498415" lon="-1.1134483333333334">
        <ele>1198.300000000001</ele>
        <time>2013-11-09T14:36:02.94</time>
      </trkpt>
      <trkpt lat="38.49844" lon="-1.1134416666666667">
        <ele>1198.600000000001</ele>
        <time>2013-11-09T14:36:03.93</time>
      </trkpt>
      <trkpt lat="38.498461666666664" lon="-1.1134466666666667">
        <ele>1199.0000000000011</ele>
        <time>2013-11-09T14:36:04.98</time>
      </trkpt>
      <trkpt lat="38.498488333333334" lon="-1.1134716666666666">
        <ele>1199.4000000000012</ele>
        <time>2013-11-09T14:36:05.99</time>
      </trkpt>
      <trkpt lat="38.498515" lon="-1.1135133333333334">
        <ele>1199.9000000000012</ele>
        <time>2013-11-09T14:36:06.93</time>
      </trkpt>
      <trkpt lat="38.498531666666665" lon="-1.1135583333333334">
        <ele>1200.3000000000013</ele>
        <time>2013-11-09T14:36:07.98</time>
      </trkpt>
      <trkpt lat="38.498533333333334" lon="-1.1136233333333334">
        <ele>1200.9000000000012</ele>
        <time>2013-11-09T14:36:09.59</time>
      </trkpt>
      <trkpt lat="38.49852333333333" lon="-1.1136766666666666">
        <ele>1201.4000000000012</ele>
        <time>2013-11-09T14:36:09.98</time>
      </trkpt>
      <trkpt lat="38.498508333333334" lon="-1.1137366666666666">
        <ele>1207.0000000000011</ele>
        <time>2013-11-09T14:36:10.98</time>
      </trkpt>
      <trkpt lat="38.49847666666667" lon="-1.1138016666666666">
        <ele>1211.5000000000011</ele>
        <time>2013-11-09T14:36:12.39</time>
      </trkpt>
      <trkpt lat="38.49842666666667" lon="-1.1138933333333334">
        <ele>1215.100000000001</ele>
        <time>2013-11-09T14:36:12.94</time>
      </trkpt>
      <trkpt lat="38.49833666666667" lon="-1.1139733333333333">
        <ele>1218.100000000001</ele>
        <time>2013-11-09T14:36:13.98</time>
      </trkpt>
      <trkpt lat="38.49824" lon="-1.1140383333333332">
        <ele>1220.700000000001</ele>
        <time>2013-11-09T14:36:14.93</time>
      </trkpt>
      <trkpt lat="38.49814" lon="-1.114095">
        <ele>1223.000000000001</ele>
        <time>2013-11-09T14:36:15.98</time>
      </trkpt>
      <trkpt lat="38.498035" lon="-1.11415">
        <ele>1225.6000000000008</ele>
        <time>2013-11-09T14:36:16.93</time>
      </trkpt>
      <trkpt lat="38.497935" lon="-1.114195">
        <ele>1228.500000000001</ele>
        <time>2013-11-09T14:36:17.97</time>
      </trkpt>
      <trkpt lat="38.49783333333333" lon="-1.114235">
        <ele>1232.000000000001</ele>
        <time>2013-11-09T14:36:18.92</time>
      </trkpt>
      <trkpt lat="38.49771333333333" lon="-1.1142433333333333">
        <ele>1235.400000000001</ele>
        <time>2013-11-09T14:36:20.69</time>
      </trkpt>
      <trkpt lat="38.49760166666667" lon="-1.1142483333333333">
        <ele>1238.100000000001</ele>
        <time>2013-11-09T14:36:20.98</time>
      </trkpt>
      <trkpt lat="38.497485" lon="-1.1142166666666666">
        <ele>1240.900000000001</ele>
        <time>2013-11-09T14:36:21.97</time>
      </trkpt>
      <trkpt lat="38.49735666666667" lon="-1.1141616666666667">
        <ele>1243.200000000001</ele>
        <time>2013-11-09T14:36:23.99</time>
      </trkpt>
      <trkpt lat="38.497231666666664" lon="-1.1140716666666666">
        <ele>1246.400000000001</ele>
        <time>2013-11-09T14:36:23.98</time>
      </trkpt>
      <trkpt lat="38.497143333333334" lon="-1.1139433333333333">
        <ele>1249.700000000001</ele>
        <time>2013-11-09T14:36:25.9</time>
      </trkpt>
      <trkpt lat="38.497096666666664" lon="-1.1137683333333332">
        <ele>1254.700000000001</ele>
        <time>2013-11-09T14:36:25.96</time>
      </trkpt>
      <trkpt lat="38.497095" lon="-1.11361">
        <ele>1259.400000000001</ele>
        <time>2013-11-09T14:36:26.98</time>
      </trkpt>
      <trkpt lat="38.49712" lon="-1.11346">
        <ele>1264.700000000001</ele>
        <time>2013-11-09T14:36:28.49</time>
      </trkpt>
      <trkpt lat="38.497155" lon="-1.113315">
        <ele>1269.3000000000009</ele>
        <time>2013-11-09T14:36:28.98</time>
      </trkpt>
      <trkpt lat="38.49718166666667" lon="-1.1132133333333334">
        <ele>1273.8000000000009</ele>
        <time>2013-11-09T14:36:30.79</time>
      </trkpt>
      <trkpt lat="38.497185" lon="-1.1131266666666666">
        <ele>1278.000000000001</ele>
        <time>2013-11-09T14:36:30.98</time>
      </trkpt>
      <trkpt lat="38.49718333333333" lon="-1.1130466666666667">
        <ele>1281.900000000001</ele>
        <time>2013-11-09T14:36:32.39</time>
      </trkpt>
      <trkpt lat="38.4972" lon="-1.1129816666666668">
        <ele>1285.300000000001</ele>
        <time>2013-11-09T14:36:32.98</time>
      </trkpt>
      <trkpt lat="38.497238333333335" lon="-1.1129183333333332">
        <ele>1288.100000000001</ele>
        <time>2013-11-09T14:36:33.98</time>
      </trkpt>
      <trkpt lat="38.49728833333333" lon="-1.112855">
        <ele>1290.5000000000011</ele>
        <time>2013-11-09T14:36:34.98</time>
      </trkpt>
      <trkpt lat="38.49735166666667" lon="-1.1128083333333334">
        <ele>1292.9000000000012</ele>
        <time>2013-11-09T14:36:35.98</time>
      </trkpt>
      <trkpt lat="38.497411666666665" lon="-1.1127933333333333">
        <ele>1293.2000000000012</ele>
        <time>2013-11-09T14:36:36.98</time>
      </trkpt>
      <trkpt lat="38.497445" lon="-1.112785">
        <ele>1293.6000000000013</ele>
        <time>2013-11-09T14:36:37.98</time>
      </trkpt>
      <trkpt lat="38.49747" lon="-1.1127866666666666">
        <ele>1294.1000000000013</ele>
        <time>2013-11-09T14:36:38.98</time>
      </trkpt>
      <trkpt lat="38.497506666666666" lon="-1.112795">
        <ele>1294.6000000000013</ele>
        <time>2013-11-09T14:36:39.98</time>
      </trkpt>
      <trkpt lat="38.497535" lon="-1.1128016666666667">
        <ele>1295.2000000000012</ele>
        <time>2013-11-09T14:36:40.97</time>
      </trkpt>
      <trkpt lat="38.49755" lon="-1.1128033333333334">
        <ele>1295.800000000001</ele>
        <time>2013-11-09T14:36:41.98</time>
      </trkpt>
      <trkpt lat="38.49756333333333" lon="-1.1128">
        <ele>1296.5000000000011</ele>
        <time>2013-11-09T14:36:42.98</time>
      </trkpt>
      <trkpt lat="38.497575" lon="-1.112815">
        <ele>1297.2000000000012</ele>
        <time>2013-11-09T14:36:43.98</time>
      </trkpt>
      <trkpt lat="38.49759" lon="-1.112845">
        <ele>1297.9000000000012</ele>
        <time>2013-11-09T14:36:44.98</time>
      </trkpt>
      <trkpt lat="38.49760666666667" lon="-1.112875">
        <ele>1298.7000000000012</ele>
        <time>2013-11-09T14:36:46.19</time>
      </trkpt>
      <trkpt lat="38.497625" lon="-1.1128966666666666">
        <ele>1299.6000000000013</ele>
        <time>2013-11-09T14:36:46.98</time>
      </trkpt>
      <trkpt lat="38.497656666666664" lon="-1.1129216666666666">
        <ele>1300.5000000000014</ele>
        <time>2013-11-09T14:36:47.98</time>
      </trkpt>
      <trkpt lat="38.49769166666667" lon="-1.112935">
        <ele>1301.4000000000015</ele>
        <time>2013-11-09T14:36:48.98</time>
      </trkpt>
      <trkpt lat="38.497733333333336" lon="-1.1129466666666668">
        <ele>1302.4000000000015</ele>
        <time>2013-11-09T14:36:49.98</time>
      </trkpt>
      <trkpt lat="38.49778166666667" lon="-1.1129616666666666">
        <ele>1303.3000000000015</ele>
        <time>2013-11-09T14:36:50.98</time>
      </trkpt>
      <trkpt lat="38.49783" lon="-1.11298">
        <ele>1304.3000000000015</ele>
        <time>2013-11-09T14:36:51.98</time>
      </trkpt>
      <trkpt lat="38.49787833333333" lon="-1.11299">
        <ele>1305.4000000000015</ele>
        <time>2013-11-09T14:36:52.97</time>
      </trkpt>
      <trkpt lat="38.49791833333333" lon="-1.1129866666666666">
        <ele>1316.7000000000014</ele>
        <time>2013-11-09T14:36:53.98</time>
      </trkpt>
      <trkpt lat="38.497945" lon="-1.1129616666666666">
        <ele>1326.9000000000015</ele>
        <time>2013-11-09T14:36:54.99</time>
      </trkpt>
      <trkpt lat="38.497973333333334" lon="-1.1129283333333333">
        <ele>1336.4000000000015</ele>
        <time>2013-11-09T14:36:55.98</time>
      </trkpt>
      <trkpt lat="38.49801" lon="-1.1129083333333334">
        <ele>1344.5000000000014</ele>
        <time>2013-11-09T14:36:56.97</time>
      </trkpt>
      <trkpt lat="38.498035" lon="-1.1128666666666667">
        <ele>1352.2000000000014</ele>
        <time>2013-11-09T14:36:57.98</time>
      </trkpt>
      <trkpt lat="38.498055" lon="-1.1128383333333334">
        <ele>1352.9000000000015</ele>
        <time>2013-11-09T14:36:58.98</time>
      </trkpt>
      <trkpt lat="38.498088333333335" lon="-1.1127933333333333">
        <ele>1360.6000000000015</ele>
        <time>2013-11-09T14:36:59.98</time>
      </trkpt>
      <trkpt lat="38.49812" lon="-1.11273">
        <ele>1367.5000000000016</ele>
        <time>2013-11-09T14:37:00.97</time>
      </trkpt>
      <trkpt lat="38.49816333333333" lon="-1.112635">
        <ele>1373.5000000000016</ele>
        <time>2013-11-09T14:37:01.98</time>
      </trkpt>
      <trkpt lat="38.49821166666667" lon="-1.1125433333333334">
        <ele>1379.0000000000016</ele>
        <time>2013-11-09T14:37:02.98</time>
      </trkpt>
      <trkpt lat="38.49827" lon="-1.1124533333333333">
        <ele>1383.3000000000015</ele>
        <time>2013-11-09T14:37:03.97</time>
      </trkpt>
      <trkpt lat="38.49831666666667" lon="-1.1123883333333333">
        <ele>1386.7000000000016</ele>
        <time>2013-11-09T14:37:04.98</time>
      </trkpt>
      <trkpt lat="38.498355" lon="-1.1123566666666667">
        <ele>1389.3000000000015</ele>
        <time>2013-11-09T14:37:05.98</time>
      </trkpt>
      <trkpt lat="38.49838" lon="-1.1123483333333333">
        <ele>1391.6000000000015</ele>
        <time>2013-11-09T14:37:06.97</time>
      </trkpt>
      <trkpt lat="38.49841166666667" lon="-1.1123516666666666">
        <ele>1391.9000000000015</ele>
        <time>2013-11-09T14:37:07.97</time>
      </trkpt>
      <trkpt lat="38.49843" lon="-1.1123583333333333">
        <ele>1392.2000000000014</ele>
        <time>2013-11-09T14:37:08.98</time>
      </trkpt>
      <trkpt lat="38.49843833333333" lon="-1.1123666666666667">
        <ele>1392.6000000000015</ele>
        <time>2013-11-09T14:37:09.98</time>
      </trkpt>
      <trkpt lat="38.49845166666667" lon="-1.1123783333333332">
        <ele>1393.1000000000015</ele>
        <time>2013-11-09T14:37:10.97</time>
      </trkpt>
      <trkpt lat="38.49847166666667" lon="-1.1124433333333332">
        <ele>1393.7000000000014</ele>
        <time>2013-11-09T14:37:12.39</time>
      </trkpt>
      <trkpt lat="38.49845333333333" lon="-1.1125183333333333">
        <ele>1394.5000000000014</ele>
        <time>2013-11-09T14:37:12.97</time>
      </trkpt>
      <trkpt lat="38.498398333333334" lon="-1.1125933333333333">
        <ele>1402.7000000000014</ele>
        <time>2013-11-09T14:37:14.49</time>
      </trkpt>
      <trkpt lat="38.498331666666665" lon="-1.1126483333333332">
        <ele>1410.3000000000013</ele>
        <time>2013-11-09T14:37:14.98</time>
      </trkpt>
      <trkpt lat="38.498263333333334" lon="-1.112675">
        <ele>1417.4000000000012</ele>
        <time>2013-11-09T14:37:16.89</time>
      </trkpt>
      <trkpt lat="38.49818666666667" lon="-1.1127033333333334">
        <ele>1423.7000000000012</ele>
        <time>2013-11-09T14:37:16.98</time>
      </trkpt>
      <trkpt lat="38.498106666666665" lon="-1.1127316666666667">
        <ele>1429.1000000000013</ele>
        <time>2013-11-09T14:37:17.98</time>
      </trkpt>
      <trkpt lat="38.49800666666667" lon="-1.1127616666666666">
        <ele>1433.7000000000012</ele>
        <time>2013-11-09T14:37:18.98</time>
      </trkpt>
      <trkpt lat="38.497881666666665" lon="-1.112785">
        <ele>1437.7000000000012</ele>
        <time>2013-11-09T14:37:20.59</time>
      </trkpt>
      <trkpt lat="38.49774333333333" lon="-1.11277">
        <ele>1441.300000000001</ele>
        <time>2013-11-09T14:37:20.98</time>
      </trkpt>
      <trkpt lat="38.49757" lon="-1.11273">
        <ele>1444.300000000001</ele>
        <time>2013-11-09T14:37:22.9</time>
      </trkpt>
      <trkpt lat="38.49745166666667" lon="-1.112565">
        <ele>1446.7000000000012</ele>
        <time>2013-11-09T14:37:22.98</time>
      </trkpt>
      <trkpt lat="38.497366666666665" lon="-1.1123733333333334">
        <ele>1448.1000000000013</ele>
        <time>2013-11-09T14:37:23.98</time>
      </trkpt>
      <trkpt lat="38.497348333333335" lon="-1.1122033333333334">
        <ele>1451.0000000000014</ele>
        <time>2013-11-09T14:37:25.69</time>
      </trkpt>
      <trkpt lat="38.49734333333333" lon="-1.1120416666666666">
        <ele>1454.2000000000014</ele>
        <time>2013-11-09T14:37:25.98</time>
      </trkpt>
      <trkpt lat="38.497375" lon="-1.11189">
        <ele>1457.5000000000014</ele>
        <time>2013-11-09T14:37:26.97</time>
      </trkpt>
      <trkpt lat="38.497413333333334" lon="-1.11175">
        <ele>1460.9000000000015</ele>
        <time>2013-11-09T14:37:27.94</time>
      </trkpt>
      <trkpt lat="38.49746" lon="-1.1116183333333334">
        <ele>1464.4000000000015</ele>
        <time>2013-11-09T14:37:29.59</time>
      </trkpt>
      <trkpt lat="38.497521666666664" lon="-1.11152">
        <ele>1467.7000000000014</ele>
        <time>2013-11-09T14:37:29.98</time>
      </trkpt>
      <trkpt lat="38.497566666666664" lon="-1.1114433333333333">
        <ele>1471.1000000000015</ele>
        <time>2013-11-09T14:37:31.20</time>
      </trkpt>
      <trkpt lat="38.497595" lon="-1.1113716666666666">
        <ele>1474.3000000000015</ele>
        <time>2013-11-09T14:37:31.98</time>
      </trkpt>
      <trkpt lat="38.497618333333335" lon="-1.1113166666666667">
        <ele>1477.7000000000016</ele>
        <time>2013-11-09T14:37:33.10</time>
      </trkpt>
      <trkpt lat="38.49764" lon="-1.111295">
        <ele>1477.9000000000017</ele>
        <time>2013-11-09T14:37:33.98</time>
      </trkpt>
      <trkpt lat="38.49766833333333" lon="-1.1112933333333332">
        <ele>1478.2000000000016</ele>
        <time>2013-11-09T14:37:34.98</time>
      </trkpt>
      <trkpt lat="38.497695" lon="-1.111315">
        <ele>1478.6000000000017</ele>
        <time>2013-11-09T14:37:35.98</time>
      </trkpt>
      <trkpt lat="38.49767166666667" lon="-1.1114083333333333">
        <ele>1482.1000000000017</ele>
        <time>2013-11-09T14:37:36.97</time>
      </trkpt>
      <trkpt lat="38.49759666666667" lon="-1.11148">
        <ele>1485.2000000000016</ele>
        <time>2013-11-09T14:37:37.97</time>
      </trkpt>
      <trkpt lat="38.497501666666665" lon="-1.11157">
        <ele>1488.5000000000016</ele>
        <time>2013-11-09T14:37:38.93</time>
      </trkpt>
      <trkpt lat="38.49737666666667" lon="-1.1115816666666667">
        <ele>1492.2000000000016</ele>
        <time>2013-11-09T14:37:40.69</time>
      </trkpt>
      <trkpt lat="38.497238333333335" lon="-1.1115366666666666">
        <ele>1496.4000000000017</ele>
        <time>2013-11-09T14:37:40.98</time>
      </trkpt>
      <trkpt lat="38.497105" lon="-1.1114266666666666">
        <ele>1500.0000000000016</ele>
        <time>2013-11-09T14:37:41.98</time>
      </trkpt>
      <trkpt lat="38.496986666666665" lon="-1.1113183333333334">
        <ele>1503.2000000000016</ele>
        <time>2013-11-09T14:37:42.97</time>
      </trkpt>
      <trkpt lat="38.49687333333333" lon="-1.11121">
        <ele>1506.2000000000016</ele>
        <time>2013-11-09T14:37:43.93</time>
      </trkpt>
      <trkpt lat="38.49677833333333" lon="-1.1110633333333333">
        <ele>1509.1000000000017</ele>
        <time>2013-11-09T14:37:44.98</time>
      </trkpt>
      <trkpt lat="38.49669166666666" lon="-1.1109">
        <ele>1511.9000000000017</ele>
        <time>2013-11-09T14:37:45.99</time>
      </trkpt>
      <trkpt lat="38.496613333333336" lon="-1.11074">
        <ele>1514.5000000000016</ele>
        <time>2013-11-09T14:37:46.99</time>
      </trkpt>
      <trkpt lat="38.496535" lon="-1.11055">
        <ele>1517.1000000000015</ele>
        <time>2013-11-09T14:37:48.29</time>
      </trkpt>
      <trkpt lat="38.49650833333333" lon="-1.1103533333333333">
        <ele>1519.2000000000014</ele>
        <time>2013-11-09T14:37:48.99</time>
      </trkpt>
      <trkpt lat="38.49650666666667" lon="-1.11017">
        <ele>1521.3000000000013</ele>
        <time>2013-11-09T14:37:49.94</time>
      </trkpt>
      <trkpt lat="38.49654833333334" lon="-1.1099983333333334">
        <ele>1523.3000000000013</ele>
        <time>2013-11-09T14:37:50.98</time>
      </trkpt>
      <trkpt lat="38.496588333333335" lon="-1.10985">
        <ele>1524.8000000000013</ele>
        <time>2013-11-09T14:37:51.99</time>
      </trkpt>
      <trkpt lat="38.496631666666666" lon="-1.1097116666666667">
        <ele>1526.3000000000013</ele>
        <time>2013-11-09T14:37:52.98</time>
      </trkpt>
      <trkpt lat="38.49667" lon="-1.1096066666666666">
        <ele>1527.6000000000013</ele>
        <time>2013-11-09T14:37:53.99</time>
      </trkpt>
      <trkpt lat="38.496698333333335" lon="-1.1095183333333334">
        <ele>1528.5000000000014</ele>
        <time>2013-11-09T14:37:54.94</time>
      </trkpt>
      <trkpt lat="38.49674" lon="-1.1094566666666668">
        <ele>1529.1000000000013</ele>
        <time>2013-11-09T14:37:55.98</time>
      </trkpt>
      <trkpt lat="38.49677833333333" lon="-1.1094066666666667">
        <ele>1529.6000000000013</ele>
        <time>2013-11-09T14:37:56.93</time>
      </trkpt>
      <trkpt lat="38.49681666666667" lon="-1.109375">
        <ele>1530.8000000000013</ele>
        <time>2013-11-09T14:37:57.99</time>
      </trkpt>
      <trkpt lat="38.496856666666666" lon="-1.1093383333333333">
        <ele>1532.1000000000013</ele>
        <time>2013-11-09T14:37:58.99</time>
      </trkpt>
      <trkpt lat="38.496885" lon="-1.10933">
        <ele>1532.3000000000013</ele>
        <time>2013-11-09T14:38:00.69</time>
      </trkpt>
      <trkpt lat="38.49691333333333" lon="-1.1093316666666666">
        <ele>1532.6000000000013</ele>
        <time>2013-11-09T14:38:00.96</time>
      </trkpt>
      <trkpt lat="38.49693333333333" lon="-1.1093416666666667">
        <ele>1532.9000000000012</ele>
        <time>2013-11-09T14:38:01.93</time>
      </trkpt>
      <trkpt lat="38.496955" lon="-1.10935">
        <ele>1533.3000000000013</ele>
        <time>2013-11-09T14:38:02.97</time>
      </trkpt>
      <trkpt lat="38.49697833333333" lon="-1.1093583333333332">
        <ele>1533.8000000000013</ele>
        <time>2013-11-09T14:38:03.98</time>
      </trkpt>
      <trkpt lat="38.49700333333333" lon="-1.1093683333333333">
        <ele>1534.3000000000013</ele>
        <time>2013-11-09T14:38:04.97</time>
      </trkpt>
      <trkpt lat="38.49703" lon="-1.1093866666666667">
        <ele>1539.9000000000012</ele>
        <time>2013-11-09T14:38:05.94</time>
      </trkpt>
      <trkpt lat="38.497038333333336" lon="-1.1094083333333333">
        <ele>1540.4000000000012</ele>
        <time>2013-11-09T14:38:06.97</time>
      </trkpt>
      <trkpt lat="38.49704" lon="-1.109455">
        <ele>1540.9000000000012</ele>
        <time>2013-11-09T14:38:07.97</time>
      </trkpt>
      <trkpt lat="38.497036666666666" lon="-1.109495">
        <ele>1541.5000000000011</ele>
        <time>2013-11-09T14:38:08.97</time>
      </trkpt>
      <trkpt lat="38.49701666666667" lon="-1.1095433333333333">
        <ele>1542.9000000000012</ele>
        <time>2013-11-09T14:38:10.97</time>
      </trkpt>
      <trkpt lat="38.49698333333333" lon="-1.10959">
        <ele>1543.6000000000013</ele>
        <time>2013-11-09T14:38:11.93</time>
      </trkpt>
      <trkpt lat="38.49693333333333" lon="-1.109635">
        <ele>1544.4000000000012</ele>
        <time>2013-11-09T14:38:12.97</time>
      </trkpt>
      <trkpt lat="38.49689" lon="-1.1096783333333333">
        <ele>1545.3000000000013</ele>
        <time>2013-11-09T14:38:13.97</time>
      </trkpt>
      <trkpt lat="38.49685" lon="-1.1097183333333334">
        <ele>1546.2000000000014</ele>
        <time>2013-11-09T14:38:14.97</time>
      </trkpt>
      <trkpt lat="38.496826666666664" lon="-1.10974">
        <ele>1547.1000000000015</ele>
        <time>2013-11-09T14:38:15.97</time>
      </trkpt>
      <trkpt lat="38.49682166666667" lon="-1.1097416666666666">
        <ele>1548.0000000000016</ele>
        <time>2013-11-09T14:38:17.49</time>
      </trkpt>
      <trkpt lat="38.49684666666667" lon="-1.10975">
        <ele>1549.8000000000015</ele>
        <time>2013-11-09T14:38:18.99</time>
      </trkpt>
      <trkpt lat="38.496875" lon="-1.1097316666666666">
        <ele>1550.7000000000016</ele>
        <time>2013-11-09T14:38:19.97</time>
      </trkpt>
      <trkpt lat="38.496916666666664" lon="-1.10969">
        <ele>1559.8000000000015</ele>
        <time>2013-11-09T14:38:20.97</time>
      </trkpt>
      <trkpt lat="38.49696333333333" lon="-1.1096433333333333">
        <ele>1567.5000000000016</ele>
        <time>2013-11-09T14:38:21.97</time>
      </trkpt>
      <trkpt lat="38.497005" lon="-1.1095733333333333">
        <ele>1574.5000000000016</ele>
        <time>2013-11-09T14:38:22.98</time>
      </trkpt>
      <trkpt lat="38.497056666666666" lon="-1.1094816666666667">
        <ele>1580.3000000000015</ele>
        <time>2013-11-09T14:38:23.97</time>
      </trkpt>
      <trkpt lat="38.49710666666667" lon="-1.1093866666666667">
        <ele>1585.2000000000016</ele>
        <time>2013-11-09T14:38:24.97</time>
      </trkpt>
      <trkpt lat="38.49715" lon="-1.1092883333333334">
        <ele>1589.4000000000017</ele>
        <time>2013-11-09T14:38:25.96</time>
      </trkpt>
      <trkpt lat="38.49718333333333" lon="-1.1092">
        <ele>1592.6000000000017</ele>
        <time>2013-11-09T14:38:26.97</time>
      </trkpt>
      <trkpt lat="38.49720833333333" lon="-1.1091283333333333">
        <ele>1594.9000000000017</ele>
        <time>2013-11-09T14:38:27.97</time>
      </trkpt>
      <trkpt lat="38.497245" lon="-1.10908">
        <ele>1596.5000000000016</ele>
        <time>2013-11-09T14:38:28.97</time>
      </trkpt>
      <trkpt lat="38.49729" lon="-1.1090466666666667">
        <ele>1597.5000000000016</ele>
        <time>2013-11-09T14:38:29.98</time>
      </trkpt>
      <trkpt lat="38.497335" lon="-1.10902">
        <ele>1597.8000000000015</ele>
        <time>2013-11-09T14:38:30.97</time>
      </trkpt>
      <trkpt lat="38.49737833333333" lon="-1.1090233333333332">
        <ele>1597.7000000000016</ele>
        <time>2013-11-09T14:38:31.97</time>
      </trkpt>
      <trkpt lat="38.497413333333334" lon="-1.109025">
        <ele>1597.7000000000016</ele>
        <time>2013-11-09T14:38:32.94</time>
      </trkpt>
      <trkpt lat="38.49745" lon="-1.1090233333333332">
        <ele>1597.7000000000016</ele>
        <time>2013-11-09T14:38:33.97</time>
      </trkpt>
      <trkpt lat="38.497475" lon="-1.1090166666666668">
        <ele>1597.7000000000016</ele>
        <time>2013-11-09T14:38:34.98</time>
      </trkpt>
      <trkpt lat="38.4975" lon="-1.1090116666666667">
        <ele>1597.6000000000017</ele>
        <time>2013-11-09T14:38:35.97</time>
      </trkpt>
      <trkpt lat="38.49752333333333" lon="-1.1090133333333334">
        <ele>1597.6000000000017</ele>
        <time>2013-11-09T14:38:36.97</time>
      </trkpt>
      <trkpt lat="38.497535" lon="-1.1090433333333334">
        <ele>1597.6000000000017</ele>
        <time>2013-11-09T14:38:37.97</time>
      </trkpt>
      <trkpt lat="38.49754" lon="-1.1090866666666668">
        <ele>1597.6000000000017</ele>
        <time>2013-11-09T14:38:38.97</time>
      </trkpt>
      <trkpt lat="38.497548333333334" lon="-1.1091333333333333">
        <ele>1597.5000000000018</ele>
        <time>2013-11-09T14:38:39.97</time>
      </trkpt>
      <trkpt lat="38.49756333333333" lon="-1.1091683333333333">
        <ele>1597.5000000000018</ele>
        <time>2013-11-09T14:38:40.97</time>
      </trkpt>
      <trkpt lat="38.49757833333334" lon="-1.1092">
        <ele>1597.400000000002</ele>
        <time>2013-11-09T14:38:42.99</time>
      </trkpt>
      <trkpt lat="38.497595" lon="-1.10923">
        <ele>1597.400000000002</ele>
        <time>2013-11-09T14:38:42.98</time>
      </trkpt>
      <trkpt lat="38.497611666666664" lon="-1.109255">
        <ele>1597.300000000002</ele>
        <time>2013-11-09T14:38:43.97</time>
      </trkpt>
      <trkpt lat="38.497635" lon="-1.1092883333333334">
        <ele>1597.100000000002</ele>
        <time>2013-11-09T14:38:44.97</time>
      </trkpt>
      <trkpt lat="38.497655" lon="-1.109345">
        <ele>1595.100000000002</ele>
        <time>2013-11-09T14:38:45.97</time>
      </trkpt>
      <trkpt lat="38.49768" lon="-1.1094216666666668">
        <ele>1592.800000000002</ele>
        <time>2013-11-09T14:38:46.97</time>
      </trkpt>
      <trkpt lat="38.497703333333334" lon="-1.1094883333333334">
        <ele>1591.100000000002</ele>
        <time>2013-11-09T14:38:47.98</time>
      </trkpt>
      <trkpt lat="38.49773166666667" lon="-1.109535">
        <ele>1590.900000000002</ele>
        <time>2013-11-09T14:38:48.97</time>
      </trkpt>
      <trkpt lat="38.497751666666666" lon="-1.1095433333333333">
        <ele>1590.800000000002</ele>
        <time>2013-11-09T14:38:49.97</time>
      </trkpt>
      <trkpt lat="38.497773333333335" lon="-1.1095466666666667">
        <ele>1590.600000000002</ele>
        <time>2013-11-09T14:38:50.99</time>
      </trkpt>
      <trkpt lat="38.49780166666667" lon="-1.1095516666666667">
        <ele>1588.600000000002</ele>
        <time>2013-11-09T14:38:51.97</time>
      </trkpt>
      <trkpt lat="38.497835" lon="-1.1095533333333334">
        <ele>1588.400000000002</ele>
        <time>2013-11-09T14:38:52.97</time>
      </trkpt>
      <trkpt lat="38.497881666666665" lon="-1.1095716666666666">
        <ele>1585.800000000002</ele>
        <time>2013-11-09T14:38:53.96</time>
      </trkpt>
      <trkpt lat="38.49792333333333" lon="-1.1095966666666666">
        <ele>1583.400000000002</ele>
        <time>2013-11-09T14:38:55.59</time>
      </trkpt>
      <trkpt lat="38.49795666666667" lon="-1.1096333333333332">
        <ele>1580.7000000000019</ele>
        <time>2013-11-09T14:38:55.98</time>
      </trkpt>
      <trkpt lat="38.49798333333333" lon="-1.10965">
        <ele>1580.5000000000018</ele>
        <time>2013-11-09T14:38:56.97</time>
      </trkpt>
      <trkpt lat="38.49801" lon="-1.1096516666666667">
        <ele>1580.2000000000019</ele>
        <time>2013-11-09T14:38:57.97</time>
      </trkpt>
      <trkpt lat="38.498036666666664" lon="-1.109655">
        <ele>1579.8000000000018</ele>
        <time>2013-11-09T14:38:58.97</time>
      </trkpt>
      <trkpt lat="38.498061666666665" lon="-1.109665">
        <ele>1579.4000000000017</ele>
        <time>2013-11-09T14:38:59.97</time>
      </trkpt>
      <trkpt lat="38.49809333333334" lon="-1.109685">
        <ele>1574.8000000000018</ele>
        <time>2013-11-09T14:39:00.99</time>
      </trkpt>
      <trkpt lat="38.498131666666666" lon="-1.10971">
        <ele>1570.6000000000017</ele>
        <time>2013-11-09T14:39:01.98</time>
      </trkpt>
      <trkpt lat="38.49818166666667" lon="-1.10972">
        <ele>1566.7000000000016</ele>
        <time>2013-11-09T14:39:02.97</time>
      </trkpt>
      <trkpt lat="38.49823333333333" lon="-1.1097283333333334">
        <ele>1563.5000000000016</ele>
        <time>2013-11-09T14:39:03.97</time>
      </trkpt>
      <trkpt lat="38.49827666666667" lon="-1.10973">
        <ele>1560.8000000000015</ele>
        <time>2013-11-09T14:39:04.97</time>
      </trkpt>
      <trkpt lat="38.498315" lon="-1.1097333333333332">
        <ele>1558.4000000000015</ele>
        <time>2013-11-09T14:39:05.94</time>
      </trkpt>
      <trkpt lat="38.498351666666665" lon="-1.1097333333333332">
        <ele>1556.1000000000015</ele>
        <time>2013-11-09T14:39:06.93</time>
      </trkpt>
      <trkpt lat="38.49839333333333" lon="-1.1097283333333334">
        <ele>1554.1000000000015</ele>
        <time>2013-11-09T14:39:07.97</time>
      </trkpt>
      <trkpt lat="38.49844" lon="-1.109725">
        <ele>1552.2000000000014</ele>
        <time>2013-11-09T14:39:08.97</time>
      </trkpt>
      <trkpt lat="38.49849" lon="-1.1097216666666667">
        <ele>1550.1000000000015</ele>
        <time>2013-11-09T14:39:09.97</time>
      </trkpt>
      <trkpt lat="38.49854166666667" lon="-1.1097166666666667">
        <ele>1547.9000000000015</ele>
        <time>2013-11-09T14:39:10.97</time>
      </trkpt>
      <trkpt lat="38.49860666666667" lon="-1.109705">
        <ele>1545.2000000000014</ele>
        <time>2013-11-09T14:39:11.94</time>
      </trkpt>
      <trkpt lat="38.49866" lon="-1.1096883333333334">
        <ele>1542.6000000000015</ele>
        <time>2013-11-09T14:39:12.97</time>
      </trkpt>
      <trkpt lat="38.49871" lon="-1.1096733333333333">
        <ele>1539.9000000000015</ele>
        <time>2013-11-09T14:39:13.97</time>
      </trkpt>
      <trkpt lat="38.49876666666667" lon="-1.1096583333333334">
        <ele>1536.9000000000015</ele>
        <time>2013-11-09T14:39:14.98</time>
      </trkpt>
      <trkpt lat="38.49881666666667" lon="-1.10965">
        <ele>1534.1000000000015</ele>
        <time>2013-11-09T14:39:15.97</time>
      </trkpt>
      <trkpt lat="38.49886333333333" lon="-1.1096416666666666">
        <ele>1531.2000000000014</ele>
        <time>2013-11-09T14:39:16.93</time>
      </trkpt>
      <trkpt lat="38.498913333333334" lon="-1.1096333333333332">
        <ele>1528.3000000000013</ele>
        <time>2013-11-09T14:39:17.97</time>
      </trkpt>
      <trkpt lat="38.498975" lon="-1.1096233333333334">
        <ele>1524.9000000000012</ele>
        <time>2013-11-09T14:39:18.97</time>
      </trkpt>
      <trkpt lat="38.499023333333334" lon="-1.1096183333333334">
        <ele>1522.0000000000011</ele>
        <time>2013-11-09T14:39:19.93</time>
      </trkpt>
      <trkpt lat="38.49907" lon="-1.1096133333333333">
        <ele>1519.4000000000012</ele>
        <time>2013-11-09T14:39:20.97</time>
      </trkpt>
      <trkpt lat="38.499118333333335" lon="-1.1096116666666667">
        <ele>1517.4000000000012</ele>
        <time>2013-11-09T14:39:21.98</time>
      </trkpt>
      <trkpt lat="38.49916833333333" lon="-1.109615">
        <ele>1515.8000000000013</ele>
        <time>2013-11-09T14:39:22.97</time>
      </trkpt>
      <trkpt lat="38.499225" lon="-1.1096183333333334">
        <ele>1514.2000000000014</ele>
        <time>2013-11-09T14:39:23.97</time>
      </trkpt>
      <trkpt lat="38.49928333333333" lon="-1.1096166666666667">
        <ele>1512.8000000000013</ele>
        <time>2013-11-09T14:39:24.97</time>
      </trkpt>
      <trkpt lat="38.499345" lon="-1.10961">
        <ele>1511.5000000000014</ele>
        <time>2013-11-09T14:39:25.97</time>
      </trkpt>
      <trkpt lat="38.499405" lon="-1.1095933333333334">
        <ele>1510.4000000000015</ele>
        <time>2013-11-09T14:39:26.98</time>
      </trkpt>
      <trkpt lat="38.499478333333336" lon="-1.1095666666666666">
        <ele>1509.0000000000014</ele>
        <time>2013-11-09T14:39:27.97</time>
      </trkpt>
      <trkpt lat="38.49954833333334" lon="-1.10953">
        <ele>1507.1000000000013</ele>
        <time>2013-11-09T14:39:28.97</time>
      </trkpt>
      <trkpt lat="38.499613333333336" lon="-1.1094916666666668">
        <ele>1504.9000000000012</ele>
        <time>2013-11-09T14:39:29.97</time>
      </trkpt>
      <trkpt lat="38.499675" lon="-1.109455">
        <ele>1502.6000000000013</ele>
        <time>2013-11-09T14:39:30.97</time>
      </trkpt>
      <trkpt lat="38.499736666666664" lon="-1.1094166666666667">
        <ele>1500.2000000000012</ele>
        <time>2013-11-09T14:39:31.97</time>
      </trkpt>
      <trkpt lat="38.49979833333333" lon="-1.10937">
        <ele>1497.300000000001</ele>
        <time>2013-11-09T14:39:32.97</time>
      </trkpt>
      <trkpt lat="38.499851666666665" lon="-1.1093083333333333">
        <ele>1494.100000000001</ele>
        <time>2013-11-09T14:39:33.97</time>
      </trkpt>
      <trkpt lat="38.49991333333333" lon="-1.10925">
        <ele>1491.0000000000011</ele>
        <time>2013-11-09T14:39:34.97</time>
      </trkpt>
      <trkpt lat="38.499975" lon="-1.1092">
        <ele>1488.300000000001</ele>
        <time>2013-11-09T14:39:35.97</time>
      </trkpt>
      <trkpt lat="38.50004166666667" lon="-1.109135">
        <ele>1485.5000000000011</ele>
        <time>2013-11-09T14:39:36.97</time>
      </trkpt>
      <trkpt lat="38.50011166666667" lon="-1.1090616666666666">
        <ele>1483.300000000001</ele>
        <time>2013-11-09T14:39:37.94</time>
      </trkpt>
      <trkpt lat="38.50018333333333" lon="-1.10899">
        <ele>1481.0000000000011</ele>
        <time>2013-11-09T14:39:38.97</time>
      </trkpt>
      <trkpt lat="38.50024333333333" lon="-1.1089233333333333">
        <ele>1478.4000000000012</ele>
        <time>2013-11-09T14:39:40.9</time>
      </trkpt>
      <trkpt lat="38.500303333333335" lon="-1.1088633333333333">
        <ele>1475.5000000000011</ele>
        <time>2013-11-09T14:39:40.97</time>
      </trkpt>
      <trkpt lat="38.500355" lon="-1.1088216666666666">
        <ele>1472.600000000001</ele>
        <time>2013-11-09T14:39:41.97</time>
      </trkpt>
      <trkpt lat="38.50039833333334" lon="-1.1087916666666666">
        <ele>1469.600000000001</ele>
        <time>2013-11-09T14:39:42.99</time>
      </trkpt>
      <trkpt lat="38.50042166666667" lon="-1.1087883333333333">
        <ele>1467.300000000001</ele>
        <time>2013-11-09T14:39:43.97</time>
      </trkpt>
      <trkpt lat="38.50045" lon="-1.1087816666666668">
        <ele>1464.7000000000012</ele>
        <time>2013-11-09T14:39:44.97</time>
      </trkpt>
      <trkpt lat="38.50049" lon="-1.108775">
        <ele>1461.6000000000013</ele>
        <time>2013-11-09T14:39:45.97</time>
      </trkpt>
      <trkpt lat="38.50053666666667" lon="-1.10877">
        <ele>1458.9000000000012</ele>
        <time>2013-11-09T14:39:46.97</time>
      </trkpt>
      <trkpt lat="38.50058333333333" lon="-1.1087666666666667">
        <ele>1456.6000000000013</ele>
        <time>2013-11-09T14:39:47.97</time>
      </trkpt>
      <trkpt lat="38.500636666666665" lon="-1.108765">
        <ele>1454.7000000000012</ele>
        <time>2013-11-09T14:39:48.98</time>
      </trkpt>
      <trkpt lat="38.50069333333333" lon="-1.1087616666666666">
        <ele>1453.0000000000011</ele>
        <time>2013-11-09T14:39:49.97</time>
      </trkpt>
      <trkpt lat="38.500746666666664" lon="-1.10874">
        <ele>1451.4000000000012</ele>
        <time>2013-11-09T14:39:50.98</time>
      </trkpt>
      <trkpt lat="38.500798333333336" lon="-1.10872">
        <ele>1450.0000000000011</ele>
        <time>2013-11-09T14:39:52.59</time>
      </trkpt>
      <trkpt lat="38.500835" lon="-1.1087066666666667">
        <ele>1448.600000000001</ele>
        <time>2013-11-09T14:39:52.95</time>
      </trkpt>
      <trkpt lat="38.500863333333335" lon="-1.1087116666666668">
        <ele>1448.5000000000011</ele>
        <time>2013-11-09T14:39:53.99</time>
      </trkpt>
      <trkpt lat="38.500886666666666" lon="-1.1087183333333333">
        <ele>1448.300000000001</ele>
        <time>2013-11-09T14:39:54.98</time>
      </trkpt>
      <trkpt lat="38.50089833333333" lon="-1.108725">
        <ele>1448.2000000000012</ele>
        <time>2013-11-09T14:39:56.39</time>
      </trkpt>
      <trkpt lat="38.500928333333334" lon="-1.1087333333333333">
        <ele>1446.0000000000011</ele>
        <time>2013-11-09T14:39:56.95</time>
      </trkpt>
      <trkpt lat="38.50095833333334" lon="-1.1087466666666668">
        <ele>1444.2000000000012</ele>
        <time>2013-11-09T14:39:57.91</time>
      </trkpt>
      <trkpt lat="38.50100166666667" lon="-1.1087683333333334">
        <ele>1442.5000000000011</ele>
        <time>2013-11-09T14:39:58.94</time>
      </trkpt>
      <trkpt lat="38.501043333333335" lon="-1.1087833333333332">
        <ele>1440.800000000001</ele>
        <time>2013-11-09T14:39:59.95</time>
      </trkpt>
      <trkpt lat="38.501086666666666" lon="-1.1087966666666667">
        <ele>1439.300000000001</ele>
        <time>2013-11-09T14:40:00.95</time>
      </trkpt>
      <trkpt lat="38.50113" lon="-1.10879">
        <ele>1437.5000000000011</ele>
        <time>2013-11-09T14:40:01.94</time>
      </trkpt>
      <trkpt lat="38.50116666666667" lon="-1.1087866666666666">
        <ele>1435.7000000000012</ele>
        <time>2013-11-09T14:40:02.94</time>
      </trkpt>
      <trkpt lat="38.50120166666667" lon="-1.1087816666666668">
        <ele>1434.0000000000011</ele>
        <time>2013-11-09T14:40:03.97</time>
      </trkpt>
      <trkpt lat="38.501235" lon="-1.1087733333333334">
        <ele>1433.800000000001</ele>
        <time>2013-11-09T14:40:04.95</time>
      </trkpt>
      <trkpt lat="38.501265" lon="-1.10876">
        <ele>1433.5000000000011</ele>
        <time>2013-11-09T14:40:05.95</time>
      </trkpt>
      <trkpt lat="38.501306666666665" lon="-1.108745">
        <ele>1430.2000000000012</ele>
        <time>2013-11-09T14:40:06.95</time>
      </trkpt>
      <trkpt lat="38.50134833333333" lon="-1.108735">
        <ele>1427.300000000001</ele>
        <time>2013-11-09T14:40:07.95</time>
      </trkpt>
      <trkpt lat="38.50139333333333" lon="-1.1087266666666666">
        <ele>1424.400000000001</ele>
        <time>2013-11-09T14:40:08.95</time>
      </trkpt>
      <trkpt lat="38.50143666666666" lon="-1.1087316666666667">
        <ele>1422.200000000001</ele>
        <time>2013-11-09T14:40:09.94</time>
      </trkpt>
      <trkpt lat="38.50147666666667" lon="-1.10874">
        <ele>1420.8000000000009</ele>
        <time>2013-11-09T14:40:10.95</time>
      </trkpt>
      <trkpt lat="38.50151" lon="-1.10875">
        <ele>1419.700000000001</ele>
        <time>2013-11-09T14:40:11.94</time>
      </trkpt>
      <trkpt lat="38.50154166666667" lon="-1.1087583333333333">
        <ele>1418.900000000001</ele>
        <time>2013-11-09T14:40:12.97</time>
      </trkpt>
      <trkpt lat="38.50156833333333" lon="-1.1087766666666667">
        <ele>1418.000000000001</ele>
        <time>2013-11-09T14:40:13.96</time>
      </trkpt>
      <trkpt lat="38.50158833333333" lon="-1.108795">
        <ele>1416.3000000000009</ele>
        <time>2013-11-09T14:40:14.93</time>
      </trkpt>
      <trkpt lat="38.501621666666665" lon="-1.10882">
        <ele>1415.000000000001</ele>
        <time>2013-11-09T14:40:15.95</time>
      </trkpt>
      <trkpt lat="38.50165333333333" lon="-1.1088466666666668">
        <ele>1413.3000000000009</ele>
        <time>2013-11-09T14:40:16.94</time>
      </trkpt>
      <trkpt lat="38.501695" lon="-1.1088583333333333">
        <ele>1411.200000000001</ele>
        <time>2013-11-09T14:40:17.95</time>
      </trkpt>
      <trkpt lat="38.501735" lon="-1.1088533333333332">
        <ele>1408.900000000001</ele>
        <time>2013-11-09T14:40:18.95</time>
      </trkpt>
      <trkpt lat="38.50176666666667" lon="-1.1088416666666667">
        <ele>1406.900000000001</ele>
        <time>2013-11-09T14:40:19.95</time>
      </trkpt>
      <trkpt lat="38.50179333333333" lon="-1.1088316666666667">
        <ele>1406.700000000001</ele>
        <time>2013-11-09T14:40:20.94</time>
      </trkpt>
      <trkpt lat="38.501815" lon="-1.108825">
        <ele>1404.8000000000009</ele>
        <time>2013-11-09T14:40:21.94</time>
      </trkpt>
      <trkpt lat="38.50184" lon="-1.1088233333333333">
        <ele>1403.000000000001</ele>
        <time>2013-11-09T14:40:22.95</time>
      </trkpt>
      <trkpt lat="38.50187833333333" lon="-1.1088216666666666">
        <ele>1400.900000000001</ele>
        <time>2013-11-09T14:40:23.95</time>
      </trkpt>
      <trkpt lat="38.50192333333333" lon="-1.1088233333333333">
        <ele>1398.900000000001</ele>
        <time>2013-11-09T14:40:24.95</time>
      </trkpt>
      <trkpt lat="38.50197" lon="-1.10883">
        <ele>1396.600000000001</ele>
        <time>2013-11-09T14:40:25.95</time>
      </trkpt>
      <trkpt lat="38.50201666666667" lon="-1.1088366666666667">
        <ele>1394.400000000001</ele>
        <time>2013-11-09T14:40:26.95</time>
      </trkpt>
      <trkpt lat="38.502066666666664" lon="-1.108835">
        <ele>1392.000000000001</ele>
        <time>2013-11-09T14:40:27.95</time>
      </trkpt>
      <trkpt lat="38.5021" lon="-1.1088316666666667">
        <ele>1390.400000000001</ele>
        <time>2013-11-09T14:40:28.95</time>
      </trkpt>
      <trkpt lat="38.50213" lon="-1.10883">
        <ele>1389.100000000001</ele>
        <time>2013-11-09T14:40:29.95</time>
      </trkpt>
      <trkpt lat="38.50216" lon="-1.108825">
        <ele>1388.100000000001</ele>
        <time>2013-11-09T14:40:30.95</time>
      </trkpt>
      <trkpt lat="38.502195" lon="-1.1088183333333332">
        <ele>1387.200000000001</ele>
        <time>2013-11-09T14:40:31.94</time>
      </trkpt>
      <trkpt lat="38.50224166666667" lon="-1.1088033333333334">
        <ele>1385.8000000000009</ele>
        <time>2013-11-09T14:40:32.95</time>
      </trkpt>
      <trkpt lat="38.50228833333333" lon="-1.10878">
        <ele>1384.1000000000008</ele>
        <time>2013-11-09T14:40:33.95</time>
      </trkpt>
      <trkpt lat="38.50232166666667" lon="-1.1087683333333334">
        <ele>1382.8000000000009</ele>
        <time>2013-11-09T14:40:34.95</time>
      </trkpt>
      <trkpt lat="38.50235" lon="-1.1087616666666666">
        <ele>1382.700000000001</ele>
        <time>2013-11-09T14:40:35.95</time>
      </trkpt>
      <trkpt lat="38.502375" lon="-1.10876">
        <ele>1382.600000000001</ele>
        <time>2013-11-09T14:40:36.94</time>
      </trkpt>
      <trkpt lat="38.502406666666666" lon="-1.1087616666666666">
        <ele>1381.400000000001</ele>
        <time>2013-11-09T14:40:37.95</time>
      </trkpt>
      <trkpt lat="38.502446666666664" lon="-1.1087566666666666">
        <ele>1379.900000000001</ele>
        <time>2013-11-09T14:40:38.94</time>
      </trkpt>
      <trkpt lat="38.50248666666667" lon="-1.1087416666666667">
        <ele>1378.800000000001</ele>
        <time>2013-11-09T14:40:39.95</time>
      </trkpt>
      <trkpt lat="38.50253333333333" lon="-1.1087216666666666">
        <ele>1377.600000000001</ele>
        <time>2013-11-09T14:40:40.93</time>
      </trkpt>
      <trkpt lat="38.50257" lon="-1.1087033333333334">
        <ele>1376.900000000001</ele>
        <time>2013-11-09T14:40:41.95</time>
      </trkpt>
      <trkpt lat="38.502613333333336" lon="-1.108685">
        <ele>1376.600000000001</ele>
        <time>2013-11-09T14:40:43.49</time>
      </trkpt>
      <trkpt lat="38.50266333333333" lon="-1.1086616666666667">
        <ele>1376.400000000001</ele>
        <time>2013-11-09T14:40:43.95</time>
      </trkpt>
      <trkpt lat="38.50273166666667" lon="-1.108625">
        <ele>1375.400000000001</ele>
        <time>2013-11-09T14:40:44.93</time>
      </trkpt>
      <trkpt lat="38.502795" lon="-1.1085883333333333">
        <ele>1374.300000000001</ele>
        <time>2013-11-09T14:40:45.95</time>
      </trkpt>
      <trkpt lat="38.502851666666665" lon="-1.1085533333333333">
        <ele>1373.5000000000011</ele>
        <time>2013-11-09T14:40:46.96</time>
      </trkpt>
      <trkpt lat="38.50289333333333" lon="-1.1085133333333332">
        <ele>1372.7000000000012</ele>
        <time>2013-11-09T14:40:47.95</time>
      </trkpt>
      <trkpt lat="38.50292833333334" lon="-1.1084783333333332">
        <ele>1371.800000000001</ele>
        <time>2013-11-09T14:40:48.95</time>
      </trkpt>
      <trkpt lat="38.502961666666664" lon="-1.10845">
        <ele>1370.900000000001</ele>
        <time>2013-11-09T14:40:49.96</time>
      </trkpt>
      <trkpt lat="38.50299666666667" lon="-1.108435">
        <ele>1369.500000000001</ele>
        <time>2013-11-09T14:40:50.95</time>
      </trkpt>
      <trkpt lat="38.50304" lon="-1.108415">
        <ele>1367.700000000001</ele>
        <time>2013-11-09T14:40:51.94</time>
      </trkpt>
      <trkpt lat="38.503083333333336" lon="-1.108395">
        <ele>1367.500000000001</ele>
        <time>2013-11-09T14:40:52.95</time>
      </trkpt>
      <trkpt lat="38.503121666666665" lon="-1.1083783333333332">
        <ele>1365.3000000000009</ele>
        <time>2013-11-09T14:40:53.95</time>
      </trkpt>
      <trkpt lat="38.503148333333336" lon="-1.1083616666666667">
        <ele>1365.000000000001</ele>
        <time>2013-11-09T14:40:54.97</time>
      </trkpt>
      <trkpt lat="38.503168333333335" lon="-1.10835">
        <ele>1364.8000000000009</ele>
        <time>2013-11-09T14:40:55.95</time>
      </trkpt>
      <trkpt lat="38.503188333333334" lon="-1.10834">
        <ele>1364.500000000001</ele>
        <time>2013-11-09T14:40:56.95</time>
      </trkpt>
      <trkpt lat="38.503218333333336" lon="-1.1083383333333334">
        <ele>1361.1000000000008</ele>
        <time>2013-11-09T14:40:57.94</time>
      </trkpt>
      <trkpt lat="38.503255" lon="-1.10833">
        <ele>1357.8000000000009</ele>
        <time>2013-11-09T14:40:58.95</time>
      </trkpt>
      <trkpt lat="38.50330666666667" lon="-1.10832">
        <ele>1354.4000000000008</ele>
        <time>2013-11-09T14:41:00.59</time>
      </trkpt>
      <trkpt lat="38.503348333333335" lon="-1.1082866666666666">
        <ele>1351.3000000000009</ele>
        <time>2013-11-09T14:41:00.95</time>
      </trkpt>
      <trkpt lat="38.50338333333333" lon="-1.10825">
        <ele>1348.4000000000008</ele>
        <time>2013-11-09T14:41:01.95</time>
      </trkpt>
      <trkpt lat="38.50340833333333" lon="-1.1082233333333333">
        <ele>1345.5000000000007</ele>
        <time>2013-11-09T14:41:02.96</time>
      </trkpt>
      <trkpt lat="38.503438333333335" lon="-1.108205">
        <ele>1342.4000000000008</ele>
        <time>2013-11-09T14:41:03.95</time>
      </trkpt>
      <trkpt lat="38.50347333333333" lon="-1.1081833333333333">
        <ele>1342.1000000000008</ele>
        <time>2013-11-09T14:41:04.96</time>
      </trkpt>
      <trkpt lat="38.503521666666664" lon="-1.10817">
        <ele>1338.6000000000008</ele>
        <time>2013-11-09T14:41:05.96</time>
      </trkpt>
      <trkpt lat="38.50357666666667" lon="-1.10816">
        <ele>1335.1000000000008</ele>
        <time>2013-11-09T14:41:07.29</time>
      </trkpt>
      <trkpt lat="38.50362166666667" lon="-1.108155">
        <ele>1332.1000000000008</ele>
        <time>2013-11-09T14:41:07.96</time>
      </trkpt>
      <trkpt lat="38.503661666666666" lon="-1.108155">
        <ele>1329.9000000000008</ele>
        <time>2013-11-09T14:41:08.95</time>
      </trkpt>
      <trkpt lat="38.50368" lon="-1.1081733333333332">
        <ele>1329.7000000000007</ele>
        <time>2013-11-09T14:41:09.95</time>
      </trkpt>
      <trkpt lat="38.503701666666664" lon="-1.108185">
        <ele>1329.5000000000007</ele>
        <time>2013-11-09T14:41:10.95</time>
      </trkpt>
      <trkpt lat="38.503725" lon="-1.10819">
        <ele>1329.3000000000006</ele>
        <time>2013-11-09T14:41:11.95</time>
      </trkpt>
      <trkpt lat="38.50376333333333" lon="-1.1082016666666668">
        <ele>1327.6000000000006</ele>
        <time>2013-11-09T14:41:12.95</time>
      </trkpt>
      <trkpt lat="38.503805" lon="-1.1082116666666666">
        <ele>1326.0000000000007</ele>
        <time>2013-11-09T14:41:13.95</time>
      </trkpt>
      <trkpt lat="38.50385166666667" lon="-1.1082216666666667">
        <ele>1324.1000000000006</ele>
        <time>2013-11-09T14:41:14.95</time>
      </trkpt>
      <trkpt lat="38.503901666666664" lon="-1.10823">
        <ele>1322.4000000000005</ele>
        <time>2013-11-09T14:41:15.94</time>
      </trkpt>
      <trkpt lat="38.50396" lon="-1.1082466666666666">
        <ele>1321.2000000000005</ele>
        <time>2013-11-09T14:41:16.95</time>
      </trkpt>
      <trkpt lat="38.50400833333333" lon="-1.1082816666666666">
        <ele>1320.2000000000005</ele>
        <time>2013-11-09T14:41:17.95</time>
      </trkpt>
      <trkpt lat="38.50404833333333" lon="-1.1083183333333333">
        <ele>1319.7000000000005</ele>
        <time>2013-11-09T14:41:18.95</time>
      </trkpt>
      <trkpt lat="38.504083333333334" lon="-1.10835">
        <ele>1319.2000000000005</ele>
        <time>2013-11-09T14:41:19.95</time>
      </trkpt>
      <trkpt lat="38.50412333333333" lon="-1.108365">
        <ele>1318.9000000000005</ele>
        <time>2013-11-09T14:41:20.93</time>
      </trkpt>
      <trkpt lat="38.504165" lon="-1.108375">
        <ele>1318.8000000000006</ele>
        <time>2013-11-09T14:41:21.95</time>
      </trkpt>
      <trkpt lat="38.504203333333336" lon="-1.10839">
        <ele>1318.8000000000006</ele>
        <time>2013-11-09T14:41:22.94</time>
      </trkpt>
      <trkpt lat="38.50423333333333" lon="-1.1084216666666666">
        <ele>1318.8000000000006</ele>
        <time>2013-11-09T14:41:23.95</time>
      </trkpt>
      <trkpt lat="38.504263333333334" lon="-1.1084533333333333">
        <ele>1318.7000000000007</ele>
        <time>2013-11-09T14:41:24.95</time>
      </trkpt>
      <trkpt lat="38.50429833333333" lon="-1.10848">
        <ele>1318.5000000000007</ele>
        <time>2013-11-09T14:41:25.95</time>
      </trkpt>
      <trkpt lat="38.50433666666667" lon="-1.1085116666666666">
        <ele>1318.1000000000006</ele>
        <time>2013-11-09T14:41:26.98</time>
      </trkpt>
      <trkpt lat="38.50438166666667" lon="-1.1085183333333333">
        <ele>1318.1000000000006</ele>
        <time>2013-11-09T14:41:27.95</time>
      </trkpt>
      <trkpt lat="38.504435" lon="-1.1085133333333332">
        <ele>1318.4000000000005</ele>
        <time>2013-11-09T14:41:28.95</time>
      </trkpt>
      <trkpt lat="38.504493333333336" lon="-1.1085033333333334">
        <ele>1318.4000000000005</ele>
        <time>2013-11-09T14:41:29.95</time>
      </trkpt>
      <trkpt lat="38.504551666666664" lon="-1.1084916666666667">
        <ele>1318.0000000000005</ele>
        <time>2013-11-09T14:41:30.95</time>
      </trkpt>
      <trkpt lat="38.50460666666667" lon="-1.108485">
        <ele>1318.0000000000005</ele>
        <time>2013-11-09T14:41:31.95</time>
      </trkpt>
      <trkpt lat="38.50465" lon="-1.10849">
        <ele>1318.0000000000005</ele>
        <time>2013-11-09T14:41:32.94</time>
      </trkpt>
      <trkpt lat="38.50467666666667" lon="-1.1085016666666667">
        <ele>1318.0000000000005</ele>
        <time>2013-11-09T14:41:33.95</time>
      </trkpt>
      <trkpt lat="38.504693333333336" lon="-1.1085116666666666">
        <ele>1317.9000000000005</ele>
        <time>2013-11-09T14:41:34.95</time>
      </trkpt>
      <trkpt lat="38.504706666666664" lon="-1.108525">
        <ele>1317.7000000000005</ele>
        <time>2013-11-09T14:41:35.95</time>
      </trkpt>
      <trkpt lat="38.504713333333335" lon="-1.10854">
        <ele>1317.5000000000005</ele>
        <time>2013-11-09T14:41:36.95</time>
      </trkpt>
      <trkpt lat="38.50472166666667" lon="-1.1085583333333333">
        <ele>1317.3000000000004</ele>
        <time>2013-11-09T14:41:37.95</time>
      </trkpt>
      <trkpt lat="38.504736666666666" lon="-1.1085766666666668">
        <ele>1317.1000000000004</ele>
        <time>2013-11-09T14:41:38.95</time>
      </trkpt>
      <trkpt lat="38.50476333333334" lon="-1.1085833333333333">
        <ele>1316.9000000000003</ele>
        <time>2013-11-09T14:41:39.93</time>
      </trkpt>
      <trkpt lat="38.50479333333333" lon="-1.1085816666666666">
        <ele>1316.7000000000003</ele>
        <time>2013-11-09T14:41:40.95</time>
      </trkpt>
      <trkpt lat="38.504821666666665" lon="-1.1085716666666667">
        <ele>1316.4000000000003</ele>
        <time>2013-11-09T14:41:41.95</time>
      </trkpt>
      <trkpt lat="38.50485" lon="-1.1085616666666667">
        <ele>1316.1000000000004</ele>
        <time>2013-11-09T14:41:42.95</time>
      </trkpt>
      <trkpt lat="38.50488333333333" lon="-1.1085433333333334">
        <ele>1315.7000000000003</ele>
        <time>2013-11-09T14:41:43.95</time>
      </trkpt>
      <trkpt lat="38.50491666666667" lon="-1.1085183333333333">
        <ele>1315.3000000000002</ele>
        <time>2013-11-09T14:41:44.92</time>
      </trkpt>
      <trkpt lat="38.504956666666665" lon="-1.108485">
        <ele>1311.0000000000002</ele>
        <time>2013-11-09T14:41:45.96</time>
      </trkpt>
      <trkpt lat="38.505005" lon="-1.1084533333333333">
        <ele>1307.1000000000001</ele>
        <time>2013-11-09T14:41:46.96</time>
      </trkpt>
      <trkpt lat="38.50505166666667" lon="-1.10842">
        <ele>1303.5000000000002</ele>
        <time>2013-11-09T14:41:47.96</time>
      </trkpt>
      <trkpt lat="38.50512333333333" lon="-1.1083766666666666">
        <ele>1300.2000000000003</ele>
        <time>2013-11-09T14:41:48.96</time>
      </trkpt>
      <trkpt lat="38.50519333333333" lon="-1.1083316666666667">
        <ele>1297.2000000000003</ele>
        <time>2013-11-09T14:41:49.96</time>
      </trkpt>
      <trkpt lat="38.50525" lon="-1.1082983333333334">
        <ele>1294.8000000000002</ele>
        <time>2013-11-09T14:41:50.92</time>
      </trkpt>
      <trkpt lat="38.50530166666667" lon="-1.1082633333333334">
        <ele>1292.5000000000002</ele>
        <time>2013-11-09T14:41:51.96</time>
      </trkpt>
      <trkpt lat="38.50533333333333" lon="-1.1082633333333334">
        <ele>1290.3000000000002</ele>
        <time>2013-11-09T14:41:52.96</time>
      </trkpt>
      <trkpt lat="38.505361666666666" lon="-1.10827">
        <ele>1288.2000000000003</ele>
        <time>2013-11-09T14:41:53.96</time>
      </trkpt>
      <trkpt lat="38.5054" lon="-1.10827">
        <ele>1286.2000000000003</ele>
        <time>2013-11-09T14:41:54.96</time>
      </trkpt>
      <trkpt lat="38.50543666666667" lon="-1.1082666666666667">
        <ele>1284.2000000000003</ele>
        <time>2013-11-09T14:41:55.93</time>
      </trkpt>
      <trkpt lat="38.50548333333333" lon="-1.108255">
        <ele>1282.0000000000002</ele>
        <time>2013-11-09T14:41:56.94</time>
      </trkpt>
      <trkpt lat="38.50553166666667" lon="-1.10824">
        <ele>1279.8000000000002</ele>
        <time>2013-11-09T14:41:57.96</time>
      </trkpt>
      <trkpt lat="38.505575" lon="-1.1082266666666667">
        <ele>1277.7000000000003</ele>
        <time>2013-11-09T14:41:58.96</time>
      </trkpt>
      <trkpt lat="38.50561666666667" lon="-1.10821">
        <ele>1275.9000000000003</ele>
        <time>2013-11-09T14:41:59.96</time>
      </trkpt>
      <trkpt lat="38.505658333333336" lon="-1.10819">
        <ele>1274.1000000000004</ele>
        <time>2013-11-09T14:42:00.96</time>
      </trkpt>
      <trkpt lat="38.50570666666667" lon="-1.1081666666666667">
        <ele>1272.6000000000004</ele>
        <time>2013-11-09T14:42:01.95</time>
      </trkpt>
      <trkpt lat="38.50575" lon="-1.1081416666666666">
        <ele>1271.2000000000003</ele>
        <time>2013-11-09T14:42:02.93</time>
      </trkpt>
      <trkpt lat="38.50579833333333" lon="-1.1081083333333333">
        <ele>1269.8000000000002</ele>
        <time>2013-11-09T14:42:03.96</time>
      </trkpt>
      <trkpt lat="38.50584666666666" lon="-1.10807">
        <ele>1268.4</ele>
        <time>2013-11-09T14:42:04.96</time>
      </trkpt>
      <trkpt lat="38.50588833333333" lon="-1.1080316666666667">
        <ele>1267</ele>
        <time>2013-11-09T14:42:05.96</time>
      </trkpt>
      <trkpt lat="38.50593166666667" lon="-1.107995">
        <ele>1265.6</ele>
        <time>2013-11-09T14:42:06.96</time>
      </trkpt>
      <trkpt lat="38.50599166666667" lon="-1.107945">
        <ele>1264.3</ele>
        <time>2013-11-09T14:42:07.96</time>
      </trkpt>
      <trkpt lat="38.506056666666666" lon="-1.1078883333333334">
        <ele>1263</ele>
        <time>2013-11-09T14:42:08.93</time>
      </trkpt>
      <trkpt lat="38.506116666666664" lon="-1.1078366666666666">
        <ele>1261.6</ele>
        <time>2013-11-09T14:42:09.96</time>
      </trkpt>
      <trkpt lat="38.50617166666667" lon="-1.1077866666666667">
        <ele>1260.6</ele>
        <time>2013-11-09T14:42:10.96</time>
      </trkpt>
      <trkpt lat="38.50622333333333" lon="-1.10774">
        <ele>1260.3</ele>
        <time>2013-11-09T14:42:12.29</time>
      </trkpt>
      <trkpt lat="38.50627" lon="-1.1076983333333332">
        <ele>1260.1</ele>
        <time>2013-11-09T14:42:12.96</time>
      </trkpt>
      <trkpt lat="38.50631333333333" lon="-1.107655">
        <ele>1260.3999999999999</ele>
        <time>2013-11-09T14:42:13.96</time>
      </trkpt>
      <trkpt lat="38.50635333333334" lon="-1.10761">
        <ele>1260.8</ele>
        <time>2013-11-09T14:42:14.96</time>
      </trkpt>
      <trkpt lat="38.50639833333334" lon="-1.10756">
        <ele>1261.3</ele>
        <time>2013-11-09T14:42:15.96</time>
      </trkpt>
      <trkpt lat="38.506435" lon="-1.10751">
        <ele>1262</ele>
        <time>2013-11-09T14:42:16.96</time>
      </trkpt>
      <trkpt lat="38.506476666666664" lon="-1.107455">
        <ele>1262.6</ele>
        <time>2013-11-09T14:42:17.96</time>
      </trkpt>
      <trkpt lat="38.506525" lon="-1.107385">
        <ele>1263</ele>
        <time>2013-11-09T14:42:19.29</time>
      </trkpt>
      <trkpt lat="38.50657666666667" lon="-1.1073016666666666">
        <ele>1263.5</ele>
        <time>2013-11-09T14:42:19.96</time>
      </trkpt>
      <trkpt lat="38.506636666666665" lon="-1.10721">
        <ele>1263.3</ele>
        <time>2013-11-09T14:42:20.93</time>
      </trkpt>
      <trkpt lat="38.50668833333334" lon="-1.1071366666666667">
        <ele>1262.8</ele>
        <time>2013-11-09T14:42:21.96</time>
      </trkpt>
      <trkpt lat="38.50674333333333" lon="-1.1070883333333332">
        <ele>1262</ele>
        <time>2013-11-09T14:42:22.96</time>
      </trkpt>
      <trkpt lat="38.506775" lon="-1.107065">
        <ele>1262.2</ele>
        <time>2013-11-09T14:42:23.96</time>
      </trkpt>
      <trkpt lat="38.506816666666666" lon="-1.1070266666666666">
        <ele>1262.9</ele>
        <time>2013-11-09T14:42:24.96</time>
      </trkpt>
      <trkpt lat="38.506865" lon="-1.106975">
        <ele>1264</ele>
        <time>2013-11-09T14:42:25.96</time>
      </trkpt>
      <trkpt lat="38.50691333333333" lon="-1.1069216666666666">
        <ele>1265.1</ele>
        <time>2013-11-09T14:42:26.93</time>
      </trkpt>
      <trkpt lat="38.50695" lon="-1.1068683333333333">
        <ele>1266.1</ele>
        <time>2013-11-09T14:42:27.96</time>
      </trkpt>
      <trkpt lat="38.506978333333336" lon="-1.106805">
        <ele>1267.1</ele>
        <time>2013-11-09T14:42:28.96</time>
      </trkpt>
      <trkpt lat="38.506993333333334" lon="-1.1067016666666667">
        <ele>1268.1</ele>
        <time>2013-11-09T14:42:29.96</time>
      </trkpt>
      <trkpt lat="38.507035" lon="-1.106615">
        <ele>1268.8</ele>
        <time>2013-11-09T14:42:30.96</time>
      </trkpt>
      <trkpt lat="38.50707666666667" lon="-1.1065316666666667">
        <ele>1269.6</ele>
        <time>2013-11-09T14:42:31.96</time>
      </trkpt>
      <trkpt lat="38.50716166666667" lon="-1.10647">
        <ele>1270.1</ele>
        <time>2013-11-09T14:42:32.93</time>
      </trkpt>
      <trkpt lat="38.50725333333333" lon="-1.1064133333333332">
        <ele>1270.5</ele>
        <time>2013-11-09T14:42:33.96</time>
      </trkpt>
      <trkpt lat="38.50732" lon="-1.1063633333333334">
        <ele>1270.7</ele>
        <time>2013-11-09T14:42:34.96</time>
      </trkpt>
      <trkpt lat="38.507365" lon="-1.1063283333333334">
        <ele>1271</ele>
        <time>2013-11-09T14:42:35.95</time>
      </trkpt>
      <trkpt lat="38.50740833333333" lon="-1.106295">
        <ele>1270.9</ele>
        <time>2013-11-09T14:42:36.96</time>
      </trkpt>
      <trkpt lat="38.50745333333333" lon="-1.10626">
        <ele>1270.8000000000002</ele>
        <time>2013-11-09T14:42:37.96</time>
      </trkpt>
      <trkpt lat="38.50751666666667" lon="-1.1062083333333332">
        <ele>1270.6000000000001</ele>
        <time>2013-11-09T14:42:38.96</time>
      </trkpt>
      <trkpt lat="38.507583333333336" lon="-1.1061483333333333">
        <ele>1270.2</ele>
        <time>2013-11-09T14:42:39.96</time>
      </trkpt>
      <trkpt lat="38.50765666666667" lon="-1.1060816666666666">
        <ele>1269.9</ele>
        <time>2013-11-09T14:42:40.96</time>
      </trkpt>
      <trkpt lat="38.50772833333333" lon="-1.106015">
        <ele>1270</ele>
        <time>2013-11-09T14:42:41.96</time>
      </trkpt>
      <trkpt lat="38.5078" lon="-1.10594">
        <ele>1270.1</ele>
        <time>2013-11-09T14:42:42.96</time>
      </trkpt>
      <trkpt lat="38.50785" lon="-1.1058766666666666">
        <ele>1270</ele>
        <time>2013-11-09T14:42:43.96</time>
      </trkpt>
      <trkpt lat="38.507893333333335" lon="-1.10582">
        <ele>1269.7</ele>
        <time>2013-11-09T14:42:44.93</time>
      </trkpt>
      <trkpt lat="38.50794666666667" lon="-1.1057616666666668">
        <ele>1269.4</ele>
        <time>2013-11-09T14:42:45.96</time>
      </trkpt>
      <trkpt lat="38.50800666666667" lon="-1.1057033333333333">
        <ele>1269</ele>
        <time>2013-11-09T14:42:46.96</time>
      </trkpt>
      <trkpt lat="38.50808" lon="-1.1056733333333333">
        <ele>1269.6</ele>
        <time>2013-11-09T14:42:47.96</time>
      </trkpt>
      <trkpt lat="38.50817" lon="-1.1056366666666666">
        <ele>1270.3</ele>
        <time>2013-11-09T14:42:48.96</time>
      </trkpt>
      <trkpt lat="38.50825833333333" lon="-1.105605">
        <ele>1271.3</ele>
        <time>2013-11-09T14:42:49.96</time>
      </trkpt>
      <trkpt lat="38.50833166666666" lon="-1.1055783333333333">
        <ele>1272.5</ele>
        <time>2013-11-09T14:42:50.94</time>
      </trkpt>
      <trkpt lat="38.508388333333336" lon="-1.1055466666666667">
        <ele>1273.6</ele>
        <time>2013-11-09T14:42:51.96</time>
      </trkpt>
      <trkpt lat="38.50844" lon="-1.1054883333333334">
        <ele>1274.8999999999999</ele>
        <time>2013-11-09T14:42:52.96</time>
      </trkpt>
      <trkpt lat="38.508511666666664" lon="-1.1054066666666666">
        <ele>1275.8999999999999</ele>
        <time>2013-11-09T14:42:53.96</time>
      </trkpt>
      <trkpt lat="38.50859166666667" lon="-1.1053066666666667">
        <ele>1276.6999999999998</ele>
        <time>2013-11-09T14:42:54.96</time>
      </trkpt>
      <trkpt lat="38.50868166666667" lon="-1.1051933333333332">
        <ele>1277.7999999999997</ele>
        <time>2013-11-09T14:42:55.96</time>
      </trkpt>
      <trkpt lat="38.508766666666666" lon="-1.1050783333333334">
        <ele>1278.8999999999996</ele>
        <time>2013-11-09T14:42:56.93</time>
      </trkpt>
      <trkpt lat="38.50884166666667" lon="-1.1049666666666667">
        <ele>1280.1999999999996</ele>
        <time>2013-11-09T14:42:57.96</time>
      </trkpt>
      <trkpt lat="38.50890166666667" lon="-1.104855">
        <ele>1281.6999999999996</ele>
        <time>2013-11-09T14:42:58.96</time>
      </trkpt>
      <trkpt lat="38.508955" lon="-1.1047383333333334">
        <ele>1282.9999999999995</ele>
        <time>2013-11-09T14:42:59.96</time>
      </trkpt>
      <trkpt lat="38.50899666666667" lon="-1.1046">
        <ele>1284.3999999999996</ele>
        <time>2013-11-09T14:43:00.96</time>
      </trkpt>
      <trkpt lat="38.50903" lon="-1.1044616666666667">
        <ele>1286.0999999999997</ele>
        <time>2013-11-09T14:43:01.96</time>
      </trkpt>
      <trkpt lat="38.509055" lon="-1.104305">
        <ele>1287.9999999999998</ele>
        <time>2013-11-09T14:43:02.99</time>
      </trkpt>
      <trkpt lat="38.509078333333335" lon="-1.1041383333333334">
        <ele>1290.0999999999997</ele>
        <time>2013-11-09T14:43:03.96</time>
      </trkpt>
      <trkpt lat="38.50909166666667" lon="-1.1039583333333334">
        <ele>1292.4999999999998</ele>
        <time>2013-11-09T14:43:04.96</time>
      </trkpt>
      <trkpt lat="38.509101666666666" lon="-1.10378">
        <ele>1294.9999999999998</ele>
        <time>2013-11-09T14:43:05.96</time>
      </trkpt>
      <trkpt lat="38.509141666666665" lon="-1.1036383333333333">
        <ele>1296.5999999999997</ele>
        <time>2013-11-09T14:43:06.96</time>
      </trkpt>
      <trkpt lat="38.509206666666664" lon="-1.1035366666666666">
        <ele>1297.9999999999998</ele>
        <time>2013-11-09T14:43:07.96</time>
      </trkpt>
      <trkpt lat="38.50926333333334" lon="-1.1034383333333333">
        <ele>1299.3999999999999</ele>
        <time>2013-11-09T14:43:08.96</time>
      </trkpt>
      <trkpt lat="38.509303333333335" lon="-1.103365">
        <ele>1300.9999999999998</ele>
        <time>2013-11-09T14:43:09.93</time>
      </trkpt>
      <trkpt lat="38.509348333333335" lon="-1.1033383333333333">
        <ele>1302.9999999999998</ele>
        <time>2013-11-09T14:43:10.96</time>
      </trkpt>
      <trkpt lat="38.509393333333335" lon="-1.1033166666666667">
        <ele>1305.1999999999998</ele>
        <time>2013-11-09T14:43:11.93</time>
      </trkpt>
      <trkpt lat="38.50944833333333" lon="-1.1033216666666668">
        <ele>1307.2999999999997</ele>
        <time>2013-11-09T14:43:12.96</time>
      </trkpt>
      <trkpt lat="38.50951" lon="-1.1033583333333334">
        <ele>1309.2999999999997</ele>
        <time>2013-11-09T14:43:13.96</time>
      </trkpt>
      <trkpt lat="38.509586666666664" lon="-1.1034183333333334">
        <ele>1311.6999999999998</ele>
        <time>2013-11-09T14:43:14.93</time>
      </trkpt>
      <trkpt lat="38.50959833333334" lon="-1.10351">
        <ele>1313.9999999999998</ele>
        <time>2013-11-09T14:43:15.96</time>
      </trkpt>
      <trkpt lat="38.50957666666667" lon="-1.1036033333333333">
        <ele>1316.8999999999999</ele>
        <time>2013-11-09T14:43:16.96</time>
      </trkpt>
      <trkpt lat="38.50953833333333" lon="-1.1036666666666666">
        <ele>1320.1</ele>
        <time>2013-11-09T14:43:17.95</time>
      </trkpt>
      <trkpt lat="38.509483333333336" lon="-1.1037">
        <ele>1323.3</ele>
        <time>2013-11-09T14:43:18.92</time>
      </trkpt>
      <trkpt lat="38.50942833333333" lon="-1.1037283333333334">
        <ele>1326.1</ele>
        <time>2013-11-09T14:43:19.96</time>
      </trkpt>
      <trkpt lat="38.50937" lon="-1.1037583333333334">
        <ele>1327.6999999999998</ele>
        <time>2013-11-09T14:43:20.94</time>
      </trkpt>
      <trkpt lat="38.5093" lon="-1.1038">
        <ele>1328.8999999999999</ele>
        <time>2013-11-09T14:43:21.96</time>
      </trkpt>
      <trkpt lat="38.509205" lon="-1.1038466666666666">
        <ele>1329.8</ele>
        <time>2013-11-09T14:43:22.97</time>
      </trkpt>
      <trkpt lat="38.50911" lon="-1.1038833333333333">
        <ele>1330.5</ele>
        <time>2013-11-09T14:43:23.96</time>
      </trkpt>
      <trkpt lat="38.508963333333334" lon="-1.1038416666666666">
        <ele>1331.2</ele>
        <time>2013-11-09T14:43:24.96</time>
      </trkpt>
      <trkpt lat="38.508833333333335" lon="-1.1037233333333334">
        <ele>1330.9</ele>
        <time>2013-11-09T14:43:25.96</time>
      </trkpt>
      <trkpt lat="38.50873833333333" lon="-1.1035616666666668">
        <ele>1331</ele>
        <time>2013-11-09T14:43:26.94</time>
      </trkpt>
      <trkpt lat="38.508695" lon="-1.1033766666666667">
        <ele>1329.8</ele>
        <time>2013-11-09T14:43:27.96</time>
      </trkpt>
      <trkpt lat="38.50866833333333" lon="-1.1031733333333333">
        <ele>1328.3</ele>
        <time>2013-11-09T14:43:28.96</time>
      </trkpt>
      <trkpt lat="38.508673333333334" lon="-1.1029716666666667">
        <ele>1327</ele>
        <time>2013-11-09T14:43:29.96</time>
      </trkpt>
      <trkpt lat="38.50868333333333" lon="-1.102785">
        <ele>1325.9</ele>
        <time>2013-11-09T14:43:31.19</time>
      </trkpt>
      <trkpt lat="38.508698333333335" lon="-1.10261">
        <ele>1324.7</ele>
        <time>2013-11-09T14:43:31.96</time>
      </trkpt>
      <trkpt lat="38.50875333333333" lon="-1.1024683333333334">
        <ele>1323.9</ele>
        <time>2013-11-09T14:43:32.96</time>
      </trkpt>
      <trkpt lat="38.508811666666666" lon="-1.10235">
        <ele>1323.5</ele>
        <time>2013-11-09T14:43:33.96</time>
      </trkpt>
      <trkpt lat="38.50886333333333" lon="-1.1022533333333333">
        <ele>1323.1</ele>
        <time>2013-11-09T14:43:34.96</time>
      </trkpt>
      <trkpt lat="38.508916666666664" lon="-1.1021666666666667">
        <ele>1322.8</ele>
        <time>2013-11-09T14:43:35.96</time>
      </trkpt>
      <trkpt lat="38.508966666666666" lon="-1.102095">
        <ele>1322.8</ele>
        <time>2013-11-09T14:43:36.96</time>
      </trkpt>
      <trkpt lat="38.50901833333333" lon="-1.10203">
        <ele>1323</ele>
        <time>2013-11-09T14:43:37.96</time>
      </trkpt>
      <trkpt lat="38.50908166666667" lon="-1.101985">
        <ele>1323.2</ele>
        <time>2013-11-09T14:43:38.96</time>
      </trkpt>
      <trkpt lat="38.50915166666667" lon="-1.1019666666666668">
        <ele>1323.3</ele>
        <time>2013-11-09T14:43:39.96</time>
      </trkpt>
      <trkpt lat="38.50922833333333" lon="-1.101945">
        <ele>1323</ele>
        <time>2013-11-09T14:43:40.96</time>
      </trkpt>
      <trkpt lat="38.50930833333334" lon="-1.101925">
        <ele>1322.8</ele>
        <time>2013-11-09T14:43:41.96</time>
      </trkpt>
      <trkpt lat="38.50940333333333" lon="-1.101895">
        <ele>1322.5</ele>
        <time>2013-11-09T14:43:42.96</time>
      </trkpt>
      <trkpt lat="38.50948" lon="-1.1018633333333334">
        <ele>1322.9</ele>
        <time>2013-11-09T14:43:43.96</time>
      </trkpt>
      <trkpt lat="38.50955166666667" lon="-1.1018216666666667">
        <ele>1323.5</ele>
        <time>2013-11-09T14:43:44.96</time>
      </trkpt>
      <trkpt lat="38.50960833333333" lon="-1.1017516666666667">
        <ele>1323.9</ele>
        <time>2013-11-09T14:43:45.96</time>
      </trkpt>
      <trkpt lat="38.50966833333333" lon="-1.1016666666666666">
        <ele>1324</ele>
        <time>2013-11-09T14:43:46.96</time>
      </trkpt>
      <trkpt lat="38.50973" lon="-1.1015783333333333">
        <ele>1323.6</ele>
        <time>2013-11-09T14:43:47.96</time>
      </trkpt>
      <trkpt lat="38.509795" lon="-1.1014766666666667">
        <ele>1323.3</ele>
        <time>2013-11-09T14:43:48.96</time>
      </trkpt>
      <trkpt lat="38.509856666666664" lon="-1.1013633333333332">
        <ele>1323</ele>
        <time>2013-11-09T14:43:49.96</time>
      </trkpt>
      <trkpt lat="38.50991666666667" lon="-1.1012533333333334">
        <ele>1322.6</ele>
        <time>2013-11-09T14:43:50.97</time>
      </trkpt>
      <trkpt lat="38.50997666666667" lon="-1.1011683333333333">
        <ele>1322.1999999999998</ele>
        <time>2013-11-09T14:43:51.96</time>
      </trkpt>
      <trkpt lat="38.510038333333334" lon="-1.1010833333333334">
        <ele>1321.7999999999997</ele>
        <time>2013-11-09T14:43:52.96</time>
      </trkpt>
      <trkpt lat="38.51007666666667" lon="-1.101025">
        <ele>1321.5999999999997</ele>
        <time>2013-11-09T14:43:53.96</time>
      </trkpt>
      <trkpt lat="38.5101" lon="-1.1009716666666667">
        <ele>1321.4999999999998</ele>
        <time>2013-11-09T14:43:54.96</time>
      </trkpt>
      <trkpt lat="38.51011833333333" lon="-1.1009083333333334">
        <ele>1321.0999999999997</ele>
        <time>2013-11-09T14:43:55.96</time>
      </trkpt>
      <trkpt lat="38.51014833333333" lon="-1.1008316666666667">
        <ele>1320.3999999999996</ele>
        <time>2013-11-09T14:43:56.93</time>
      </trkpt>
      <trkpt lat="38.51018833333333" lon="-1.1007666666666667">
        <ele>1319.6999999999996</ele>
        <time>2013-11-09T14:43:57.96</time>
      </trkpt>
      <trkpt lat="38.51023" lon="-1.1007083333333334">
        <ele>1318.6999999999996</ele>
        <time>2013-11-09T14:43:58.96</time>
      </trkpt>
      <trkpt lat="38.510275" lon="-1.1006533333333333">
        <ele>1317.7999999999995</ele>
        <time>2013-11-09T14:43:59.96</time>
      </trkpt>
      <trkpt lat="38.51031833333333" lon="-1.10062">
        <ele>1316.6999999999996</ele>
        <time>2013-11-09T14:44:00.96</time>
      </trkpt>
      <trkpt lat="38.510353333333335" lon="-1.1005966666666667">
        <ele>1315.2999999999995</ele>
        <time>2013-11-09T14:44:01.96</time>
      </trkpt>
      <trkpt lat="38.51038333333333" lon="-1.1005733333333334">
        <ele>1313.9999999999995</ele>
        <time>2013-11-09T14:44:02.97</time>
      </trkpt>
      <trkpt lat="38.510418333333334" lon="-1.100545">
        <ele>1312.3999999999996</ele>
        <time>2013-11-09T14:44:03.96</time>
      </trkpt>
      <trkpt lat="38.51045833333333" lon="-1.1005183333333333">
        <ele>1310.1999999999996</ele>
        <time>2013-11-09T14:44:04.96</time>
      </trkpt>
      <trkpt lat="38.510506666666664" lon="-1.1004916666666666">
        <ele>1307.9999999999995</ele>
        <time>2013-11-09T14:44:05.96</time>
      </trkpt>
      <trkpt lat="38.510555" lon="-1.1004616666666667">
        <ele>1305.7999999999995</ele>
        <time>2013-11-09T14:44:06.91</time>
      </trkpt>
      <trkpt lat="38.510615" lon="-1.1003983333333334">
        <ele>1304.1999999999996</ele>
        <time>2013-11-09T14:44:07.96</time>
      </trkpt>
      <trkpt lat="38.51067333333334" lon="-1.1003316666666667">
        <ele>1302.7999999999995</ele>
        <time>2013-11-09T14:44:08.96</time>
      </trkpt>
      <trkpt lat="38.510715" lon="-1.1002583333333333">
        <ele>1301.9999999999995</ele>
        <time>2013-11-09T14:44:09.96</time>
      </trkpt>
      <trkpt lat="38.510745" lon="-1.1001766666666666">
        <ele>1301.6999999999996</ele>
        <time>2013-11-09T14:44:10.96</time>
      </trkpt>
      <trkpt lat="38.51076333333334" lon="-1.10008">
        <ele>1301.3999999999996</ele>
        <time>2013-11-09T14:44:11.99</time>
      </trkpt>
      <trkpt lat="38.510776666666665" lon="-1.0999916666666667">
        <ele>1301.0999999999997</ele>
        <time>2013-11-09T14:44:12.96</time>
      </trkpt>
      <trkpt lat="38.51079" lon="-1.099905">
        <ele>1300.5999999999997</ele>
        <time>2013-11-09T14:44:13.96</time>
      </trkpt>
      <trkpt lat="38.51080666666667" lon="-1.099805">
        <ele>1300.1999999999996</ele>
        <time>2013-11-09T14:44:14.96</time>
      </trkpt>
      <trkpt lat="38.51083" lon="-1.099705">
        <ele>1299.6999999999996</ele>
        <time>2013-11-09T14:44:15.96</time>
      </trkpt>
      <trkpt lat="38.510875" lon="-1.0996083333333333">
        <ele>1299.0999999999997</ele>
        <time>2013-11-09T14:44:16.96</time>
      </trkpt>
      <trkpt lat="38.51091666666667" lon="-1.09952">
        <ele>1298.5999999999997</ele>
        <time>2013-11-09T14:44:17.96</time>
      </trkpt>
      <trkpt lat="38.510963333333336" lon="-1.0994433333333333">
        <ele>1297.5999999999997</ele>
        <time>2013-11-09T14:44:18.96</time>
      </trkpt>
      <trkpt lat="38.51101" lon="-1.0993683333333333">
        <ele>1296.6999999999996</ele>
        <time>2013-11-09T14:44:19.96</time>
      </trkpt>
      <trkpt lat="38.511046666666665" lon="-1.0993116666666667">
        <ele>1295.9999999999995</ele>
        <time>2013-11-09T14:44:20.96</time>
      </trkpt>
      <trkpt lat="38.511093333333335" lon="-1.0992466666666667">
        <ele>1295.3999999999996</ele>
        <time>2013-11-09T14:44:21.96</time>
      </trkpt>
      <trkpt lat="38.511145" lon="-1.0991766666666667">
        <ele>1294.5999999999997</ele>
        <time>2013-11-09T14:44:22.96</time>
      </trkpt>
      <trkpt lat="38.511205" lon="-1.0990983333333333">
        <ele>1293.7999999999997</ele>
        <time>2013-11-09T14:44:23.93</time>
      </trkpt>
      <trkpt lat="38.51126" lon="-1.0990066666666667">
        <ele>1292.6999999999998</ele>
        <time>2013-11-09T14:44:24.96</time>
      </trkpt>
      <trkpt lat="38.51131" lon="-1.0989083333333334">
        <ele>1291.8999999999999</ele>
        <time>2013-11-09T14:44:25.96</time>
      </trkpt>
      <trkpt lat="38.511358333333334" lon="-1.0988183333333332">
        <ele>1291.1999999999998</ele>
        <time>2013-11-09T14:44:26.96</time>
      </trkpt>
      <trkpt lat="38.5114" lon="-1.0987383333333334">
        <ele>1290.8999999999999</ele>
        <time>2013-11-09T14:44:27.96</time>
      </trkpt>
      <trkpt lat="38.51143833333333" lon="-1.0986783333333334">
        <ele>1290.4999999999998</ele>
        <time>2013-11-09T14:44:28.96</time>
      </trkpt>
      <trkpt lat="38.511485" lon="-1.0986133333333334">
        <ele>1290.1999999999998</ele>
        <time>2013-11-09T14:44:29.94</time>
      </trkpt>
      <trkpt lat="38.511535" lon="-1.0985566666666666">
        <ele>1289.6999999999998</ele>
        <time>2013-11-09T14:44:30.96</time>
      </trkpt>
      <trkpt lat="38.51159333333333" lon="-1.0985">
        <ele>1289.4999999999998</ele>
        <time>2013-11-09T14:44:31.96</time>
      </trkpt>
      <trkpt lat="38.511651666666666" lon="-1.09845">
        <ele>1289.2999999999997</ele>
        <time>2013-11-09T14:44:32.96</time>
      </trkpt>
      <trkpt lat="38.511705" lon="-1.0984066666666668">
        <ele>1289.1999999999998</ele>
        <time>2013-11-09T14:44:33.96</time>
      </trkpt>
      <trkpt lat="38.51175" lon="-1.0983716666666667">
        <ele>1288.9999999999998</ele>
        <time>2013-11-09T14:44:34.96</time>
      </trkpt>
      <trkpt lat="38.51180333333333" lon="-1.0983233333333333">
        <ele>1288.2999999999997</ele>
        <time>2013-11-09T14:44:35.93</time>
      </trkpt>
      <trkpt lat="38.51184833333333" lon="-1.09828">
        <ele>1288.0999999999997</ele>
        <time>2013-11-09T14:44:36.96</time>
      </trkpt>
      <trkpt lat="38.511898333333335" lon="-1.0982216666666667">
        <ele>1287.2999999999997</ele>
        <time>2013-11-09T14:44:37.96</time>
      </trkpt>
      <trkpt lat="38.51193833333333" lon="-1.0981666666666667">
        <ele>1286.6999999999998</ele>
        <time>2013-11-09T14:44:38.96</time>
      </trkpt>
      <trkpt lat="38.51197666666667" lon="-1.098105">
        <ele>1286.1999999999998</ele>
        <time>2013-11-09T14:44:39.96</time>
      </trkpt>
      <trkpt lat="38.512008333333334" lon="-1.0980416666666666">
        <ele>1285.6999999999998</ele>
        <time>2013-11-09T14:44:40.94</time>
      </trkpt>
      <trkpt lat="38.512035" lon="-1.0979816666666666">
        <ele>1284.8999999999999</ele>
        <time>2013-11-09T14:44:41.96</time>
      </trkpt>
      <trkpt lat="38.51206" lon="-1.0979216666666667">
        <ele>1283.8999999999999</ele>
        <time>2013-11-09T14:44:42.96</time>
      </trkpt>
      <trkpt lat="38.51208666666667" lon="-1.09787">
        <ele>1282.6</ele>
        <time>2013-11-09T14:44:43.96</time>
      </trkpt>
      <trkpt lat="38.512115" lon="-1.09782">
        <ele>1281.1</ele>
        <time>2013-11-09T14:44:44.96</time>
      </trkpt>
      <trkpt lat="38.512175" lon="-1.0977666666666666">
        <ele>1280</ele>
        <time>2013-11-09T14:44:45.98</time>
      </trkpt>
      <trkpt lat="38.512231666666665" lon="-1.097705">
        <ele>1279.6</ele>
        <time>2013-11-09T14:44:46.91</time>
      </trkpt>
      <trkpt lat="38.512295" lon="-1.097635">
        <ele>1279.3</ele>
        <time>2013-11-09T14:44:47.93</time>
      </trkpt>
      <trkpt lat="38.512323333333335" lon="-1.09757">
        <ele>1279.6</ele>
        <time>2013-11-09T14:44:49.36</time>
      </trkpt>
      <trkpt lat="38.51233666666667" lon="-1.0975016666666666">
        <ele>1279.6</ele>
        <time>2013-11-09T14:44:49.96</time>
      </trkpt>
      <trkpt lat="38.51235833333333" lon="-1.0974333333333333">
        <ele>1279.5</ele>
        <time>2013-11-09T14:44:50.96</time>
      </trkpt>
      <trkpt lat="38.512386666666664" lon="-1.0973566666666668">
        <ele>1279.4</ele>
        <time>2013-11-09T14:44:51.94</time>
      </trkpt>
      <trkpt lat="38.512436666666666" lon="-1.0972516666666667">
        <ele>1279.1000000000001</ele>
        <time>2013-11-09T14:44:52.96</time>
      </trkpt>
      <trkpt lat="38.51249833333333" lon="-1.0971616666666666">
        <ele>1278.5000000000002</ele>
        <time>2013-11-09T14:44:53.93</time>
      </trkpt>
      <trkpt lat="38.51255666666667" lon="-1.097075">
        <ele>1278.2000000000003</ele>
        <time>2013-11-09T14:44:55.9</time>
      </trkpt>
      <trkpt lat="38.51260666666667" lon="-1.0969983333333333">
        <ele>1278.4000000000003</ele>
        <time>2013-11-09T14:44:55.96</time>
      </trkpt>
      <trkpt lat="38.51264666666667" lon="-1.0969366666666667">
        <ele>1278.7000000000003</ele>
        <time>2013-11-09T14:44:56.94</time>
      </trkpt>
      <trkpt lat="38.51269166666667" lon="-1.09687">
        <ele>1279.0000000000002</ele>
        <time>2013-11-09T14:44:57.94</time>
      </trkpt>
      <trkpt lat="38.512746666666665" lon="-1.0968066666666667">
        <ele>1279.2000000000003</ele>
        <time>2013-11-09T14:44:58.96</time>
      </trkpt>
      <trkpt lat="38.51282" lon="-1.0967366666666667">
        <ele>1279.4000000000003</ele>
        <time>2013-11-09T14:44:59.96</time>
      </trkpt>
      <trkpt lat="38.512895" lon="-1.0966516666666666">
        <ele>1279.2000000000003</ele>
        <time>2013-11-09T14:45:00.96</time>
      </trkpt>
      <trkpt lat="38.51295833333333" lon="-1.0965766666666668">
        <ele>1278.5000000000002</ele>
        <time>2013-11-09T14:45:01.96</time>
      </trkpt>
      <trkpt lat="38.51300666666667" lon="-1.09652">
        <ele>1278.6000000000001</ele>
        <time>2013-11-09T14:45:02.93</time>
      </trkpt>
      <trkpt lat="38.51305166666667" lon="-1.09647">
        <ele>1278.8000000000002</ele>
        <time>2013-11-09T14:45:03.96</time>
      </trkpt>
      <trkpt lat="38.513086666666666" lon="-1.0964333333333334">
        <ele>1279.4</ele>
        <time>2013-11-09T14:45:04.96</time>
      </trkpt>
      <trkpt lat="38.51313" lon="-1.0963766666666668">
        <ele>1279.4</ele>
        <time>2013-11-09T14:45:06.9</time>
      </trkpt>
      <trkpt lat="38.513175" lon="-1.0963066666666668">
        <ele>1279.8000000000002</ele>
        <time>2013-11-09T14:45:06.96</time>
      </trkpt>
      <trkpt lat="38.51320666666667" lon="-1.0962183333333333">
        <ele>1280.6000000000001</ele>
        <time>2013-11-09T14:45:07.96</time>
      </trkpt>
      <trkpt lat="38.513238333333334" lon="-1.096135">
        <ele>1281.5000000000002</ele>
        <time>2013-11-09T14:45:08.93</time>
      </trkpt>
      <trkpt lat="38.51327" lon="-1.096055">
        <ele>1282.3000000000002</ele>
        <time>2013-11-09T14:45:09.96</time>
      </trkpt>
      <trkpt lat="38.51330166666666" lon="-1.0959783333333333">
        <ele>1283.1000000000001</ele>
        <time>2013-11-09T14:45:10.96</time>
      </trkpt>
      <trkpt lat="38.51333666666667" lon="-1.095905">
        <ele>1283.5000000000002</ele>
        <time>2013-11-09T14:45:11.99</time>
      </trkpt>
      <trkpt lat="38.513371666666664" lon="-1.0958366666666666">
        <ele>1284.2000000000003</ele>
        <time>2013-11-09T14:45:12.96</time>
      </trkpt>
      <trkpt lat="38.513403333333336" lon="-1.0957816666666667">
        <ele>1284.7000000000003</ele>
        <time>2013-11-09T14:45:14.19</time>
      </trkpt>
      <trkpt lat="38.513421666666666" lon="-1.0957433333333333">
        <ele>1285.4000000000003</ele>
        <time>2013-11-09T14:45:14.94</time>
      </trkpt>
      <trkpt lat="38.51345166666667" lon="-1.0957016666666666">
        <ele>1285.5000000000002</ele>
        <time>2013-11-09T14:45:15.94</time>
      </trkpt>
      <trkpt lat="38.51347" lon="-1.09568">
        <ele>1285.5000000000002</ele>
        <time>2013-11-09T14:45:16.96</time>
      </trkpt>
      <trkpt lat="38.513495" lon="-1.09566">
        <ele>1285.5000000000002</ele>
        <time>2013-11-09T14:45:17.91</time>
      </trkpt>
      <trkpt lat="38.51352166666667" lon="-1.0956583333333334">
        <ele>1285.4000000000003</ele>
        <time>2013-11-09T14:45:18.94</time>
      </trkpt>
      <trkpt lat="38.51354166666667" lon="-1.0956566666666667">
        <ele>1285.4000000000003</ele>
        <time>2013-11-09T14:45:20.19</time>
      </trkpt>
      <trkpt lat="38.51356" lon="-1.0956533333333334">
        <ele>1285.3000000000004</ele>
        <time>2013-11-09T14:45:20.93</time>
      </trkpt>
      <trkpt lat="38.51358833333333" lon="-1.0956583333333334">
        <ele>1285.3000000000004</ele>
        <time>2013-11-09T14:45:21.94</time>
      </trkpt>
      <trkpt lat="38.51361833333333" lon="-1.0956633333333334">
        <ele>1285.2000000000005</ele>
        <time>2013-11-09T14:45:22.96</time>
      </trkpt>
      <trkpt lat="38.513648333333336" lon="-1.0956666666666666">
        <ele>1285.2000000000005</ele>
        <time>2013-11-09T14:45:23.96</time>
      </trkpt>
      <trkpt lat="38.51368333333333" lon="-1.0956566666666667">
        <ele>1285.3000000000004</ele>
        <time>2013-11-09T14:45:24.96</time>
      </trkpt>
      <trkpt lat="38.51372333333333" lon="-1.095655">
        <ele>1286.2000000000005</ele>
        <time>2013-11-09T14:45:25.96</time>
      </trkpt>
      <trkpt lat="38.51377166666666" lon="-1.0956516666666667">
        <ele>1287.4000000000005</ele>
        <time>2013-11-09T14:45:26.93</time>
      </trkpt>
      <trkpt lat="38.513828333333336" lon="-1.095645">
        <ele>1288.6000000000006</ele>
        <time>2013-11-09T14:45:27.96</time>
      </trkpt>
      <trkpt lat="38.51387833333333" lon="-1.0956333333333332">
        <ele>1289.8000000000006</ele>
        <time>2013-11-09T14:45:28.96</time>
      </trkpt>
      <trkpt lat="38.51393" lon="-1.0956166666666667">
        <ele>1291.0000000000007</ele>
        <time>2013-11-09T14:45:29.96</time>
      </trkpt>
      <trkpt lat="38.51398833333333" lon="-1.09559">
        <ele>1292.3000000000006</ele>
        <time>2013-11-09T14:45:30.96</time>
      </trkpt>
      <trkpt lat="38.51404" lon="-1.0955666666666666">
        <ele>1293.3000000000006</ele>
        <time>2013-11-09T14:45:31.96</time>
      </trkpt>
      <trkpt lat="38.51408333333333" lon="-1.0955466666666667">
        <ele>1293.9000000000005</ele>
        <time>2013-11-09T14:45:32.93</time>
      </trkpt>
      <trkpt lat="38.51412833333333" lon="-1.0955183333333334">
        <ele>1294.6000000000006</ele>
        <time>2013-11-09T14:45:33.96</time>
      </trkpt>
      <trkpt lat="38.514176666666664" lon="-1.0954816666666667">
        <ele>1295.1000000000006</ele>
        <time>2013-11-09T14:45:34.96</time>
      </trkpt>
      <trkpt lat="38.51423" lon="-1.0954383333333333">
        <ele>1295.9000000000005</ele>
        <time>2013-11-09T14:45:35.96</time>
      </trkpt>
      <trkpt lat="38.51428" lon="-1.0953966666666666">
        <ele>1296.8000000000006</ele>
        <time>2013-11-09T14:45:36.96</time>
      </trkpt>
      <trkpt lat="38.514318333333335" lon="-1.09536">
        <ele>1298.0000000000007</ele>
        <time>2013-11-09T14:45:37.93</time>
      </trkpt>
      <trkpt lat="38.514345" lon="-1.0953366666666666">
        <ele>1298.1000000000006</ele>
        <time>2013-11-09T14:45:38.96</time>
      </trkpt>
      <trkpt lat="38.514365" lon="-1.0953166666666667">
        <ele>1298.3000000000006</ele>
        <time>2013-11-09T14:45:39.96</time>
      </trkpt>
      <trkpt lat="38.51439" lon="-1.0952933333333332">
        <ele>1298.4000000000005</ele>
        <time>2013-11-09T14:45:40.96</time>
      </trkpt>
      <trkpt lat="38.51442333333333" lon="-1.09527">
        <ele>1299.6000000000006</ele>
        <time>2013-11-09T14:45:41.96</time>
      </trkpt>
      <trkpt lat="38.51445833333333" lon="-1.0952466666666667">
        <ele>1300.5000000000007</ele>
        <time>2013-11-09T14:45:42.99</time>
      </trkpt>
      <trkpt lat="38.514493333333334" lon="-1.09523">
        <ele>1301.1000000000006</ele>
        <time>2013-11-09T14:45:43.96</time>
      </trkpt>
      <trkpt lat="38.51452166666667" lon="-1.09522">
        <ele>1301.1000000000006</ele>
        <time>2013-11-09T14:45:44.94</time>
      </trkpt>
      <trkpt lat="38.51455" lon="-1.0952166666666667">
        <ele>1301.1000000000006</ele>
        <time>2013-11-09T14:45:45.96</time>
      </trkpt>
      <trkpt lat="38.51457833333333" lon="-1.095215">
        <ele>1301.0000000000007</ele>
        <time>2013-11-09T14:45:46.96</time>
      </trkpt>
      <trkpt lat="38.51459333333333" lon="-1.095215">
        <ele>1301.0000000000007</ele>
        <time>2013-11-09T14:45:47.96</time>
      </trkpt>
      <trkpt lat="38.51462" lon="-1.095215">
        <ele>1300.9000000000008</ele>
        <time>2013-11-09T14:45:48.96</time>
      </trkpt>
      <trkpt lat="38.514651666666666" lon="-1.09521">
        <ele>1299.8000000000009</ele>
        <time>2013-11-09T14:45:49.96</time>
      </trkpt>
      <trkpt lat="38.514698333333335" lon="-1.0951866666666668">
        <ele>1299.000000000001</ele>
        <time>2013-11-09T14:45:50.96</time>
      </trkpt>
      <trkpt lat="38.51476" lon="-1.0951383333333333">
        <ele>1298.3000000000009</ele>
        <time>2013-11-09T14:45:51.94</time>
      </trkpt>
      <trkpt lat="38.51480333333333" lon="-1.095085">
        <ele>1298.4000000000008</ele>
        <time>2013-11-09T14:45:52.96</time>
      </trkpt>
      <trkpt lat="38.51484166666667" lon="-1.095035">
        <ele>1298.6000000000008</ele>
        <time>2013-11-09T14:45:53.96</time>
      </trkpt>
      <trkpt lat="38.51486833333333" lon="-1.0949983333333333">
        <ele>1298.6000000000008</ele>
        <time>2013-11-09T14:45:54.96</time>
      </trkpt>
      <trkpt lat="38.5149" lon="-1.0949733333333334">
        <ele>1298.500000000001</ele>
        <time>2013-11-09T14:45:55.96</time>
      </trkpt>
      <trkpt lat="38.514916666666664" lon="-1.09496">
        <ele>1298.500000000001</ele>
        <time>2013-11-09T14:45:56.96</time>
      </trkpt>
      <trkpt lat="38.51493333333333" lon="-1.0949316666666666">
        <ele>1298.1000000000008</ele>
        <time>2013-11-09T14:45:57.96</time>
      </trkpt>
      <trkpt lat="38.514966666666666" lon="-1.094885">
        <ele>1297.500000000001</ele>
        <time>2013-11-09T14:45:58.96</time>
      </trkpt>
      <trkpt lat="38.51499833333333" lon="-1.09483">
        <ele>1296.900000000001</ele>
        <time>2013-11-09T14:45:59.96</time>
      </trkpt>
      <trkpt lat="38.515033333333335" lon="-1.094775">
        <ele>1296.100000000001</ele>
        <time>2013-11-09T14:46:00.96</time>
      </trkpt>
      <trkpt lat="38.51506166666667" lon="-1.0947233333333333">
        <ele>1295.5000000000011</ele>
        <time>2013-11-09T14:46:01.96</time>
      </trkpt>
      <trkpt lat="38.51508166666667" lon="-1.0946816666666668">
        <ele>1294.7000000000012</ele>
        <time>2013-11-09T14:46:02.93</time>
      </trkpt>
      <trkpt lat="38.51512833333334" lon="-1.0946383333333334">
        <ele>1294.7000000000012</ele>
        <time>2013-11-09T14:46:03.96</time>
      </trkpt>
      <trkpt lat="38.515186666666665" lon="-1.0945816666666666">
        <ele>1293.7000000000012</ele>
        <time>2013-11-09T14:46:04.96</time>
      </trkpt>
      <trkpt lat="38.515238333333336" lon="-1.094535">
        <ele>1292.300000000001</ele>
        <time>2013-11-09T14:46:05.96</time>
      </trkpt>
      <trkpt lat="38.515296666666664" lon="-1.0944716666666667">
        <ele>1291.100000000001</ele>
        <time>2013-11-09T14:46:06.96</time>
      </trkpt>
      <trkpt lat="38.515343333333334" lon="-1.0944133333333332">
        <ele>1289.800000000001</ele>
        <time>2013-11-09T14:46:07.96</time>
      </trkpt>
      <trkpt lat="38.51538" lon="-1.094375">
        <ele>1287.800000000001</ele>
        <time>2013-11-09T14:46:08.96</time>
      </trkpt>
      <trkpt lat="38.515425" lon="-1.0943216666666666">
        <ele>1285.800000000001</ele>
        <time>2013-11-09T14:46:09.96</time>
      </trkpt>
      <trkpt lat="38.515478333333334" lon="-1.094265">
        <ele>1283.5000000000011</ele>
        <time>2013-11-09T14:46:10.96</time>
      </trkpt>
      <trkpt lat="38.515525" lon="-1.094215">
        <ele>1281.2000000000012</ele>
        <time>2013-11-09T14:46:12.29</time>
      </trkpt>
      <trkpt lat="38.51558" lon="-1.094155">
        <ele>1279.1000000000013</ele>
        <time>2013-11-09T14:46:12.96</time>
      </trkpt>
      <trkpt lat="38.515645" lon="-1.0940816666666666">
        <ele>1277.3000000000013</ele>
        <time>2013-11-09T14:46:13.96</time>
      </trkpt>
      <trkpt lat="38.51568833333333" lon="-1.0940266666666667">
        <ele>1275.5000000000014</ele>
        <time>2013-11-09T14:46:14.96</time>
      </trkpt>
      <trkpt lat="38.51571333333333" lon="-1.0939983333333334">
        <ele>1273.2000000000014</ele>
        <time>2013-11-09T14:46:15.96</time>
      </trkpt>
      <trkpt lat="38.51574333333333" lon="-1.0939833333333333">
        <ele>1271.7000000000014</ele>
        <time>2013-11-09T14:46:16.96</time>
      </trkpt>
      <trkpt lat="38.51578833333333" lon="-1.0939533333333333">
        <ele>1270.2000000000014</ele>
        <time>2013-11-09T14:46:17.96</time>
      </trkpt>
      <trkpt lat="38.515845" lon="-1.0939066666666666">
        <ele>1268.7000000000014</ele>
        <time>2013-11-09T14:46:18.96</time>
      </trkpt>
      <trkpt lat="38.51591166666667" lon="-1.0938583333333334">
        <ele>1267.0000000000014</ele>
        <time>2013-11-09T14:46:19.96</time>
      </trkpt>
      <trkpt lat="38.51597" lon="-1.0938183333333333">
        <ele>1265.6000000000013</ele>
        <time>2013-11-09T14:46:20.96</time>
      </trkpt>
      <trkpt lat="38.516015" lon="-1.0937883333333334">
        <ele>1264.5000000000014</ele>
        <time>2013-11-09T14:46:22.9</time>
      </trkpt>
      <trkpt lat="38.516063333333335" lon="-1.0937533333333334">
        <ele>1263.8000000000013</ele>
        <time>2013-11-09T14:46:22.96</time>
      </trkpt>
      <trkpt lat="38.51611666666667" lon="-1.0937116666666666">
        <ele>1263.3000000000013</ele>
        <time>2013-11-09T14:46:23.96</time>
      </trkpt>
      <trkpt lat="38.51617" lon="-1.09367">
        <ele>1262.7000000000014</ele>
        <time>2013-11-09T14:46:24.96</time>
      </trkpt>
      <trkpt lat="38.51622166666667" lon="-1.09361">
        <ele>1262.0000000000014</ele>
        <time>2013-11-09T14:46:25.96</time>
      </trkpt>
      <trkpt lat="38.51627833333333" lon="-1.0935383333333333">
        <ele>1261.4000000000015</ele>
        <time>2013-11-09T14:46:26.93</time>
      </trkpt>
      <trkpt lat="38.516326666666664" lon="-1.0934716666666666">
        <ele>1260.5000000000014</ele>
        <time>2013-11-09T14:46:27.96</time>
      </trkpt>
      <trkpt lat="38.516373333333334" lon="-1.0934116666666667">
        <ele>1259.2000000000014</ele>
        <time>2013-11-09T14:46:28.96</time>
      </trkpt>
      <trkpt lat="38.516423333333336" lon="-1.0933566666666668">
        <ele>1257.6000000000015</ele>
        <time>2013-11-09T14:46:29.96</time>
      </trkpt>
      <trkpt lat="38.516481666666664" lon="-1.0932866666666667">
        <ele>1256.1000000000015</ele>
        <time>2013-11-09T14:46:30.97</time>
      </trkpt>
      <trkpt lat="38.516535" lon="-1.0932083333333333">
        <ele>1254.6000000000015</ele>
        <time>2013-11-09T14:46:31.96</time>
      </trkpt>
      <trkpt lat="38.51658666666667" lon="-1.0931316666666666">
        <ele>1252.9000000000015</ele>
        <time>2013-11-09T14:46:32.93</time>
      </trkpt>
      <trkpt lat="38.516641666666665" lon="-1.09306">
        <ele>1251.1000000000015</ele>
        <time>2013-11-09T14:46:33.96</time>
      </trkpt>
      <trkpt lat="38.516686666666665" lon="-1.0929983333333333">
        <ele>1248.8000000000015</ele>
        <time>2013-11-09T14:46:34.97</time>
      </trkpt>
      <trkpt lat="38.516725" lon="-1.0929516666666668">
        <ele>1246.1000000000015</ele>
        <time>2013-11-09T14:46:35.96</time>
      </trkpt>
      <trkpt lat="38.51676833333333" lon="-1.0928966666666666">
        <ele>1243.5000000000016</ele>
        <time>2013-11-09T14:46:36.96</time>
      </trkpt>
      <trkpt lat="38.51680833333333" lon="-1.092845">
        <ele>1240.9000000000017</ele>
        <time>2013-11-09T14:46:37.96</time>
      </trkpt>
      <trkpt lat="38.51685666666667" lon="-1.0927833333333334">
        <ele>1238.4000000000017</ele>
        <time>2013-11-09T14:46:38.95</time>
      </trkpt>
      <trkpt lat="38.51692" lon="-1.0927083333333334">
        <ele>1236.2000000000016</ele>
        <time>2013-11-09T14:46:39.96</time>
      </trkpt>
      <trkpt lat="38.51698" lon="-1.092635">
        <ele>1234.0000000000016</ele>
        <time>2013-11-09T14:46:40.96</time>
      </trkpt>
      <trkpt lat="38.51704" lon="-1.092555">
        <ele>1231.9000000000017</ele>
        <time>2013-11-09T14:46:41.96</time>
      </trkpt>
      <trkpt lat="38.51708333333333" lon="-1.0924766666666668">
        <ele>1229.5000000000016</ele>
        <time>2013-11-09T14:46:42.96</time>
      </trkpt>
      <trkpt lat="38.51712833333333" lon="-1.0923916666666666">
        <ele>1226.8000000000015</ele>
        <time>2013-11-09T14:46:43.96</time>
      </trkpt>
      <trkpt lat="38.51718" lon="-1.0922983333333334">
        <ele>1223.7000000000016</ele>
        <time>2013-11-09T14:46:44.97</time>
      </trkpt>
      <trkpt lat="38.517228333333335" lon="-1.0922">
        <ele>1220.7000000000016</ele>
        <time>2013-11-09T14:46:45.93</time>
      </trkpt>
      <trkpt lat="38.517273333333335" lon="-1.0921033333333334">
        <ele>1218.0000000000016</ele>
        <time>2013-11-09T14:46:46.96</time>
      </trkpt>
      <trkpt lat="38.51732833333333" lon="-1.0919983333333334">
        <ele>1215.6000000000015</ele>
        <time>2013-11-09T14:46:47.96</time>
      </trkpt>
      <trkpt lat="38.517383333333335" lon="-1.0918916666666667">
        <ele>1213.4000000000015</ele>
        <time>2013-11-09T14:46:48.96</time>
      </trkpt>
      <trkpt lat="38.51744333333333" lon="-1.091775">
        <ele>1212.1000000000015</ele>
        <time>2013-11-09T14:46:49.97</time>
      </trkpt>
      <trkpt lat="38.51749" lon="-1.0916683333333332">
        <ele>1211.4000000000015</ele>
        <time>2013-11-09T14:46:51.9</time>
      </trkpt>
      <trkpt lat="38.51753333333333" lon="-1.09157">
        <ele>1210.7000000000014</ele>
        <time>2013-11-09T14:46:51.92</time>
      </trkpt>
      <trkpt lat="38.51757166666667" lon="-1.0914783333333333">
        <ele>1209.9000000000015</ele>
        <time>2013-11-09T14:46:52.96</time>
      </trkpt>
      <trkpt lat="38.51761666666667" lon="-1.091385">
        <ele>1208.5000000000014</ele>
        <time>2013-11-09T14:46:53.96</time>
      </trkpt>
      <trkpt lat="38.51765666666667" lon="-1.0913066666666666">
        <ele>1206.9000000000015</ele>
        <time>2013-11-09T14:46:54.96</time>
      </trkpt>
      <trkpt lat="38.517693333333334" lon="-1.09124">
        <ele>1205.3000000000015</ele>
        <time>2013-11-09T14:46:55.96</time>
      </trkpt>
      <trkpt lat="38.517743333333335" lon="-1.0911566666666668">
        <ele>1204.0000000000016</ele>
        <time>2013-11-09T14:46:56.93</time>
      </trkpt>
      <trkpt lat="38.517795" lon="-1.0910733333333333">
        <ele>1202.7000000000016</ele>
        <time>2013-11-09T14:46:57.97</time>
      </trkpt>
      <trkpt lat="38.517858333333336" lon="-1.090985">
        <ele>1201.0000000000016</ele>
        <time>2013-11-09T14:46:58.97</time>
      </trkpt>
      <trkpt lat="38.51792666666667" lon="-1.09089">
        <ele>1199.6000000000015</ele>
        <time>2013-11-09T14:46:59.97</time>
      </trkpt>
      <trkpt lat="38.51799166666667" lon="-1.0908083333333334">
        <ele>1197.9000000000015</ele>
        <time>2013-11-09T14:47:00.97</time>
      </trkpt>
      <trkpt lat="38.518055" lon="-1.0907166666666666">
        <ele>1196.3000000000015</ele>
        <time>2013-11-09T14:47:01.97</time>
      </trkpt>
      <trkpt lat="38.518121666666666" lon="-1.090615">
        <ele>1194.5000000000016</ele>
        <time>2013-11-09T14:47:02.97</time>
      </trkpt>
      <trkpt lat="38.518185" lon="-1.0905116666666668">
        <ele>1192.8000000000015</ele>
        <time>2013-11-09T14:47:03.97</time>
      </trkpt>
      <trkpt lat="38.51823666666667" lon="-1.0904233333333333">
        <ele>1191.6000000000015</ele>
        <time>2013-11-09T14:47:04.96</time>
      </trkpt>
      <trkpt lat="38.518305" lon="-1.0903133333333332">
        <ele>1190.1000000000015</ele>
        <time>2013-11-09T14:47:05.97</time>
      </trkpt>
      <trkpt lat="38.51835666666667" lon="-1.09022">
        <ele>1189.4000000000015</ele>
        <time>2013-11-09T14:47:06.97</time>
      </trkpt>
      <trkpt lat="38.518413333333335" lon="-1.0901133333333333">
        <ele>1188.8000000000015</ele>
        <time>2013-11-09T14:47:07.97</time>
      </trkpt>
      <trkpt lat="38.51846333333334" lon="-1.0900166666666666">
        <ele>1188.3000000000015</ele>
        <time>2013-11-09T14:47:08.97</time>
      </trkpt>
      <trkpt lat="38.51851166666667" lon="-1.089915">
        <ele>1187.9000000000015</ele>
        <time>2013-11-09T14:47:09.96</time>
      </trkpt>
      <trkpt lat="38.518565" lon="-1.0898066666666666">
        <ele>1187.9000000000015</ele>
        <time>2013-11-09T14:47:10.96</time>
      </trkpt>
      <trkpt lat="38.518615" lon="-1.089705">
        <ele>1187.7000000000014</ele>
        <time>2013-11-09T14:47:11.99</time>
      </trkpt>
      <trkpt lat="38.518665" lon="-1.0896016666666666">
        <ele>1187.5000000000014</ele>
        <time>2013-11-09T14:47:12.97</time>
      </trkpt>
      <trkpt lat="38.518715" lon="-1.089505">
        <ele>1187.2000000000014</ele>
        <time>2013-11-09T14:47:13.97</time>
      </trkpt>
      <trkpt lat="38.518771666666666" lon="-1.0893983333333332">
        <ele>1186.7000000000014</ele>
        <time>2013-11-09T14:47:14.94</time>
      </trkpt>
      <trkpt lat="38.51882666666667" lon="-1.0892916666666668">
        <ele>1186.1000000000015</ele>
        <time>2013-11-09T14:47:15.97</time>
      </trkpt>
      <trkpt lat="38.518885" lon="-1.0891833333333334">
        <ele>1185.3000000000015</ele>
        <time>2013-11-09T14:47:16.97</time>
      </trkpt>
      <trkpt lat="38.518948333333334" lon="-1.0890766666666667">
        <ele>1184.6000000000015</ele>
        <time>2013-11-09T14:47:17.97</time>
      </trkpt>
      <trkpt lat="38.519015" lon="-1.088975">
        <ele>1183.8000000000015</ele>
        <time>2013-11-09T14:47:18.97</time>
      </trkpt>
      <trkpt lat="38.51907833333333" lon="-1.0888766666666667">
        <ele>1183.0000000000016</ele>
        <time>2013-11-09T14:47:19.97</time>
      </trkpt>
      <trkpt lat="38.51913833333333" lon="-1.0887833333333334">
        <ele>1182.2000000000016</ele>
        <time>2013-11-09T14:47:20.94</time>
      </trkpt>
      <trkpt lat="38.51920166666667" lon="-1.0886783333333334">
        <ele>1181.7000000000016</ele>
        <time>2013-11-09T14:47:21.97</time>
      </trkpt>
      <trkpt lat="38.519255" lon="-1.0885916666666666">
        <ele>1181.3000000000015</ele>
        <time>2013-11-09T14:47:22.97</time>
      </trkpt>
      <trkpt lat="38.519308333333335" lon="-1.0885133333333334">
        <ele>1180.7000000000016</ele>
        <time>2013-11-09T14:47:23.97</time>
      </trkpt>
      <trkpt lat="38.519365" lon="-1.0884233333333333">
        <ele>1180.2000000000016</ele>
        <time>2013-11-09T14:47:24.97</time>
      </trkpt>
      <trkpt lat="38.51943" lon="-1.0883133333333332">
        <ele>1179.5000000000016</ele>
        <time>2013-11-09T14:47:25.97</time>
      </trkpt>
      <trkpt lat="38.519485" lon="-1.0882183333333333">
        <ele>1179.1000000000015</ele>
        <time>2013-11-09T14:47:26.97</time>
      </trkpt>
      <trkpt lat="38.51953833333334" lon="-1.0881183333333333">
        <ele>1179.0000000000016</ele>
        <time>2013-11-09T14:47:27.97</time>
      </trkpt>
      <trkpt lat="38.51959166666666" lon="-1.0880183333333333">
        <ele>1178.8000000000015</ele>
        <time>2013-11-09T14:47:28.97</time>
      </trkpt>
      <trkpt lat="38.519648333333336" lon="-1.0879133333333333">
        <ele>1178.4000000000015</ele>
        <time>2013-11-09T14:47:29.97</time>
      </trkpt>
      <trkpt lat="38.519705" lon="-1.08781">
        <ele>1177.9000000000015</ele>
        <time>2013-11-09T14:47:30.97</time>
      </trkpt>
      <trkpt lat="38.519765" lon="-1.0877033333333332">
        <ele>1177.3000000000015</ele>
        <time>2013-11-09T14:47:31.97</time>
      </trkpt>
      <trkpt lat="38.51983166666667" lon="-1.0875833333333333">
        <ele>1176.4000000000015</ele>
        <time>2013-11-09T14:47:32.93</time>
      </trkpt>
      <trkpt lat="38.51989833333333" lon="-1.0874666666666666">
        <ele>1175.1000000000015</ele>
        <time>2013-11-09T14:47:33.96</time>
      </trkpt>
      <trkpt lat="38.51995333333333" lon="-1.08738">
        <ele>1174.1000000000015</ele>
        <time>2013-11-09T14:47:34.97</time>
      </trkpt>
      <trkpt lat="38.52001" lon="-1.0872816666666667">
        <ele>1173.5000000000016</ele>
        <time>2013-11-09T14:47:35.97</time>
      </trkpt>
      <trkpt lat="38.520066666666665" lon="-1.0871816666666667">
        <ele>1172.8000000000015</ele>
        <time>2013-11-09T14:47:36.97</time>
      </trkpt>
      <trkpt lat="38.520135" lon="-1.0870666666666666">
        <ele>1172.3000000000015</ele>
        <time>2013-11-09T14:47:37.97</time>
      </trkpt>
      <trkpt lat="38.520201666666665" lon="-1.086945">
        <ele>1172.1000000000015</ele>
        <time>2013-11-09T14:47:38.94</time>
      </trkpt>
      <trkpt lat="38.520268333333334" lon="-1.0868216666666666">
        <ele>1172.1000000000015</ele>
        <time>2013-11-09T14:47:40.19</time>
      </trkpt>
      <trkpt lat="38.520335" lon="-1.0866916666666666">
        <ele>1172.4000000000015</ele>
        <time>2013-11-09T14:47:40.97</time>
      </trkpt>
      <trkpt lat="38.520401666666665" lon="-1.086555">
        <ele>1172.2000000000014</ele>
        <time>2013-11-09T14:47:41.97</time>
      </trkpt>
      <trkpt lat="38.52047" lon="-1.086415">
        <ele>1171.8000000000013</ele>
        <time>2013-11-09T14:47:42.93</time>
      </trkpt>
      <trkpt lat="38.520538333333334" lon="-1.0862666666666667">
        <ele>1171.1000000000013</ele>
        <time>2013-11-09T14:47:43.97</time>
      </trkpt>
      <trkpt lat="38.520603333333334" lon="-1.0861316666666667">
        <ele>1170.4000000000012</ele>
        <time>2013-11-09T14:47:44.97</time>
      </trkpt>
      <trkpt lat="38.52066" lon="-1.086">
        <ele>1169.5000000000011</ele>
        <time>2013-11-09T14:47:45.97</time>
      </trkpt>
      <trkpt lat="38.520705" lon="-1.08589">
        <ele>1168.600000000001</ele>
        <time>2013-11-09T14:47:46.97</time>
      </trkpt>
      <trkpt lat="38.520745" lon="-1.085795">
        <ele>1167.800000000001</ele>
        <time>2013-11-09T14:47:47.97</time>
      </trkpt>
      <trkpt lat="38.520788333333336" lon="-1.085705">
        <ele>1167.0000000000011</ele>
        <time>2013-11-09T14:47:48.97</time>
      </trkpt>
      <trkpt lat="38.52083833333333" lon="-1.0856066666666666">
        <ele>1166.300000000001</ele>
        <time>2013-11-09T14:47:49.97</time>
      </trkpt>
      <trkpt lat="38.52088666666667" lon="-1.0855066666666666">
        <ele>1165.600000000001</ele>
        <time>2013-11-09T14:47:50.93</time>
      </trkpt>
      <trkpt lat="38.52094666666667" lon="-1.0853783333333333">
        <ele>1165.0000000000011</ele>
        <time>2013-11-09T14:47:51.97</time>
      </trkpt>
      <trkpt lat="38.52100333333333" lon="-1.085245">
        <ele>1164.300000000001</ele>
        <time>2013-11-09T14:47:52.97</time>
      </trkpt>
      <trkpt lat="38.52106166666667" lon="-1.0851116666666667">
        <ele>1163.800000000001</ele>
        <time>2013-11-09T14:47:53.97</time>
      </trkpt>
      <trkpt lat="38.52110833333333" lon="-1.0850033333333333">
        <ele>1163.7000000000012</ele>
        <time>2013-11-09T14:47:54.97</time>
      </trkpt>
      <trkpt lat="38.52115" lon="-1.0848983333333333">
        <ele>1164.2000000000012</ele>
        <time>2013-11-09T14:47:55.97</time>
      </trkpt>
      <trkpt lat="38.52119166666667" lon="-1.0848166666666668">
        <ele>1165.4000000000012</ele>
        <time>2013-11-09T14:47:56.93</time>
      </trkpt>
      <trkpt lat="38.521245" lon="-1.0847166666666668">
        <ele>1166.4000000000012</ele>
        <time>2013-11-09T14:47:57.97</time>
      </trkpt>
      <trkpt lat="38.5213" lon="-1.084615">
        <ele>1167.9000000000012</ele>
        <time>2013-11-09T14:47:58.97</time>
      </trkpt>
      <trkpt lat="38.52135166666667" lon="-1.0845216666666666">
        <ele>1169.6000000000013</ele>
        <time>2013-11-09T14:47:59.97</time>
      </trkpt>
      <trkpt lat="38.521405" lon="-1.084425">
        <ele>1171.5000000000014</ele>
        <time>2013-11-09T14:48:00.97</time>
      </trkpt>
      <trkpt lat="38.52144833333333" lon="-1.0843433333333334">
        <ele>1173.4000000000015</ele>
        <time>2013-11-09T14:48:01.97</time>
      </trkpt>
      <trkpt lat="38.521501666666666" lon="-1.0842666666666667">
        <ele>1174.2000000000014</ele>
        <time>2013-11-09T14:48:02.93</time>
      </trkpt>
      <trkpt lat="38.52156" lon="-1.0841883333333333">
        <ele>1174.6000000000015</ele>
        <time>2013-11-09T14:48:03.97</time>
      </trkpt>
      <trkpt lat="38.521615" lon="-1.08411">
        <ele>1174.6000000000015</ele>
        <time>2013-11-09T14:48:04.97</time>
      </trkpt>
      <trkpt lat="38.521658333333335" lon="-1.0840533333333333">
        <ele>1174.7000000000014</ele>
        <time>2013-11-09T14:48:05.97</time>
      </trkpt>
      <trkpt lat="38.521701666666665" lon="-1.0840066666666666">
        <ele>1174.2000000000014</ele>
        <time>2013-11-09T14:48:06.97</time>
      </trkpt>
      <trkpt lat="38.52173833333333" lon="-1.0839633333333334">
        <ele>1173.1000000000015</ele>
        <time>2013-11-09T14:48:07.97</time>
      </trkpt>
      <trkpt lat="38.521771666666666" lon="-1.0839216666666667">
        <ele>1171.4000000000015</ele>
        <time>2013-11-09T14:48:08.93</time>
      </trkpt>
      <trkpt lat="38.52180333333333" lon="-1.0838716666666666">
        <ele>1169.1000000000015</ele>
        <time>2013-11-09T14:48:09.97</time>
      </trkpt>
      <trkpt lat="38.52184" lon="-1.0837983333333334">
        <ele>1166.7000000000014</ele>
        <time>2013-11-09T14:48:10.97</time>
      </trkpt>
      <trkpt lat="38.52188666666667" lon="-1.0837083333333333">
        <ele>1164.3000000000013</ele>
        <time>2013-11-09T14:48:12.9</time>
      </trkpt>
      <trkpt lat="38.52193333333334" lon="-1.0836166666666667">
        <ele>1162.1000000000013</ele>
        <time>2013-11-09T14:48:12.97</time>
      </trkpt>
      <trkpt lat="38.521985" lon="-1.0835216666666667">
        <ele>1160.2000000000012</ele>
        <time>2013-11-09T14:48:13.97</time>
      </trkpt>
      <trkpt lat="38.522038333333334" lon="-1.0834316666666666">
        <ele>1158.5000000000011</ele>
        <time>2013-11-09T14:48:14.93</time>
      </trkpt>
      <trkpt lat="38.522083333333335" lon="-1.0833366666666666">
        <ele>1156.7000000000012</ele>
        <time>2013-11-09T14:48:15.97</time>
      </trkpt>
      <trkpt lat="38.52211833333333" lon="-1.0832383333333333">
        <ele>1154.7000000000012</ele>
        <time>2013-11-09T14:48:16.97</time>
      </trkpt>
      <trkpt lat="38.52216333333333" lon="-1.08313">
        <ele>1152.800000000001</ele>
        <time>2013-11-09T14:48:17.97</time>
      </trkpt>
      <trkpt lat="38.522211666666664" lon="-1.0830233333333332">
        <ele>1151.100000000001</ele>
        <time>2013-11-09T14:48:18.97</time>
      </trkpt>
      <trkpt lat="38.52225333333333" lon="-1.0829233333333332">
        <ele>1149.600000000001</ele>
        <time>2013-11-09T14:48:19.97</time>
      </trkpt>
      <trkpt lat="38.522281666666665" lon="-1.0828316666666666">
        <ele>1147.900000000001</ele>
        <time>2013-11-09T14:48:20.93</time>
      </trkpt>
      <trkpt lat="38.522306666666665" lon="-1.0827433333333334">
        <ele>1146.200000000001</ele>
        <time>2013-11-09T14:48:21.97</time>
      </trkpt>
      <trkpt lat="38.52234166666667" lon="-1.0826466666666668">
        <ele>1144.400000000001</ele>
        <time>2013-11-09T14:48:22.97</time>
      </trkpt>
      <trkpt lat="38.522378333333336" lon="-1.0825483333333332">
        <ele>1142.500000000001</ele>
        <time>2013-11-09T14:48:23.97</time>
      </trkpt>
      <trkpt lat="38.52241333333333" lon="-1.0824616666666667">
        <ele>1140.700000000001</ele>
        <time>2013-11-09T14:48:24.97</time>
      </trkpt>
      <trkpt lat="38.522455" lon="-1.082365">
        <ele>1139.000000000001</ele>
        <time>2013-11-09T14:48:25.97</time>
      </trkpt>
      <trkpt lat="38.52249" lon="-1.0822716666666667">
        <ele>1137.500000000001</ele>
        <time>2013-11-09T14:48:26.97</time>
      </trkpt>
      <trkpt lat="38.522535" lon="-1.08217">
        <ele>1136.200000000001</ele>
        <time>2013-11-09T14:48:27.97</time>
      </trkpt>
      <trkpt lat="38.522578333333335" lon="-1.08207">
        <ele>1135.000000000001</ele>
        <time>2013-11-09T14:48:28.97</time>
      </trkpt>
      <trkpt lat="38.522618333333334" lon="-1.08197">
        <ele>1133.900000000001</ele>
        <time>2013-11-09T14:48:30.89</time>
      </trkpt>
      <trkpt lat="38.52265666666667" lon="-1.08187">
        <ele>1132.800000000001</ele>
        <time>2013-11-09T14:48:30.97</time>
      </trkpt>
      <trkpt lat="38.522695" lon="-1.0817666666666668">
        <ele>1131.600000000001</ele>
        <time>2013-11-09T14:48:31.97</time>
      </trkpt>
      <trkpt lat="38.52274" lon="-1.0816566666666667">
        <ele>1130.5000000000011</ele>
        <time>2013-11-09T14:48:32.93</time>
      </trkpt>
      <trkpt lat="38.52278" lon="-1.0815533333333334">
        <ele>1129.2000000000012</ele>
        <time>2013-11-09T14:48:33.97</time>
      </trkpt>
      <trkpt lat="38.52282666666667" lon="-1.0814516666666667">
        <ele>1127.6000000000013</ele>
        <time>2013-11-09T14:48:34.97</time>
      </trkpt>
      <trkpt lat="38.522866666666665" lon="-1.08136">
        <ele>1125.6000000000013</ele>
        <time>2013-11-09T14:48:35.97</time>
      </trkpt>
      <trkpt lat="38.522906666666664" lon="-1.0812666666666666">
        <ele>1124.1000000000013</ele>
        <time>2013-11-09T14:48:36.97</time>
      </trkpt>
      <trkpt lat="38.52294666666667" lon="-1.0811666666666666">
        <ele>1122.7000000000012</ele>
        <time>2013-11-09T14:48:38.79</time>
      </trkpt>
      <trkpt lat="38.52298833333333" lon="-1.081065">
        <ele>1121.7000000000012</ele>
        <time>2013-11-09T14:48:38.97</time>
      </trkpt>
      <trkpt lat="38.52302" lon="-1.0809816666666667">
        <ele>1120.800000000001</ele>
        <time>2013-11-09T14:48:39.97</time>
      </trkpt>
      <trkpt lat="38.52305" lon="-1.0808966666666666">
        <ele>1119.900000000001</ele>
        <time>2013-11-09T14:48:40.93</time>
      </trkpt>
      <trkpt lat="38.523088333333334" lon="-1.080795">
        <ele>1118.900000000001</ele>
        <time>2013-11-09T14:48:41.94</time>
      </trkpt>
      <trkpt lat="38.52312" lon="-1.0807">
        <ele>1118.200000000001</ele>
        <time>2013-11-09T14:48:42.97</time>
      </trkpt>
      <trkpt lat="38.523158333333335" lon="-1.080605">
        <ele>1117.900000000001</ele>
        <time>2013-11-09T14:48:43.97</time>
      </trkpt>
      <trkpt lat="38.523195" lon="-1.0805133333333334">
        <ele>1117.600000000001</ele>
        <time>2013-11-09T14:48:45.19</time>
      </trkpt>
      <trkpt lat="38.52323166666667" lon="-1.0804266666666666">
        <ele>1116.900000000001</ele>
        <time>2013-11-09T14:48:45.97</time>
      </trkpt>
      <trkpt lat="38.52327" lon="-1.0803316666666667">
        <ele>1116.300000000001</ele>
        <time>2013-11-09T14:48:46.99</time>
      </trkpt>
      <trkpt lat="38.52331" lon="-1.0802216666666666">
        <ele>1116.0000000000011</ele>
        <time>2013-11-09T14:48:47.97</time>
      </trkpt>
      <trkpt lat="38.52334833333333" lon="-1.0801066666666668">
        <ele>1115.9000000000012</ele>
        <time>2013-11-09T14:48:48.97</time>
      </trkpt>
      <trkpt lat="38.523376666666664" lon="-1.0800033333333334">
        <ele>1115.8000000000013</ele>
        <time>2013-11-09T14:48:49.97</time>
      </trkpt>
      <trkpt lat="38.52339833333333" lon="-1.0799066666666666">
        <ele>1115.3000000000013</ele>
        <time>2013-11-09T14:48:50.97</time>
      </trkpt>
      <trkpt lat="38.52341833333333" lon="-1.0797883333333333">
        <ele>1114.7000000000014</ele>
        <time>2013-11-09T14:48:51.98</time>
      </trkpt>
      <trkpt lat="38.52343666666667" lon="-1.0796666666666668">
        <ele>1114.2000000000014</ele>
        <time>2013-11-09T14:48:52.97</time>
      </trkpt>
      <trkpt lat="38.52346333333333" lon="-1.07953">
        <ele>1113.2000000000014</ele>
        <time>2013-11-09T14:48:53.97</time>
      </trkpt>
      <trkpt lat="38.52350833333333" lon="-1.0794183333333334">
        <ele>1113.0000000000014</ele>
        <time>2013-11-09T14:48:54.97</time>
      </trkpt>
      <trkpt lat="38.52355166666667" lon="-1.0793183333333334">
        <ele>1112.7000000000014</ele>
        <time>2013-11-09T14:48:55.97</time>
      </trkpt>
      <trkpt lat="38.523588333333336" lon="-1.0792283333333332">
        <ele>1111.9000000000015</ele>
        <time>2013-11-09T14:48:56.97</time>
      </trkpt>
      <trkpt lat="38.523605" lon="-1.0791416666666667">
        <ele>1110.6000000000015</ele>
        <time>2013-11-09T14:48:57.97</time>
      </trkpt>
      <trkpt lat="38.52361833333333" lon="-1.079055">
        <ele>1109.4000000000015</ele>
        <time>2013-11-09T14:48:58.97</time>
      </trkpt>
      <trkpt lat="38.523625" lon="-1.0789633333333333">
        <ele>1108.4000000000015</ele>
        <time>2013-11-09T14:48:59.93</time>
      </trkpt>
      <trkpt lat="38.52363666666667" lon="-1.0788516666666668">
        <ele>1107.4000000000015</ele>
        <time>2013-11-09T14:49:00.97</time>
      </trkpt>
      <trkpt lat="38.52365" lon="-1.0787183333333332">
        <ele>1106.1000000000015</ele>
        <time>2013-11-09T14:49:01.97</time>
      </trkpt>
      <trkpt lat="38.523665" lon="-1.0785716666666667">
        <ele>1105.4000000000015</ele>
        <time>2013-11-09T14:49:02.97</time>
      </trkpt>
      <trkpt lat="38.523678333333336" lon="-1.0784216666666666">
        <ele>1104.9000000000015</ele>
        <time>2013-11-09T14:49:03.97</time>
      </trkpt>
      <trkpt lat="38.52369" lon="-1.0782933333333333">
        <ele>1104.4000000000015</ele>
        <time>2013-11-09T14:49:04.97</time>
      </trkpt>
      <trkpt lat="38.52370333333333" lon="-1.0781583333333333">
        <ele>1104.1000000000015</ele>
        <time>2013-11-09T14:49:05.93</time>
      </trkpt>
      <trkpt lat="38.52371" lon="-1.07804">
        <ele>1104.0000000000016</ele>
        <time>2013-11-09T14:49:06.97</time>
      </trkpt>
      <trkpt lat="38.523711666666664" lon="-1.07789">
        <ele>1104.1000000000015</ele>
        <time>2013-11-09T14:49:07.97</time>
      </trkpt>
      <trkpt lat="38.52370833333333" lon="-1.0777283333333334">
        <ele>1105.0000000000016</ele>
        <time>2013-11-09T14:49:08.97</time>
      </trkpt>
      <trkpt lat="38.52370666666667" lon="-1.0775733333333333">
        <ele>1106.3000000000015</ele>
        <time>2013-11-09T14:49:09.94</time>
      </trkpt>
      <trkpt lat="38.52371" lon="-1.0774233333333334">
        <ele>1107.9000000000015</ele>
        <time>2013-11-09T14:49:10.97</time>
      </trkpt>
      <trkpt lat="38.523716666666665" lon="-1.0772816666666667">
        <ele>1109.8000000000015</ele>
        <time>2013-11-09T14:49:11.94</time>
      </trkpt>
      <trkpt lat="38.523723333333336" lon="-1.0771483333333334">
        <ele>1112.0000000000016</ele>
        <time>2013-11-09T14:49:12.97</time>
      </trkpt>
      <trkpt lat="38.52372166666667" lon="-1.0770266666666666">
        <ele>1114.2000000000016</ele>
        <time>2013-11-09T14:49:13.97</time>
      </trkpt>
      <trkpt lat="38.52372166666667" lon="-1.0769283333333333">
        <ele>1116.0000000000016</ele>
        <time>2013-11-09T14:49:14.97</time>
      </trkpt>
      <trkpt lat="38.523725" lon="-1.0768483333333334">
        <ele>1117.7000000000016</ele>
        <time>2013-11-09T14:49:15.97</time>
      </trkpt>
      <trkpt lat="38.52373166666667" lon="-1.076745">
        <ele>1119.1000000000017</ele>
        <time>2013-11-09T14:49:17.9</time>
      </trkpt>
      <trkpt lat="38.523745" lon="-1.0766183333333332">
        <ele>1120.6000000000017</ele>
        <time>2013-11-09T14:49:17.97</time>
      </trkpt>
      <trkpt lat="38.523761666666665" lon="-1.07652">
        <ele>1121.9000000000017</ele>
        <time>2013-11-09T14:49:18.97</time>
      </trkpt>
      <trkpt lat="38.52377166666667" lon="-1.07641">
        <ele>1123.8000000000018</ele>
        <time>2013-11-09T14:49:19.97</time>
      </trkpt>
      <trkpt lat="38.52377833333333" lon="-1.076295">
        <ele>1125.8000000000018</ele>
        <time>2013-11-09T14:49:20.97</time>
      </trkpt>
      <trkpt lat="38.523781666666665" lon="-1.0761666666666667">
        <ele>1128.2000000000019</ele>
        <time>2013-11-09T14:49:21.94</time>
      </trkpt>
      <trkpt lat="38.523785" lon="-1.076055">
        <ele>1130.3000000000018</ele>
        <time>2013-11-09T14:49:22.98</time>
      </trkpt>
      <trkpt lat="38.52379666666667" lon="-1.0759466666666666">
        <ele>1132.1000000000017</ele>
        <time>2013-11-09T14:49:23.98</time>
      </trkpt>
      <trkpt lat="38.52383" lon="-1.0758733333333332">
        <ele>1134.0000000000018</ele>
        <time>2013-11-09T14:49:24.98</time>
      </trkpt>
      <trkpt lat="38.52387" lon="-1.0758266666666667">
        <ele>1135.400000000002</ele>
        <time>2013-11-09T14:49:25.98</time>
      </trkpt>
      <trkpt lat="38.52389333333333" lon="-1.07582">
        <ele>1135.600000000002</ele>
        <time>2013-11-09T14:49:26.97</time>
      </trkpt>
      <trkpt lat="38.523935" lon="-1.0758416666666666">
        <ele>1135.7000000000019</ele>
        <time>2013-11-09T14:49:28.98</time>
      </trkpt>
      <trkpt lat="38.52394666666667" lon="-1.0758766666666666">
        <ele>1136.0000000000018</ele>
        <time>2013-11-09T14:49:29.92</time>
      </trkpt>
      <trkpt lat="38.523935" lon="-1.0759233333333333">
        <ele>1136.8000000000018</ele>
        <time>2013-11-09T14:49:31.98</time>
      </trkpt>
      <trkpt lat="38.523915" lon="-1.075955">
        <ele>1137.2000000000019</ele>
        <time>2013-11-09T14:49:32.98</time>
      </trkpt>
      <trkpt lat="38.52388666666667" lon="-1.076005">
        <ele>1137.7000000000019</ele>
        <time>2013-11-09T14:49:33.98</time>
      </trkpt>
      <trkpt lat="38.523831666666666" lon="-1.0760716666666668">
        <ele>1142.7000000000019</ele>
        <time>2013-11-09T14:49:34.97</time>
      </trkpt>
      <trkpt lat="38.52377" lon="-1.0761483333333333">
        <ele>1147.7000000000019</ele>
        <time>2013-11-09T14:49:35.97</time>
      </trkpt>
      <trkpt lat="38.523693333333334" lon="-1.0762266666666667">
        <ele>1152.7000000000019</ele>
        <time>2013-11-09T14:49:36.98</time>
      </trkpt>
      <trkpt lat="38.523603333333334" lon="-1.0762783333333332">
        <ele>1157.100000000002</ele>
        <time>2013-11-09T14:49:37.92</time>
      </trkpt>
      <trkpt lat="38.52352666666667" lon="-1.0763216666666666">
        <ele>1160.300000000002</ele>
        <time>2013-11-09T14:49:38.97</time>
      </trkpt>
      <trkpt lat="38.52346" lon="-1.076365">
        <ele>1162.300000000002</ele>
        <time>2013-11-09T14:49:39.93</time>
      </trkpt>
      <trkpt lat="38.52341833333333" lon="-1.0763983333333333">
        <ele>1163.700000000002</ele>
        <time>2013-11-09T14:49:40.98</time>
      </trkpt>
      <trkpt lat="38.523423333333334" lon="-1.0764016666666667">
        <ele>1164.500000000002</ele>
        <time>2013-11-09T14:49:41.94</time>
      </trkpt>
      <trkpt lat="38.523445" lon="-1.076335">
        <ele>1165.300000000002</ele>
        <time>2013-11-09T14:49:42.98</time>
      </trkpt>
      <trkpt lat="38.523475" lon="-1.0762766666666668">
        <ele>1166.700000000002</ele>
        <time>2013-11-09T14:49:43.97</time>
      </trkpt>
      <trkpt lat="38.52348833333333" lon="-1.0762466666666666">
        <ele>1169.1000000000022</ele>
        <time>2013-11-09T14:49:45.49</time>
      </trkpt>
      <trkpt lat="38.523485" lon="-1.0762066666666668">
        <ele>1171.4000000000021</ele>
        <time>2013-11-09T14:49:45.98</time>
      </trkpt>
      <trkpt lat="38.523493333333334" lon="-1.076165">
        <ele>1173.6000000000022</ele>
        <time>2013-11-09T14:49:46.98</time>
      </trkpt>
      <trkpt lat="38.523505" lon="-1.07609">
        <ele>1175.4000000000021</ele>
        <time>2013-11-09T14:49:47.98</time>
      </trkpt>
      <trkpt lat="38.52356833333333" lon="-1.076015">
        <ele>1176.000000000002</ele>
        <time>2013-11-09T14:49:48.98</time>
      </trkpt>
      <trkpt lat="38.52362" lon="-1.075905">
        <ele>1176.300000000002</ele>
        <time>2013-11-09T14:49:49.97</time>
      </trkpt>
      <trkpt lat="38.52367666666667" lon="-1.0758">
        <ele>1176.300000000002</ele>
        <time>2013-11-09T14:49:50.97</time>
      </trkpt>
      <trkpt lat="38.52370333333333" lon="-1.075695">
        <ele>1176.900000000002</ele>
        <time>2013-11-09T14:49:51.98</time>
      </trkpt>
      <trkpt lat="38.52370833333333" lon="-1.0755833333333333">
        <ele>1177.800000000002</ele>
        <time>2013-11-09T14:49:52.96</time>
      </trkpt>
      <trkpt lat="38.523705" lon="-1.0754666666666666">
        <ele>1179.200000000002</ele>
        <time>2013-11-09T14:49:53.97</time>
      </trkpt>
      <trkpt lat="38.523693333333334" lon="-1.0753233333333334">
        <ele>1181.300000000002</ele>
        <time>2013-11-09T14:49:55.29</time>
      </trkpt>
      <trkpt lat="38.52368" lon="-1.0751533333333334">
        <ele>1182.800000000002</ele>
        <time>2013-11-09T14:49:55.97</time>
      </trkpt>
      <trkpt lat="38.523653333333336" lon="-1.0749816666666667">
        <ele>1184.400000000002</ele>
        <time>2013-11-09T14:49:56.99</time>
      </trkpt>
      <trkpt lat="38.52357333333333" lon="-1.0747916666666666">
        <ele>1186.800000000002</ele>
        <time>2013-11-09T14:49:57.97</time>
      </trkpt>
      <trkpt lat="38.52347666666667" lon="-1.0745933333333333">
        <ele>1189.600000000002</ele>
        <time>2013-11-09T14:49:58.97</time>
      </trkpt>
      <trkpt lat="38.523361666666666" lon="-1.0744733333333334">
        <ele>1193.600000000002</ele>
        <time>2013-11-09T14:49:59.94</time>
      </trkpt>
      <trkpt lat="38.52321" lon="-1.07439">
        <ele>1198.000000000002</ele>
        <time>2013-11-09T14:50:00.96</time>
      </trkpt>
      <trkpt lat="38.52304" lon="-1.0743083333333334">
        <ele>1201.800000000002</ele>
        <time>2013-11-09T14:50:01.97</time>
      </trkpt>
      <trkpt lat="38.522868333333335" lon="-1.074235">
        <ele>1205.700000000002</ele>
        <time>2013-11-09T14:50:02.97</time>
      </trkpt>
      <trkpt lat="38.522686666666665" lon="-1.0742283333333333">
        <ele>1211.200000000002</ele>
        <time>2013-11-09T14:50:03.98</time>
      </trkpt>
      <trkpt lat="38.52256333333333" lon="-1.0742383333333334">
        <ele>1215.6000000000022</ele>
        <time>2013-11-09T14:50:04.98</time>
      </trkpt>
      <trkpt lat="38.52245833333333" lon="-1.07426">
        <ele>1219.1000000000022</ele>
        <time>2013-11-09T14:50:05.98</time>
      </trkpt>
      <trkpt lat="38.52238" lon="-1.0743">
        <ele>1222.3000000000022</ele>
        <time>2013-11-09T14:50:06.97</time>
      </trkpt>
      <trkpt lat="38.52234166666667" lon="-1.074325">
        <ele>1225.3000000000022</ele>
        <time>2013-11-09T14:50:07.97</time>
      </trkpt>
      <trkpt lat="38.522326666666665" lon="-1.0743583333333333">
        <ele>1228.3000000000022</ele>
        <time>2013-11-09T14:50:08.92</time>
      </trkpt>
      <trkpt lat="38.52230333333333" lon="-1.0743683333333334">
        <ele>1231.5000000000023</ele>
        <time>2013-11-09T14:50:09.97</time>
      </trkpt>
      <trkpt lat="38.522295" lon="-1.07435">
        <ele>1231.9000000000024</ele>
        <time>2013-11-09T14:50:10.98</time>
      </trkpt>
      <trkpt lat="38.522315" lon="-1.07431">
        <ele>1235.7000000000023</ele>
        <time>2013-11-09T14:50:12.29</time>
      </trkpt>
      <trkpt lat="38.52235" lon="-1.0742466666666666">
        <ele>1238.9000000000024</ele>
        <time>2013-11-09T14:50:12.98</time>
      </trkpt>
      <trkpt lat="38.52239" lon="-1.0741783333333332">
        <ele>1241.8000000000025</ele>
        <time>2013-11-09T14:50:13.97</time>
      </trkpt>
      <trkpt lat="38.52240833333333" lon="-1.0741133333333333">
        <ele>1245.6000000000024</ele>
        <time>2013-11-09T14:50:14.98</time>
      </trkpt>
      <trkpt lat="38.522425" lon="-1.0740683333333334">
        <ele>1246.1000000000024</ele>
        <time>2013-11-09T14:50:15.93</time>
      </trkpt>
      <trkpt lat="38.522438333333334" lon="-1.0740183333333333">
        <ele>1246.5000000000025</ele>
        <time>2013-11-09T14:50:17.29</time>
      </trkpt>
      <trkpt lat="38.522425" lon="-1.0739983333333334">
        <ele>1247.0000000000025</ele>
        <time>2013-11-09T14:50:17.94</time>
      </trkpt>
      <trkpt lat="38.52241" lon="-1.0739916666666667">
        <ele>1247.5000000000025</ele>
        <time>2013-11-09T14:50:18.97</time>
      </trkpt>
      <trkpt lat="38.522391666666664" lon="-1.0740233333333333">
        <ele>1248.0000000000025</ele>
        <time>2013-11-09T14:50:19.98</time>
      </trkpt>
      <trkpt lat="38.52236666666667" lon="-1.0740783333333332">
        <ele>1254.8000000000025</ele>
        <time>2013-11-09T14:50:20.98</time>
      </trkpt>
      <trkpt lat="38.522305" lon="-1.07416">
        <ele>1261.2000000000025</ele>
        <time>2013-11-09T14:50:21.97</time>
      </trkpt>
      <trkpt lat="38.52218" lon="-1.0742533333333333">
        <ele>1266.6000000000026</ele>
        <time>2013-11-09T14:50:22.97</time>
      </trkpt>
      <trkpt lat="38.522025" lon="-1.0743666666666667">
        <ele>1271.2000000000025</ele>
        <time>2013-11-09T14:50:23.98</time>
      </trkpt>
      <trkpt lat="38.52182833333333" lon="-1.0744616666666666">
        <ele>1275.3000000000025</ele>
        <time>2013-11-09T14:50:24.98</time>
      </trkpt>
      <trkpt lat="38.52164833333333" lon="-1.0743366666666667">
        <ele>1279.1000000000024</ele>
        <time>2013-11-09T14:50:25.98</time>
      </trkpt>
      <trkpt lat="38.521483333333336" lon="-1.0741933333333333">
        <ele>1282.6000000000024</ele>
        <time>2013-11-09T14:50:26.97</time>
      </trkpt>
      <trkpt lat="38.52137666666667" lon="-1.0739933333333334">
        <ele>1286.1000000000024</ele>
        <time>2013-11-09T14:50:27.94</time>
      </trkpt>
      <trkpt lat="38.52129" lon="-1.0738033333333334">
        <ele>1288.9000000000024</ele>
        <time>2013-11-09T14:50:28.98</time>
      </trkpt>
      <trkpt lat="38.52122" lon="-1.07363">
        <ele>1290.6000000000024</ele>
        <time>2013-11-09T14:50:29.98</time>
      </trkpt>
      <trkpt lat="38.52115666666667" lon="-1.07346">
        <ele>1292.0000000000025</ele>
        <time>2013-11-09T14:50:30.98</time>
      </trkpt>
      <trkpt lat="38.521105" lon="-1.07333">
        <ele>1293.5000000000025</ele>
        <time>2013-11-09T14:50:31.98</time>
      </trkpt>
      <trkpt lat="38.52106833333333" lon="-1.07318">
        <ele>1295.0000000000025</ele>
        <time>2013-11-09T14:50:32.97</time>
      </trkpt>
      <trkpt lat="38.52102333333333" lon="-1.0729933333333332">
        <ele>1298.3000000000025</ele>
        <time>2013-11-09T14:50:33.97</time>
      </trkpt>
      <trkpt lat="38.520995" lon="-1.0728283333333333">
        <ele>1303.0000000000025</ele>
        <time>2013-11-09T14:50:34.97</time>
      </trkpt>
      <trkpt lat="38.52099166666667" lon="-1.0727083333333334">
        <ele>1308.2000000000025</ele>
        <time>2013-11-09T14:50:35.93</time>
      </trkpt>
      <trkpt lat="38.520983333333334" lon="-1.0725983333333333">
        <ele>1313.2000000000025</ele>
        <time>2013-11-09T14:50:36.96</time>
      </trkpt>
      <trkpt lat="38.520966666666666" lon="-1.0725066666666667">
        <ele>1317.6000000000026</ele>
        <time>2013-11-09T14:50:37.98</time>
      </trkpt>
      <trkpt lat="38.520963333333334" lon="-1.07243">
        <ele>1321.1000000000026</ele>
        <time>2013-11-09T14:50:38.98</time>
      </trkpt>
      <trkpt lat="38.521" lon="-1.0723533333333333">
        <ele>1324.3000000000027</ele>
        <time>2013-11-09T14:50:39.99</time>
      </trkpt>
      <trkpt lat="38.521071666666664" lon="-1.0722833333333333">
        <ele>1327.0000000000027</ele>
        <time>2013-11-09T14:50:40.97</time>
      </trkpt>
      <trkpt lat="38.52116" lon="-1.07225">
        <ele>1329.4000000000028</ele>
        <time>2013-11-09T14:50:41.96</time>
      </trkpt>
      <trkpt lat="38.521213333333336" lon="-1.072255">
        <ele>1329.800000000003</ele>
        <time>2013-11-09T14:50:43.98</time>
      </trkpt>
      <trkpt lat="38.52121" lon="-1.0722916666666666">
        <ele>1330.200000000003</ele>
        <time>2013-11-09T14:50:45.19</time>
      </trkpt>
      <trkpt lat="38.52119666666667" lon="-1.0723366666666667">
        <ele>1330.500000000003</ele>
        <time>2013-11-09T14:50:45.98</time>
      </trkpt>
      <trkpt lat="38.521166666666666" lon="-1.0723816666666666">
        <ele>1330.900000000003</ele>
        <time>2013-11-09T14:50:46.98</time>
      </trkpt>
      <trkpt lat="38.521165" lon="-1.0724483333333332">
        <ele>1331.3000000000031</ele>
        <time>2013-11-09T14:50:47.97</time>
      </trkpt>
      <trkpt lat="38.52119" lon="-1.072485">
        <ele>1331.600000000003</ele>
        <time>2013-11-09T14:50:48.98</time>
      </trkpt>
      <trkpt lat="38.52122833333333" lon="-1.072525">
        <ele>1332.0000000000032</ele>
        <time>2013-11-09T14:50:49.98</time>
      </trkpt>
      <trkpt lat="38.52126" lon="-1.0725533333333332">
        <ele>1332.5000000000032</ele>
        <time>2013-11-09T14:50:50.97</time>
      </trkpt>
      <trkpt lat="38.52128166666667" lon="-1.0726283333333333">
        <ele>1337.9000000000033</ele>
        <time>2013-11-09T14:50:51.96</time>
      </trkpt>
      <trkpt lat="38.52123" lon="-1.0727533333333332">
        <ele>1342.6000000000033</ele>
        <time>2013-11-09T14:50:52.94</time>
      </trkpt>
      <trkpt lat="38.52112666666667" lon="-1.0728616666666666">
        <ele>1346.9000000000033</ele>
        <time>2013-11-09T14:50:53.98</time>
      </trkpt>
      <trkpt lat="38.52097333333333" lon="-1.0728916666666666">
        <ele>1350.3000000000034</ele>
        <time>2013-11-09T14:50:54.98</time>
      </trkpt>
      <trkpt lat="38.52080333333333" lon="-1.0728283333333333">
        <ele>1353.0000000000034</ele>
        <time>2013-11-09T14:50:55.97</time>
      </trkpt>
      <trkpt lat="38.520673333333335" lon="-1.0726833333333334">
        <ele>1355.3000000000034</ele>
        <time>2013-11-09T14:50:56.93</time>
      </trkpt>
      <trkpt lat="38.52052333333334" lon="-1.0725166666666666">
        <ele>1358.0000000000034</ele>
        <time>2013-11-09T14:50:57.97</time>
      </trkpt>
      <trkpt lat="38.520401666666665" lon="-1.07237">
        <ele>1360.8000000000034</ele>
        <time>2013-11-09T14:50:58.98</time>
      </trkpt>
      <trkpt lat="38.5203" lon="-1.0722366666666667">
        <ele>1363.1000000000033</ele>
        <time>2013-11-09T14:50:59.98</time>
      </trkpt>
      <trkpt lat="38.52024333333333" lon="-1.0720716666666668">
        <ele>1365.2000000000032</ele>
        <time>2013-11-09T14:51:01.59</time>
      </trkpt>
      <trkpt lat="38.52019166666667" lon="-1.0718933333333334">
        <ele>1366.8000000000031</ele>
        <time>2013-11-09T14:51:01.97</time>
      </trkpt>
      <trkpt lat="38.52015" lon="-1.0717316666666667">
        <ele>1368.600000000003</ele>
        <time>2013-11-09T14:51:03.49</time>
      </trkpt>
      <trkpt lat="38.520111666666665" lon="-1.07156">
        <ele>1371.100000000003</ele>
        <time>2013-11-09T14:51:03.98</time>
      </trkpt>
      <trkpt lat="38.52011666666667" lon="-1.071445">
        <ele>1376.0000000000032</ele>
        <time>2013-11-09T14:51:04.97</time>
      </trkpt>
      <trkpt lat="38.520138333333335" lon="-1.0714383333333333">
        <ele>1376.5000000000032</ele>
        <time>2013-11-09T14:51:05.98</time>
      </trkpt>
      <trkpt lat="38.52015" lon="-1.07146">
        <ele>1376.9000000000033</ele>
        <time>2013-11-09T14:51:06.98</time>
      </trkpt>
      <trkpt lat="38.52016833333333" lon="-1.071485">
        <ele>1377.5000000000032</ele>
        <time>2013-11-09T14:51:07.99</time>
      </trkpt>
      <trkpt lat="38.52019166666667" lon="-1.0715116666666666">
        <ele>1378.100000000003</ele>
        <time>2013-11-09T14:51:08.98</time>
      </trkpt>
      <trkpt lat="38.52021166666667" lon="-1.0715266666666667">
        <ele>1378.700000000003</ele>
        <time>2013-11-09T14:51:09.97</time>
      </trkpt>
      <trkpt lat="38.52023166666667" lon="-1.07152">
        <ele>1379.400000000003</ele>
        <time>2013-11-09T14:51:10.96</time>
      </trkpt>
      <trkpt lat="38.52023333333333" lon="-1.0714983333333334">
        <ele>1380.000000000003</ele>
        <time>2013-11-09T14:51:12.29</time>
      </trkpt>
      <trkpt lat="38.52021333333333" lon="-1.0714433333333333">
        <ele>1382.4</ele>
        <time>2013-11-09T14:51:14.98</time>
      </trkpt>
      <trkpt lat="38.52016666666667" lon="-1.07137">
        <ele>1384.7</ele>
        <time>2013-11-09T14:51:17.98</time>
      </trkpt>
      <trkpt lat="38.520131666666664" lon="-1.0713833333333334">
        <ele>1396.3</ele>
        <time>2013-11-09T14:51:18.98</time>
      </trkpt>
      <trkpt lat="38.520111666666665" lon="-1.0713883333333334">
        <ele>1408</ele>
        <time>2013-11-09T14:51:19.97</time>
      </trkpt>
      <trkpt lat="38.52004" lon="-1.0714033333333333">
        <ele>1418.6</ele>
        <time>2013-11-09T14:51:20.97</time>
      </trkpt>
      <trkpt lat="38.51992333333333" lon="-1.0714333333333332">
        <ele>1427.3999999999999</ele>
        <time>2013-11-09T14:51:21.98</time>
      </trkpt>
      <trkpt lat="38.5198" lon="-1.0714233333333334">
        <ele>1434.3999999999999</ele>
        <time>2013-11-09T14:51:22.96</time>
      </trkpt>
      <trkpt lat="38.519661666666664" lon="-1.071385">
        <ele>1440.3</ele>
        <time>2013-11-09T14:51:23.96</time>
      </trkpt>
      <trkpt lat="38.51952166666667" lon="-1.0713033333333333">
        <ele>1445</ele>
        <time>2013-11-09T14:51:24.97</time>
      </trkpt>
      <trkpt lat="38.51937" lon="-1.071235">
        <ele>1449.9</ele>
        <time>2013-11-09T14:51:25.98</time>
      </trkpt>
      <trkpt lat="38.519243333333335" lon="-1.0711566666666668">
        <ele>1467.6000000000001</ele>
        <time>2013-11-09T14:51:26.97</time>
      </trkpt>
      <trkpt lat="38.51915666666667" lon="-1.0709833333333334">
        <ele>1484.1000000000001</ele>
        <time>2013-11-09T14:51:27.98</time>
      </trkpt>
      <trkpt lat="38.519081666666665" lon="-1.0708183333333334">
        <ele>1498.2</ele>
        <time>2013-11-09T14:51:28.98</time>
      </trkpt>
      <trkpt lat="38.519075" lon="-1.0707133333333334">
        <ele>1510.4</ele>
        <time>2013-11-09T14:51:29.97</time>
      </trkpt>
      <trkpt lat="38.51907" lon="-1.0707">
        <ele>1511.4</ele>
        <time>2013-11-09T14:51:30.98</time>
      </trkpt>
      <trkpt lat="38.519061666666666" lon="-1.0706416666666667">
        <ele>1512.5</ele>
        <time>2013-11-09T14:51:31.98</time>
      </trkpt>
      <trkpt lat="38.519038333333334" lon="-1.0705633333333333">
        <ele>1525.3</ele>
        <time>2013-11-09T14:51:32.92</time>
      </trkpt>
      <trkpt lat="38.51903166666666" lon="-1.070505">
        <ele>1526.5</ele>
        <time>2013-11-09T14:51:33.95</time>
      </trkpt>
      <trkpt lat="38.519035" lon="-1.07047">
        <ele>1527.7</ele>
        <time>2013-11-09T14:51:34.99</time>
      </trkpt>
      <trkpt lat="38.519036666666665" lon="-1.0705916666666666">
        <ele>1548.6</ele>
        <time>2013-11-09T14:51:38.98</time>
      </trkpt>
      <trkpt lat="38.51901333333333" lon="-1.07066">
        <ele>1564</ele>
        <time>2013-11-09T14:51:39.97</time>
      </trkpt>
      <trkpt lat="38.518951666666666" lon="-1.0707116666666667">
        <ele>1577.5</ele>
        <time>2013-11-09T14:51:40.93</time>
      </trkpt>
      <trkpt lat="38.518865" lon="-1.0707733333333334">
        <ele>1589.2</ele>
        <time>2013-11-09T14:51:41.97</time>
      </trkpt>
      <trkpt lat="38.51875833333333" lon="-1.0708466666666667">
        <ele>1598.7</ele>
        <time>2013-11-09T14:51:43.39</time>
      </trkpt>
      <trkpt lat="38.51862166666667" lon="-1.0709233333333332">
        <ele>1606.2</ele>
        <time>2013-11-09T14:51:43.97</time>
      </trkpt>
      <trkpt lat="38.51847166666667" lon="-1.071005">
        <ele>1612.5</ele>
        <time>2013-11-09T14:51:44.98</time>
      </trkpt>
      <trkpt lat="38.518298333333334" lon="-1.0710383333333333">
        <ele>1617.8</ele>
        <time>2013-11-09T14:51:45.98</time>
      </trkpt>
      <trkpt lat="38.518125" lon="-1.071065">
        <ele>1621.8999999999999</ele>
        <time>2013-11-09T14:51:46.93</time>
      </trkpt>
      <trkpt lat="38.517943333333335" lon="-1.071055">
        <ele>1624.8999999999999</ele>
        <time>2013-11-09T14:51:47.93</time>
      </trkpt>
      <trkpt lat="38.517788333333336" lon="-1.0709133333333334">
        <ele>1628.1999999999998</ele>
        <time>2013-11-09T14:51:48.97</time>
      </trkpt>
      <trkpt lat="38.517665" lon="-1.07075">
        <ele>1630.7999999999997</ele>
        <time>2013-11-09T14:51:49.93</time>
      </trkpt>
      <trkpt lat="38.517565" lon="-1.0706016666666667">
        <ele>1632.6999999999998</ele>
        <time>2013-11-09T14:51:50.97</time>
      </trkpt>
      <trkpt lat="38.51748" lon="-1.0704666666666667">
        <ele>1634.1999999999998</ele>
        <time>2013-11-09T14:51:51.97</time>
      </trkpt>
      <trkpt lat="38.517425" lon="-1.0703583333333333">
        <ele>1635.7999999999997</ele>
        <time>2013-11-09T14:51:52.97</time>
      </trkpt>
      <trkpt lat="38.517401666666665" lon="-1.0702316666666667">
        <ele>1637.3999999999996</ele>
        <time>2013-11-09T14:51:53.93</time>
      </trkpt>
      <trkpt lat="38.51738666666667" lon="-1.0701116666666666">
        <ele>1639.0999999999997</ele>
        <time>2013-11-09T14:51:54.97</time>
      </trkpt>
      <trkpt lat="38.51737333333333" lon="-1.07">
        <ele>1641.2999999999997</ele>
        <time>2013-11-09T14:51:55.94</time>
      </trkpt>
      <trkpt lat="38.517365" lon="-1.0698916666666667">
        <ele>1643.0999999999997</ele>
        <time>2013-11-09T14:51:56.98</time>
      </trkpt>
      <trkpt lat="38.51736666666667" lon="-1.0697966666666667">
        <ele>1646.8999999999996</ele>
        <time>2013-11-09T14:51:57.94</time>
      </trkpt>
      <trkpt lat="38.517376666666664" lon="-1.0697266666666667">
        <ele>1651.7999999999997</ele>
        <time>2013-11-09T14:51:58.94</time>
      </trkpt>
      <trkpt lat="38.517405" lon="-1.069665">
        <ele>1656.8999999999996</ele>
        <time>2013-11-09T14:51:59.94</time>
      </trkpt>
      <trkpt lat="38.517493333333334" lon="-1.069635">
        <ele>1662.9999999999995</ele>
        <time>2013-11-09T14:52:00.93</time>
      </trkpt>
      <trkpt lat="38.517581666666665" lon="-1.0695416666666666">
        <ele>1663.6999999999996</ele>
        <time>2013-11-09T14:52:01.99</time>
      </trkpt>
      <trkpt lat="38.51765833333333" lon="-1.0694666666666666">
        <ele>1673.1999999999996</ele>
        <time>2013-11-09T14:52:02.96</time>
      </trkpt>
      <trkpt lat="38.517715" lon="-1.0694216666666667">
        <ele>1683.2999999999995</ele>
        <time>2013-11-09T14:52:03.92</time>
      </trkpt>
      <trkpt lat="38.51775333333333" lon="-1.06941">
        <ele>1684.3999999999994</ele>
        <time>2013-11-09T14:52:04.96</time>
      </trkpt>
      <trkpt lat="38.51776666666667" lon="-1.0694066666666666">
        <ele>1685.4999999999993</ele>
        <time>2013-11-09T14:52:06.39</time>
      </trkpt>
      <trkpt lat="38.51777166666667" lon="-1.0693966666666668">
        <ele>1686.5999999999992</ele>
        <time>2013-11-09T14:52:06.98</time>
      </trkpt>
      <trkpt lat="38.51778" lon="-1.0693666666666666">
        <ele>1687.7999999999993</ele>
        <time>2013-11-09T14:52:07.97</time>
      </trkpt>
      <trkpt lat="38.51782333333333" lon="-1.0693733333333333">
        <ele>1688.8999999999992</ele>
        <time>2013-11-09T14:52:08.96</time>
      </trkpt>
      <trkpt lat="38.51786" lon="-1.0693883333333334">
        <ele>1690.1999999999991</ele>
        <time>2013-11-09T14:52:09.97</time>
      </trkpt>
      <trkpt lat="38.517871666666665" lon="-1.069445">
        <ele>1703.0999999999992</ele>
        <time>2013-11-09T14:52:10.98</time>
      </trkpt>
      <trkpt lat="38.51786" lon="-1.0695666666666668">
        <ele>1714.4999999999993</ele>
        <time>2013-11-09T14:52:12.29</time>
      </trkpt>
      <trkpt lat="38.51747666666667" lon="-1.0697533333333333">
        <ele>1733.9999999999993</ele>
        <time>2013-11-09T14:52:13.97</time>
      </trkpt>
      <trkpt lat="38.51729" lon="-1.069785">
        <ele>1741.4999999999993</ele>
        <time>2013-11-09T14:52:14.97</time>
      </trkpt>
      <trkpt lat="38.517133333333334" lon="-1.0697">
        <ele>1747.4999999999993</ele>
        <time>2013-11-09T14:52:15.93</time>
      </trkpt>
      <trkpt lat="38.517005" lon="-1.0695683333333332">
        <ele>1751.8999999999994</ele>
        <time>2013-11-09T14:52:17.39</time>
      </trkpt>
      <trkpt lat="38.5169" lon="-1.0694516666666667">
        <ele>1755.5999999999995</ele>
        <time>2013-11-09T14:52:17.99</time>
      </trkpt>
      <trkpt lat="38.516846666666666" lon="-1.06928">
        <ele>1758.5999999999995</ele>
        <time>2013-11-09T14:52:18.96</time>
      </trkpt>
      <trkpt lat="38.516815" lon="-1.0691216666666667">
        <ele>1761.2999999999995</ele>
        <time>2013-11-09T14:52:19.97</time>
      </trkpt>
      <trkpt lat="38.516778333333335" lon="-1.0689816666666667">
        <ele>1763.5999999999995</ele>
        <time>2013-11-09T14:52:20.98</time>
      </trkpt>
      <trkpt lat="38.516756666666666" lon="-1.0689083333333333">
        <ele>1768.1999999999994</ele>
        <time>2013-11-09T14:52:21.98</time>
      </trkpt>
      <trkpt lat="38.516756666666666" lon="-1.0688683333333333">
        <ele>1768.5999999999995</ele>
        <time>2013-11-09T14:52:22.97</time>
      </trkpt>
      <trkpt lat="38.51676333333333" lon="-1.0688366666666667">
        <ele>1773.2999999999995</ele>
        <time>2013-11-09T14:52:23.97</time>
      </trkpt>
      <trkpt lat="38.516775" lon="-1.0688833333333334">
        <ele>1773.8999999999994</ele>
        <time>2013-11-09T14:52:24.98</time>
      </trkpt>
      <trkpt lat="38.516756666666666" lon="-1.0689816666666667">
        <ele>1779.7999999999995</ele>
        <time>2013-11-09T14:52:25.96</time>
      </trkpt>
      <trkpt lat="38.516733333333335" lon="-1.0690766666666667">
        <ele>1785.2999999999995</ele>
        <time>2013-11-09T14:52:26.96</time>
      </trkpt>
      <trkpt lat="38.5167" lon="-1.0691666666666666">
        <ele>1789.8999999999994</ele>
        <time>2013-11-09T14:52:27.98</time>
      </trkpt>
      <trkpt lat="38.51663333333333" lon="-1.069255">
        <ele>1793.9999999999993</ele>
        <time>2013-11-09T14:52:28.93</time>
      </trkpt>
      <trkpt lat="38.516533333333335" lon="-1.0693333333333332">
        <ele>1797.8999999999994</ele>
        <time>2013-11-09T14:52:29.98</time>
      </trkpt>
      <trkpt lat="38.516405" lon="-1.0694066666666666">
        <ele>1801.0999999999995</ele>
        <time>2013-11-09T14:52:30.92</time>
      </trkpt>
      <trkpt lat="38.51625333333333" lon="-1.069475">
        <ele>1803.6999999999994</ele>
        <time>2013-11-09T14:52:31.98</time>
      </trkpt>
      <trkpt lat="38.51609833333333" lon="-1.0695033333333333">
        <ele>1806.3999999999994</ele>
        <time>2013-11-09T14:52:32.92</time>
      </trkpt>
      <trkpt lat="38.51596" lon="-1.0695033333333333">
        <ele>1808.5999999999995</ele>
        <time>2013-11-09T14:52:33.94</time>
      </trkpt>
      <trkpt lat="38.51583" lon="-1.0694916666666667">
        <ele>1811.3999999999994</ele>
        <time>2013-11-09T14:52:34.98</time>
      </trkpt>
      <trkpt lat="38.51569666666666" lon="-1.0694633333333334">
        <ele>1814.4999999999993</ele>
        <time>2013-11-09T14:52:35.93</time>
      </trkpt>
      <trkpt lat="38.515593333333335" lon="-1.0693816666666667">
        <ele>1817.1999999999994</ele>
        <time>2013-11-09T14:52:36.97</time>
      </trkpt>
      <trkpt lat="38.515503333333335" lon="-1.069305">
        <ele>1820.0999999999995</ele>
        <time>2013-11-09T14:52:37.93</time>
      </trkpt>
      <trkpt lat="38.51541666666667" lon="-1.0692216666666667">
        <ele>1823.7999999999995</ele>
        <time>2013-11-09T14:52:38.97</time>
      </trkpt>
      <trkpt lat="38.51536333333333" lon="-1.0690916666666668">
        <ele>1827.9999999999995</ele>
        <time>2013-11-09T14:52:39.98</time>
      </trkpt>
      <trkpt lat="38.51532" lon="-1.06896">
        <ele>1833.1999999999996</ele>
        <time>2013-11-09T14:52:40.93</time>
      </trkpt>
      <trkpt lat="38.515265" lon="-1.0688116666666667">
        <ele>1842.3999999999996</ele>
        <time>2013-11-09T14:52:41.93</time>
      </trkpt>
      <trkpt lat="38.51522666666666" lon="-1.0686616666666666">
        <ele>1850.8999999999996</ele>
        <time>2013-11-09T14:52:42.97</time>
      </trkpt>
      <trkpt lat="38.515231666666665" lon="-1.068525">
        <ele>1858.6999999999996</ele>
        <time>2013-11-09T14:52:43.97</time>
      </trkpt>
      <trkpt lat="38.515256666666666" lon="-1.06845">
        <ele>1865.3999999999996</ele>
        <time>2013-11-09T14:52:44.98</time>
      </trkpt>
      <trkpt lat="38.515278333333335" lon="-1.068405">
        <ele>1865.9999999999995</ele>
        <time>2013-11-09T14:52:45.94</time>
      </trkpt>
      <trkpt lat="38.515298333333334" lon="-1.0683683333333334">
        <ele>1866.6999999999996</ele>
        <time>2013-11-09T14:52:46.93</time>
      </trkpt>
      <trkpt lat="38.51532666666667" lon="-1.0683366666666667">
        <ele>1868.2999999999995</ele>
        <time>2013-11-09T14:52:48.97</time>
      </trkpt>
      <trkpt lat="38.515355" lon="-1.0684266666666666">
        <ele>1872</ele>
        <time>2013-11-09T14:52:52.99</time>
      </trkpt>
      <trkpt lat="38.51536333333333" lon="-1.06848">
        <ele>1872.9</ele>
        <time>2013-11-09T14:52:53.98</time>
      </trkpt>
      <trkpt lat="38.51535666666667" lon="-1.0685583333333333">
        <ele>1882.7</ele>
        <time>2013-11-09T14:52:54.96</time>
      </trkpt>
      <trkpt lat="38.51533" lon="-1.06867">
        <ele>1890.8</ele>
        <time>2013-11-09T14:52:56.59</time>
      </trkpt>
      <trkpt lat="38.51526" lon="-1.0687866666666668">
        <ele>1897.7</ele>
        <time>2013-11-09T14:52:56.97</time>
      </trkpt>
      <trkpt lat="38.515195" lon="-1.068925">
        <ele>1904.3</ele>
        <time>2013-11-09T14:52:57.97</time>
      </trkpt>
      <trkpt lat="38.51509" lon="-1.069015">
        <ele>1910.3999999999999</ele>
        <time>2013-11-09T14:52:58.96</time>
      </trkpt>
      <trkpt lat="38.514985" lon="-1.0690866666666667">
        <ele>1915.6</ele>
        <time>2013-11-09T14:52:59.96</time>
      </trkpt>
      <trkpt lat="38.51488666666667" lon="-1.0691533333333334">
        <ele>1920.3</ele>
        <time>2013-11-09T14:53:00.99</time>
      </trkpt>
      <trkpt lat="38.51478" lon="-1.0691516666666667">
        <ele>1925.1</ele>
        <time>2013-11-09T14:53:01.98</time>
      </trkpt>
      <trkpt lat="38.514648333333334" lon="-1.069125">
        <ele>1929</ele>
        <time>2013-11-09T14:53:03.69</time>
      </trkpt>
      <trkpt lat="38.514525" lon="-1.0690883333333334">
        <ele>1933</ele>
        <time>2013-11-09T14:53:03.98</time>
      </trkpt>
      <trkpt lat="38.514415" lon="-1.069005">
        <ele>1935.7</ele>
        <time>2013-11-09T14:53:04.97</time>
      </trkpt>
      <trkpt lat="38.514305" lon="-1.0689116666666667">
        <ele>1937.6000000000001</ele>
        <time>2013-11-09T14:53:05.98</time>
      </trkpt>
      <trkpt lat="38.51419166666667" lon="-1.068815">
        <ele>1938.9</ele>
        <time>2013-11-09T14:53:06.98</time>
      </trkpt>
      <trkpt lat="38.51407833333333" lon="-1.0687116666666667">
        <ele>1940.2</ele>
        <time>2013-11-09T14:53:08.39</time>
      </trkpt>
      <trkpt lat="38.513995" lon="-1.06858">
        <ele>1941.6000000000001</ele>
        <time>2013-11-09T14:53:08.98</time>
      </trkpt>
      <trkpt lat="38.51392333333333" lon="-1.0684533333333333">
        <ele>1942.9</ele>
        <time>2013-11-09T14:53:09.98</time>
      </trkpt>
      <trkpt lat="38.51386" lon="-1.068335">
        <ele>1944.5</ele>
        <time>2013-11-09T14:53:10.98</time>
      </trkpt>
      <trkpt lat="38.51381" lon="-1.0682316666666667">
        <ele>1945.9</ele>
        <time>2013-11-09T14:53:12.59</time>
      </trkpt>
      <trkpt lat="38.51377" lon="-1.0681383333333334">
        <ele>1947.3000000000002</ele>
        <time>2013-11-09T14:53:12.97</time>
      </trkpt>
      <trkpt lat="38.51374833333333" lon="-1.0680233333333333">
        <ele>1948.6000000000001</ele>
        <time>2013-11-09T14:53:13.93</time>
      </trkpt>
      <trkpt lat="38.513733333333334" lon="-1.0679033333333334">
        <ele>1950.1000000000001</ele>
        <time>2013-11-09T14:53:14.95</time>
      </trkpt>
      <trkpt lat="38.513753333333334" lon="-1.06779">
        <ele>1951.3000000000002</ele>
        <time>2013-11-09T14:53:15.97</time>
      </trkpt>
      <trkpt lat="38.51378666666667" lon="-1.0677016666666668">
        <ele>1951.9</ele>
        <time>2013-11-09T14:53:16.96</time>
      </trkpt>
      <trkpt lat="38.51382" lon="-1.067625">
        <ele>1953.1000000000001</ele>
        <time>2013-11-09T14:53:17.97</time>
      </trkpt>
      <trkpt lat="38.51385333333333" lon="-1.0675516666666667">
        <ele>1955.0000000000002</ele>
        <time>2013-11-09T14:53:18.98</time>
      </trkpt>
      <trkpt lat="38.51387833333333" lon="-1.0674883333333334">
        <ele>1956.5000000000002</ele>
        <time>2013-11-09T14:53:20.9</time>
      </trkpt>
      <trkpt lat="38.51389833333333" lon="-1.0674216666666667">
        <ele>1958.3000000000002</ele>
        <time>2013-11-09T14:53:20.93</time>
      </trkpt>
      <trkpt lat="38.51391666666667" lon="-1.06736">
        <ele>1959.8000000000002</ele>
        <time>2013-11-09T14:53:21.97</time>
      </trkpt>
      <trkpt lat="38.513936666666666" lon="-1.0672933333333334">
        <ele>1961.1000000000001</ele>
        <time>2013-11-09T14:53:22.99</time>
      </trkpt>
      <trkpt lat="38.513965" lon="-1.0672433333333333">
        <ele>1963.2</ele>
        <time>2013-11-09T14:53:23.98</time>
      </trkpt>
      <trkpt lat="38.514001666666665" lon="-1.067185">
        <ele>1965.8</ele>
        <time>2013-11-09T14:53:24.97</time>
      </trkpt>
      <trkpt lat="38.51404" lon="-1.0671266666666666">
        <ele>1968.5</ele>
        <time>2013-11-09T14:53:25.98</time>
      </trkpt>
      <trkpt lat="38.514048333333335" lon="-1.067115">
        <ele>1968.7</ele>
        <time>2013-11-09T14:53:26.98</time>
      </trkpt>
      <trkpt lat="38.514075" lon="-1.06715">
        <ele>1969.4</ele>
        <time>2013-11-09T14:53:28.94</time>
      </trkpt>
      <trkpt lat="38.51410166666667" lon="-1.0671716666666666">
        <ele>1969.7</ele>
        <time>2013-11-09T14:53:29.98</time>
      </trkpt>
      <trkpt lat="38.514115" lon="-1.0672116666666667">
        <ele>1970.1000000000001</ele>
        <time>2013-11-09T14:53:31.89</time>
      </trkpt>
      <trkpt lat="38.51411" lon="-1.0672616666666668">
        <ele>1970.4</ele>
        <time>2013-11-09T14:53:31.98</time>
      </trkpt>
      <trkpt lat="38.514086666666664" lon="-1.0673566666666667">
        <ele>1973.6000000000001</ele>
        <time>2013-11-09T14:53:32.97</time>
      </trkpt>
      <trkpt lat="38.51403833333333" lon="-1.0674983333333334">
        <ele>1975.9</ele>
        <time>2013-11-09T14:53:33.98</time>
      </trkpt>
      <trkpt lat="38.513938333333336" lon="-1.0676416666666666">
        <ele>1977.5</ele>
        <time>2013-11-09T14:53:34.97</time>
      </trkpt>
      <trkpt lat="38.51379166666667" lon="-1.0677633333333334">
        <ele>1978.8</ele>
        <time>2013-11-09T14:53:35.98</time>
      </trkpt>
      <trkpt lat="38.513621666666666" lon="-1.067805">
        <ele>1979.8</ele>
        <time>2013-11-09T14:53:36.98</time>
      </trkpt>
      <trkpt lat="38.513443333333335" lon="-1.067845">
        <ele>1979.8999999999999</ele>
        <time>2013-11-09T14:53:37.99</time>
      </trkpt>
      <trkpt lat="38.513288333333335" lon="-1.0677833333333333">
        <ele>1980.3999999999999</ele>
        <time>2013-11-09T14:53:38.97</time>
      </trkpt>
      <trkpt lat="38.513185" lon="-1.0676633333333334">
        <ele>1980.6</ele>
        <time>2013-11-09T14:53:39.98</time>
      </trkpt>
      <trkpt lat="38.51309166666667" lon="-1.067545">
        <ele>1981.1</ele>
        <time>2013-11-09T14:53:41.39</time>
      </trkpt>
      <trkpt lat="38.512998333333336" lon="-1.0674283333333334">
        <ele>1981.6999999999998</ele>
        <time>2013-11-09T14:53:41.98</time>
      </trkpt>
      <trkpt lat="38.512950000000004" lon="-1.0673">
        <ele>1981.7999999999997</ele>
        <time>2013-11-09T14:53:42.98</time>
      </trkpt>
      <trkpt lat="38.512906666666666" lon="-1.06717">
        <ele>1981.3999999999996</ele>
        <time>2013-11-09T14:53:44.69</time>
      </trkpt>
      <trkpt lat="38.51286833333333" lon="-1.067025">
        <ele>1980.8999999999996</ele>
        <time>2013-11-09T14:53:44.96</time>
      </trkpt>
      <trkpt lat="38.51286833333333" lon="-1.066865">
        <ele>1980.5999999999997</ele>
        <time>2013-11-09T14:53:45.98</time>
      </trkpt>
      <trkpt lat="38.51287" lon="-1.06671">
        <ele>1980.6999999999996</ele>
        <time>2013-11-09T14:53:46.98</time>
      </trkpt>
      <trkpt lat="38.51287833333333" lon="-1.0665616666666666">
        <ele>1980.3999999999996</ele>
        <time>2013-11-09T14:53:47.98</time>
      </trkpt>
      <trkpt lat="38.512883333333335" lon="-1.0664133333333334">
        <ele>1980.3999999999996</ele>
        <time>2013-11-09T14:53:49.39</time>
      </trkpt>
      <trkpt lat="38.51288666666667" lon="-1.0663116666666668">
        <ele>1980.3999999999996</ele>
        <time>2013-11-09T14:53:49.98</time>
      </trkpt>
      <trkpt lat="38.512906666666666" lon="-1.0662416666666668">
        <ele>1980.5999999999997</ele>
        <time>2013-11-09T14:53:50.98</time>
      </trkpt>
      <trkpt lat="38.512925" lon="-1.0661716666666667">
        <ele>1980.6999999999996</ele>
        <time>2013-11-09T14:53:52.29</time>
      </trkpt>
      <trkpt lat="38.512950000000004" lon="-1.0661100000000001">
        <ele>1980.8999999999996</ele>
        <time>2013-11-09T14:53:52.98</time>
      </trkpt>
      <trkpt lat="38.512975" lon="-1.0660566666666667">
        <ele>1981.7999999999997</ele>
        <time>2013-11-09T14:53:53.98</time>
      </trkpt>
      <trkpt lat="38.512995" lon="-1.0660033333333334">
        <ele>1982.9999999999998</ele>
        <time>2013-11-09T14:53:54.97</time>
      </trkpt>
      <trkpt lat="38.513011666666664" lon="-1.0659399999999999">
        <ele>1984.1999999999998</ele>
        <time>2013-11-09T14:53:55.98</time>
      </trkpt>
      <trkpt lat="38.51300333333333" lon="-1.0658616666666667">
        <ele>1985.3999999999999</ele>
        <time>2013-11-09T14:53:57.9</time>
      </trkpt>
      <trkpt lat="38.512995" lon="-1.06577">
        <ele>1986.3</ele>
        <time>2013-11-09T14:53:57.97</time>
      </trkpt>
      <trkpt lat="38.51298666666667" lon="-1.065655">
        <ele>1987.3999999999999</ele>
        <time>2013-11-09T14:53:58.97</time>
      </trkpt>
      <trkpt lat="38.512978333333336" lon="-1.0655366666666666">
        <ele>1988.3</ele>
        <time>2013-11-09T14:53:59.98</time>
      </trkpt>
      <trkpt lat="38.512973333333335" lon="-1.0654366666666666">
        <ele>1989.1</ele>
        <time>2013-11-09T14:54:00.98</time>
      </trkpt>
      <trkpt lat="38.512973333333335" lon="-1.0653683333333333">
        <ele>1990.1</ele>
        <time>2013-11-09T14:54:01.99</time>
      </trkpt>
      <trkpt lat="38.51298833333333" lon="-1.06532">
        <ele>1991.1999999999998</ele>
        <time>2013-11-09T14:54:02.97</time>
      </trkpt>
      <trkpt lat="38.513005" lon="-1.06528">
        <ele>1991.9999999999998</ele>
        <time>2013-11-09T14:54:03.98</time>
      </trkpt>
      <trkpt lat="38.51302333333334" lon="-1.06524">
        <ele>1992.5999999999997</ele>
        <time>2013-11-09T14:54:04.98</time>
      </trkpt>
      <trkpt lat="38.513045" lon="-1.0651966666666666">
        <ele>1992.7999999999997</ele>
        <time>2013-11-09T14:54:05.98</time>
      </trkpt>
      <trkpt lat="38.51307166666667" lon="-1.0651433333333333">
        <ele>1992.6999999999998</ele>
        <time>2013-11-09T14:54:06.98</time>
      </trkpt>
      <trkpt lat="38.5131" lon="-1.065075">
        <ele>1992.3999999999999</ele>
        <time>2013-11-09T14:54:07.97</time>
      </trkpt>
      <trkpt lat="38.51312" lon="-1.0649716666666666">
        <ele>1991.9999999999998</ele>
        <time>2013-11-09T14:54:08.97</time>
      </trkpt>
      <trkpt lat="38.51313666666667" lon="-1.0648633333333333">
        <ele>1991.5999999999997</ele>
        <time>2013-11-09T14:54:10.59</time>
      </trkpt>
      <trkpt lat="38.51314833333333" lon="-1.0647566666666666">
        <ele>1991.4999999999998</ele>
        <time>2013-11-09T14:54:10.96</time>
      </trkpt>
      <trkpt lat="38.513155" lon="-1.064635">
        <ele>1991.7999999999997</ele>
        <time>2013-11-09T14:54:12.29</time>
      </trkpt>
      <trkpt lat="38.51315833333334" lon="-1.0645166666666666">
        <ele>1991.9999999999998</ele>
        <time>2013-11-09T14:54:12.96</time>
      </trkpt>
      <trkpt lat="38.513155" lon="-1.06439">
        <ele>1991.6999999999998</ele>
        <time>2013-11-09T14:54:13.96</time>
      </trkpt>
      <trkpt lat="38.51314833333333" lon="-1.064265">
        <ele>1991.4999999999998</ele>
        <time>2013-11-09T14:54:15.69</time>
      </trkpt>
      <trkpt lat="38.513133333333336" lon="-1.0641316666666667">
        <ele>1991.0999999999997</ele>
        <time>2013-11-09T14:54:16.24</time>
      </trkpt>
      <trkpt lat="38.51311666666667" lon="-1.0639933333333333">
        <ele>1990.5999999999997</ele>
        <time>2013-11-09T14:54:16.97</time>
      </trkpt>
      <trkpt lat="38.513095" lon="-1.0638683333333334">
        <ele>1990.0999999999997</ele>
        <time>2013-11-09T14:54:17.98</time>
      </trkpt>
      <trkpt lat="38.513075" lon="-1.0637366666666668">
        <ele>1989.2999999999997</ele>
        <time>2013-11-09T14:54:18.97</time>
      </trkpt>
      <trkpt lat="38.513056666666664" lon="-1.0636016666666666">
        <ele>1988.3999999999996</ele>
        <time>2013-11-09T14:54:19.98</time>
      </trkpt>
      <trkpt lat="38.51304" lon="-1.0634666666666666">
        <ele>1987.3999999999996</ele>
        <time>2013-11-09T14:54:20.96</time>
      </trkpt>
      <trkpt lat="38.51302833333333" lon="-1.063345">
        <ele>1986.5999999999997</ele>
        <time>2013-11-09T14:54:21.97</time>
      </trkpt>
      <trkpt lat="38.513018333333335" lon="-1.0632116666666667">
        <ele>1985.7999999999997</ele>
        <time>2013-11-09T14:54:22.97</time>
      </trkpt>
      <trkpt lat="38.51301" lon="-1.0630733333333333">
        <ele>1984.9999999999998</ele>
        <time>2013-11-09T14:54:23.97</time>
      </trkpt>
      <trkpt lat="38.51300333333333" lon="-1.062925">
        <ele>1984.1999999999998</ele>
        <time>2013-11-09T14:54:24.96</time>
      </trkpt>
      <trkpt lat="38.512996666666666" lon="-1.0627733333333333">
        <ele>1983.3999999999999</ele>
        <time>2013-11-09T14:54:25.96</time>
      </trkpt>
      <trkpt lat="38.512995" lon="-1.0626266666666666">
        <ele>1982.6</ele>
        <time>2013-11-09T14:54:26.96</time>
      </trkpt>
      <trkpt lat="38.512998333333336" lon="-1.0624916666666666">
        <ele>1981.8</ele>
        <time>2013-11-09T14:54:27.96</time>
      </trkpt>
      <trkpt lat="38.512998333333336" lon="-1.0623733333333334">
        <ele>1981.6</ele>
        <time>2013-11-09T14:54:28.93</time>
      </trkpt>
      <trkpt lat="38.513" lon="-1.06225">
        <ele>1981.3</ele>
        <time>2013-11-09T14:54:29.96</time>
      </trkpt>
      <trkpt lat="38.51300333333333" lon="-1.0621216666666666">
        <ele>1981.2</ele>
        <time>2013-11-09T14:54:30.96</time>
      </trkpt>
      <trkpt lat="38.513005" lon="-1.0619983333333334">
        <ele>1980.2</ele>
        <time>2013-11-09T14:54:31.96</time>
      </trkpt>
      <trkpt lat="38.513005" lon="-1.06187">
        <ele>1978.5</ele>
        <time>2013-11-09T14:54:32.97</time>
      </trkpt>
      <trkpt lat="38.51300833333333" lon="-1.06173">
        <ele>1976.7</ele>
        <time>2013-11-09T14:54:33.98</time>
      </trkpt>
      <trkpt lat="38.513011666666664" lon="-1.0616016666666668">
        <ele>1974.3</ele>
        <time>2013-11-09T14:54:34.96</time>
      </trkpt>
      <trkpt lat="38.513016666666665" lon="-1.0614883333333334">
        <ele>1972.1</ele>
        <time>2013-11-09T14:54:35.93</time>
      </trkpt>
      <trkpt lat="38.51302166666667" lon="-1.0613666666666666">
        <ele>1970.3</ele>
        <time>2013-11-09T14:54:36.96</time>
      </trkpt>
      <trkpt lat="38.51302666666667" lon="-1.061235">
        <ele>1968.3</ele>
        <time>2013-11-09T14:54:37.97</time>
      </trkpt>
      <trkpt lat="38.513043333333336" lon="-1.0611">
        <ele>1965.5</ele>
        <time>2013-11-09T14:54:38.97</time>
      </trkpt>
      <trkpt lat="38.513056666666664" lon="-1.0609533333333334">
        <ele>1962.6</ele>
        <time>2013-11-09T14:54:39.93</time>
      </trkpt>
      <trkpt lat="38.51307" lon="-1.0608083333333334">
        <ele>1959.8</ele>
        <time>2013-11-09T14:54:40.92</time>
      </trkpt>
      <trkpt lat="38.513086666666666" lon="-1.0606666666666666">
        <ele>1956.6</ele>
        <time>2013-11-09T14:54:41.96</time>
      </trkpt>
      <trkpt lat="38.513101666666664" lon="-1.060535">
        <ele>1953</ele>
        <time>2013-11-09T14:54:42.97</time>
      </trkpt>
      <trkpt lat="38.51311666666667" lon="-1.0604">
        <ele>1949.9</ele>
        <time>2013-11-09T14:54:43.96</time>
      </trkpt>
      <trkpt lat="38.513131666666666" lon="-1.0602633333333333">
        <ele>1946.9</ele>
        <time>2013-11-09T14:54:44.97</time>
      </trkpt>
      <trkpt lat="38.51315" lon="-1.0601316666666667">
        <ele>1944.2</ele>
        <time>2013-11-09T14:54:45.96</time>
      </trkpt>
      <trkpt lat="38.513171666666665" lon="-1.06001">
        <ele>1941.6000000000001</ele>
        <time>2013-11-09T14:54:46.96</time>
      </trkpt>
      <trkpt lat="38.513193333333334" lon="-1.0598933333333334">
        <ele>1939.0000000000002</ele>
        <time>2013-11-09T14:54:47.97</time>
      </trkpt>
      <trkpt lat="38.51322" lon="-1.059785">
        <ele>1936.3000000000002</ele>
        <time>2013-11-09T14:54:48.97</time>
      </trkpt>
      <trkpt lat="38.51324666666667" lon="-1.0596616666666667">
        <ele>1933.6000000000001</ele>
        <time>2013-11-09T14:54:49.97</time>
      </trkpt>
      <trkpt lat="38.513275" lon="-1.05954">
        <ele>1930.8000000000002</ele>
        <time>2013-11-09T14:54:50.96</time>
      </trkpt>
      <trkpt lat="38.51331833333333" lon="-1.05943">
        <ele>1927.9</ele>
        <time>2013-11-09T14:54:52.9</time>
      </trkpt>
      <trkpt lat="38.513345" lon="-1.0593033333333333">
        <ele>1924.6000000000001</ele>
        <time>2013-11-09T14:54:52.97</time>
      </trkpt>
      <trkpt lat="38.51336166666667" lon="-1.0591583333333334">
        <ele>1921.1000000000001</ele>
        <time>2013-11-09T14:54:53.96</time>
      </trkpt>
      <trkpt lat="38.51336833333333" lon="-1.0590166666666667">
        <ele>1918.0000000000002</ele>
        <time>2013-11-09T14:54:54.97</time>
      </trkpt>
      <trkpt lat="38.51338833333333" lon="-1.05886">
        <ele>1915.0000000000002</ele>
        <time>2013-11-09T14:54:55.93</time>
      </trkpt>
      <trkpt lat="38.51341" lon="-1.058715">
        <ele>1911.4000000000003</ele>
        <time>2013-11-09T14:54:56.98</time>
      </trkpt>
      <trkpt lat="38.513416666666664" lon="-1.0585733333333334">
        <ele>1907.4000000000003</ele>
        <time>2013-11-09T14:54:58.19</time>
      </trkpt>
      <trkpt lat="38.513415" lon="-1.0584233333333333">
        <ele>1903.3000000000004</ele>
        <time>2013-11-09T14:54:58.90</time>
      </trkpt>
      <trkpt lat="38.51340833333333" lon="-1.0582533333333333">
        <ele>1899.3000000000004</ele>
        <time>2013-11-09T14:55:00.9</time>
      </trkpt>
      <trkpt lat="38.513405" lon="-1.058085">
        <ele>1895.6000000000004</ele>
        <time>2013-11-09T14:55:00.95</time>
      </trkpt>
      <trkpt lat="38.5134" lon="-1.0579016666666667">
        <ele>1892.1000000000004</ele>
        <time>2013-11-09T14:55:01.99</time>
      </trkpt>
      <trkpt lat="38.513373333333334" lon="-1.0577033333333334">
        <ele>1888.8000000000004</ele>
        <time>2013-11-09T14:55:03.19</time>
      </trkpt>
      <trkpt lat="38.51334" lon="-1.0575166666666667">
        <ele>1885.9000000000003</ele>
        <time>2013-11-09T14:55:03.93</time>
      </trkpt>
      <trkpt lat="38.51329166666667" lon="-1.0573166666666667">
        <ele>1883.6000000000004</ele>
        <time>2013-11-09T14:55:04.96</time>
      </trkpt>
      <trkpt lat="38.513243333333335" lon="-1.057125">
        <ele>1881.2000000000003</ele>
        <time>2013-11-09T14:55:06.29</time>
      </trkpt>
      <trkpt lat="38.513193333333334" lon="-1.0569516666666667">
        <ele>1878.6000000000004</ele>
        <time>2013-11-09T14:55:07.19</time>
      </trkpt>
      <trkpt lat="38.51313833333333" lon="-1.0567933333333333">
        <ele>1876.2000000000003</ele>
        <time>2013-11-09T14:55:07.99</time>
      </trkpt>
      <trkpt lat="38.51309333333333" lon="-1.0566266666666666">
        <ele>1874.2000000000003</ele>
        <time>2013-11-09T14:55:08.94</time>
      </trkpt>
      <trkpt lat="38.51305833333333" lon="-1.0564583333333333">
        <ele>1872.6000000000004</ele>
        <time>2013-11-09T14:55:09.97</time>
      </trkpt>
      <trkpt lat="38.51303" lon="-1.0562983333333333">
        <ele>1870.9000000000003</ele>
        <time>2013-11-09T14:55:10.98</time>
      </trkpt>
      <trkpt lat="38.51300333333333" lon="-1.0561516666666666">
        <ele>1869.8000000000004</ele>
        <time>2013-11-09T14:55:11.93</time>
      </trkpt>
      <trkpt lat="38.51298166666667" lon="-1.0560066666666668">
        <ele>1868.7000000000005</ele>
        <time>2013-11-09T14:55:12.99</time>
      </trkpt>
      <trkpt lat="38.51296166666667" lon="-1.0558516666666666">
        <ele>1867.4000000000005</ele>
        <time>2013-11-09T14:55:13.91</time>
      </trkpt>
      <trkpt lat="38.512951666666666" lon="-1.0557183333333333">
        <ele>1865.9000000000005</ele>
        <time>2013-11-09T14:55:14.91</time>
      </trkpt>
      <trkpt lat="38.512945" lon="-1.0555583333333334">
        <ele>1864.4000000000005</ele>
        <time>2013-11-09T14:55:15.92</time>
      </trkpt>
      <trkpt lat="38.512945" lon="-1.0554116666666666">
        <ele>1863.0000000000005</ele>
        <time>2013-11-09T14:55:16.93</time>
      </trkpt>
      <trkpt lat="38.51294" lon="-1.055255">
        <ele>1861.9000000000005</ele>
        <time>2013-11-09T14:55:17.93</time>
      </trkpt>
      <trkpt lat="38.512933333333336" lon="-1.055085">
        <ele>1861.1000000000006</ele>
        <time>2013-11-09T14:55:18.94</time>
      </trkpt>
      <trkpt lat="38.51292" lon="-1.054915">
        <ele>1860.7000000000005</ele>
        <time>2013-11-09T14:55:19.92</time>
      </trkpt>
      <trkpt lat="38.51291166666667" lon="-1.05475">
        <ele>1860.6000000000006</ele>
        <time>2013-11-09T14:55:20.92</time>
      </trkpt>
      <trkpt lat="38.512906666666666" lon="-1.0545916666666666">
        <ele>1860.2000000000005</ele>
        <time>2013-11-09T14:55:21.92</time>
      </trkpt>
      <trkpt lat="38.5129" lon="-1.05443">
        <ele>1860.1000000000006</ele>
        <time>2013-11-09T14:55:22.91</time>
      </trkpt>
      <trkpt lat="38.512895" lon="-1.0542733333333334">
        <ele>1859.9000000000005</ele>
        <time>2013-11-09T14:55:23.94</time>
      </trkpt>
      <trkpt lat="38.512881666666665" lon="-1.0541">
        <ele>1859.2000000000005</ele>
        <time>2013-11-09T14:55:24.98</time>
      </trkpt>
      <trkpt lat="38.512865" lon="-1.05392">
        <ele>1858.1000000000006</ele>
        <time>2013-11-09T14:55:25.91</time>
      </trkpt>
      <trkpt lat="38.51284666666667" lon="-1.053735">
        <ele>1857.0000000000007</ele>
        <time>2013-11-09T14:55:26.91</time>
      </trkpt>
      <trkpt lat="38.51283166666666" lon="-1.0535483333333333">
        <ele>1856.0000000000007</ele>
        <time>2013-11-09T14:55:28.49</time>
      </trkpt>
      <trkpt lat="38.512815" lon="-1.05336">
        <ele>1855.5000000000007</ele>
        <time>2013-11-09T14:55:28.91</time>
      </trkpt>
      <trkpt lat="38.51280333333333" lon="-1.0531783333333333">
        <ele>1855.1000000000006</ele>
        <time>2013-11-09T14:55:29.93</time>
      </trkpt>
      <trkpt lat="38.512798333333336" lon="-1.0530083333333333">
        <ele>1854.8000000000006</ele>
        <time>2013-11-09T14:55:30.95</time>
      </trkpt>
      <trkpt lat="38.512795" lon="-1.0528283333333333">
        <ele>1854.9000000000005</ele>
        <time>2013-11-09T14:55:31.93</time>
      </trkpt>
      <trkpt lat="38.5128" lon="-1.0526516666666668">
        <ele>1855.9000000000005</ele>
        <time>2013-11-09T14:55:32.96</time>
      </trkpt>
      <trkpt lat="38.51280333333333" lon="-1.05248">
        <ele>1856.9000000000005</ele>
        <time>2013-11-09T14:55:33.92</time>
      </trkpt>
      <trkpt lat="38.51280166666667" lon="-1.052305">
        <ele>1858.2000000000005</ele>
        <time>2013-11-09T14:55:34.93</time>
      </trkpt>
      <trkpt lat="38.51278833333333" lon="-1.05213">
        <ele>1859.9000000000005</ele>
        <time>2013-11-09T14:55:35.92</time>
      </trkpt>
      <trkpt lat="38.512771666666666" lon="-1.0519583333333333">
        <ele>1861.6000000000006</ele>
        <time>2013-11-09T14:55:36.92</time>
      </trkpt>
      <trkpt lat="38.512748333333334" lon="-1.051775">
        <ele>1863.2000000000005</ele>
        <time>2013-11-09T14:55:37.93</time>
      </trkpt>
      <trkpt lat="38.512723333333334" lon="-1.0515916666666667">
        <ele>1864.1000000000006</ele>
        <time>2013-11-09T14:55:38.92</time>
      </trkpt>
      <trkpt lat="38.5127" lon="-1.0514000000000001">
        <ele>1864.1000000000006</ele>
        <time>2013-11-09T14:55:39.94</time>
      </trkpt>
      <trkpt lat="38.51268833333334" lon="-1.0512083333333333">
        <ele>1864.0000000000007</ele>
        <time>2013-11-09T14:55:40.93</time>
      </trkpt>
      <trkpt lat="38.512683333333335" lon="-1.0510316666666666">
        <ele>1863.4000000000008</ele>
        <time>2013-11-09T14:55:41.93</time>
      </trkpt>
      <trkpt lat="38.512681666666666" lon="-1.0508633333333333">
        <ele>1862.9000000000008</ele>
        <time>2013-11-09T14:55:42.93</time>
      </trkpt>
      <trkpt lat="38.512683333333335" lon="-1.050705">
        <ele>1862.5000000000007</ele>
        <time>2013-11-09T14:55:43.93</time>
      </trkpt>
      <trkpt lat="38.512685" lon="-1.0505533333333332">
        <ele>1862.3000000000006</ele>
        <time>2013-11-09T14:55:44.92</time>
      </trkpt>
      <trkpt lat="38.512683333333335" lon="-1.0503866666666666">
        <ele>1862.2000000000007</ele>
        <time>2013-11-09T14:55:45.93</time>
      </trkpt>
      <trkpt lat="38.51267166666667" lon="-1.05022">
        <ele>1862.8000000000006</ele>
        <time>2013-11-09T14:55:46.93</time>
      </trkpt>
      <trkpt lat="38.51264833333333" lon="-1.0500366666666667">
        <ele>1863.4000000000005</ele>
        <time>2013-11-09T14:55:47.92</time>
      </trkpt>
      <trkpt lat="38.512618333333336" lon="-1.0498466666666666">
        <ele>1864.0000000000005</ele>
        <time>2013-11-09T14:55:48.92</time>
      </trkpt>
      <trkpt lat="38.51258166666667" lon="-1.04965">
        <ele>1864.0000000000005</ele>
        <time>2013-11-09T14:55:49.92</time>
      </trkpt>
      <trkpt lat="38.512546666666665" lon="-1.0494633333333334">
        <ele>1863.7000000000005</ele>
        <time>2013-11-09T14:55:50.92</time>
      </trkpt>
      <trkpt lat="38.51251833333333" lon="-1.0492766666666666">
        <ele>1863.1000000000006</ele>
        <time>2013-11-09T14:55:51.93</time>
      </trkpt>
      <trkpt lat="38.512495" lon="-1.0490866666666667">
        <ele>1862.6000000000006</ele>
        <time>2013-11-09T14:55:52.92</time>
      </trkpt>
      <trkpt lat="38.512476666666664" lon="-1.0489066666666667">
        <ele>1861.8000000000006</ele>
        <time>2013-11-09T14:55:53.94</time>
      </trkpt>
      <trkpt lat="38.512465" lon="-1.04873">
        <ele>1861.0000000000007</ele>
        <time>2013-11-09T14:55:54.91</time>
      </trkpt>
      <trkpt lat="38.512451666666664" lon="-1.0485533333333332">
        <ele>1860.3000000000006</ele>
        <time>2013-11-09T14:55:55.91</time>
      </trkpt>
      <trkpt lat="38.51244" lon="-1.0483733333333334">
        <ele>1859.6000000000006</ele>
        <time>2013-11-09T14:55:56.91</time>
      </trkpt>
      <trkpt lat="38.51243" lon="-1.0481833333333332">
        <ele>1859.2000000000005</ele>
        <time>2013-11-09T14:55:57.92</time>
      </trkpt>
      <trkpt lat="38.51241666666667" lon="-1.047995">
        <ele>1859.1000000000006</ele>
        <time>2013-11-09T14:55:58.91</time>
      </trkpt>
      <trkpt lat="38.51239833333333" lon="-1.0478133333333333">
        <ele>1859.2000000000005</ele>
        <time>2013-11-09T14:55:59.92</time>
      </trkpt>
      <trkpt lat="38.51237166666667" lon="-1.047635">
        <ele>1859.4000000000005</ele>
        <time>2013-11-09T14:56:00.92</time>
      </trkpt>
      <trkpt lat="38.512325" lon="-1.0474383333333332">
        <ele>1859.4000000000005</ele>
        <time>2013-11-09T14:56:01.94</time>
      </trkpt>
      <trkpt lat="38.512278333333335" lon="-1.04724">
        <ele>1858.9000000000005</ele>
        <time>2013-11-09T14:56:02.92</time>
      </trkpt>
      <trkpt lat="38.51223" lon="-1.0470366666666666">
        <ele>1858.3000000000006</ele>
        <time>2013-11-09T14:56:03.91</time>
      </trkpt>
      <trkpt lat="38.51218" lon="-1.0468233333333334">
        <ele>1857.6000000000006</ele>
        <time>2013-11-09T14:56:04.92</time>
      </trkpt>
      <trkpt lat="38.51213833333333" lon="-1.046585">
        <ele>1856.8000000000006</ele>
        <time>2013-11-09T14:56:05.92</time>
      </trkpt>
      <trkpt lat="38.512105" lon="-1.0463583333333333">
        <ele>1856.5000000000007</ele>
        <time>2013-11-09T14:56:06.93</time>
      </trkpt>
      <trkpt lat="38.51206666666667" lon="-1.04613">
        <ele>1856.3000000000006</ele>
        <time>2013-11-09T14:56:07.92</time>
      </trkpt>
      <trkpt lat="38.512011666666666" lon="-1.0459166666666666">
        <ele>1856.9000000000005</ele>
        <time>2013-11-09T14:56:09.10</time>
      </trkpt>
      <trkpt lat="38.511918333333334" lon="-1.0457683333333334">
        <ele>1857.8000000000006</ele>
        <time>2013-11-09T14:56:09.92</time>
      </trkpt>
      <trkpt lat="38.51182" lon="-1.04562">
        <ele>1858.6000000000006</ele>
        <time>2013-11-09T14:56:10.93</time>
      </trkpt>
      <trkpt lat="38.51171166666666" lon="-1.0454666666666668">
        <ele>1859.4000000000005</ele>
        <time>2013-11-09T14:56:11.91</time>
      </trkpt>
      <trkpt lat="38.51161" lon="-1.045295">
        <ele>1860.3000000000006</ele>
        <time>2013-11-09T14:56:12.95</time>
      </trkpt>
      <trkpt lat="38.51152666666667" lon="-1.04512">
        <ele>1861.3000000000006</ele>
        <time>2013-11-09T14:56:13.93</time>
      </trkpt>
      <trkpt lat="38.511448333333334" lon="-1.04493">
        <ele>1862.2000000000007</ele>
        <time>2013-11-09T14:56:14.91</time>
      </trkpt>
      <trkpt lat="38.51137166666667" lon="-1.044755">
        <ele>1863.5000000000007</ele>
        <time>2013-11-09T14:56:15.92</time>
      </trkpt>
      <trkpt lat="38.51128166666667" lon="-1.044575">
        <ele>1864.4000000000008</ele>
        <time>2013-11-09T14:56:16.91</time>
      </trkpt>
      <trkpt lat="38.511158333333334" lon="-1.0444316666666666">
        <ele>1865.3000000000009</ele>
        <time>2013-11-09T14:56:17.92</time>
      </trkpt>
      <trkpt lat="38.51103" lon="-1.0442966666666667">
        <ele>1866.3000000000009</ele>
        <time>2013-11-09T14:56:18.91</time>
      </trkpt>
      <trkpt lat="38.51089666666667" lon="-1.0441816666666666">
        <ele>1867.4000000000008</ele>
        <time>2013-11-09T14:56:19.91</time>
      </trkpt>
      <trkpt lat="38.51074833333333" lon="-1.0441283333333333">
        <ele>1867.9000000000008</ele>
        <time>2013-11-09T14:56:20.91</time>
      </trkpt>
      <trkpt lat="38.51060666666667" lon="-1.04409">
        <ele>1868.8000000000009</ele>
        <time>2013-11-09T14:56:21.91</time>
      </trkpt>
      <trkpt lat="38.510463333333334" lon="-1.0441">
        <ele>1869.700000000001</ele>
        <time>2013-11-09T14:56:22.91</time>
      </trkpt>
      <trkpt lat="38.51034" lon="-1.0441233333333333">
        <ele>1870.600000000001</ele>
        <time>2013-11-09T14:56:23.90</time>
      </trkpt>
      <trkpt lat="38.510238333333334" lon="-1.044155">
        <ele>1871.300000000001</ele>
        <time>2013-11-09T14:56:24.90</time>
      </trkpt>
      <trkpt lat="38.51016" lon="-1.0442083333333334">
        <ele>1871.7000000000012</ele>
        <time>2013-11-09T14:56:25.90</time>
      </trkpt>
      <trkpt lat="38.51010333333333" lon="-1.0442783333333334">
        <ele>1871.9000000000012</ele>
        <time>2013-11-09T14:56:26.90</time>
      </trkpt>
      <trkpt lat="38.510061666666665" lon="-1.0443500000000001">
        <ele>1871.1000000000013</ele>
        <time>2013-11-09T14:56:27.91</time>
      </trkpt>
      <trkpt lat="38.510063333333335" lon="-1.0444083333333334">
        <ele>1870.2000000000012</ele>
        <time>2013-11-09T14:56:28.91</time>
      </trkpt>
      <trkpt lat="38.51009166666667" lon="-1.04444">
        <ele>1870.2000000000012</ele>
        <time>2013-11-09T14:56:29.90</time>
      </trkpt>
      <trkpt lat="38.51014166666667" lon="-1.0444333333333333">
        <ele>1870.1000000000013</ele>
        <time>2013-11-09T14:56:30.90</time>
      </trkpt>
      <trkpt lat="38.510205" lon="-1.0443733333333334">
        <ele>1869.6000000000013</ele>
        <time>2013-11-09T14:56:31.90</time>
      </trkpt>
      <trkpt lat="38.51025833333333" lon="-1.0443116666666667">
        <ele>1868.6000000000013</ele>
        <time>2013-11-09T14:56:32.92</time>
      </trkpt>
      <trkpt lat="38.510313333333336" lon="-1.044225">
        <ele>1867.6000000000013</ele>
        <time>2013-11-09T14:56:33.91</time>
      </trkpt>
      <trkpt lat="38.51036166666667" lon="-1.0441333333333334">
        <ele>1866.9000000000012</ele>
        <time>2013-11-09T14:56:34.91</time>
      </trkpt>
      <trkpt lat="38.51040833333333" lon="-1.0440283333333333">
        <ele>1866.3000000000013</ele>
        <time>2013-11-09T14:56:35.92</time>
      </trkpt>
      <trkpt lat="38.510435" lon="-1.04391">
        <ele>1865.9000000000012</ele>
        <time>2013-11-09T14:56:36.91</time>
      </trkpt>
      <trkpt lat="38.510463333333334" lon="-1.043795">
        <ele>1865.6000000000013</ele>
        <time>2013-11-09T14:56:37.93</time>
      </trkpt>
      <trkpt lat="38.51049" lon="-1.043665">
        <ele>1865.2000000000012</ele>
        <time>2013-11-09T14:56:39.9</time>
      </trkpt>
      <trkpt lat="38.510486666666665" lon="-1.0435033333333332">
        <ele>1865.2000000000012</ele>
        <time>2013-11-09T14:56:39.91</time>
      </trkpt>
      <trkpt lat="38.510486666666665" lon="-1.0433216666666667">
        <ele>1866.0000000000011</ele>
        <time>2013-11-09T14:56:40.91</time>
      </trkpt>
      <trkpt lat="38.51048333333333" lon="-1.0431316666666666">
        <ele>1867.100000000001</ele>
        <time>2013-11-09T14:56:41.90</time>
      </trkpt>
      <trkpt lat="38.51047833333333" lon="-1.0429333333333333">
        <ele>1868.0000000000011</ele>
        <time>2013-11-09T14:56:42.93</time>
      </trkpt>
      <trkpt lat="38.51047" lon="-1.0427316666666666">
        <ele>1869.300000000001</ele>
        <time>2013-11-09T14:56:44.69</time>
      </trkpt>
      <trkpt lat="38.51045666666667" lon="-1.0425183333333334">
        <ele>1870.300000000001</ele>
        <time>2013-11-09T14:56:44.93</time>
      </trkpt>
      <trkpt lat="38.510443333333335" lon="-1.0423083333333334">
        <ele>1871.7000000000012</ele>
        <time>2013-11-09T14:56:45.97</time>
      </trkpt>
      <trkpt lat="38.51042666666667" lon="-1.0421116666666668">
        <ele>1873.2000000000012</ele>
        <time>2013-11-09T14:56:46.97</time>
      </trkpt>
      <trkpt lat="38.510403333333336" lon="-1.0419266666666667">
        <ele>1874.9000000000012</ele>
        <time>2013-11-09T14:56:47.97</time>
      </trkpt>
      <trkpt lat="38.51038" lon="-1.0417566666666667">
        <ele>1876.6000000000013</ele>
        <time>2013-11-09T14:56:48.93</time>
      </trkpt>
      <trkpt lat="38.51036666666667" lon="-1.0415933333333334">
        <ele>1878.1000000000013</ele>
        <time>2013-11-09T14:56:50.49</time>
      </trkpt>
      <trkpt lat="38.51036" lon="-1.0414416666666666">
        <ele>1879.4000000000012</ele>
        <time>2013-11-09T14:56:50.93</time>
      </trkpt>
      <trkpt lat="38.510378333333335" lon="-1.0413066666666666">
        <ele>1880.6000000000013</ele>
        <time>2013-11-09T14:56:51.98</time>
      </trkpt>
      <trkpt lat="38.510398333333335" lon="-1.0411733333333333">
        <ele>1881.6000000000013</ele>
        <time>2013-11-09T14:56:52.97</time>
      </trkpt>
      <trkpt lat="38.51042" lon="-1.0410433333333333">
        <ele>1882.6000000000013</ele>
        <time>2013-11-09T14:56:53.98</time>
      </trkpt>
      <trkpt lat="38.51043666666666" lon="-1.0409316666666666">
        <ele>1883.4000000000012</ele>
        <time>2013-11-09T14:56:54.98</time>
      </trkpt>
      <trkpt lat="38.51046" lon="-1.040815">
        <ele>1884.0000000000011</ele>
        <time>2013-11-09T14:56:55.98</time>
      </trkpt>
      <trkpt lat="38.510486666666665" lon="-1.0407033333333333">
        <ele>1884.600000000001</ele>
        <time>2013-11-09T14:56:56.97</time>
      </trkpt>
      <trkpt lat="38.510535" lon="-1.040595">
        <ele>1885.100000000001</ele>
        <time>2013-11-09T14:56:57.93</time>
      </trkpt>
      <trkpt lat="38.510578333333335" lon="-1.0404933333333333">
        <ele>1885.600000000001</ele>
        <time>2013-11-09T14:56:58.97</time>
      </trkpt>
      <trkpt lat="38.510621666666665" lon="-1.0403966666666666">
        <ele>1886.0000000000011</ele>
        <time>2013-11-09T14:56:59.98</time>
      </trkpt>
      <trkpt lat="38.51066" lon="-1.04031">
        <ele>1886.7000000000012</ele>
        <time>2013-11-09T14:57:00.98</time>
      </trkpt>
      <trkpt lat="38.51069833333333" lon="-1.0402333333333333">
        <ele>1887.300000000001</ele>
        <time>2013-11-09T14:57:01.97</time>
      </trkpt>
      <trkpt lat="38.510735" lon="-1.0401616666666667">
        <ele>1887.7000000000012</ele>
        <time>2013-11-09T14:57:02.95</time>
      </trkpt>
      <trkpt lat="38.510765" lon="-1.0401133333333332">
        <ele>1888.2000000000012</ele>
        <time>2013-11-09T14:57:03.97</time>
      </trkpt>
      <trkpt lat="38.51081" lon="-1.040065">
        <ele>1888.7000000000012</ele>
        <time>2013-11-09T14:57:04.97</time>
      </trkpt>
      <trkpt lat="38.510866666666665" lon="-1.0400033333333334">
        <ele>1889.300000000001</ele>
        <time>2013-11-09T14:57:05.98</time>
      </trkpt>
      <trkpt lat="38.510936666666666" lon="-1.039915">
        <ele>1889.800000000001</ele>
        <time>2013-11-09T14:57:06.93</time>
      </trkpt>
      <trkpt lat="38.511" lon="-1.0397766666666666">
        <ele>1890.2000000000012</ele>
        <time>2013-11-09T14:57:08.79</time>
      </trkpt>
      <trkpt lat="38.51105166666667" lon="-1.0396416666666666">
        <ele>1890.6000000000013</ele>
        <time>2013-11-09T14:57:08.97</time>
      </trkpt>
      <trkpt lat="38.51110166666667" lon="-1.0395">
        <ele>1890.9000000000012</ele>
        <time>2013-11-09T14:57:09.98</time>
      </trkpt>
      <trkpt lat="38.511145" lon="-1.0393633333333334">
        <ele>1891.8000000000013</ele>
        <time>2013-11-09T14:57:10.97</time>
      </trkpt>
      <trkpt lat="38.511185" lon="-1.039225">
        <ele>1892.7000000000014</ele>
        <time>2013-11-09T14:57:11.94</time>
      </trkpt>
      <trkpt lat="38.511221666666664" lon="-1.0390866666666667">
        <ele>1893.2000000000014</ele>
        <time>2013-11-09T14:57:12.94</time>
      </trkpt>
      <trkpt lat="38.511248333333334" lon="-1.0389616666666666">
        <ele>1894.1000000000015</ele>
        <time>2013-11-09T14:57:13.97</time>
      </trkpt>
      <trkpt lat="38.511275" lon="-1.0388416666666667">
        <ele>1895.2000000000014</ele>
        <time>2013-11-09T14:57:14.97</time>
      </trkpt>
      <trkpt lat="38.51129666666667" lon="-1.038735">
        <ele>1896.1000000000015</ele>
        <time>2013-11-09T14:57:15.98</time>
      </trkpt>
      <trkpt lat="38.51132" lon="-1.0386083333333334">
        <ele>1896.5000000000016</ele>
        <time>2013-11-09T14:57:16.95</time>
      </trkpt>
      <trkpt lat="38.511343333333336" lon="-1.0384833333333334">
        <ele>1896.7000000000016</ele>
        <time>2013-11-09T14:57:17.97</time>
      </trkpt>
      <trkpt lat="38.51137166666667" lon="-1.0383716666666667">
        <ele>1896.9000000000017</ele>
        <time>2013-11-09T14:57:18.97</time>
      </trkpt>
      <trkpt lat="38.51139833333333" lon="-1.0382733333333334">
        <ele>1897.5000000000016</ele>
        <time>2013-11-09T14:57:19.97</time>
      </trkpt>
      <trkpt lat="38.511433333333336" lon="-1.03815">
        <ele>1897.7000000000016</ele>
        <time>2013-11-09T14:57:20.94</time>
      </trkpt>
      <trkpt lat="38.511475" lon="-1.037995">
        <ele>1897.5000000000016</ele>
        <time>2013-11-09T14:57:21.97</time>
      </trkpt>
      <trkpt lat="38.511523333333336" lon="-1.0378183333333333">
        <ele>1897.4000000000017</ele>
        <time>2013-11-09T14:57:22.97</time>
      </trkpt>
      <trkpt lat="38.51157" lon="-1.03763">
        <ele>1897.3000000000018</ele>
        <time>2013-11-09T14:57:23.97</time>
      </trkpt>
      <trkpt lat="38.51162" lon="-1.0374583333333334">
        <ele>1897.6000000000017</ele>
        <time>2013-11-09T14:57:25.39</time>
      </trkpt>
      <trkpt lat="38.51166666666666" lon="-1.0373">
        <ele>1898.5000000000018</ele>
        <time>2013-11-09T14:57:25.97</time>
      </trkpt>
      <trkpt lat="38.51170833333333" lon="-1.0371466666666667">
        <ele>1899.400000000002</ele>
        <time>2013-11-09T14:57:26.94</time>
      </trkpt>
      <trkpt lat="38.511721666666666" lon="-1.036985">
        <ele>1900.100000000002</ele>
        <time>2013-11-09T14:57:27.92</time>
      </trkpt>
      <trkpt lat="38.511725" lon="-1.03682">
        <ele>1900.300000000002</ele>
        <time>2013-11-09T14:57:28.93</time>
      </trkpt>
      <trkpt lat="38.511718333333334" lon="-1.0366516666666667">
        <ele>1900.400000000002</ele>
        <time>2013-11-09T14:57:30.99</time>
      </trkpt>
      <trkpt lat="38.51170666666667" lon="-1.0364833333333334">
        <ele>1900.100000000002</ele>
        <time>2013-11-09T14:57:30.98</time>
      </trkpt>
      <trkpt lat="38.5117" lon="-1.0363116666666667">
        <ele>1899.900000000002</ele>
        <time>2013-11-09T14:57:31.98</time>
      </trkpt>
      <trkpt lat="38.5117" lon="-1.03614">
        <ele>1899.600000000002</ele>
        <time>2013-11-09T14:57:32.99</time>
      </trkpt>
      <trkpt lat="38.51170833333333" lon="-1.03597">
        <ele>1898.900000000002</ele>
        <time>2013-11-09T14:57:33.97</time>
      </trkpt>
      <trkpt lat="38.51172" lon="-1.0358083333333332">
        <ele>1898.400000000002</ele>
        <time>2013-11-09T14:57:34.98</time>
      </trkpt>
      <trkpt lat="38.51173333333333" lon="-1.0356483333333333">
        <ele>1898.100000000002</ele>
        <time>2013-11-09T14:57:35.98</time>
      </trkpt>
      <trkpt lat="38.51175166666667" lon="-1.0354866666666667">
        <ele>1897.800000000002</ele>
        <time>2013-11-09T14:57:36.99</time>
      </trkpt>
      <trkpt lat="38.51177" lon="-1.0353283333333334">
        <ele>1897.500000000002</ele>
        <time>2013-11-09T14:57:38.49</time>
      </trkpt>
      <trkpt lat="38.51179" lon="-1.035175">
        <ele>1897.300000000002</ele>
        <time>2013-11-09T14:57:38.97</time>
      </trkpt>
      <trkpt lat="38.51181166666667" lon="-1.0350233333333334">
        <ele>1897.000000000002</ele>
        <time>2013-11-09T14:57:39.97</time>
      </trkpt>
      <trkpt lat="38.51183833333333" lon="-1.0348733333333333">
        <ele>1896.700000000002</ele>
        <time>2013-11-09T14:57:40.97</time>
      </trkpt>
      <trkpt lat="38.51186666666667" lon="-1.0347266666666666">
        <ele>1896.1000000000022</ele>
        <time>2013-11-09T14:57:41.98</time>
      </trkpt>
      <trkpt lat="38.511895" lon="-1.03458">
        <ele>1895.3000000000022</ele>
        <time>2013-11-09T14:57:43.69</time>
      </trkpt>
      <trkpt lat="38.51192666666667" lon="-1.0344166666666668">
        <ele>1894.3000000000022</ele>
        <time>2013-11-09T14:57:43.98</time>
      </trkpt>
      <trkpt lat="38.511968333333336" lon="-1.0342716666666667">
        <ele>1893.3000000000022</ele>
        <time>2013-11-09T14:57:44.98</time>
      </trkpt>
      <trkpt lat="38.51201666666667" lon="-1.0341266666666666">
        <ele>1892.5000000000023</ele>
        <time>2013-11-09T14:57:45.97</time>
      </trkpt>
      <trkpt lat="38.512076666666665" lon="-1.0339883333333333">
        <ele>1891.7000000000023</ele>
        <time>2013-11-09T14:57:46.97</time>
      </trkpt>
      <trkpt lat="38.512135" lon="-1.0338533333333333">
        <ele>1891.1000000000024</ele>
        <time>2013-11-09T14:57:47.98</time>
      </trkpt>
      <trkpt lat="38.51219" lon="-1.0337233333333333">
        <ele>1890.6000000000024</ele>
        <time>2013-11-09T14:57:48.97</time>
      </trkpt>
      <trkpt lat="38.512238333333336" lon="-1.0335933333333334">
        <ele>1890.1000000000024</ele>
        <time>2013-11-09T14:57:49.98</time>
      </trkpt>
      <trkpt lat="38.512278333333335" lon="-1.0334733333333332">
        <ele>1889.6000000000024</ele>
        <time>2013-11-09T14:57:50.91</time>
      </trkpt>
      <trkpt lat="38.51231833333333" lon="-1.033345">
        <ele>1889.0000000000025</ele>
        <time>2013-11-09T14:57:51.97</time>
      </trkpt>
      <trkpt lat="38.51236333333333" lon="-1.0332183333333333">
        <ele>1888.4000000000026</ele>
        <time>2013-11-09T14:57:52.99</time>
      </trkpt>
      <trkpt lat="38.512405" lon="-1.0330883333333334">
        <ele>1887.6000000000026</ele>
        <time>2013-11-09T14:57:53.98</time>
      </trkpt>
      <trkpt lat="38.51244833333333" lon="-1.0329583333333334">
        <ele>1886.5000000000027</ele>
        <time>2013-11-09T14:57:54.98</time>
      </trkpt>
      <trkpt lat="38.51248833333333" lon="-1.0328283333333332">
        <ele>1885.6000000000026</ele>
        <time>2013-11-09T14:57:55.95</time>
      </trkpt>
      <trkpt lat="38.512525" lon="-1.032705">
        <ele>1884.7000000000025</ele>
        <time>2013-11-09T14:57:56.98</time>
      </trkpt>
      <trkpt lat="38.51256333333333" lon="-1.0325816666666667">
        <ele>1883.9000000000026</ele>
        <time>2013-11-09T14:57:57.98</time>
      </trkpt>
      <trkpt lat="38.51260666666667" lon="-1.032455">
        <ele>1882.6000000000026</ele>
        <time>2013-11-09T14:57:58.99</time>
      </trkpt>
      <trkpt lat="38.512655" lon="-1.0323166666666668">
        <ele>1881.2000000000025</ele>
        <time>2013-11-09T14:57:59.98</time>
      </trkpt>
      <trkpt lat="38.512703333333334" lon="-1.032185">
        <ele>1879.4000000000026</ele>
        <time>2013-11-09T14:58:00.99</time>
      </trkpt>
      <trkpt lat="38.51275166666667" lon="-1.032045">
        <ele>1877.7000000000025</ele>
        <time>2013-11-09T14:58:01.98</time>
      </trkpt>
      <trkpt lat="38.512795" lon="-1.03192">
        <ele>1876.1000000000026</ele>
        <time>2013-11-09T14:58:02.98</time>
      </trkpt>
      <trkpt lat="38.512835" lon="-1.0317916666666667">
        <ele>1874.6000000000026</ele>
        <time>2013-11-09T14:58:03.98</time>
      </trkpt>
      <trkpt lat="38.51287166666667" lon="-1.0316666666666667">
        <ele>1873.1000000000026</ele>
        <time>2013-11-09T14:58:04.93</time>
      </trkpt>
      <trkpt lat="38.51291" lon="-1.031535">
        <ele>1871.6000000000026</ele>
        <time>2013-11-09T14:58:05.98</time>
      </trkpt>
      <trkpt lat="38.512950000000004" lon="-1.031395">
        <ele>1870.3000000000027</ele>
        <time>2013-11-09T14:58:06.97</time>
      </trkpt>
      <trkpt lat="38.51298833333333" lon="-1.031245">
        <ele>1869.2000000000028</ele>
        <time>2013-11-09T14:58:07.97</time>
      </trkpt>
      <trkpt lat="38.513025" lon="-1.0311">
        <ele>1868.1000000000029</ele>
        <time>2013-11-09T14:58:08.93</time>
      </trkpt>
      <trkpt lat="38.51305833333333" lon="-1.0309583333333334">
        <ele>1867.000000000003</ele>
        <time>2013-11-09T14:58:09.98</time>
      </trkpt>
      <trkpt lat="38.513085" lon="-1.030835">
        <ele>1865.700000000003</ele>
        <time>2013-11-09T14:58:10.98</time>
      </trkpt>
      <trkpt lat="38.513115" lon="-1.0306983333333333">
        <ele>1864.300000000003</ele>
        <time>2013-11-09T14:58:12.69</time>
      </trkpt>
      <trkpt lat="38.513146666666664" lon="-1.0305416666666667">
        <ele>1863.1000000000029</ele>
        <time>2013-11-09T14:58:12.97</time>
      </trkpt>
      <trkpt lat="38.513176666666666" lon="-1.0303766666666667">
        <ele>1862.1000000000029</ele>
        <time>2013-11-09T14:58:13.97</time>
      </trkpt>
      <trkpt lat="38.513205" lon="-1.0302216666666666">
        <ele>1861.4000000000028</ele>
        <time>2013-11-09T14:58:14.99</time>
      </trkpt>
      <trkpt lat="38.51322833333333" lon="-1.0300883333333333">
        <ele>1860.7000000000028</ele>
        <time>2013-11-09T14:58:15.98</time>
      </trkpt>
      <trkpt lat="38.51324666666667" lon="-1.0299583333333333">
        <ele>1860.3000000000027</ele>
        <time>2013-11-09T14:58:16.97</time>
      </trkpt>
      <trkpt lat="38.51325333333333" lon="-1.0298266666666667">
        <ele>1860.6000000000026</ele>
        <time>2013-11-09T14:58:17.93</time>
      </trkpt>
      <trkpt lat="38.51326666666667" lon="-1.0296733333333334">
        <ele>1860.7000000000025</ele>
        <time>2013-11-09T14:58:18.97</time>
      </trkpt>
      <trkpt lat="38.513281666666664" lon="-1.0295133333333333">
        <ele>1860.6000000000026</ele>
        <time>2013-11-09T14:58:19.98</time>
      </trkpt>
      <trkpt lat="38.5133" lon="-1.0293566666666667">
        <ele>1860.4000000000026</ele>
        <time>2013-11-09T14:58:20.98</time>
      </trkpt>
      <trkpt lat="38.513326666666664" lon="-1.029205">
        <ele>1860.1000000000026</ele>
        <time>2013-11-09T14:58:21.99</time>
      </trkpt>
      <trkpt lat="38.513355" lon="-1.0290683333333333">
        <ele>1860.6000000000026</ele>
        <time>2013-11-09T14:58:22.97</time>
      </trkpt>
      <trkpt lat="38.51338166666667" lon="-1.028935">
        <ele>1861.1000000000026</ele>
        <time>2013-11-09T14:58:23.98</time>
      </trkpt>
      <trkpt lat="38.51340666666667" lon="-1.0288033333333333">
        <ele>1861.7000000000025</ele>
        <time>2013-11-09T14:58:24.98</time>
      </trkpt>
      <trkpt lat="38.51342833333333" lon="-1.02867">
        <ele>1862.0000000000025</ele>
        <time>2013-11-09T14:58:25.98</time>
      </trkpt>
      <trkpt lat="38.51345333333333" lon="-1.028525">
        <ele>1861.9000000000026</ele>
        <time>2013-11-09T14:58:26.98</time>
      </trkpt>
      <trkpt lat="38.51347833333333" lon="-1.0283883333333332">
        <ele>1862.2000000000025</ele>
        <time>2013-11-09T14:58:27.95</time>
      </trkpt>
      <trkpt lat="38.513506666666665" lon="-1.0282433333333334">
        <ele>1862.7000000000025</ele>
        <time>2013-11-09T14:58:28.99</time>
      </trkpt>
      <trkpt lat="38.513535" lon="-1.0280983333333333">
        <ele>1863.4000000000026</ele>
        <time>2013-11-09T14:58:29.98</time>
      </trkpt>
      <trkpt lat="38.51356333333333" lon="-1.0279466666666666">
        <ele>1864.3000000000027</ele>
        <time>2013-11-09T14:58:30.98</time>
      </trkpt>
      <trkpt lat="38.51359" lon="-1.02779">
        <ele>1865.1000000000026</ele>
        <time>2013-11-09T14:58:32.9</time>
      </trkpt>
      <trkpt lat="38.513615" lon="-1.0276366666666668">
        <ele>1865.8000000000027</ele>
        <time>2013-11-09T14:58:32.95</time>
      </trkpt>
      <trkpt lat="38.513643333333334" lon="-1.0274916666666667">
        <ele>1866.3000000000027</ele>
        <time>2013-11-09T14:58:33.94</time>
      </trkpt>
      <trkpt lat="38.51367166666667" lon="-1.0273516666666667">
        <ele>1866.4000000000026</ele>
        <time>2013-11-09T14:58:34.98</time>
      </trkpt>
      <trkpt lat="38.51369833333333" lon="-1.0272166666666667">
        <ele>1866.5000000000025</ele>
        <time>2013-11-09T14:58:35.98</time>
      </trkpt>
      <trkpt lat="38.513725" lon="-1.0270766666666666">
        <ele>1866.5000000000025</ele>
        <time>2013-11-09T14:58:36.98</time>
      </trkpt>
      <trkpt lat="38.51375" lon="-1.0269266666666668">
        <ele>1866.6000000000024</ele>
        <time>2013-11-09T14:58:37.96</time>
      </trkpt>
      <trkpt lat="38.51378" lon="-1.0267783333333333">
        <ele>1866.3000000000025</ele>
        <time>2013-11-09T14:58:38.93</time>
      </trkpt>
      <trkpt lat="38.51381666666666" lon="-1.026635">
        <ele>1866.0000000000025</ele>
        <time>2013-11-09T14:58:39.98</time>
      </trkpt>
      <trkpt lat="38.51385666666667" lon="-1.02651">
        <ele>1865.5000000000025</ele>
        <time>2013-11-09T14:58:40.99</time>
      </trkpt>
      <trkpt lat="38.51389666666667" lon="-1.0263966666666666">
        <ele>1865.0000000000025</ele>
        <time>2013-11-09T14:58:41.98</time>
      </trkpt>
      <trkpt lat="38.513938333333336" lon="-1.0262883333333332">
        <ele>1864.3000000000025</ele>
        <time>2013-11-09T14:58:42.98</time>
      </trkpt>
      <trkpt lat="38.513985" lon="-1.0261633333333333">
        <ele>1863.8000000000025</ele>
        <time>2013-11-09T14:58:43.98</time>
      </trkpt>
      <trkpt lat="38.51403166666667" lon="-1.0260366666666667">
        <ele>1863.1000000000024</ele>
        <time>2013-11-09T14:58:44.99</time>
      </trkpt>
      <trkpt lat="38.514075" lon="-1.0259183333333333">
        <ele>1862.8000000000025</ele>
        <time>2013-11-09T14:58:45.99</time>
      </trkpt>
      <trkpt lat="38.51412" lon="-1.0257983333333334">
        <ele>1862.6000000000024</ele>
        <time>2013-11-09T14:58:46.94</time>
      </trkpt>
      <trkpt lat="38.514165" lon="-1.025675">
        <ele>1862.4000000000024</ele>
        <time>2013-11-09T14:58:48.9</time>
      </trkpt>
      <trkpt lat="38.51421333333333" lon="-1.0255416666666666">
        <ele>1862.3000000000025</ele>
        <time>2013-11-09T14:58:49.19</time>
      </trkpt>
      <trkpt lat="38.51426333333333" lon="-1.025405">
        <ele>1861.9000000000024</ele>
        <time>2013-11-09T14:58:49.99</time>
      </trkpt>
      <trkpt lat="38.51430833333333" lon="-1.0252766666666666">
        <ele>1861.3000000000025</ele>
        <time>2013-11-09T14:58:50.95</time>
      </trkpt>
      <trkpt lat="38.51436" lon="-1.0251533333333334">
        <ele>1860.7000000000025</ele>
        <time>2013-11-09T14:58:51.99</time>
      </trkpt>
      <trkpt lat="38.514406666666666" lon="-1.025045">
        <ele>1860.0000000000025</ele>
        <time>2013-11-09T14:58:52.94</time>
      </trkpt>
      <trkpt lat="38.514451666666666" lon="-1.0249466666666667">
        <ele>1859.5000000000025</ele>
        <time>2013-11-09T14:58:53.98</time>
      </trkpt>
      <trkpt lat="38.51450166666667" lon="-1.0248416666666667">
        <ele>1858.9000000000026</ele>
        <time>2013-11-09T14:58:54.98</time>
      </trkpt>
      <trkpt lat="38.51455166666667" lon="-1.0247316666666666">
        <ele>1858.3000000000027</ele>
        <time>2013-11-09T14:58:55.97</time>
      </trkpt>
      <trkpt lat="38.514608333333335" lon="-1.0246133333333334">
        <ele>1858.0000000000027</ele>
        <time>2013-11-09T14:58:56.97</time>
      </trkpt>
      <trkpt lat="38.51466833333333" lon="-1.0244816666666667">
        <ele>1857.7000000000028</ele>
        <time>2013-11-09T14:58:57.97</time>
      </trkpt>
      <trkpt lat="38.51472666666667" lon="-1.024355">
        <ele>1857.5000000000027</ele>
        <time>2013-11-09T14:58:58.97</time>
      </trkpt>
      <trkpt lat="38.51478" lon="-1.0242383333333334">
        <ele>1857.5000000000027</ele>
        <time>2013-11-09T14:58:59.97</time>
      </trkpt>
      <trkpt lat="38.514826666666664" lon="-1.02413">
        <ele>1857.2000000000028</ele>
        <time>2013-11-09T14:59:00.94</time>
      </trkpt>
      <trkpt lat="38.514875" lon="-1.0240183333333333">
        <ele>1857.0000000000027</ele>
        <time>2013-11-09T14:59:01.99</time>
      </trkpt>
      <trkpt lat="38.514921666666666" lon="-1.02392">
        <ele>1856.9000000000028</ele>
        <time>2013-11-09T14:59:02.97</time>
      </trkpt>
      <trkpt lat="38.51497833333333" lon="-1.0238166666666666">
        <ele>1856.7000000000028</ele>
        <time>2013-11-09T14:59:03.97</time>
      </trkpt>
      <trkpt lat="38.51504" lon="-1.023705">
        <ele>1856.5000000000027</ele>
        <time>2013-11-09T14:59:04.97</time>
      </trkpt>
      <trkpt lat="38.515098333333334" lon="-1.0235866666666666">
        <ele>1856.4000000000028</ele>
        <time>2013-11-09T14:59:05.97</time>
      </trkpt>
      <trkpt lat="38.515146666666666" lon="-1.02348">
        <ele>1856.2000000000028</ele>
        <time>2013-11-09T14:59:06.98</time>
      </trkpt>
      <trkpt lat="38.51519" lon="-1.0233733333333332">
        <ele>1855.8000000000027</ele>
        <time>2013-11-09T14:59:08.89</time>
      </trkpt>
      <trkpt lat="38.51523" lon="-1.0232616666666667">
        <ele>1855.4000000000026</ele>
        <time>2013-11-09T14:59:08.97</time>
      </trkpt>
      <trkpt lat="38.51526666666667" lon="-1.0231583333333334">
        <ele>1855.3000000000027</ele>
        <time>2013-11-09T14:59:09.97</time>
      </trkpt>
      <trkpt lat="38.515305" lon="-1.0230433333333333">
        <ele>1855.3000000000027</ele>
        <time>2013-11-09T14:59:10.97</time>
      </trkpt>
      <trkpt lat="38.515346666666666" lon="-1.0229233333333334">
        <ele>1855.4000000000026</ele>
        <time>2013-11-09T14:59:11.93</time>
      </trkpt>
      <trkpt lat="38.51539" lon="-1.0227916666666668">
        <ele>1855.1000000000026</ele>
        <time>2013-11-09T14:59:13.26</time>
      </trkpt>
      <trkpt lat="38.515431666666665" lon="-1.0226633333333333">
        <ele>1854.9000000000026</ele>
        <time>2013-11-09T14:59:14.9</time>
      </trkpt>
      <trkpt lat="38.51547333333333" lon="-1.022545">
        <ele>1854.7000000000025</ele>
        <time>2013-11-09T14:59:14.98</time>
      </trkpt>
      <trkpt lat="38.51551833333333" lon="-1.0224233333333332">
        <ele>1854.3000000000025</ele>
        <time>2013-11-09T14:59:15.91</time>
      </trkpt>
      <trkpt lat="38.51555833333333" lon="-1.0223016666666667">
        <ele>1853.7000000000025</ele>
        <time>2013-11-09T14:59:16.92</time>
      </trkpt>
      <trkpt lat="38.515591666666666" lon="-1.02218">
        <ele>1853.1000000000026</ele>
        <time>2013-11-09T14:59:17.98</time>
      </trkpt>
      <trkpt lat="38.51563" lon="-1.0220566666666666">
        <ele>1852.4000000000026</ele>
        <time>2013-11-09T14:59:19.26</time>
      </trkpt>
      <trkpt lat="38.51566833333333" lon="-1.0219316666666667">
        <ele>1851.6000000000026</ele>
        <time>2013-11-09T14:59:19.97</time>
      </trkpt>
      <trkpt lat="38.51570666666667" lon="-1.0218033333333334">
        <ele>1850.6000000000026</ele>
        <time>2013-11-09T14:59:20.97</time>
      </trkpt>
      <trkpt lat="38.515753333333336" lon="-1.0216716666666668">
        <ele>1849.6000000000026</ele>
        <time>2013-11-09T14:59:21.93</time>
      </trkpt>
      <trkpt lat="38.5158" lon="-1.0215416666666666">
        <ele>1848.7000000000025</ele>
        <time>2013-11-09T14:59:22.90</time>
      </trkpt>
      <trkpt lat="38.515843333333336" lon="-1.021405">
        <ele>1847.7000000000025</ele>
        <time>2013-11-09T14:59:23.97</time>
      </trkpt>
      <trkpt lat="38.51588666666667" lon="-1.02128">
        <ele>1846.7000000000025</ele>
        <time>2013-11-09T14:59:24.94</time>
      </trkpt>
      <trkpt lat="38.515935" lon="-1.02114">
        <ele>1845.8000000000025</ele>
        <time>2013-11-09T14:59:25.97</time>
      </trkpt>
      <trkpt lat="38.51598166666667" lon="-1.0210066666666666">
        <ele>1845.3000000000025</ele>
        <time>2013-11-09T14:59:26.97</time>
      </trkpt>
      <trkpt lat="38.51602666666667" lon="-1.020865">
        <ele>1844.6000000000024</ele>
        <time>2013-11-09T14:59:27.94</time>
      </trkpt>
      <trkpt lat="38.51607166666667" lon="-1.02073">
        <ele>1844.0000000000025</ele>
        <time>2013-11-09T14:59:29.9</time>
      </trkpt>
      <trkpt lat="38.51611666666667" lon="-1.020585">
        <ele>1843.2000000000025</ele>
        <time>2013-11-09T14:59:29.97</time>
      </trkpt>
      <trkpt lat="38.51616166666667" lon="-1.0204383333333333">
        <ele>1842.5000000000025</ele>
        <time>2013-11-09T14:59:30.97</time>
      </trkpt>
      <trkpt lat="38.516205" lon="-1.0202916666666666">
        <ele>1841.8000000000025</ele>
        <time>2013-11-09T14:59:31.99</time>
      </trkpt>
      <trkpt lat="38.516245" lon="-1.0201483333333334">
        <ele>1841.2000000000025</ele>
        <time>2013-11-09T14:59:32.99</time>
      </trkpt>
      <trkpt lat="38.516285" lon="-1.0200066666666667">
        <ele>1840.9000000000026</ele>
        <time>2013-11-09T14:59:33.98</time>
      </trkpt>
      <trkpt lat="38.51632" lon="-1.019865">
        <ele>1840.5000000000025</ele>
        <time>2013-11-09T14:59:34.97</time>
      </trkpt>
      <trkpt lat="38.516355" lon="-1.0197233333333333">
        <ele>1840.0000000000025</ele>
        <time>2013-11-09T14:59:35.97</time>
      </trkpt>
      <trkpt lat="38.51639" lon="-1.0195783333333333">
        <ele>1839.2000000000025</ele>
        <time>2013-11-09T14:59:36.95</time>
      </trkpt>
      <trkpt lat="38.51642666666667" lon="-1.0194416666666666">
        <ele>1838.6000000000026</ele>
        <time>2013-11-09T14:59:37.98</time>
      </trkpt>
      <trkpt lat="38.516463333333334" lon="-1.0193066666666666">
        <ele>1838.1000000000026</ele>
        <time>2013-11-09T14:59:38.97</time>
      </trkpt>
      <trkpt lat="38.51650166666667" lon="-1.01918">
        <ele>1837.4000000000026</ele>
        <time>2013-11-09T14:59:39.98</time>
      </trkpt>
      <trkpt lat="38.51654" lon="-1.0190483333333333">
        <ele>1836.6000000000026</ele>
        <time>2013-11-09T14:59:40.98</time>
      </trkpt>
      <trkpt lat="38.51658166666667" lon="-1.0189133333333333">
        <ele>1835.6000000000026</ele>
        <time>2013-11-09T14:59:41.93</time>
      </trkpt>
      <trkpt lat="38.51663166666667" lon="-1.0187716666666666">
        <ele>1834.9000000000026</ele>
        <time>2013-11-09T14:59:42.97</time>
      </trkpt>
      <trkpt lat="38.516685" lon="-1.0186366666666666">
        <ele>1834.1000000000026</ele>
        <time>2013-11-09T14:59:43.97</time>
      </trkpt>
      <trkpt lat="38.51674333333333" lon="-1.0185066666666667">
        <ele>1833.2000000000025</ele>
        <time>2013-11-09T14:59:44.98</time>
      </trkpt>
      <trkpt lat="38.516798333333334" lon="-1.0183816666666667">
        <ele>1832.3000000000025</ele>
        <time>2013-11-09T14:59:45.97</time>
      </trkpt>
      <trkpt lat="38.516855" lon="-1.0182516666666666">
        <ele>1831.3000000000025</ele>
        <time>2013-11-09T14:59:46.93</time>
      </trkpt>
      <trkpt lat="38.516905" lon="-1.018135">
        <ele>1830.3000000000025</ele>
        <time>2013-11-09T14:59:47.98</time>
      </trkpt>
      <trkpt lat="38.516956666666665" lon="-1.0180233333333333">
        <ele>1829.3000000000025</ele>
        <time>2013-11-09T14:59:48.93</time>
      </trkpt>
      <trkpt lat="38.51701666666666" lon="-1.0178966666666667">
        <ele>1828.4000000000024</ele>
        <time>2013-11-09T14:59:49.97</time>
      </trkpt>
      <trkpt lat="38.517073333333336" lon="-1.0177716666666667">
        <ele>1827.4000000000024</ele>
        <time>2013-11-09T14:59:50.97</time>
      </trkpt>
      <trkpt lat="38.517131666666664" lon="-1.0176516666666666">
        <ele>1827.0000000000023</ele>
        <time>2013-11-09T14:59:51.97</time>
      </trkpt>
      <trkpt lat="38.51719166666667" lon="-1.017525">
        <ele>1826.4000000000024</ele>
        <time>2013-11-09T14:59:52.97</time>
      </trkpt>
      <trkpt lat="38.517248333333335" lon="-1.0174016666666668">
        <ele>1826.1000000000024</ele>
        <time>2013-11-09T14:59:53.98</time>
      </trkpt>
      <trkpt lat="38.51730666666667" lon="-1.0172666666666668">
        <ele>1825.6000000000024</ele>
        <time>2013-11-09T14:59:54.92</time>
      </trkpt>
      <trkpt lat="38.51737166666667" lon="-1.0171066666666666">
        <ele>1825.3000000000025</ele>
        <time>2013-11-09T14:59:55.97</time>
      </trkpt>
      <trkpt lat="38.51743" lon="-1.0169666666666666">
        <ele>1825.6000000000024</ele>
        <time>2013-11-09T14:59:56.97</time>
      </trkpt>
      <trkpt lat="38.51748166666667" lon="-1.01684">
        <ele>1826.1000000000024</ele>
        <time>2013-11-09T14:59:57.97</time>
      </trkpt>
      <trkpt lat="38.51752833333333" lon="-1.0167233333333334">
        <ele>1826.5000000000025</ele>
        <time>2013-11-09T14:59:58.91</time>
      </trkpt>
      <trkpt lat="38.517583333333334" lon="-1.016585">
        <ele>1826.8000000000025</ele>
        <time>2013-11-09T14:59:59.97</time>
      </trkpt>
      <trkpt lat="38.517635" lon="-1.0164383333333333">
        <ele>1826.9000000000024</ele>
        <time>2013-11-09T15:00:00.97</time>
      </trkpt>
      <trkpt lat="38.51769" lon="-1.0162866666666666">
        <ele>1826.9000000000024</ele>
        <time>2013-11-09T15:00:01.98</time>
      </trkpt>
      <trkpt lat="38.51774" lon="-1.01615">
        <ele>1826.7000000000023</ele>
        <time>2013-11-09T15:00:02.97</time>
      </trkpt>
      <trkpt lat="38.51779166666667" lon="-1.0160216666666666">
        <ele>1826.5000000000023</ele>
        <time>2013-11-09T15:00:03.97</time>
      </trkpt>
      <trkpt lat="38.517845" lon="-1.0159033333333334">
        <ele>1826.3000000000022</ele>
        <time>2013-11-09T15:00:05.9</time>
      </trkpt>
      <trkpt lat="38.517895" lon="-1.0157866666666666">
        <ele>1826.0000000000023</ele>
        <time>2013-11-09T15:00:05.97</time>
      </trkpt>
      <trkpt lat="38.51794666666667" lon="-1.015655">
        <ele>1825.4000000000024</ele>
        <time>2013-11-09T15:00:06.97</time>
      </trkpt>
      <trkpt lat="38.51799666666667" lon="-1.01551">
        <ele>1824.5000000000023</ele>
        <time>2013-11-09T15:00:07.96</time>
      </trkpt>
      <trkpt lat="38.51804666666666" lon="-1.0153566666666667">
        <ele>1823.5000000000023</ele>
        <time>2013-11-09T15:00:08.97</time>
      </trkpt>
      <trkpt lat="38.5181" lon="-1.0151933333333334">
        <ele>1822.5000000000023</ele>
        <time>2013-11-09T15:00:09.97</time>
      </trkpt>
      <trkpt lat="38.51814666666667" lon="-1.0150383333333333">
        <ele>1821.5000000000023</ele>
        <time>2013-11-09T15:00:11.69</time>
      </trkpt>
      <trkpt lat="38.51819166666667" lon="-1.0148966666666666">
        <ele>1820.7000000000023</ele>
        <time>2013-11-09T15:00:12.29</time>
      </trkpt>
      <trkpt lat="38.51824333333333" lon="-1.01475">
        <ele>1819.9000000000024</ele>
        <time>2013-11-09T15:00:12.98</time>
      </trkpt>
      <trkpt lat="38.51828833333333" lon="-1.01462">
        <ele>1819.2000000000023</ele>
        <time>2013-11-09T15:00:13.93</time>
      </trkpt>
      <trkpt lat="38.51834" lon="-1.0144683333333333">
        <ele>1818.7000000000023</ele>
        <time>2013-11-09T15:00:14.98</time>
      </trkpt>
      <trkpt lat="38.518393333333336" lon="-1.0143266666666666">
        <ele>1818.1000000000024</ele>
        <time>2013-11-09T15:00:15.97</time>
      </trkpt>
      <trkpt lat="38.51844166666667" lon="-1.0142083333333334">
        <ele>1817.8000000000025</ele>
        <time>2013-11-09T15:00:17.39</time>
      </trkpt>
      <trkpt lat="38.51849" lon="-1.01409">
        <ele>1817.3000000000025</ele>
        <time>2013-11-09T15:00:17.97</time>
      </trkpt>
      <trkpt lat="38.518541666666664" lon="-1.0139766666666667">
        <ele>1816.7000000000025</ele>
        <time>2013-11-09T15:00:18.97</time>
      </trkpt>
      <trkpt lat="38.51860166666667" lon="-1.0138483333333332">
        <ele>1816.2000000000025</ele>
        <time>2013-11-09T15:00:19.97</time>
      </trkpt>
      <trkpt lat="38.518663333333336" lon="-1.0137283333333333">
        <ele>1815.6000000000026</ele>
        <time>2013-11-09T15:00:20.97</time>
      </trkpt>
      <trkpt lat="38.51873166666667" lon="-1.0135983333333334">
        <ele>1815.2000000000025</ele>
        <time>2013-11-09T15:00:21.97</time>
      </trkpt>
      <trkpt lat="38.5188" lon="-1.0134666666666667">
        <ele>1814.9000000000026</ele>
        <time>2013-11-09T15:00:22.96</time>
      </trkpt>
      <trkpt lat="38.518855" lon="-1.0133516666666667">
        <ele>1814.5000000000025</ele>
        <time>2013-11-09T15:00:23.97</time>
      </trkpt>
      <trkpt lat="38.518895" lon="-1.0132566666666667">
        <ele>1814.1000000000024</ele>
        <time>2013-11-09T15:00:24.97</time>
      </trkpt>
      <trkpt lat="38.51893166666667" lon="-1.0131566666666667">
        <ele>1813.6000000000024</ele>
        <time>2013-11-09T15:00:25.98</time>
      </trkpt>
      <trkpt lat="38.518975" lon="-1.0130333333333332">
        <ele>1812.8000000000025</ele>
        <time>2013-11-09T15:00:26.98</time>
      </trkpt>
      <trkpt lat="38.51901" lon="-1.0129266666666668">
        <ele>1811.9000000000024</ele>
        <time>2013-11-09T15:00:27.97</time>
      </trkpt>
      <trkpt lat="38.519065" lon="-1.01277">
        <ele>1810.7000000000023</ele>
        <time>2013-11-09T15:00:28.97</time>
      </trkpt>
      <trkpt lat="38.51911666666667" lon="-1.0126216666666668">
        <ele>1809.4000000000024</ele>
        <time>2013-11-09T15:00:29.97</time>
      </trkpt>
      <trkpt lat="38.51916833333333" lon="-1.0124783333333334">
        <ele>1808.2000000000023</ele>
        <time>2013-11-09T15:00:30.97</time>
      </trkpt>
      <trkpt lat="38.519215" lon="-1.0123533333333334">
        <ele>1806.2000000000023</ele>
        <time>2013-11-09T15:00:31.97</time>
      </trkpt>
      <trkpt lat="38.519261666666665" lon="-1.0122233333333333">
        <ele>1804.6000000000024</ele>
        <time>2013-11-09T15:00:32.97</time>
      </trkpt>
      <trkpt lat="38.519313333333336" lon="-1.01208">
        <ele>1802.8000000000025</ele>
        <time>2013-11-09T15:00:33.97</time>
      </trkpt>
      <trkpt lat="38.51936666666667" lon="-1.0119416666666667">
        <ele>1801.1000000000024</ele>
        <time>2013-11-09T15:00:34.97</time>
      </trkpt>
      <trkpt lat="38.519421666666666" lon="-1.011815">
        <ele>1799.4000000000024</ele>
        <time>2013-11-09T15:00:35.98</time>
      </trkpt>
      <trkpt lat="38.51947833333333" lon="-1.0116866666666666">
        <ele>1798.0000000000023</ele>
        <time>2013-11-09T15:00:36.97</time>
      </trkpt>
      <trkpt lat="38.519535" lon="-1.011565">
        <ele>1796.4000000000024</ele>
        <time>2013-11-09T15:00:37.93</time>
      </trkpt>
      <trkpt lat="38.51958666666667" lon="-1.0114416666666666">
        <ele>1794.5000000000023</ele>
        <time>2013-11-09T15:00:38.97</time>
      </trkpt>
      <trkpt lat="38.51963166666667" lon="-1.0113233333333334">
        <ele>1792.4000000000024</ele>
        <time>2013-11-09T15:00:39.98</time>
      </trkpt>
      <trkpt lat="38.519675" lon="-1.0112116666666666">
        <ele>1790.1000000000024</ele>
        <time>2013-11-09T15:00:40.93</time>
      </trkpt>
      <trkpt lat="38.51972833333333" lon="-1.0110983333333334">
        <ele>1787.7000000000023</ele>
        <time>2013-11-09T15:00:41.97</time>
      </trkpt>
      <trkpt lat="38.51978666666667" lon="-1.01098">
        <ele>1785.6000000000024</ele>
        <time>2013-11-09T15:00:43.59</time>
      </trkpt>
      <trkpt lat="38.519843333333334" lon="-1.0108666666666666">
        <ele>1783.6000000000024</ele>
        <time>2013-11-09T15:00:43.97</time>
      </trkpt>
      <trkpt lat="38.51991" lon="-1.0107433333333333">
        <ele>1781.7000000000023</ele>
        <time>2013-11-09T15:00:44.93</time>
      </trkpt>
      <trkpt lat="38.519976666666665" lon="-1.01061">
        <ele>1779.9000000000024</ele>
        <time>2013-11-09T15:00:45.94</time>
      </trkpt>
      <trkpt lat="38.520041666666664" lon="-1.010475">
        <ele>1777.9000000000024</ele>
        <time>2013-11-09T15:00:46.98</time>
      </trkpt>
      <trkpt lat="38.52010666666666" lon="-1.0103433333333334">
        <ele>1775.9000000000024</ele>
        <time>2013-11-09T15:00:47.97</time>
      </trkpt>
      <trkpt lat="38.52017333333333" lon="-1.0102183333333334">
        <ele>1773.7000000000023</ele>
        <time>2013-11-09T15:00:48.97</time>
      </trkpt>
      <trkpt lat="38.520241666666664" lon="-1.0100916666666666">
        <ele>1771.4000000000024</ele>
        <time>2013-11-09T15:00:49.97</time>
      </trkpt>
      <trkpt lat="38.52030833333333" lon="-1.009955">
        <ele>1769.2000000000023</ele>
        <time>2013-11-09T15:00:50.98</time>
      </trkpt>
      <trkpt lat="38.52037333333333" lon="-1.0098166666666666">
        <ele>1767.2000000000023</ele>
        <time>2013-11-09T15:00:52.39</time>
      </trkpt>
      <trkpt lat="38.52043" lon="-1.0096883333333333">
        <ele>1764.9000000000024</ele>
        <time>2013-11-09T15:00:52.97</time>
      </trkpt>
      <trkpt lat="38.52047833333334" lon="-1.00957">
        <ele>1763.0000000000023</ele>
        <time>2013-11-09T15:00:53.97</time>
      </trkpt>
      <trkpt lat="38.52053166666666" lon="-1.0094433333333332">
        <ele>1760.9000000000024</ele>
        <time>2013-11-09T15:00:54.97</time>
      </trkpt>
      <trkpt lat="38.520583333333335" lon="-1.009305">
        <ele>1758.7000000000023</ele>
        <time>2013-11-09T15:00:55.98</time>
      </trkpt>
      <trkpt lat="38.520628333333335" lon="-1.00918">
        <ele>1756.6000000000024</ele>
        <time>2013-11-09T15:00:56.99</time>
      </trkpt>
      <trkpt lat="38.520678333333336" lon="-1.0090383333333333">
        <ele>1754.5000000000025</ele>
        <time>2013-11-09T15:00:57.91</time>
      </trkpt>
      <trkpt lat="38.52073333333333" lon="-1.0088833333333334">
        <ele>1752.5000000000025</ele>
        <time>2013-11-09T15:00:58.97</time>
      </trkpt>
      <trkpt lat="38.520783333333334" lon="-1.0087383333333333">
        <ele>1751.1000000000024</ele>
        <time>2013-11-09T15:00:59.97</time>
      </trkpt>
      <trkpt lat="38.520831666666666" lon="-1.0085933333333332">
        <ele>1749.9000000000024</ele>
        <time>2013-11-09T15:01:00.99</time>
      </trkpt>
      <trkpt lat="38.52088666666667" lon="-1.0084466666666667">
        <ele>1748.4000000000024</ele>
        <time>2013-11-09T15:01:01.97</time>
      </trkpt>
      <trkpt lat="38.520943333333335" lon="-1.0083033333333333">
        <ele>1746.7000000000023</ele>
        <time>2013-11-09T15:01:02.94</time>
      </trkpt>
      <trkpt lat="38.521005" lon="-1.0081533333333332">
        <ele>1745.2000000000023</ele>
        <time>2013-11-09T15:01:03.99</time>
      </trkpt>
      <trkpt lat="38.521065" lon="-1.0080116666666668">
        <ele>1743.9000000000024</ele>
        <time>2013-11-09T15:01:04.97</time>
      </trkpt>
      <trkpt lat="38.52112" lon="-1.007885">
        <ele>1742.6000000000024</ele>
        <time>2013-11-09T15:01:05.98</time>
      </trkpt>
      <trkpt lat="38.521175" lon="-1.0077633333333333">
        <ele>1741.3000000000025</ele>
        <time>2013-11-09T15:01:06.97</time>
      </trkpt>
      <trkpt lat="38.521225" lon="-1.0076516666666666">
        <ele>1740.0000000000025</ele>
        <time>2013-11-09T15:01:07.98</time>
      </trkpt>
      <trkpt lat="38.521276666666665" lon="-1.0075366666666667">
        <ele>1738.8000000000025</ele>
        <time>2013-11-09T15:01:08.97</time>
      </trkpt>
      <trkpt lat="38.52133333333333" lon="-1.0074033333333334">
        <ele>1737.4000000000024</ele>
        <time>2013-11-09T15:01:09.94</time>
      </trkpt>
      <trkpt lat="38.52139" lon="-1.00727">
        <ele>1736.0000000000023</ele>
        <time>2013-11-09T15:01:11.89</time>
      </trkpt>
      <trkpt lat="38.521445" lon="-1.00715">
        <ele>1735.1000000000022</ele>
        <time>2013-11-09T15:01:12.59</time>
      </trkpt>
      <trkpt lat="38.521501666666666" lon="-1.0070283333333334">
        <ele>1734.0000000000023</ele>
        <time>2013-11-09T15:01:12.98</time>
      </trkpt>
      <trkpt lat="38.52155833333333" lon="-1.0069033333333333">
        <ele>1733.0000000000023</ele>
        <time>2013-11-09T15:01:13.97</time>
      </trkpt>
      <trkpt lat="38.521615" lon="-1.0067733333333333">
        <ele>1732.0000000000023</ele>
        <time>2013-11-09T15:01:14.98</time>
      </trkpt>
      <trkpt lat="38.52166833333333" lon="-1.0066316666666666">
        <ele>1731.1000000000022</ele>
        <time>2013-11-09T15:01:15.98</time>
      </trkpt>
      <trkpt lat="38.521726666666666" lon="-1.00648">
        <ele>1730.200000000002</ele>
        <time>2013-11-09T15:01:16.98</time>
      </trkpt>
      <trkpt lat="38.521773333333336" lon="-1.006355">
        <ele>1729.500000000002</ele>
        <time>2013-11-09T15:01:17.93</time>
      </trkpt>
      <trkpt lat="38.521825" lon="-1.00622">
        <ele>1728.500000000002</ele>
        <time>2013-11-09T15:01:18.97</time>
      </trkpt>
      <trkpt lat="38.52187166666667" lon="-1.0061033333333333">
        <ele>1727.700000000002</ele>
        <time>2013-11-09T15:01:19.97</time>
      </trkpt>
      <trkpt lat="38.52192333333333" lon="-1.005975">
        <ele>1726.700000000002</ele>
        <time>2013-11-09T15:01:20.98</time>
      </trkpt>
      <trkpt lat="38.52198" lon="-1.0058433333333334">
        <ele>1725.6000000000022</ele>
        <time>2013-11-09T15:01:21.98</time>
      </trkpt>
      <trkpt lat="38.522038333333334" lon="-1.0057116666666666">
        <ele>1724.6000000000022</ele>
        <time>2013-11-09T15:01:22.97</time>
      </trkpt>
      <trkpt lat="38.5221" lon="-1.0055733333333334">
        <ele>1723.0000000000023</ele>
        <time>2013-11-09T15:01:23.98</time>
      </trkpt>
      <trkpt lat="38.52216166666667" lon="-1.0054400000000001">
        <ele>1721.3000000000022</ele>
        <time>2013-11-09T15:01:24.97</time>
      </trkpt>
      <trkpt lat="38.522216666666665" lon="-1.0053066666666666">
        <ele>1719.7000000000023</ele>
        <time>2013-11-09T15:01:25.97</time>
      </trkpt>
      <trkpt lat="38.52227166666667" lon="-1.00517">
        <ele>1718.4000000000024</ele>
        <time>2013-11-09T15:01:26.98</time>
      </trkpt>
      <trkpt lat="38.522326666666665" lon="-1.005035">
        <ele>1717.1000000000024</ele>
        <time>2013-11-09T15:01:27.97</time>
      </trkpt>
      <trkpt lat="38.52238333333333" lon="-1.0049016666666666">
        <ele>1716.1000000000024</ele>
        <time>2013-11-09T15:01:28.98</time>
      </trkpt>
      <trkpt lat="38.522438333333334" lon="-1.0047716666666666">
        <ele>1715.3000000000025</ele>
        <time>2013-11-09T15:01:29.98</time>
      </trkpt>
      <trkpt lat="38.522485" lon="-1.00466">
        <ele>1714.7000000000025</ele>
        <time>2013-11-09T15:01:30.94</time>
      </trkpt>
      <trkpt lat="38.52254166666667" lon="-1.0045316666666666">
        <ele>1714.1000000000026</ele>
        <time>2013-11-09T15:01:31.97</time>
      </trkpt>
      <trkpt lat="38.522598333333335" lon="-1.0044033333333333">
        <ele>1713.4000000000026</ele>
        <time>2013-11-09T15:01:33.9</time>
      </trkpt>
      <trkpt lat="38.52265666666667" lon="-1.00427">
        <ele>1712.6000000000026</ele>
        <time>2013-11-09T15:01:33.98</time>
      </trkpt>
      <trkpt lat="38.52271833333333" lon="-1.0041316666666666">
        <ele>1711.6000000000026</ele>
        <time>2013-11-09T15:01:34.98</time>
      </trkpt>
      <trkpt lat="38.52277333333333" lon="-1.0040116666666667">
        <ele>1710.7000000000025</ele>
        <time>2013-11-09T15:01:35.98</time>
      </trkpt>
      <trkpt lat="38.52282666666667" lon="-1.0038983333333333">
        <ele>1710.0000000000025</ele>
        <time>2013-11-09T15:01:36.97</time>
      </trkpt>
      <trkpt lat="38.52288" lon="-1.00378">
        <ele>1709.3000000000025</ele>
        <time>2013-11-09T15:01:37.98</time>
      </trkpt>
      <trkpt lat="38.522936666666666" lon="-1.00365">
        <ele>1708.4000000000024</ele>
        <time>2013-11-09T15:01:38.97</time>
      </trkpt>
      <trkpt lat="38.52298833333333" lon="-1.0035333333333334">
        <ele>1707.7000000000023</ele>
        <time>2013-11-09T15:01:39.98</time>
      </trkpt>
      <trkpt lat="38.52304" lon="-1.0034133333333333">
        <ele>1707.1000000000024</ele>
        <time>2013-11-09T15:01:40.98</time>
      </trkpt>
      <trkpt lat="38.523095" lon="-1.0032983333333334">
        <ele>1706.5000000000025</ele>
        <time>2013-11-09T15:01:41.97</time>
      </trkpt>
      <trkpt lat="38.523151666666664" lon="-1.0031783333333333">
        <ele>1705.7000000000025</ele>
        <time>2013-11-09T15:01:42.97</time>
      </trkpt>
      <trkpt lat="38.52320666666667" lon="-1.0030566666666667">
        <ele>1704.8000000000025</ele>
        <time>2013-11-09T15:01:43.97</time>
      </trkpt>
      <trkpt lat="38.523265" lon="-1.00294">
        <ele>1704.0000000000025</ele>
        <time>2013-11-09T15:01:44.99</time>
      </trkpt>
      <trkpt lat="38.52332333333333" lon="-1.0028216666666667">
        <ele>1703.3000000000025</ele>
        <time>2013-11-09T15:01:45.97</time>
      </trkpt>
      <trkpt lat="38.52338" lon="-1.00271">
        <ele>1702.7000000000025</ele>
        <time>2013-11-09T15:01:46.97</time>
      </trkpt>
      <trkpt lat="38.523435" lon="-1.002595">
        <ele>1702.1000000000026</ele>
        <time>2013-11-09T15:01:47.97</time>
      </trkpt>
      <trkpt lat="38.52348666666666" lon="-1.00248">
        <ele>1701.5000000000027</ele>
        <time>2013-11-09T15:01:48.97</time>
      </trkpt>
      <trkpt lat="38.523538333333335" lon="-1.0023633333333333">
        <ele>1701.1000000000026</ele>
        <time>2013-11-09T15:01:49.98</time>
      </trkpt>
      <trkpt lat="38.523588333333336" lon="-1.002245">
        <ele>1700.7000000000025</ele>
        <time>2013-11-09T15:01:50.97</time>
      </trkpt>
      <trkpt lat="38.52363666666667" lon="-1.0021333333333333">
        <ele>1700.0000000000025</ele>
        <time>2013-11-09T15:01:51.96</time>
      </trkpt>
      <trkpt lat="38.52368666666667" lon="-1.002025">
        <ele>1699.3000000000025</ele>
        <time>2013-11-09T15:01:52.97</time>
      </trkpt>
      <trkpt lat="38.523738333333334" lon="-1.0019116666666668">
        <ele>1698.4000000000024</ele>
        <time>2013-11-09T15:01:53.98</time>
      </trkpt>
      <trkpt lat="38.52379166666667" lon="-1.0018016666666667">
        <ele>1697.5000000000023</ele>
        <time>2013-11-09T15:01:54.99</time>
      </trkpt>
      <trkpt lat="38.523845" lon="-1.001695">
        <ele>1696.6000000000022</ele>
        <time>2013-11-09T15:01:55.97</time>
      </trkpt>
      <trkpt lat="38.523895" lon="-1.0016">
        <ele>1695.700000000002</ele>
        <time>2013-11-09T15:01:56.98</time>
      </trkpt>
      <trkpt lat="38.523945" lon="-1.0015083333333332">
        <ele>1694.800000000002</ele>
        <time>2013-11-09T15:01:57.97</time>
      </trkpt>
      <trkpt lat="38.52399166666667" lon="-1.0014233333333333">
        <ele>1694.300000000002</ele>
        <time>2013-11-09T15:01:58.97</time>
      </trkpt>
      <trkpt lat="38.52404333333333" lon="-1.001325">
        <ele>1694.000000000002</ele>
        <time>2013-11-09T15:01:59.99</time>
      </trkpt>
      <trkpt lat="38.52409" lon="-1.0012266666666667">
        <ele>1693.4000000000021</ele>
        <time>2013-11-09T15:02:00.97</time>
      </trkpt>
      <trkpt lat="38.52413833333333" lon="-1.0011216666666667">
        <ele>1692.6000000000022</ele>
        <time>2013-11-09T15:02:01.98</time>
      </trkpt>
      <trkpt lat="38.52417666666667" lon="-1.0010283333333334">
        <ele>1691.700000000002</ele>
        <time>2013-11-09T15:02:02.97</time>
      </trkpt>
      <trkpt lat="38.524215" lon="-1.000945">
        <ele>1690.700000000002</ele>
        <time>2013-11-09T15:02:03.97</time>
      </trkpt>
      <trkpt lat="38.524253333333334" lon="-1.0008633333333334">
        <ele>1690.200000000002</ele>
        <time>2013-11-09T15:02:04.97</time>
      </trkpt>
      <trkpt lat="38.524301666666666" lon="-1.0007666666666666">
        <ele>1689.800000000002</ele>
        <time>2013-11-09T15:02:06.9</time>
      </trkpt>
      <trkpt lat="38.52435666666667" lon="-1.0006683333333333">
        <ele>1689.700000000002</ele>
        <time>2013-11-09T15:02:06.93</time>
      </trkpt>
      <trkpt lat="38.524406666666664" lon="-1.000575">
        <ele>1690.000000000002</ele>
        <time>2013-11-09T15:02:07.97</time>
      </trkpt>
      <trkpt lat="38.52444833333333" lon="-1.000495">
        <ele>1690.500000000002</ele>
        <time>2013-11-09T15:02:08.97</time>
      </trkpt>
      <trkpt lat="38.52448666666667" lon="-1.0004216666666668">
        <ele>1690.700000000002</ele>
        <time>2013-11-09T15:02:09.94</time>
      </trkpt>
      <trkpt lat="38.524525" lon="-1.0003483333333334">
        <ele>1690.700000000002</ele>
        <time>2013-11-09T15:02:10.98</time>
      </trkpt>
      <trkpt lat="38.52457" lon="-1.0002583333333332">
        <ele>1690.6000000000022</ele>
        <time>2013-11-09T15:02:11.94</time>
      </trkpt>
      <trkpt lat="38.524618333333336" lon="-1.00016">
        <ele>1690.200000000002</ele>
        <time>2013-11-09T15:02:12.97</time>
      </trkpt>
      <trkpt lat="38.52466833333333" lon="-1.0000583333333333">
        <ele>1689.500000000002</ele>
        <time>2013-11-09T15:02:13.98</time>
      </trkpt>
      <trkpt lat="38.524725" lon="-0.9999466666666667">
        <ele>1688.800000000002</ele>
        <time>2013-11-09T15:02:14.98</time>
      </trkpt>
      <trkpt lat="38.524773333333336" lon="-0.999845">
        <ele>1688.400000000002</ele>
        <time>2013-11-09T15:02:15.98</time>
      </trkpt>
      <trkpt lat="38.524816666666666" lon="-0.9997566666666666">
        <ele>1688.0000000000018</ele>
        <time>2013-11-09T15:02:17.14</time>
      </trkpt>
      <trkpt lat="38.52486" lon="-0.999665">
        <ele>1687.7000000000019</ele>
        <time>2013-11-09T15:02:17.98</time>
      </trkpt>
      <trkpt lat="38.52491" lon="-0.9995733333333334">
        <ele>1687.3000000000018</ele>
        <time>2013-11-09T15:02:18.94</time>
      </trkpt>
      <trkpt lat="38.52496333333333" lon="-0.9994816666666666">
        <ele>1686.9000000000017</ele>
        <time>2013-11-09T15:02:19.97</time>
      </trkpt>
      <trkpt lat="38.525018333333335" lon="-0.9993916666666667">
        <ele>1686.3000000000018</ele>
        <time>2013-11-09T15:02:20.98</time>
      </trkpt>
      <trkpt lat="38.52507833333333" lon="-0.999305">
        <ele>1685.7000000000019</ele>
        <time>2013-11-09T15:02:21.97</time>
      </trkpt>
      <trkpt lat="38.52514" lon="-0.99922">
        <ele>1685.0000000000018</ele>
        <time>2013-11-09T15:02:22.94</time>
      </trkpt>
      <trkpt lat="38.5252" lon="-0.9991383333333334">
        <ele>1684.400000000002</ele>
        <time>2013-11-09T15:02:23.97</time>
      </trkpt>
      <trkpt lat="38.525261666666665" lon="-0.999055">
        <ele>1683.5000000000018</ele>
        <time>2013-11-09T15:02:24.97</time>
      </trkpt>
      <trkpt lat="38.52532" lon="-0.9989716666666666">
        <ele>1682.5000000000018</ele>
        <time>2013-11-09T15:02:25.97</time>
      </trkpt>
      <trkpt lat="38.52538166666667" lon="-0.9988883333333334">
        <ele>1681.7000000000019</ele>
        <time>2013-11-09T15:02:26.97</time>
      </trkpt>
      <trkpt lat="38.525436666666664" lon="-0.998805">
        <ele>1680.7000000000019</ele>
        <time>2013-11-09T15:02:27.94</time>
      </trkpt>
      <trkpt lat="38.52549333333333" lon="-0.9987183333333333">
        <ele>1679.7000000000019</ele>
        <time>2013-11-09T15:02:28.92</time>
      </trkpt>
      <trkpt lat="38.52554833333333" lon="-0.9986233333333333">
        <ele>1678.600000000002</ele>
        <time>2013-11-09T15:02:29.98</time>
      </trkpt>
      <trkpt lat="38.52560666666667" lon="-0.9985233333333333">
        <ele>1677.300000000002</ele>
        <time>2013-11-09T15:02:30.97</time>
      </trkpt>
      <trkpt lat="38.525663333333334" lon="-0.9984233333333333">
        <ele>1676.000000000002</ele>
        <time>2013-11-09T15:02:31.97</time>
      </trkpt>
      <trkpt lat="38.52572166666667" lon="-0.99832">
        <ele>1674.700000000002</ele>
        <time>2013-11-09T15:02:32.97</time>
      </trkpt>
      <trkpt lat="38.52578333333334" lon="-0.99821">
        <ele>1673.500000000002</ele>
        <time>2013-11-09T15:02:33.94</time>
      </trkpt>
      <trkpt lat="38.52583666666666" lon="-0.9981000000000001">
        <ele>1672.4000000000021</ele>
        <time>2013-11-09T15:02:34.97</time>
      </trkpt>
      <trkpt lat="38.52588333333333" lon="-0.997995">
        <ele>1671.200000000002</ele>
        <time>2013-11-09T15:02:35.98</time>
      </trkpt>
      <trkpt lat="38.525933333333334" lon="-0.9978833333333333">
        <ele>1669.800000000002</ele>
        <time>2013-11-09T15:02:36.97</time>
      </trkpt>
      <trkpt lat="38.52598166666667" lon="-0.9977699999999999">
        <ele>1668.600000000002</ele>
        <time>2013-11-09T15:02:37.97</time>
      </trkpt>
      <trkpt lat="38.52601333333333" lon="-0.997665">
        <ele>1667.000000000002</ele>
        <time>2013-11-09T15:02:38.93</time>
      </trkpt>
      <trkpt lat="38.52605166666667" lon="-0.9975483333333333">
        <ele>1665.4000000000021</ele>
        <time>2013-11-09T15:02:39.97</time>
      </trkpt>
      <trkpt lat="38.52609833333333" lon="-0.9974216666666667">
        <ele>1664.000000000002</ele>
        <time>2013-11-09T15:02:40.97</time>
      </trkpt>
      <trkpt lat="38.52615" lon="-0.9972916666666667">
        <ele>1662.100000000002</ele>
        <time>2013-11-09T15:02:41.97</time>
      </trkpt>
      <trkpt lat="38.52619333333333" lon="-0.9971733333333332">
        <ele>1660.2000000000019</ele>
        <time>2013-11-09T15:02:42.98</time>
      </trkpt>
      <trkpt lat="38.52624" lon="-0.9970666666666667">
        <ele>1658.2000000000019</ele>
        <time>2013-11-09T15:02:43.94</time>
      </trkpt>
      <trkpt lat="38.526291666666665" lon="-0.996965">
        <ele>1656.3000000000018</ele>
        <time>2013-11-09T15:02:44.98</time>
      </trkpt>
      <trkpt lat="38.52635" lon="-0.9968666666666667">
        <ele>1654.7000000000019</ele>
        <time>2013-11-09T15:02:45.94</time>
      </trkpt>
      <trkpt lat="38.52641" lon="-0.9967633333333333">
        <ele>1653.3000000000018</ele>
        <time>2013-11-09T15:02:46.98</time>
      </trkpt>
      <trkpt lat="38.526465" lon="-0.9966550000000001">
        <ele>1652.4000000000017</ele>
        <time>2013-11-09T15:02:47.98</time>
      </trkpt>
      <trkpt lat="38.526518333333335" lon="-0.9965366666666667">
        <ele>1651.2000000000016</ele>
        <time>2013-11-09T15:02:48.93</time>
      </trkpt>
      <trkpt lat="38.52657333333333" lon="-0.9964216666666666">
        <ele>1650.1000000000017</ele>
        <time>2013-11-09T15:02:49.98</time>
      </trkpt>
      <trkpt lat="38.526626666666665" lon="-0.996315">
        <ele>1648.9000000000017</ele>
        <time>2013-11-09T15:02:50.97</time>
      </trkpt>
      <trkpt lat="38.52668" lon="-0.9962116666666667">
        <ele>1647.6000000000017</ele>
        <time>2013-11-09T15:02:51.97</time>
      </trkpt>
      <trkpt lat="38.52673333333333" lon="-0.9960983333333334">
        <ele>1646.2000000000016</ele>
        <time>2013-11-09T15:02:53.69</time>
      </trkpt>
      <trkpt lat="38.526788333333336" lon="-0.9959583333333334">
        <ele>1645.0000000000016</ele>
        <time>2013-11-09T15:02:53.93</time>
      </trkpt>
      <trkpt lat="38.526833333333336" lon="-0.9958083333333333">
        <ele>1643.9000000000017</ele>
        <time>2013-11-09T15:02:54.97</time>
      </trkpt>
      <trkpt lat="38.526873333333334" lon="-0.995655">
        <ele>1642.7000000000016</ele>
        <time>2013-11-09T15:02:55.98</time>
      </trkpt>
      <trkpt lat="38.52691333333333" lon="-0.9955033333333334">
        <ele>1641.9000000000017</ele>
        <time>2013-11-09T15:02:56.98</time>
      </trkpt>
      <trkpt lat="38.52695666666666" lon="-0.9953433333333332">
        <ele>1641.6000000000017</ele>
        <time>2013-11-09T15:02:57.97</time>
      </trkpt>
      <trkpt lat="38.52699333333333" lon="-0.9951816666666667">
        <ele>1641.0000000000018</ele>
        <time>2013-11-09T15:02:59.69</time>
      </trkpt>
      <trkpt lat="38.527" lon="-0.9950066666666667">
        <ele>1640.2000000000019</ele>
        <time>2013-11-09T15:02:59.98</time>
      </trkpt>
      <trkpt lat="38.52699666666667" lon="-0.9948416666666666">
        <ele>1639.2000000000019</ele>
        <time>2013-11-09T15:03:00.98</time>
      </trkpt>
      <trkpt lat="38.52696666666667" lon="-0.9946750000000001">
        <ele>1638.3000000000018</ele>
        <time>2013-11-09T15:03:01.98</time>
      </trkpt>
      <trkpt lat="38.526935" lon="-0.9945116666666666">
        <ele>1638.0000000000018</ele>
        <time>2013-11-09T15:03:02.99</time>
      </trkpt>
      <trkpt lat="38.52691166666666" lon="-0.994325">
        <ele>1637.900000000002</ele>
        <time>2013-11-09T15:03:03.98</time>
      </trkpt>
      <trkpt lat="38.526895" lon="-0.99413">
        <ele>1637.400000000002</ele>
        <time>2013-11-09T15:03:04.97</time>
      </trkpt>
      <trkpt lat="38.526895" lon="-0.9939300000000001">
        <ele>1636.7000000000019</ele>
        <time>2013-11-09T15:03:05.98</time>
      </trkpt>
      <trkpt lat="38.52690333333334" lon="-0.9937333333333334">
        <ele>1635.7000000000019</ele>
        <time>2013-11-09T15:03:06.98</time>
      </trkpt>
      <trkpt lat="38.52691166666666" lon="-0.9935483333333334">
        <ele>1634.900000000002</ele>
        <time>2013-11-09T15:03:07.98</time>
      </trkpt>
      <trkpt lat="38.526925" lon="-0.9934">
        <ele>1634.300000000002</ele>
        <time>2013-11-09T15:03:08.99</time>
      </trkpt>
      <trkpt lat="38.526955" lon="-0.9932733333333333">
        <ele>1633.900000000002</ele>
        <time>2013-11-09T15:03:09.98</time>
      </trkpt>
      <trkpt lat="38.52699166666667" lon="-0.9931483333333334">
        <ele>1633.400000000002</ele>
        <time>2013-11-09T15:03:10.98</time>
      </trkpt>
      <trkpt lat="38.527026666666664" lon="-0.9930183333333333">
        <ele>1632.5000000000018</ele>
        <time>2013-11-09T15:03:12.59</time>
      </trkpt>
      <trkpt lat="38.52706" lon="-0.9928833333333333">
        <ele>1631.6000000000017</ele>
        <time>2013-11-09T15:03:12.98</time>
      </trkpt>
      <trkpt lat="38.527096666666665" lon="-0.9927366666666667">
        <ele>1630.8000000000018</ele>
        <time>2013-11-09T15:03:13.98</time>
      </trkpt>
      <trkpt lat="38.52714" lon="-0.9925999999999999">
        <ele>1630.3000000000018</ele>
        <time>2013-11-09T15:03:14.98</time>
      </trkpt>
      <trkpt lat="38.527181666666664" lon="-0.9924733333333333">
        <ele>1629.7000000000019</ele>
        <time>2013-11-09T15:03:15.98</time>
      </trkpt>
      <trkpt lat="38.52722166666667" lon="-0.9923433333333332">
        <ele>1629.2000000000019</ele>
        <time>2013-11-09T15:03:17.69</time>
      </trkpt>
      <trkpt lat="38.527255" lon="-0.99222">
        <ele>1628.2000000000019</ele>
        <time>2013-11-09T15:03:17.98</time>
      </trkpt>
      <trkpt lat="38.52728833333333" lon="-0.9920916666666667">
        <ele>1626.900000000002</ele>
        <time>2013-11-09T15:03:18.98</time>
      </trkpt>
      <trkpt lat="38.527325" lon="-0.99197">
        <ele>1625.600000000002</ele>
        <time>2013-11-09T15:03:19.98</time>
      </trkpt>
      <trkpt lat="38.52736" lon="-0.9918533333333334">
        <ele>1624.300000000002</ele>
        <time>2013-11-09T15:03:20.98</time>
      </trkpt>
      <trkpt lat="38.527395" lon="-0.9917366666666666">
        <ele>1622.900000000002</ele>
        <time>2013-11-09T15:03:21.93</time>
      </trkpt>
      <trkpt lat="38.527435" lon="-0.9916033333333334">
        <ele>1621.600000000002</ele>
        <time>2013-11-09T15:03:22.98</time>
      </trkpt>
      <trkpt lat="38.527476666666665" lon="-0.99147">
        <ele>1620.300000000002</ele>
        <time>2013-11-09T15:03:23.94</time>
      </trkpt>
      <trkpt lat="38.52752" lon="-0.9913366666666668">
        <ele>1619.000000000002</ele>
        <time>2013-11-09T15:03:24.98</time>
      </trkpt>
      <trkpt lat="38.527565" lon="-0.9912083333333332">
        <ele>1617.600000000002</ele>
        <time>2013-11-09T15:03:25.98</time>
      </trkpt>
      <trkpt lat="38.52761" lon="-0.99108">
        <ele>1616.000000000002</ele>
        <time>2013-11-09T15:03:26.93</time>
      </trkpt>
      <trkpt lat="38.52766" lon="-0.9909616666666667">
        <ele>1614.500000000002</ele>
        <time>2013-11-09T15:03:27.98</time>
      </trkpt>
      <trkpt lat="38.527701666666665" lon="-0.9908483333333333">
        <ele>1612.800000000002</ele>
        <time>2013-11-09T15:03:28.98</time>
      </trkpt>
      <trkpt lat="38.527741666666664" lon="-0.9907183333333334">
        <ele>1611.300000000002</ele>
        <time>2013-11-09T15:03:29.99</time>
      </trkpt>
      <trkpt lat="38.52778166666667" lon="-0.99059">
        <ele>1609.800000000002</ele>
        <time>2013-11-09T15:03:30.94</time>
      </trkpt>
      <trkpt lat="38.52782333333333" lon="-0.9904783333333333">
        <ele>1608.100000000002</ele>
        <time>2013-11-09T15:03:31.98</time>
      </trkpt>
      <trkpt lat="38.52786666666667" lon="-0.9903766666666667">
        <ele>1606.100000000002</ele>
        <time>2013-11-09T15:03:32.98</time>
      </trkpt>
      <trkpt lat="38.52790666666667" lon="-0.9902966666666667">
        <ele>1604.2000000000019</ele>
        <time>2013-11-09T15:03:33.98</time>
      </trkpt>
      <trkpt lat="38.527945" lon="-0.990215">
        <ele>1602.100000000002</ele>
        <time>2013-11-09T15:03:34.98</time>
      </trkpt>
      <trkpt lat="38.52798333333333" lon="-0.9901266666666667">
        <ele>1600.000000000002</ele>
        <time>2013-11-09T15:03:35.94</time>
      </trkpt>
      <trkpt lat="38.528025" lon="-0.9900266666666667">
        <ele>1597.9000000000021</ele>
        <time>2013-11-09T15:03:36.98</time>
      </trkpt>
      <trkpt lat="38.52807" lon="-0.9899233333333334">
        <ele>1595.8000000000022</ele>
        <time>2013-11-09T15:03:37.98</time>
      </trkpt>
      <trkpt lat="38.52812" lon="-0.9898266666666667">
        <ele>1593.5000000000023</ele>
        <time>2013-11-09T15:03:38.98</time>
      </trkpt>
      <trkpt lat="38.528175" lon="-0.9897233333333334">
        <ele>1591.2000000000023</ele>
        <time>2013-11-09T15:03:39.99</time>
      </trkpt>
      <trkpt lat="38.52823333333333" lon="-0.9896116666666667">
        <ele>1589.0000000000023</ele>
        <time>2013-11-09T15:03:40.98</time>
      </trkpt>
      <trkpt lat="38.528295" lon="-0.9894883333333334">
        <ele>1587.4000000000024</ele>
        <time>2013-11-09T15:03:41.98</time>
      </trkpt>
      <trkpt lat="38.528355" lon="-0.9893783333333332">
        <ele>1585.8000000000025</ele>
        <time>2013-11-09T15:03:42.98</time>
      </trkpt>
      <trkpt lat="38.52841166666666" lon="-0.9892766666666667">
        <ele>1583.9000000000024</ele>
        <time>2013-11-09T15:03:43.95</time>
      </trkpt>
      <trkpt lat="38.52846666666667" lon="-0.9891716666666667">
        <ele>1581.6000000000024</ele>
        <time>2013-11-09T15:03:44.98</time>
      </trkpt>
      <trkpt lat="38.52852166666667" lon="-0.98906">
        <ele>1579.5000000000025</ele>
        <time>2013-11-09T15:03:45.98</time>
      </trkpt>
      <trkpt lat="38.52856333333333" lon="-0.9889483333333333">
        <ele>1577.3000000000025</ele>
        <time>2013-11-09T15:03:46.98</time>
      </trkpt>
      <trkpt lat="38.52860166666667" lon="-0.9888483333333333">
        <ele>1574.7000000000025</ele>
        <time>2013-11-09T15:03:47.98</time>
      </trkpt>
      <trkpt lat="38.528641666666665" lon="-0.98875">
        <ele>1571.8000000000025</ele>
        <time>2013-11-09T15:03:48.99</time>
      </trkpt>
      <trkpt lat="38.528681666666664" lon="-0.9886483333333334">
        <ele>1568.5000000000025</ele>
        <time>2013-11-09T15:03:49.98</time>
      </trkpt>
      <trkpt lat="38.52872833333333" lon="-0.9885416666666667">
        <ele>1565.3000000000025</ele>
        <time>2013-11-09T15:03:50.97</time>
      </trkpt>
      <trkpt lat="38.52878166666667" lon="-0.9884333333333333">
        <ele>1562.3000000000025</ele>
        <time>2013-11-09T15:03:51.99</time>
      </trkpt>
      <trkpt lat="38.52883166666667" lon="-0.988325">
        <ele>1559.4000000000024</ele>
        <time>2013-11-09T15:03:52.95</time>
      </trkpt>
      <trkpt lat="38.52888333333333" lon="-0.98821">
        <ele>1556.5000000000023</ele>
        <time>2013-11-09T15:03:53.99</time>
      </trkpt>
      <trkpt lat="38.528933333333335" lon="-0.9881033333333333">
        <ele>1553.7000000000023</ele>
        <time>2013-11-09T15:03:54.99</time>
      </trkpt>
      <trkpt lat="38.52898833333333" lon="-0.9879916666666666">
        <ele>1551.0000000000023</ele>
        <time>2013-11-09T15:03:55.98</time>
      </trkpt>
      <trkpt lat="38.52904" lon="-0.9878750000000001">
        <ele>1548.4000000000024</ele>
        <time>2013-11-09T15:03:56.98</time>
      </trkpt>
      <trkpt lat="38.52909" lon="-0.98775">
        <ele>1545.8000000000025</ele>
        <time>2013-11-09T15:03:57.99</time>
      </trkpt>
      <trkpt lat="38.529145" lon="-0.9876133333333333">
        <ele>1543.3000000000025</ele>
        <time>2013-11-09T15:03:58.95</time>
      </trkpt>
      <trkpt lat="38.5292" lon="-0.9874833333333334">
        <ele>1541.0000000000025</ele>
        <time>2013-11-09T15:03:59.98</time>
      </trkpt>
      <trkpt lat="38.52925666666667" lon="-0.987365">
        <ele>1538.9000000000026</ele>
        <time>2013-11-09T15:04:00.99</time>
      </trkpt>
      <trkpt lat="38.52931" lon="-0.987255">
        <ele>1536.9000000000026</ele>
        <time>2013-11-09T15:04:01.98</time>
      </trkpt>
      <trkpt lat="38.529355" lon="-0.987135">
        <ele>1534.8000000000027</ele>
        <time>2013-11-09T15:04:02.99</time>
      </trkpt>
      <trkpt lat="38.52939" lon="-0.9870249999999999">
        <ele>1532.6000000000026</ele>
        <time>2013-11-09T15:04:03.99</time>
      </trkpt>
      <trkpt lat="38.52941833333333" lon="-0.9869216666666667">
        <ele>1530.2000000000025</ele>
        <time>2013-11-09T15:04:04.99</time>
      </trkpt>
      <trkpt lat="38.52945" lon="-0.9868283333333333">
        <ele>1527.3000000000025</ele>
        <time>2013-11-09T15:04:05.98</time>
      </trkpt>
      <trkpt lat="38.529491666666665" lon="-0.9867233333333334">
        <ele>1524.1000000000024</ele>
        <time>2013-11-09T15:04:06.98</time>
      </trkpt>
      <trkpt lat="38.529535" lon="-0.9866133333333333">
        <ele>1521.0000000000025</ele>
        <time>2013-11-09T15:04:07.99</time>
      </trkpt>
      <trkpt lat="38.529581666666665" lon="-0.9864833333333334">
        <ele>1518.1000000000024</ele>
        <time>2013-11-09T15:04:08.99</time>
      </trkpt>
      <trkpt lat="38.529628333333335" lon="-0.9863516666666666">
        <ele>1515.2000000000023</ele>
        <time>2013-11-09T15:04:09.99</time>
      </trkpt>
      <trkpt lat="38.52966833333333" lon="-0.9862333333333333">
        <ele>1512.4000000000024</ele>
        <time>2013-11-09T15:04:10.97</time>
      </trkpt>
      <trkpt lat="38.52970333333333" lon="-0.9861216666666667">
        <ele>1509.7000000000023</ele>
        <time>2013-11-09T15:04:12.10</time>
      </trkpt>
      <trkpt lat="38.52974" lon="-0.9859966666666666">
        <ele>1507.0000000000023</ele>
        <time>2013-11-09T15:04:12.94</time>
      </trkpt>
      <trkpt lat="38.52977333333333" lon="-0.9858666666666667">
        <ele>1504.3000000000022</ele>
        <time>2013-11-09T15:04:13.98</time>
      </trkpt>
      <trkpt lat="38.529805" lon="-0.9857383333333334">
        <ele>1501.7000000000023</ele>
        <time>2013-11-09T15:04:14.98</time>
      </trkpt>
      <trkpt lat="38.52983833333333" lon="-0.9856066666666667">
        <ele>1499.2000000000023</ele>
        <time>2013-11-09T15:04:15.99</time>
      </trkpt>
      <trkpt lat="38.52987" lon="-0.98548">
        <ele>1496.9000000000024</ele>
        <time>2013-11-09T15:04:16.98</time>
      </trkpt>
      <trkpt lat="38.5299" lon="-0.985355">
        <ele>1494.6000000000024</ele>
        <time>2013-11-09T15:04:17.97</time>
      </trkpt>
      <trkpt lat="38.52993" lon="-0.9852316666666667">
        <ele>1492.3000000000025</ele>
        <time>2013-11-09T15:04:18.99</time>
      </trkpt>
      <trkpt lat="38.529965" lon="-0.9850983333333333">
        <ele>1490.2000000000025</ele>
        <time>2013-11-09T15:04:19.99</time>
      </trkpt>
      <trkpt lat="38.530005" lon="-0.9849666666666667">
        <ele>1488.4000000000026</ele>
        <time>2013-11-09T15:04:20.99</time>
      </trkpt>
      <trkpt lat="38.53004333333333" lon="-0.9848483333333333">
        <ele>1486.5000000000025</ele>
        <time>2013-11-09T15:04:21.93</time>
      </trkpt>
      <trkpt lat="38.53008333333333" lon="-0.9847383333333333">
        <ele>1484.6000000000024</ele>
        <time>2013-11-09T15:04:23.19</time>
      </trkpt>
      <trkpt lat="38.530125" lon="-0.9846266666666667">
        <ele>1482.7000000000023</ele>
        <time>2013-11-09T15:04:23.98</time>
      </trkpt>
      <trkpt lat="38.530165" lon="-0.984515">
        <ele>1480.9000000000024</ele>
        <time>2013-11-09T15:04:24.99</time>
      </trkpt>
      <trkpt lat="38.53020333333333" lon="-0.9844033333333333">
        <ele>1478.9000000000024</ele>
        <time>2013-11-09T15:04:25.93</time>
      </trkpt>
      <trkpt lat="38.53024" lon="-0.9842966666666667">
        <ele>1476.8000000000025</ele>
        <time>2013-11-09T15:04:26.98</time>
      </trkpt>
      <trkpt lat="38.53028" lon="-0.9841966666666667">
        <ele>1474.7000000000025</ele>
        <time>2013-11-09T15:04:28.89</time>
      </trkpt>
      <trkpt lat="38.530323333333335" lon="-0.9840933333333334">
        <ele>1472.7000000000025</ele>
        <time>2013-11-09T15:04:28.98</time>
      </trkpt>
      <trkpt lat="38.530366666666666" lon="-0.9839883333333332">
        <ele>1470.8000000000025</ele>
        <time>2013-11-09T15:04:29.98</time>
      </trkpt>
      <trkpt lat="38.530408333333334" lon="-0.98389">
        <ele>1469.1000000000024</ele>
        <time>2013-11-09T15:04:30.98</time>
      </trkpt>
      <trkpt lat="38.53045" lon="-0.9837916666666667">
        <ele>1467.3000000000025</ele>
        <time>2013-11-09T15:04:31.97</time>
      </trkpt>
      <trkpt lat="38.53049333333333" lon="-0.9836916666666667">
        <ele>1465.3000000000025</ele>
        <time>2013-11-09T15:04:32.98</time>
      </trkpt>
      <trkpt lat="38.530541666666664" lon="-0.98358">
        <ele>1463.5000000000025</ele>
        <time>2013-11-09T15:04:33.99</time>
      </trkpt>
      <trkpt lat="38.53058333333333" lon="-0.9834766666666667">
        <ele>1461.6000000000024</ele>
        <time>2013-11-09T15:04:34.98</time>
      </trkpt>
      <trkpt lat="38.53062666666667" lon="-0.9833816666666666">
        <ele>1459.4000000000024</ele>
        <time>2013-11-09T15:04:35.98</time>
      </trkpt>
      <trkpt lat="38.53066833333333" lon="-0.9832783333333333">
        <ele>1457.3000000000025</ele>
        <time>2013-11-09T15:04:36.97</time>
      </trkpt>
      <trkpt lat="38.53071" lon="-0.9831716666666667">
        <ele>1455.3000000000025</ele>
        <time>2013-11-09T15:04:37.98</time>
      </trkpt>
      <trkpt lat="38.53075833333333" lon="-0.9830616666666666">
        <ele>1453.6000000000024</ele>
        <time>2013-11-09T15:04:38.97</time>
      </trkpt>
      <trkpt lat="38.530811666666665" lon="-0.9829533333333333">
        <ele>1452.0000000000025</ele>
        <time>2013-11-09T15:04:39.98</time>
      </trkpt>
      <trkpt lat="38.53086" lon="-0.9828583333333333">
        <ele>1450.3000000000025</ele>
        <time>2013-11-09T15:04:40.94</time>
      </trkpt>
      <trkpt lat="38.530905" lon="-0.9827766666666666">
        <ele>1448.3000000000025</ele>
        <time>2013-11-09T15:04:41.98</time>
      </trkpt>
      <trkpt lat="38.53095166666667" lon="-0.9826866666666666">
        <ele>1446.3000000000025</ele>
        <time>2013-11-09T15:04:42.99</time>
      </trkpt>
      <trkpt lat="38.53099666666667" lon="-0.9825966666666667">
        <ele>1444.1000000000024</ele>
        <time>2013-11-09T15:04:43.98</time>
      </trkpt>
      <trkpt lat="38.531035" lon="-0.98252">
        <ele>1442.0000000000025</ele>
        <time>2013-11-09T15:04:44.97</time>
      </trkpt>
      <trkpt lat="38.531075" lon="-0.982445">
        <ele>1439.8000000000025</ele>
        <time>2013-11-09T15:04:45.98</time>
      </trkpt>
      <trkpt lat="38.53112" lon="-0.9823666666666667">
        <ele>1437.6000000000024</ele>
        <time>2013-11-09T15:04:46.98</time>
      </trkpt>
      <trkpt lat="38.531165" lon="-0.98229">
        <ele>1435.3000000000025</ele>
        <time>2013-11-09T15:04:47.99</time>
      </trkpt>
      <trkpt lat="38.53121" lon="-0.9822116666666666">
        <ele>1432.9000000000024</ele>
        <time>2013-11-09T15:04:49</time>
      </trkpt>
      <trkpt lat="38.531256666666664" lon="-0.98212">
        <ele>1430.7000000000023</ele>
        <time>2013-11-09T15:04:49.92</time>
      </trkpt>
      <trkpt lat="38.531308333333335" lon="-0.9820166666666666">
        <ele>1428.6000000000024</ele>
        <time>2013-11-09T15:04:50.94</time>
      </trkpt>
      <trkpt lat="38.53135833333333" lon="-0.9819166666666667">
        <ele>1426.8000000000025</ele>
        <time>2013-11-09T15:04:51.98</time>
      </trkpt>
      <trkpt lat="38.53140833333333" lon="-0.9818233333333333">
        <ele>1425.0000000000025</ele>
        <time>2013-11-09T15:04:52.94</time>
      </trkpt>
      <trkpt lat="38.53145166666667" lon="-0.9817366666666667">
        <ele>1423.0000000000025</ele>
        <time>2013-11-09T15:04:53.93</time>
      </trkpt>
      <trkpt lat="38.531495" lon="-0.9816533333333334">
        <ele>1420.8000000000025</ele>
        <time>2013-11-09T15:04:54.93</time>
      </trkpt>
      <trkpt lat="38.531535" lon="-0.9815716666666667">
        <ele>1418.5000000000025</ele>
        <time>2013-11-09T15:04:55.93</time>
      </trkpt>
      <trkpt lat="38.531571666666665" lon="-0.9814883333333333">
        <ele>1416.2000000000025</ele>
        <time>2013-11-09T15:04:56.98</time>
      </trkpt>
      <trkpt lat="38.53161" lon="-0.9813983333333333">
        <ele>1414.1000000000026</ele>
        <time>2013-11-09T15:04:57.95</time>
      </trkpt>
      <trkpt lat="38.531641666666665" lon="-0.9813183333333334">
        <ele>1412.0000000000027</ele>
        <time>2013-11-09T15:04:58.94</time>
      </trkpt>
      <trkpt lat="38.531675" lon="-0.9812366666666666">
        <ele>1409.7000000000028</ele>
        <time>2013-11-09T15:04:59.93</time>
      </trkpt>
      <trkpt lat="38.53171" lon="-0.9811599999999999">
        <ele>1406.9000000000028</ele>
        <time>2013-11-09T15:05:00.97</time>
      </trkpt>
      <trkpt lat="38.53174666666666" lon="-0.9810866666666667">
        <ele>1404.1000000000029</ele>
        <time>2013-11-09T15:05:01.97</time>
      </trkpt>
      <trkpt lat="38.53178333333334" lon="-0.981005">
        <ele>1401.4000000000028</ele>
        <time>2013-11-09T15:05:02.97</time>
      </trkpt>
      <trkpt lat="38.531818333333334" lon="-0.9809333333333333">
        <ele>1398.800000000003</ele>
        <time>2013-11-09T15:05:03.97</time>
      </trkpt>
      <trkpt lat="38.53186" lon="-0.9808416666666666">
        <ele>1396.1000000000029</ele>
        <time>2013-11-09T15:05:04.99</time>
      </trkpt>
      <trkpt lat="38.53189833333333" lon="-0.9807733333333334">
        <ele>1393.1000000000029</ele>
        <time>2013-11-09T15:05:05.98</time>
      </trkpt>
      <trkpt lat="38.531945" lon="-0.9806933333333333">
        <ele>1390.2000000000028</ele>
        <time>2013-11-09T15:05:06.98</time>
      </trkpt>
      <trkpt lat="38.53199166666667" lon="-0.9806133333333332">
        <ele>1387.4000000000028</ele>
        <time>2013-11-09T15:05:07.97</time>
      </trkpt>
      <trkpt lat="38.53203333333333" lon="-0.9805416666666668">
        <ele>1384.6000000000029</ele>
        <time>2013-11-09T15:05:08.98</time>
      </trkpt>
      <trkpt lat="38.532075" lon="-0.980475">
        <ele>1381.9000000000028</ele>
        <time>2013-11-09T15:05:09.98</time>
      </trkpt>
      <trkpt lat="38.53211666666667" lon="-0.9804083333333333">
        <ele>1379.2000000000028</ele>
        <time>2013-11-09T15:05:10.97</time>
      </trkpt>
      <trkpt lat="38.532158333333335" lon="-0.9803416666666667">
        <ele>1376.6000000000029</ele>
        <time>2013-11-09T15:05:12.59</time>
      </trkpt>
      <trkpt lat="38.532205" lon="-0.980275">
        <ele>1373.9000000000028</ele>
        <time>2013-11-09T15:05:12.98</time>
      </trkpt>
      <trkpt lat="38.53225666666667" lon="-0.9802016666666666">
        <ele>1371.1000000000029</ele>
        <time>2013-11-09T15:05:13.94</time>
      </trkpt>
      <trkpt lat="38.532311666666665" lon="-0.9801266666666667">
        <ele>1368.4000000000028</ele>
        <time>2013-11-09T15:05:14.98</time>
      </trkpt>
      <trkpt lat="38.53237" lon="-0.9800516666666667">
        <ele>1365.7000000000028</ele>
        <time>2013-11-09T15:05:15.98</time>
      </trkpt>
      <trkpt lat="38.53243166666667" lon="-0.9799749999999999">
        <ele>1363.2000000000028</ele>
        <time>2013-11-09T15:05:16.97</time>
      </trkpt>
      <trkpt lat="38.532491666666665" lon="-0.9798983333333333">
        <ele>1361.1000000000029</ele>
        <time>2013-11-09T15:05:17.97</time>
      </trkpt>
      <trkpt lat="38.53255166666667" lon="-0.9798266666666666">
        <ele>1359.1000000000029</ele>
        <time>2013-11-09T15:05:18.98</time>
      </trkpt>
      <trkpt lat="38.53261" lon="-0.9797583333333333">
        <ele>1357.2000000000028</ele>
        <time>2013-11-09T15:05:19.98</time>
      </trkpt>
      <trkpt lat="38.53265833333333" lon="-0.979695">
        <ele>1355.1000000000029</ele>
        <time>2013-11-09T15:05:20.98</time>
      </trkpt>
      <trkpt lat="38.532718333333335" lon="-0.979635">
        <ele>1353.300000000003</ele>
        <time>2013-11-09T15:05:21.97</time>
      </trkpt>
      <trkpt lat="38.53278666666667" lon="-0.9795633333333333">
        <ele>1351.4000000000028</ele>
        <time>2013-11-09T15:05:22.97</time>
      </trkpt>
      <trkpt lat="38.53285" lon="-0.9794916666666666">
        <ele>1349.5000000000027</ele>
        <time>2013-11-09T15:05:23.98</time>
      </trkpt>
      <trkpt lat="38.53287666666667" lon="-0.9794183333333333">
        <ele>1347.4000000000028</ele>
        <time>2013-11-09T15:05:24.98</time>
      </trkpt>
      <trkpt lat="38.53292833333333" lon="-0.9793583333333333">
        <ele>1345.7000000000028</ele>
        <time>2013-11-09T15:05:25.98</time>
      </trkpt>
      <trkpt lat="38.53297333333333" lon="-0.9792850000000001">
        <ele>1343.9000000000028</ele>
        <time>2013-11-09T15:05:26.97</time>
      </trkpt>
      <trkpt lat="38.53302166666667" lon="-0.9792083333333333">
        <ele>1342.2000000000028</ele>
        <time>2013-11-09T15:05:27.97</time>
      </trkpt>
      <trkpt lat="38.533076666666666" lon="-0.9791233333333333">
        <ele>1340.7000000000028</ele>
        <time>2013-11-09T15:05:28.94</time>
      </trkpt>
      <trkpt lat="38.533135" lon="-0.9790383333333333">
        <ele>1339.3000000000027</ele>
        <time>2013-11-09T15:05:29.98</time>
      </trkpt>
      <trkpt lat="38.53317333333333" lon="-0.9789583333333333">
        <ele>1337.8000000000027</ele>
        <time>2013-11-09T15:05:30.98</time>
      </trkpt>
      <trkpt lat="38.53321666666667" lon="-0.9788766666666666">
        <ele>1336.2000000000028</ele>
        <time>2013-11-09T15:05:31.97</time>
      </trkpt>
      <trkpt lat="38.533265" lon="-0.9787983333333333">
        <ele>1334.3000000000027</ele>
        <time>2013-11-09T15:05:32.97</time>
      </trkpt>
      <trkpt lat="38.53330666666667" lon="-0.9787199999999999">
        <ele>1331.6000000000026</ele>
        <time>2013-11-09T15:05:33.97</time>
      </trkpt>
      <trkpt lat="38.53335166666667" lon="-0.9786366666666667">
        <ele>1329.2000000000025</ele>
        <time>2013-11-09T15:05:34.98</time>
      </trkpt>
      <trkpt lat="38.533395" lon="-0.9785533333333334">
        <ele>1326.8000000000025</ele>
        <time>2013-11-09T15:05:35.97</time>
      </trkpt>
      <trkpt lat="38.533435" lon="-0.9784716666666667">
        <ele>1324.3000000000025</ele>
        <time>2013-11-09T15:05:36.97</time>
      </trkpt>
      <trkpt lat="38.53347333333333" lon="-0.9783933333333333">
        <ele>1321.5000000000025</ele>
        <time>2013-11-09T15:05:37.97</time>
      </trkpt>
      <trkpt lat="38.533515" lon="-0.978315">
        <ele>1318.8000000000025</ele>
        <time>2013-11-09T15:05:38.97</time>
      </trkpt>
      <trkpt lat="38.53356" lon="-0.9782366666666668">
        <ele>1316.2000000000025</ele>
        <time>2013-11-09T15:05:39.98</time>
      </trkpt>
      <trkpt lat="38.533606666666664" lon="-0.97816">
        <ele>1313.5000000000025</ele>
        <time>2013-11-09T15:05:40.97</time>
      </trkpt>
      <trkpt lat="38.533651666666664" lon="-0.978085">
        <ele>1311.0000000000025</ele>
        <time>2013-11-09T15:05:41.98</time>
      </trkpt>
      <trkpt lat="38.53369166666667" lon="-0.9780233333333332">
        <ele>1308.4000000000026</ele>
        <time>2013-11-09T15:05:42.97</time>
      </trkpt>
      <trkpt lat="38.533735" lon="-0.9779616666666667">
        <ele>1305.4000000000026</ele>
        <time>2013-11-09T15:05:43.97</time>
      </trkpt>
      <trkpt lat="38.53378333333333" lon="-0.9778933333333334">
        <ele>1302.8000000000027</ele>
        <time>2013-11-09T15:05:44.98</time>
      </trkpt>
      <trkpt lat="38.533838333333335" lon="-0.9778166666666667">
        <ele>1300.2000000000028</ele>
        <time>2013-11-09T15:05:45.97</time>
      </trkpt>
      <trkpt lat="38.53388833333333" lon="-0.9777450000000001">
        <ele>1298.0000000000027</ele>
        <time>2013-11-09T15:05:46.99</time>
      </trkpt>
      <trkpt lat="38.53393166666667" lon="-0.97768">
        <ele>1295.8000000000027</ele>
        <time>2013-11-09T15:05:47.97</time>
      </trkpt>
      <trkpt lat="38.53397666666667" lon="-0.9776166666666666">
        <ele>1293.8000000000027</ele>
        <time>2013-11-09T15:05:48.97</time>
      </trkpt>
      <trkpt lat="38.53402333333333" lon="-0.97755">
        <ele>1291.8000000000027</ele>
        <time>2013-11-09T15:05:49.94</time>
      </trkpt>
      <trkpt lat="38.53406833333333" lon="-0.9774849999999999">
        <ele>1289.6000000000026</ele>
        <time>2013-11-09T15:05:50.97</time>
      </trkpt>
      <trkpt lat="38.534115" lon="-0.9774233333333334">
        <ele>1287.6000000000026</ele>
        <time>2013-11-09T15:05:51.97</time>
      </trkpt>
      <trkpt lat="38.534151666666666" lon="-0.9773700000000001">
        <ele>1285.9000000000026</ele>
        <time>2013-11-09T15:05:52.97</time>
      </trkpt>
      <trkpt lat="38.53418666666666" lon="-0.9773183333333333">
        <ele>1284.2000000000025</ele>
        <time>2013-11-09T15:05:53.98</time>
      </trkpt>
      <trkpt lat="38.53422333333334" lon="-0.9772616666666667">
        <ele>1282.1000000000026</ele>
        <time>2013-11-09T15:05:54.94</time>
      </trkpt>
      <trkpt lat="38.534258333333334" lon="-0.9772116666666667">
        <ele>1279.9000000000026</ele>
        <time>2013-11-09T15:05:55.93</time>
      </trkpt>
      <trkpt lat="38.534303333333334" lon="-0.9771516666666666">
        <ele>1277.7000000000025</ele>
        <time>2013-11-09T15:05:56.98</time>
      </trkpt>
      <trkpt lat="38.53435833333333" lon="-0.9770749999999999">
        <ele>1274.8000000000025</ele>
        <time>2013-11-09T15:05:57.98</time>
      </trkpt>
      <trkpt lat="38.534411666666664" lon="-0.9769966666666666">
        <ele>1271.9000000000024</ele>
        <time>2013-11-09T15:05:58.98</time>
      </trkpt>
      <trkpt lat="38.534463333333335" lon="-0.97692">
        <ele>1269.2000000000023</ele>
        <time>2013-11-09T15:05:59.98</time>
      </trkpt>
      <trkpt lat="38.53451166666667" lon="-0.9768466666666666">
        <ele>1266.7000000000023</ele>
        <time>2013-11-09T15:06:00.93</time>
      </trkpt>
      <trkpt lat="38.53456" lon="-0.976775">
        <ele>1264.1000000000024</ele>
        <time>2013-11-09T15:06:01.99</time>
      </trkpt>
      <trkpt lat="38.534616666666665" lon="-0.9767033333333334">
        <ele>1261.5000000000025</ele>
        <time>2013-11-09T15:06:02.97</time>
      </trkpt>
      <trkpt lat="38.53467166666667" lon="-0.97664">
        <ele>1259.2000000000025</ele>
        <time>2013-11-09T15:06:03.98</time>
      </trkpt>
      <trkpt lat="38.534713333333336" lon="-0.9765916666666666">
        <ele>1257.2000000000025</ele>
        <time>2013-11-09T15:06:04.97</time>
      </trkpt>
      <trkpt lat="38.53475666666667" lon="-0.9765316666666667">
        <ele>1255.3000000000025</ele>
        <time>2013-11-09T15:06:05.97</time>
      </trkpt>
      <trkpt lat="38.534771666666664" lon="-0.97649">
        <ele>1254.0000000000025</ele>
        <time>2013-11-09T15:06:06.97</time>
      </trkpt>
      <trkpt lat="38.53478333333334" lon="-0.9764516666666666">
        <ele>1252.5000000000025</ele>
        <time>2013-11-09T15:06:07.97</time>
      </trkpt>
      <trkpt lat="38.534805" lon="-0.9763883333333333">
        <ele>1250.8000000000025</ele>
        <time>2013-11-09T15:06:08.98</time>
      </trkpt>
      <trkpt lat="38.534841666666665" lon="-0.9763000000000001">
        <ele>1249.0000000000025</ele>
        <time>2013-11-09T15:06:09.97</time>
      </trkpt>
      <trkpt lat="38.53489" lon="-0.9762216666666668">
        <ele>1246.7000000000025</ele>
        <time>2013-11-09T15:06:10.97</time>
      </trkpt>
      <trkpt lat="38.534945" lon="-0.9761399999999999">
        <ele>1244.4000000000026</ele>
        <time>2013-11-09T15:06:12.39</time>
      </trkpt>
      <trkpt lat="38.535" lon="-0.9760616666666666">
        <ele>1242.0000000000025</ele>
        <time>2013-11-09T15:06:12.98</time>
      </trkpt>
      <trkpt lat="38.53505" lon="-0.9759916666666667">
        <ele>1239.8000000000025</ele>
        <time>2013-11-09T15:06:13.99</time>
      </trkpt>
      <trkpt lat="38.53509" lon="-0.9759150000000001">
        <ele>1237.9000000000024</ele>
        <time>2013-11-09T15:06:14.98</time>
      </trkpt>
      <trkpt lat="38.53512666666666" lon="-0.9758466666666668">
        <ele>1235.9000000000024</ele>
        <time>2013-11-09T15:06:15.99</time>
      </trkpt>
      <trkpt lat="38.535158333333335" lon="-0.9757866666666666">
        <ele>1234.5000000000023</ele>
        <time>2013-11-09T15:06:17.49</time>
      </trkpt>
      <trkpt lat="38.535195" lon="-0.97572">
        <ele>1233.2000000000023</ele>
        <time>2013-11-09T15:06:17.98</time>
      </trkpt>
      <trkpt lat="38.53523833333333" lon="-0.9756616666666668">
        <ele>1230.0000000000023</ele>
        <time>2013-11-09T15:06:18.98</time>
      </trkpt>
      <trkpt lat="38.53528333333333" lon="-0.9756233333333333">
        <ele>1226.7000000000023</ele>
        <time>2013-11-09T15:06:19.98</time>
      </trkpt>
      <trkpt lat="38.535331666666664" lon="-0.9755933333333334">
        <ele>1223.2000000000023</ele>
        <time>2013-11-09T15:06:20.97</time>
      </trkpt>
      <trkpt lat="38.53536666666667" lon="-0.9755733333333333">
        <ele>1220.2000000000023</ele>
        <time>2013-11-09T15:06:21.98</time>
      </trkpt>
      <trkpt lat="38.535403333333335" lon="-0.9755266666666667">
        <ele>1217.6000000000024</ele>
        <time>2013-11-09T15:06:22.98</time>
      </trkpt>
      <trkpt lat="38.535446666666665" lon="-0.9754683333333334">
        <ele>1215.6000000000024</ele>
        <time>2013-11-09T15:06:23.98</time>
      </trkpt>
      <trkpt lat="38.53549666666667" lon="-0.9753883333333333">
        <ele>1214.1000000000024</ele>
        <time>2013-11-09T15:06:24.98</time>
      </trkpt>
      <trkpt lat="38.53554333333334" lon="-0.9753033333333333">
        <ele>1212.5000000000025</ele>
        <time>2013-11-09T15:06:25.97</time>
      </trkpt>
      <trkpt lat="38.53559" lon="-0.9752083333333333">
        <ele>1210.9000000000026</ele>
        <time>2013-11-09T15:06:26.97</time>
      </trkpt>
      <trkpt lat="38.535626666666666" lon="-0.9751166666666666">
        <ele>1209.4000000000026</ele>
        <time>2013-11-09T15:06:27.98</time>
      </trkpt>
      <trkpt lat="38.53566" lon="-0.9750266666666667">
        <ele>1207.7000000000025</ele>
        <time>2013-11-09T15:06:28.97</time>
      </trkpt>
      <trkpt lat="38.535695" lon="-0.9749300000000001">
        <ele>1205.6000000000026</ele>
        <time>2013-11-09T15:06:29.98</time>
      </trkpt>
      <trkpt lat="38.53572333333334" lon="-0.9748416666666666">
        <ele>1203.8000000000027</ele>
        <time>2013-11-09T15:06:30.94</time>
      </trkpt>
      <trkpt lat="38.53574666666667" lon="-0.9747483333333334">
        <ele>1201.9000000000026</ele>
        <time>2013-11-09T15:06:31.97</time>
      </trkpt>
      <trkpt lat="38.53577333333333" lon="-0.9746483333333333">
        <ele>1200.0000000000025</ele>
        <time>2013-11-09T15:06:32.98</time>
      </trkpt>
      <trkpt lat="38.535825" lon="-0.9745383333333333">
        <ele>1197.7000000000025</ele>
        <time>2013-11-09T15:06:33.98</time>
      </trkpt>
      <trkpt lat="38.535878333333336" lon="-0.9744200000000001">
        <ele>1196.3000000000025</ele>
        <time>2013-11-09T15:06:34.98</time>
      </trkpt>
      <trkpt lat="38.535961666666665" lon="-0.97434">
        <ele>1194.6000000000024</ele>
        <time>2013-11-09T15:06:35.97</time>
      </trkpt>
      <trkpt lat="38.53603833333333" lon="-0.9742766666666667">
        <ele>1192.8000000000025</ele>
        <time>2013-11-09T15:06:36.97</time>
      </trkpt>
      <trkpt lat="38.536098333333335" lon="-0.9742200000000001">
        <ele>1190.6000000000024</ele>
        <time>2013-11-09T15:06:37.99</time>
      </trkpt>
      <trkpt lat="38.53614833333334" lon="-0.9741566666666667">
        <ele>1188.6000000000024</ele>
        <time>2013-11-09T15:06:38.97</time>
      </trkpt>
      <trkpt lat="38.53619" lon="-0.9740883333333333">
        <ele>1187.6000000000024</ele>
        <time>2013-11-09T15:06:39.94</time>
      </trkpt>
      <trkpt lat="38.536226666666664" lon="-0.9740233333333334">
        <ele>1186.6000000000024</ele>
        <time>2013-11-09T15:06:40.99</time>
      </trkpt>
      <trkpt lat="38.536253333333335" lon="-0.97398">
        <ele>1186.2000000000023</ele>
        <time>2013-11-09T15:06:42.9</time>
      </trkpt>
      <trkpt lat="38.53628" lon="-0.9739366666666667">
        <ele>1185.5000000000023</ele>
        <time>2013-11-09T15:06:42.99</time>
      </trkpt>
      <trkpt lat="38.536318333333334" lon="-0.9738733333333334">
        <ele>1184.5000000000023</ele>
        <time>2013-11-09T15:06:43.98</time>
      </trkpt>
      <trkpt lat="38.536363333333334" lon="-0.9738">
        <ele>1183.5000000000023</ele>
        <time>2013-11-09T15:06:44.95</time>
      </trkpt>
      <trkpt lat="38.536411666666666" lon="-0.973715">
        <ele>1182.9000000000024</ele>
        <time>2013-11-09T15:06:45.99</time>
      </trkpt>
      <trkpt lat="38.536465" lon="-0.9736133333333333">
        <ele>1182.4000000000024</ele>
        <time>2013-11-09T15:06:46.98</time>
      </trkpt>
      <trkpt lat="38.536525" lon="-0.97349">
        <ele>1181.9000000000024</ele>
        <time>2013-11-09T15:06:47.99</time>
      </trkpt>
      <trkpt lat="38.53657" lon="-0.9733750000000001">
        <ele>1181.0000000000023</ele>
        <time>2013-11-09T15:06:48.98</time>
      </trkpt>
      <trkpt lat="38.536611666666666" lon="-0.9732566666666667">
        <ele>1179.9000000000024</ele>
        <time>2013-11-09T15:06:49.98</time>
      </trkpt>
      <trkpt lat="38.53666" lon="-0.9731166666666666">
        <ele>1179.6000000000024</ele>
        <time>2013-11-09T15:06:50.95</time>
      </trkpt>
      <trkpt lat="38.53671333333333" lon="-0.97298">
        <ele>1179.3000000000025</ele>
        <time>2013-11-09T15:06:51.99</time>
      </trkpt>
      <trkpt lat="38.536775" lon="-0.9728433333333334">
        <ele>1179.2000000000025</ele>
        <time>2013-11-09T15:06:52.99</time>
      </trkpt>
      <trkpt lat="38.536833333333334" lon="-0.9727216666666667">
        <ele>1178.1000000000026</ele>
        <time>2013-11-09T15:06:53.98</time>
      </trkpt>
      <trkpt lat="38.536885" lon="-0.9726183333333334">
        <ele>1177.0000000000027</ele>
        <time>2013-11-09T15:06:54.93</time>
      </trkpt>
      <trkpt lat="38.536925" lon="-0.972535">
        <ele>1175.9000000000028</ele>
        <time>2013-11-09T15:06:55.94</time>
      </trkpt>
      <trkpt lat="38.536955" lon="-0.9724766666666667">
        <ele>1174.7000000000028</ele>
        <time>2013-11-09T15:06:56.98</time>
      </trkpt>
      <trkpt lat="38.53698833333333" lon="-0.972415">
        <ele>1173.2000000000028</ele>
        <time>2013-11-09T15:06:57.96</time>
      </trkpt>
      <trkpt lat="38.537031666666664" lon="-0.9723616666666667">
        <ele>1171.7000000000028</ele>
        <time>2013-11-09T15:06:58.99</time>
      </trkpt>
      <trkpt lat="38.53708" lon="-0.972295">
        <ele>1170.5000000000027</ele>
        <time>2013-11-09T15:06:59.93</time>
      </trkpt>
      <trkpt lat="38.53713333333334" lon="-0.9722166666666666">
        <ele>1170.1000000000026</ele>
        <time>2013-11-09T15:07:00.98</time>
      </trkpt>
      <trkpt lat="38.537193333333335" lon="-0.972135">
        <ele>1170.1000000000026</ele>
        <time>2013-11-09T15:07:01.98</time>
      </trkpt>
      <trkpt lat="38.53725" lon="-0.9720583333333334">
        <ele>1170.1000000000026</ele>
        <time>2013-11-09T15:07:02.96</time>
      </trkpt>
      <trkpt lat="38.537303333333334" lon="-0.9719733333333332">
        <ele>1170.4000000000026</ele>
        <time>2013-11-09T15:07:03.99</time>
      </trkpt>
      <trkpt lat="38.53736166666667" lon="-0.9718833333333333">
        <ele>1170.6000000000026</ele>
        <time>2013-11-09T15:07:04.97</time>
      </trkpt>
      <trkpt lat="38.537425" lon="-0.9717733333333333">
        <ele>1171.5000000000027</ele>
        <time>2013-11-09T15:07:05.98</time>
      </trkpt>
      <trkpt lat="38.53749333333333" lon="-0.9716366666666667">
        <ele>1172.7000000000028</ele>
        <time>2013-11-09T15:07:06.98</time>
      </trkpt>
      <trkpt lat="38.53752333333333" lon="-0.9714633333333332">
        <ele>1173.7000000000028</ele>
        <time>2013-11-09T15:07:07.99</time>
      </trkpt>
      <trkpt lat="38.53754333333333" lon="-0.9712916666666668">
        <ele>1174.8000000000027</ele>
        <time>2013-11-09T15:07:08.95</time>
      </trkpt>
      <trkpt lat="38.53756" lon="-0.971115">
        <ele>1175.8000000000027</ele>
        <time>2013-11-09T15:07:09.98</time>
      </trkpt>
      <trkpt lat="38.53756166666667" lon="-0.9709466666666666">
        <ele>1177.3000000000027</ele>
        <time>2013-11-09T15:07:10.98</time>
      </trkpt>
      <trkpt lat="38.537535" lon="-0.9707466666666666">
        <ele>1178.5000000000027</ele>
        <time>2013-11-09T15:07:12.10</time>
      </trkpt>
      <trkpt lat="38.537501666666664" lon="-0.970535">
        <ele>1179.5000000000027</ele>
        <time>2013-11-09T15:07:12.99</time>
      </trkpt>
      <trkpt lat="38.537456666666664" lon="-0.9703133333333334">
        <ele>1180.5000000000027</ele>
        <time>2013-11-09T15:07:13.98</time>
      </trkpt>
      <trkpt lat="38.53736833333333" lon="-0.9701033333333334">
        <ele>1181.4000000000028</ele>
        <time>2013-11-09T15:07:14.99</time>
      </trkpt>
      <trkpt lat="38.53727333333333" lon="-0.96991">
        <ele>1182.6000000000029</ele>
        <time>2013-11-09T15:07:16.59</time>
      </trkpt>
      <trkpt lat="38.537128333333335" lon="-0.969765">
        <ele>1184.1000000000029</ele>
        <time>2013-11-09T15:07:16.95</time>
      </trkpt>
      <trkpt lat="38.536985" lon="-0.9696466666666667">
        <ele>1185.800000000003</ele>
        <time>2013-11-09T15:07:18.39</time>
      </trkpt>
      <trkpt lat="38.53684833333333" lon="-0.9695900000000001">
        <ele>1187.6000000000029</ele>
        <time>2013-11-09T15:07:18.98</time>
      </trkpt>
      <trkpt lat="38.53673333333333" lon="-0.9695533333333334">
        <ele>1189.2000000000028</ele>
        <time>2013-11-09T15:07:20.89</time>
      </trkpt>
      <trkpt lat="38.53661833333334" lon="-0.969545">
        <ele>1190.9000000000028</ele>
        <time>2013-11-09T15:07:20.98</time>
      </trkpt>
      <trkpt lat="38.536521666666665" lon="-0.96955">
        <ele>1193.0000000000027</ele>
        <time>2013-11-09T15:07:21.98</time>
      </trkpt>
      <trkpt lat="38.53643666666667" lon="-0.9695933333333334">
        <ele>1195.1000000000026</ele>
        <time>2013-11-09T15:07:22.95</time>
      </trkpt>
      <trkpt lat="38.536381666666664" lon="-0.96965">
        <ele>1196.6000000000026</ele>
        <time>2013-11-09T15:07:24.19</time>
      </trkpt>
      <trkpt lat="38.53637166666667" lon="-0.9697083333333333">
        <ele>1196.7000000000025</ele>
        <time>2013-11-09T15:07:24.98</time>
      </trkpt>
      <trkpt lat="38.53639166666667" lon="-0.9697416666666666">
        <ele>1196.8000000000025</ele>
        <time>2013-11-09T15:07:25.98</time>
      </trkpt>
      <trkpt lat="38.536435" lon="-0.9697283333333334">
        <ele>1198.0000000000025</ele>
        <time>2013-11-09T15:07:27.10</time>
      </trkpt>
      <trkpt lat="38.536478333333335" lon="-0.969695">
        <ele>1199.2000000000025</ele>
        <time>2013-11-09T15:07:27.94</time>
      </trkpt>
      <trkpt lat="38.53652" lon="-0.9696583333333333">
        <ele>1200.7000000000025</ele>
        <time>2013-11-09T15:07:29.19</time>
      </trkpt>
      <trkpt lat="38.536548333333336" lon="-0.9696233333333333">
        <ele>1200.7000000000025</ele>
        <time>2013-11-09T15:07:29.98</time>
      </trkpt>
      <trkpt lat="38.53658166666666" lon="-0.9695933333333334">
        <ele>1201.3000000000025</ele>
        <time>2013-11-09T15:07:30.96</time>
      </trkpt>
      <trkpt lat="38.53662833333333" lon="-0.9695516666666666">
        <ele>1201.7000000000025</ele>
        <time>2013-11-09T15:07:31.94</time>
      </trkpt>
      <trkpt lat="38.53668666666667" lon="-0.9695016666666666">
        <ele>1201.6000000000026</ele>
        <time>2013-11-09T15:07:32.98</time>
      </trkpt>
      <trkpt lat="38.536746666666666" lon="-0.969445">
        <ele>1201.4000000000026</ele>
        <time>2013-11-09T15:07:34.49</time>
      </trkpt>
      <trkpt lat="38.536805" lon="-0.969385">
        <ele>1201.1000000000026</ele>
        <time>2013-11-09T15:07:34.99</time>
      </trkpt>
      <trkpt lat="38.536865" lon="-0.9693133333333334">
        <ele>1201.3000000000027</ele>
        <time>2013-11-09T15:07:35.94</time>
      </trkpt>
      <trkpt lat="38.536928333333336" lon="-0.96922">
        <ele>1201.6000000000026</ele>
        <time>2013-11-09T15:07:36.99</time>
      </trkpt>
      <trkpt lat="38.53698" lon="-0.9690949999999999">
        <ele>1201.6000000000026</ele>
        <time>2013-11-09T15:07:37.99</time>
      </trkpt>
      <trkpt lat="38.53703" lon="-0.9689733333333332">
        <ele>1201.8000000000027</ele>
        <time>2013-11-09T15:07:38.99</time>
      </trkpt>
      <trkpt lat="38.53707166666667" lon="-0.96887">
        <ele>1202.3000000000027</ele>
        <time>2013-11-09T15:07:39.98</time>
      </trkpt>
      <trkpt lat="38.53711666666667" lon="-0.9687533333333334">
        <ele>1203.0000000000027</ele>
        <time>2013-11-09T15:07:40.98</time>
      </trkpt>
      <trkpt lat="38.537155" lon="-0.9686383333333333">
        <ele>1203.7000000000028</ele>
        <time>2013-11-09T15:07:41.99</time>
      </trkpt>
      <trkpt lat="38.537191666666665" lon="-0.9685266666666668">
        <ele>1204.5000000000027</ele>
        <time>2013-11-09T15:07:43.69</time>
      </trkpt>
      <trkpt lat="38.53722833333333" lon="-0.968425">
        <ele>1205.4000000000028</ele>
        <time>2013-11-09T15:07:43.99</time>
      </trkpt>
      <trkpt lat="38.53727333333333" lon="-0.9683216666666666">
        <ele>1206.300000000003</ele>
        <time>2013-11-09T15:07:44.98</time>
      </trkpt>
      <trkpt lat="38.53733166666667" lon="-0.9682533333333333">
        <ele>1207.1000000000029</ele>
        <time>2013-11-09T15:07:46.39</time>
      </trkpt>
      <trkpt lat="38.53739" lon="-0.96819">
        <ele>1207.9000000000028</ele>
        <time>2013-11-09T15:07:47.9</time>
      </trkpt>
      <trkpt lat="38.53742833333333" lon="-0.9681533333333333">
        <ele>1208.6000000000029</ele>
        <time>2013-11-09T15:07:47.98</time>
      </trkpt>
      <trkpt lat="38.53745833333333" lon="-0.9681316666666666">
        <ele>1209.500000000003</ele>
        <time>2013-11-09T15:07:48.98</time>
      </trkpt>
      <trkpt lat="38.53749333333333" lon="-0.9681216666666667">
        <ele>1209.6000000000029</ele>
        <time>2013-11-09T15:07:49.99</time>
      </trkpt>
      <trkpt lat="38.53752333333333" lon="-0.968115">
        <ele>1209.800000000003</ele>
        <time>2013-11-09T15:07:50.99</time>
      </trkpt>
      <trkpt lat="38.53755" lon="-0.968115">
        <ele>1210.000000000003</ele>
        <time>2013-11-09T15:07:51.98</time>
      </trkpt>
      <trkpt lat="38.537578333333336" lon="-0.9681233333333333">
        <ele>1210.200000000003</ele>
        <time>2013-11-09T15:07:52.98</time>
      </trkpt>
      <trkpt lat="38.53758833333333" lon="-0.96814">
        <ele>1210.500000000003</ele>
        <time>2013-11-09T15:07:53.92</time>
      </trkpt>
      <trkpt lat="38.537596666666666" lon="-0.9681716666666667">
        <ele>1210.700000000003</ele>
        <time>2013-11-09T15:07:54.98</time>
      </trkpt>
      <trkpt lat="38.53759" lon="-0.9682283333333334">
        <ele>1213.400000000003</ele>
        <time>2013-11-09T15:07:55.95</time>
      </trkpt>
      <trkpt lat="38.537555" lon="-0.96829">
        <ele>1215.500000000003</ele>
        <time>2013-11-09T15:07:56.98</time>
      </trkpt>
      <trkpt lat="38.53749666666667" lon="-0.9683283333333333">
        <ele>1218.1000000000029</ele>
        <time>2013-11-09T15:07:57.98</time>
      </trkpt>
      <trkpt lat="38.537425" lon="-0.9683383333333333">
        <ele>1219.800000000003</ele>
        <time>2013-11-09T15:07:58.99</time>
      </trkpt>
      <trkpt lat="38.53734333333333" lon="-0.9683383333333333">
        <ele>1221.200000000003</ele>
        <time>2013-11-09T15:07:59.98</time>
      </trkpt>
      <trkpt lat="38.537235" lon="-0.968295">
        <ele>1222.200000000003</ele>
        <time>2013-11-09T15:08:01.9</time>
      </trkpt>
      <trkpt lat="38.53711833333333" lon="-0.968245">
        <ele>1223.100000000003</ele>
        <time>2013-11-09T15:08:01.98</time>
      </trkpt>
      <trkpt lat="38.53699833333334" lon="-0.9681866666666666">
        <ele>1223.400000000003</ele>
        <time>2013-11-09T15:08:02.98</time>
      </trkpt>
      <trkpt lat="38.53686833333333" lon="-0.9681133333333333">
        <ele>1223.700000000003</ele>
        <time>2013-11-09T15:08:03.99</time>
      </trkpt>
      <trkpt lat="38.536746666666666" lon="-0.967985">
        <ele>1224.000000000003</ele>
        <time>2013-11-09T15:08:04.98</time>
      </trkpt>
      <trkpt lat="38.53662333333333" lon="-0.9678433333333333">
        <ele>1224.700000000003</ele>
        <time>2013-11-09T15:08:05.99</time>
      </trkpt>
      <trkpt lat="38.536516666666664" lon="-0.9677033333333332">
        <ele>1225.400000000003</ele>
        <time>2013-11-09T15:08:06.99</time>
      </trkpt>
      <trkpt lat="38.53647333333333" lon="-0.9675216666666666">
        <ele>1226.100000000003</ele>
        <time>2013-11-09T15:08:07.98</time>
      </trkpt>
      <trkpt lat="38.536431666666665" lon="-0.9673416666666667">
        <ele>1227.200000000003</ele>
        <time>2013-11-09T15:08:08.99</time>
      </trkpt>
      <trkpt lat="38.536431666666665" lon="-0.9671533333333334">
        <ele>1228.000000000003</ele>
        <time>2013-11-09T15:08:09.96</time>
      </trkpt>
      <trkpt lat="38.536431666666665" lon="-0.96697">
        <ele>1228.700000000003</ele>
        <time>2013-11-09T15:08:10.99</time>
      </trkpt>
      <trkpt lat="38.53645" lon="-0.9668066666666667">
        <ele>1229.800000000003</ele>
        <time>2013-11-09T15:08:12.69</time>
      </trkpt>
      <trkpt lat="38.53648833333333" lon="-0.9666933333333334">
        <ele>1231.000000000003</ele>
        <time>2013-11-09T15:08:12.95</time>
      </trkpt>
      <trkpt lat="38.536521666666665" lon="-0.9665966666666667">
        <ele>1231.700000000003</ele>
        <time>2013-11-09T15:08:14.9</time>
      </trkpt>
      <trkpt lat="38.536555" lon="-0.9665066666666667">
        <ele>1232.200000000003</ele>
        <time>2013-11-09T15:08:15.99</time>
      </trkpt>
      <trkpt lat="38.536593333333336" lon="-0.9664133333333333">
        <ele>1232.900000000003</ele>
        <time>2013-11-09T15:08:16.9</time>
      </trkpt>
      <trkpt lat="38.536645" lon="-0.96635">
        <ele>1233.8000000000031</ele>
        <time>2013-11-09T15:08:16.99</time>
      </trkpt>
      <trkpt lat="38.536705" lon="-0.9663233333333333">
        <ele>1234.3000000000031</ele>
        <time>2013-11-09T15:08:17.95</time>
      </trkpt>
      <trkpt lat="38.536775" lon="-0.9663133333333334">
        <ele>1234.7000000000032</ele>
        <time>2013-11-09T15:08:18.99</time>
      </trkpt>
      <trkpt lat="38.53684666666667" lon="-0.966305">
        <ele>1235.4000000000033</ele>
        <time>2013-11-09T15:08:19.94</time>
      </trkpt>
      <trkpt lat="38.53689" lon="-0.9663016666666666">
        <ele>1236.6000000000033</ele>
        <time>2013-11-09T15:08:20.99</time>
      </trkpt>
      <trkpt lat="38.53691833333333" lon="-0.9663">
        <ele>1237.8000000000034</ele>
        <time>2013-11-09T15:08:21.98</time>
      </trkpt>
      <trkpt lat="38.53693833333333" lon="-0.9662816666666667">
        <ele>1237.9000000000033</ele>
        <time>2013-11-09T15:08:22.99</time>
      </trkpt>
      <trkpt lat="38.53697666666667" lon="-0.9662683333333334">
        <ele>1239.0000000000032</ele>
        <time>2013-11-09T15:08:23.99</time>
      </trkpt>
      <trkpt lat="38.537016666666666" lon="-0.9662583333333333">
        <ele>1239.8000000000031</ele>
        <time>2013-11-09T15:08:24.95</time>
      </trkpt>
      <trkpt lat="38.53707333333333" lon="-0.9662683333333334">
        <ele>1240.400000000003</ele>
        <time>2013-11-09T15:08:25.99</time>
      </trkpt>
      <trkpt lat="38.537128333333335" lon="-0.9662833333333333">
        <ele>1240.8000000000031</ele>
        <time>2013-11-09T15:08:26.99</time>
      </trkpt>
      <trkpt lat="38.537168333333334" lon="-0.9663216666666667">
        <ele>1241.5000000000032</ele>
        <time>2013-11-09T15:08:27.98</time>
      </trkpt>
      <trkpt lat="38.537211666666664" lon="-0.966365">
        <ele>1242.8000000000031</ele>
        <time>2013-11-09T15:08:28.99</time>
      </trkpt>
      <trkpt lat="38.53725333333333" lon="-0.9664133333333333">
        <ele>1244.0000000000032</ele>
        <time>2013-11-09T15:08:30.19</time>
      </trkpt>
      <trkpt lat="38.537288333333336" lon="-0.966455">
        <ele>1244.5000000000032</ele>
        <time>2013-11-09T15:08:30.98</time>
      </trkpt>
      <trkpt lat="38.53732" lon="-0.9664883333333333">
        <ele>1244.5000000000032</ele>
        <time>2013-11-09T15:08:31.98</time>
      </trkpt>
      <trkpt lat="38.53735666666667" lon="-0.9665066666666667">
        <ele>1244.4000000000033</ele>
        <time>2013-11-09T15:08:32.98</time>
      </trkpt>
      <trkpt lat="38.53741" lon="-0.9665250000000001">
        <ele>1243.9000000000033</ele>
        <time>2013-11-09T15:08:33.99</time>
      </trkpt>
      <trkpt lat="38.53747" lon="-0.9665433333333334">
        <ele>1243.4000000000033</ele>
        <time>2013-11-09T15:08:34.99</time>
      </trkpt>
      <trkpt lat="38.537533333333336" lon="-0.9665549999999999">
        <ele>1243.6000000000033</ele>
        <time>2013-11-09T15:08:35.98</time>
      </trkpt>
      <trkpt lat="38.53760166666667" lon="-0.9665633333333333">
        <ele>1244.2000000000032</ele>
        <time>2013-11-09T15:08:37.9</time>
      </trkpt>
      <trkpt lat="38.537668333333336" lon="-0.9665666666666667">
        <ele>1245.2000000000032</ele>
        <time>2013-11-09T15:08:37.98</time>
      </trkpt>
      <trkpt lat="38.537733333333335" lon="-0.9665633333333333">
        <ele>1246.5000000000032</ele>
        <time>2013-11-09T15:08:38.99</time>
      </trkpt>
      <trkpt lat="38.537798333333335" lon="-0.9665533333333334">
        <ele>1248.0000000000032</ele>
        <time>2013-11-09T15:08:39.99</time>
      </trkpt>
      <trkpt lat="38.537863333333334" lon="-0.9665416666666666">
        <ele>1249.7000000000032</ele>
        <time>2013-11-09T15:08:40.94</time>
      </trkpt>
      <trkpt lat="38.537925" lon="-0.9665133333333333">
        <ele>1250.8000000000031</ele>
        <time>2013-11-09T15:08:41.94</time>
      </trkpt>
      <trkpt lat="38.53799333333333" lon="-0.9664616666666667">
        <ele>1252.900000000003</ele>
        <time>2013-11-09T15:08:43.69</time>
      </trkpt>
      <trkpt lat="38.53806" lon="-0.966405">
        <ele>1255.400000000003</ele>
        <time>2013-11-09T15:08:43.99</time>
      </trkpt>
      <trkpt lat="38.53812" lon="-0.966315">
        <ele>1258.000000000003</ele>
        <time>2013-11-09T15:08:44.99</time>
      </trkpt>
      <trkpt lat="38.53818166666667" lon="-0.96622">
        <ele>1260.1000000000029</ele>
        <time>2013-11-09T15:08:45.95</time>
      </trkpt>
      <trkpt lat="38.538255" lon="-0.9661066666666667">
        <ele>1261.6000000000029</ele>
        <time>2013-11-09T15:08:47.19</time>
      </trkpt>
      <trkpt lat="38.538313333333335" lon="-0.9659883333333333">
        <ele>1263.2000000000028</ele>
        <time>2013-11-09T15:08:48.9</time>
      </trkpt>
      <trkpt lat="38.538355" lon="-0.9658216666666667">
        <ele>1264.7000000000028</ele>
        <time>2013-11-09T15:08:48.99</time>
      </trkpt>
      <trkpt lat="38.53839" lon="-0.9656466666666667">
        <ele>1266.4000000000028</ele>
        <time>2013-11-09T15:08:49.98</time>
      </trkpt>
      <trkpt lat="38.53839" lon="-0.9654416666666666">
        <ele>1268.4000000000028</ele>
        <time>2013-11-09T15:08:50.98</time>
      </trkpt>
      <trkpt lat="38.53837166666667" lon="-0.9652216666666666">
        <ele>1270.6000000000029</ele>
        <time>2013-11-09T15:08:51.98</time>
      </trkpt>
      <trkpt lat="38.53828333333333" lon="-0.9650216666666667">
        <ele>1273.000000000003</ele>
        <time>2013-11-09T15:08:52.99</time>
      </trkpt>
      <trkpt lat="38.538178333333335" lon="-0.9648433333333333">
        <ele>1275.6000000000029</ele>
        <time>2013-11-09T15:08:53.95</time>
      </trkpt>
      <trkpt lat="38.53805333333333" lon="-0.96478">
        <ele>1278.7000000000028</ele>
        <time>2013-11-09T15:08:54.98</time>
      </trkpt>
      <trkpt lat="38.537935" lon="-0.9647733333333334">
        <ele>1281.9000000000028</ele>
        <time>2013-11-09T15:08:55.98</time>
      </trkpt>
      <trkpt lat="38.537819999999996" lon="-0.9648249999999999">
        <ele>1285.4000000000028</ele>
        <time>2013-11-09T15:08:56.95</time>
      </trkpt>
      <trkpt lat="38.537758333333336" lon="-0.9648599999999999">
        <ele>1288.7000000000028</ele>
        <time>2013-11-09T15:08:58.9</time>
      </trkpt>
      <trkpt lat="38.53774333333333" lon="-0.9648883333333333">
        <ele>1289.0000000000027</ele>
        <time>2013-11-09T15:08:58.99</time>
      </trkpt>
      <trkpt lat="38.537751666666665" lon="-0.96492">
        <ele>1289.5000000000027</ele>
        <time>2013-11-09T15:09:00.98</time>
      </trkpt>
      <trkpt lat="38.53778" lon="-0.9649083333333334">
        <ele>1295.2000000000028</ele>
        <time>2013-11-09T15:09:01.98</time>
      </trkpt>
      <trkpt lat="38.537848333333336" lon="-0.9648583333333334">
        <ele>1300.1000000000029</ele>
        <time>2013-11-09T15:09:02.98</time>
      </trkpt>
      <trkpt lat="38.537935" lon="-0.9647783333333333">
        <ele>1304.500000000003</ele>
        <time>2013-11-09T15:09:04.10</time>
      </trkpt>
      <trkpt lat="38.538021666666666" lon="-0.9646600000000001">
        <ele>1308.1000000000029</ele>
        <time>2013-11-09T15:09:04.98</time>
      </trkpt>
      <trkpt lat="38.538111666666666" lon="-0.9645216666666666">
        <ele>1311.300000000003</ele>
        <time>2013-11-09T15:09:05.98</time>
      </trkpt>
      <trkpt lat="38.538135" lon="-0.96433">
        <ele>1314.4000000000028</ele>
        <time>2013-11-09T15:09:06.94</time>
      </trkpt>
      <trkpt lat="38.538138333333336" lon="-0.9641233333333333">
        <ele>1316.6000000000029</ele>
        <time>2013-11-09T15:09:07.95</time>
      </trkpt>
      <trkpt lat="38.538108333333334" lon="-0.96393">
        <ele>1319.800000000003</ele>
        <time>2013-11-09T15:09:09</time>
      </trkpt>
      <trkpt lat="38.53807833333333" lon="-0.9637083333333333">
        <ele>1323.4000000000028</ele>
        <time>2013-11-09T15:09:09.94</time>
      </trkpt>
      <trkpt lat="38.53800833333333" lon="-0.96354">
        <ele>1327.9000000000028</ele>
        <time>2013-11-09T15:09:10.98</time>
      </trkpt>
      <trkpt lat="38.53794333333333" lon="-0.9633983333333334">
        <ele>1332.1000000000029</ele>
        <time>2013-11-09T15:09:12.79</time>
      </trkpt>
      <trkpt lat="38.537868333333336" lon="-0.9632716666666667">
        <ele>1336.300000000003</ele>
        <time>2013-11-09T15:09:12.99</time>
      </trkpt>
      <trkpt lat="38.53776666666667" lon="-0.96316">
        <ele>1340.4000000000028</ele>
        <time>2013-11-09T15:09:13.95</time>
      </trkpt>
      <trkpt lat="38.537643333333335" lon="-0.9630650000000001">
        <ele>1344.6000000000029</ele>
        <time>2013-11-09T15:09:14.99</time>
      </trkpt>
      <trkpt lat="38.537495" lon="-0.9630533333333333">
        <ele>1348.9000000000028</ele>
        <time>2013-11-09T15:09:15.95</time>
      </trkpt>
      <trkpt lat="38.53736833333333" lon="-0.963085">
        <ele>1353.4000000000028</ele>
        <time>2013-11-09T15:09:17.69</time>
      </trkpt>
      <trkpt lat="38.537283333333335" lon="-0.9631483333333333">
        <ele>1357.9000000000028</ele>
        <time>2013-11-09T15:09:17.95</time>
      </trkpt>
      <trkpt lat="38.537238333333335" lon="-0.9631883333333333">
        <ele>1361.6000000000029</ele>
        <time>2013-11-09T15:09:19.9</time>
      </trkpt>
      <trkpt lat="38.537225" lon="-0.9632116666666667">
        <ele>1365.000000000003</ele>
        <time>2013-11-09T15:09:19.95</time>
      </trkpt>
      <trkpt lat="38.537283333333335" lon="-0.963175">
        <ele>1370.6</ele>
        <time>2013-11-09T15:09:22.99</time>
      </trkpt>
      <trkpt lat="38.537366666666664" lon="-0.9631283333333334">
        <ele>1375.1999999999998</ele>
        <time>2013-11-09T15:09:23.99</time>
      </trkpt>
      <trkpt lat="38.537461666666665" lon="-0.9630533333333333">
        <ele>1379.3999999999999</ele>
        <time>2013-11-09T15:09:25.9</time>
      </trkpt>
      <trkpt lat="38.537546666666664" lon="-0.96297">
        <ele>1383.4999999999998</ele>
        <time>2013-11-09T15:09:25.99</time>
      </trkpt>
      <trkpt lat="38.53763" lon="-0.962835">
        <ele>1387.0999999999997</ele>
        <time>2013-11-09T15:09:26.99</time>
      </trkpt>
      <trkpt lat="38.53769833333333" lon="-0.9626883333333333">
        <ele>1390.3999999999996</ele>
        <time>2013-11-09T15:09:28.9</time>
      </trkpt>
      <trkpt lat="38.53774666666666" lon="-0.9625166666666666">
        <ele>1393.3999999999996</ele>
        <time>2013-11-09T15:09:28.98</time>
      </trkpt>
      <trkpt lat="38.53774166666667" lon="-0.9623083333333333">
        <ele>1395.9999999999995</ele>
        <time>2013-11-09T15:09:29.99</time>
      </trkpt>
      <trkpt lat="38.537726666666664" lon="-0.9620866666666666">
        <ele>1398.4999999999995</ele>
        <time>2013-11-09T15:09:30.98</time>
      </trkpt>
      <trkpt lat="38.53767666666667" lon="-0.9618916666666667">
        <ele>1402.2999999999995</ele>
        <time>2013-11-09T15:09:31.95</time>
      </trkpt>
      <trkpt lat="38.537585" lon="-0.96174">
        <ele>1406.4999999999995</ele>
        <time>2013-11-09T15:09:32.99</time>
      </trkpt>
      <trkpt lat="38.53751333333334" lon="-0.9616216666666666">
        <ele>1410.2999999999995</ele>
        <time>2013-11-09T15:09:33.99</time>
      </trkpt>
      <trkpt lat="38.53744" lon="-0.9614999999999999">
        <ele>1413.4999999999995</ele>
        <time>2013-11-09T15:09:34.98</time>
      </trkpt>
      <trkpt lat="38.53733833333333" lon="-0.96139">
        <ele>1415.9999999999995</ele>
        <time>2013-11-09T15:09:35.99</time>
      </trkpt>
      <trkpt lat="38.53722666666667" lon="-0.9612983333333334">
        <ele>1418.0999999999995</ele>
        <time>2013-11-09T15:09:36.98</time>
      </trkpt>
      <trkpt lat="38.537075" lon="-0.9612433333333333">
        <ele>1420.3999999999994</ele>
        <time>2013-11-09T15:09:37.98</time>
      </trkpt>
      <trkpt lat="38.53693333333333" lon="-0.9612483333333334">
        <ele>1422.7999999999995</ele>
        <time>2013-11-09T15:09:38.98</time>
      </trkpt>
      <trkpt lat="38.53683" lon="-0.9613116666666667">
        <ele>1425.4999999999995</ele>
        <time>2013-11-09T15:09:39.99</time>
      </trkpt>
      <trkpt lat="38.536765" lon="-0.9613583333333333">
        <ele>1428.4999999999995</ele>
        <time>2013-11-09T15:09:40.98</time>
      </trkpt>
      <trkpt lat="38.53673666666667" lon="-0.9613933333333333">
        <ele>1428.7999999999995</ele>
        <time>2013-11-09T15:09:41.99</time>
      </trkpt>
      <trkpt lat="38.53680166666667" lon="-0.9613816666666666">
        <ele>1430.3</ele>
        <time>2013-11-09T15:09:45.95</time>
      </trkpt>
      <trkpt lat="38.536876666666664" lon="-0.961355">
        <ele>1434.8999999999999</ele>
        <time>2013-11-09T15:09:46.99</time>
      </trkpt>
      <trkpt lat="38.53696333333333" lon="-0.9612850000000001">
        <ele>1439.3999999999999</ele>
        <time>2013-11-09T15:09:47.99</time>
      </trkpt>
      <trkpt lat="38.537061666666666" lon="-0.9612016666666666">
        <ele>1443.3</ele>
        <time>2013-11-09T15:09:48.98</time>
      </trkpt>
      <trkpt lat="38.537146666666665" lon="-0.9610616666666666">
        <ele>1447.2</ele>
        <time>2013-11-09T15:09:49.98</time>
      </trkpt>
      <trkpt lat="38.53720333333333" lon="-0.9608883333333333">
        <ele>1451.1000000000001</ele>
        <time>2013-11-09T15:09:50.98</time>
      </trkpt>
      <trkpt lat="38.53725" lon="-0.9607066666666667">
        <ele>1455.0000000000002</ele>
        <time>2013-11-09T15:09:51.98</time>
      </trkpt>
      <trkpt lat="38.53727666666666" lon="-0.9605149999999999">
        <ele>1458.3000000000002</ele>
        <time>2013-11-09T15:09:52.94</time>
      </trkpt>
      <trkpt lat="38.537256666666664" lon="-0.9603016666666666">
        <ele>1461.2000000000003</ele>
        <time>2013-11-09T15:09:53.98</time>
      </trkpt>
      <trkpt lat="38.53723" lon="-0.9600733333333333">
        <ele>1463.3000000000002</ele>
        <time>2013-11-09T15:09:54.93</time>
      </trkpt>
      <trkpt lat="38.537153333333336" lon="-0.9598650000000001">
        <ele>1465.7000000000003</ele>
        <time>2013-11-09T15:09:55.98</time>
      </trkpt>
      <trkpt lat="38.53707166666667" lon="-0.959685">
        <ele>1468.3000000000002</ele>
        <time>2013-11-09T15:09:56.95</time>
      </trkpt>
      <trkpt lat="38.53696166666667" lon="-0.9595616666666668">
        <ele>1470.8000000000002</ele>
        <time>2013-11-09T15:09:57.93</time>
      </trkpt>
      <trkpt lat="38.536845" lon="-0.959475">
        <ele>1473.2000000000003</ele>
        <time>2013-11-09T15:09:58.93</time>
      </trkpt>
      <trkpt lat="38.53672666666667" lon="-0.9594033333333333">
        <ele>1475.9000000000003</ele>
        <time>2013-11-09T15:09:59.92</time>
      </trkpt>
      <trkpt lat="38.53660333333333" lon="-0.9593683333333334">
        <ele>1478.4000000000003</ele>
        <time>2013-11-09T15:10:00.99</time>
      </trkpt>
      <trkpt lat="38.53648666666667" lon="-0.959345">
        <ele>1480.8000000000004</ele>
        <time>2013-11-09T15:10:01.94</time>
      </trkpt>
      <trkpt lat="38.53637333333333" lon="-0.9593716666666666">
        <ele>1483.0000000000005</ele>
        <time>2013-11-09T15:10:02.94</time>
      </trkpt>
      <trkpt lat="38.53628833333333" lon="-0.9594266666666668">
        <ele>1484.9000000000005</ele>
        <time>2013-11-09T15:10:03.94</time>
      </trkpt>
      <trkpt lat="38.536235" lon="-0.9594933333333333">
        <ele>1486.6000000000006</ele>
        <time>2013-11-09T15:10:04.99</time>
      </trkpt>
      <trkpt lat="38.53620333333333" lon="-0.9595616666666668">
        <ele>1488.1000000000006</ele>
        <time>2013-11-09T15:10:05.98</time>
      </trkpt>
      <trkpt lat="38.536183333333334" lon="-0.9596216666666667">
        <ele>1489.9000000000005</ele>
        <time>2013-11-09T15:10:06.94</time>
      </trkpt>
      <trkpt lat="38.53616" lon="-0.9596800000000001">
        <ele>1491.4000000000005</ele>
        <time>2013-11-09T15:10:07.96</time>
      </trkpt>
      <trkpt lat="38.53615333333333" lon="-0.95972">
        <ele>1492.8000000000006</ele>
        <time>2013-11-09T15:10:08.99</time>
      </trkpt>
      <trkpt lat="38.53615166666667" lon="-0.9597466666666666">
        <ele>1494.2000000000007</ele>
        <time>2013-11-09T15:10:10.12</time>
      </trkpt>
      <trkpt lat="38.536143333333335" lon="-0.95977">
        <ele>1494.3000000000006</ele>
        <time>2013-11-09T15:10:10.95</time>
      </trkpt>
      <trkpt lat="38.536143333333335" lon="-0.9597866666666667">
        <ele>1494.5000000000007</ele>
        <time>2013-11-09T15:10:11.77</time>
      </trkpt>
      <trkpt lat="38.536141666666666" lon="-0.9598233333333333">
        <ele>1494.8000000000006</ele>
        <time>2013-11-09T15:10:12.78</time>
      </trkpt>
      <trkpt lat="38.53613333333333" lon="-0.9598666666666666">
        <ele>1495.0000000000007</ele>
        <time>2013-11-09T15:10:13.79</time>
      </trkpt>
      <trkpt lat="38.536118333333334" lon="-0.9599133333333333">
        <ele>1495.4000000000008</ele>
        <time>2013-11-09T15:10:14.80</time>
      </trkpt>
      <trkpt lat="38.536096666666666" lon="-0.9599449999999999">
        <ele>1495.8000000000009</ele>
        <time>2013-11-09T15:10:15.78</time>
      </trkpt>
      <trkpt lat="38.536053333333335" lon="-0.9599616666666667">
        <ele>1499.6000000000008</ele>
        <time>2013-11-09T15:10:16.88</time>
      </trkpt>
      <trkpt lat="38.535985" lon="-0.9599650000000001">
        <ele>1502.500000000001</ele>
        <time>2013-11-09T15:10:17.89</time>
      </trkpt>
      <trkpt lat="38.53588166666667" lon="-0.9599633333333333">
        <ele>1504.700000000001</ele>
        <time>2013-11-09T15:10:18.78</time>
      </trkpt>
      <trkpt lat="38.53577666666666" lon="-0.959955">
        <ele>1506.700000000001</ele>
        <time>2013-11-09T15:10:19.78</time>
      </trkpt>
      <trkpt lat="38.53566" lon="-0.95987">
        <ele>1508.500000000001</ele>
        <time>2013-11-09T15:10:20.78</time>
      </trkpt>
      <trkpt lat="38.535538333333335" lon="-0.9597566666666667">
        <ele>1510.500000000001</ele>
        <time>2013-11-09T15:10:21.78</time>
      </trkpt>
      <trkpt lat="38.53545833333333" lon="-0.9595633333333333">
        <ele>1513.200000000001</ele>
        <time>2013-11-09T15:10:22.79</time>
      </trkpt>
      <trkpt lat="38.53541333333333" lon="-0.9593433333333333">
        <ele>1515.200000000001</ele>
        <time>2013-11-09T15:10:23.87</time>
      </trkpt>
      <trkpt lat="38.535358333333335" lon="-0.9591433333333333">
        <ele>1517.100000000001</ele>
        <time>2013-11-09T15:10:24.80</time>
      </trkpt>
      <trkpt lat="38.53535333333333" lon="-0.9589783333333333">
        <ele>1519.0000000000011</ele>
        <time>2013-11-09T15:10:25.85</time>
      </trkpt>
      <trkpt lat="38.53536" lon="-0.9588099999999999">
        <ele>1521.0000000000011</ele>
        <time>2013-11-09T15:10:26.81</time>
      </trkpt>
      <trkpt lat="38.53537166666667" lon="-0.9586133333333334">
        <ele>1522.300000000001</ele>
        <time>2013-11-09T15:10:27.82</time>
      </trkpt>
      <trkpt lat="38.535383333333336" lon="-0.9584083333333333">
        <ele>1523.800000000001</ele>
        <time>2013-11-09T15:10:28.81</time>
      </trkpt>
      <trkpt lat="38.53539" lon="-0.958205">
        <ele>1525.7000000000012</ele>
        <time>2013-11-09T15:10:29.81</time>
      </trkpt>
      <trkpt lat="38.53541" lon="-0.9580233333333333">
        <ele>1528.6000000000013</ele>
        <time>2013-11-09T15:10:30.86</time>
      </trkpt>
      <trkpt lat="38.535453333333336" lon="-0.9578583333333334">
        <ele>1532.1000000000013</ele>
        <time>2013-11-09T15:10:31.84</time>
      </trkpt>
      <trkpt lat="38.53551" lon="-0.9576983333333333">
        <ele>1535.3000000000013</ele>
        <time>2013-11-09T15:10:32.84</time>
      </trkpt>
      <trkpt lat="38.53559333333333" lon="-0.9575933333333333">
        <ele>1538.3000000000013</ele>
        <time>2013-11-09T15:10:33.84</time>
      </trkpt>
      <trkpt lat="38.535651666666666" lon="-0.9575416666666666">
        <ele>1541.4000000000012</ele>
        <time>2013-11-09T15:10:34.85</time>
      </trkpt>
      <trkpt lat="38.53570166666667" lon="-0.957535">
        <ele>1543.9000000000012</ele>
        <time>2013-11-09T15:10:35.86</time>
      </trkpt>
      <trkpt lat="38.535743333333336" lon="-0.9575433333333333">
        <ele>1544.2000000000012</ele>
        <time>2013-11-09T15:10:36.85</time>
      </trkpt>
      <trkpt lat="38.535785" lon="-0.9575549999999999">
        <ele>1544.4000000000012</ele>
        <time>2013-11-09T15:10:37.84</time>
      </trkpt>
      <trkpt lat="38.53577" lon="-0.9576083333333333">
        <ele>1547.8000000000013</ele>
        <time>2013-11-09T15:10:38.91</time>
      </trkpt>
      <trkpt lat="38.535713333333334" lon="-0.9576316666666667">
        <ele>1550.6000000000013</ele>
        <time>2013-11-09T15:10:39.89</time>
      </trkpt>
      <trkpt lat="38.53565833333333" lon="-0.957645">
        <ele>1553.0000000000014</ele>
        <time>2013-11-09T15:10:40.84</time>
      </trkpt>
      <trkpt lat="38.53557333333333" lon="-0.9575916666666667">
        <ele>1555.0000000000014</ele>
        <time>2013-11-09T15:10:41.84</time>
      </trkpt>
      <trkpt lat="38.53547666666667" lon="-0.9575266666666666">
        <ele>1557.3000000000013</ele>
        <time>2013-11-09T15:10:42.94</time>
      </trkpt>
      <trkpt lat="38.53539" lon="-0.9574433333333333">
        <ele>1559.2000000000014</ele>
        <time>2013-11-09T15:10:43.84</time>
      </trkpt>
      <trkpt lat="38.5353" lon="-0.9573516666666666">
        <ele>1560.8000000000013</ele>
        <time>2013-11-09T15:10:44.84</time>
      </trkpt>
      <trkpt lat="38.53521166666667" lon="-0.9572516666666666">
        <ele>1562.4000000000012</ele>
        <time>2013-11-09T15:10:45.90</time>
      </trkpt>
      <trkpt lat="38.535125" lon="-0.9571433333333333">
        <ele>1563.8000000000013</ele>
        <time>2013-11-09T15:10:46.84</time>
      </trkpt>
      <trkpt lat="38.535041666666665" lon="-0.9570183333333334">
        <ele>1565.0000000000014</ele>
        <time>2013-11-09T15:10:47.84</time>
      </trkpt>
      <trkpt lat="38.53496" lon="-0.9568933333333334">
        <ele>1566.5000000000014</ele>
        <time>2013-11-09T15:10:48.79</time>
      </trkpt>
      <trkpt lat="38.5349" lon="-0.956725">
        <ele>1567.9000000000015</ele>
        <time>2013-11-09T15:10:49.84</time>
      </trkpt>
      <trkpt lat="38.53484" lon="-0.956535">
        <ele>1569.2000000000014</ele>
        <time>2013-11-09T15:10:50.81</time>
      </trkpt>
      <trkpt lat="38.53481333333333" lon="-0.9563333333333334">
        <ele>1571.2000000000014</ele>
        <time>2013-11-09T15:10:51.84</time>
      </trkpt>
      <trkpt lat="38.534778333333335" lon="-0.9561133333333333">
        <ele>1572.8000000000013</ele>
        <time>2013-11-09T15:10:52.84</time>
      </trkpt>
      <trkpt lat="38.534776666666666" lon="-0.9559366666666667">
        <ele>1574.5000000000014</ele>
        <time>2013-11-09T15:10:53.81</time>
      </trkpt>
      <trkpt lat="38.534785" lon="-0.9557833333333333">
        <ele>1576.7000000000014</ele>
        <time>2013-11-09T15:10:54.84</time>
      </trkpt>
      <trkpt lat="38.534835" lon="-0.9556683333333333">
        <ele>1579.2000000000014</ele>
        <time>2013-11-09T15:10:55.81</time>
      </trkpt>
      <trkpt lat="38.534886666666665" lon="-0.9555833333333333">
        <ele>1582.4000000000015</ele>
        <time>2013-11-09T15:10:56.84</time>
      </trkpt>
      <trkpt lat="38.534956666666666" lon="-0.9555083333333333">
        <ele>1586.4000000000015</ele>
        <time>2013-11-09T15:10:57.86</time>
      </trkpt>
      <trkpt lat="38.535005" lon="-0.9554666666666667">
        <ele>1590.2000000000014</ele>
        <time>2013-11-09T15:10:58.84</time>
      </trkpt>
      <trkpt lat="38.535035" lon="-0.9554633333333334">
        <ele>1590.5000000000014</ele>
        <time>2013-11-09T15:10:59.84</time>
      </trkpt>
      <trkpt lat="38.535046666666666" lon="-0.9554849999999999">
        <ele>1590.9000000000015</ele>
        <time>2013-11-09T15:11:00.84</time>
      </trkpt>
      <trkpt lat="38.535021666666665" lon="-0.9555116666666666">
        <ele>1591.4000000000015</ele>
        <time>2013-11-09T15:11:01.84</time>
      </trkpt>
      <trkpt lat="38.53498166666667" lon="-0.9555183333333334">
        <ele>1591.8000000000015</ele>
        <time>2013-11-09T15:11:02.84</time>
      </trkpt>
      <trkpt lat="38.53492833333333" lon="-0.955525">
        <ele>1596.7000000000016</ele>
        <time>2013-11-09T15:11:03.84</time>
      </trkpt>
      <trkpt lat="38.53487833333333" lon="-0.9555316666666667">
        <ele>1601.1000000000017</ele>
        <time>2013-11-09T15:11:04.84</time>
      </trkpt>
      <trkpt lat="38.53483666666666" lon="-0.95555">
        <ele>1605.7000000000016</ele>
        <time>2013-11-09T15:11:05.84</time>
      </trkpt>
      <trkpt lat="38.53478166666667" lon="-0.9555633333333333">
        <ele>1609.4000000000017</ele>
        <time>2013-11-09T15:11:06.80</time>
      </trkpt>
      <trkpt lat="38.53471166666667" lon="-0.9555349999999999">
        <ele>1612.5000000000016</ele>
        <time>2013-11-09T15:11:07.81</time>
      </trkpt>
      <trkpt lat="38.534635" lon="-0.9555016666666667">
        <ele>1615.0000000000016</ele>
        <time>2013-11-09T15:11:08.92</time>
      </trkpt>
      <trkpt lat="38.53455" lon="-0.9554633333333334">
        <ele>1617.3000000000015</ele>
        <time>2013-11-09T15:11:09.84</time>
      </trkpt>
      <trkpt lat="38.53445" lon="-0.9554266666666666">
        <ele>1620.0000000000016</ele>
        <time>2013-11-09T15:11:10.79</time>
      </trkpt>
      <trkpt lat="38.53434166666667" lon="-0.955375">
        <ele>1622.6000000000015</ele>
        <time>2013-11-09T15:11:11.95</time>
      </trkpt>
      <trkpt lat="38.534235" lon="-0.9553066666666666">
        <ele>1625.1000000000015</ele>
        <time>2013-11-09T15:11:12.81</time>
      </trkpt>
      <trkpt lat="38.53411" lon="-0.9552216666666666">
        <ele>1627.8000000000015</ele>
        <time>2013-11-09T15:11:13.87</time>
      </trkpt>
      <trkpt lat="38.53397833333333" lon="-0.9551266666666667">
        <ele>1630.7000000000016</ele>
        <time>2013-11-09T15:11:14.84</time>
      </trkpt>
      <trkpt lat="38.53384" lon="-0.9550116666666667">
        <ele>1633.7000000000016</ele>
        <time>2013-11-09T15:11:16.19</time>
      </trkpt>
      <trkpt lat="38.53371166666667" lon="-0.9548749999999999">
        <ele>1636.5000000000016</ele>
        <time>2013-11-09T15:11:16.85</time>
      </trkpt>
      <trkpt lat="38.533605" lon="-0.9546616666666666">
        <ele>1641.0000000000016</ele>
        <time>2013-11-09T15:11:17.78</time>
      </trkpt>
      <trkpt lat="38.533525" lon="-0.95444">
        <ele>1644.7000000000016</ele>
        <time>2013-11-09T15:11:18.79</time>
      </trkpt>
      <trkpt lat="38.533458333333336" lon="-0.95423">
        <ele>1647.3000000000015</ele>
        <time>2013-11-09T15:11:19.89</time>
      </trkpt>
      <trkpt lat="38.53341" lon="-0.954035">
        <ele>1650.2000000000016</ele>
        <time>2013-11-09T15:11:20.96</time>
      </trkpt>
      <trkpt lat="38.533368333333335" lon="-0.95384">
        <ele>1652.8000000000015</ele>
        <time>2013-11-09T15:11:21.80</time>
      </trkpt>
      <trkpt lat="38.533386666666665" lon="-0.9536583333333333">
        <ele>1655.1000000000015</ele>
        <time>2013-11-09T15:11:22.82</time>
      </trkpt>
      <trkpt lat="38.53342833333333" lon="-0.9535066666666666">
        <ele>1658.1000000000015</ele>
        <time>2013-11-09T15:11:23.78</time>
      </trkpt>
      <trkpt lat="38.53348" lon="-0.9533616666666667">
        <ele>1661.2000000000014</ele>
        <time>2013-11-09T15:11:24.81</time>
      </trkpt>
      <trkpt lat="38.53355833333333" lon="-0.95324">
        <ele>1664.4000000000015</ele>
        <time>2013-11-09T15:11:25.84</time>
      </trkpt>
      <trkpt lat="38.533645" lon="-0.9531583333333333">
        <ele>1667.2000000000014</ele>
        <time>2013-11-09T15:11:26.84</time>
      </trkpt>
      <trkpt lat="38.533705" lon="-0.9531366666666667">
        <ele>1669.1000000000015</ele>
        <time>2013-11-09T15:11:27.84</time>
      </trkpt>
      <trkpt lat="38.53375666666667" lon="-0.9531533333333333">
        <ele>1671.2000000000014</ele>
        <time>2013-11-09T15:11:28.85</time>
      </trkpt>
      <trkpt lat="38.53377833333333" lon="-0.9531916666666667">
        <ele>1671.4000000000015</ele>
        <time>2013-11-09T15:11:29.81</time>
      </trkpt>
      <trkpt lat="38.533791666666666" lon="-0.9532550000000001">
        <ele>1671.7000000000014</ele>
        <time>2013-11-09T15:11:30.84</time>
      </trkpt>
      <trkpt lat="38.53376333333333" lon="-0.9532849999999999">
        <ele>1675.5000000000014</ele>
        <time>2013-11-09T15:11:31.83</time>
      </trkpt>
      <trkpt lat="38.533735" lon="-0.9532966666666667">
        <ele>1675.9000000000015</ele>
        <time>2013-11-09T15:11:32.84</time>
      </trkpt>
      <trkpt lat="38.533678333333334" lon="-0.9533050000000001">
        <ele>1680.4000000000015</ele>
        <time>2013-11-09T15:11:33.84</time>
      </trkpt>
      <trkpt lat="38.533595" lon="-0.9533033333333333">
        <ele>1684.3000000000015</ele>
        <time>2013-11-09T15:11:34.82</time>
      </trkpt>
      <trkpt lat="38.53348166666667" lon="-0.953295">
        <ele>1687.7000000000016</ele>
        <time>2013-11-09T15:11:35.80</time>
      </trkpt>
      <trkpt lat="38.53335166666667" lon="-0.953245">
        <ele>1690.6000000000017</ele>
        <time>2013-11-09T15:11:36.84</time>
      </trkpt>
      <trkpt lat="38.533211666666666" lon="-0.9531766666666667">
        <ele>1693.1000000000017</ele>
        <time>2013-11-09T15:11:37.85</time>
      </trkpt>
      <trkpt lat="38.53308" lon="-0.9530916666666667">
        <ele>1695.3000000000018</ele>
        <time>2013-11-09T15:11:38.85</time>
      </trkpt>
      <trkpt lat="38.532963333333335" lon="-0.9529366666666667">
        <ele>1697.4000000000017</ele>
        <time>2013-11-09T15:11:39.93</time>
      </trkpt>
      <trkpt lat="38.532851666666666" lon="-0.9527733333333334">
        <ele>1699.0000000000016</ele>
        <time>2013-11-09T15:11:40.90</time>
      </trkpt>
      <trkpt lat="38.53273166666666" lon="-0.9525866666666667">
        <ele>1701.5000000000016</ele>
        <time>2013-11-09T15:11:41.84</time>
      </trkpt>
      <trkpt lat="38.53264" lon="-0.9523533333333333">
        <ele>1703.6000000000015</ele>
        <time>2013-11-09T15:11:42.84</time>
      </trkpt>
      <trkpt lat="38.53256833333333" lon="-0.9521333333333334">
        <ele>1705.2000000000014</ele>
        <time>2013-11-09T15:11:43.91</time>
      </trkpt>
      <trkpt lat="38.53254" lon="-0.9519116666666666">
        <ele>1707.0000000000014</ele>
        <time>2013-11-09T15:11:44.81</time>
      </trkpt>
      <trkpt lat="38.53252666666667" lon="-0.9517">
        <ele>1708.6000000000013</ele>
        <time>2013-11-09T15:11:45.84</time>
      </trkpt>
      <trkpt lat="38.53252666666667" lon="-0.9515116666666666">
        <ele>1710.2000000000012</ele>
        <time>2013-11-09T15:11:46.80</time>
      </trkpt>
      <trkpt lat="38.53252833333333" lon="-0.9513166666666667">
        <ele>1711.5000000000011</ele>
        <time>2013-11-09T15:11:47.85</time>
      </trkpt>
      <trkpt lat="38.53254833333333" lon="-0.95114">
        <ele>1713.0000000000011</ele>
        <time>2013-11-09T15:11:48.85</time>
      </trkpt>
      <trkpt lat="38.532595" lon="-0.950975">
        <ele>1714.100000000001</ele>
        <time>2013-11-09T15:11:49.84</time>
      </trkpt>
      <trkpt lat="38.532651666666666" lon="-0.950835">
        <ele>1714.600000000001</ele>
        <time>2013-11-09T15:11:50.91</time>
      </trkpt>
      <trkpt lat="38.53275" lon="-0.950745">
        <ele>1715.0000000000011</ele>
        <time>2013-11-09T15:11:51.85</time>
      </trkpt>
      <trkpt lat="38.53283666666667" lon="-0.9507049999999999">
        <ele>1715.7000000000012</ele>
        <time>2013-11-09T15:11:52.87</time>
      </trkpt>
      <trkpt lat="38.532885" lon="-0.9506966666666667">
        <ele>1716.1000000000013</ele>
        <time>2013-11-09T15:11:53.84</time>
      </trkpt>
      <trkpt lat="38.53290833333333" lon="-0.9506966666666667">
        <ele>1716.2000000000012</ele>
        <time>2013-11-09T15:11:54.96</time>
      </trkpt>
      <trkpt lat="38.532925" lon="-0.9507033333333333">
        <ele>1716.300000000001</ele>
        <time>2013-11-09T15:11:55.85</time>
      </trkpt>
      <trkpt lat="38.532918333333335" lon="-0.9507333333333333">
        <ele>1717</ele>
        <time>2013-11-09T15:11:58.84</time>
      </trkpt>
      <trkpt lat="38.532885" lon="-0.9507333333333333">
        <ele>1717.2</ele>
        <time>2013-11-09T15:11:59.80</time>
      </trkpt>
      <trkpt lat="38.53284" lon="-0.9507316666666666">
        <ele>1717.5</ele>
        <time>2013-11-09T15:12:00.85</time>
      </trkpt>
      <trkpt lat="38.53279833333333" lon="-0.9507316666666666">
        <ele>1717.8</ele>
        <time>2013-11-09T15:12:01.85</time>
      </trkpt>
      <trkpt lat="38.532763333333335" lon="-0.9507316666666666">
        <ele>1718.1</ele>
        <time>2013-11-09T15:12:02.86</time>
      </trkpt>
      <trkpt lat="38.53273333333333" lon="-0.95073">
        <ele>1718.5</ele>
        <time>2013-11-09T15:12:03.85</time>
      </trkpt>
      <trkpt lat="38.532705" lon="-0.9507266666666666">
        <ele>1718.9</ele>
        <time>2013-11-09T15:12:04.85</time>
      </trkpt>
      <trkpt lat="38.53268" lon="-0.95072">
        <ele>1719.3000000000002</ele>
        <time>2013-11-09T15:12:05.85</time>
      </trkpt>
      <trkpt lat="38.53265666666667" lon="-0.95071">
        <ele>1719.8000000000002</ele>
        <time>2013-11-09T15:12:06.85</time>
      </trkpt>
      <trkpt lat="38.532621666666664" lon="-0.9507083333333333">
        <ele>1720.3000000000002</ele>
        <time>2013-11-09T15:12:07.85</time>
      </trkpt>
      <trkpt lat="38.53257166666667" lon="-0.9507083333333333">
        <ele>1724.9</ele>
        <time>2013-11-09T15:12:08.80</time>
      </trkpt>
      <trkpt lat="38.532495" lon="-0.9506983333333333">
        <ele>1728.6000000000001</ele>
        <time>2013-11-09T15:12:09.84</time>
      </trkpt>
      <trkpt lat="38.532401666666665" lon="-0.9506766666666666">
        <ele>1731.6000000000001</ele>
        <time>2013-11-09T15:12:10.84</time>
      </trkpt>
      <trkpt lat="38.532295" lon="-0.9506433333333334">
        <ele>1734.2</ele>
        <time>2013-11-09T15:12:11.85</time>
      </trkpt>
      <trkpt lat="38.532176666666665" lon="-0.9506016666666667">
        <ele>1736.5</ele>
        <time>2013-11-09T15:12:12.87</time>
      </trkpt>
      <trkpt lat="38.532045" lon="-0.9505016666666666">
        <ele>1738.5</ele>
        <time>2013-11-09T15:12:13.84</time>
      </trkpt>
      <trkpt lat="38.53190166666667" lon="-0.9503833333333334">
        <ele>1740.3</ele>
        <time>2013-11-09T15:12:14.80</time>
      </trkpt>
      <trkpt lat="38.531756666666666" lon="-0.9502416666666667">
        <ele>1742.1</ele>
        <time>2013-11-09T15:12:15.84</time>
      </trkpt>
      <trkpt lat="38.53163166666667" lon="-0.9500383333333333">
        <ele>1744</ele>
        <time>2013-11-09T15:12:16.85</time>
      </trkpt>
      <trkpt lat="38.53152166666667" lon="-0.9498266666666667">
        <ele>1745.7</ele>
        <time>2013-11-09T15:12:17.85</time>
      </trkpt>
      <trkpt lat="38.531423333333336" lon="-0.9496116666666666">
        <ele>1747.7</ele>
        <time>2013-11-09T15:12:18.84</time>
      </trkpt>
      <trkpt lat="38.531365" lon="-0.9493783333333333">
        <ele>1749.4</ele>
        <time>2013-11-09T15:12:19.84</time>
      </trkpt>
      <trkpt lat="38.531303333333334" lon="-0.9491416666666667">
        <ele>1750.6000000000001</ele>
        <time>2013-11-09T15:12:20.84</time>
      </trkpt>
      <trkpt lat="38.531263333333335" lon="-0.9488966666666666">
        <ele>1751.4</ele>
        <time>2013-11-09T15:12:21.85</time>
      </trkpt>
      <trkpt lat="38.531283333333334" lon="-0.948655">
        <ele>1752.1000000000001</ele>
        <time>2013-11-09T15:12:22.84</time>
      </trkpt>
      <trkpt lat="38.531303333333334" lon="-0.9484433333333333">
        <ele>1752.7</ele>
        <time>2013-11-09T15:12:23.84</time>
      </trkpt>
      <trkpt lat="38.531345" lon="-0.9482733333333333">
        <ele>1753.2</ele>
        <time>2013-11-09T15:12:24.84</time>
      </trkpt>
      <trkpt lat="38.53138833333333" lon="-0.9481483333333334">
        <ele>1753.7</ele>
        <time>2013-11-09T15:12:25.84</time>
      </trkpt>
      <trkpt lat="38.53145333333333" lon="-0.94806">
        <ele>1754.1000000000001</ele>
        <time>2013-11-09T15:12:26.84</time>
      </trkpt>
      <trkpt lat="38.53151166666667" lon="-0.947995">
        <ele>1754.6000000000001</ele>
        <time>2013-11-09T15:12:27.84</time>
      </trkpt>
      <trkpt lat="38.53155666666667" lon="-0.9479433333333334">
        <ele>1755.7</ele>
        <time>2013-11-09T15:12:28.84</time>
      </trkpt>
      <trkpt lat="38.53158666666667" lon="-0.9479766666666667">
        <ele>1755.9</ele>
        <time>2013-11-09T15:12:31.85</time>
      </trkpt>
      <trkpt lat="38.53154" lon="-0.9480149999999999">
        <ele>1757.5</ele>
        <time>2013-11-09T15:12:32.85</time>
      </trkpt>
      <trkpt lat="38.53143" lon="-0.9479916666666667">
        <ele>1758.8</ele>
        <time>2013-11-09T15:12:33.84</time>
      </trkpt>
      <trkpt lat="38.53131166666667" lon="-0.9479283333333334">
        <ele>1759.7</ele>
        <time>2013-11-09T15:12:34.84</time>
      </trkpt>
      <trkpt lat="38.531185" lon="-0.9478616666666666">
        <ele>1760.8</ele>
        <time>2013-11-09T15:12:35.84</time>
      </trkpt>
      <trkpt lat="38.53102666666667" lon="-0.9477633333333333">
        <ele>1760.7</ele>
        <time>2013-11-09T15:12:36.85</time>
      </trkpt>
      <trkpt lat="38.53088" lon="-0.9476049999999999">
        <ele>1760</ele>
        <time>2013-11-09T15:12:37.85</time>
      </trkpt>
      <trkpt lat="38.530746666666666" lon="-0.9474416666666666">
        <ele>1759.6</ele>
        <time>2013-11-09T15:12:38.85</time>
      </trkpt>
      <trkpt lat="38.53062333333333" lon="-0.947265">
        <ele>1758.6</ele>
        <time>2013-11-09T15:12:39.84</time>
      </trkpt>
      <trkpt lat="38.530545" lon="-0.9470500000000001">
        <ele>1758.3</ele>
        <time>2013-11-09T15:12:40.81</time>
      </trkpt>
      <trkpt lat="38.53047" lon="-0.9468233333333332">
        <ele>1758.5</ele>
        <time>2013-11-09T15:12:41.92</time>
      </trkpt>
      <trkpt lat="38.53042" lon="-0.9466033333333334">
        <ele>1758.7</ele>
        <time>2013-11-09T15:12:42.85</time>
      </trkpt>
      <trkpt lat="38.53038166666666" lon="-0.9464016666666667">
        <ele>1758.9</ele>
        <time>2013-11-09T15:12:43.84</time>
      </trkpt>
      <trkpt lat="38.53035166666667" lon="-0.94619">
        <ele>1759</ele>
        <time>2013-11-09T15:12:44.81</time>
      </trkpt>
      <trkpt lat="38.53032666666667" lon="-0.945975">
        <ele>1758.7</ele>
        <time>2013-11-09T15:12:45.81</time>
      </trkpt>
      <trkpt lat="38.530316666666664" lon="-0.9457766666666667">
        <ele>1758.4</ele>
        <time>2013-11-09T15:12:46.85</time>
      </trkpt>
      <trkpt lat="38.530343333333334" lon="-0.9455899999999999">
        <ele>1757.5</ele>
        <time>2013-11-09T15:12:47.84</time>
      </trkpt>
      <trkpt lat="38.53039666666667" lon="-0.9454316666666667">
        <ele>1756.4</ele>
        <time>2013-11-09T15:12:48.84</time>
      </trkpt>
      <trkpt lat="38.53046833333333" lon="-0.9452983333333334">
        <ele>1755.4</ele>
        <time>2013-11-09T15:12:49.80</time>
      </trkpt>
      <trkpt lat="38.530528333333336" lon="-0.9452016666666666">
        <ele>1754.8000000000002</ele>
        <time>2013-11-09T15:12:50.91</time>
      </trkpt>
      <trkpt lat="38.530585" lon="-0.9451266666666667">
        <ele>1754.4</ele>
        <time>2013-11-09T15:12:51.86</time>
      </trkpt>
      <trkpt lat="38.530635" lon="-0.9450733333333333">
        <ele>1753.7</ele>
        <time>2013-11-09T15:12:52.84</time>
      </trkpt>
      <trkpt lat="38.53068666666667" lon="-0.9450366666666666">
        <ele>1752.5</ele>
        <time>2013-11-09T15:12:53.84</time>
      </trkpt>
      <trkpt lat="38.53073833333333" lon="-0.9450233333333333">
        <ele>1751</ele>
        <time>2013-11-09T15:12:54.84</time>
      </trkpt>
      <trkpt lat="38.530785" lon="-0.945025">
        <ele>1749.4</ele>
        <time>2013-11-09T15:12:55.84</time>
      </trkpt>
      <trkpt lat="38.53082833333333" lon="-0.9450316666666667">
        <ele>1747.6000000000001</ele>
        <time>2013-11-09T15:12:56.85</time>
      </trkpt>
      <trkpt lat="38.53084666666667" lon="-0.9450633333333334">
        <ele>1747.4</ele>
        <time>2013-11-09T15:12:57.80</time>
      </trkpt>
      <trkpt lat="38.530865" lon="-0.9450916666666667">
        <ele>1747.2</ele>
        <time>2013-11-09T15:12:58.80</time>
      </trkpt>
      <trkpt lat="38.53086833333333" lon="-0.9451166666666667">
        <ele>1746.9</ele>
        <time>2013-11-09T15:12:59.85</time>
      </trkpt>
      <trkpt lat="38.530865" lon="-0.9451416666666667">
        <ele>1746.7</ele>
        <time>2013-11-09T15:13:00.85</time>
      </trkpt>
      <trkpt lat="38.53087" lon="-0.9451466666666666">
        <ele>1746.6000000000001</ele>
        <time>2013-11-09T15:13:01.86</time>
      </trkpt>
      <trkpt lat="38.530876666666664" lon="-0.9451366666666666">
        <ele>1746.5000000000002</ele>
        <time>2013-11-09T15:13:02.85</time>
      </trkpt>
      <trkpt lat="38.53089166666667" lon="-0.94511">
        <ele>1746.3000000000002</ele>
        <time>2013-11-09T15:13:03.89</time>
      </trkpt>
      <trkpt lat="38.53091166666667" lon="-0.9450516666666666">
        <ele>1745.6000000000001</ele>
        <time>2013-11-09T15:13:04.85</time>
      </trkpt>
      <trkpt lat="38.53093333333333" lon="-0.94499">
        <ele>1744.6000000000001</ele>
        <time>2013-11-09T15:13:05.85</time>
      </trkpt>
      <trkpt lat="38.53095833333333" lon="-0.9449500000000001">
        <ele>1743.7</ele>
        <time>2013-11-09T15:13:06.85</time>
      </trkpt>
      <trkpt lat="38.53099" lon="-0.9449033333333333">
        <ele>1743.3</ele>
        <time>2013-11-09T15:13:07.85</time>
      </trkpt>
      <trkpt lat="38.531031666666664" lon="-0.9448383333333333">
        <ele>1743</ele>
        <time>2013-11-09T15:13:08.84</time>
      </trkpt>
      <trkpt lat="38.53106833333333" lon="-0.9447583333333333">
        <ele>1742.5</ele>
        <time>2013-11-09T15:13:09.84</time>
      </trkpt>
      <trkpt lat="38.53109833333333" lon="-0.9446833333333333">
        <ele>1741.8</ele>
        <time>2013-11-09T15:13:10.84</time>
      </trkpt>
      <trkpt lat="38.53111666666667" lon="-0.9446333333333333">
        <ele>1741.7</ele>
        <time>2013-11-09T15:13:11.85</time>
      </trkpt>
      <trkpt lat="38.531128333333335" lon="-0.9446066666666667">
        <ele>1741.6000000000001</ele>
        <time>2013-11-09T15:13:12.85</time>
      </trkpt>
      <trkpt lat="38.53113166666667" lon="-0.9445966666666668">
        <ele>1741.6000000000001</ele>
        <time>2013-11-09T15:13:13.85</time>
      </trkpt>
      <trkpt lat="38.53113833333333" lon="-0.9445883333333334">
        <ele>1741.5000000000002</ele>
        <time>2013-11-09T15:13:14.81</time>
      </trkpt>
      <trkpt lat="38.531145" lon="-0.9445816666666667">
        <ele>1741.3000000000002</ele>
        <time>2013-11-09T15:13:15.85</time>
      </trkpt>
      <trkpt lat="38.53116" lon="-0.9445633333333333">
        <ele>1741.2000000000003</ele>
        <time>2013-11-09T15:13:16.84</time>
      </trkpt>
      <trkpt lat="38.531185" lon="-0.944535">
        <ele>1741.0000000000002</ele>
        <time>2013-11-09T15:13:17.85</time>
      </trkpt>
      <trkpt lat="38.53122666666667" lon="-0.94449">
        <ele>1738.5000000000002</ele>
        <time>2013-11-09T15:13:18.85</time>
      </trkpt>
      <trkpt lat="38.53129666666667" lon="-0.9444233333333333">
        <ele>1736.3000000000002</ele>
        <time>2013-11-09T15:13:19.85</time>
      </trkpt>
      <trkpt lat="38.53136833333333" lon="-0.9443433333333334">
        <ele>1734.5000000000002</ele>
        <time>2013-11-09T15:13:20.85</time>
      </trkpt>
      <trkpt lat="38.53144" lon="-0.9442533333333334">
        <ele>1733.1000000000001</ele>
        <time>2013-11-09T15:13:21.84</time>
      </trkpt>
      <trkpt lat="38.53151" lon="-0.9441516666666666">
        <ele>1731.9</ele>
        <time>2013-11-09T15:13:22.85</time>
      </trkpt>
      <trkpt lat="38.531575" lon="-0.9440550000000001">
        <ele>1730.6000000000001</ele>
        <time>2013-11-09T15:13:23.85</time>
      </trkpt>
      <trkpt lat="38.531636666666664" lon="-0.9439550000000001">
        <ele>1729.3000000000002</ele>
        <time>2013-11-09T15:13:24.84</time>
      </trkpt>
      <trkpt lat="38.531688333333335" lon="-0.9438650000000001">
        <ele>1728.1000000000001</ele>
        <time>2013-11-09T15:13:25.80</time>
      </trkpt>
      <trkpt lat="38.53173833333334" lon="-0.9437833333333334">
        <ele>1726.8000000000002</ele>
        <time>2013-11-09T15:13:26.84</time>
      </trkpt>
      <trkpt lat="38.53178833333333" lon="-0.9437016666666668">
        <ele>1725.1000000000001</ele>
        <time>2013-11-09T15:13:27.80</time>
      </trkpt>
      <trkpt lat="38.53184" lon="-0.9436133333333333">
        <ele>1723.3000000000002</ele>
        <time>2013-11-09T15:13:28.80</time>
      </trkpt>
      <trkpt lat="38.53189" lon="-0.9435133333333333">
        <ele>1721.6000000000001</ele>
        <time>2013-11-09T15:13:29.87</time>
      </trkpt>
      <trkpt lat="38.53194166666667" lon="-0.9433983333333333">
        <ele>1719.9</ele>
        <time>2013-11-09T15:13:30.85</time>
      </trkpt>
      <trkpt lat="38.531996666666664" lon="-0.943265">
        <ele>1718.4</ele>
        <time>2013-11-09T15:13:31.80</time>
      </trkpt>
      <trkpt lat="38.53205" lon="-0.9431283333333333">
        <ele>1716.8000000000002</ele>
        <time>2013-11-09T15:13:32.85</time>
      </trkpt>
      <trkpt lat="38.53210166666667" lon="-0.9429833333333334">
        <ele>1715.1000000000001</ele>
        <time>2013-11-09T15:13:33.79</time>
      </trkpt>
      <trkpt lat="38.53214666666667" lon="-0.9428416666666667">
        <ele>1713.2</ele>
        <time>2013-11-09T15:13:34.85</time>
      </trkpt>
      <trkpt lat="38.532181666666666" lon="-0.9426966666666666">
        <ele>1711.1000000000001</ele>
        <time>2013-11-09T15:13:35.80</time>
      </trkpt>
      <trkpt lat="38.53221833333333" lon="-0.9425583333333333">
        <ele>1709.0000000000002</ele>
        <time>2013-11-09T15:13:36.84</time>
      </trkpt>
      <trkpt lat="38.53225166666667" lon="-0.942415">
        <ele>1706.6000000000001</ele>
        <time>2013-11-09T15:13:37.84</time>
      </trkpt>
      <trkpt lat="38.532286666666664" lon="-0.94227">
        <ele>1704.1000000000001</ele>
        <time>2013-11-09T15:13:38.85</time>
      </trkpt>
      <trkpt lat="38.53232" lon="-0.9421233333333333">
        <ele>1701.9</ele>
        <time>2013-11-09T15:13:39.85</time>
      </trkpt>
      <trkpt lat="38.53235" lon="-0.94197">
        <ele>1699.6000000000001</ele>
        <time>2013-11-09T15:13:40.83</time>
      </trkpt>
      <trkpt lat="38.532378333333334" lon="-0.9418083333333332">
        <ele>1697.4</ele>
        <time>2013-11-09T15:13:41.85</time>
      </trkpt>
      <trkpt lat="38.532408333333336" lon="-0.941645">
        <ele>1695</ele>
        <time>2013-11-09T15:13:42.85</time>
      </trkpt>
      <trkpt lat="38.53243666666667" lon="-0.94148">
        <ele>1692.5</ele>
        <time>2013-11-09T15:13:43.87</time>
      </trkpt>
      <trkpt lat="38.532465" lon="-0.9413">
        <ele>1690.1</ele>
        <time>2013-11-09T15:13:44.91</time>
      </trkpt>
      <trkpt lat="38.53250166666667" lon="-0.9411333333333334">
        <ele>1687.8999999999999</ele>
        <time>2013-11-09T15:13:45.86</time>
      </trkpt>
      <trkpt lat="38.532535" lon="-0.9409633333333333">
        <ele>1685.6</ele>
        <time>2013-11-09T15:13:46.84</time>
      </trkpt>
      <trkpt lat="38.53256833333333" lon="-0.9407916666666666">
        <ele>1683.1</ele>
        <time>2013-11-09T15:13:47.85</time>
      </trkpt>
      <trkpt lat="38.532601666666665" lon="-0.9406416666666666">
        <ele>1679.8999999999999</ele>
        <time>2013-11-09T15:13:48.85</time>
      </trkpt>
      <trkpt lat="38.532635" lon="-0.9404933333333333">
        <ele>1676.6</ele>
        <time>2013-11-09T15:13:49.85</time>
      </trkpt>
      <trkpt lat="38.532671666666666" lon="-0.9403433333333333">
        <ele>1672.8999999999999</ele>
        <time>2013-11-09T15:13:50.85</time>
      </trkpt>
      <trkpt lat="38.532718333333335" lon="-0.94019">
        <ele>1669.6</ele>
        <time>2013-11-09T15:13:51.81</time>
      </trkpt>
      <trkpt lat="38.532756666666664" lon="-0.9400499999999999">
        <ele>1666.6</ele>
        <time>2013-11-09T15:13:52.85</time>
      </trkpt>
      <trkpt lat="38.53279" lon="-0.9399316666666666">
        <ele>1663.5</ele>
        <time>2013-11-09T15:13:53.85</time>
      </trkpt>
      <trkpt lat="38.53281833333333" lon="-0.9398116666666667">
        <ele>1660.2</ele>
        <time>2013-11-09T15:13:54.85</time>
      </trkpt>
      <trkpt lat="38.53285833333333" lon="-0.9396866666666667">
        <ele>1657</ele>
        <time>2013-11-09T15:13:55.85</time>
      </trkpt>
      <trkpt lat="38.532905" lon="-0.9395483333333333">
        <ele>1654</ele>
        <time>2013-11-09T15:13:56.85</time>
      </trkpt>
      <trkpt lat="38.532945" lon="-0.939405">
        <ele>1650.7</ele>
        <time>2013-11-09T15:13:57.84</time>
      </trkpt>
      <trkpt lat="38.532985" lon="-0.9392616666666667">
        <ele>1647.4</ele>
        <time>2013-11-09T15:13:58.84</time>
      </trkpt>
      <trkpt lat="38.53302333333333" lon="-0.9391216666666666">
        <ele>1644</ele>
        <time>2013-11-09T15:13:59.91</time>
      </trkpt>
      <trkpt lat="38.53306666666667" lon="-0.9389783333333334">
        <ele>1640.8</ele>
        <time>2013-11-09T15:14:00.85</time>
      </trkpt>
      <trkpt lat="38.53310666666667" lon="-0.9388383333333333">
        <ele>1637.5</ele>
        <time>2013-11-09T15:14:01.85</time>
      </trkpt>
      <trkpt lat="38.533141666666666" lon="-0.9387000000000001">
        <ele>1634.4</ele>
        <time>2013-11-09T15:14:02.84</time>
      </trkpt>
      <trkpt lat="38.53317166666667" lon="-0.9385483333333333">
        <ele>1631.4</ele>
        <time>2013-11-09T15:14:03.85</time>
      </trkpt>
      <trkpt lat="38.53320166666666" lon="-0.9384">
        <ele>1628.6000000000001</ele>
        <time>2013-11-09T15:14:04.91</time>
      </trkpt>
      <trkpt lat="38.533235" lon="-0.9382533333333334">
        <ele>1625.9</ele>
        <time>2013-11-09T15:14:05.85</time>
      </trkpt>
      <trkpt lat="38.53326666666667" lon="-0.9380966666666667">
        <ele>1623.4</ele>
        <time>2013-11-09T15:14:06.84</time>
      </trkpt>
      <trkpt lat="38.53328666666667" lon="-0.9379433333333334">
        <ele>1620.8000000000002</ele>
        <time>2013-11-09T15:14:07.84</time>
      </trkpt>
      <trkpt lat="38.53331" lon="-0.93779">
        <ele>1618.8000000000002</ele>
        <time>2013-11-09T15:14:08.84</time>
      </trkpt>
      <trkpt lat="38.53333" lon="-0.93764">
        <ele>1616.6000000000001</ele>
        <time>2013-11-09T15:14:09.85</time>
      </trkpt>
      <trkpt lat="38.53334666666667" lon="-0.93749">
        <ele>1614.6000000000001</ele>
        <time>2013-11-09T15:14:10.85</time>
      </trkpt>
      <trkpt lat="38.533363333333334" lon="-0.9373366666666667">
        <ele>1612.5000000000002</ele>
        <time>2013-11-09T15:14:11.85</time>
      </trkpt>
      <trkpt lat="38.53338333333333" lon="-0.9371766666666667">
        <ele>1610.6000000000001</ele>
        <time>2013-11-09T15:14:12.85</time>
      </trkpt>
      <trkpt lat="38.5334" lon="-0.9370183333333333">
        <ele>1608.9</ele>
        <time>2013-11-09T15:14:13.85</time>
      </trkpt>
      <trkpt lat="38.53342" lon="-0.9368583333333333">
        <ele>1607.1000000000001</ele>
        <time>2013-11-09T15:14:14.85</time>
      </trkpt>
      <trkpt lat="38.53343666666667" lon="-0.9367">
        <ele>1605.4</ele>
        <time>2013-11-09T15:14:15.85</time>
      </trkpt>
      <trkpt lat="38.533451666666664" lon="-0.9365466666666666">
        <ele>1603.7</ele>
        <time>2013-11-09T15:14:16.85</time>
      </trkpt>
      <trkpt lat="38.53346666666667" lon="-0.936385">
        <ele>1601.9</ele>
        <time>2013-11-09T15:14:17.84</time>
      </trkpt>
      <trkpt lat="38.53348" lon="-0.936225">
        <ele>1600.1000000000001</ele>
        <time>2013-11-09T15:14:18.84</time>
      </trkpt>
      <trkpt lat="38.533495" lon="-0.9360649999999999">
        <ele>1598.4</ele>
        <time>2013-11-09T15:14:19.85</time>
      </trkpt>
      <trkpt lat="38.53351166666667" lon="-0.9359066666666667">
        <ele>1596.6000000000001</ele>
        <time>2013-11-09T15:14:20.85</time>
      </trkpt>
      <trkpt lat="38.53353333333333" lon="-0.9357516666666666">
        <ele>1595.1000000000001</ele>
        <time>2013-11-09T15:14:21.85</time>
      </trkpt>
      <trkpt lat="38.53355333333333" lon="-0.9356000000000001">
        <ele>1593.7</ele>
        <time>2013-11-09T15:14:22.85</time>
      </trkpt>
      <trkpt lat="38.533568333333335" lon="-0.9354483333333333">
        <ele>1592.2</ele>
        <time>2013-11-09T15:14:23.80</time>
      </trkpt>
      <trkpt lat="38.533585" lon="-0.9352966666666667">
        <ele>1590.8</ele>
        <time>2013-11-09T15:14:24.85</time>
      </trkpt>
      <trkpt lat="38.53360333333333" lon="-0.935145">
        <ele>1589.3999999999999</ele>
        <time>2013-11-09T15:14:25.85</time>
      </trkpt>
      <trkpt lat="38.53361833333334" lon="-0.9350066666666667">
        <ele>1588.1999999999998</ele>
        <time>2013-11-09T15:14:26.85</time>
      </trkpt>
      <trkpt lat="38.53364333333333" lon="-0.9348583333333333">
        <ele>1586.8999999999999</ele>
        <time>2013-11-09T15:14:27.85</time>
      </trkpt>
      <trkpt lat="38.53367" lon="-0.9347116666666667">
        <ele>1585.6</ele>
        <time>2013-11-09T15:14:28.88</time>
      </trkpt>
      <trkpt lat="38.533696666666664" lon="-0.9345783333333333">
        <ele>1584.1</ele>
        <time>2013-11-09T15:14:29.80</time>
      </trkpt>
      <trkpt lat="38.53372" lon="-0.9344483333333333">
        <ele>1582.6</ele>
        <time>2013-11-09T15:14:30.85</time>
      </trkpt>
      <trkpt lat="38.533743333333334" lon="-0.9343199999999999">
        <ele>1580.8</ele>
        <time>2013-11-09T15:14:31.84</time>
      </trkpt>
      <trkpt lat="38.533766666666665" lon="-0.93419">
        <ele>1579</ele>
        <time>2013-11-09T15:14:32.95</time>
      </trkpt>
      <trkpt lat="38.533788333333334" lon="-0.9340683333333334">
        <ele>1577.3</ele>
        <time>2013-11-09T15:14:33.85</time>
      </trkpt>
      <trkpt lat="38.53381" lon="-0.93394">
        <ele>1575.7</ele>
        <time>2013-11-09T15:14:34.85</time>
      </trkpt>
      <trkpt lat="38.533831666666664" lon="-0.9338066666666667">
        <ele>1574</ele>
        <time>2013-11-09T15:14:35.85</time>
      </trkpt>
      <trkpt lat="38.533856666666665" lon="-0.9336599999999999">
        <ele>1572.5</ele>
        <time>2013-11-09T15:14:36.86</time>
      </trkpt>
      <trkpt lat="38.533876666666664" lon="-0.9335233333333334">
        <ele>1570.9</ele>
        <time>2013-11-09T15:14:37.94</time>
      </trkpt>
      <trkpt lat="38.53389833333333" lon="-0.9334">
        <ele>1569.4</ele>
        <time>2013-11-09T15:14:38.85</time>
      </trkpt>
      <trkpt lat="38.533924999999996" lon="-0.9332733333333334">
        <ele>1567.8000000000002</ele>
        <time>2013-11-09T15:14:39.85</time>
      </trkpt>
      <trkpt lat="38.533955" lon="-0.93314">
        <ele>1566.1000000000001</ele>
        <time>2013-11-09T15:14:40.85</time>
      </trkpt>
      <trkpt lat="38.533985" lon="-0.9330016666666666">
        <ele>1564.5000000000002</ele>
        <time>2013-11-09T15:14:41.84</time>
      </trkpt>
      <trkpt lat="38.534016666666666" lon="-0.9328649999999999">
        <ele>1562.8000000000002</ele>
        <time>2013-11-09T15:14:42.85</time>
      </trkpt>
      <trkpt lat="38.53404333333334" lon="-0.93273">
        <ele>1561.2000000000003</ele>
        <time>2013-11-09T15:14:43.84</time>
      </trkpt>
      <trkpt lat="38.53406833333333" lon="-0.9326016666666667">
        <ele>1559.6000000000004</ele>
        <time>2013-11-09T15:14:44.85</time>
      </trkpt>
      <trkpt lat="38.53409666666667" lon="-0.9324683333333332">
        <ele>1558.0000000000005</ele>
        <time>2013-11-09T15:14:45.84</time>
      </trkpt>
      <trkpt lat="38.534125" lon="-0.93233">
        <ele>1556.6000000000004</ele>
        <time>2013-11-09T15:14:46.93</time>
      </trkpt>
      <trkpt lat="38.534155" lon="-0.9321916666666666">
        <ele>1555.0000000000005</ele>
        <time>2013-11-09T15:14:47.85</time>
      </trkpt>
      <trkpt lat="38.53418333333333" lon="-0.9320583333333333">
        <ele>1553.5000000000005</ele>
        <time>2013-11-09T15:14:48.85</time>
      </trkpt>
      <trkpt lat="38.534215" lon="-0.931925">
        <ele>1551.8000000000004</ele>
        <time>2013-11-09T15:14:49.82</time>
      </trkpt>
      <trkpt lat="38.534245" lon="-0.931785">
        <ele>1550.1000000000004</ele>
        <time>2013-11-09T15:14:50.95</time>
      </trkpt>
      <trkpt lat="38.534275" lon="-0.9316483333333333">
        <ele>1548.4000000000003</ele>
        <time>2013-11-09T15:14:51.81</time>
      </trkpt>
      <trkpt lat="38.534305" lon="-0.9315116666666667">
        <ele>1546.5000000000002</ele>
        <time>2013-11-09T15:14:52.85</time>
      </trkpt>
      <trkpt lat="38.534333333333336" lon="-0.931365">
        <ele>1544.4000000000003</ele>
        <time>2013-11-09T15:14:53.85</time>
      </trkpt>
      <trkpt lat="38.53436333333333" lon="-0.9312233333333333">
        <ele>1542.2000000000003</ele>
        <time>2013-11-09T15:14:54.80</time>
      </trkpt>
      <trkpt lat="38.534391666666664" lon="-0.9310833333333334">
        <ele>1540.0000000000002</ele>
        <time>2013-11-09T15:14:55.85</time>
      </trkpt>
      <trkpt lat="38.534416666666665" lon="-0.9309416666666667">
        <ele>1537.6000000000001</ele>
        <time>2013-11-09T15:14:56.85</time>
      </trkpt>
      <trkpt lat="38.534440000000004" lon="-0.9308083333333333">
        <ele>1535.1000000000001</ele>
        <time>2013-11-09T15:14:57.85</time>
      </trkpt>
      <trkpt lat="38.53446666666667" lon="-0.9306766666666667">
        <ele>1532.8000000000002</ele>
        <time>2013-11-09T15:14:58.85</time>
      </trkpt>
      <trkpt lat="38.53449666666667" lon="-0.9305383333333332">
        <ele>1530.5000000000002</ele>
        <time>2013-11-09T15:14:59.85</time>
      </trkpt>
      <trkpt lat="38.53453" lon="-0.9304033333333332">
        <ele>1528.4000000000003</ele>
        <time>2013-11-09T15:15:00.84</time>
      </trkpt>
      <trkpt lat="38.53456" lon="-0.9302733333333334">
        <ele>1526.2000000000003</ele>
        <time>2013-11-09T15:15:01.85</time>
      </trkpt>
      <trkpt lat="38.53458833333333" lon="-0.930145">
        <ele>1524.0000000000002</ele>
        <time>2013-11-09T15:15:02.85</time>
      </trkpt>
      <trkpt lat="38.53461333333333" lon="-0.9300149999999999">
        <ele>1521.8000000000002</ele>
        <time>2013-11-09T15:15:03.85</time>
      </trkpt>
      <trkpt lat="38.53463833333333" lon="-0.9298883333333333">
        <ele>1519.6000000000001</ele>
        <time>2013-11-09T15:15:04.85</time>
      </trkpt>
      <trkpt lat="38.53466" lon="-0.9297666666666667">
        <ele>1517.4</ele>
        <time>2013-11-09T15:15:05.85</time>
      </trkpt>
      <trkpt lat="38.534688333333335" lon="-0.9296383333333333">
        <ele>1515.3000000000002</ele>
        <time>2013-11-09T15:15:06.85</time>
      </trkpt>
      <trkpt lat="38.53471666666667" lon="-0.929515">
        <ele>1513.1000000000001</ele>
        <time>2013-11-09T15:15:07.85</time>
      </trkpt>
      <trkpt lat="38.53474666666666" lon="-0.9293833333333333">
        <ele>1511.0000000000002</ele>
        <time>2013-11-09T15:15:08.85</time>
      </trkpt>
      <trkpt lat="38.534776666666666" lon="-0.9292549999999999">
        <ele>1508.8000000000002</ele>
        <time>2013-11-09T15:15:09.85</time>
      </trkpt>
      <trkpt lat="38.534805" lon="-0.92913">
        <ele>1506.6000000000001</ele>
        <time>2013-11-09T15:15:10.85</time>
      </trkpt>
      <trkpt lat="38.534835" lon="-0.9290033333333334">
        <ele>1504.4</ele>
        <time>2013-11-09T15:15:11.81</time>
      </trkpt>
      <trkpt lat="38.534861666666664" lon="-0.9288716666666667">
        <ele>1502.3000000000002</ele>
        <time>2013-11-09T15:15:12.85</time>
      </trkpt>
      <trkpt lat="38.53489" lon="-0.9287366666666668">
        <ele>1500.3000000000002</ele>
        <time>2013-11-09T15:15:13.85</time>
      </trkpt>
      <trkpt lat="38.534913333333336" lon="-0.9286150000000001">
        <ele>1498.1000000000001</ele>
        <time>2013-11-09T15:15:14.87</time>
      </trkpt>
      <trkpt lat="38.534935" lon="-0.928485">
        <ele>1495.9</ele>
        <time>2013-11-09T15:15:15.85</time>
      </trkpt>
      <trkpt lat="38.534956666666666" lon="-0.9283533333333334">
        <ele>1493.7</ele>
        <time>2013-11-09T15:15:16.85</time>
      </trkpt>
      <trkpt lat="38.534976666666665" lon="-0.9282183333333334">
        <ele>1491.5</ele>
        <time>2013-11-09T15:15:17.87</time>
      </trkpt>
      <trkpt lat="38.535005" lon="-0.9280883333333333">
        <ele>1489.6</ele>
        <time>2013-11-09T15:15:18.85</time>
      </trkpt>
      <trkpt lat="38.535035" lon="-0.9279583333333333">
        <ele>1487.8999999999999</ele>
        <time>2013-11-09T15:15:19.86</time>
      </trkpt>
      <trkpt lat="38.535061666666664" lon="-0.9278316666666666">
        <ele>1486.1999999999998</ele>
        <time>2013-11-09T15:15:20.85</time>
      </trkpt>
      <trkpt lat="38.535085" lon="-0.9277116666666667">
        <ele>1484.2999999999997</ele>
        <time>2013-11-09T15:15:21.86</time>
      </trkpt>
      <trkpt lat="38.53511" lon="-0.9275766666666667">
        <ele>1481.6999999999998</ele>
        <time>2013-11-09T15:15:22.90</time>
      </trkpt>
      <trkpt lat="38.535125" lon="-0.92746">
        <ele>1479.2999999999997</ele>
        <time>2013-11-09T15:15:23.86</time>
      </trkpt>
      <trkpt lat="38.53514666666667" lon="-0.9273333333333333">
        <ele>1476.8999999999996</ele>
        <time>2013-11-09T15:15:24.86</time>
      </trkpt>
      <trkpt lat="38.53517" lon="-0.9272183333333334">
        <ele>1474.3999999999996</ele>
        <time>2013-11-09T15:15:25.85</time>
      </trkpt>
      <trkpt lat="38.53519" lon="-0.9271166666666667">
        <ele>1471.7999999999997</ele>
        <time>2013-11-09T15:15:26.86</time>
      </trkpt>
      <trkpt lat="38.53521833333333" lon="-0.9270083333333333">
        <ele>1469.2999999999997</ele>
        <time>2013-11-09T15:15:27.84</time>
      </trkpt>
      <trkpt lat="38.535245" lon="-0.9268983333333334">
        <ele>1466.7999999999997</ele>
        <time>2013-11-09T15:15:28.84</time>
      </trkpt>
      <trkpt lat="38.53527166666667" lon="-0.9267816666666667">
        <ele>1464.1999999999998</ele>
        <time>2013-11-09T15:15:29.83</time>
      </trkpt>
      <trkpt lat="38.53529666666667" lon="-0.9266433333333333">
        <ele>1461.6999999999998</ele>
        <time>2013-11-09T15:15:30.85</time>
      </trkpt>
      <trkpt lat="38.53531" lon="-0.9264783333333334">
        <ele>1459.2999999999997</ele>
        <time>2013-11-09T15:15:31.87</time>
      </trkpt>
      <trkpt lat="38.535318333333336" lon="-0.9262866666666666">
        <ele>1457.0999999999997</ele>
        <time>2013-11-09T15:15:32.84</time>
      </trkpt>
      <trkpt lat="38.53530333333333" lon="-0.9260983333333334">
        <ele>1454.7999999999997</ele>
        <time>2013-11-09T15:15:33.84</time>
      </trkpt>
      <trkpt lat="38.53526166666666" lon="-0.9258816666666667">
        <ele>1452.4999999999998</ele>
        <time>2013-11-09T15:15:34.80</time>
      </trkpt>
      <trkpt lat="38.53520833333333" lon="-0.9256866666666668">
        <ele>1450.3999999999999</ele>
        <time>2013-11-09T15:15:35.85</time>
      </trkpt>
      <trkpt lat="38.53512333333333" lon="-0.92549">
        <ele>1448.3</ele>
        <time>2013-11-09T15:15:36.81</time>
      </trkpt>
      <trkpt lat="38.53504" lon="-0.925295">
        <ele>1446.3</ele>
        <time>2013-11-09T15:15:37.84</time>
      </trkpt>
      <trkpt lat="38.53494833333333" lon="-0.9251">
        <ele>1444.2</ele>
        <time>2013-11-09T15:15:38.84</time>
      </trkpt>
      <trkpt lat="38.53485166666667" lon="-0.924885">
        <ele>1442.3</ele>
        <time>2013-11-09T15:15:39.85</time>
      </trkpt>
      <trkpt lat="38.53474166666667" lon="-0.924685">
        <ele>1440.5</ele>
        <time>2013-11-09T15:15:40.92</time>
      </trkpt>
      <trkpt lat="38.534621666666666" lon="-0.9245">
        <ele>1438.4</ele>
        <time>2013-11-09T15:15:41.85</time>
      </trkpt>
      <trkpt lat="38.53449666666667" lon="-0.924315">
        <ele>1436.2</ele>
        <time>2013-11-09T15:15:42.84</time>
      </trkpt>
      <trkpt lat="38.534355" lon="-0.9241349999999999">
        <ele>1434.1000000000001</ele>
        <time>2013-11-09T15:15:43.85</time>
      </trkpt>
      <trkpt lat="38.534195" lon="-0.9239816666666666">
        <ele>1432.3000000000002</ele>
        <time>2013-11-09T15:15:44.85</time>
      </trkpt>
      <trkpt lat="38.534045" lon="-0.9238166666666667">
        <ele>1430.6000000000001</ele>
        <time>2013-11-09T15:15:45.85</time>
      </trkpt>
      <trkpt lat="38.533901666666665" lon="-0.9236583333333334">
        <ele>1428.3000000000002</ele>
        <time>2013-11-09T15:15:46.84</time>
      </trkpt>
      <trkpt lat="38.53375833333333" lon="-0.9234950000000001">
        <ele>1426.2000000000003</ele>
        <time>2013-11-09T15:15:47.85</time>
      </trkpt>
      <trkpt lat="38.53361666666667" lon="-0.9233283333333334">
        <ele>1424.3000000000002</ele>
        <time>2013-11-09T15:15:48.85</time>
      </trkpt>
      <trkpt lat="38.533478333333335" lon="-0.9231583333333333">
        <ele>1422.5000000000002</ele>
        <time>2013-11-09T15:15:49.85</time>
      </trkpt>
      <trkpt lat="38.53334" lon="-0.92299">
        <ele>1420.7000000000003</ele>
        <time>2013-11-09T15:15:50.83</time>
      </trkpt>
      <trkpt lat="38.533205" lon="-0.9228183333333334">
        <ele>1418.1000000000004</ele>
        <time>2013-11-09T15:15:51.81</time>
      </trkpt>
      <trkpt lat="38.53307" lon="-0.9226433333333334">
        <ele>1415.5000000000005</ele>
        <time>2013-11-09T15:15:52.81</time>
      </trkpt>
      <trkpt lat="38.53294666666667" lon="-0.9224716666666667">
        <ele>1412.3000000000004</ele>
        <time>2013-11-09T15:15:53.85</time>
      </trkpt>
      <trkpt lat="38.53282333333333" lon="-0.9223016666666666">
        <ele>1409.0000000000005</ele>
        <time>2013-11-09T15:15:54.85</time>
      </trkpt>
      <trkpt lat="38.53270333333333" lon="-0.9221383333333333">
        <ele>1405.9000000000005</ele>
        <time>2013-11-09T15:15:55.88</time>
      </trkpt>
      <trkpt lat="38.53257166666667" lon="-0.9219883333333333">
        <ele>1403.1000000000006</ele>
        <time>2013-11-09T15:15:56.82</time>
      </trkpt>
      <trkpt lat="38.53243833333333" lon="-0.9218383333333333">
        <ele>1400.2000000000005</ele>
        <time>2013-11-09T15:15:57.81</time>
      </trkpt>
      <trkpt lat="38.53229666666667" lon="-0.9216866666666667">
        <ele>1397.5000000000005</ele>
        <time>2013-11-09T15:15:58.85</time>
      </trkpt>
      <trkpt lat="38.532155" lon="-0.9215333333333333">
        <ele>1395.0000000000005</ele>
        <time>2013-11-09T15:15:59.85</time>
      </trkpt>
      <trkpt lat="38.532015" lon="-0.92139">
        <ele>1392.7000000000005</ele>
        <time>2013-11-09T15:16:00.85</time>
      </trkpt>
      <trkpt lat="38.53187833333333" lon="-0.9212466666666667">
        <ele>1390.7000000000005</ele>
        <time>2013-11-09T15:16:01.86</time>
      </trkpt>
      <trkpt lat="38.53174166666667" lon="-0.9211016666666667">
        <ele>1388.8000000000004</ele>
        <time>2013-11-09T15:16:02.85</time>
      </trkpt>
      <trkpt lat="38.53160833333333" lon="-0.9209583333333333">
        <ele>1386.6000000000004</ele>
        <time>2013-11-09T15:16:03.85</time>
      </trkpt>
      <trkpt lat="38.53147166666667" lon="-0.9208083333333333">
        <ele>1384.4000000000003</ele>
        <time>2013-11-09T15:16:04.85</time>
      </trkpt>
      <trkpt lat="38.531333333333336" lon="-0.92066">
        <ele>1381.7000000000003</ele>
        <time>2013-11-09T15:16:05.85</time>
      </trkpt>
      <trkpt lat="38.5312" lon="-0.9205183333333333">
        <ele>1378.4000000000003</ele>
        <time>2013-11-09T15:16:06.83</time>
      </trkpt>
      <trkpt lat="38.531065" lon="-0.9203716666666666">
        <ele>1374.9000000000003</ele>
        <time>2013-11-09T15:16:07.80</time>
      </trkpt>
      <trkpt lat="38.53092" lon="-0.9202100000000001">
        <ele>1371.6000000000004</ele>
        <time>2013-11-09T15:16:08.84</time>
      </trkpt>
      <trkpt lat="38.530791666666666" lon="-0.92005">
        <ele>1368.5000000000005</ele>
        <time>2013-11-09T15:16:09.85</time>
      </trkpt>
      <trkpt lat="38.53069" lon="-0.9199066666666667">
        <ele>1364.8000000000004</ele>
        <time>2013-11-09T15:16:10.84</time>
      </trkpt>
      <trkpt lat="38.53058" lon="-0.91977">
        <ele>1361.3000000000004</ele>
        <time>2013-11-09T15:16:11.79</time>
      </trkpt>
      <trkpt lat="38.530456666666666" lon="-0.9196433333333334">
        <ele>1358.2000000000005</ele>
        <time>2013-11-09T15:16:12.84</time>
      </trkpt>
      <trkpt lat="38.530325" lon="-0.9195283333333334">
        <ele>1355.4000000000005</ele>
        <time>2013-11-09T15:16:13.84</time>
      </trkpt>
      <trkpt lat="38.53019" lon="-0.9194116666666667">
        <ele>1352.4000000000005</ele>
        <time>2013-11-09T15:16:14.84</time>
      </trkpt>
      <trkpt lat="38.530046666666664" lon="-0.919295">
        <ele>1349.3000000000006</ele>
        <time>2013-11-09T15:16:15.84</time>
      </trkpt>
      <trkpt lat="38.529923333333336" lon="-0.9191833333333334">
        <ele>1346.1000000000006</ele>
        <time>2013-11-09T15:16:16.84</time>
      </trkpt>
      <trkpt lat="38.52981166666667" lon="-0.9190699999999999">
        <ele>1342.7000000000005</ele>
        <time>2013-11-09T15:16:17.84</time>
      </trkpt>
      <trkpt lat="38.52968333333333" lon="-0.918945">
        <ele>1339.6000000000006</ele>
        <time>2013-11-09T15:16:18.84</time>
      </trkpt>
      <trkpt lat="38.52954166666667" lon="-0.9188016666666667">
        <ele>1336.5000000000007</ele>
        <time>2013-11-09T15:16:19.84</time>
      </trkpt>
      <trkpt lat="38.529395" lon="-0.918655">
        <ele>1333.5000000000007</ele>
        <time>2013-11-09T15:16:20.84</time>
      </trkpt>
      <trkpt lat="38.52924" lon="-0.91849">
        <ele>1330.8000000000006</ele>
        <time>2013-11-09T15:16:21.84</time>
      </trkpt>
      <trkpt lat="38.52911" lon="-0.9183216666666667">
        <ele>1328.5000000000007</ele>
        <time>2013-11-09T15:16:22.83</time>
      </trkpt>
      <trkpt lat="38.52898833333333" lon="-0.9181683333333334">
        <ele>1326.3000000000006</ele>
        <time>2013-11-09T15:16:23.84</time>
      </trkpt>
      <trkpt lat="38.528868333333335" lon="-0.9180200000000001">
        <ele>1324.1000000000006</ele>
        <time>2013-11-09T15:16:24.84</time>
      </trkpt>
      <trkpt lat="38.528765" lon="-0.91788">
        <ele>1320.5000000000007</ele>
        <time>2013-11-09T15:16:25.84</time>
      </trkpt>
      <trkpt lat="38.52864833333334" lon="-0.9177383333333334">
        <ele>1316.7000000000007</ele>
        <time>2013-11-09T15:16:26.85</time>
      </trkpt>
      <trkpt lat="38.52851833333333" lon="-0.9175850000000001">
        <ele>1312.9000000000008</ele>
        <time>2013-11-09T15:16:27.84</time>
      </trkpt>
      <trkpt lat="38.52838666666667" lon="-0.9174216666666666">
        <ele>1309.0000000000007</ele>
        <time>2013-11-09T15:16:28.84</time>
      </trkpt>
      <trkpt lat="38.528263333333335" lon="-0.9172566666666667">
        <ele>1305.4000000000008</ele>
        <time>2013-11-09T15:16:29.84</time>
      </trkpt>
      <trkpt lat="38.52815" lon="-0.9170833333333334">
        <ele>1302.2000000000007</ele>
        <time>2013-11-09T15:16:30.84</time>
      </trkpt>
      <trkpt lat="38.528045" lon="-0.9169133333333334">
        <ele>1298.8000000000006</ele>
        <time>2013-11-09T15:16:31.81</time>
      </trkpt>
      <trkpt lat="38.527935" lon="-0.9167416666666667">
        <ele>1295.3000000000006</ele>
        <time>2013-11-09T15:16:32.84</time>
      </trkpt>
      <trkpt lat="38.527825" lon="-0.9165783333333334">
        <ele>1291.8000000000006</ele>
        <time>2013-11-09T15:16:33.85</time>
      </trkpt>
      <trkpt lat="38.52771" lon="-0.9164066666666667">
        <ele>1288.3000000000006</ele>
        <time>2013-11-09T15:16:34.84</time>
      </trkpt>
      <trkpt lat="38.527593333333336" lon="-0.9162283333333333">
        <ele>1285.6000000000006</ele>
        <time>2013-11-09T15:16:35.85</time>
      </trkpt>
      <trkpt lat="38.527476666666665" lon="-0.9160466666666667">
        <ele>1282.8000000000006</ele>
        <time>2013-11-09T15:16:36.85</time>
      </trkpt>
      <trkpt lat="38.527355" lon="-0.91587">
        <ele>1280.1000000000006</ele>
        <time>2013-11-09T15:16:37.84</time>
      </trkpt>
      <trkpt lat="38.52724333333333" lon="-0.9156983333333333">
        <ele>1276.4000000000005</ele>
        <time>2013-11-09T15:16:38.84</time>
      </trkpt>
      <trkpt lat="38.527123333333336" lon="-0.9155300000000001">
        <ele>1273.2000000000005</ele>
        <time>2013-11-09T15:16:39.84</time>
      </trkpt>
      <trkpt lat="38.52700166666666" lon="-0.91536">
        <ele>1270.1000000000006</ele>
        <time>2013-11-09T15:16:40.81</time>
      </trkpt>
      <trkpt lat="38.52688" lon="-0.9151883333333333">
        <ele>1267.2000000000005</ele>
        <time>2013-11-09T15:16:41.85</time>
      </trkpt>
      <trkpt lat="38.52675833333333" lon="-0.9150183333333334">
        <ele>1264.5000000000005</ele>
        <time>2013-11-09T15:16:42.84</time>
      </trkpt>
      <trkpt lat="38.52663666666667" lon="-0.914855">
        <ele>1261.6000000000004</ele>
        <time>2013-11-09T15:16:43.85</time>
      </trkpt>
      <trkpt lat="38.526515" lon="-0.9146966666666666">
        <ele>1258.8000000000004</ele>
        <time>2013-11-09T15:16:44.84</time>
      </trkpt>
      <trkpt lat="38.526403333333334" lon="-0.9145433333333333">
        <ele>1255.4000000000003</ele>
        <time>2013-11-09T15:16:45.81</time>
      </trkpt>
      <trkpt lat="38.52629" lon="-0.9143866666666667">
        <ele>1251.8000000000004</ele>
        <time>2013-11-09T15:16:46.85</time>
      </trkpt>
      <trkpt lat="38.52617333333333" lon="-0.9142316666666667">
        <ele>1248.2000000000005</ele>
        <time>2013-11-09T15:16:47.84</time>
      </trkpt>
      <trkpt lat="38.52605333333333" lon="-0.91408">
        <ele>1244.3000000000004</ele>
        <time>2013-11-09T15:16:48.84</time>
      </trkpt>
      <trkpt lat="38.52592333333333" lon="-0.9139233333333333">
        <ele>1240.8000000000004</ele>
        <time>2013-11-09T15:16:49.84</time>
      </trkpt>
      <trkpt lat="38.525796666666665" lon="-0.9137766666666667">
        <ele>1237.4000000000003</ele>
        <time>2013-11-09T15:16:50.85</time>
      </trkpt>
      <trkpt lat="38.52567166666667" lon="-0.913635">
        <ele>1233.9000000000003</ele>
        <time>2013-11-09T15:16:51.87</time>
      </trkpt>
      <trkpt lat="38.52554833333333" lon="-0.9134866666666667">
        <ele>1230.5000000000002</ele>
        <time>2013-11-09T15:16:52.84</time>
      </trkpt>
      <trkpt lat="38.52542" lon="-0.913335">
        <ele>1227.6000000000001</ele>
        <time>2013-11-09T15:16:53.85</time>
      </trkpt>
      <trkpt lat="38.52529666666667" lon="-0.9131883333333334">
        <ele>1224.4</ele>
        <time>2013-11-09T15:16:54.85</time>
      </trkpt>
      <trkpt lat="38.525175" lon="-0.9130433333333333">
        <ele>1221.2</ele>
        <time>2013-11-09T15:16:55.84</time>
      </trkpt>
      <trkpt lat="38.52505333333333" lon="-0.9129">
        <ele>1217.9</ele>
        <time>2013-11-09T15:16:56.84</time>
      </trkpt>
      <trkpt lat="38.524935" lon="-0.9127516666666666">
        <ele>1214.3000000000002</ele>
        <time>2013-11-09T15:16:57.81</time>
      </trkpt>
      <trkpt lat="38.52481" lon="-0.9126033333333333">
        <ele>1211.1000000000001</ele>
        <time>2013-11-09T15:16:58.85</time>
      </trkpt>
      <trkpt lat="38.524683333333336" lon="-0.9124599999999999">
        <ele>1208.2</ele>
        <time>2013-11-09T15:16:59.84</time>
      </trkpt>
      <trkpt lat="38.52455666666667" lon="-0.912315">
        <ele>1205.5</ele>
        <time>2013-11-09T15:17:00.84</time>
      </trkpt>
      <trkpt lat="38.52442333333333" lon="-0.912175">
        <ele>1203.1</ele>
        <time>2013-11-09T15:17:02.13</time>
      </trkpt>
      <trkpt lat="38.524295" lon="-0.9120383333333333">
        <ele>1200.3999999999999</ele>
        <time>2013-11-09T15:17:02.85</time>
      </trkpt>
      <trkpt lat="38.524168333333336" lon="-0.9118999999999999">
        <ele>1197.6</ele>
        <time>2013-11-09T15:17:03.85</time>
      </trkpt>
      <trkpt lat="38.52403833333333" lon="-0.9117583333333333">
        <ele>1194.8</ele>
        <time>2013-11-09T15:17:04.84</time>
      </trkpt>
      <trkpt lat="38.52390833333333" lon="-0.911625">
        <ele>1192.2</ele>
        <time>2013-11-09T15:17:05.94</time>
      </trkpt>
      <trkpt lat="38.523775" lon="-0.91149">
        <ele>1189.8</ele>
        <time>2013-11-09T15:17:06.94</time>
      </trkpt>
      <trkpt lat="38.52364333333333" lon="-0.9113416666666667">
        <ele>1187.3</ele>
        <time>2013-11-09T15:17:07.84</time>
      </trkpt>
      <trkpt lat="38.52352333333333" lon="-0.911175">
        <ele>1184.8999999999999</ele>
        <time>2013-11-09T15:17:08.84</time>
      </trkpt>
      <trkpt lat="38.523408333333336" lon="-0.9110033333333334">
        <ele>1182.3999999999999</ele>
        <time>2013-11-09T15:17:09.87</time>
      </trkpt>
      <trkpt lat="38.523293333333335" lon="-0.9108383333333333">
        <ele>1179.8999999999999</ele>
        <time>2013-11-09T15:17:10.84</time>
      </trkpt>
      <trkpt lat="38.523183333333336" lon="-0.9106716666666668">
        <ele>1176.6999999999998</ele>
        <time>2013-11-09T15:17:11.85</time>
      </trkpt>
      <trkpt lat="38.523068333333335" lon="-0.910515">
        <ele>1173.6999999999998</ele>
        <time>2013-11-09T15:17:12.85</time>
      </trkpt>
      <trkpt lat="38.522956666666666" lon="-0.9103516666666667">
        <ele>1170.9999999999998</ele>
        <time>2013-11-09T15:17:13.84</time>
      </trkpt>
      <trkpt lat="38.52285833333333" lon="-0.9101733333333333">
        <ele>1168.3999999999999</ele>
        <time>2013-11-09T15:17:14.84</time>
      </trkpt>
      <trkpt lat="38.522785" lon="-0.9099900000000001">
        <ele>1164.1</ele>
        <time>2013-11-09T15:17:15.85</time>
      </trkpt>
      <trkpt lat="38.522705" lon="-0.9098233333333333">
        <ele>1159.6</ele>
        <time>2013-11-09T15:17:16.85</time>
      </trkpt>
      <trkpt lat="38.522598333333335" lon="-0.9096633333333333">
        <ele>1155.5</ele>
        <time>2013-11-09T15:17:17.85</time>
      </trkpt>
      <trkpt lat="38.522485" lon="-0.9095083333333334">
        <ele>1151.5</ele>
        <time>2013-11-09T15:17:18.84</time>
      </trkpt>
      <trkpt lat="38.52236666666667" lon="-0.909345">
        <ele>1147.9</ele>
        <time>2013-11-09T15:17:19.84</time>
      </trkpt>
      <trkpt lat="38.52225" lon="-0.9091883333333333">
        <ele>1144.6000000000001</ele>
        <time>2013-11-09T15:17:20.84</time>
      </trkpt>
      <trkpt lat="38.52213166666667" lon="-0.9090333333333334">
        <ele>1142.0000000000002</ele>
        <time>2013-11-09T15:17:21.84</time>
      </trkpt>
      <trkpt lat="38.522015" lon="-0.90888">
        <ele>1139.6000000000001</ele>
        <time>2013-11-09T15:17:22.85</time>
      </trkpt>
      <trkpt lat="38.52189833333333" lon="-0.9087316666666666">
        <ele>1137.0000000000002</ele>
        <time>2013-11-09T15:17:23.84</time>
      </trkpt>
      <trkpt lat="38.52178333333333" lon="-0.908585">
        <ele>1134.5000000000002</ele>
        <time>2013-11-09T15:17:24.84</time>
      </trkpt>
      <trkpt lat="38.52166" lon="-0.9084416666666667">
        <ele>1132.3000000000002</ele>
        <time>2013-11-09T15:17:25.85</time>
      </trkpt>
      <trkpt lat="38.52153166666667" lon="-0.9082933333333333">
        <ele>1130.3000000000002</ele>
        <time>2013-11-09T15:17:26.85</time>
      </trkpt>
      <trkpt lat="38.52141" lon="-0.9081516666666667">
        <ele>1127.7000000000003</ele>
        <time>2013-11-09T15:17:27.84</time>
      </trkpt>
      <trkpt lat="38.52129" lon="-0.908015">
        <ele>1124.9000000000003</ele>
        <time>2013-11-09T15:17:28.81</time>
      </trkpt>
      <trkpt lat="38.521168333333335" lon="-0.907875">
        <ele>1122.0000000000002</ele>
        <time>2013-11-09T15:17:29.84</time>
      </trkpt>
      <trkpt lat="38.521055" lon="-0.9077383333333333">
        <ele>1119.1000000000001</ele>
        <time>2013-11-09T15:17:30.84</time>
      </trkpt>
      <trkpt lat="38.520941666666666" lon="-0.9076000000000001">
        <ele>1116.2</ele>
        <time>2013-11-09T15:17:31.87</time>
      </trkpt>
      <trkpt lat="38.520826666666665" lon="-0.90746">
        <ele>1113.3</ele>
        <time>2013-11-09T15:17:32.83</time>
      </trkpt>
      <trkpt lat="38.520711666666664" lon="-0.907325">
        <ele>1110.3999999999999</ele>
        <time>2013-11-09T15:17:33.83</time>
      </trkpt>
      <trkpt lat="38.520588333333336" lon="-0.9071916666666666">
        <ele>1107.9999999999998</ele>
        <time>2013-11-09T15:17:34.83</time>
      </trkpt>
      <trkpt lat="38.52046333333333" lon="-0.9070566666666667">
        <ele>1105.9999999999998</ele>
        <time>2013-11-09T15:17:35.84</time>
      </trkpt>
      <trkpt lat="38.52034" lon="-0.9069133333333333">
        <ele>1104.2999999999997</ele>
        <time>2013-11-09T15:17:36.84</time>
      </trkpt>
      <trkpt lat="38.52021666666667" lon="-0.90677">
        <ele>1102.5999999999997</ele>
        <time>2013-11-09T15:17:37.83</time>
      </trkpt>
      <trkpt lat="38.52009833333334" lon="-0.9066216666666667">
        <ele>1100.9999999999998</ele>
        <time>2013-11-09T15:17:38.85</time>
      </trkpt>
      <trkpt lat="38.519985" lon="-0.9064783333333334">
        <ele>1098.8999999999999</ele>
        <time>2013-11-09T15:17:39.78</time>
      </trkpt>
      <trkpt lat="38.519868333333335" lon="-0.9063333333333333">
        <ele>1096.8999999999999</ele>
        <time>2013-11-09T15:17:40.83</time>
      </trkpt>
      <trkpt lat="38.519758333333336" lon="-0.90619">
        <ele>1094.4999999999998</ele>
        <time>2013-11-09T15:17:41.83</time>
      </trkpt>
      <trkpt lat="38.519648333333336" lon="-0.9060333333333334">
        <ele>1092.2999999999997</ele>
        <time>2013-11-09T15:17:42.83</time>
      </trkpt>
      <trkpt lat="38.51954166666667" lon="-0.9058716666666666">
        <ele>1089.8999999999996</ele>
        <time>2013-11-09T15:17:43.83</time>
      </trkpt>
      <trkpt lat="38.519435" lon="-0.9057116666666667">
        <ele>1087.4999999999995</ele>
        <time>2013-11-09T15:17:44.83</time>
      </trkpt>
      <trkpt lat="38.519326666666664" lon="-0.9055516666666666">
        <ele>1085.3999999999996</ele>
        <time>2013-11-09T15:17:45.83</time>
      </trkpt>
      <trkpt lat="38.51922666666667" lon="-0.9054033333333333">
        <ele>1082.5999999999997</ele>
        <time>2013-11-09T15:17:46.83</time>
      </trkpt>
      <trkpt lat="38.51911666666667" lon="-0.90525">
        <ele>1080.2999999999997</ele>
        <time>2013-11-09T15:17:47.83</time>
      </trkpt>
      <trkpt lat="38.519011666666664" lon="-0.9050983333333333">
        <ele>1078.1999999999998</ele>
        <time>2013-11-09T15:17:48.83</time>
      </trkpt>
      <trkpt lat="38.5189" lon="-0.9049416666666666">
        <ele>1076.1999999999998</ele>
        <time>2013-11-09T15:17:49.83</time>
      </trkpt>
      <trkpt lat="38.518786666666664" lon="-0.9047833333333333">
        <ele>1074.3999999999999</ele>
        <time>2013-11-09T15:17:50.83</time>
      </trkpt>
      <trkpt lat="38.51868" lon="-0.9046433333333332">
        <ele>1072.8999999999999</ele>
        <time>2013-11-09T15:17:51.83</time>
      </trkpt>
      <trkpt lat="38.51858333333333" lon="-0.9045083333333334">
        <ele>1070.1999999999998</ele>
        <time>2013-11-09T15:17:52.83</time>
      </trkpt>
      <trkpt lat="38.51847166666667" lon="-0.9043666666666667">
        <ele>1068.1</ele>
        <time>2013-11-09T15:17:53.82</time>
      </trkpt>
      <trkpt lat="38.51835666666667" lon="-0.9042183333333333">
        <ele>1066.1999999999998</ele>
        <time>2013-11-09T15:17:54.83</time>
      </trkpt>
      <trkpt lat="38.51824" lon="-0.9040649999999999">
        <ele>1064.3999999999999</ele>
        <time>2013-11-09T15:17:55.83</time>
      </trkpt>
      <trkpt lat="38.518125" lon="-0.9039133333333333">
        <ele>1062.6999999999998</ele>
        <time>2013-11-09T15:17:56.83</time>
      </trkpt>
      <trkpt lat="38.518015" lon="-0.9037566666666667">
        <ele>1061.1</ele>
        <time>2013-11-09T15:17:57.84</time>
      </trkpt>
      <trkpt lat="38.51790666666667" lon="-0.9035949999999999">
        <ele>1059.3</ele>
        <time>2013-11-09T15:17:58.83</time>
      </trkpt>
      <trkpt lat="38.51779833333333" lon="-0.9034316666666666">
        <ele>1057.5</ele>
        <time>2013-11-09T15:17:59.83</time>
      </trkpt>
      <trkpt lat="38.517696666666666" lon="-0.9032699999999999">
        <ele>1055.6</ele>
        <time>2013-11-09T15:18:00.83</time>
      </trkpt>
      <trkpt lat="38.517595" lon="-0.9031116666666666">
        <ele>1053.5</ele>
        <time>2013-11-09T15:18:01.83</time>
      </trkpt>
      <trkpt lat="38.517498333333336" lon="-0.90296">
        <ele>1051.2</ele>
        <time>2013-11-09T15:18:02.83</time>
      </trkpt>
      <trkpt lat="38.517403333333334" lon="-0.9028050000000001">
        <ele>1048.6000000000001</ele>
        <time>2013-11-09T15:18:03.83</time>
      </trkpt>
      <trkpt lat="38.517315" lon="-0.90265">
        <ele>1046.2</ele>
        <time>2013-11-09T15:18:04.84</time>
      </trkpt>
      <trkpt lat="38.51737833333333" lon="-0.9024166666666668">
        <ele>1040.5</ele>
        <time>2013-11-09T15:18:05.80</time>
      </trkpt>
      <trkpt lat="38.51732666666667" lon="-0.9022249999999999">
        <ele>1035.5</ele>
        <time>2013-11-09T15:18:06.83</time>
      </trkpt>
      <trkpt lat="38.51730833333333" lon="-0.9019999999999999">
        <ele>1029.6</ele>
        <time>2013-11-09T15:18:07.83</time>
      </trkpt>
      <trkpt lat="38.51726333333333" lon="-0.901805">
        <ele>1024.1</ele>
        <time>2013-11-09T15:18:08.83</time>
      </trkpt>
      <trkpt lat="38.517221666666664" lon="-0.9016166666666667">
        <ele>1018.8</ele>
        <time>2013-11-09T15:18:09.83</time>
      </trkpt>
      <trkpt lat="38.517185" lon="-0.9014133333333334">
        <ele>1013.6999999999999</ele>
        <time>2013-11-09T15:18:10.83</time>
      </trkpt>
      <trkpt lat="38.51714166666667" lon="-0.9012083333333333">
        <ele>1009.4999999999999</ele>
        <time>2013-11-09T15:18:11.83</time>
      </trkpt>
      <trkpt lat="38.51710833333333" lon="-0.9010216666666667">
        <ele>1005.9999999999999</ele>
        <time>2013-11-09T15:18:12.92</time>
      </trkpt>
      <trkpt lat="38.51708166666667" lon="-0.9008316666666667">
        <ele>1003.0999999999999</ele>
        <time>2013-11-09T15:18:13.80</time>
      </trkpt>
      <trkpt lat="38.51705666666667" lon="-0.9006383333333333">
        <ele>1000.4999999999999</ele>
        <time>2013-11-09T15:18:14.84</time>
      </trkpt>
      <trkpt lat="38.51703166666667" lon="-0.9004566666666667">
        <ele>998.1999999999999</ele>
        <time>2013-11-09T15:18:15.83</time>
      </trkpt>
      <trkpt lat="38.51700833333334" lon="-0.9002783333333333">
        <ele>996.0999999999999</ele>
        <time>2013-11-09T15:18:16.83</time>
      </trkpt>
      <trkpt lat="38.51699" lon="-0.9000900000000001">
        <ele>993.4999999999999</ele>
        <time>2013-11-09T15:18:17.83</time>
      </trkpt>
      <trkpt lat="38.516978333333334" lon="-0.8999166666666666">
        <ele>990.5999999999999</ele>
        <time>2013-11-09T15:18:18.83</time>
      </trkpt>
      <trkpt lat="38.51696166666667" lon="-0.89973">
        <ele>987.8999999999999</ele>
        <time>2013-11-09T15:18:19.83</time>
      </trkpt>
      <trkpt lat="38.51694666666667" lon="-0.8995416666666666">
        <ele>985.0999999999999</ele>
        <time>2013-11-09T15:18:20.83</time>
      </trkpt>
      <trkpt lat="38.516935" lon="-0.8993749999999999">
        <ele>982.5999999999999</ele>
        <time>2013-11-09T15:18:21.79</time>
      </trkpt>
      <trkpt lat="38.516913333333335" lon="-0.8992">
        <ele>980.3999999999999</ele>
        <time>2013-11-09T15:18:22.83</time>
      </trkpt>
      <trkpt lat="38.51689" lon="-0.8990083333333333">
        <ele>978.4999999999999</ele>
        <time>2013-11-09T15:18:23.83</time>
      </trkpt>
      <trkpt lat="38.51687" lon="-0.8988200000000001">
        <ele>976.2999999999998</ele>
        <time>2013-11-09T15:18:24.87</time>
      </trkpt>
      <trkpt lat="38.51685166666667" lon="-0.8986383333333333">
        <ele>974.3999999999999</ele>
        <time>2013-11-09T15:18:25.83</time>
      </trkpt>
      <trkpt lat="38.51683833333333" lon="-0.8984733333333333">
        <ele>971.8999999999999</ele>
        <time>2013-11-09T15:18:26.83</time>
      </trkpt>
      <trkpt lat="38.516821666666665" lon="-0.8982899999999999">
        <ele>968.9999999999999</ele>
        <time>2013-11-09T15:18:27.83</time>
      </trkpt>
      <trkpt lat="38.51680666666667" lon="-0.89812">
        <ele>965.7999999999998</ele>
        <time>2013-11-09T15:18:28.83</time>
      </trkpt>
      <trkpt lat="38.51679" lon="-0.8979533333333334">
        <ele>962.4999999999999</ele>
        <time>2013-11-09T15:18:29.83</time>
      </trkpt>
      <trkpt lat="38.51676166666667" lon="-0.8977783333333333">
        <ele>959.9999999999999</ele>
        <time>2013-11-09T15:18:30.81</time>
      </trkpt>
      <trkpt lat="38.51673666666667" lon="-0.89761">
        <ele>957.8999999999999</ele>
        <time>2013-11-09T15:18:31.83</time>
      </trkpt>
      <trkpt lat="38.516708333333334" lon="-0.89743">
        <ele>955.4999999999999</ele>
        <time>2013-11-09T15:18:32.81</time>
      </trkpt>
      <trkpt lat="38.51668" lon="-0.89725">
        <ele>953.1999999999999</ele>
        <time>2013-11-09T15:18:33.83</time>
      </trkpt>
      <trkpt lat="38.516648333333336" lon="-0.8970616666666668">
        <ele>951.1999999999999</ele>
        <time>2013-11-09T15:18:34.83</time>
      </trkpt>
      <trkpt lat="38.51661166666667" lon="-0.896875">
        <ele>949.4999999999999</ele>
        <time>2013-11-09T15:18:35.83</time>
      </trkpt>
      <trkpt lat="38.51657333333333" lon="-0.89669">
        <ele>947.7999999999998</ele>
        <time>2013-11-09T15:18:36.83</time>
      </trkpt>
      <trkpt lat="38.516535" lon="-0.896505">
        <ele>945.6999999999998</ele>
        <time>2013-11-09T15:18:37.83</time>
      </trkpt>
      <trkpt lat="38.51649333333334" lon="-0.8963033333333333">
        <ele>942.8999999999999</ele>
        <time>2013-11-09T15:18:38.80</time>
      </trkpt>
      <trkpt lat="38.516455" lon="-0.8961083333333334">
        <ele>939.7999999999998</ele>
        <time>2013-11-09T15:18:39.83</time>
      </trkpt>
      <trkpt lat="38.516418333333334" lon="-0.8959166666666667">
        <ele>936.4999999999999</ele>
        <time>2013-11-09T15:18:40.83</time>
      </trkpt>
      <trkpt lat="38.516385" lon="-0.8957383333333334">
        <ele>933.0999999999999</ele>
        <time>2013-11-09T15:18:41.83</time>
      </trkpt>
      <trkpt lat="38.51635" lon="-0.8955666666666667">
        <ele>930.0999999999999</ele>
        <time>2013-11-09T15:18:42.83</time>
      </trkpt>
      <trkpt lat="38.51631666666667" lon="-0.8953966666666666">
        <ele>927.1999999999999</ele>
        <time>2013-11-09T15:18:43.83</time>
      </trkpt>
      <trkpt lat="38.516283333333334" lon="-0.895225">
        <ele>924.5999999999999</ele>
        <time>2013-11-09T15:18:44.79</time>
      </trkpt>
      <trkpt lat="38.51625166666667" lon="-0.8950466666666668">
        <ele>922.0999999999999</ele>
        <time>2013-11-09T15:18:45.83</time>
      </trkpt>
      <trkpt lat="38.516216666666665" lon="-0.8948483333333334">
        <ele>919.4999999999999</ele>
        <time>2013-11-09T15:18:46.83</time>
      </trkpt>
      <trkpt lat="38.51618166666667" lon="-0.894655">
        <ele>916.7999999999998</ele>
        <time>2013-11-09T15:18:47.83</time>
      </trkpt>
      <trkpt lat="38.516146666666664" lon="-0.8944566666666667">
        <ele>914.4999999999999</ele>
        <time>2013-11-09T15:18:48.83</time>
      </trkpt>
      <trkpt lat="38.516106666666666" lon="-0.89427">
        <ele>912.3999999999999</ele>
        <time>2013-11-09T15:18:49.80</time>
      </trkpt>
      <trkpt lat="38.516061666666666" lon="-0.89409">
        <ele>909.8999999999999</ele>
        <time>2013-11-09T15:18:50.83</time>
      </trkpt>
      <trkpt lat="38.516016666666665" lon="-0.8939133333333333">
        <ele>907.2999999999998</ele>
        <time>2013-11-09T15:18:51.83</time>
      </trkpt>
      <trkpt lat="38.515971666666665" lon="-0.8937516666666667">
        <ele>905.2999999999998</ele>
        <time>2013-11-09T15:18:52.79</time>
      </trkpt>
      <trkpt lat="38.515921666666664" lon="-0.8935833333333334">
        <ele>903.4999999999999</ele>
        <time>2013-11-09T15:18:53.83</time>
      </trkpt>
      <trkpt lat="38.515863333333336" lon="-0.8934083333333334">
        <ele>900.8999999999999</ele>
        <time>2013-11-09T15:18:54.90</time>
      </trkpt>
      <trkpt lat="38.515805" lon="-0.8932333333333333">
        <ele>898.9999999999999</ele>
        <time>2013-11-09T15:18:55.83</time>
      </trkpt>
      <trkpt lat="38.515753333333336" lon="-0.8930783333333333">
        <ele>897.4999999999999</ele>
        <time>2013-11-09T15:18:56.83</time>
      </trkpt>
      <trkpt lat="38.51570666666667" lon="-0.8929216666666666">
        <ele>896.5999999999999</ele>
        <time>2013-11-09T15:18:57.80</time>
      </trkpt>
      <trkpt lat="38.51566666666667" lon="-0.8927833333333334">
        <ele>895.8</ele>
        <time>2013-11-09T15:18:58.83</time>
      </trkpt>
      <trkpt lat="38.515633333333334" lon="-0.8926533333333333">
        <ele>895</ele>
        <time>2013-11-09T15:18:59.87</time>
      </trkpt>
      <trkpt lat="38.5156" lon="-0.892505">
        <ele>894.5</ele>
        <time>2013-11-09T15:19:00.82</time>
      </trkpt>
      <trkpt lat="38.515571666666666" lon="-0.8923366666666667">
        <ele>894</ele>
        <time>2013-11-09T15:19:01.82</time>
      </trkpt>
      <trkpt lat="38.51558333333333" lon="-0.8921633333333333">
        <ele>893.7</ele>
        <time>2013-11-09T15:19:02.82</time>
      </trkpt>
      <trkpt lat="38.5156" lon="-0.8920166666666667">
        <ele>893.9000000000001</ele>
        <time>2013-11-09T15:19:03.82</time>
      </trkpt>
      <trkpt lat="38.51564333333334" lon="-0.8919266666666666">
        <ele>895.2</ele>
        <time>2013-11-09T15:19:04.82</time>
      </trkpt>
      <trkpt lat="38.51566666666667" lon="-0.8919016666666667">
        <ele>896.5</ele>
        <time>2013-11-09T15:19:05.82</time>
      </trkpt>
      <trkpt lat="38.515685" lon="-0.8918933333333333">
        <ele>896.6</ele>
        <time>2013-11-09T15:19:06.82</time>
      </trkpt>
      <trkpt lat="38.51565333333333" lon="-0.8919816666666667">
        <ele>898.2</ele>
        <time>2013-11-09T15:19:09.82</time>
      </trkpt>
      <trkpt lat="38.51563" lon="-0.8920483333333333">
        <ele>898.5</ele>
        <time>2013-11-09T15:19:10.82</time>
      </trkpt>
      <trkpt lat="38.515541666666664" lon="-0.8921083333333333">
        <ele>897.7</ele>
        <time>2013-11-09T15:19:11.81</time>
      </trkpt>
      <trkpt lat="38.515445" lon="-0.8921483333333333">
        <ele>897.4000000000001</ele>
        <time>2013-11-09T15:19:12.82</time>
      </trkpt>
      <trkpt lat="38.51530833333333" lon="-0.8921633333333333">
        <ele>896.6000000000001</ele>
        <time>2013-11-09T15:19:13.81</time>
      </trkpt>
      <trkpt lat="38.51519166666667" lon="-0.8921133333333333">
        <ele>896.0000000000001</ele>
        <time>2013-11-09T15:19:14.82</time>
      </trkpt>
      <trkpt lat="38.515071666666664" lon="-0.89205">
        <ele>896.6000000000001</ele>
        <time>2013-11-09T15:19:15.89</time>
      </trkpt>
      <trkpt lat="38.51497666666667" lon="-0.89196">
        <ele>897.6000000000001</ele>
        <time>2013-11-09T15:19:16.86</time>
      </trkpt>
      <trkpt lat="38.514885" lon="-0.8918716666666667">
        <ele>898.8000000000002</ele>
        <time>2013-11-09T15:19:17.84</time>
      </trkpt>
      <trkpt lat="38.514786666666666" lon="-0.8917750000000001">
        <ele>899.7000000000002</ele>
        <time>2013-11-09T15:19:18.82</time>
      </trkpt>
      <trkpt lat="38.514685" lon="-0.8916716666666668">
        <ele>900.4000000000002</ele>
        <time>2013-11-09T15:19:19.82</time>
      </trkpt>
      <trkpt lat="38.51457833333333" lon="-0.8915616666666666">
        <ele>901.1000000000003</ele>
        <time>2013-11-09T15:19:20.82</time>
      </trkpt>
      <trkpt lat="38.514475" lon="-0.8914500000000001">
        <ele>902.0000000000002</ele>
        <time>2013-11-09T15:19:21.82</time>
      </trkpt>
      <trkpt lat="38.51437166666667" lon="-0.891335">
        <ele>903.2000000000003</ele>
        <time>2013-11-09T15:19:22.82</time>
      </trkpt>
      <trkpt lat="38.51428166666667" lon="-0.8912316666666666">
        <ele>904.7000000000003</ele>
        <time>2013-11-09T15:19:23.83</time>
      </trkpt>
      <trkpt lat="38.51419166666667" lon="-0.8911250000000001">
        <ele>906.2000000000003</ele>
        <time>2013-11-09T15:19:24.82</time>
      </trkpt>
      <trkpt lat="38.51409833333334" lon="-0.8910116666666668">
        <ele>908.2000000000003</ele>
        <time>2013-11-09T15:19:25.82</time>
      </trkpt>
      <trkpt lat="38.51402" lon="-0.8908983333333332">
        <ele>910.3000000000003</ele>
        <time>2013-11-09T15:19:26.82</time>
      </trkpt>
      <trkpt lat="38.51397" lon="-0.89077">
        <ele>912.4000000000003</ele>
        <time>2013-11-09T15:19:27.82</time>
      </trkpt>
      <trkpt lat="38.513935" lon="-0.8906316666666666">
        <ele>914.3000000000003</ele>
        <time>2013-11-09T15:19:28.82</time>
      </trkpt>
      <trkpt lat="38.513931666666664" lon="-0.8904733333333333">
        <ele>915.6000000000003</ele>
        <time>2013-11-09T15:19:29.82</time>
      </trkpt>
      <trkpt lat="38.51392833333333" lon="-0.8903083333333334">
        <ele>916.9000000000002</ele>
        <time>2013-11-09T15:19:30.82</time>
      </trkpt>
      <trkpt lat="38.513958333333335" lon="-0.89015">
        <ele>918.1000000000003</ele>
        <time>2013-11-09T15:19:31.82</time>
      </trkpt>
      <trkpt lat="38.514005" lon="-0.8900216666666666">
        <ele>919.5000000000002</ele>
        <time>2013-11-09T15:19:32.82</time>
      </trkpt>
      <trkpt lat="38.51405666666667" lon="-0.8899450000000001">
        <ele>921.0000000000002</ele>
        <time>2013-11-09T15:19:33.82</time>
      </trkpt>
      <trkpt lat="38.514115" lon="-0.88992">
        <ele>922.3000000000002</ele>
        <time>2013-11-09T15:19:34.82</time>
      </trkpt>
      <trkpt lat="38.514161666666666" lon="-0.88988">
        <ele>922.4000000000002</ele>
        <time>2013-11-09T15:19:35.82</time>
      </trkpt>
      <trkpt lat="38.51419666666666" lon="-0.8898316666666666">
        <ele>922.5000000000002</ele>
        <time>2013-11-09T15:19:36.82</time>
      </trkpt>
      <trkpt lat="38.514215" lon="-0.8898033333333333">
        <ele>922.5000000000002</ele>
        <time>2013-11-09T15:19:37.83</time>
      </trkpt>
      <trkpt lat="38.514225" lon="-0.889745">
        <ele>922.8000000000002</ele>
        <time>2013-11-09T15:19:38.82</time>
      </trkpt>
      <trkpt lat="38.51424333333333" lon="-0.8896683333333333">
        <ele>922.5000000000002</ele>
        <time>2013-11-09T15:19:39.82</time>
      </trkpt>
      <trkpt lat="38.514266666666664" lon="-0.8895716666666666">
        <ele>921.7000000000003</ele>
        <time>2013-11-09T15:19:40.82</time>
      </trkpt>
      <trkpt lat="38.514295" lon="-0.8894416666666667">
        <ele>921.4000000000003</ele>
        <time>2013-11-09T15:19:41.82</time>
      </trkpt>
      <trkpt lat="38.51433" lon="-0.88926">
        <ele>920.6000000000004</ele>
        <time>2013-11-09T15:19:42.82</time>
      </trkpt>
      <trkpt lat="38.51435333333333" lon="-0.8891100000000001">
        <ele>920.8000000000004</ele>
        <time>2013-11-09T15:19:43.82</time>
      </trkpt>
      <trkpt lat="38.51437" lon="-0.88895">
        <ele>921.3000000000004</ele>
        <time>2013-11-09T15:19:44.81</time>
      </trkpt>
      <trkpt lat="38.514375" lon="-0.888795">
        <ele>922.1000000000004</ele>
        <time>2013-11-09T15:19:45.80</time>
      </trkpt>
      <trkpt lat="38.51435333333333" lon="-0.8886433333333333">
        <ele>923.2000000000004</ele>
        <time>2013-11-09T15:19:46.83</time>
      </trkpt>
      <trkpt lat="38.514316666666666" lon="-0.8884666666666666">
        <ele>924.5000000000003</ele>
        <time>2013-11-09T15:19:47.82</time>
      </trkpt>
      <trkpt lat="38.514268333333334" lon="-0.88827">
        <ele>926.1000000000004</ele>
        <time>2013-11-09T15:19:48.82</time>
      </trkpt>
      <trkpt lat="38.514178333333334" lon="-0.8880716666666667">
        <ele>926.9000000000003</ele>
        <time>2013-11-09T15:19:49.83</time>
      </trkpt>
      <trkpt lat="38.51405333333334" lon="-0.8878916666666666">
        <ele>926.9000000000003</ele>
        <time>2013-11-09T15:19:50.81</time>
      </trkpt>
      <trkpt lat="38.51390166666667" lon="-0.8877633333333333">
        <ele>926.5000000000003</ele>
        <time>2013-11-09T15:19:51.82</time>
      </trkpt>
      <trkpt lat="38.51374333333333" lon="-0.8877016666666666">
        <ele>927.0000000000003</ele>
        <time>2013-11-09T15:19:52.79</time>
      </trkpt>
      <trkpt lat="38.513603333333336" lon="-0.8876666666666666">
        <ele>927.8000000000003</ele>
        <time>2013-11-09T15:19:53.81</time>
      </trkpt>
      <trkpt lat="38.51348333333333" lon="-0.8876733333333333">
        <ele>928.7000000000003</ele>
        <time>2013-11-09T15:19:54.82</time>
      </trkpt>
      <trkpt lat="38.513373333333334" lon="-0.8876883333333333">
        <ele>930.3000000000003</ele>
        <time>2013-11-09T15:19:55.86</time>
      </trkpt>
      <trkpt lat="38.51327" lon="-0.8877349999999999">
        <ele>932.3000000000003</ele>
        <time>2013-11-09T15:19:56.82</time>
      </trkpt>
      <trkpt lat="38.51318333333333" lon="-0.8877883333333333">
        <ele>933.8000000000003</ele>
        <time>2013-11-09T15:19:57.82</time>
      </trkpt>
      <trkpt lat="38.51311333333334" lon="-0.8878566666666666">
        <ele>934.8000000000003</ele>
        <time>2013-11-09T15:19:58.81</time>
      </trkpt>
      <trkpt lat="38.513083333333334" lon="-0.8879400000000001">
        <ele>935.7000000000003</ele>
        <time>2013-11-09T15:19:59.81</time>
      </trkpt>
      <trkpt lat="38.513075" lon="-0.8880166666666667">
        <ele>935.9000000000003</ele>
        <time>2013-11-09T15:20:00.81</time>
      </trkpt>
      <trkpt lat="38.513108333333335" lon="-0.8880633333333333">
        <ele>935.9000000000003</ele>
        <time>2013-11-09T15:20:01.84</time>
      </trkpt>
      <trkpt lat="38.513153333333335" lon="-0.8880750000000001">
        <ele>935.9000000000003</ele>
        <time>2013-11-09T15:20:02.81</time>
      </trkpt>
      <trkpt lat="38.51318333333333" lon="-0.8880633333333333">
        <ele>935.9000000000003</ele>
        <time>2013-11-09T15:20:03.82</time>
      </trkpt>
      <trkpt lat="38.51320833333333" lon="-0.8880266666666666">
        <ele>935.9000000000003</ele>
        <time>2013-11-09T15:20:04.81</time>
      </trkpt>
      <trkpt lat="38.513235" lon="-0.887985">
        <ele>936.3000000000003</ele>
        <time>2013-11-09T15:20:06.29</time>
      </trkpt>
      <trkpt lat="38.513263333333335" lon="-0.887935">
        <ele>936.6000000000003</ele>
        <time>2013-11-09T15:20:06.81</time>
      </trkpt>
      <trkpt lat="38.513305" lon="-0.8878566666666666">
        <ele>936.2000000000003</ele>
        <time>2013-11-09T15:20:07.84</time>
      </trkpt>
      <trkpt lat="38.513353333333335" lon="-0.8877466666666667">
        <ele>935.3000000000003</ele>
        <time>2013-11-09T15:20:08.82</time>
      </trkpt>
      <trkpt lat="38.51336666666667" lon="-0.8875833333333334">
        <ele>934.6000000000003</ele>
        <time>2013-11-09T15:20:09.85</time>
      </trkpt>
      <trkpt lat="38.513376666666666" lon="-0.88743">
        <ele>934.3000000000003</ele>
        <time>2013-11-09T15:20:10.82</time>
      </trkpt>
      <trkpt lat="38.513385" lon="-0.8872800000000001">
        <ele>934.5000000000003</ele>
        <time>2013-11-09T15:20:11.83</time>
      </trkpt>
      <trkpt lat="38.513385" lon="-0.8871333333333333">
        <ele>934.6000000000004</ele>
        <time>2013-11-09T15:20:12.81</time>
      </trkpt>
      <trkpt lat="38.513375" lon="-0.8869766666666667">
        <ele>934.6000000000004</ele>
        <time>2013-11-09T15:20:13.84</time>
      </trkpt>
      <trkpt lat="38.513326666666664" lon="-0.8868116666666667">
        <ele>934.9000000000003</ele>
        <time>2013-11-09T15:20:14.82</time>
      </trkpt>
      <trkpt lat="38.51326666666667" lon="-0.8866216666666666">
        <ele>935.2000000000003</ele>
        <time>2013-11-09T15:20:15.84</time>
      </trkpt>
      <trkpt lat="38.513196666666666" lon="-0.8864333333333333">
        <ele>935.6000000000003</ele>
        <time>2013-11-09T15:20:16.82</time>
      </trkpt>
      <trkpt lat="38.51311833333333" lon="-0.8862583333333334">
        <ele>936.1000000000003</ele>
        <time>2013-11-09T15:20:17.81</time>
      </trkpt>
      <trkpt lat="38.51303333333333" lon="-0.8860966666666666">
        <ele>936.9000000000002</ele>
        <time>2013-11-09T15:20:18.82</time>
      </trkpt>
      <trkpt lat="38.512948333333334" lon="-0.8859533333333334">
        <ele>937.8000000000002</ele>
        <time>2013-11-09T15:20:19.84</time>
      </trkpt>
      <trkpt lat="38.51285333333333" lon="-0.8858133333333333">
        <ele>938.5000000000002</ele>
        <time>2013-11-09T15:20:20.82</time>
      </trkpt>
      <trkpt lat="38.512748333333334" lon="-0.88567">
        <ele>939.1000000000003</ele>
        <time>2013-11-09T15:20:21.81</time>
      </trkpt>
      <trkpt lat="38.512631666666664" lon="-0.8855333333333333">
        <ele>939.9000000000002</ele>
        <time>2013-11-09T15:20:22.82</time>
      </trkpt>
      <trkpt lat="38.51251666666667" lon="-0.8854083333333332">
        <ele>940.4000000000002</ele>
        <time>2013-11-09T15:20:23.81</time>
      </trkpt>
      <trkpt lat="38.512406666666664" lon="-0.8852983333333333">
        <ele>940.9000000000002</ele>
        <time>2013-11-09T15:20:24.82</time>
      </trkpt>
      <trkpt lat="38.51228833333333" lon="-0.8851866666666666">
        <ele>941.3000000000002</ele>
        <time>2013-11-09T15:20:25.82</time>
      </trkpt>
      <trkpt lat="38.51217166666667" lon="-0.8850883333333334">
        <ele>941.6000000000001</ele>
        <time>2013-11-09T15:20:26.82</time>
      </trkpt>
      <trkpt lat="38.512045" lon="-0.8849966666666667">
        <ele>942.0000000000001</ele>
        <time>2013-11-09T15:20:27.86</time>
      </trkpt>
      <trkpt lat="38.51192" lon="-0.8849166666666667">
        <ele>942.5000000000001</ele>
        <time>2013-11-09T15:20:28.82</time>
      </trkpt>
      <trkpt lat="38.511783333333334" lon="-0.8848433333333333">
        <ele>942.9000000000001</ele>
        <time>2013-11-09T15:20:29.82</time>
      </trkpt>
      <trkpt lat="38.511615" lon="-0.884835">
        <ele>943.5000000000001</ele>
        <time>2013-11-09T15:20:30.82</time>
      </trkpt>
      <trkpt lat="38.511471666666665" lon="-0.8848416666666666">
        <ele>943.8000000000001</ele>
        <time>2013-11-09T15:20:31.82</time>
      </trkpt>
      <trkpt lat="38.511336666666665" lon="-0.8848983333333333">
        <ele>943.6</ele>
        <time>2013-11-09T15:20:32.82</time>
      </trkpt>
      <trkpt lat="38.511228333333335" lon="-0.8849583333333333">
        <ele>943.2</ele>
        <time>2013-11-09T15:20:33.85</time>
      </trkpt>
      <trkpt lat="38.51114" lon="-0.8850483333333333">
        <ele>943.6</ele>
        <time>2013-11-09T15:20:34.82</time>
      </trkpt>
      <trkpt lat="38.51106333333333" lon="-0.8851366666666666">
        <ele>944.6</ele>
        <time>2013-11-09T15:20:35.84</time>
      </trkpt>
      <trkpt lat="38.511021666666664" lon="-0.8852">
        <ele>945.7</ele>
        <time>2013-11-09T15:20:36.82</time>
      </trkpt>
      <trkpt lat="38.51098666666667" lon="-0.8852533333333333">
        <ele>946.8000000000001</ele>
        <time>2013-11-09T15:20:37.85</time>
      </trkpt>
      <trkpt lat="38.510958333333335" lon="-0.8853066666666667">
        <ele>947.8000000000001</ele>
        <time>2013-11-09T15:20:38.82</time>
      </trkpt>
      <trkpt lat="38.51094166666667" lon="-0.885355">
        <ele>948.9000000000001</ele>
        <time>2013-11-09T15:20:39.85</time>
      </trkpt>
      <trkpt lat="38.51094166666667" lon="-0.88541">
        <ele>948.9000000000001</ele>
        <time>2013-11-09T15:20:40.79</time>
      </trkpt>
      <trkpt lat="38.51096166666667" lon="-0.8854433333333334">
        <ele>949.0000000000001</ele>
        <time>2013-11-09T15:20:41.80</time>
      </trkpt>
      <trkpt lat="38.51101333333333" lon="-0.88546">
        <ele>949.0000000000001</ele>
        <time>2013-11-09T15:20:42.82</time>
      </trkpt>
      <trkpt lat="38.51108833333333" lon="-0.8854333333333333">
        <ele>948.9000000000001</ele>
        <time>2013-11-09T15:20:43.82</time>
      </trkpt>
      <trkpt lat="38.511145" lon="-0.8853616666666666">
        <ele>948.6000000000001</ele>
        <time>2013-11-09T15:20:44.82</time>
      </trkpt>
      <trkpt lat="38.511203333333334" lon="-0.8852633333333333">
        <ele>948.2000000000002</ele>
        <time>2013-11-09T15:20:45.82</time>
      </trkpt>
      <trkpt lat="38.511235" lon="-0.8851483333333333">
        <ele>947.7000000000002</ele>
        <time>2013-11-09T15:20:46.82</time>
      </trkpt>
      <trkpt lat="38.51125833333333" lon="-0.88503">
        <ele>947.0000000000001</ele>
        <time>2013-11-09T15:20:47.82</time>
      </trkpt>
      <trkpt lat="38.51127833333334" lon="-0.8848900000000001">
        <ele>946.2000000000002</ele>
        <time>2013-11-09T15:20:48.86</time>
      </trkpt>
      <trkpt lat="38.51129" lon="-0.8847349999999999">
        <ele>946.2000000000002</ele>
        <time>2013-11-09T15:20:49.82</time>
      </trkpt>
      <trkpt lat="38.511265" lon="-0.8845583333333333">
        <ele>946.5000000000001</ele>
        <time>2013-11-09T15:20:50.84</time>
      </trkpt>
      <trkpt lat="38.51123666666667" lon="-0.884375">
        <ele>946.7000000000002</ele>
        <time>2013-11-09T15:20:51.82</time>
      </trkpt>
      <trkpt lat="38.511203333333334" lon="-0.884195">
        <ele>946.7000000000002</ele>
        <time>2013-11-09T15:20:52.83</time>
      </trkpt>
      <trkpt lat="38.51114" lon="-0.884025">
        <ele>946.8000000000002</ele>
        <time>2013-11-09T15:20:53.80</time>
      </trkpt>
      <trkpt lat="38.511073333333336" lon="-0.8838583333333333">
        <ele>946.9000000000002</ele>
        <time>2013-11-09T15:20:54.81</time>
      </trkpt>
      <trkpt lat="38.51099833333333" lon="-0.8836966666666667">
        <ele>947.1000000000003</ele>
        <time>2013-11-09T15:20:55.82</time>
      </trkpt>
      <trkpt lat="38.510918333333336" lon="-0.8835433333333333">
        <ele>947.3000000000003</ele>
        <time>2013-11-09T15:20:56.82</time>
      </trkpt>
      <trkpt lat="38.510835" lon="-0.8833916666666667">
        <ele>947.4000000000003</ele>
        <time>2013-11-09T15:20:57.80</time>
      </trkpt>
      <trkpt lat="38.510758333333335" lon="-0.8832333333333333">
        <ele>947.1000000000004</ele>
        <time>2013-11-09T15:20:58.83</time>
      </trkpt>
      <trkpt lat="38.51068166666666" lon="-0.8830733333333334">
        <ele>947.5000000000003</ele>
        <time>2013-11-09T15:20:59.82</time>
      </trkpt>
      <trkpt lat="38.510625" lon="-0.8829116666666667">
        <ele>947.4000000000003</ele>
        <time>2013-11-09T15:21:00.82</time>
      </trkpt>
      <trkpt lat="38.51059" lon="-0.8827516666666667">
        <ele>947.0000000000003</ele>
        <time>2013-11-09T15:21:01.82</time>
      </trkpt>
      <trkpt lat="38.51059166666667" lon="-0.8825883333333333">
        <ele>946.8000000000003</ele>
        <time>2013-11-09T15:21:02.82</time>
      </trkpt>
      <trkpt lat="38.510598333333334" lon="-0.8824483333333333">
        <ele>946.9000000000003</ele>
        <time>2013-11-09T15:21:03.82</time>
      </trkpt>
      <trkpt lat="38.510623333333335" lon="-0.8823233333333333">
        <ele>946.8000000000003</ele>
        <time>2013-11-09T15:21:04.82</time>
      </trkpt>
      <trkpt lat="38.510648333333336" lon="-0.8822233333333334">
        <ele>946.7000000000003</ele>
        <time>2013-11-09T15:21:05.82</time>
      </trkpt>
      <trkpt lat="38.510685" lon="-0.8821583333333333">
        <ele>946.6000000000003</ele>
        <time>2013-11-09T15:21:06.82</time>
      </trkpt>
      <trkpt lat="38.51071833333334" lon="-0.8821216666666667">
        <ele>946.8000000000003</ele>
        <time>2013-11-09T15:21:07.82</time>
      </trkpt>
      <trkpt lat="38.51074666666667" lon="-0.8821233333333333">
        <ele>946.8000000000003</ele>
        <time>2013-11-09T15:21:08.82</time>
      </trkpt>
      <trkpt lat="38.51076" lon="-0.8821416666666667">
        <ele>946.8000000000003</ele>
        <time>2013-11-09T15:21:09.82</time>
      </trkpt>
      <trkpt lat="38.51076333333334" lon="-0.8821933333333334">
        <ele>946.8000000000003</ele>
        <time>2013-11-09T15:21:10.82</time>
      </trkpt>
      <trkpt lat="38.51074" lon="-0.882265">
        <ele>946.7000000000003</ele>
        <time>2013-11-09T15:21:11.82</time>
      </trkpt>
      <trkpt lat="38.51069666666667" lon="-0.88233">
        <ele>946.7000000000003</ele>
        <time>2013-11-09T15:21:12.82</time>
      </trkpt>
      <trkpt lat="38.510643333333334" lon="-0.8823983333333333">
        <ele>946.8000000000003</ele>
        <time>2013-11-09T15:21:13.82</time>
      </trkpt>
      <trkpt lat="38.51056833333333" lon="-0.8824516666666666">
        <ele>946.8000000000003</ele>
        <time>2013-11-09T15:21:14.82</time>
      </trkpt>
      <trkpt lat="38.510468333333336" lon="-0.8824850000000001">
        <ele>946.6000000000003</ele>
        <time>2013-11-09T15:21:15.82</time>
      </trkpt>
      <trkpt lat="38.51034666666666" lon="-0.8825116666666666">
        <ele>946.3000000000003</ele>
        <time>2013-11-09T15:21:16.82</time>
      </trkpt>
      <trkpt lat="38.510216666666665" lon="-0.882505">
        <ele>946.2000000000003</ele>
        <time>2013-11-09T15:21:17.82</time>
      </trkpt>
      <trkpt lat="38.510081666666665" lon="-0.8824883333333333">
        <ele>946.4000000000003</ele>
        <time>2013-11-09T15:21:18.82</time>
      </trkpt>
      <trkpt lat="38.509946666666664" lon="-0.88246">
        <ele>946.5000000000003</ele>
        <time>2013-11-09T15:21:19.82</time>
      </trkpt>
      <trkpt lat="38.50981" lon="-0.8824299999999999">
        <ele>946.5000000000003</ele>
        <time>2013-11-09T15:21:20.81</time>
      </trkpt>
      <trkpt lat="38.50967333333333" lon="-0.8824033333333333">
        <ele>946.7000000000004</ele>
        <time>2013-11-09T15:21:21.82</time>
      </trkpt>
      <trkpt lat="38.50953833333333" lon="-0.882385">
        <ele>947.0000000000003</ele>
        <time>2013-11-09T15:21:22.81</time>
      </trkpt>
      <trkpt lat="38.50940333333333" lon="-0.8823683333333334">
        <ele>947.4000000000003</ele>
        <time>2013-11-09T15:21:23.82</time>
      </trkpt>
      <trkpt lat="38.50926166666667" lon="-0.8823583333333332">
        <ele>947.9000000000003</ele>
        <time>2013-11-09T15:21:24.82</time>
      </trkpt>
      <trkpt lat="38.509121666666665" lon="-0.8823483333333333">
        <ele>948.7000000000003</ele>
        <time>2013-11-09T15:21:25.82</time>
      </trkpt>
      <trkpt lat="38.50898333333333" lon="-0.8823433333333334">
        <ele>950.0000000000002</ele>
        <time>2013-11-09T15:21:26.82</time>
      </trkpt>
      <trkpt lat="38.508851666666665" lon="-0.8823433333333334">
        <ele>951.3000000000002</ele>
        <time>2013-11-09T15:21:27.82</time>
      </trkpt>
      <trkpt lat="38.50873166666667" lon="-0.8823500000000001">
        <ele>952.8000000000002</ele>
        <time>2013-11-09T15:21:28.81</time>
      </trkpt>
      <trkpt lat="38.50862166666667" lon="-0.8823716666666667">
        <ele>954.4000000000002</ele>
        <time>2013-11-09T15:21:29.82</time>
      </trkpt>
      <trkpt lat="38.508518333333335" lon="-0.8824066666666667">
        <ele>956.0000000000002</ele>
        <time>2013-11-09T15:21:30.81</time>
      </trkpt>
      <trkpt lat="38.50842" lon="-0.8824516666666666">
        <ele>957.7000000000003</ele>
        <time>2013-11-09T15:21:31.87</time>
      </trkpt>
      <trkpt lat="38.508335" lon="-0.8825000000000001">
        <ele>959.3000000000003</ele>
        <time>2013-11-09T15:21:32.81</time>
      </trkpt>
      <trkpt lat="38.508248333333334" lon="-0.8825583333333333">
        <ele>960.8000000000003</ele>
        <time>2013-11-09T15:21:33.81</time>
      </trkpt>
      <trkpt lat="38.508145" lon="-0.8826133333333334">
        <ele>962.0000000000003</ele>
        <time>2013-11-09T15:21:34.82</time>
      </trkpt>
      <trkpt lat="38.50803833333333" lon="-0.8826633333333334">
        <ele>963.0000000000003</ele>
        <time>2013-11-09T15:21:35.82</time>
      </trkpt>
      <trkpt lat="38.50792333333333" lon="-0.8827066666666668">
        <ele>963.8000000000003</ele>
        <time>2013-11-09T15:21:36.83</time>
      </trkpt>
      <trkpt lat="38.507795" lon="-0.8827166666666667">
        <ele>964.5000000000003</ele>
        <time>2013-11-09T15:21:37.82</time>
      </trkpt>
      <trkpt lat="38.50766333333333" lon="-0.8827149999999999">
        <ele>965.1000000000004</ele>
        <time>2013-11-09T15:21:38.80</time>
      </trkpt>
      <trkpt lat="38.507526666666664" lon="-0.8827066666666668">
        <ele>965.5000000000003</ele>
        <time>2013-11-09T15:21:39.82</time>
      </trkpt>
      <trkpt lat="38.507378333333335" lon="-0.8826833333333333">
        <ele>965.7000000000004</ele>
        <time>2013-11-09T15:21:40.82</time>
      </trkpt>
      <trkpt lat="38.507236666666664" lon="-0.8826116666666667">
        <ele>965.8000000000004</ele>
        <time>2013-11-09T15:21:41.82</time>
      </trkpt>
      <trkpt lat="38.507101666666664" lon="-0.8824883333333333">
        <ele>966.0000000000005</ele>
        <time>2013-11-09T15:21:42.82</time>
      </trkpt>
      <trkpt lat="38.50698166666667" lon="-0.8823616666666666">
        <ele>966.2000000000005</ele>
        <time>2013-11-09T15:21:43.82</time>
      </trkpt>
      <trkpt lat="38.506881666666665" lon="-0.8822399999999999">
        <ele>966.4000000000005</ele>
        <time>2013-11-09T15:21:44.81</time>
      </trkpt>
      <trkpt lat="38.50682" lon="-0.8821083333333333">
        <ele>967.1000000000006</ele>
        <time>2013-11-09T15:21:45.86</time>
      </trkpt>
      <trkpt lat="38.506765" lon="-0.8819666666666667">
        <ele>968.0000000000006</ele>
        <time>2013-11-09T15:21:46.81</time>
      </trkpt>
      <trkpt lat="38.506755" lon="-0.8818066666666666">
        <ele>968.8000000000005</ele>
        <time>2013-11-09T15:21:47.83</time>
      </trkpt>
      <trkpt lat="38.50676833333333" lon="-0.8816516666666666">
        <ele>969.4000000000005</ele>
        <time>2013-11-09T15:21:48.82</time>
      </trkpt>
      <trkpt lat="38.506791666666665" lon="-0.8815216666666666">
        <ele>969.8000000000005</ele>
        <time>2013-11-09T15:21:49.82</time>
      </trkpt>
      <trkpt lat="38.50684666666667" lon="-0.8814333333333334">
        <ele>970.4000000000005</ele>
        <time>2013-11-09T15:21:50.82</time>
      </trkpt>
      <trkpt lat="38.50691833333333" lon="-0.881385">
        <ele>971.4000000000005</ele>
        <time>2013-11-09T15:21:51.83</time>
      </trkpt>
      <trkpt lat="38.50695666666667" lon="-0.8813783333333334">
        <ele>971.6000000000006</ele>
        <time>2013-11-09T15:21:52.82</time>
      </trkpt>
      <trkpt lat="38.50698666666667" lon="-0.881375">
        <ele>971.8000000000006</ele>
        <time>2013-11-09T15:21:53.82</time>
      </trkpt>
      <trkpt lat="38.507018333333335" lon="-0.8813766666666666">
        <ele>972.0000000000007</ele>
        <time>2013-11-09T15:21:54.82</time>
      </trkpt>
      <trkpt lat="38.507035" lon="-0.8814050000000001">
        <ele>972.2000000000007</ele>
        <time>2013-11-09T15:21:55.82</time>
      </trkpt>
      <trkpt lat="38.507025" lon="-0.8814633333333333">
        <ele>974.5000000000007</ele>
        <time>2013-11-09T15:21:56.82</time>
      </trkpt>
      <trkpt lat="38.507005" lon="-0.8815533333333333">
        <ele>976.6000000000007</ele>
        <time>2013-11-09T15:21:57.80</time>
      </trkpt>
      <trkpt lat="38.50696833333333" lon="-0.8816466666666667">
        <ele>978.3000000000008</ele>
        <time>2013-11-09T15:21:58.81</time>
      </trkpt>
      <trkpt lat="38.506926666666665" lon="-0.8817383333333333">
        <ele>979.6000000000007</ele>
        <time>2013-11-09T15:21:59.82</time>
      </trkpt>
      <trkpt lat="38.506861666666666" lon="-0.8818016666666666">
        <ele>980.6000000000007</ele>
        <time>2013-11-09T15:22:00.81</time>
      </trkpt>
      <trkpt lat="38.50678333333333" lon="-0.881825">
        <ele>982.3000000000008</ele>
        <time>2013-11-09T15:22:01.82</time>
      </trkpt>
      <trkpt lat="38.50668666666667" lon="-0.8818483333333333">
        <ele>983.1000000000007</ele>
        <time>2013-11-09T15:22:02.80</time>
      </trkpt>
      <trkpt lat="38.506565" lon="-0.8818766666666666">
        <ele>983.6000000000007</ele>
        <time>2013-11-09T15:22:03.82</time>
      </trkpt>
      <trkpt lat="38.50642666666667" lon="-0.8818983333333333">
        <ele>984.0000000000007</ele>
        <time>2013-11-09T15:22:04.81</time>
      </trkpt>
      <trkpt lat="38.506278333333334" lon="-0.8819083333333333">
        <ele>983.8000000000006</ele>
        <time>2013-11-09T15:22:05.82</time>
      </trkpt>
      <trkpt lat="38.50613333333333" lon="-0.8818433333333334">
        <ele>983.6000000000006</ele>
        <time>2013-11-09T15:22:06.82</time>
      </trkpt>
      <trkpt lat="38.50599666666667" lon="-0.8817583333333334">
        <ele>983.3000000000006</ele>
        <time>2013-11-09T15:22:07.82</time>
      </trkpt>
      <trkpt lat="38.50588" lon="-0.88167">
        <ele>983.2000000000006</ele>
        <time>2013-11-09T15:22:08.82</time>
      </trkpt>
      <trkpt lat="38.505768333333336" lon="-0.8815500000000001">
        <ele>983.2000000000006</ele>
        <time>2013-11-09T15:22:09.82</time>
      </trkpt>
      <trkpt lat="38.50565" lon="-0.8814233333333333">
        <ele>983.8000000000006</ele>
        <time>2013-11-09T15:22:10.82</time>
      </trkpt>
      <trkpt lat="38.50555166666667" lon="-0.8812949999999999">
        <ele>984.5000000000007</ele>
        <time>2013-11-09T15:22:11.82</time>
      </trkpt>
      <trkpt lat="38.505491666666664" lon="-0.881155">
        <ele>984.3000000000006</ele>
        <time>2013-11-09T15:22:12.81</time>
      </trkpt>
      <trkpt lat="38.50542333333333" lon="-0.8810166666666667">
        <ele>984.0000000000007</ele>
        <time>2013-11-09T15:22:13.80</time>
      </trkpt>
      <trkpt lat="38.505358333333334" lon="-0.880865">
        <ele>983.8000000000006</ele>
        <time>2013-11-09T15:22:14.81</time>
      </trkpt>
      <trkpt lat="38.505318333333335" lon="-0.88069">
        <ele>983.9000000000007</ele>
        <time>2013-11-09T15:22:15.81</time>
      </trkpt>
      <trkpt lat="38.50530666666667" lon="-0.880505">
        <ele>983.7000000000006</ele>
        <time>2013-11-09T15:22:16.82</time>
      </trkpt>
      <trkpt lat="38.505305" lon="-0.88035">
        <ele>983.6000000000006</ele>
        <time>2013-11-09T15:22:17.94</time>
      </trkpt>
      <trkpt lat="38.505336666666665" lon="-0.8802283333333333">
        <ele>983.4000000000005</ele>
        <time>2013-11-09T15:22:18.83</time>
      </trkpt>
      <trkpt lat="38.50539333333333" lon="-0.8801333333333333">
        <ele>983.3000000000005</ele>
        <time>2013-11-09T15:22:19.87</time>
      </trkpt>
      <trkpt lat="38.50544333333333" lon="-0.8800633333333334">
        <ele>982.7000000000005</ele>
        <time>2013-11-09T15:22:20.82</time>
      </trkpt>
      <trkpt lat="38.50548833333333" lon="-0.8800066666666667">
        <ele>982.0000000000005</ele>
        <time>2013-11-09T15:22:21.82</time>
      </trkpt>
      <trkpt lat="38.505536666666664" lon="-0.8799483333333333">
        <ele>981.8000000000004</ele>
        <time>2013-11-09T15:22:22.82</time>
      </trkpt>
      <trkpt lat="38.505581666666664" lon="-0.879895">
        <ele>982.2000000000004</ele>
        <time>2013-11-09T15:22:23.82</time>
      </trkpt>
      <trkpt lat="38.505635" lon="-0.8798600000000001">
        <ele>982.9000000000004</ele>
        <time>2013-11-09T15:22:24.83</time>
      </trkpt>
      <trkpt lat="38.50568333333333" lon="-0.8798316666666667">
        <ele>984.0000000000005</ele>
        <time>2013-11-09T15:22:25.81</time>
      </trkpt>
      <trkpt lat="38.505723333333336" lon="-0.8798016666666667">
        <ele>984.8000000000004</ele>
        <time>2013-11-09T15:22:26.82</time>
      </trkpt>
      <trkpt lat="38.50576" lon="-0.8797483333333334">
        <ele>985.8000000000004</ele>
        <time>2013-11-09T15:22:27.82</time>
      </trkpt>
      <trkpt lat="38.50580166666666" lon="-0.8796733333333333">
        <ele>986.9000000000004</ele>
        <time>2013-11-09T15:22:28.82</time>
      </trkpt>
      <trkpt lat="38.50584333333333" lon="-0.8795916666666667">
        <ele>987.7000000000004</ele>
        <time>2013-11-09T15:22:29.82</time>
      </trkpt>
      <trkpt lat="38.505865" lon="-0.8794566666666667">
        <ele>988.5000000000003</ele>
        <time>2013-11-09T15:22:30.81</time>
      </trkpt>
      <trkpt lat="38.50586833333333" lon="-0.8793366666666667">
        <ele>989.4000000000003</ele>
        <time>2013-11-09T15:22:31.88</time>
      </trkpt>
      <trkpt lat="38.50586166666667" lon="-0.879205">
        <ele>991.1000000000004</ele>
        <time>2013-11-09T15:22:32.81</time>
      </trkpt>
      <trkpt lat="38.50584833333333" lon="-0.8790600000000001">
        <ele>993.2000000000004</ele>
        <time>2013-11-09T15:22:33.82</time>
      </trkpt>
      <trkpt lat="38.50582833333333" lon="-0.878915">
        <ele>996.2000000000004</ele>
        <time>2013-11-09T15:22:34.82</time>
      </trkpt>
      <trkpt lat="38.505795" lon="-0.8787566666666666">
        <ele>999.1000000000004</ele>
        <time>2013-11-09T15:22:35.82</time>
      </trkpt>
      <trkpt lat="38.50570166666667" lon="-0.87862">
        <ele>1001.6000000000004</ele>
        <time>2013-11-09T15:22:36.82</time>
      </trkpt>
      <trkpt lat="38.50559166666667" lon="-0.878475">
        <ele>1003.8000000000004</ele>
        <time>2013-11-09T15:22:37.81</time>
      </trkpt>
      <trkpt lat="38.505453333333335" lon="-0.8784066666666667">
        <ele>1005.6000000000004</ele>
        <time>2013-11-09T15:22:38.82</time>
      </trkpt>
      <trkpt lat="38.50532166666667" lon="-0.8783483333333333">
        <ele>1007.6000000000004</ele>
        <time>2013-11-09T15:22:39.82</time>
      </trkpt>
      <trkpt lat="38.505195" lon="-0.8783466666666667">
        <ele>1010.2000000000004</ele>
        <time>2013-11-09T15:22:40.82</time>
      </trkpt>
      <trkpt lat="38.505091666666665" lon="-0.8783650000000001">
        <ele>1013.2000000000004</ele>
        <time>2013-11-09T15:22:41.82</time>
      </trkpt>
      <trkpt lat="38.50499666666666" lon="-0.8783949999999999">
        <ele>1016.6000000000004</ele>
        <time>2013-11-09T15:22:42.82</time>
      </trkpt>
      <trkpt lat="38.504931666666664" lon="-0.8784366666666668">
        <ele>1019.1000000000004</ele>
        <time>2013-11-09T15:22:43.82</time>
      </trkpt>
      <trkpt lat="38.50488166666667" lon="-0.8784966666666667">
        <ele>1021.5000000000003</ele>
        <time>2013-11-09T15:22:44.82</time>
      </trkpt>
      <trkpt lat="38.50486166666666" lon="-0.87857">
        <ele>1023.3000000000003</ele>
        <time>2013-11-09T15:22:45.82</time>
      </trkpt>
      <trkpt lat="38.504868333333334" lon="-0.8786266666666667">
        <ele>1023.4000000000003</ele>
        <time>2013-11-09T15:22:46.81</time>
      </trkpt>
      <trkpt lat="38.50490333333333" lon="-0.8786733333333333">
        <ele>1023.6000000000004</ele>
        <time>2013-11-09T15:22:47.82</time>
      </trkpt>
      <trkpt lat="38.50494333333334" lon="-0.87872">
        <ele>1026.1000000000004</ele>
        <time>2013-11-09T15:22:48.82</time>
      </trkpt>
      <trkpt lat="38.50498" lon="-0.8787466666666667">
        <ele>1026.3000000000004</ele>
        <time>2013-11-09T15:22:49.81</time>
      </trkpt>
      <trkpt lat="38.505048333333335" lon="-0.8787466666666667">
        <ele>1028.6000000000004</ele>
        <time>2013-11-09T15:22:50.82</time>
      </trkpt>
      <trkpt lat="38.505116666666666" lon="-0.8787116666666667">
        <ele>1030.6000000000004</ele>
        <time>2013-11-09T15:22:51.82</time>
      </trkpt>
      <trkpt lat="38.50515333333333" lon="-0.8786733333333333">
        <ele>1033.2000000000003</ele>
        <time>2013-11-09T15:22:52.87</time>
      </trkpt>
      <trkpt lat="38.505175" lon="-0.8786166666666666">
        <ele>1035.5000000000002</ele>
        <time>2013-11-09T15:22:53.79</time>
      </trkpt>
      <trkpt lat="38.505203333333334" lon="-0.87854">
        <ele>1037.4000000000003</ele>
        <time>2013-11-09T15:22:54.82</time>
      </trkpt>
      <trkpt lat="38.505226666666665" lon="-0.8784733333333333">
        <ele>1039.3000000000004</ele>
        <time>2013-11-09T15:22:55.82</time>
      </trkpt>
      <trkpt lat="38.50526166666667" lon="-0.8783766666666666">
        <ele>1040.7000000000005</ele>
        <time>2013-11-09T15:22:56.82</time>
      </trkpt>
      <trkpt lat="38.505298333333336" lon="-0.8782783333333334">
        <ele>1041.9000000000005</ele>
        <time>2013-11-09T15:22:57.83</time>
      </trkpt>
      <trkpt lat="38.50533333333333" lon="-0.8781833333333334">
        <ele>1043.1000000000006</ele>
        <time>2013-11-09T15:22:58.80</time>
      </trkpt>
      <trkpt lat="38.50537333333333" lon="-0.8780916666666666">
        <ele>1044.7000000000005</ele>
        <time>2013-11-09T15:22:59.81</time>
      </trkpt>
      <trkpt lat="38.505401666666664" lon="-0.8780083333333334">
        <ele>1046.3000000000004</ele>
        <time>2013-11-09T15:23:00.82</time>
      </trkpt>
      <trkpt lat="38.50541166666667" lon="-0.8779083333333334">
        <ele>1047.9000000000003</ele>
        <time>2013-11-09T15:23:01.82</time>
      </trkpt>
      <trkpt lat="38.505425" lon="-0.8777849999999999">
        <ele>1049.2000000000003</ele>
        <time>2013-11-09T15:23:02.82</time>
      </trkpt>
      <trkpt lat="38.50543833333333" lon="-0.877625">
        <ele>1050.2000000000003</ele>
        <time>2013-11-09T15:23:03.82</time>
      </trkpt>
      <trkpt lat="38.50543833333333" lon="-0.8774816666666666">
        <ele>1051.8000000000002</ele>
        <time>2013-11-09T15:23:04.82</time>
      </trkpt>
      <trkpt lat="38.50544166666667" lon="-0.8773266666666667">
        <ele>1053.3000000000002</ele>
        <time>2013-11-09T15:23:05.85</time>
      </trkpt>
      <trkpt lat="38.505386666666666" lon="-0.8771766666666667">
        <ele>1054.4</ele>
        <time>2013-11-09T15:23:06.82</time>
      </trkpt>
      <trkpt lat="38.50532333333334" lon="-0.87702">
        <ele>1055.8000000000002</ele>
        <time>2013-11-09T15:23:07.82</time>
      </trkpt>
      <trkpt lat="38.50526" lon="-0.876885">
        <ele>1056.9</ele>
        <time>2013-11-09T15:23:08.82</time>
      </trkpt>
      <trkpt lat="38.50519333333333" lon="-0.8767516666666667">
        <ele>1058.1000000000001</ele>
        <time>2013-11-09T15:23:09.82</time>
      </trkpt>
      <trkpt lat="38.505131666666664" lon="-0.8766033333333334">
        <ele>1059.7</ele>
        <time>2013-11-09T15:23:10.82</time>
      </trkpt>
      <trkpt lat="38.50510666666667" lon="-0.8764366666666666">
        <ele>1061.4</ele>
        <time>2013-11-09T15:23:11.81</time>
      </trkpt>
      <trkpt lat="38.505093333333335" lon="-0.8762916666666667">
        <ele>1063</ele>
        <time>2013-11-09T15:23:12.81</time>
      </trkpt>
      <trkpt lat="38.505111666666664" lon="-0.876185">
        <ele>1064.9</ele>
        <time>2013-11-09T15:23:13.82</time>
      </trkpt>
      <trkpt lat="38.50514666666667" lon="-0.8761283333333334">
        <ele>1067.2</ele>
        <time>2013-11-09T15:23:14.82</time>
      </trkpt>
      <trkpt lat="38.505175" lon="-0.8760783333333334">
        <ele>1069.6000000000001</ele>
        <time>2013-11-09T15:23:15.81</time>
      </trkpt>
      <trkpt lat="38.50519166666667" lon="-0.8760583333333333">
        <ele>1069.9</ele>
        <time>2013-11-09T15:23:16.81</time>
      </trkpt>
      <trkpt lat="38.505205" lon="-0.8760633333333333">
        <ele>1070.2</ele>
        <time>2013-11-09T15:23:17.82</time>
      </trkpt>
      <trkpt lat="38.50521833333333" lon="-0.8760916666666667">
        <ele>1070.6000000000001</ele>
        <time>2013-11-09T15:23:18.82</time>
      </trkpt>
      <trkpt lat="38.50521833333333" lon="-0.8761533333333333">
        <ele>1071.0000000000002</ele>
        <time>2013-11-09T15:23:19.82</time>
      </trkpt>
      <trkpt lat="38.50519333333333" lon="-0.8762216666666667">
        <ele>1075.7000000000003</ele>
        <time>2013-11-09T15:23:20.82</time>
      </trkpt>
      <trkpt lat="38.50516833333333" lon="-0.876275">
        <ele>1079.8000000000002</ele>
        <time>2013-11-09T15:23:21.82</time>
      </trkpt>
      <trkpt lat="38.50510833333333" lon="-0.87634">
        <ele>1083.0000000000002</ele>
        <time>2013-11-09T15:23:22.81</time>
      </trkpt>
      <trkpt lat="38.50504" lon="-0.8764066666666667">
        <ele>1085.8000000000002</ele>
        <time>2013-11-09T15:23:23.82</time>
      </trkpt>
      <trkpt lat="38.504963333333336" lon="-0.8764633333333334">
        <ele>1087.8000000000002</ele>
        <time>2013-11-09T15:23:24.82</time>
      </trkpt>
      <trkpt lat="38.504866666666665" lon="-0.8765033333333334">
        <ele>1089.2000000000003</ele>
        <time>2013-11-09T15:23:25.81</time>
      </trkpt>
      <trkpt lat="38.50476833333333" lon="-0.87654">
        <ele>1091.0000000000002</ele>
        <time>2013-11-09T15:23:26.81</time>
      </trkpt>
      <trkpt lat="38.504646666666666" lon="-0.8765583333333333">
        <ele>1092.7000000000003</ele>
        <time>2013-11-09T15:23:27.81</time>
      </trkpt>
      <trkpt lat="38.504515" lon="-0.8765716666666666">
        <ele>1094.3000000000002</ele>
        <time>2013-11-09T15:23:28.82</time>
      </trkpt>
      <trkpt lat="38.504376666666666" lon="-0.87657">
        <ele>1096.0000000000002</ele>
        <time>2013-11-09T15:23:29.82</time>
      </trkpt>
      <trkpt lat="38.50422833333333" lon="-0.8765516666666666">
        <ele>1097.8000000000002</ele>
        <time>2013-11-09T15:23:30.81</time>
      </trkpt>
      <trkpt lat="38.504095" lon="-0.8765266666666667">
        <ele>1099.4</ele>
        <time>2013-11-09T15:23:31.82</time>
      </trkpt>
      <trkpt lat="38.50398833333333" lon="-0.8764283333333334">
        <ele>1100.9</ele>
        <time>2013-11-09T15:23:32.82</time>
      </trkpt>
      <trkpt lat="38.50389666666667" lon="-0.8763083333333334">
        <ele>1102.2</ele>
        <time>2013-11-09T15:23:33.82</time>
      </trkpt>
      <trkpt lat="38.50382" lon="-0.876155">
        <ele>1103.7</ele>
        <time>2013-11-09T15:23:34.82</time>
      </trkpt>
      <trkpt lat="38.503751666666666" lon="-0.8760016666666667">
        <ele>1105.2</ele>
        <time>2013-11-09T15:23:35.81</time>
      </trkpt>
      <trkpt lat="38.50371166666667" lon="-0.8758533333333334">
        <ele>1107.1000000000001</ele>
        <time>2013-11-09T15:23:36.82</time>
      </trkpt>
      <trkpt lat="38.503681666666665" lon="-0.8757016666666666">
        <ele>1108.9</ele>
        <time>2013-11-09T15:23:37.82</time>
      </trkpt>
      <trkpt lat="38.50369" lon="-0.8755566666666666">
        <ele>1110.5</ele>
        <time>2013-11-09T15:23:38.82</time>
      </trkpt>
      <trkpt lat="38.503725" lon="-0.8754316666666667">
        <ele>1112.2</ele>
        <time>2013-11-09T15:23:39.82</time>
      </trkpt>
      <trkpt lat="38.50378333333333" lon="-0.8753166666666666">
        <ele>1114.1000000000001</ele>
        <time>2013-11-09T15:23:40.82</time>
      </trkpt>
      <trkpt lat="38.50383333333333" lon="-0.8752300000000001">
        <ele>1115.8000000000002</ele>
        <time>2013-11-09T15:23:41.80</time>
      </trkpt>
      <trkpt lat="38.50388" lon="-0.8751833333333334">
        <ele>1117.6000000000001</ele>
        <time>2013-11-09T15:23:43.14</time>
      </trkpt>
      <trkpt lat="38.503905" lon="-0.8751833333333334">
        <ele>1117.7</ele>
        <time>2013-11-09T15:23:43.82</time>
      </trkpt>
      <trkpt lat="38.503933333333336" lon="-0.8752166666666666">
        <ele>1117.9</ele>
        <time>2013-11-09T15:23:44.82</time>
      </trkpt>
      <trkpt lat="38.50395666666667" lon="-0.8752783333333334">
        <ele>1119.8000000000002</ele>
        <time>2013-11-09T15:23:45.82</time>
      </trkpt>
      <trkpt lat="38.503965" lon="-0.8753449999999999">
        <ele>1121.8000000000002</ele>
        <time>2013-11-09T15:23:46.82</time>
      </trkpt>
      <trkpt lat="38.503945" lon="-0.8754333333333334">
        <ele>1123.6000000000001</ele>
        <time>2013-11-09T15:23:47.80</time>
      </trkpt>
      <trkpt lat="38.50389166666667" lon="-0.8755116666666667">
        <ele>1125.3000000000002</ele>
        <time>2013-11-09T15:23:48.82</time>
      </trkpt>
      <trkpt lat="38.5038" lon="-0.87557">
        <ele>1126.9</ele>
        <time>2013-11-09T15:23:49.82</time>
      </trkpt>
      <trkpt lat="38.503675" lon="-0.8755933333333333">
        <ele>1128.3000000000002</ele>
        <time>2013-11-09T15:23:50.82</time>
      </trkpt>
      <trkpt lat="38.503553333333336" lon="-0.8756">
        <ele>1129.5000000000002</ele>
        <time>2013-11-09T15:23:51.82</time>
      </trkpt>
      <trkpt lat="38.503431666666664" lon="-0.8755816666666667">
        <ele>1131.3000000000002</ele>
        <time>2013-11-09T15:23:52.87</time>
      </trkpt>
      <trkpt lat="38.5033" lon="-0.87557">
        <ele>1132.9</ele>
        <time>2013-11-09T15:23:53.83</time>
      </trkpt>
      <trkpt lat="38.503175" lon="-0.87556">
        <ele>1134.4</ele>
        <time>2013-11-09T15:23:54.80</time>
      </trkpt>
      <trkpt lat="38.503045" lon="-0.875565">
        <ele>1135.9</ele>
        <time>2013-11-09T15:23:55.81</time>
      </trkpt>
      <trkpt lat="38.50293166666667" lon="-0.875565">
        <ele>1137.1000000000001</ele>
        <time>2013-11-09T15:23:56.82</time>
      </trkpt>
      <trkpt lat="38.502815" lon="-0.87555">
        <ele>1137.8000000000002</ele>
        <time>2013-11-09T15:23:57.83</time>
      </trkpt>
      <trkpt lat="38.502698333333335" lon="-0.875455">
        <ele>1138.8000000000002</ele>
        <time>2013-11-09T15:23:58.80</time>
      </trkpt>
      <trkpt lat="38.50259333333333" lon="-0.8753516666666666">
        <ele>1140.0000000000002</ele>
        <time>2013-11-09T15:23:59.81</time>
      </trkpt>
      <trkpt lat="38.50251166666666" lon="-0.8751966666666667">
        <ele>1142.1000000000001</ele>
        <time>2013-11-09T15:24:00.82</time>
      </trkpt>
      <trkpt lat="38.502471666666665" lon="-0.875045">
        <ele>1144.9</ele>
        <time>2013-11-09T15:24:01.82</time>
      </trkpt>
      <trkpt lat="38.502433333333336" lon="-0.8748816666666667">
        <ele>1148.3000000000002</ele>
        <time>2013-11-09T15:24:02.82</time>
      </trkpt>
      <trkpt lat="38.502405" lon="-0.8747333333333334">
        <ele>1152.0000000000002</ele>
        <time>2013-11-09T15:24:03.88</time>
      </trkpt>
      <trkpt lat="38.502405" lon="-0.8745700000000001">
        <ele>1155.3000000000002</ele>
        <time>2013-11-09T15:24:04.82</time>
      </trkpt>
      <trkpt lat="38.50241" lon="-0.8744183333333333">
        <ele>1158.2000000000003</ele>
        <time>2013-11-09T15:24:05.82</time>
      </trkpt>
      <trkpt lat="38.502445" lon="-0.8743200000000001">
        <ele>1161.1000000000004</ele>
        <time>2013-11-09T15:24:06.82</time>
      </trkpt>
      <trkpt lat="38.502485" lon="-0.8742599999999999">
        <ele>1163.7000000000003</ele>
        <time>2013-11-09T15:24:07.82</time>
      </trkpt>
      <trkpt lat="38.50253166666667" lon="-0.874265">
        <ele>1163.9000000000003</ele>
        <time>2013-11-09T15:24:08.82</time>
      </trkpt>
      <trkpt lat="38.50257166666667" lon="-0.8742966666666666">
        <ele>1164.2000000000003</ele>
        <time>2013-11-09T15:24:09.82</time>
      </trkpt>
      <trkpt lat="38.502605" lon="-0.874345">
        <ele>1164.5000000000002</ele>
        <time>2013-11-09T15:24:10.82</time>
      </trkpt>
      <trkpt lat="38.502626666666664" lon="-0.8744316666666666">
        <ele>1168.0000000000002</ele>
        <time>2013-11-09T15:24:11.82</time>
      </trkpt>
      <trkpt lat="38.50264333333333" lon="-0.8745033333333333">
        <ele>1172.0000000000002</ele>
        <time>2013-11-09T15:24:12.83</time>
      </trkpt>
      <trkpt lat="38.502631666666666" lon="-0.8745783333333333">
        <ele>1175.6000000000001</ele>
        <time>2013-11-09T15:24:13.82</time>
      </trkpt>
      <trkpt lat="38.50257333333333" lon="-0.8746733333333334">
        <ele>1178.6000000000001</ele>
        <time>2013-11-09T15:24:14.82</time>
      </trkpt>
      <trkpt lat="38.50248666666667" lon="-0.8747383333333333">
        <ele>1181.0000000000002</ele>
        <time>2013-11-09T15:24:15.81</time>
      </trkpt>
      <trkpt lat="38.502386666666666" lon="-0.874805">
        <ele>1182.6000000000001</ele>
        <time>2013-11-09T15:24:16.80</time>
      </trkpt>
      <trkpt lat="38.50226333333333" lon="-0.8748083333333334">
        <ele>1183.8000000000002</ele>
        <time>2013-11-09T15:24:17.84</time>
      </trkpt>
      <trkpt lat="38.50212833333333" lon="-0.874805">
        <ele>1185.5000000000002</ele>
        <time>2013-11-09T15:24:18.81</time>
      </trkpt>
      <trkpt lat="38.502003333333334" lon="-0.8747716666666666">
        <ele>1187.3000000000002</ele>
        <time>2013-11-09T15:24:19.82</time>
      </trkpt>
      <trkpt lat="38.501891666666666" lon="-0.8747266666666668">
        <ele>1189.8000000000002</ele>
        <time>2013-11-09T15:24:20.82</time>
      </trkpt>
      <trkpt lat="38.50178" lon="-0.874625">
        <ele>1192.1000000000001</ele>
        <time>2013-11-09T15:24:21.82</time>
      </trkpt>
      <trkpt lat="38.50167" lon="-0.8745283333333334">
        <ele>1194.0000000000002</ele>
        <time>2013-11-09T15:24:22.82</time>
      </trkpt>
      <trkpt lat="38.501558333333335" lon="-0.8743916666666667">
        <ele>1196.6000000000001</ele>
        <time>2013-11-09T15:24:23.84</time>
      </trkpt>
      <trkpt lat="38.50145333333333" lon="-0.874245">
        <ele>1199.2</ele>
        <time>2013-11-09T15:24:24.82</time>
      </trkpt>
      <trkpt lat="38.501353333333334" lon="-0.8740883333333334">
        <ele>1201.4</ele>
        <time>2013-11-09T15:24:25.82</time>
      </trkpt>
      <trkpt lat="38.50129166666667" lon="-0.8739116666666666">
        <ele>1203.5</ele>
        <time>2013-11-09T15:24:26.89</time>
      </trkpt>
      <trkpt lat="38.50125333333333" lon="-0.8737566666666667">
        <ele>1206.8</ele>
        <time>2013-11-09T15:24:27.82</time>
      </trkpt>
      <trkpt lat="38.501263333333334" lon="-0.8735866666666666">
        <ele>1210.2</ele>
        <time>2013-11-09T15:24:28.87</time>
      </trkpt>
      <trkpt lat="38.50127166666667" lon="-0.8734333333333333">
        <ele>1212.9</ele>
        <time>2013-11-09T15:24:29.82</time>
      </trkpt>
      <trkpt lat="38.5013" lon="-0.87331">
        <ele>1215</ele>
        <time>2013-11-09T15:24:30.89</time>
      </trkpt>
      <trkpt lat="38.50138666666667" lon="-0.8732416666666667">
        <ele>1217.6</ele>
        <time>2013-11-09T15:24:31.82</time>
      </trkpt>
      <trkpt lat="38.50143333333333" lon="-0.8732316666666667">
        <ele>1217.8999999999999</ele>
        <time>2013-11-09T15:24:32.82</time>
      </trkpt>
      <trkpt lat="38.50147333333334" lon="-0.8732666666666666">
        <ele>1218.1999999999998</ele>
        <time>2013-11-09T15:24:33.82</time>
      </trkpt>
      <trkpt lat="38.50147166666667" lon="-0.8733366666666667">
        <ele>1221.6</ele>
        <time>2013-11-09T15:24:34.86</time>
      </trkpt>
      <trkpt lat="38.501445" lon="-0.8734066666666667">
        <ele>1224.3999999999999</ele>
        <time>2013-11-09T15:24:35.84</time>
      </trkpt>
      <trkpt lat="38.5014" lon="-0.8734716666666666">
        <ele>1226.8</ele>
        <time>2013-11-09T15:24:36.82</time>
      </trkpt>
      <trkpt lat="38.501356666666666" lon="-0.87354">
        <ele>1229</ele>
        <time>2013-11-09T15:24:37.80</time>
      </trkpt>
      <trkpt lat="38.50128" lon="-0.87359">
        <ele>1231.2</ele>
        <time>2013-11-09T15:24:38.82</time>
      </trkpt>
      <trkpt lat="38.501178333333336" lon="-0.873645">
        <ele>1233.5</ele>
        <time>2013-11-09T15:24:39.82</time>
      </trkpt>
      <trkpt lat="38.50105333333333" lon="-0.8736566666666667">
        <ele>1235.9</ele>
        <time>2013-11-09T15:24:40.81</time>
      </trkpt>
      <trkpt lat="38.50091666666667" lon="-0.8736583333333333">
        <ele>1238.2</ele>
        <time>2013-11-09T15:24:41.82</time>
      </trkpt>
      <trkpt lat="38.50078833333333" lon="-0.8736149999999999">
        <ele>1239.9</ele>
        <time>2013-11-09T15:24:42.86</time>
      </trkpt>
      <trkpt lat="38.50066833333333" lon="-0.8735566666666668">
        <ele>1241.5</ele>
        <time>2013-11-09T15:24:43.83</time>
      </trkpt>
      <trkpt lat="38.500565" lon="-0.87345">
        <ele>1243</ele>
        <time>2013-11-09T15:24:44.82</time>
      </trkpt>
      <trkpt lat="38.50045166666666" lon="-0.8733299999999999">
        <ele>1244.7</ele>
        <time>2013-11-09T15:24:45.81</time>
      </trkpt>
      <trkpt lat="38.50035333333334" lon="-0.8732116666666666">
        <ele>1246.5</ele>
        <time>2013-11-09T15:24:46.82</time>
      </trkpt>
      <trkpt lat="38.500258333333335" lon="-0.8730883333333334">
        <ele>1248.7</ele>
        <time>2013-11-09T15:24:47.82</time>
      </trkpt>
      <trkpt lat="38.500165" lon="-0.8729583333333333">
        <ele>1251</ele>
        <time>2013-11-09T15:24:48.87</time>
      </trkpt>
      <trkpt lat="38.500096666666664" lon="-0.8728216666666667">
        <ele>1253.6</ele>
        <time>2013-11-09T15:24:49.82</time>
      </trkpt>
      <trkpt lat="38.500033333333334" lon="-0.872685">
        <ele>1256</ele>
        <time>2013-11-09T15:24:50.87</time>
      </trkpt>
      <trkpt lat="38.499985" lon="-0.8725383333333333">
        <ele>1258.1</ele>
        <time>2013-11-09T15:24:51.82</time>
      </trkpt>
      <trkpt lat="38.49995166666667" lon="-0.87239">
        <ele>1260.3999999999999</ele>
        <time>2013-11-09T15:24:52.82</time>
      </trkpt>
      <trkpt lat="38.499945" lon="-0.8722283333333334">
        <ele>1262.3999999999999</ele>
        <time>2013-11-09T15:24:53.82</time>
      </trkpt>
      <trkpt lat="38.499945" lon="-0.8720666666666667">
        <ele>1264.6</ele>
        <time>2013-11-09T15:24:54.84</time>
      </trkpt>
      <trkpt lat="38.499943333333334" lon="-0.8718983333333333">
        <ele>1266.8999999999999</ele>
        <time>2013-11-09T15:24:55.83</time>
      </trkpt>
      <trkpt lat="38.49995166666667" lon="-0.8717466666666667">
        <ele>1268.8999999999999</ele>
        <time>2013-11-09T15:24:56.78</time>
      </trkpt>
      <trkpt lat="38.49997666666667" lon="-0.87162">
        <ele>1270.6999999999998</ele>
        <time>2013-11-09T15:24:57.78</time>
      </trkpt>
      <trkpt lat="38.500033333333334" lon="-0.871525">
        <ele>1272.6</ele>
        <time>2013-11-09T15:24:58.82</time>
      </trkpt>
      <trkpt lat="38.50009333333333" lon="-0.8714533333333333">
        <ele>1274.3</ele>
        <time>2013-11-09T15:24:59.82</time>
      </trkpt>
      <trkpt lat="38.500145" lon="-0.8713783333333333">
        <ele>1275.8999999999999</ele>
        <time>2013-11-09T15:25:00.80</time>
      </trkpt>
      <trkpt lat="38.500185" lon="-0.871315">
        <ele>1277.4999999999998</ele>
        <time>2013-11-09T15:25:01.80</time>
      </trkpt>
      <trkpt lat="38.500225" lon="-0.8712516666666666">
        <ele>1278.5999999999997</ele>
        <time>2013-11-09T15:25:02.78</time>
      </trkpt>
      <trkpt lat="38.50025" lon="-0.8712">
        <ele>1279.6999999999996</ele>
        <time>2013-11-09T15:25:03.82</time>
      </trkpt>
      <trkpt lat="38.50027166666667" lon="-0.8711566666666666">
        <ele>1281.2999999999995</ele>
        <time>2013-11-09T15:25:04.80</time>
      </trkpt>
      <trkpt lat="38.500315" lon="-0.87114">
        <ele>1283.1999999999996</ele>
        <time>2013-11-09T15:25:06.79</time>
      </trkpt>
      <trkpt lat="38.50038833333333" lon="-0.8711816666666666">
        <ele>1285.0999999999997</ele>
        <time>2013-11-09T15:25:06.84</time>
      </trkpt>
      <trkpt lat="38.50047" lon="-0.8712683333333333">
        <ele>1286.6999999999996</ele>
        <time>2013-11-09T15:25:07.84</time>
      </trkpt>
      <trkpt lat="38.50053333333334" lon="-0.8713933333333334">
        <ele>1288.5999999999997</ele>
        <time>2013-11-09T15:25:08.85</time>
      </trkpt>
      <trkpt lat="38.500525" lon="-0.8715116666666667">
        <ele>1290.2999999999997</ele>
        <time>2013-11-09T15:25:09.85</time>
      </trkpt>
      <trkpt lat="38.500485" lon="-0.8716183333333334">
        <ele>1291.5999999999997</ele>
        <time>2013-11-09T15:25:10.83</time>
      </trkpt>
      <trkpt lat="38.50044333333334" lon="-0.8717116666666667">
        <ele>1292.9999999999998</ele>
        <time>2013-11-09T15:25:11.83</time>
      </trkpt>
      <trkpt lat="38.50035333333334" lon="-0.8717416666666666">
        <ele>1294.0999999999997</ele>
        <time>2013-11-09T15:25:12.79</time>
      </trkpt>
      <trkpt lat="38.500255" lon="-0.8717583333333334">
        <ele>1295.5999999999997</ele>
        <time>2013-11-09T15:25:13.85</time>
      </trkpt>
      <trkpt lat="38.50012666666667" lon="-0.8717616666666667">
        <ele>1297.0999999999997</ele>
        <time>2013-11-09T15:25:14.84</time>
      </trkpt>
      <trkpt lat="38.500008333333334" lon="-0.8717333333333334">
        <ele>1297.7999999999997</ele>
        <time>2013-11-09T15:25:15.80</time>
      </trkpt>
      <trkpt lat="38.49988" lon="-0.8716866666666667">
        <ele>1298.0999999999997</ele>
        <time>2013-11-09T15:25:16.84</time>
      </trkpt>
      <trkpt lat="38.499743333333335" lon="-0.87161">
        <ele>1298.5999999999997</ele>
        <time>2013-11-09T15:25:17.85</time>
      </trkpt>
      <trkpt lat="38.49965666666667" lon="-0.8714933333333333">
        <ele>1299.3999999999996</ele>
        <time>2013-11-09T15:25:18.85</time>
      </trkpt>
      <trkpt lat="38.49957666666667" lon="-0.8713433333333334">
        <ele>1300.7999999999997</ele>
        <time>2013-11-09T15:25:19.85</time>
      </trkpt>
      <trkpt lat="38.499505" lon="-0.8712033333333333">
        <ele>1302.9999999999998</ele>
        <time>2013-11-09T15:25:20.84</time>
      </trkpt>
      <trkpt lat="38.49942" lon="-0.8710633333333334">
        <ele>1306.1999999999998</ele>
        <time>2013-11-09T15:25:21.84</time>
      </trkpt>
      <trkpt lat="38.49934833333333" lon="-0.8709216666666666">
        <ele>1309.1999999999998</ele>
        <time>2013-11-09T15:25:22.87</time>
      </trkpt>
      <trkpt lat="38.499285" lon="-0.8707600000000001">
        <ele>1311.8999999999999</ele>
        <time>2013-11-09T15:25:23.84</time>
      </trkpt>
      <trkpt lat="38.49923166666667" lon="-0.8705933333333333">
        <ele>1314.3</ele>
        <time>2013-11-09T15:25:24.88</time>
      </trkpt>
      <trkpt lat="38.49917333333333" lon="-0.8704366666666666">
        <ele>1316.2</ele>
        <time>2013-11-09T15:25:25.84</time>
      </trkpt>
      <trkpt lat="38.49913333333333" lon="-0.8702783333333334">
        <ele>1318.4</ele>
        <time>2013-11-09T15:25:26.80</time>
      </trkpt>
      <trkpt lat="38.499116666666666" lon="-0.87013">
        <ele>1321.3000000000002</ele>
        <time>2013-11-09T15:25:27.84</time>
      </trkpt>
      <trkpt lat="38.49910666666667" lon="-0.8699899999999999">
        <ele>1324.7000000000003</ele>
        <time>2013-11-09T15:25:28.84</time>
      </trkpt>
      <trkpt lat="38.499091666666665" lon="-0.869845">
        <ele>1328.1000000000004</ele>
        <time>2013-11-09T15:25:29.94</time>
      </trkpt>
      <trkpt lat="38.49908166666667" lon="-0.8697116666666667">
        <ele>1331.0000000000005</ele>
        <time>2013-11-09T15:25:30.79</time>
      </trkpt>
      <trkpt lat="38.49909" lon="-0.8695816666666667">
        <ele>1333.2000000000005</ele>
        <time>2013-11-09T15:25:31.80</time>
      </trkpt>
      <trkpt lat="38.49914666666667" lon="-0.869465">
        <ele>1335.9000000000005</ele>
        <time>2013-11-09T15:25:32.80</time>
      </trkpt>
      <trkpt lat="38.49917666666666" lon="-0.8693316666666667">
        <ele>1338.0000000000005</ele>
        <time>2013-11-09T15:25:33.84</time>
      </trkpt>
      <trkpt lat="38.499206666666666" lon="-0.8692066666666667">
        <ele>1340.0000000000005</ele>
        <time>2013-11-09T15:25:34.84</time>
      </trkpt>
      <trkpt lat="38.49923833333333" lon="-0.8690933333333334">
        <ele>1342.0000000000005</ele>
        <time>2013-11-09T15:25:35.84</time>
      </trkpt>
      <trkpt lat="38.499271666666665" lon="-0.8690033333333333">
        <ele>1344.0000000000005</ele>
        <time>2013-11-09T15:25:36.88</time>
      </trkpt>
      <trkpt lat="38.499291666666664" lon="-0.8689366666666667">
        <ele>1345.9000000000005</ele>
        <time>2013-11-09T15:25:37.84</time>
      </trkpt>
      <trkpt lat="38.49932333333334" lon="-0.868895">
        <ele>1347.7000000000005</ele>
        <time>2013-11-09T15:25:38.81</time>
      </trkpt>
      <trkpt lat="38.499365" lon="-0.8688516666666667">
        <ele>1348.4000000000005</ele>
        <time>2013-11-09T15:25:39.84</time>
      </trkpt>
      <trkpt lat="38.49945833333334" lon="-0.868865">
        <ele>1349.1000000000006</ele>
        <time>2013-11-09T15:25:40.78</time>
      </trkpt>
      <trkpt lat="38.499541666666666" lon="-0.8689033333333334">
        <ele>1350.3000000000006</ele>
        <time>2013-11-09T15:25:41.79</time>
      </trkpt>
      <trkpt lat="38.49960333333333" lon="-0.868955">
        <ele>1350.9000000000005</ele>
        <time>2013-11-09T15:25:42.80</time>
      </trkpt>
      <trkpt lat="38.499653333333335" lon="-0.8690316666666666">
        <ele>1351.2000000000005</ele>
        <time>2013-11-09T15:25:43.82</time>
      </trkpt>
      <trkpt lat="38.49969333333333" lon="-0.8691">
        <ele>1351.9000000000005</ele>
        <time>2013-11-09T15:25:44.80</time>
      </trkpt>
      <trkpt lat="38.499716666666664" lon="-0.8691566666666667">
        <ele>1352.7000000000005</ele>
        <time>2013-11-09T15:25:45.84</time>
      </trkpt>
      <trkpt lat="38.49973" lon="-0.8691949999999999">
        <ele>1352.8000000000004</ele>
        <time>2013-11-09T15:25:46.84</time>
      </trkpt>
      <trkpt lat="38.49974" lon="-0.8692483333333333">
        <ele>1354.1000000000004</ele>
        <time>2013-11-09T15:25:47.81</time>
      </trkpt>
      <trkpt lat="38.499735" lon="-0.8693183333333334">
        <ele>1355.1000000000004</ele>
        <time>2013-11-09T15:25:48.90</time>
      </trkpt>
      <trkpt lat="38.49968" lon="-0.8694799999999999">
        <ele>1357.2</ele>
        <time>2013-11-09T15:25:51.70</time>
      </trkpt>
      <trkpt lat="38.49968" lon="-0.8694799999999999">
        <ele>1357.2</ele>
        <time>2013-11-09T15:25:51.79</time>
      </trkpt>
      <trkpt lat="38.49961833333333" lon="-0.8695416666666667">
        <ele>1358</ele>
        <time>2013-11-09T15:25:51.83</time>
      </trkpt>
      <trkpt lat="38.49955" lon="-0.8696016666666666">
        <ele>1358.2</ele>
        <time>2013-11-09T15:25:52.81</time>
      </trkpt>
      <trkpt lat="38.49944333333333" lon="-0.8695966666666667">
        <ele>1358.1000000000001</ele>
        <time>2013-11-09T15:25:53.82</time>
      </trkpt>
      <trkpt lat="38.499335" lon="-0.869595">
        <ele>1358.0000000000002</ele>
        <time>2013-11-09T15:25:54.80</time>
      </trkpt>
      <trkpt lat="38.49921666666667" lon="-0.869585">
        <ele>1358.2000000000003</ele>
        <time>2013-11-09T15:25:55.82</time>
      </trkpt>
      <trkpt lat="38.49909" lon="-0.869555">
        <ele>1358.4000000000003</ele>
        <time>2013-11-09T15:25:56.78</time>
      </trkpt>
      <trkpt lat="38.498958333333334" lon="-0.8695033333333334">
        <ele>1358.4000000000003</ele>
        <time>2013-11-09T15:25:57.78</time>
      </trkpt>
      <trkpt lat="38.498848333333335" lon="-0.8693766666666666">
        <ele>1358.1000000000004</ele>
        <time>2013-11-09T15:25:58.86</time>
      </trkpt>
      <trkpt lat="38.498763333333336" lon="-0.86923">
        <ele>1358.0000000000005</ele>
        <time>2013-11-09T15:25:59.82</time>
      </trkpt>
      <trkpt lat="38.498688333333334" lon="-0.8690883333333334">
        <ele>1358.0000000000005</ele>
        <time>2013-11-09T15:26:00.81</time>
      </trkpt>
      <trkpt lat="38.49862" lon="-0.86895">
        <ele>1358.1000000000004</ele>
        <time>2013-11-09T15:26:01.82</time>
      </trkpt>
      <trkpt lat="38.49855" lon="-0.8688216666666667">
        <ele>1358.5000000000005</ele>
        <time>2013-11-09T15:26:02.79</time>
      </trkpt>
      <trkpt lat="38.49849" lon="-0.8687">
        <ele>1359.1000000000004</ele>
        <time>2013-11-09T15:26:03.80</time>
      </trkpt>
      <trkpt lat="38.498423333333335" lon="-0.8685583333333333">
        <ele>1360.0000000000005</ele>
        <time>2013-11-09T15:26:04.78</time>
      </trkpt>
      <trkpt lat="38.49836166666667" lon="-0.8684133333333333">
        <ele>1360.9000000000005</ele>
        <time>2013-11-09T15:26:05.85</time>
      </trkpt>
      <trkpt lat="38.498311666666666" lon="-0.8682733333333333">
        <ele>1362.0000000000005</ele>
        <time>2013-11-09T15:26:06.85</time>
      </trkpt>
      <trkpt lat="38.498266666666666" lon="-0.8681300000000001">
        <ele>1363.3000000000004</ele>
        <time>2013-11-09T15:26:07.85</time>
      </trkpt>
      <trkpt lat="38.49822" lon="-0.8679950000000001">
        <ele>1364.4000000000003</ele>
        <time>2013-11-09T15:26:08.85</time>
      </trkpt>
      <trkpt lat="38.49816333333333" lon="-0.8678666666666667">
        <ele>1365.2000000000003</ele>
        <time>2013-11-09T15:26:09.83</time>
      </trkpt>
      <trkpt lat="38.49807166666667" lon="-0.867765">
        <ele>1366.4000000000003</ele>
        <time>2013-11-09T15:26:10.85</time>
      </trkpt>
      <trkpt lat="38.49795666666667" lon="-0.8676816666666666">
        <ele>1368.0000000000002</ele>
        <time>2013-11-09T15:26:11.85</time>
      </trkpt>
      <trkpt lat="38.497838333333334" lon="-0.8676033333333333">
        <ele>1370.2000000000003</ele>
        <time>2013-11-09T15:26:12.81</time>
      </trkpt>
      <trkpt lat="38.497735" lon="-0.8675516666666667">
        <ele>1372.3000000000002</ele>
        <time>2013-11-09T15:26:13.85</time>
      </trkpt>
      <trkpt lat="38.497635" lon="-0.8675083333333333">
        <ele>1374.2000000000003</ele>
        <time>2013-11-09T15:26:14.78</time>
      </trkpt>
      <trkpt lat="38.49755" lon="-0.8674783333333332">
        <ele>1375.5000000000002</ele>
        <time>2013-11-09T15:26:15.78</time>
      </trkpt>
      <trkpt lat="38.49746666666667" lon="-0.867455">
        <ele>1376.4000000000003</ele>
        <time>2013-11-09T15:26:16.85</time>
      </trkpt>
      <trkpt lat="38.49736166666667" lon="-0.867425">
        <ele>1378.1000000000004</ele>
        <time>2013-11-09T15:26:17.85</time>
      </trkpt>
      <trkpt lat="38.49722666666667" lon="-0.8673933333333333">
        <ele>1381.1000000000004</ele>
        <time>2013-11-09T15:26:18.88</time>
      </trkpt>
      <trkpt lat="38.49709166666667" lon="-0.8674083333333333">
        <ele>1384.6000000000004</ele>
        <time>2013-11-09T15:26:19.82</time>
      </trkpt>
      <trkpt lat="38.49697166666667" lon="-0.8674700000000001">
        <ele>1388.0000000000005</ele>
        <time>2013-11-09T15:26:20.85</time>
      </trkpt>
      <trkpt lat="38.496878333333335" lon="-0.86756">
        <ele>1391.4000000000005</ele>
        <time>2013-11-09T15:26:21.85</time>
      </trkpt>
      <trkpt lat="38.496805" lon="-0.8676466666666667">
        <ele>1394.8000000000006</ele>
        <time>2013-11-09T15:26:22.85</time>
      </trkpt>
      <trkpt lat="38.496745" lon="-0.8677183333333333">
        <ele>1398.2000000000007</ele>
        <time>2013-11-09T15:26:23.83</time>
      </trkpt>
      <trkpt lat="38.49670666666667" lon="-0.8677816666666666">
        <ele>1401.5000000000007</ele>
        <time>2013-11-09T15:26:24.80</time>
      </trkpt>
      <trkpt lat="38.49669166666666" lon="-0.86785">
        <ele>1404.4000000000008</ele>
        <time>2013-11-09T15:26:25.81</time>
      </trkpt>
      <trkpt lat="38.496703333333336" lon="-0.8679283333333333">
        <ele>1407.1000000000008</ele>
        <time>2013-11-09T15:26:26.81</time>
      </trkpt>
      <trkpt lat="38.496741666666665" lon="-0.86799">
        <ele>1409.4000000000008</ele>
        <time>2013-11-09T15:26:27.81</time>
      </trkpt>
      <trkpt lat="38.49679666666667" lon="-0.8680333333333333">
        <ele>1411.1000000000008</ele>
        <time>2013-11-09T15:26:28.81</time>
      </trkpt>
      <trkpt lat="38.49686166666667" lon="-0.8680433333333333">
        <ele>1412.8000000000009</ele>
        <time>2013-11-09T15:26:29.78</time>
      </trkpt>
      <trkpt lat="38.496935" lon="-0.8680249999999999">
        <ele>1414.200000000001</ele>
        <time>2013-11-09T15:26:30.80</time>
      </trkpt>
      <trkpt lat="38.497006666666664" lon="-0.867965">
        <ele>1415.3000000000009</ele>
        <time>2013-11-09T15:26:31.81</time>
      </trkpt>
      <trkpt lat="38.497065" lon="-0.867855">
        <ele>1416.200000000001</ele>
        <time>2013-11-09T15:26:32.79</time>
      </trkpt>
      <trkpt lat="38.49709" lon="-0.8676999999999999">
        <ele>1417.000000000001</ele>
        <time>2013-11-09T15:26:33.80</time>
      </trkpt>
      <trkpt lat="38.49709333333333" lon="-0.8675499999999999">
        <ele>1418.500000000001</ele>
        <time>2013-11-09T15:26:34.80</time>
      </trkpt>
      <trkpt lat="38.49709333333333" lon="-0.86738">
        <ele>1419.8000000000009</ele>
        <time>2013-11-09T15:26:35.79</time>
      </trkpt>
      <trkpt lat="38.49708" lon="-0.8672183333333333">
        <ele>1421.000000000001</ele>
        <time>2013-11-09T15:26:36.84</time>
      </trkpt>
      <trkpt lat="38.497053333333334" lon="-0.8670566666666667">
        <ele>1422.000000000001</ele>
        <time>2013-11-09T15:26:37.79</time>
      </trkpt>
      <trkpt lat="38.49700166666667" lon="-0.8669100000000001">
        <ele>1422.900000000001</ele>
        <time>2013-11-09T15:26:38.78</time>
      </trkpt>
      <trkpt lat="38.49693833333333" lon="-0.8667549999999999">
        <ele>1424.100000000001</ele>
        <time>2013-11-09T15:26:39.84</time>
      </trkpt>
      <trkpt lat="38.49686166666667" lon="-0.8666083333333333">
        <ele>1425.800000000001</ele>
        <time>2013-11-09T15:26:40.78</time>
      </trkpt>
      <trkpt lat="38.496755" lon="-0.8664816666666667">
        <ele>1428.2000000000012</ele>
        <time>2013-11-09T15:26:41.80</time>
      </trkpt>
      <trkpt lat="38.49663666666667" lon="-0.866375">
        <ele>1431.0000000000011</ele>
        <time>2013-11-09T15:26:42.80</time>
      </trkpt>
      <trkpt lat="38.49652666666667" lon="-0.866305">
        <ele>1433.9000000000012</ele>
        <time>2013-11-09T15:26:43.85</time>
      </trkpt>
      <trkpt lat="38.49641333333334" lon="-0.8662650000000001">
        <ele>1436.8000000000013</ele>
        <time>2013-11-09T15:26:44.84</time>
      </trkpt>
      <trkpt lat="38.496295" lon="-0.8662299999999999">
        <ele>1439.8000000000013</ele>
        <time>2013-11-09T15:26:45.83</time>
      </trkpt>
      <trkpt lat="38.49617333333333" lon="-0.8662383333333333">
        <ele>1442.5000000000014</ele>
        <time>2013-11-09T15:26:46.83</time>
      </trkpt>
      <trkpt lat="38.49606333333333" lon="-0.8662816666666667">
        <ele>1445.1000000000013</ele>
        <time>2013-11-09T15:26:47.82</time>
      </trkpt>
      <trkpt lat="38.495961666666666" lon="-0.8663516666666666">
        <ele>1447.7000000000012</ele>
        <time>2013-11-09T15:26:48.80</time>
      </trkpt>
      <trkpt lat="38.495873333333336" lon="-0.8664183333333334">
        <ele>1449.9000000000012</ele>
        <time>2013-11-09T15:26:49.84</time>
      </trkpt>
      <trkpt lat="38.495803333333335" lon="-0.866505">
        <ele>1451.8000000000013</ele>
        <time>2013-11-09T15:26:50.80</time>
      </trkpt>
      <trkpt lat="38.49574333333333" lon="-0.86659">
        <ele>1453.4000000000012</ele>
        <time>2013-11-09T15:26:51.81</time>
      </trkpt>
      <trkpt lat="38.49569666666667" lon="-0.8666750000000001">
        <ele>1454.7000000000012</ele>
        <time>2013-11-09T15:26:52.78</time>
      </trkpt>
      <trkpt lat="38.495693333333335" lon="-0.8667733333333333">
        <ele>1455.9000000000012</ele>
        <time>2013-11-09T15:26:53.80</time>
      </trkpt>
      <trkpt lat="38.495713333333335" lon="-0.8668616666666666">
        <ele>1456.9000000000012</ele>
        <time>2013-11-09T15:26:54.79</time>
      </trkpt>
      <trkpt lat="38.495738333333335" lon="-0.8669383333333334">
        <ele>1457.9000000000012</ele>
        <time>2013-11-09T15:26:55.81</time>
      </trkpt>
      <trkpt lat="38.49576166666667" lon="-0.8669933333333333">
        <ele>1459.2000000000012</ele>
        <time>2013-11-09T15:26:56.79</time>
      </trkpt>
      <trkpt lat="38.49578666666667" lon="-0.867045">
        <ele>1460.4000000000012</ele>
        <time>2013-11-09T15:26:57.80</time>
      </trkpt>
      <trkpt lat="38.49582" lon="-0.8670666666666667">
        <ele>1461.7000000000012</ele>
        <time>2013-11-09T15:26:58.81</time>
      </trkpt>
      <trkpt lat="38.495866666666664" lon="-0.8670950000000001">
        <ele>1462.6000000000013</ele>
        <time>2013-11-09T15:26:59.82</time>
      </trkpt>
      <trkpt lat="38.49594333333334" lon="-0.8671083333333333">
        <ele>1462.8000000000013</ele>
        <time>2013-11-09T15:27:00.80</time>
      </trkpt>
      <trkpt lat="38.496026666666666" lon="-0.8670883333333333">
        <ele>1463.1000000000013</ele>
        <time>2013-11-09T15:27:01.78</time>
      </trkpt>
      <trkpt lat="38.49608666666666" lon="-0.8670433333333333">
        <ele>1463.6000000000013</ele>
        <time>2013-11-09T15:27:02.80</time>
      </trkpt>
      <trkpt lat="38.49614166666667" lon="-0.8669766666666666">
        <ele>1464.0000000000014</ele>
        <time>2013-11-09T15:27:03.78</time>
      </trkpt>
      <trkpt lat="38.4962" lon="-0.866895">
        <ele>1464.5000000000014</ele>
        <time>2013-11-09T15:27:04.81</time>
      </trkpt>
      <trkpt lat="38.49626166666667" lon="-0.8668033333333334">
        <ele>1465.0000000000014</ele>
        <time>2013-11-09T15:27:05.79</time>
      </trkpt>
      <trkpt lat="38.49633333333333" lon="-0.86668">
        <ele>1465.3000000000013</ele>
        <time>2013-11-09T15:27:06.81</time>
      </trkpt>
      <trkpt lat="38.496395" lon="-0.8665583333333333">
        <ele>1465.1000000000013</ele>
        <time>2013-11-09T15:27:07.80</time>
      </trkpt>
      <trkpt lat="38.49645833333334" lon="-0.8664183333333334">
        <ele>1464.8000000000013</ele>
        <time>2013-11-09T15:27:08.81</time>
      </trkpt>
      <trkpt lat="38.496518333333334" lon="-0.8662666666666666">
        <ele>1464.2000000000014</ele>
        <time>2013-11-09T15:27:09.84</time>
      </trkpt>
      <trkpt lat="38.49654" lon="-0.8661049999999999">
        <ele>1463.4000000000015</ele>
        <time>2013-11-09T15:27:10.82</time>
      </trkpt>
      <trkpt lat="38.49655" lon="-0.86596">
        <ele>1462.3000000000015</ele>
        <time>2013-11-09T15:27:11.79</time>
      </trkpt>
      <trkpt lat="38.49655666666666" lon="-0.8658199999999999">
        <ele>1461.1000000000015</ele>
        <time>2013-11-09T15:27:12.78</time>
      </trkpt>
      <trkpt lat="38.49655833333333" lon="-0.8656683333333334">
        <ele>1460.2000000000014</ele>
        <time>2013-11-09T15:27:13.79</time>
      </trkpt>
      <trkpt lat="38.49656" lon="-0.8655133333333332">
        <ele>1459.7000000000014</ele>
        <time>2013-11-09T15:27:14.78</time>
      </trkpt>
      <trkpt lat="38.49655" lon="-0.8653483333333334">
        <ele>1458.7000000000014</ele>
        <time>2013-11-09T15:27:15.81</time>
      </trkpt>
      <trkpt lat="38.496515" lon="-0.8651800000000001">
        <ele>1457.0000000000014</ele>
        <time>2013-11-09T15:27:16.81</time>
      </trkpt>
      <trkpt lat="38.49647" lon="-0.8650183333333333">
        <ele>1455.2000000000014</ele>
        <time>2013-11-09T15:27:17.80</time>
      </trkpt>
      <trkpt lat="38.49642166666667" lon="-0.8648433333333333">
        <ele>1453.7000000000014</ele>
        <time>2013-11-09T15:27:18.80</time>
      </trkpt>
      <trkpt lat="38.496340000000004" lon="-0.864685">
        <ele>1452.5000000000014</ele>
        <time>2013-11-09T15:27:19.80</time>
      </trkpt>
      <trkpt lat="38.496253333333335" lon="-0.864545">
        <ele>1451.4000000000015</ele>
        <time>2013-11-09T15:27:20.80</time>
      </trkpt>
      <trkpt lat="38.496158333333334" lon="-0.8644">
        <ele>1450.9000000000015</ele>
        <time>2013-11-09T15:27:21.80</time>
      </trkpt>
      <trkpt lat="38.49606" lon="-0.8642716666666667">
        <ele>1450.2000000000014</ele>
        <time>2013-11-09T15:27:22.79</time>
      </trkpt>
      <trkpt lat="38.49596666666667" lon="-0.86416">
        <ele>1449.7000000000014</ele>
        <time>2013-11-09T15:27:23.79</time>
      </trkpt>
      <trkpt lat="38.495865" lon="-0.8640450000000001">
        <ele>1449.3000000000013</ele>
        <time>2013-11-09T15:27:24.79</time>
      </trkpt>
      <trkpt lat="38.49575" lon="-0.8639333333333333">
        <ele>1448.4000000000012</ele>
        <time>2013-11-09T15:27:25.79</time>
      </trkpt>
      <trkpt lat="38.495605" lon="-0.8638533333333334">
        <ele>1447.4000000000012</ele>
        <time>2013-11-09T15:27:26.79</time>
      </trkpt>
      <trkpt lat="38.49545833333333" lon="-0.8637766666666666">
        <ele>1446.6000000000013</ele>
        <time>2013-11-09T15:27:27.81</time>
      </trkpt>
      <trkpt lat="38.495313333333335" lon="-0.8637166666666667">
        <ele>1446.0000000000014</ele>
        <time>2013-11-09T15:27:28.79</time>
      </trkpt>
      <trkpt lat="38.49518166666667" lon="-0.86367">
        <ele>1445.6000000000013</ele>
        <time>2013-11-09T15:27:29.79</time>
      </trkpt>
      <trkpt lat="38.49504666666667" lon="-0.86363">
        <ele>1445.8000000000013</ele>
        <time>2013-11-09T15:27:30.80</time>
      </trkpt>
      <trkpt lat="38.494915" lon="-0.8636266666666667">
        <ele>1445.8000000000013</ele>
        <time>2013-11-09T15:27:31.79</time>
      </trkpt>
      <trkpt lat="38.494785" lon="-0.86363">
        <ele>1446.2000000000014</ele>
        <time>2013-11-09T15:27:32.78</time>
      </trkpt>
      <trkpt lat="38.49465333333333" lon="-0.863635">
        <ele>1446.8000000000013</ele>
        <time>2013-11-09T15:27:33.82</time>
      </trkpt>
      <trkpt lat="38.49452333333333" lon="-0.8636433333333334">
        <ele>1447.3000000000013</ele>
        <time>2013-11-09T15:27:34.80</time>
      </trkpt>
      <trkpt lat="38.49440166666667" lon="-0.863655">
        <ele>1448.2000000000014</ele>
        <time>2013-11-09T15:27:35.80</time>
      </trkpt>
      <trkpt lat="38.494281666666666" lon="-0.8636683333333333">
        <ele>1449.5000000000014</ele>
        <time>2013-11-09T15:27:36.87</time>
      </trkpt>
      <trkpt lat="38.494173333333336" lon="-0.8636866666666666">
        <ele>1450.8000000000013</ele>
        <time>2013-11-09T15:27:37.79</time>
      </trkpt>
      <trkpt lat="38.49407" lon="-0.8637066666666667">
        <ele>1452.2000000000014</ele>
        <time>2013-11-09T15:27:38.79</time>
      </trkpt>
      <trkpt lat="38.493955" lon="-0.8637183333333333">
        <ele>1453.2000000000014</ele>
        <time>2013-11-09T15:27:39.79</time>
      </trkpt>
      <trkpt lat="38.49383" lon="-0.8637283333333333">
        <ele>1453.9000000000015</ele>
        <time>2013-11-09T15:27:40.79</time>
      </trkpt>
      <trkpt lat="38.49371333333333" lon="-0.8637383333333334">
        <ele>1454.5000000000014</ele>
        <time>2013-11-09T15:27:41.78</time>
      </trkpt>
      <trkpt lat="38.493605" lon="-0.8637549999999999">
        <ele>1455.2000000000014</ele>
        <time>2013-11-09T15:27:42.79</time>
      </trkpt>
      <trkpt lat="38.493498333333335" lon="-0.8638049999999999">
        <ele>1455.8000000000013</ele>
        <time>2013-11-09T15:27:43.79</time>
      </trkpt>
      <trkpt lat="38.49339833333333" lon="-0.8638516666666667">
        <ele>1456.8000000000013</ele>
        <time>2013-11-09T15:27:44.79</time>
      </trkpt>
      <trkpt lat="38.49328833333333" lon="-0.8638899999999999">
        <ele>1458.1000000000013</ele>
        <time>2013-11-09T15:27:45.79</time>
      </trkpt>
      <trkpt lat="38.49317666666666" lon="-0.8638866666666666">
        <ele>1459.0000000000014</ele>
        <time>2013-11-09T15:27:46.79</time>
      </trkpt>
      <trkpt lat="38.493046666666665" lon="-0.8638716666666666">
        <ele>1459.6000000000013</ele>
        <time>2013-11-09T15:27:47.78</time>
      </trkpt>
      <trkpt lat="38.49290833333333" lon="-0.8638433333333333">
        <ele>1459.9000000000012</ele>
        <time>2013-11-09T15:27:48.78</time>
      </trkpt>
      <trkpt lat="38.492775" lon="-0.86377">
        <ele>1460.0000000000011</ele>
        <time>2013-11-09T15:27:49.79</time>
      </trkpt>
      <trkpt lat="38.49265" lon="-0.8636883333333334">
        <ele>1460.100000000001</ele>
        <time>2013-11-09T15:27:50.79</time>
      </trkpt>
      <trkpt lat="38.49254333333333" lon="-0.8635883333333333">
        <ele>1460.400000000001</ele>
        <time>2013-11-09T15:27:51.80</time>
      </trkpt>
      <trkpt lat="38.49245333333333" lon="-0.8634316666666667">
        <ele>1461.100000000001</ele>
        <time>2013-11-09T15:27:52.81</time>
      </trkpt>
      <trkpt lat="38.492401666666666" lon="-0.8632516666666666">
        <ele>1461.800000000001</ele>
        <time>2013-11-09T15:27:53.79</time>
      </trkpt>
      <trkpt lat="38.492353333333334" lon="-0.8630883333333333">
        <ele>1462.400000000001</ele>
        <time>2013-11-09T15:27:54.79</time>
      </trkpt>
      <trkpt lat="38.492315" lon="-0.8629333333333334">
        <ele>1463.200000000001</ele>
        <time>2013-11-09T15:27:55.79</time>
      </trkpt>
      <trkpt lat="38.492333333333335" lon="-0.8627933333333334">
        <ele>1464.200000000001</ele>
        <time>2013-11-09T15:27:56.80</time>
      </trkpt>
      <trkpt lat="38.49236333333333" lon="-0.86266">
        <ele>1465.3000000000009</ele>
        <time>2013-11-09T15:27:57.79</time>
      </trkpt>
      <trkpt lat="38.49242666666667" lon="-0.862565">
        <ele>1466.6000000000008</ele>
        <time>2013-11-09T15:27:58.80</time>
      </trkpt>
      <trkpt lat="38.492488333333334" lon="-0.8625166666666666">
        <ele>1467.9000000000008</ele>
        <time>2013-11-09T15:27:59.79</time>
      </trkpt>
      <trkpt lat="38.492555" lon="-0.8624816666666667">
        <ele>1468.5000000000007</ele>
        <time>2013-11-09T15:28:00.79</time>
      </trkpt>
      <trkpt lat="38.49259833333333" lon="-0.862465">
        <ele>1468.5000000000007</ele>
        <time>2013-11-09T15:28:01.79</time>
      </trkpt>
      <trkpt lat="38.49263666666667" lon="-0.86248">
        <ele>1468.6000000000006</ele>
        <time>2013-11-09T15:28:02.78</time>
      </trkpt>
      <trkpt lat="38.492666666666665" lon="-0.86252">
        <ele>1468.7000000000005</ele>
        <time>2013-11-09T15:28:03.79</time>
      </trkpt>
      <trkpt lat="38.492671666666666" lon="-0.8625716666666666">
        <ele>1469.8000000000004</ele>
        <time>2013-11-09T15:28:04.79</time>
      </trkpt>
      <trkpt lat="38.492655" lon="-0.8626233333333333">
        <ele>1470.7000000000005</ele>
        <time>2013-11-09T15:28:05.79</time>
      </trkpt>
      <trkpt lat="38.49260833333334" lon="-0.8626733333333333">
        <ele>1471.5000000000005</ele>
        <time>2013-11-09T15:28:06.79</time>
      </trkpt>
      <trkpt lat="38.49255" lon="-0.8627283333333333">
        <ele>1472.0000000000005</ele>
        <time>2013-11-09T15:28:07.78</time>
      </trkpt>
      <trkpt lat="38.49247833333333" lon="-0.862785">
        <ele>1472.5000000000005</ele>
        <time>2013-11-09T15:28:08.79</time>
      </trkpt>
      <trkpt lat="38.49239" lon="-0.8628166666666667">
        <ele>1472.8000000000004</ele>
        <time>2013-11-09T15:28:09.78</time>
      </trkpt>
      <trkpt lat="38.4923" lon="-0.8628483333333333">
        <ele>1473.0000000000005</ele>
        <time>2013-11-09T15:28:10.80</time>
      </trkpt>
      <trkpt lat="38.49219333333333" lon="-0.86288">
        <ele>1473.1000000000004</ele>
        <time>2013-11-09T15:28:11.79</time>
      </trkpt>
      <trkpt lat="38.49207166666667" lon="-0.8629083333333334">
        <ele>1473.0000000000005</ele>
        <time>2013-11-09T15:28:12.79</time>
      </trkpt>
      <trkpt lat="38.49193833333333" lon="-0.8629049999999999">
        <ele>1472.9000000000005</ele>
        <time>2013-11-09T15:28:13.78</time>
      </trkpt>
      <trkpt lat="38.49181333333333" lon="-0.8628983333333333">
        <ele>1473.1000000000006</ele>
        <time>2013-11-09T15:28:14.78</time>
      </trkpt>
      <trkpt lat="38.49169166666667" lon="-0.8628866666666667">
        <ele>1473.1000000000006</ele>
        <time>2013-11-09T15:28:15.79</time>
      </trkpt>
      <trkpt lat="38.491566666666664" lon="-0.8628699999999999">
        <ele>1473.2000000000005</ele>
        <time>2013-11-09T15:28:16.78</time>
      </trkpt>
      <trkpt lat="38.49144166666667" lon="-0.8628533333333334">
        <ele>1473.1000000000006</ele>
        <time>2013-11-09T15:28:17.78</time>
      </trkpt>
      <trkpt lat="38.49131333333333" lon="-0.862835">
        <ele>1472.8000000000006</ele>
        <time>2013-11-09T15:28:18.79</time>
      </trkpt>
      <trkpt lat="38.49117" lon="-0.8628133333333333">
        <ele>1472.7000000000007</ele>
        <time>2013-11-09T15:28:19.78</time>
      </trkpt>
      <trkpt lat="38.49102" lon="-0.8627966666666667">
        <ele>1472.9000000000008</ele>
        <time>2013-11-09T15:28:20.80</time>
      </trkpt>
      <trkpt lat="38.490858333333335" lon="-0.862775">
        <ele>1473.2000000000007</ele>
        <time>2013-11-09T15:28:21.79</time>
      </trkpt>
      <trkpt lat="38.490698333333334" lon="-0.8627383333333333">
        <ele>1473.5000000000007</ele>
        <time>2013-11-09T15:28:22.80</time>
      </trkpt>
      <trkpt lat="38.49054833333334" lon="-0.8626566666666666">
        <ele>1473.8000000000006</ele>
        <time>2013-11-09T15:28:23.81</time>
      </trkpt>
      <trkpt lat="38.4904" lon="-0.8625633333333333">
        <ele>1474.0000000000007</ele>
        <time>2013-11-09T15:28:24.82</time>
      </trkpt>
      <trkpt lat="38.49028833333333" lon="-0.8624483333333333">
        <ele>1474.7000000000007</ele>
        <time>2013-11-09T15:28:25.79</time>
      </trkpt>
      <trkpt lat="38.49019833333333" lon="-0.8623483333333334">
        <ele>1474.2000000000007</ele>
        <time>2013-11-09T15:28:26.78</time>
      </trkpt>
      <trkpt lat="38.490091666666665" lon="-0.8622533333333333">
        <ele>1473.9000000000008</ele>
        <time>2013-11-09T15:28:27.86</time>
      </trkpt>
      <trkpt lat="38.490005" lon="-0.8622016666666668">
        <ele>1472.7000000000007</ele>
        <time>2013-11-09T15:28:28.80</time>
      </trkpt>
      <trkpt lat="38.489885" lon="-0.8621433333333334">
        <ele>1471.9000000000008</ele>
        <time>2013-11-09T15:28:29.83</time>
      </trkpt>
      <trkpt lat="38.489755" lon="-0.8620883333333332">
        <ele>1471.5000000000007</ele>
        <time>2013-11-09T15:28:30.97</time>
      </trkpt>
      <trkpt lat="38.489623333333334" lon="-0.8620366666666667">
        <ele>1471.5000000000007</ele>
        <time>2013-11-09T15:28:31.79</time>
      </trkpt>
      <trkpt lat="38.48949833333333" lon="-0.8620016666666667">
        <ele>1471.8000000000006</ele>
        <time>2013-11-09T15:28:32.79</time>
      </trkpt>
      <trkpt lat="38.48936333333333" lon="-0.862">
        <ele>1472.0000000000007</ele>
        <time>2013-11-09T15:28:33.95</time>
      </trkpt>
      <trkpt lat="38.48923333333333" lon="-0.862">
        <ele>1472.4000000000008</ele>
        <time>2013-11-09T15:28:34.79</time>
      </trkpt>
      <trkpt lat="38.489105" lon="-0.8619916666666666">
        <ele>1472.7000000000007</ele>
        <time>2013-11-09T15:28:36.11</time>
      </trkpt>
      <trkpt lat="38.48898666666667" lon="-0.8619783333333333">
        <ele>1472.8000000000006</ele>
        <time>2013-11-09T15:28:36.78</time>
      </trkpt>
      <trkpt lat="38.488865" lon="-0.8619533333333333">
        <ele>1472.5000000000007</ele>
        <time>2013-11-09T15:28:37.78</time>
      </trkpt>
      <trkpt lat="38.48874333333333" lon="-0.8619166666666668">
        <ele>1472.0000000000007</ele>
        <time>2013-11-09T15:28:38.80</time>
      </trkpt>
      <trkpt lat="38.488616666666665" lon="-0.8618683333333333">
        <ele>1471.8000000000006</ele>
        <time>2013-11-09T15:28:39.80</time>
      </trkpt>
      <trkpt lat="38.48849" lon="-0.861805">
        <ele>1471.0000000000007</ele>
        <time>2013-11-09T15:28:40.80</time>
      </trkpt>
      <trkpt lat="38.48836" lon="-0.86169">
        <ele>1470.3000000000006</ele>
        <time>2013-11-09T15:28:41.79</time>
      </trkpt>
      <trkpt lat="38.488238333333335" lon="-0.8615633333333333">
        <ele>1469.5000000000007</ele>
        <time>2013-11-09T15:28:42.79</time>
      </trkpt>
      <trkpt lat="38.48814" lon="-0.8614083333333333">
        <ele>1468.7000000000007</ele>
        <time>2013-11-09T15:28:43.89</time>
      </trkpt>
      <trkpt lat="38.48805" lon="-0.8612633333333334">
        <ele>1468.4000000000008</ele>
        <time>2013-11-09T15:28:44.84</time>
      </trkpt>
      <trkpt lat="38.487968333333335" lon="-0.861115">
        <ele>1468.2000000000007</ele>
        <time>2013-11-09T15:28:45.79</time>
      </trkpt>
      <trkpt lat="38.48789333333333" lon="-0.86097">
        <ele>1468.2000000000007</ele>
        <time>2013-11-09T15:28:46.78</time>
      </trkpt>
      <trkpt lat="38.48784" lon="-0.86082">
        <ele>1467.2000000000007</ele>
        <time>2013-11-09T15:28:47.86</time>
      </trkpt>
      <trkpt lat="38.48779" lon="-0.86065">
        <ele>1466.6000000000008</ele>
        <time>2013-11-09T15:28:48.81</time>
      </trkpt>
      <trkpt lat="38.48769333333333" lon="-0.8605166666666667">
        <ele>1465.8000000000009</ele>
        <time>2013-11-09T15:28:49.85</time>
      </trkpt>
      <trkpt lat="38.487555" lon="-0.8603933333333333">
        <ele>1465.000000000001</ele>
        <time>2013-11-09T15:28:50.79</time>
      </trkpt>
      <trkpt lat="38.4874" lon="-0.8602916666666667">
        <ele>1465.000000000001</ele>
        <time>2013-11-09T15:28:51.78</time>
      </trkpt>
      <trkpt lat="38.48723833333333" lon="-0.8602433333333334">
        <ele>1465.1000000000008</ele>
        <time>2013-11-09T15:28:52.84</time>
      </trkpt>
      <trkpt lat="38.48710166666667" lon="-0.8602233333333333">
        <ele>1465.8000000000009</ele>
        <time>2013-11-09T15:28:53.78</time>
      </trkpt>
      <trkpt lat="38.48698" lon="-0.860245">
        <ele>1466.6000000000008</ele>
        <time>2013-11-09T15:28:54.82</time>
      </trkpt>
      <trkpt lat="38.48688166666667" lon="-0.8602666666666666">
        <ele>1467.9000000000008</ele>
        <time>2013-11-09T15:28:55.92</time>
      </trkpt>
      <trkpt lat="38.486806666666666" lon="-0.8602933333333334">
        <ele>1469.2000000000007</ele>
        <time>2013-11-09T15:28:56.85</time>
      </trkpt>
      <trkpt lat="38.486735" lon="-0.860345">
        <ele>1470.7000000000007</ele>
        <time>2013-11-09T15:28:57.86</time>
      </trkpt>
      <trkpt lat="38.486668333333334" lon="-0.8604">
        <ele>1471.8000000000006</ele>
        <time>2013-11-09T15:28:58.83</time>
      </trkpt>
      <trkpt lat="38.486625" lon="-0.8604733333333333">
        <ele>1472.4000000000005</ele>
        <time>2013-11-09T15:28:59.82</time>
      </trkpt>
      <trkpt lat="38.486605" lon="-0.8605566666666667">
        <ele>1472.8000000000006</ele>
        <time>2013-11-09T15:29:00.99</time>
      </trkpt>
      <trkpt lat="38.48661333333333" lon="-0.8606233333333333">
        <ele>1472.8000000000006</ele>
        <time>2013-11-09T15:29:01.87</time>
      </trkpt>
      <trkpt lat="38.486655" lon="-0.8606266666666667">
        <ele>1472.8000000000006</ele>
        <time>2013-11-09T15:29:02.93</time>
      </trkpt>
      <trkpt lat="38.486711666666665" lon="-0.8606066666666667">
        <ele>1472.9000000000005</ele>
        <time>2013-11-09T15:29:03.89</time>
      </trkpt>
      <trkpt lat="38.486758333333334" lon="-0.8605416666666666">
        <ele>1472.7000000000005</ele>
        <time>2013-11-09T15:29:04.80</time>
      </trkpt>
      <trkpt lat="38.48679833333333" lon="-0.8604649999999999">
        <ele>1472.6000000000006</ele>
        <time>2013-11-09T15:29:05.79</time>
      </trkpt>
      <trkpt lat="38.486835" lon="-0.8603799999999999">
        <ele>1472.1000000000006</ele>
        <time>2013-11-09T15:29:06.82</time>
      </trkpt>
      <trkpt lat="38.48688166666667" lon="-0.8602483333333333">
        <ele>1471.6000000000006</ele>
        <time>2013-11-09T15:29:07.90</time>
      </trkpt>
      <trkpt lat="38.486918333333335" lon="-0.8600949999999999">
        <ele>1470.6000000000006</ele>
        <time>2013-11-09T15:29:08.91</time>
      </trkpt>
      <trkpt lat="38.48692333333333" lon="-0.85992">
        <ele>1469.3000000000006</ele>
        <time>2013-11-09T15:29:09.88</time>
      </trkpt>
      <trkpt lat="38.48692333333333" lon="-0.8597400000000001">
        <ele>1468.0000000000007</ele>
        <time>2013-11-09T15:29:11.28</time>
      </trkpt>
      <trkpt lat="38.486848333333334" lon="-0.8593666666666666">
        <ele>1467.5000000000007</ele>
        <time>2013-11-09T15:29:13.28</time>
      </trkpt>
      <trkpt lat="38.486785" lon="-0.8592133333333333">
        <ele>1468.0000000000007</ele>
        <time>2013-11-09T15:29:13.80</time>
      </trkpt>
      <trkpt lat="38.48672333333333" lon="-0.8590966666666666">
        <ele>1468.4000000000008</ele>
        <time>2013-11-09T15:29:14.80</time>
      </trkpt>
      <trkpt lat="38.486655" lon="-0.85897">
        <ele>1468.7000000000007</ele>
        <time>2013-11-09T15:29:15.80</time>
      </trkpt>
      <trkpt lat="38.486581666666666" lon="-0.8588266666666667">
        <ele>1468.5000000000007</ele>
        <time>2013-11-09T15:29:16.86</time>
      </trkpt>
      <trkpt lat="38.48650166666667" lon="-0.8586683333333334">
        <ele>1468.2000000000007</ele>
        <time>2013-11-09T15:29:17.79</time>
      </trkpt>
      <trkpt lat="38.486415" lon="-0.8585016666666667">
        <ele>1467.7000000000007</ele>
        <time>2013-11-09T15:29:19.69</time>
      </trkpt>
      <trkpt lat="38.486235" lon="-0.858215">
        <ele>1467.6000000000008</ele>
        <time>2013-11-09T15:29:21.9</time>
      </trkpt>
      <trkpt lat="38.48612333333333" lon="-0.8581233333333333">
        <ele>1468.1000000000008</ele>
        <time>2013-11-09T15:29:22.64</time>
      </trkpt>
      <trkpt lat="38.48600833333333" lon="-0.8580333333333333">
        <ele>1468.8000000000009</ele>
        <time>2013-11-09T15:29:22.88</time>
      </trkpt>
      <trkpt lat="38.485888333333335" lon="-0.8579466666666666">
        <ele>1469.200000000001</ele>
        <time>2013-11-09T15:29:23.81</time>
      </trkpt>
      <trkpt lat="38.48575666666667" lon="-0.8578600000000001">
        <ele>1469.3000000000009</ele>
        <time>2013-11-09T15:29:24.83</time>
      </trkpt>
      <trkpt lat="38.485611666666664" lon="-0.85777">
        <ele>1469.1000000000008</ele>
        <time>2013-11-09T15:29:25.85</time>
      </trkpt>
      <trkpt lat="38.485455" lon="-0.85774">
        <ele>1469.000000000001</ele>
        <time>2013-11-09T15:29:26.79</time>
      </trkpt>
      <trkpt lat="38.48532333333333" lon="-0.8577383333333334">
        <ele>1469.1000000000008</ele>
        <time>2013-11-09T15:29:27.80</time>
      </trkpt>
      <trkpt lat="38.48518166666667" lon="-0.8577733333333334">
        <ele>1469.6000000000008</ele>
        <time>2013-11-09T15:29:28.79</time>
      </trkpt>
      <trkpt lat="38.485063333333336" lon="-0.857815">
        <ele>1470.3000000000009</ele>
        <time>2013-11-09T15:29:29.78</time>
      </trkpt>
      <trkpt lat="38.484966666666665" lon="-0.8578783333333334">
        <ele>1471.000000000001</ele>
        <time>2013-11-09T15:29:30.81</time>
      </trkpt>
      <trkpt lat="38.48489" lon="-0.857965">
        <ele>1471.500000000001</ele>
        <time>2013-11-09T15:29:31.85</time>
      </trkpt>
      <trkpt lat="38.48482333333333" lon="-0.8580450000000001">
        <ele>1471.6000000000008</ele>
        <time>2013-11-09T15:29:32.92</time>
      </trkpt>
      <trkpt lat="38.484765" lon="-0.8581266666666667">
        <ele>1471.4000000000008</ele>
        <time>2013-11-09T15:29:33.86</time>
      </trkpt>
      <trkpt lat="38.48471166666667" lon="-0.8582016666666666">
        <ele>1471.1000000000008</ele>
        <time>2013-11-09T15:29:34.85</time>
      </trkpt>
      <trkpt lat="38.484665" lon="-0.8582633333333334">
        <ele>1470.7000000000007</ele>
        <time>2013-11-09T15:29:35.85</time>
      </trkpt>
      <trkpt lat="38.48463" lon="-0.8583149999999999">
        <ele>1470.3000000000006</ele>
        <time>2013-11-09T15:29:36.85</time>
      </trkpt>
      <trkpt lat="38.48461833333333" lon="-0.8583700000000001">
        <ele>1469.4000000000005</ele>
        <time>2013-11-09T15:29:37.85</time>
      </trkpt>
      <trkpt lat="38.48463" lon="-0.8584116666666667">
        <ele>1468.4000000000005</ele>
        <time>2013-11-09T15:29:38.86</time>
      </trkpt>
      <trkpt lat="38.484653333333334" lon="-0.8584466666666667">
        <ele>1468.3000000000006</ele>
        <time>2013-11-09T15:29:39.85</time>
      </trkpt>
      <trkpt lat="38.48469" lon="-0.8584666666666667">
        <ele>1468.1000000000006</ele>
        <time>2013-11-09T15:29:40.85</time>
      </trkpt>
      <trkpt lat="38.484735" lon="-0.8584816666666666">
        <ele>1467.9000000000005</ele>
        <time>2013-11-09T15:29:41.91</time>
      </trkpt>
      <trkpt lat="38.48478" lon="-0.858465">
        <ele>1465.5000000000005</ele>
        <time>2013-11-09T15:29:42.85</time>
      </trkpt>
      <trkpt lat="38.484838333333336" lon="-0.858415">
        <ele>1462.8000000000004</ele>
        <time>2013-11-09T15:29:43.85</time>
      </trkpt>
      <trkpt lat="38.4849" lon="-0.8583383333333334">
        <ele>1460.7000000000005</ele>
        <time>2013-11-09T15:29:44.85</time>
      </trkpt>
      <trkpt lat="38.484945" lon="-0.8582533333333333">
        <ele>1458.8000000000004</ele>
        <time>2013-11-09T15:29:45.85</time>
      </trkpt>
      <trkpt lat="38.484985" lon="-0.8581716666666667">
        <ele>1457.3000000000004</ele>
        <time>2013-11-09T15:29:46.85</time>
      </trkpt>
      <trkpt lat="38.48502333333333" lon="-0.8580766666666667">
        <ele>1455.9000000000003</ele>
        <time>2013-11-09T15:29:47.85</time>
      </trkpt>
      <trkpt lat="38.485058333333335" lon="-0.85797">
        <ele>1454.8000000000004</ele>
        <time>2013-11-09T15:29:48.85</time>
      </trkpt>
      <trkpt lat="38.48508833333333" lon="-0.8578633333333333">
        <ele>1453.9000000000003</ele>
        <time>2013-11-09T15:29:49.81</time>
      </trkpt>
      <trkpt lat="38.48511333333333" lon="-0.8577433333333333">
        <ele>1452.9000000000003</ele>
        <time>2013-11-09T15:29:50.85</time>
      </trkpt>
      <trkpt lat="38.485135" lon="-0.8576033333333334">
        <ele>1451.5000000000002</ele>
        <time>2013-11-09T15:29:51.85</time>
      </trkpt>
      <trkpt lat="38.485153333333336" lon="-0.8574616666666667">
        <ele>1450.1000000000001</ele>
        <time>2013-11-09T15:29:52.85</time>
      </trkpt>
      <trkpt lat="38.485171666666666" lon="-0.85732">
        <ele>1449.0000000000002</ele>
        <time>2013-11-09T15:29:53.85</time>
      </trkpt>
      <trkpt lat="38.48518166666667" lon="-0.857175">
        <ele>1447.8000000000002</ele>
        <time>2013-11-09T15:29:54.86</time>
      </trkpt>
      <trkpt lat="38.48519" lon="-0.85704">
        <ele>1447.1000000000001</ele>
        <time>2013-11-09T15:29:55.90</time>
      </trkpt>
      <trkpt lat="38.48520333333333" lon="-0.8569">
        <ele>1446.2</ele>
        <time>2013-11-09T15:29:56.85</time>
      </trkpt>
      <trkpt lat="38.485211666666665" lon="-0.8567566666666667">
        <ele>1445.2</ele>
        <time>2013-11-09T15:29:57.85</time>
      </trkpt>
      <trkpt lat="38.485218333333336" lon="-0.8566199999999999">
        <ele>1444</ele>
        <time>2013-11-09T15:29:58.85</time>
      </trkpt>
      <trkpt lat="38.48520666666667" lon="-0.85647">
        <ele>1442.1</ele>
        <time>2013-11-09T15:29:59.85</time>
      </trkpt>
      <trkpt lat="38.485171666666666" lon="-0.856315">
        <ele>1440.1</ele>
        <time>2013-11-09T15:30:00.92</time>
      </trkpt>
      <trkpt lat="38.485121666666664" lon="-0.8561449999999999">
        <ele>1438.6</ele>
        <time>2013-11-09T15:30:01.85</time>
      </trkpt>
      <trkpt lat="38.48507166666667" lon="-0.8559716666666667">
        <ele>1436.8999999999999</ele>
        <time>2013-11-09T15:30:02.95</time>
      </trkpt>
      <trkpt lat="38.48502333333333" lon="-0.8558016666666667">
        <ele>1435.6</ele>
        <time>2013-11-09T15:30:03.83</time>
      </trkpt>
      <trkpt lat="38.484968333333335" lon="-0.8556533333333333">
        <ele>1434.8</ele>
        <time>2013-11-09T15:30:04.85</time>
      </trkpt>
      <trkpt lat="38.48491333333333" lon="-0.8555200000000001">
        <ele>1434</ele>
        <time>2013-11-09T15:30:05.85</time>
      </trkpt>
      <trkpt lat="38.484856666666666" lon="-0.8553883333333334">
        <ele>1432.9</ele>
        <time>2013-11-09T15:30:06.87</time>
      </trkpt>
      <trkpt lat="38.484793333333336" lon="-0.8552483333333334">
        <ele>1431.4</ele>
        <time>2013-11-09T15:30:07.92</time>
      </trkpt>
      <trkpt lat="38.48472" lon="-0.8550883333333333">
        <ele>1429.3000000000002</ele>
        <time>2013-11-09T15:30:08.85</time>
      </trkpt>
      <trkpt lat="38.48464166666667" lon="-0.854905">
        <ele>1427.7000000000003</ele>
        <time>2013-11-09T15:30:09.85</time>
      </trkpt>
      <trkpt lat="38.484575" lon="-0.8547383333333334">
        <ele>1426.5000000000002</ele>
        <time>2013-11-09T15:30:10.85</time>
      </trkpt>
      <trkpt lat="38.48451333333333" lon="-0.8545766666666667">
        <ele>1425.6000000000001</ele>
        <time>2013-11-09T15:30:11.85</time>
      </trkpt>
      <trkpt lat="38.484453333333335" lon="-0.8544250000000001">
        <ele>1425.2</ele>
        <time>2013-11-09T15:30:12.85</time>
      </trkpt>
      <trkpt lat="38.48439666666667" lon="-0.8542833333333333">
        <ele>1425</ele>
        <time>2013-11-09T15:30:13.85</time>
      </trkpt>
      <trkpt lat="38.48434" lon="-0.8541433333333334">
        <ele>1424.9</ele>
        <time>2013-11-09T15:30:14.85</time>
      </trkpt>
      <trkpt lat="38.48428" lon="-0.854">
        <ele>1424.7</ele>
        <time>2013-11-09T15:30:15.85</time>
      </trkpt>
      <trkpt lat="38.484228333333334" lon="-0.8538616666666666">
        <ele>1424.9</ele>
        <time>2013-11-09T15:30:16.85</time>
      </trkpt>
      <trkpt lat="38.48417333333333" lon="-0.8537216666666667">
        <ele>1425.1000000000001</ele>
        <time>2013-11-09T15:30:17.85</time>
      </trkpt>
      <trkpt lat="38.48412166666667" lon="-0.8535716666666667">
        <ele>1425.4</ele>
        <time>2013-11-09T15:30:18.85</time>
      </trkpt>
      <trkpt lat="38.484071666666665" lon="-0.8534183333333334">
        <ele>1425.5</ele>
        <time>2013-11-09T15:30:19.85</time>
      </trkpt>
      <trkpt lat="38.484028333333335" lon="-0.8532683333333334">
        <ele>1425</ele>
        <time>2013-11-09T15:30:20.85</time>
      </trkpt>
      <trkpt lat="38.48398666666667" lon="-0.8531266666666667">
        <ele>1424.4</ele>
        <time>2013-11-09T15:30:21.85</time>
      </trkpt>
      <trkpt lat="38.483945" lon="-0.8529933333333334">
        <ele>1424</ele>
        <time>2013-11-09T15:30:22.86</time>
      </trkpt>
      <trkpt lat="38.48391" lon="-0.85286">
        <ele>1423.5</ele>
        <time>2013-11-09T15:30:23.81</time>
      </trkpt>
      <trkpt lat="38.483873333333335" lon="-0.8527116666666666">
        <ele>1422.6</ele>
        <time>2013-11-09T15:30:24.86</time>
      </trkpt>
      <trkpt lat="38.483835" lon="-0.8525566666666666">
        <ele>1421.5</ele>
        <time>2013-11-09T15:30:25.85</time>
      </trkpt>
      <trkpt lat="38.48379666666666" lon="-0.8523983333333334">
        <ele>1421</ele>
        <time>2013-11-09T15:30:26.87</time>
      </trkpt>
      <trkpt lat="38.483761666666666" lon="-0.852245">
        <ele>1420.5</ele>
        <time>2013-11-09T15:30:27.85</time>
      </trkpt>
      <trkpt lat="38.48373" lon="-0.85209">
        <ele>1419.5</ele>
        <time>2013-11-09T15:30:28.85</time>
      </trkpt>
      <trkpt lat="38.483705" lon="-0.8519416666666667">
        <ele>1418.7</ele>
        <time>2013-11-09T15:30:29.86</time>
      </trkpt>
      <trkpt lat="38.483685" lon="-0.851795">
        <ele>1417.6000000000001</ele>
        <time>2013-11-09T15:30:30.85</time>
      </trkpt>
      <trkpt lat="38.483653333333336" lon="-0.8516233333333333">
        <ele>1416.8000000000002</ele>
        <time>2013-11-09T15:30:31.85</time>
      </trkpt>
      <trkpt lat="38.48362" lon="-0.8514483333333334">
        <ele>1415.5000000000002</ele>
        <time>2013-11-09T15:30:32.85</time>
      </trkpt>
      <trkpt lat="38.48359" lon="-0.8512850000000001">
        <ele>1414.4000000000003</ele>
        <time>2013-11-09T15:30:33.85</time>
      </trkpt>
      <trkpt lat="38.48356166666667" lon="-0.8511316666666667">
        <ele>1413.3000000000004</ele>
        <time>2013-11-09T15:30:34.86</time>
      </trkpt>
      <trkpt lat="38.483535" lon="-0.85098">
        <ele>1412.4000000000003</ele>
        <time>2013-11-09T15:30:35.83</time>
      </trkpt>
      <trkpt lat="38.483513333333335" lon="-0.8508283333333334">
        <ele>1412.4000000000003</ele>
        <time>2013-11-09T15:30:36.81</time>
      </trkpt>
      <trkpt lat="38.48349" lon="-0.8506750000000001">
        <ele>1411.9000000000003</ele>
        <time>2013-11-09T15:30:37.81</time>
      </trkpt>
      <trkpt lat="38.483465" lon="-0.8505066666666666">
        <ele>1410.8000000000004</ele>
        <time>2013-11-09T15:30:38.83</time>
      </trkpt>
      <trkpt lat="38.48343" lon="-0.8503216666666666">
        <ele>1409.9000000000003</ele>
        <time>2013-11-09T15:30:39.81</time>
      </trkpt>
      <trkpt lat="38.48339" lon="-0.85012">
        <ele>1409.3000000000004</ele>
        <time>2013-11-09T15:30:40.78</time>
      </trkpt>
      <trkpt lat="38.48336166666667" lon="-0.8499300000000001">
        <ele>1408.6000000000004</ele>
        <time>2013-11-09T15:30:41.80</time>
      </trkpt>
      <trkpt lat="38.483335" lon="-0.8497483333333334">
        <ele>1408.1000000000004</ele>
        <time>2013-11-09T15:30:42.80</time>
      </trkpt>
      <trkpt lat="38.48331" lon="-0.8495816666666667">
        <ele>1407.7000000000003</ele>
        <time>2013-11-09T15:30:43.81</time>
      </trkpt>
      <trkpt lat="38.483285" lon="-0.849425">
        <ele>1406.9000000000003</ele>
        <time>2013-11-09T15:30:44.78</time>
      </trkpt>
      <trkpt lat="38.483255" lon="-0.8492599999999999">
        <ele>1406.0000000000002</ele>
        <time>2013-11-09T15:30:45.96</time>
      </trkpt>
      <trkpt lat="38.483221666666665" lon="-0.8490883333333333">
        <ele>1405.1000000000001</ele>
        <time>2013-11-09T15:30:46.80</time>
      </trkpt>
      <trkpt lat="38.48318666666667" lon="-0.8489133333333334">
        <ele>1404.1000000000001</ele>
        <time>2013-11-09T15:30:47.83</time>
      </trkpt>
      <trkpt lat="38.483145" lon="-0.8487333333333333">
        <ele>1403.2</ele>
        <time>2013-11-09T15:30:48.80</time>
      </trkpt>
      <trkpt lat="38.4831" lon="-0.8485533333333334">
        <ele>1402.3</ele>
        <time>2013-11-09T15:30:49.79</time>
      </trkpt>
      <trkpt lat="38.483048333333336" lon="-0.8483816666666667">
        <ele>1401.8999999999999</ele>
        <time>2013-11-09T15:30:50.80</time>
      </trkpt>
      <trkpt lat="38.483" lon="-0.8482133333333334">
        <ele>1401.6999999999998</ele>
        <time>2013-11-09T15:30:51.78</time>
      </trkpt>
      <trkpt lat="38.482953333333334" lon="-0.8480483333333333">
        <ele>1401.6</ele>
        <time>2013-11-09T15:30:52.81</time>
      </trkpt>
      <trkpt lat="38.482915" lon="-0.8478833333333333">
        <ele>1401.3999999999999</ele>
        <time>2013-11-09T15:30:53.80</time>
      </trkpt>
      <trkpt lat="38.482883333333334" lon="-0.8477166666666667">
        <ele>1401.3</ele>
        <time>2013-11-09T15:30:54.80</time>
      </trkpt>
      <trkpt lat="38.48285333333333" lon="-0.8475533333333334">
        <ele>1401.5</ele>
        <time>2013-11-09T15:30:55.78</time>
      </trkpt>
      <trkpt lat="38.482823333333336" lon="-0.847375">
        <ele>1401.5</ele>
        <time>2013-11-09T15:30:56.81</time>
      </trkpt>
      <trkpt lat="38.482785" lon="-0.84721">
        <ele>1402.2</ele>
        <time>2013-11-09T15:30:57.79</time>
      </trkpt>
      <trkpt lat="38.48274833333333" lon="-0.847035">
        <ele>1402.9</ele>
        <time>2013-11-09T15:30:58.82</time>
      </trkpt>
      <trkpt lat="38.48271166666667" lon="-0.8468616666666667">
        <ele>1403.9</ele>
        <time>2013-11-09T15:30:59.83</time>
      </trkpt>
      <trkpt lat="38.48267666666667" lon="-0.8466866666666667">
        <ele>1404.8</ele>
        <time>2013-11-09T15:31:03.99</time>
      </trkpt>
      <trkpt lat="38.48264666666667" lon="-0.8465216666666666">
        <ele>1405.3999999999999</ele>
        <time>2013-11-09T15:31:04.9</time>
      </trkpt>
      <trkpt lat="38.482615" lon="-0.8463533333333333">
        <ele>1405.8</ele>
        <time>2013-11-09T15:31:04.9</time>
      </trkpt>
      <trkpt lat="38.48258333333333" lon="-0.8461766666666667">
        <ele>1405.6</ele>
        <time>2013-11-09T15:31:04.9</time>
      </trkpt>
      <trkpt lat="38.482551666666666" lon="-0.8459966666666666">
        <ele>1405.3999999999999</ele>
        <time>2013-11-09T15:31:04.81</time>
      </trkpt>
      <trkpt lat="38.48252333333333" lon="-0.8458133333333334">
        <ele>1405.3999999999999</ele>
        <time>2013-11-09T15:31:05.80</time>
      </trkpt>
      <trkpt lat="38.482501666666664" lon="-0.8456416666666667">
        <ele>1405.3999999999999</ele>
        <time>2013-11-09T15:31:06.80</time>
      </trkpt>
      <trkpt lat="38.482481666666665" lon="-0.8454616666666667">
        <ele>1405.8999999999999</ele>
        <time>2013-11-09T15:31:07.81</time>
      </trkpt>
      <trkpt lat="38.48245333333333" lon="-0.845295">
        <ele>1405.3999999999999</ele>
        <time>2013-11-09T15:31:08.78</time>
      </trkpt>
      <trkpt lat="38.48242166666667" lon="-0.8451216666666667">
        <ele>1403.9999999999998</ele>
        <time>2013-11-09T15:31:09.79</time>
      </trkpt>
      <trkpt lat="38.48238333333333" lon="-0.8449416666666667">
        <ele>1402.7999999999997</ele>
        <time>2013-11-09T15:31:10.81</time>
      </trkpt>
      <trkpt lat="38.482351666666666" lon="-0.8447600000000001">
        <ele>1401.8999999999996</ele>
        <time>2013-11-09T15:31:11.80</time>
      </trkpt>
      <trkpt lat="38.482326666666665" lon="-0.8446016666666666">
        <ele>1401.7999999999997</ele>
        <time>2013-11-09T15:31:12.79</time>
      </trkpt>
      <trkpt lat="38.482306666666666" lon="-0.8444433333333333">
        <ele>1401.4999999999998</ele>
        <time>2013-11-09T15:31:13.78</time>
      </trkpt>
      <trkpt lat="38.482285" lon="-0.844275">
        <ele>1400.8999999999999</ele>
        <time>2013-11-09T15:31:14.81</time>
      </trkpt>
      <trkpt lat="38.48226" lon="-0.8441016666666666">
        <ele>1399.9999999999998</ele>
        <time>2013-11-09T15:31:15.78</time>
      </trkpt>
      <trkpt lat="38.482235" lon="-0.843925">
        <ele>1399.0999999999997</ele>
        <time>2013-11-09T15:31:16.81</time>
      </trkpt>
      <trkpt lat="38.48220833333333" lon="-0.8437483333333333">
        <ele>1398.1999999999996</ele>
        <time>2013-11-09T15:31:17.79</time>
      </trkpt>
      <trkpt lat="38.482185" lon="-0.8435699999999999">
        <ele>1397.3999999999996</ele>
        <time>2013-11-09T15:31:18.80</time>
      </trkpt>
      <trkpt lat="38.48216" lon="-0.843395">
        <ele>1396.6999999999996</ele>
        <time>2013-11-09T15:31:19.81</time>
      </trkpt>
      <trkpt lat="38.482135" lon="-0.8432099999999999">
        <ele>1395.8999999999996</ele>
        <time>2013-11-09T15:31:20.81</time>
      </trkpt>
      <trkpt lat="38.48211" lon="-0.8430316666666666">
        <ele>1395.3999999999996</ele>
        <time>2013-11-09T15:31:21.80</time>
      </trkpt>
      <trkpt lat="38.482083333333335" lon="-0.8428516666666667">
        <ele>1395.4999999999995</ele>
        <time>2013-11-09T15:31:22.79</time>
      </trkpt>
      <trkpt lat="38.48206" lon="-0.842665">
        <ele>1395.5999999999995</ele>
        <time>2013-11-09T15:31:23.82</time>
      </trkpt>
      <trkpt lat="38.482035" lon="-0.84248">
        <ele>1395.6999999999994</ele>
        <time>2013-11-09T15:31:24.83</time>
      </trkpt>
      <trkpt lat="38.48200833333333" lon="-0.8422999999999999">
        <ele>1395.8999999999994</ele>
        <time>2013-11-09T15:31:25.83</time>
      </trkpt>
      <trkpt lat="38.48197833333333" lon="-0.84212">
        <ele>1395.5999999999995</ele>
        <time>2013-11-09T15:31:26.83</time>
      </trkpt>
      <trkpt lat="38.481941666666664" lon="-0.8419366666666667">
        <ele>1395.3999999999994</ele>
        <time>2013-11-09T15:31:27.93</time>
      </trkpt>
      <trkpt lat="38.481896666666664" lon="-0.8417516666666667">
        <ele>1394.8999999999994</ele>
        <time>2013-11-09T15:31:29.79</time>
      </trkpt>
      <trkpt lat="38.48184333333333" lon="-0.84157">
        <ele>1394.4999999999993</ele>
        <time>2013-11-09T15:31:30.29</time>
      </trkpt>
      <trkpt lat="38.48178166666667" lon="-0.8413866666666666">
        <ele>1393.9999999999993</ele>
        <time>2013-11-09T15:31:30.84</time>
      </trkpt>
      <trkpt lat="38.481716666666664" lon="-0.8411966666666667">
        <ele>1393.2999999999993</ele>
        <time>2013-11-09T15:31:31.79</time>
      </trkpt>
      <trkpt lat="38.481656666666666" lon="-0.8410116666666667">
        <ele>1392.2999999999993</ele>
        <time>2013-11-09T15:31:33.19</time>
      </trkpt>
      <trkpt lat="38.48159166666667" lon="-0.840825">
        <ele>1391.3999999999992</ele>
        <time>2013-11-09T15:31:33.97</time>
      </trkpt>
      <trkpt lat="38.48152833333333" lon="-0.8406433333333333">
        <ele>1390.499999999999</ele>
        <time>2013-11-09T15:31:35.59</time>
      </trkpt>
      <trkpt lat="38.48146333333333" lon="-0.8404666666666666">
        <ele>1389.6999999999991</ele>
        <time>2013-11-09T15:31:35.82</time>
      </trkpt>
      <trkpt lat="38.4814" lon="-0.8402966666666667">
        <ele>1388.999999999999</ele>
        <time>2013-11-09T15:31:36.90</time>
      </trkpt>
      <trkpt lat="38.48133166666667" lon="-0.8401133333333333">
        <ele>1388.099999999999</ele>
        <time>2013-11-09T15:31:37.80</time>
      </trkpt>
      <trkpt lat="38.48126333333333" lon="-0.8399283333333333">
        <ele>1387.399999999999</ele>
        <time>2013-11-09T15:31:38.83</time>
      </trkpt>
      <trkpt lat="38.48119666666667" lon="-0.8397433333333333">
        <ele>1386.599999999999</ele>
        <time>2013-11-09T15:31:39.79</time>
      </trkpt>
      <trkpt lat="38.48113" lon="-0.8395533333333333">
        <ele>1385.799999999999</ele>
        <time>2013-11-09T15:31:40.79</time>
      </trkpt>
      <trkpt lat="38.48106333333333" lon="-0.8393683333333333">
        <ele>1385.1999999999991</ele>
        <time>2013-11-09T15:31:41.97</time>
      </trkpt>
      <trkpt lat="38.481001666666664" lon="-0.8391916666666667">
        <ele>1384.3999999999992</ele>
        <time>2013-11-09T15:31:43.15</time>
      </trkpt>
      <trkpt lat="38.480941666666666" lon="-0.8390216666666667">
        <ele>1383.499999999999</ele>
        <time>2013-11-09T15:31:45.18</time>
      </trkpt>
      <trkpt lat="38.480763333333336" lon="-0.8385233333333333">
        <ele>1380.6999999999991</ele>
        <time>2013-11-09T15:31:47.29</time>
      </trkpt>
      <trkpt lat="38.48070333333333" lon="-0.8383583333333333">
        <ele>1379.6999999999991</ele>
        <time>2013-11-09T15:31:47.82</time>
      </trkpt>
      <trkpt lat="38.48064" lon="-0.8381866666666667">
        <ele>1378.6999999999991</ele>
        <time>2013-11-09T15:31:48.79</time>
      </trkpt>
      <trkpt lat="38.48057333333333" lon="-0.8380066666666667">
        <ele>1377.499999999999</ele>
        <time>2013-11-09T15:31:49.80</time>
      </trkpt>
      <trkpt lat="38.48051" lon="-0.8378233333333333">
        <ele>1376.499999999999</ele>
        <time>2013-11-09T15:31:50.83</time>
      </trkpt>
      <trkpt lat="38.480446666666666" lon="-0.83764">
        <ele>1375.8999999999992</ele>
        <time>2013-11-09T15:31:52.59</time>
      </trkpt>
      <trkpt lat="38.48038666666667" lon="-0.8374683333333334">
        <ele>1375.3999999999992</ele>
        <time>2013-11-09T15:31:52.80</time>
      </trkpt>
      <trkpt lat="38.48032333333333" lon="-0.83731">
        <ele>1374.8999999999992</ele>
        <time>2013-11-09T15:31:53.85</time>
      </trkpt>
      <trkpt lat="38.48011" lon="-0.8368083333333334">
        <ele>1371.1</ele>
        <time>2013-11-09T15:31:57.45</time>
      </trkpt>
      <trkpt lat="38.48003166666667" lon="-0.8366283333333333">
        <ele>1369</ele>
        <time>2013-11-09T15:31:57.86</time>
      </trkpt>
      <trkpt lat="38.479958333333336" lon="-0.8364566666666666">
        <ele>1366.5</ele>
        <time>2013-11-09T15:31:58.82</time>
      </trkpt>
      <trkpt lat="38.479886666666665" lon="-0.8363066666666668">
        <ele>1363.8</ele>
        <time>2013-11-09T15:31:59.79</time>
      </trkpt>
      <trkpt lat="38.47981333333333" lon="-0.8361666666666667">
        <ele>1360.8999999999999</ele>
        <time>2013-11-09T15:32:00.79</time>
      </trkpt>
      <trkpt lat="38.47973" lon="-0.8360116666666666">
        <ele>1357.6</ele>
        <time>2013-11-09T15:32:01.83</time>
      </trkpt>
      <trkpt lat="38.479643333333335" lon="-0.8358516666666667">
        <ele>1353.8999999999999</ele>
        <time>2013-11-09T15:32:03.13</time>
      </trkpt>
      <trkpt lat="38.479551666666666" lon="-0.8356816666666667">
        <ele>1350.4999999999998</ele>
        <time>2013-11-09T15:32:03.81</time>
      </trkpt>
      <trkpt lat="38.479385" lon="-0.8353716666666667">
        <ele>1345</ele>
        <time>2013-11-09T15:32:06.82</time>
      </trkpt>
      <trkpt lat="38.479231666666664" lon="-0.8350783333333334">
        <ele>1337.7</ele>
        <time>2013-11-09T15:32:08.41</time>
      </trkpt>
      <trkpt lat="38.479153333333336" lon="-0.8349216666666667">
        <ele>1333.8</ele>
        <time>2013-11-09T15:32:08.79</time>
      </trkpt>
      <trkpt lat="38.479075" lon="-0.8347616666666667">
        <ele>1330</ele>
        <time>2013-11-09T15:32:09.81</time>
      </trkpt>
      <trkpt lat="38.479" lon="-0.8346">
        <ele>1326.7</ele>
        <time>2013-11-09T15:32:10.80</time>
      </trkpt>
      <trkpt lat="38.478923333333334" lon="-0.83443">
        <ele>1323.6000000000001</ele>
        <time>2013-11-09T15:32:11.82</time>
      </trkpt>
      <trkpt lat="38.47884833333333" lon="-0.83426">
        <ele>1321.0000000000002</ele>
        <time>2013-11-09T15:32:12.79</time>
      </trkpt>
      <trkpt lat="38.47877" lon="-0.8340833333333334">
        <ele>1318.8000000000002</ele>
        <time>2013-11-09T15:32:14.59</time>
      </trkpt>
      <trkpt lat="38.478698333333334" lon="-0.8339216666666667">
        <ele>1317.1</ele>
        <time>2013-11-09T15:32:16.83</time>
      </trkpt>
      <trkpt lat="38.478478333333335" lon="-0.8334516666666667">
        <ele>1311.1</ele>
        <time>2013-11-09T15:32:18.27</time>
      </trkpt>
      <trkpt lat="38.47840333333333" lon="-0.8332966666666667">
        <ele>1308.6</ele>
        <time>2013-11-09T15:32:18.81</time>
      </trkpt>
      <trkpt lat="38.47832" lon="-0.8331266666666667">
        <ele>1306.3999999999999</ele>
        <time>2013-11-09T15:32:20.10</time>
      </trkpt>
      <trkpt lat="38.478225" lon="-0.83296">
        <ele>1304.6</ele>
        <time>2013-11-09T15:32:20.80</time>
      </trkpt>
      <trkpt lat="38.478125" lon="-0.8328033333333333">
        <ele>1303.6999999999998</ele>
        <time>2013-11-09T15:32:22.15</time>
      </trkpt>
      <trkpt lat="38.478025" lon="-0.8326566666666667">
        <ele>1302.7999999999997</ele>
        <time>2013-11-09T15:32:22.81</time>
      </trkpt>
      <trkpt lat="38.477925" lon="-0.8325016666666667">
        <ele>1301.2999999999997</ele>
        <time>2013-11-09T15:32:23.90</time>
      </trkpt>
      <trkpt lat="38.477825" lon="-0.8323466666666667">
        <ele>1299.7999999999997</ele>
        <time>2013-11-09T15:32:25.26</time>
      </trkpt>
      <trkpt lat="38.47772666666667" lon="-0.8321783333333334">
        <ele>1298.1999999999998</ele>
        <time>2013-11-09T15:32:26.30</time>
      </trkpt>
      <trkpt lat="38.47755166666666" lon="-0.8318783333333334">
        <ele>1294.7999999999997</ele>
        <time>2013-11-09T15:32:28.59</time>
      </trkpt>
      <trkpt lat="38.47748333333333" lon="-0.83174">
        <ele>1292.3999999999996</ele>
        <time>2013-11-09T15:32:28.87</time>
      </trkpt>
      <trkpt lat="38.47743166666667" lon="-0.8316066666666667">
        <ele>1289.7999999999997</ele>
        <time>2013-11-09T15:32:29.79</time>
      </trkpt>
      <trkpt lat="38.477376666666665" lon="-0.8314616666666667">
        <ele>1286.8999999999996</ele>
        <time>2013-11-09T15:32:30.79</time>
      </trkpt>
      <trkpt lat="38.47732166666667" lon="-0.8313133333333333">
        <ele>1283.8999999999996</ele>
        <time>2013-11-09T15:32:31.82</time>
      </trkpt>
      <trkpt lat="38.477261666666664" lon="-0.83116">
        <ele>1280.9999999999995</ele>
        <time>2013-11-09T15:32:33.12</time>
      </trkpt>
      <trkpt lat="38.477203333333335" lon="-0.8310099999999999">
        <ele>1278.1999999999996</ele>
        <time>2013-11-09T15:32:35.64</time>
      </trkpt>
      <trkpt lat="38.477043333333334" lon="-0.8305383333333333">
        <ele>1270.3999999999996</ele>
        <time>2013-11-09T15:32:37.69</time>
      </trkpt>
      <trkpt lat="38.47699333333333" lon="-0.8303866666666667">
        <ele>1268.2999999999997</ele>
        <time>2013-11-09T15:32:37.81</time>
      </trkpt>
      <trkpt lat="38.47694333333333" lon="-0.83024">
        <ele>1266.3999999999996</ele>
        <time>2013-11-09T15:32:38.84</time>
      </trkpt>
      <trkpt lat="38.47689666666667" lon="-0.8301033333333333">
        <ele>1264.6999999999996</ele>
        <time>2013-11-09T15:32:39.79</time>
      </trkpt>
      <trkpt lat="38.476855" lon="-0.8299633333333334">
        <ele>1262.8999999999996</ele>
        <time>2013-11-09T15:32:40.80</time>
      </trkpt>
      <trkpt lat="38.476815" lon="-0.82982">
        <ele>1260.8999999999996</ele>
        <time>2013-11-09T15:32:41.84</time>
      </trkpt>
      <trkpt lat="38.476771666666664" lon="-0.8296683333333333">
        <ele>1258.6999999999996</ele>
        <time>2013-11-09T15:32:42.99</time>
      </trkpt>
      <trkpt lat="38.47665166666667" lon="-0.8291933333333333">
        <ele>1251.1</ele>
        <time>2013-11-09T15:32:46.68</time>
      </trkpt>
      <trkpt lat="38.47662166666667" lon="-0.8290400000000001">
        <ele>1248.6999999999998</ele>
        <time>2013-11-09T15:32:46.79</time>
      </trkpt>
      <trkpt lat="38.47658666666667" lon="-0.8288833333333333">
        <ele>1246.6999999999998</ele>
        <time>2013-11-09T15:32:47.87</time>
      </trkpt>
      <trkpt lat="38.47654333333333" lon="-0.8287466666666667">
        <ele>1244.6</ele>
        <time>2013-11-09T15:32:48.81</time>
      </trkpt>
      <trkpt lat="38.476495" lon="-0.82859">
        <ele>1242.8</ele>
        <time>2013-11-09T15:32:49.82</time>
      </trkpt>
      <trkpt lat="38.47645166666667" lon="-0.8284333333333334">
        <ele>1241</ele>
        <time>2013-11-09T15:32:50.79</time>
      </trkpt>
      <trkpt lat="38.476415" lon="-0.8283">
        <ele>1238.9</ele>
        <time>2013-11-09T15:32:52.26</time>
      </trkpt>
      <trkpt lat="38.47638333333333" lon="-0.8281516666666667">
        <ele>1236.8000000000002</ele>
        <time>2013-11-09T15:32:53.82</time>
      </trkpt>
      <trkpt lat="38.47627166666667" lon="-0.8276883333333332">
        <ele>1229.5000000000002</ele>
        <time>2013-11-09T15:32:56.28</time>
      </trkpt>
      <trkpt lat="38.47623333333333" lon="-0.8275383333333333">
        <ele>1226.7000000000003</ele>
        <time>2013-11-09T15:32:56.79</time>
      </trkpt>
      <trkpt lat="38.476191666666665" lon="-0.8273883333333334">
        <ele>1224.0000000000002</ele>
        <time>2013-11-09T15:32:57.79</time>
      </trkpt>
      <trkpt lat="38.476145" lon="-0.827245">
        <ele>1221.7000000000003</ele>
        <time>2013-11-09T15:32:58.86</time>
      </trkpt>
      <trkpt lat="38.476095" lon="-0.8270983333333334">
        <ele>1219.6000000000004</ele>
        <time>2013-11-09T15:32:59.79</time>
      </trkpt>
      <trkpt lat="38.476036666666666" lon="-0.8269516666666666">
        <ele>1217.4000000000003</ele>
        <time>2013-11-09T15:33:01.9</time>
      </trkpt>
      <trkpt lat="38.47598166666667" lon="-0.8268033333333332">
        <ele>1214.9000000000003</ele>
        <time>2013-11-09T15:33:01.81</time>
      </trkpt>
      <trkpt lat="38.475923333333334" lon="-0.8266516666666667">
        <ele>1212.5000000000002</ele>
        <time>2013-11-09T15:33:03.55</time>
      </trkpt>
      <trkpt lat="38.475656666666666" lon="-0.8260583333333333">
        <ele>1203</ele>
        <time>2013-11-09T15:33:07.35</time>
      </trkpt>
      <trkpt lat="38.47559833333333" lon="-0.8259066666666667">
        <ele>1200.6</ele>
        <time>2013-11-09T15:33:07.84</time>
      </trkpt>
      <trkpt lat="38.475543333333334" lon="-0.8257533333333333">
        <ele>1198.1999999999998</ele>
        <time>2013-11-09T15:33:08.81</time>
      </trkpt>
      <trkpt lat="38.47549166666667" lon="-0.8256">
        <ele>1195.9999999999998</ele>
        <time>2013-11-09T15:33:09.78</time>
      </trkpt>
      <trkpt lat="38.47543833333334" lon="-0.8254516666666666">
        <ele>1193.6999999999998</ele>
        <time>2013-11-09T15:33:10.80</time>
      </trkpt>
      <trkpt lat="38.475385" lon="-0.8253">
        <ele>1191.4999999999998</ele>
        <time>2013-11-09T15:33:11.89</time>
      </trkpt>
      <trkpt lat="38.47533" lon="-0.8251516666666666">
        <ele>1189.6999999999998</ele>
        <time>2013-11-09T15:33:13.40</time>
      </trkpt>
      <trkpt lat="38.47521" lon="-0.824835">
        <ele>1187.2999999999997</ele>
        <time>2013-11-09T15:33:15.81</time>
      </trkpt>
      <trkpt lat="38.47514833333334" lon="-0.8246716666666667">
        <ele>1185.6999999999998</ele>
        <time>2013-11-09T15:33:15.93</time>
      </trkpt>
      <trkpt lat="38.475085" lon="-0.8245116666666666">
        <ele>1183.9999999999998</ele>
        <time>2013-11-09T15:33:16.96</time>
      </trkpt>
      <trkpt lat="38.47501833333333" lon="-0.8243516666666667">
        <ele>1182.3999999999999</ele>
        <time>2013-11-09T15:33:17.79</time>
      </trkpt>
      <trkpt lat="38.47495166666667" lon="-0.8241916666666668">
        <ele>1180.1999999999998</ele>
        <time>2013-11-09T15:33:18.85</time>
      </trkpt>
      <trkpt lat="38.47488" lon="-0.8240283333333333">
        <ele>1177.9999999999998</ele>
        <time>2013-11-09T15:33:19.82</time>
      </trkpt>
      <trkpt lat="38.47481333333333" lon="-0.8238716666666667">
        <ele>1175.2999999999997</ele>
        <time>2013-11-09T15:33:20.79</time>
      </trkpt>
      <trkpt lat="38.47474833333333" lon="-0.8237083333333334">
        <ele>1172.5999999999997</ele>
        <time>2013-11-09T15:33:21.86</time>
      </trkpt>
      <trkpt lat="38.47468666666666" lon="-0.8235483333333333">
        <ele>1170.0999999999997</ele>
        <time>2013-11-09T15:33:22.82</time>
      </trkpt>
      <trkpt lat="38.474623333333334" lon="-0.82339">
        <ele>1167.6999999999996</ele>
        <time>2013-11-09T15:33:23.85</time>
      </trkpt>
      <trkpt lat="38.474561666666666" lon="-0.8232366666666666">
        <ele>1165.3999999999996</ele>
        <time>2013-11-09T15:33:24.84</time>
      </trkpt>
      <trkpt lat="38.47448833333333" lon="-0.823075">
        <ele>1162.9999999999995</ele>
        <time>2013-11-09T15:33:25.81</time>
      </trkpt>
      <trkpt lat="38.474415" lon="-0.822915">
        <ele>1160.8999999999996</ele>
        <time>2013-11-09T15:33:26.86</time>
      </trkpt>
      <trkpt lat="38.474335" lon="-0.822745">
        <ele>1159.0999999999997</ele>
        <time>2013-11-09T15:33:27.88</time>
      </trkpt>
      <trkpt lat="38.47425666666667" lon="-0.8225750000000001">
        <ele>1157.2999999999997</ele>
        <time>2013-11-09T15:33:28.84</time>
      </trkpt>
      <trkpt lat="38.47418833333333" lon="-0.8224233333333333">
        <ele>1155.7999999999997</ele>
        <time>2013-11-09T15:33:29.84</time>
      </trkpt>
      <trkpt lat="38.47412166666667" lon="-0.8222816666666667">
        <ele>1154.2999999999997</ele>
        <time>2013-11-09T15:33:30.80</time>
      </trkpt>
      <trkpt lat="38.474055" lon="-0.8221616666666667">
        <ele>1152.4999999999998</ele>
        <time>2013-11-09T15:33:31.85</time>
      </trkpt>
      <trkpt lat="38.47398" lon="-0.822035">
        <ele>1150.5999999999997</ele>
        <time>2013-11-09T15:33:32.84</time>
      </trkpt>
      <trkpt lat="38.47389666666667" lon="-0.8218933333333334">
        <ele>1148.4999999999998</ele>
        <time>2013-11-09T15:33:33.87</time>
      </trkpt>
      <trkpt lat="38.47380833333333" lon="-0.82174">
        <ele>1146.2999999999997</ele>
        <time>2013-11-09T15:33:34.84</time>
      </trkpt>
      <trkpt lat="38.47372166666667" lon="-0.821595">
        <ele>1144.4999999999998</ele>
        <time>2013-11-09T15:33:35.84</time>
      </trkpt>
      <trkpt lat="38.47364" lon="-0.8214433333333333">
        <ele>1143.1999999999998</ele>
        <time>2013-11-09T15:33:36.84</time>
      </trkpt>
      <trkpt lat="38.47356666666667" lon="-0.8212933333333333">
        <ele>1142.1999999999998</ele>
        <time>2013-11-09T15:33:37.84</time>
      </trkpt>
      <trkpt lat="38.4735" lon="-0.82114">
        <ele>1141.2999999999997</ele>
        <time>2013-11-09T15:33:38.84</time>
      </trkpt>
      <trkpt lat="38.473435" lon="-0.820995">
        <ele>1140.5999999999997</ele>
        <time>2013-11-09T15:33:39.84</time>
      </trkpt>
      <trkpt lat="38.473371666666665" lon="-0.8208483333333334">
        <ele>1139.9999999999998</ele>
        <time>2013-11-09T15:33:40.84</time>
      </trkpt>
      <trkpt lat="38.473315" lon="-0.8206950000000001">
        <ele>1139.2999999999997</ele>
        <time>2013-11-09T15:33:41.85</time>
      </trkpt>
      <trkpt lat="38.473258333333334" lon="-0.8205366666666667">
        <ele>1138.8999999999996</ele>
        <time>2013-11-09T15:33:42.85</time>
      </trkpt>
      <trkpt lat="38.47320333333333" lon="-0.82038">
        <ele>1138.4999999999995</ele>
        <time>2013-11-09T15:33:43.84</time>
      </trkpt>
      <trkpt lat="38.473151666666666" lon="-0.8202233333333333">
        <ele>1137.8999999999996</ele>
        <time>2013-11-09T15:33:44.89</time>
      </trkpt>
      <trkpt lat="38.4731" lon="-0.8200616666666666">
        <ele>1136.7999999999997</ele>
        <time>2013-11-09T15:33:45.84</time>
      </trkpt>
      <trkpt lat="38.47305" lon="-0.8198983333333333">
        <ele>1135.3999999999996</ele>
        <time>2013-11-09T15:33:46.85</time>
      </trkpt>
      <trkpt lat="38.47299833333334" lon="-0.8197333333333333">
        <ele>1133.9999999999995</ele>
        <time>2013-11-09T15:33:47.85</time>
      </trkpt>
      <trkpt lat="38.47294333333333" lon="-0.8195633333333333">
        <ele>1132.6999999999996</ele>
        <time>2013-11-09T15:33:48.84</time>
      </trkpt>
      <trkpt lat="38.472896666666664" lon="-0.8193966666666667">
        <ele>1131.3999999999996</ele>
        <time>2013-11-09T15:33:49.84</time>
      </trkpt>
      <trkpt lat="38.472845" lon="-0.819225">
        <ele>1130.1999999999996</ele>
        <time>2013-11-09T15:33:50.85</time>
      </trkpt>
      <trkpt lat="38.47279833333333" lon="-0.8190516666666666">
        <ele>1129.0999999999997</ele>
        <time>2013-11-09T15:33:51.84</time>
      </trkpt>
      <trkpt lat="38.47275166666667" lon="-0.8188816666666666">
        <ele>1127.8999999999996</ele>
        <time>2013-11-09T15:33:52.85</time>
      </trkpt>
      <trkpt lat="38.47271166666667" lon="-0.8187083333333334">
        <ele>1126.7999999999997</ele>
        <time>2013-11-09T15:33:53.84</time>
      </trkpt>
      <trkpt lat="38.472676666666665" lon="-0.818535">
        <ele>1125.6999999999998</ele>
        <time>2013-11-09T15:33:54.84</time>
      </trkpt>
      <trkpt lat="38.47264166666667" lon="-0.8183616666666667">
        <ele>1124.6999999999998</ele>
        <time>2013-11-09T15:33:55.84</time>
      </trkpt>
      <trkpt lat="38.472613333333335" lon="-0.8181983333333334">
        <ele>1123.4999999999998</ele>
        <time>2013-11-09T15:33:56.84</time>
      </trkpt>
      <trkpt lat="38.472586666666665" lon="-0.818035">
        <ele>1121.7999999999997</ele>
        <time>2013-11-09T15:33:57.84</time>
      </trkpt>
      <trkpt lat="38.47256333333333" lon="-0.8178683333333333">
        <ele>1120.1999999999998</ele>
        <time>2013-11-09T15:33:58.84</time>
      </trkpt>
      <trkpt lat="38.47254" lon="-0.8177">
        <ele>1118.6999999999998</ele>
        <time>2013-11-09T15:33:59.79</time>
      </trkpt>
      <trkpt lat="38.472521666666665" lon="-0.8175316666666668">
        <ele>1117.2999999999997</ele>
        <time>2013-11-09T15:34:00.84</time>
      </trkpt>
      <trkpt lat="38.472505" lon="-0.8173716666666666">
        <ele>1115.7999999999997</ele>
        <time>2013-11-09T15:34:01.84</time>
      </trkpt>
      <trkpt lat="38.47248666666667" lon="-0.8172233333333333">
        <ele>1114.1999999999998</ele>
        <time>2013-11-09T15:34:02.84</time>
      </trkpt>
      <trkpt lat="38.47246833333333" lon="-0.8170750000000001">
        <ele>1112.3999999999999</ele>
        <time>2013-11-09T15:34:03.84</time>
      </trkpt>
      <trkpt lat="38.47244333333333" lon="-0.816925">
        <ele>1110.3</ele>
        <time>2013-11-09T15:34:04.81</time>
      </trkpt>
      <trkpt lat="38.47241833333333" lon="-0.81677">
        <ele>1107.8</ele>
        <time>2013-11-09T15:34:05.84</time>
      </trkpt>
      <trkpt lat="38.472388333333335" lon="-0.8166">
        <ele>1105.3999999999999</ele>
        <time>2013-11-09T15:34:06.84</time>
      </trkpt>
      <trkpt lat="38.47235833333333" lon="-0.81643">
        <ele>1103.3</ele>
        <time>2013-11-09T15:34:08.17</time>
      </trkpt>
      <trkpt lat="38.47233" lon="-0.8162666666666667">
        <ele>1101.3999999999999</ele>
        <time>2013-11-09T15:34:08.86</time>
      </trkpt>
      <trkpt lat="38.472303333333336" lon="-0.8161133333333334">
        <ele>1099.3999999999999</ele>
        <time>2013-11-09T15:34:09.85</time>
      </trkpt>
      <trkpt lat="38.472278333333335" lon="-0.8159666666666666">
        <ele>1097.1999999999998</ele>
        <time>2013-11-09T15:34:10.86</time>
      </trkpt>
      <trkpt lat="38.47225666666667" lon="-0.815825">
        <ele>1094.9999999999998</ele>
        <time>2013-11-09T15:34:11.85</time>
      </trkpt>
      <trkpt lat="38.472228333333334" lon="-0.8156616666666667">
        <ele>1092.5999999999997</ele>
        <time>2013-11-09T15:34:12.85</time>
      </trkpt>
      <trkpt lat="38.472195" lon="-0.8154866666666667">
        <ele>1090.1999999999996</ele>
        <time>2013-11-09T15:34:13.86</time>
      </trkpt>
      <trkpt lat="38.472165" lon="-0.8153216666666666">
        <ele>1087.6999999999996</ele>
        <time>2013-11-09T15:34:14.85</time>
      </trkpt>
      <trkpt lat="38.47213833333333" lon="-0.81516">
        <ele>1085.2999999999995</ele>
        <time>2013-11-09T15:34:15.85</time>
      </trkpt>
      <trkpt lat="38.47211" lon="-0.8150016666666667">
        <ele>1082.9999999999995</ele>
        <time>2013-11-09T15:34:16.85</time>
      </trkpt>
      <trkpt lat="38.47208" lon="-0.8148416666666667">
        <ele>1080.7999999999995</ele>
        <time>2013-11-09T15:34:17.85</time>
      </trkpt>
      <trkpt lat="38.47204" lon="-0.8146833333333333">
        <ele>1078.4999999999995</ele>
        <time>2013-11-09T15:34:18.91</time>
      </trkpt>
      <trkpt lat="38.47200333333333" lon="-0.8145333333333333">
        <ele>1076.2999999999995</ele>
        <time>2013-11-09T15:34:19.85</time>
      </trkpt>
      <trkpt lat="38.47197333333333" lon="-0.8143866666666667">
        <ele>1073.9999999999995</ele>
        <time>2013-11-09T15:34:20.85</time>
      </trkpt>
      <trkpt lat="38.47194833333333" lon="-0.814225">
        <ele>1071.5999999999995</ele>
        <time>2013-11-09T15:34:21.85</time>
      </trkpt>
      <trkpt lat="38.471915" lon="-0.8140416666666667">
        <ele>1069.3999999999994</ele>
        <time>2013-11-09T15:34:22.84</time>
      </trkpt>
      <trkpt lat="38.47188" lon="-0.8138716666666667">
        <ele>1067.4999999999993</ele>
        <time>2013-11-09T15:34:23.87</time>
      </trkpt>
      <trkpt lat="38.47184333333333" lon="-0.8137033333333333">
        <ele>1065.7999999999993</ele>
        <time>2013-11-09T15:34:24.87</time>
      </trkpt>
      <trkpt lat="38.47181" lon="-0.8135466666666668">
        <ele>1064.1999999999994</ele>
        <time>2013-11-09T15:34:25.86</time>
      </trkpt>
      <trkpt lat="38.471781666666665" lon="-0.8134066666666667">
        <ele>1062.7999999999993</ele>
        <time>2013-11-09T15:34:26.86</time>
      </trkpt>
      <trkpt lat="38.47174666666667" lon="-0.8132533333333334">
        <ele>1061.3999999999992</ele>
        <time>2013-11-09T15:34:27.87</time>
      </trkpt>
      <trkpt lat="38.471711666666664" lon="-0.8130783333333333">
        <ele>1059.499999999999</ele>
        <time>2013-11-09T15:34:28.94</time>
      </trkpt>
      <trkpt lat="38.47169" lon="-0.81289">
        <ele>1057.299999999999</ele>
        <time>2013-11-09T15:34:29.86</time>
      </trkpt>
      <trkpt lat="38.47167" lon="-0.8127133333333333">
        <ele>1055.299999999999</ele>
        <time>2013-11-09T15:34:30.86</time>
      </trkpt>
      <trkpt lat="38.471651666666666" lon="-0.8125466666666666">
        <ele>1053.799999999999</ele>
        <time>2013-11-09T15:34:31.86</time>
      </trkpt>
      <trkpt lat="38.47163" lon="-0.8123783333333333">
        <ele>1052.399999999999</ele>
        <time>2013-11-09T15:34:32.86</time>
      </trkpt>
      <trkpt lat="38.471605" lon="-0.8122033333333333">
        <ele>1050.9999999999989</ele>
        <time>2013-11-09T15:34:33.89</time>
      </trkpt>
      <trkpt lat="38.47157833333333" lon="-0.81203">
        <ele>1049.699999999999</ele>
        <time>2013-11-09T15:34:34.86</time>
      </trkpt>
      <trkpt lat="38.471556666666665" lon="-0.811855">
        <ele>1048.199999999999</ele>
        <time>2013-11-09T15:34:35.90</time>
      </trkpt>
      <trkpt lat="38.471536666666665" lon="-0.8116800000000001">
        <ele>1046.7999999999988</ele>
        <time>2013-11-09T15:34:36.85</time>
      </trkpt>
      <trkpt lat="38.471513333333334" lon="-0.8114983333333333">
        <ele>1045.4999999999989</ele>
        <time>2013-11-09T15:34:37.85</time>
      </trkpt>
      <trkpt lat="38.47148833333333" lon="-0.8113100000000001">
        <ele>1043.899999999999</ele>
        <time>2013-11-09T15:34:38.92</time>
      </trkpt>
      <trkpt lat="38.47147" lon="-0.8111216666666666">
        <ele>1042.199999999999</ele>
        <time>2013-11-09T15:34:39.90</time>
      </trkpt>
      <trkpt lat="38.47146333333333" lon="-0.81095">
        <ele>1041.199999999999</ele>
        <time>2013-11-09T15:34:40.86</time>
      </trkpt>
      <trkpt lat="38.47145833333333" lon="-0.810795">
        <ele>1040.599999999999</ele>
        <time>2013-11-09T15:34:41.87</time>
      </trkpt>
      <trkpt lat="38.471453333333336" lon="-0.8106483333333333">
        <ele>1040.199999999999</ele>
        <time>2013-11-09T15:34:42.85</time>
      </trkpt>
      <trkpt lat="38.471445" lon="-0.8104866666666666">
        <ele>1039.2999999999988</ele>
        <time>2013-11-09T15:34:43.80</time>
      </trkpt>
      <trkpt lat="38.471441666666664" lon="-0.8103016666666666">
        <ele>1037.0999999999988</ele>
        <time>2013-11-09T15:34:44.90</time>
      </trkpt>
      <trkpt lat="38.47144333333333" lon="-0.8101166666666667">
        <ele>1034.4999999999989</ele>
        <time>2013-11-09T15:34:45.86</time>
      </trkpt>
      <trkpt lat="38.47144333333333" lon="-0.8099366666666667">
        <ele>1032.5999999999988</ele>
        <time>2013-11-09T15:34:46.88</time>
      </trkpt>
      <trkpt lat="38.471446666666665" lon="-0.8097583333333334">
        <ele>1031.0999999999988</ele>
        <time>2013-11-09T15:34:47.79</time>
      </trkpt>
      <trkpt lat="38.471448333333335" lon="-0.8096016666666667">
        <ele>1028.4999999999989</ele>
        <time>2013-11-09T15:34:48.86</time>
      </trkpt>
      <trkpt lat="38.47145" lon="-0.8094383333333333">
        <ele>1025.7999999999988</ele>
        <time>2013-11-09T15:34:49.78</time>
      </trkpt>
      <trkpt lat="38.47145666666667" lon="-0.8092866666666667">
        <ele>1023.0999999999988</ele>
        <time>2013-11-09T15:34:50.78</time>
      </trkpt>
      <trkpt lat="38.47146333333333" lon="-0.8091266666666667">
        <ele>1020.4999999999987</ele>
        <time>2013-11-09T15:34:51.79</time>
      </trkpt>
      <trkpt lat="38.471466666666664" lon="-0.80896">
        <ele>1017.5999999999988</ele>
        <time>2013-11-09T15:34:52.80</time>
      </trkpt>
      <trkpt lat="38.471465" lon="-0.8087700000000001">
        <ele>1014.5999999999988</ele>
        <time>2013-11-09T15:34:53.79</time>
      </trkpt>
      <trkpt lat="38.47145833333333" lon="-0.8085816666666666">
        <ele>1011.5999999999988</ele>
        <time>2013-11-09T15:34:54.78</time>
      </trkpt>
      <trkpt lat="38.47144333333333" lon="-0.8084033333333333">
        <ele>1009</ele>
        <time>2013-11-09T15:35:01.24</time>
      </trkpt>
      <trkpt lat="38.471424999999996" lon="-0.8082283333333333">
        <ele>1006.5</ele>
        <time>2013-11-09T15:35:01.26</time>
      </trkpt>
      <trkpt lat="38.47139833333333" lon="-0.8080533333333333">
        <ele>1004.1</ele>
        <time>2013-11-09T15:35:01.26</time>
      </trkpt>
      <trkpt lat="38.471358333333335" lon="-0.80787">
        <ele>1001.6</ele>
        <time>2013-11-09T15:35:01.26</time>
      </trkpt>
      <trkpt lat="38.47132166666667" lon="-0.8076833333333333">
        <ele>999.7</ele>
        <time>2013-11-09T15:35:01.26</time>
      </trkpt>
      <trkpt lat="38.47125" lon="-0.8072983333333333">
        <ele>995</ele>
        <time>2013-11-09T15:35:04.41</time>
      </trkpt>
      <trkpt lat="38.47120666666667" lon="-0.8070833333333333">
        <ele>992.6</ele>
        <time>2013-11-09T15:35:04.99</time>
      </trkpt>
      <trkpt lat="38.471175" lon="-0.806875">
        <ele>990.3000000000001</ele>
        <time>2013-11-09T15:35:04.99</time>
      </trkpt>
      <trkpt lat="38.47114" lon="-0.8066833333333334">
        <ele>987.7</ele>
        <time>2013-11-09T15:35:07.47</time>
      </trkpt>
      <trkpt lat="38.4711" lon="-0.8065016666666666">
        <ele>984.1</ele>
        <time>2013-11-09T15:35:07.48</time>
      </trkpt>
      <trkpt lat="38.471061666666664" lon="-0.8063233333333333">
        <ele>980.5</ele>
        <time>2013-11-09T15:35:07.48</time>
      </trkpt>
      <trkpt lat="38.47102666666667" lon="-0.80615">
        <ele>977.1</ele>
        <time>2013-11-09T15:35:07.78</time>
      </trkpt>
      <trkpt lat="38.470998333333334" lon="-0.805975">
        <ele>973.7</ele>
        <time>2013-11-09T15:35:08.79</time>
      </trkpt>
      <trkpt lat="38.47096833333333" lon="-0.8058">
        <ele>970.4000000000001</ele>
        <time>2013-11-09T15:35:09.78</time>
      </trkpt>
      <trkpt lat="38.470938333333336" lon="-0.8056233333333334">
        <ele>967.7</ele>
        <time>2013-11-09T15:35:10.78</time>
      </trkpt>
      <trkpt lat="38.470906666666664" lon="-0.80544">
        <ele>965.3</ele>
        <time>2013-11-09T15:35:14.28</time>
      </trkpt>
      <trkpt lat="38.47079166666666" lon="-0.8048883333333333">
        <ele>957.1999999999999</ele>
        <time>2013-11-09T15:35:15.57</time>
      </trkpt>
      <trkpt lat="38.47071" lon="-0.804535">
        <ele>950.9999999999999</ele>
        <time>2013-11-09T15:35:17.22</time>
      </trkpt>
      <trkpt lat="38.47067333333333" lon="-0.804365">
        <ele>947.9999999999999</ele>
        <time>2013-11-09T15:35:18.78</time>
      </trkpt>
      <trkpt lat="38.470596666666665" lon="-0.8040183333333334">
        <ele>942.2999999999998</ele>
        <time>2013-11-09T15:35:20.19</time>
      </trkpt>
      <trkpt lat="38.470596666666665" lon="-0.8040183333333334">
        <ele>942.2999999999998</ele>
        <time>2013-11-09T15:35:20.29</time>
      </trkpt>
      <trkpt lat="38.470546666666664" lon="-0.8038383333333333">
        <ele>939.1999999999998</ele>
        <time>2013-11-09T15:35:21.16</time>
      </trkpt>
      <trkpt lat="38.470486666666666" lon="-0.8036683333333333">
        <ele>936.3999999999999</ele>
        <time>2013-11-09T15:35:21.85</time>
      </trkpt>
      <trkpt lat="38.47040333333333" lon="-0.8035133333333333">
        <ele>934.0999999999999</ele>
        <time>2013-11-09T15:35:23.73</time>
      </trkpt>
      <trkpt lat="38.47031833333333" lon="-0.803365">
        <ele>931.9999999999999</ele>
        <time>2013-11-09T15:35:23.94</time>
      </trkpt>
      <trkpt lat="38.470235" lon="-0.8032116666666667">
        <ele>930.0999999999999</ele>
        <time>2013-11-09T15:35:24.92</time>
      </trkpt>
      <trkpt lat="38.47013333333334" lon="-0.80305">
        <ele>927.6999999999999</ele>
        <time>2013-11-09T15:35:25.79</time>
      </trkpt>
      <trkpt lat="38.470036666666665" lon="-0.8028866666666666">
        <ele>925.4</ele>
        <time>2013-11-09T15:35:27.49</time>
      </trkpt>
      <trkpt lat="38.46993666666667" lon="-0.8027283333333333">
        <ele>923.3</ele>
        <time>2013-11-09T15:35:27.80</time>
      </trkpt>
      <trkpt lat="38.46982833333333" lon="-0.8025616666666667">
        <ele>920.5999999999999</ele>
        <time>2013-11-09T15:35:28.84</time>
      </trkpt>
      <trkpt lat="38.469723333333334" lon="-0.80239">
        <ele>918.0999999999999</ele>
        <time>2013-11-09T15:35:30.69</time>
      </trkpt>
      <trkpt lat="38.469625" lon="-0.8022316666666666">
        <ele>915.3</ele>
        <time>2013-11-09T15:35:30.81</time>
      </trkpt>
      <trkpt lat="38.469525" lon="-0.802085">
        <ele>912.4</ele>
        <time>2013-11-09T15:35:31.92</time>
      </trkpt>
      <trkpt lat="38.469415" lon="-0.8019366666666666">
        <ele>909.6999999999999</ele>
        <time>2013-11-09T15:35:32.81</time>
      </trkpt>
      <trkpt lat="38.469295" lon="-0.8017833333333333">
        <ele>906.6999999999999</ele>
        <time>2013-11-09T15:35:33.83</time>
      </trkpt>
      <trkpt lat="38.46917166666667" lon="-0.8016283333333334">
        <ele>903.4999999999999</ele>
        <time>2013-11-09T15:35:34.83</time>
      </trkpt>
      <trkpt lat="38.469053333333335" lon="-0.8014966666666666">
        <ele>900.2999999999998</ele>
        <time>2013-11-09T15:35:35.84</time>
      </trkpt>
      <trkpt lat="38.468936666666664" lon="-0.8013466666666668">
        <ele>896.8999999999999</ele>
        <time>2013-11-09T15:35:36.88</time>
      </trkpt>
      <trkpt lat="38.46883" lon="-0.801185">
        <ele>893.5999999999999</ele>
        <time>2013-11-09T15:35:37.88</time>
      </trkpt>
      <trkpt lat="38.46872166666667" lon="-0.8010283333333333">
        <ele>890.8999999999999</ele>
        <time>2013-11-09T15:35:38.85</time>
      </trkpt>
      <trkpt lat="38.46861666666667" lon="-0.800875">
        <ele>888.7999999999998</ele>
        <time>2013-11-09T15:35:39.82</time>
      </trkpt>
      <trkpt lat="38.468518333333336" lon="-0.8007283333333334">
        <ele>886.6999999999998</ele>
        <time>2013-11-09T15:35:40.79</time>
      </trkpt>
      <trkpt lat="38.46843333333333" lon="-0.8005716666666667">
        <ele>883.8999999999999</ele>
        <time>2013-11-09T15:35:41.78</time>
      </trkpt>
      <trkpt lat="38.468345" lon="-0.8004">
        <ele>880.7999999999998</ele>
        <time>2013-11-09T15:35:42.96</time>
      </trkpt>
      <trkpt lat="38.46826166666666" lon="-0.8002300000000001">
        <ele>877.4999999999999</ele>
        <time>2013-11-09T15:35:44.99</time>
      </trkpt>
      <trkpt lat="38.468175" lon="-0.8000633333333333">
        <ele>874.6999999999999</ele>
        <time>2013-11-09T15:35:44.85</time>
      </trkpt>
      <trkpt lat="38.46808166666667" lon="-0.7998949999999999">
        <ele>872.4</ele>
        <time>2013-11-09T15:35:45.83</time>
      </trkpt>
      <trkpt lat="38.467983333333336" lon="-0.7997183333333333">
        <ele>870.5</ele>
        <time>2013-11-09T15:35:46.84</time>
      </trkpt>
      <trkpt lat="38.46788166666666" lon="-0.79954">
        <ele>868.5</ele>
        <time>2013-11-09T15:35:47.84</time>
      </trkpt>
      <trkpt lat="38.467775" lon="-0.7993633333333333">
        <ele>866.5</ele>
        <time>2013-11-09T15:35:48.84</time>
      </trkpt>
      <trkpt lat="38.46768333333333" lon="-0.7992066666666666">
        <ele>864.3</ele>
        <time>2013-11-09T15:35:49.79</time>
      </trkpt>
      <trkpt lat="38.467591666666664" lon="-0.7990416666666668">
        <ele>862.4</ele>
        <time>2013-11-09T15:35:50.83</time>
      </trkpt>
      <trkpt lat="38.46751833333333" lon="-0.7988816666666666">
        <ele>859.9</ele>
        <time>2013-11-09T15:35:51.85</time>
      </trkpt>
      <trkpt lat="38.46745" lon="-0.7987116666666666">
        <ele>857.1</ele>
        <time>2013-11-09T15:35:52.86</time>
      </trkpt>
      <trkpt lat="38.46738333333333" lon="-0.7985266666666667">
        <ele>854.4</ele>
        <time>2013-11-09T15:35:53.84</time>
      </trkpt>
      <trkpt lat="38.46731666666667" lon="-0.798335">
        <ele>851.8</ele>
        <time>2013-11-09T15:35:54.82</time>
      </trkpt>
      <trkpt lat="38.46725166666667" lon="-0.7981283333333333">
        <ele>849.5</ele>
        <time>2013-11-09T15:35:55.83</time>
      </trkpt>
      <trkpt lat="38.467195" lon="-0.7979149999999999">
        <ele>847.6</ele>
        <time>2013-11-09T15:35:57.21</time>
      </trkpt>
      <trkpt lat="38.46716333333333" lon="-0.7977166666666666">
        <ele>845.8000000000001</ele>
        <time>2013-11-09T15:35:57.83</time>
      </trkpt>
      <trkpt lat="38.467135" lon="-0.7975266666666666">
        <ele>844.1</ele>
        <time>2013-11-09T15:35:58.84</time>
      </trkpt>
      <trkpt lat="38.46711666666667" lon="-0.7973333333333333">
        <ele>842.8000000000001</ele>
        <time>2013-11-09T15:35:59.84</time>
      </trkpt>
      <trkpt lat="38.467115" lon="-0.79715">
        <ele>841.5000000000001</ele>
        <time>2013-11-09T15:36:00.95</time>
      </trkpt>
      <trkpt lat="38.46711833333333" lon="-0.7969766666666668">
        <ele>839.9000000000001</ele>
        <time>2013-11-09T15:36:01.81</time>
      </trkpt>
      <trkpt lat="38.46712333333333" lon="-0.7968016666666667">
        <ele>838.5000000000001</ele>
        <time>2013-11-09T15:36:02.84</time>
      </trkpt>
      <trkpt lat="38.46713666666667" lon="-0.796615">
        <ele>837.2000000000002</ele>
        <time>2013-11-09T15:36:03.79</time>
      </trkpt>
      <trkpt lat="38.46715833333333" lon="-0.7964183333333333">
        <ele>836.0000000000001</ele>
        <time>2013-11-09T15:36:04.95</time>
      </trkpt>
      <trkpt lat="38.46718" lon="-0.7962349999999999">
        <ele>835.0000000000001</ele>
        <time>2013-11-09T15:36:05.84</time>
      </trkpt>
      <trkpt lat="38.467196666666666" lon="-0.79606">
        <ele>833.9000000000001</ele>
        <time>2013-11-09T15:36:06.83</time>
      </trkpt>
      <trkpt lat="38.46721" lon="-0.79589">
        <ele>833.0000000000001</ele>
        <time>2013-11-09T15:36:07.83</time>
      </trkpt>
      <trkpt lat="38.467225" lon="-0.795705">
        <ele>832.1000000000001</ele>
        <time>2013-11-09T15:36:08.83</time>
      </trkpt>
      <trkpt lat="38.467238333333334" lon="-0.79552">
        <ele>831.5000000000001</ele>
        <time>2013-11-09T15:36:09.83</time>
      </trkpt>
      <trkpt lat="38.467258333333334" lon="-0.7953433333333333">
        <ele>831.2000000000002</ele>
        <time>2013-11-09T15:36:10.81</time>
      </trkpt>
      <trkpt lat="38.46728" lon="-0.7951783333333334">
        <ele>830.8000000000002</ele>
        <time>2013-11-09T15:36:11.83</time>
      </trkpt>
      <trkpt lat="38.467303333333334" lon="-0.7950166666666667">
        <ele>830.3000000000002</ele>
        <time>2013-11-09T15:36:12.78</time>
      </trkpt>
      <trkpt lat="38.467325" lon="-0.794855">
        <ele>829.6000000000001</ele>
        <time>2013-11-09T15:36:13.83</time>
      </trkpt>
      <trkpt lat="38.46734" lon="-0.7946766666666666">
        <ele>828.8000000000002</ele>
        <time>2013-11-09T15:36:14.83</time>
      </trkpt>
      <trkpt lat="38.467353333333335" lon="-0.7945066666666667">
        <ele>827.9000000000002</ele>
        <time>2013-11-09T15:36:15.83</time>
      </trkpt>
      <trkpt lat="38.46736333333333" lon="-0.7943383333333334">
        <ele>827.1000000000003</ele>
        <time>2013-11-09T15:36:16.99</time>
      </trkpt>
      <trkpt lat="38.467371666666665" lon="-0.7941699999999999">
        <ele>826.1000000000003</ele>
        <time>2013-11-09T15:36:17.81</time>
      </trkpt>
      <trkpt lat="38.467378333333336" lon="-0.794">
        <ele>824.8000000000003</ele>
        <time>2013-11-09T15:36:18.83</time>
      </trkpt>
      <trkpt lat="38.46738333333333" lon="-0.793835">
        <ele>823.3000000000003</ele>
        <time>2013-11-09T15:36:19.84</time>
      </trkpt>
      <trkpt lat="38.46738833333333" lon="-0.7936633333333333">
        <ele>821.7000000000003</ele>
        <time>2013-11-09T15:36:20.83</time>
      </trkpt>
      <trkpt lat="38.467391666666664" lon="-0.7934866666666667">
        <ele>820.2000000000003</ele>
        <time>2013-11-09T15:36:21.83</time>
      </trkpt>
      <trkpt lat="38.467393333333334" lon="-0.7933066666666666">
        <ele>818.8000000000003</ele>
        <time>2013-11-09T15:36:22.83</time>
      </trkpt>
      <trkpt lat="38.46738833333333" lon="-0.793125">
        <ele>817.6000000000003</ele>
        <time>2013-11-09T15:36:23.88</time>
      </trkpt>
      <trkpt lat="38.46738166666667" lon="-0.7929483333333334">
        <ele>816.3000000000003</ele>
        <time>2013-11-09T15:36:24.81</time>
      </trkpt>
      <trkpt lat="38.467373333333335" lon="-0.7927733333333333">
        <ele>814.9000000000003</ele>
        <time>2013-11-09T15:36:25.84</time>
      </trkpt>
      <trkpt lat="38.46737" lon="-0.7926033333333333">
        <ele>813.4000000000003</ele>
        <time>2013-11-09T15:36:26.83</time>
      </trkpt>
      <trkpt lat="38.46736666666666" lon="-0.7924283333333333">
        <ele>812.1000000000004</ele>
        <time>2013-11-09T15:36:27.81</time>
      </trkpt>
      <trkpt lat="38.467365" lon="-0.7922583333333333">
        <ele>811.0000000000003</ele>
        <time>2013-11-09T15:36:28.83</time>
      </trkpt>
      <trkpt lat="38.46736333333333" lon="-0.7920866666666666">
        <ele>810.0000000000003</ele>
        <time>2013-11-09T15:36:29.83</time>
      </trkpt>
      <trkpt lat="38.46736333333333" lon="-0.7919183333333333">
        <ele>809.2000000000004</ele>
        <time>2013-11-09T15:36:30.83</time>
      </trkpt>
      <trkpt lat="38.46736666666666" lon="-0.791755">
        <ele>808.5000000000003</ele>
        <time>2013-11-09T15:36:31.83</time>
      </trkpt>
      <trkpt lat="38.46736666666666" lon="-0.7916000000000001">
        <ele>807.7000000000004</ele>
        <time>2013-11-09T15:36:33.12</time>
      </trkpt>
      <trkpt lat="38.46736166666667" lon="-0.7914583333333333">
        <ele>806.6000000000004</ele>
        <time>2013-11-09T15:36:33.81</time>
      </trkpt>
      <trkpt lat="38.46735666666667" lon="-0.7913183333333333">
        <ele>805.2000000000004</ele>
        <time>2013-11-09T15:36:34.83</time>
      </trkpt>
      <trkpt lat="38.467351666666666" lon="-0.7911750000000001">
        <ele>803.6000000000004</ele>
        <time>2013-11-09T15:36:35.83</time>
      </trkpt>
      <trkpt lat="38.46735" lon="-0.7910316666666667">
        <ele>802.1000000000004</ele>
        <time>2013-11-09T15:36:36.83</time>
      </trkpt>
      <trkpt lat="38.46735" lon="-0.79088">
        <ele>800.8000000000004</ele>
        <time>2013-11-09T15:36:37.85</time>
      </trkpt>
      <trkpt lat="38.467355" lon="-0.7907183333333333">
        <ele>799.7000000000004</ele>
        <time>2013-11-09T15:36:38.83</time>
      </trkpt>
      <trkpt lat="38.46736333333333" lon="-0.7905683333333333">
        <ele>798.7000000000004</ele>
        <time>2013-11-09T15:36:39.83</time>
      </trkpt>
      <trkpt lat="38.46737666666667" lon="-0.7904183333333333">
        <ele>797.2000000000004</ele>
        <time>2013-11-09T15:36:40.83</time>
      </trkpt>
      <trkpt lat="38.467391666666664" lon="-0.7902533333333334">
        <ele>795.7000000000004</ele>
        <time>2013-11-09T15:36:41.83</time>
      </trkpt>
      <trkpt lat="38.46740833333333" lon="-0.7901183333333334">
        <ele>794.5000000000003</ele>
        <time>2013-11-09T15:36:42.83</time>
      </trkpt>
      <trkpt lat="38.467425" lon="-0.7899849999999999">
        <ele>793.2000000000004</ele>
        <time>2013-11-09T15:36:43.99</time>
      </trkpt>
      <trkpt lat="38.467443333333335" lon="-0.7898433333333333">
        <ele>792.3000000000004</ele>
        <time>2013-11-09T15:36:44.83</time>
      </trkpt>
      <trkpt lat="38.467463333333335" lon="-0.7897183333333333">
        <ele>791.6000000000004</ele>
        <time>2013-11-09T15:36:45.84</time>
      </trkpt>
      <trkpt lat="38.467486666666666" lon="-0.7896116666666667">
        <ele>791.1000000000004</ele>
        <time>2013-11-09T15:36:46.84</time>
      </trkpt>
      <trkpt lat="38.467513333333336" lon="-0.7895166666666668">
        <ele>790.6000000000004</ele>
        <time>2013-11-09T15:36:47.84</time>
      </trkpt>
      <trkpt lat="38.46756333333333" lon="-0.7894433333333333">
        <ele>790.2000000000004</ele>
        <time>2013-11-09T15:36:48.84</time>
      </trkpt>
      <trkpt lat="38.467621666666666" lon="-0.7893416666666667">
        <ele>790.1000000000004</ele>
        <time>2013-11-09T15:36:49.84</time>
      </trkpt>
      <trkpt lat="38.46767833333333" lon="-0.7892483333333333">
        <ele>790.1000000000004</ele>
        <time>2013-11-09T15:36:50.83</time>
      </trkpt>
      <trkpt lat="38.46772833333333" lon="-0.7891816666666667">
        <ele>790.1000000000004</ele>
        <time>2013-11-09T15:36:51.84</time>
      </trkpt>
      <trkpt lat="38.467765" lon="-0.7891316666666667">
        <ele>790.0000000000003</ele>
        <time>2013-11-09T15:36:52.83</time>
      </trkpt>
      <trkpt lat="38.46780666666667" lon="-0.7890966666666667">
        <ele>790.2000000000004</ele>
        <time>2013-11-09T15:36:53.83</time>
      </trkpt>
      <trkpt lat="38.467861666666664" lon="-0.78905">
        <ele>790.3000000000004</ele>
        <time>2013-11-09T15:36:55.13</time>
      </trkpt>
      <trkpt lat="38.467935" lon="-0.7890216666666666">
        <ele>790.6000000000004</ele>
        <time>2013-11-09T15:36:55.83</time>
      </trkpt>
      <trkpt lat="38.468005" lon="-0.7890266666666667">
        <ele>791.1000000000004</ele>
        <time>2013-11-09T15:36:56.80</time>
      </trkpt>
      <trkpt lat="38.468048333333336" lon="-0.7890416666666666">
        <ele>791.4000000000003</ele>
        <time>2013-11-09T15:36:57.83</time>
      </trkpt>
      <trkpt lat="38.468091666666666" lon="-0.78906">
        <ele>791.9000000000003</ele>
        <time>2013-11-09T15:36:58.83</time>
      </trkpt>
      <trkpt lat="38.468125" lon="-0.7890766666666666">
        <ele>791.9000000000003</ele>
        <time>2013-11-09T15:36:59.83</time>
      </trkpt>
      <trkpt lat="38.46812666666667" lon="-0.7890633333333333">
        <ele>792.0000000000003</ele>
        <time>2013-11-09T15:37:00.83</time>
      </trkpt>
      <trkpt lat="38.468145" lon="-0.7890166666666667">
        <ele>793.2000000000004</ele>
        <time>2013-11-09T15:37:01.83</time>
      </trkpt>
      <trkpt lat="38.46817333333333" lon="-0.7889516666666666">
        <ele>795.0000000000003</ele>
        <time>2013-11-09T15:37:02.83</time>
      </trkpt>
      <trkpt lat="38.468215" lon="-0.78888">
        <ele>797.3000000000003</ele>
        <time>2013-11-09T15:37:03.83</time>
      </trkpt>
      <trkpt lat="38.46826" lon="-0.7887933333333332">
        <ele>800.1000000000003</ele>
        <time>2013-11-09T15:37:04.80</time>
      </trkpt>
      <trkpt lat="38.468295" lon="-0.78871">
        <ele>802.7000000000003</ele>
        <time>2013-11-09T15:37:05.83</time>
      </trkpt>
      <trkpt lat="38.46832166666667" lon="-0.788585">
        <ele>805.3000000000003</ele>
        <time>2013-11-09T15:37:06.87</time>
      </trkpt>
      <trkpt lat="38.468345" lon="-0.788425">
        <ele>807.7000000000003</ele>
        <time>2013-11-09T15:37:07.83</time>
      </trkpt>
      <trkpt lat="38.46834166666667" lon="-0.7882266666666666">
        <ele>809.9000000000003</ele>
        <time>2013-11-09T15:37:08.91</time>
      </trkpt>
      <trkpt lat="38.46832" lon="-0.788025">
        <ele>811.6000000000004</ele>
        <time>2013-11-09T15:37:09.81</time>
      </trkpt>
      <trkpt lat="38.468245" lon="-0.7878083333333333">
        <ele>812.8000000000004</ele>
        <time>2013-11-09T15:37:10.83</time>
      </trkpt>
      <trkpt lat="38.468131666666665" lon="-0.7876183333333333">
        <ele>814.3000000000004</ele>
        <time>2013-11-09T15:37:11.80</time>
      </trkpt>
      <trkpt lat="38.468005" lon="-0.7874266666666667">
        <ele>816.6000000000004</ele>
        <time>2013-11-09T15:37:12.83</time>
      </trkpt>
      <trkpt lat="38.467863333333334" lon="-0.7873116666666667">
        <ele>819.3000000000004</ele>
        <time>2013-11-09T15:37:13.89</time>
      </trkpt>
      <trkpt lat="38.46771666666667" lon="-0.7872116666666666">
        <ele>822.0000000000005</ele>
        <time>2013-11-09T15:37:14.83</time>
      </trkpt>
      <trkpt lat="38.46758" lon="-0.7871816666666667">
        <ele>824.3000000000004</ele>
        <time>2013-11-09T15:37:15.83</time>
      </trkpt>
      <trkpt lat="38.46745333333333" lon="-0.787165">
        <ele>826.7000000000004</ele>
        <time>2013-11-09T15:37:16.80</time>
      </trkpt>
      <trkpt lat="38.467345" lon="-0.7872">
        <ele>828.7000000000004</ele>
        <time>2013-11-09T15:37:17.83</time>
      </trkpt>
      <trkpt lat="38.467261666666666" lon="-0.787235">
        <ele>830.5000000000003</ele>
        <time>2013-11-09T15:37:18.80</time>
      </trkpt>
      <trkpt lat="38.46718333333333" lon="-0.7872800000000001">
        <ele>832.5000000000003</ele>
        <time>2013-11-09T15:37:19.84</time>
      </trkpt>
      <trkpt lat="38.467145" lon="-0.7873433333333334">
        <ele>834.5000000000003</ele>
        <time>2013-11-09T15:37:20.81</time>
      </trkpt>
      <trkpt lat="38.467121666666664" lon="-0.787395">
        <ele>834.7000000000004</ele>
        <time>2013-11-09T15:37:21.81</time>
      </trkpt>
      <trkpt lat="38.46711166666667" lon="-0.7874383333333334">
        <ele>834.8000000000004</ele>
        <time>2013-11-09T15:37:22.84</time>
      </trkpt>
      <trkpt lat="38.467135" lon="-0.7875016666666668">
        <ele>835.0000000000005</ele>
        <time>2013-11-09T15:37:23.84</time>
      </trkpt>
      <trkpt lat="38.467175" lon="-0.787535">
        <ele>835.2000000000005</ele>
        <time>2013-11-09T15:37:24.84</time>
      </trkpt>
      <trkpt lat="38.467225" lon="-0.78754">
        <ele>835.4000000000005</ele>
        <time>2013-11-09T15:37:25.84</time>
      </trkpt>
      <trkpt lat="38.467286666666666" lon="-0.7875150000000001">
        <ele>837.9000000000005</ele>
        <time>2013-11-09T15:37:26.80</time>
      </trkpt>
      <trkpt lat="38.46736" lon="-0.7874333333333333">
        <ele>840.8000000000005</ele>
        <time>2013-11-09T15:37:27.84</time>
      </trkpt>
      <trkpt lat="38.467438333333334" lon="-0.7873366666666667">
        <ele>844.0000000000006</ele>
        <time>2013-11-09T15:37:28.83</time>
      </trkpt>
      <trkpt lat="38.46749166666667" lon="-0.7872216666666667">
        <ele>846.7000000000006</ele>
        <time>2013-11-09T15:37:29.84</time>
      </trkpt>
      <trkpt lat="38.46751666666667" lon="-0.7870950000000001">
        <ele>849.5000000000006</ele>
        <time>2013-11-09T15:37:30.80</time>
      </trkpt>
      <trkpt lat="38.46751666666667" lon="-0.786915">
        <ele>852.2000000000006</ele>
        <time>2013-11-09T15:37:31.80</time>
      </trkpt>
      <trkpt lat="38.467515" lon="-0.7867333333333334">
        <ele>854.8000000000006</ele>
        <time>2013-11-09T15:37:32.81</time>
      </trkpt>
      <trkpt lat="38.467501666666664" lon="-0.786515">
        <ele>857.4000000000007</ele>
        <time>2013-11-09T15:37:33.84</time>
      </trkpt>
      <trkpt lat="38.46747" lon="-0.786315">
        <ele>859.6000000000007</ele>
        <time>2013-11-09T15:37:34.82</time>
      </trkpt>
      <trkpt lat="38.467385" lon="-0.786115">
        <ele>861.6000000000007</ele>
        <time>2013-11-09T15:37:35.81</time>
      </trkpt>
      <trkpt lat="38.46729" lon="-0.78593">
        <ele>863.6000000000007</ele>
        <time>2013-11-09T15:37:36.84</time>
      </trkpt>
      <trkpt lat="38.46716833333333" lon="-0.785775">
        <ele>865.3000000000008</ele>
        <time>2013-11-09T15:37:37.84</time>
      </trkpt>
      <trkpt lat="38.46702" lon="-0.7856516666666666">
        <ele>866.9000000000008</ele>
        <time>2013-11-09T15:37:38.84</time>
      </trkpt>
      <trkpt lat="38.466876666666664" lon="-0.7855500000000001">
        <ele>868.4000000000008</ele>
        <time>2013-11-09T15:37:39.93</time>
      </trkpt>
      <trkpt lat="38.46674" lon="-0.785505">
        <ele>870.2000000000007</ele>
        <time>2013-11-09T15:37:40.80</time>
      </trkpt>
      <trkpt lat="38.46662166666667" lon="-0.7854766666666666">
        <ele>871.9000000000008</ele>
        <time>2013-11-09T15:37:41.94</time>
      </trkpt>
      <trkpt lat="38.46651166666667" lon="-0.78546">
        <ele>873.5000000000008</ele>
        <time>2013-11-09T15:37:42.84</time>
      </trkpt>
      <trkpt lat="38.46641833333333" lon="-0.7854933333333334">
        <ele>875.2000000000008</ele>
        <time>2013-11-09T15:37:43.84</time>
      </trkpt>
      <trkpt lat="38.466341666666665" lon="-0.7855316666666667">
        <ele>876.9000000000009</ele>
        <time>2013-11-09T15:37:44.85</time>
      </trkpt>
      <trkpt lat="38.466276666666666" lon="-0.7856033333333333">
        <ele>878.7000000000008</ele>
        <time>2013-11-09T15:37:45.84</time>
      </trkpt>
      <trkpt lat="38.46625" lon="-0.7856666666666666">
        <ele>880.4000000000009</ele>
        <time>2013-11-09T15:37:46.80</time>
      </trkpt>
      <trkpt lat="38.466253333333334" lon="-0.7856966666666667">
        <ele>880.6000000000009</ele>
        <time>2013-11-09T15:37:47.84</time>
      </trkpt>
      <trkpt lat="38.46626166666667" lon="-0.7857166666666667">
        <ele>880.800000000001</ele>
        <time>2013-11-09T15:37:48.84</time>
      </trkpt>
      <trkpt lat="38.46628666666667" lon="-0.7857366666666666">
        <ele>881.8</ele>
        <time>2013-11-09T15:37:51.83</time>
      </trkpt>
      <trkpt lat="38.46632" lon="-0.7857433333333332">
        <ele>882.0999999999999</ele>
        <time>2013-11-09T15:37:52.84</time>
      </trkpt>
      <trkpt lat="38.46637166666667" lon="-0.7857066666666667">
        <ele>886.0999999999999</ele>
        <time>2013-11-09T15:37:53.84</time>
      </trkpt>
      <trkpt lat="38.466438333333336" lon="-0.78562">
        <ele>889.5999999999999</ele>
        <time>2013-11-09T15:37:54.84</time>
      </trkpt>
      <trkpt lat="38.466483333333336" lon="-0.78548">
        <ele>892.0999999999999</ele>
        <time>2013-11-09T15:37:55.84</time>
      </trkpt>
      <trkpt lat="38.466523333333335" lon="-0.78533">
        <ele>894.3</ele>
        <time>2013-11-09T15:37:57.69</time>
      </trkpt>
      <trkpt lat="38.46651833333333" lon="-0.7851533333333334">
        <ele>896.0999999999999</ele>
        <time>2013-11-09T15:37:57.83</time>
      </trkpt>
      <trkpt lat="38.466501666666666" lon="-0.7849733333333333">
        <ele>897.9999999999999</ele>
        <time>2013-11-09T15:37:58.84</time>
      </trkpt>
      <trkpt lat="38.46644666666667" lon="-0.7847883333333333">
        <ele>899.6999999999999</ele>
        <time>2013-11-09T15:37:59.84</time>
      </trkpt>
      <trkpt lat="38.46637833333333" lon="-0.7845766666666666">
        <ele>901.0999999999999</ele>
        <time>2013-11-09T15:38:00.84</time>
      </trkpt>
      <trkpt lat="38.46626833333333" lon="-0.784395">
        <ele>902.6999999999999</ele>
        <time>2013-11-09T15:38:01.84</time>
      </trkpt>
      <trkpt lat="38.46615166666667" lon="-0.784225">
        <ele>904.5999999999999</ele>
        <time>2013-11-09T15:38:02.84</time>
      </trkpt>
      <trkpt lat="38.466008333333335" lon="-0.7841133333333333">
        <ele>906.1999999999999</ele>
        <time>2013-11-09T15:38:03.84</time>
      </trkpt>
      <trkpt lat="38.465871666666665" lon="-0.7840233333333334">
        <ele>907.6999999999999</ele>
        <time>2013-11-09T15:38:04.90</time>
      </trkpt>
      <trkpt lat="38.465741666666666" lon="-0.7840033333333333">
        <ele>908.9999999999999</ele>
        <time>2013-11-09T15:38:05.84</time>
      </trkpt>
      <trkpt lat="38.465625" lon="-0.784">
        <ele>910.2999999999998</ele>
        <time>2013-11-09T15:38:06.87</time>
      </trkpt>
      <trkpt lat="38.46552166666667" lon="-0.7840450000000001">
        <ele>911.2999999999998</ele>
        <time>2013-11-09T15:38:07.84</time>
      </trkpt>
      <trkpt lat="38.46544333333333" lon="-0.7840900000000001">
        <ele>912.1999999999998</ele>
        <time>2013-11-09T15:38:08.85</time>
      </trkpt>
      <trkpt lat="38.465381666666666" lon="-0.78415">
        <ele>913.1999999999998</ele>
        <time>2013-11-09T15:38:09.84</time>
      </trkpt>
      <trkpt lat="38.46532833333333" lon="-0.7842">
        <ele>914.4999999999998</ele>
        <time>2013-11-09T15:38:10.84</time>
      </trkpt>
      <trkpt lat="38.46529833333334" lon="-0.7842300000000001">
        <ele>916.1999999999998</ele>
        <time>2013-11-09T15:38:11.83</time>
      </trkpt>
      <trkpt lat="38.46527833333333" lon="-0.784245">
        <ele>916.3999999999999</ele>
        <time>2013-11-09T15:38:12.86</time>
      </trkpt>
      <trkpt lat="38.46526" lon="-0.784265">
        <ele>916.5999999999999</ele>
        <time>2013-11-09T15:38:13.81</time>
      </trkpt>
      <trkpt lat="38.465241666666664" lon="-0.7843016666666667">
        <ele>916.8999999999999</ele>
        <time>2013-11-09T15:38:14.91</time>
      </trkpt>
      <trkpt lat="38.465223333333334" lon="-0.7843433333333334">
        <ele>917.2999999999998</ele>
        <time>2013-11-09T15:38:15.89</time>
      </trkpt>
      <trkpt lat="38.46521333333333" lon="-0.7843816666666666">
        <ele>917.6999999999998</ele>
        <time>2013-11-09T15:38:16.84</time>
      </trkpt>
      <trkpt lat="38.465235" lon="-0.7844166666666667">
        <ele>918.0999999999998</ele>
        <time>2013-11-09T15:38:17.83</time>
      </trkpt>
      <trkpt lat="38.465268333333334" lon="-0.78442">
        <ele>918.4999999999998</ele>
        <time>2013-11-09T15:38:18.80</time>
      </trkpt>
      <trkpt lat="38.465313333333334" lon="-0.784405">
        <ele>923.0999999999998</ele>
        <time>2013-11-09T15:38:19.83</time>
      </trkpt>
      <trkpt lat="38.465385" lon="-0.7843699999999999">
        <ele>926.9999999999998</ele>
        <time>2013-11-09T15:38:20.83</time>
      </trkpt>
      <trkpt lat="38.46547" lon="-0.784285">
        <ele>929.9999999999998</ele>
        <time>2013-11-09T15:38:21.87</time>
      </trkpt>
      <trkpt lat="38.46552333333333" lon="-0.7841633333333333">
        <ele>932.2999999999997</ele>
        <time>2013-11-09T15:38:22.83</time>
      </trkpt>
      <trkpt lat="38.465575" lon="-0.7840316666666667">
        <ele>933.9999999999998</ele>
        <time>2013-11-09T15:38:23.85</time>
      </trkpt>
      <trkpt lat="38.46556666666667" lon="-0.7838550000000001">
        <ele>935.7999999999997</ele>
        <time>2013-11-09T15:38:24.84</time>
      </trkpt>
      <trkpt lat="38.46555" lon="-0.7836716666666667">
        <ele>937.3999999999997</ele>
        <time>2013-11-09T15:38:25.84</time>
      </trkpt>
      <trkpt lat="38.465485" lon="-0.78349">
        <ele>938.8999999999997</ele>
        <time>2013-11-09T15:38:26.84</time>
      </trkpt>
      <trkpt lat="38.4654" lon="-0.7832916666666667">
        <ele>940.1999999999997</ele>
        <time>2013-11-09T15:38:27.84</time>
      </trkpt>
      <trkpt lat="38.465275" lon="-0.7831166666666667">
        <ele>941.5999999999997</ele>
        <time>2013-11-09T15:38:28.80</time>
      </trkpt>
      <trkpt lat="38.46512" lon="-0.782975">
        <ele>942.8999999999996</ele>
        <time>2013-11-09T15:38:29.84</time>
      </trkpt>
      <trkpt lat="38.46494333333333" lon="-0.7828833333333333">
        <ele>944.7999999999996</ele>
        <time>2013-11-09T15:38:30.84</time>
      </trkpt>
      <trkpt lat="38.464801666666666" lon="-0.7828366666666666">
        <ele>946.6999999999996</ele>
        <time>2013-11-09T15:38:31.84</time>
      </trkpt>
      <trkpt lat="38.464685" lon="-0.7828483333333334">
        <ele>948.5999999999996</ele>
        <time>2013-11-09T15:38:32.84</time>
      </trkpt>
      <trkpt lat="38.46458833333333" lon="-0.78286">
        <ele>950.1999999999996</ele>
        <time>2013-11-09T15:38:33.80</time>
      </trkpt>
      <trkpt lat="38.46451166666667" lon="-0.7828733333333333">
        <ele>951.6999999999996</ele>
        <time>2013-11-09T15:38:34.81</time>
      </trkpt>
      <trkpt lat="38.464438333333334" lon="-0.7828833333333333">
        <ele>952.9999999999995</ele>
        <time>2013-11-09T15:38:35.83</time>
      </trkpt>
      <trkpt lat="38.46436333333333" lon="-0.7829149999999999">
        <ele>954.2999999999995</ele>
        <time>2013-11-09T15:38:36.80</time>
      </trkpt>
      <trkpt lat="38.464281666666665" lon="-0.7829566666666667">
        <ele>955.5999999999995</ele>
        <time>2013-11-09T15:38:37.84</time>
      </trkpt>
      <trkpt lat="38.464191666666665" lon="-0.7830016666666667">
        <ele>957.1999999999995</ele>
        <time>2013-11-09T15:38:38.84</time>
      </trkpt>
      <trkpt lat="38.464125" lon="-0.7830466666666667">
        <ele>959.6999999999995</ele>
        <time>2013-11-09T15:38:39.84</time>
      </trkpt>
      <trkpt lat="38.464063333333335" lon="-0.78308">
        <ele>961.5999999999995</ele>
        <time>2013-11-09T15:38:40.80</time>
      </trkpt>
      <trkpt lat="38.463966666666664" lon="-0.78309">
        <ele>964.0999999999995</ele>
        <time>2013-11-09T15:38:41.84</time>
      </trkpt>
      <trkpt lat="38.46384" lon="-0.7830983333333333">
        <ele>966.6999999999995</ele>
        <time>2013-11-09T15:38:42.83</time>
      </trkpt>
      <trkpt lat="38.46369" lon="-0.7830616666666667">
        <ele>969.2999999999995</ele>
        <time>2013-11-09T15:38:43.84</time>
      </trkpt>
      <trkpt lat="38.46353833333333" lon="-0.78302">
        <ele>972.3999999999995</ele>
        <time>2013-11-09T15:38:44.84</time>
      </trkpt>
      <trkpt lat="38.463425" lon="-0.7828766666666667">
        <ele>975.3999999999995</ele>
        <time>2013-11-09T15:38:45.80</time>
      </trkpt>
      <trkpt lat="38.46332833333334" lon="-0.7827233333333333">
        <ele>977.5999999999996</ele>
        <time>2013-11-09T15:38:46.84</time>
      </trkpt>
      <trkpt lat="38.46329" lon="-0.7825366666666667">
        <ele>979.9999999999995</ele>
        <time>2013-11-09T15:38:47.81</time>
      </trkpt>
      <trkpt lat="38.463298333333334" lon="-0.7823483333333333">
        <ele>981.6999999999996</ele>
        <time>2013-11-09T15:38:48.84</time>
      </trkpt>
      <trkpt lat="38.46331833333333" lon="-0.7821549999999999">
        <ele>983.7999999999996</ele>
        <time>2013-11-09T15:38:49.86</time>
      </trkpt>
      <trkpt lat="38.463365" lon="-0.7819699999999999">
        <ele>986.2999999999996</ele>
        <time>2013-11-09T15:38:50.84</time>
      </trkpt>
      <trkpt lat="38.463411666666666" lon="-0.78187">
        <ele>989.2999999999996</ele>
        <time>2013-11-09T15:38:51.83</time>
      </trkpt>
      <trkpt lat="38.46346166666667" lon="-0.7818016666666666">
        <ele>992.3999999999996</ele>
        <time>2013-11-09T15:38:52.84</time>
      </trkpt>
      <trkpt lat="38.46351" lon="-0.7817383333333333">
        <ele>995.1999999999996</ele>
        <time>2013-11-09T15:38:53.84</time>
      </trkpt>
      <trkpt lat="38.463548333333335" lon="-0.7816933333333334">
        <ele>997.7999999999996</ele>
        <time>2013-11-09T15:38:54.84</time>
      </trkpt>
      <trkpt lat="38.46358" lon="-0.78167">
        <ele>998.0999999999996</ele>
        <time>2013-11-09T15:38:55.81</time>
      </trkpt>
      <trkpt lat="38.46360833333333" lon="-0.781675">
        <ele>998.3999999999995</ele>
        <time>2013-11-09T15:38:56.86</time>
      </trkpt>
      <trkpt lat="38.46364666666667" lon="-0.7817216666666666">
        <ele>998.8999999999995</ele>
        <time>2013-11-09T15:38:58.29</time>
      </trkpt>
      <trkpt lat="38.463635" lon="-0.7818016666666666">
        <ele>999.3999999999995</ele>
        <time>2013-11-09T15:38:58.84</time>
      </trkpt>
      <trkpt lat="38.46359" lon="-0.78187">
        <ele>1004.6999999999995</ele>
        <time>2013-11-09T15:38:59.84</time>
      </trkpt>
      <trkpt lat="38.46351333333333" lon="-0.7819233333333333">
        <ele>1009.0999999999995</ele>
        <time>2013-11-09T15:39:00.84</time>
      </trkpt>
      <trkpt lat="38.463411666666666" lon="-0.7819733333333333">
        <ele>1012.6999999999995</ele>
        <time>2013-11-09T15:39:02.89</time>
      </trkpt>
      <trkpt lat="38.46330833333333" lon="-0.7819866666666666">
        <ele>1015.5999999999995</ele>
        <time>2013-11-09T15:39:02.84</time>
      </trkpt>
      <trkpt lat="38.463188333333335" lon="-0.78195">
        <ele>1018.2999999999995</ele>
        <time>2013-11-09T15:39:03.84</time>
      </trkpt>
      <trkpt lat="38.463085" lon="-0.7819016666666666">
        <ele>1020.3999999999995</ele>
        <time>2013-11-09T15:39:04.84</time>
      </trkpt>
      <trkpt lat="38.46297333333333" lon="-0.7818533333333334">
        <ele>1023.2999999999995</ele>
        <time>2013-11-09T15:39:05.84</time>
      </trkpt>
      <trkpt lat="38.462855" lon="-0.7818083333333333">
        <ele>1025.6999999999996</ele>
        <time>2013-11-09T15:39:06.86</time>
      </trkpt>
      <trkpt lat="38.46272666666667" lon="-0.781765">
        <ele>1028.0999999999997</ele>
        <time>2013-11-09T15:39:07.80</time>
      </trkpt>
      <trkpt lat="38.46259833333333" lon="-0.7816866666666668">
        <ele>1030.6999999999996</ele>
        <time>2013-11-09T15:39:08.84</time>
      </trkpt>
      <trkpt lat="38.462475" lon="-0.7815966666666667">
        <ele>1033.4999999999995</ele>
        <time>2013-11-09T15:39:09.84</time>
      </trkpt>
      <trkpt lat="38.462358333333334" lon="-0.7814483333333333">
        <ele>1035.9999999999995</ele>
        <time>2013-11-09T15:39:10.84</time>
      </trkpt>
      <trkpt lat="38.46224" lon="-0.7812800000000001">
        <ele>1038.6999999999996</ele>
        <time>2013-11-09T15:39:11.84</time>
      </trkpt>
      <trkpt lat="38.46217166666667" lon="-0.781075">
        <ele>1041.2999999999995</ele>
        <time>2013-11-09T15:39:12.81</time>
      </trkpt>
      <trkpt lat="38.462151666666664" lon="-0.7808849999999999">
        <ele>1043.3999999999994</ele>
        <time>2013-11-09T15:39:13.88</time>
      </trkpt>
      <trkpt lat="38.46218666666667" lon="-0.780705">
        <ele>1046.5999999999995</ele>
        <time>2013-11-09T15:39:14.85</time>
      </trkpt>
      <trkpt lat="38.46224" lon="-0.78058">
        <ele>1049.8999999999994</ele>
        <time>2013-11-09T15:39:15.84</time>
      </trkpt>
      <trkpt lat="38.46230833333333" lon="-0.7805016666666666">
        <ele>1052.6999999999994</ele>
        <time>2013-11-09T15:39:16.86</time>
      </trkpt>
      <trkpt lat="38.46237166666667" lon="-0.78045">
        <ele>1055.5999999999995</ele>
        <time>2013-11-09T15:39:17.84</time>
      </trkpt>
      <trkpt lat="38.46239833333333" lon="-0.7804599999999999">
        <ele>1055.8999999999994</ele>
        <time>2013-11-09T15:39:18.81</time>
      </trkpt>
      <trkpt lat="38.46241166666667" lon="-0.7805066666666666">
        <ele>1056.1999999999994</ele>
        <time>2013-11-09T15:39:19.98</time>
      </trkpt>
      <trkpt lat="38.462405" lon="-0.7805416666666667">
        <ele>1056.6999999999994</ele>
        <time>2013-11-09T15:39:20.84</time>
      </trkpt>
      <trkpt lat="38.462378333333334" lon="-0.780565">
        <ele>1057.2999999999993</ele>
        <time>2013-11-09T15:39:21.84</time>
      </trkpt>
      <trkpt lat="38.46229666666667" lon="-0.7806066666666667">
        <ele>1063.6999999999994</ele>
        <time>2013-11-09T15:39:22.82</time>
      </trkpt>
      <trkpt lat="38.462201666666665" lon="-0.78065">
        <ele>1069.3999999999994</ele>
        <time>2013-11-09T15:39:23.84</time>
      </trkpt>
      <trkpt lat="38.462091666666666" lon="-0.780695">
        <ele>1073.5999999999995</ele>
        <time>2013-11-09T15:39:24.84</time>
      </trkpt>
      <trkpt lat="38.461953333333334" lon="-0.780705">
        <ele>1077.4999999999995</ele>
        <time>2013-11-09T15:39:25.84</time>
      </trkpt>
      <trkpt lat="38.461805" lon="-0.7807">
        <ele>1080.8999999999996</ele>
        <time>2013-11-09T15:39:26.84</time>
      </trkpt>
      <trkpt lat="38.46165833333333" lon="-0.780675">
        <ele>1084.1999999999996</ele>
        <time>2013-11-09T15:39:27.82</time>
      </trkpt>
      <trkpt lat="38.46154166666667" lon="-0.7805766666666667">
        <ele>1087.7999999999995</ele>
        <time>2013-11-09T15:39:28.84</time>
      </trkpt>
      <trkpt lat="38.46141" lon="-0.7804583333333334">
        <ele>1090.8999999999994</ele>
        <time>2013-11-09T15:39:29.84</time>
      </trkpt>
      <trkpt lat="38.461295" lon="-0.7803183333333333">
        <ele>1093.3999999999994</ele>
        <time>2013-11-09T15:39:30.84</time>
      </trkpt>
      <trkpt lat="38.461218333333335" lon="-0.7801383333333334">
        <ele>1095.7999999999995</ele>
        <time>2013-11-09T15:39:31.84</time>
      </trkpt>
      <trkpt lat="38.461166666666664" lon="-0.7799366666666666">
        <ele>1097.6999999999996</ele>
        <time>2013-11-09T15:39:32.84</time>
      </trkpt>
      <trkpt lat="38.461155" lon="-0.77971">
        <ele>1099.1999999999996</ele>
        <time>2013-11-09T15:39:33.84</time>
      </trkpt>
      <trkpt lat="38.46116" lon="-0.7795033333333333">
        <ele>1100.6999999999996</ele>
        <time>2013-11-09T15:39:34.81</time>
      </trkpt>
      <trkpt lat="38.46120833333333" lon="-0.7793416666666667">
        <ele>1102.4999999999995</ele>
        <time>2013-11-09T15:39:35.91</time>
      </trkpt>
      <trkpt lat="38.46125" lon="-0.7792283333333334">
        <ele>1104.7999999999995</ele>
        <time>2013-11-09T15:39:36.88</time>
      </trkpt>
      <trkpt lat="38.461305" lon="-0.7791250000000001">
        <ele>1107.5999999999995</ele>
        <time>2013-11-09T15:39:37.84</time>
      </trkpt>
      <trkpt lat="38.461351666666665" lon="-0.7790549999999999">
        <ele>1110.7999999999995</ele>
        <time>2013-11-09T15:39:38.84</time>
      </trkpt>
      <trkpt lat="38.461418333333334" lon="-0.7790116666666667">
        <ele>1113.9999999999995</ele>
        <time>2013-11-09T15:39:39.83</time>
      </trkpt>
      <trkpt lat="38.46147833333333" lon="-0.7789733333333333">
        <ele>1117.1999999999996</ele>
        <time>2013-11-09T15:39:40.81</time>
      </trkpt>
      <trkpt lat="38.461531666666666" lon="-0.7789433333333334">
        <ele>1120.6999999999996</ele>
        <time>2013-11-09T15:39:41.84</time>
      </trkpt>
      <trkpt lat="38.46156166666667" lon="-0.7789316666666667">
        <ele>1121.0999999999997</ele>
        <time>2013-11-09T15:39:42.84</time>
      </trkpt>
      <trkpt lat="38.46153" lon="-0.7789916666666666">
        <ele>1122.3</ele>
        <time>2013-11-09T15:39:45.84</time>
      </trkpt>
      <trkpt lat="38.461486666666666" lon="-0.7790433333333334">
        <ele>1125.8999999999999</ele>
        <time>2013-11-09T15:39:46.81</time>
      </trkpt>
      <trkpt lat="38.46143166666667" lon="-0.7791233333333333">
        <ele>1128.4999999999998</ele>
        <time>2013-11-09T15:39:47.84</time>
      </trkpt>
      <trkpt lat="38.461351666666665" lon="-0.7791883333333334">
        <ele>1130.5999999999997</ele>
        <time>2013-11-09T15:39:48.84</time>
      </trkpt>
      <trkpt lat="38.461236666666665" lon="-0.7792133333333333">
        <ele>1132.6999999999996</ele>
        <time>2013-11-09T15:39:49.84</time>
      </trkpt>
      <trkpt lat="38.461105" lon="-0.7792">
        <ele>1134.2999999999995</ele>
        <time>2013-11-09T15:39:50.89</time>
      </trkpt>
      <trkpt lat="38.460971666666666" lon="-0.779185">
        <ele>1135.8999999999994</ele>
        <time>2013-11-09T15:39:51.86</time>
      </trkpt>
      <trkpt lat="38.46084" lon="-0.7791433333333334">
        <ele>1137.3999999999994</ele>
        <time>2013-11-09T15:39:52.84</time>
      </trkpt>
      <trkpt lat="38.460701666666665" lon="-0.7790816666666667">
        <ele>1139.7999999999995</ele>
        <time>2013-11-09T15:39:53.84</time>
      </trkpt>
      <trkpt lat="38.46057166666667" lon="-0.778965">
        <ele>1142.2999999999995</ele>
        <time>2013-11-09T15:39:54.82</time>
      </trkpt>
      <trkpt lat="38.460445" lon="-0.7788366666666667">
        <ele>1144.4999999999995</ele>
        <time>2013-11-09T15:39:55.96</time>
      </trkpt>
      <trkpt lat="38.46031833333333" lon="-0.7786766666666666">
        <ele>1145.9999999999995</ele>
        <time>2013-11-09T15:39:56.81</time>
      </trkpt>
      <trkpt lat="38.460206666666664" lon="-0.7785183333333333">
        <ele>1147.2999999999995</ele>
        <time>2013-11-09T15:39:57.80</time>
      </trkpt>
      <trkpt lat="38.46011" lon="-0.7783650000000001">
        <ele>1149.0999999999995</ele>
        <time>2013-11-09T15:39:58.79</time>
      </trkpt>
      <trkpt lat="38.460028333333334" lon="-0.7782216666666667">
        <ele>1151.2999999999995</ele>
        <time>2013-11-09T15:39:59.84</time>
      </trkpt>
      <trkpt lat="38.459988333333335" lon="-0.778045">
        <ele>1153.7999999999995</ele>
        <time>2013-11-09T15:40:00.84</time>
      </trkpt>
      <trkpt lat="38.45997833333333" lon="-0.7778349999999999">
        <ele>1155.4999999999995</ele>
        <time>2013-11-09T15:40:01.84</time>
      </trkpt>
      <trkpt lat="38.460035" lon="-0.7776183333333333">
        <ele>1158.1999999999996</ele>
        <time>2013-11-09T15:40:02.88</time>
      </trkpt>
      <trkpt lat="38.460115" lon="-0.7774516666666667">
        <ele>1161.4999999999995</ele>
        <time>2013-11-09T15:40:03.84</time>
      </trkpt>
      <trkpt lat="38.460175" lon="-0.777335">
        <ele>1165.0999999999995</ele>
        <time>2013-11-09T15:40:04.85</time>
      </trkpt>
      <trkpt lat="38.46022333333333" lon="-0.77726">
        <ele>1168.7999999999995</ele>
        <time>2013-11-09T15:40:05.92</time>
      </trkpt>
      <trkpt lat="38.460256666666666" lon="-0.7772066666666666">
        <ele>1172.3999999999994</ele>
        <time>2013-11-09T15:40:06.85</time>
      </trkpt>
      <trkpt lat="38.46028666666667" lon="-0.777185">
        <ele>1176.1999999999994</ele>
        <time>2013-11-09T15:40:07.88</time>
      </trkpt>
      <trkpt lat="38.46031166666667" lon="-0.7771866666666667">
        <ele>1176.5999999999995</ele>
        <time>2013-11-09T15:40:08.85</time>
      </trkpt>
      <trkpt lat="38.460321666666665" lon="-0.7772233333333334">
        <ele>1176.9999999999995</ele>
        <time>2013-11-09T15:40:09.81</time>
      </trkpt>
      <trkpt lat="38.46026" lon="-0.7772749999999999">
        <ele>1181.2999999999995</ele>
        <time>2013-11-09T15:40:10.85</time>
      </trkpt>
      <trkpt lat="38.46013833333333" lon="-0.77729">
        <ele>1184.5999999999995</ele>
        <time>2013-11-09T15:40:11.84</time>
      </trkpt>
      <trkpt lat="38.45999333333334" lon="-0.7773016666666667">
        <ele>1186.8999999999994</ele>
        <time>2013-11-09T15:40:12.79</time>
      </trkpt>
      <trkpt lat="38.45986333333333" lon="-0.7772366666666667">
        <ele>1188.9999999999993</ele>
        <time>2013-11-09T15:40:13.85</time>
      </trkpt>
      <trkpt lat="38.459743333333336" lon="-0.7771516666666667">
        <ele>1190.2999999999993</ele>
        <time>2013-11-09T15:40:14.85</time>
      </trkpt>
      <trkpt lat="38.45961" lon="-0.7770583333333333">
        <ele>1191.6999999999994</ele>
        <time>2013-11-09T15:40:15.85</time>
      </trkpt>
      <trkpt lat="38.45948" lon="-0.776975">
        <ele>1193.1999999999994</ele>
        <time>2013-11-09T15:40:16.85</time>
      </trkpt>
      <trkpt lat="38.459363333333336" lon="-0.7768700000000001">
        <ele>1193.8999999999994</ele>
        <time>2013-11-09T15:40:17.85</time>
      </trkpt>
      <trkpt lat="38.45924" lon="-0.77676">
        <ele>1194.6999999999994</ele>
        <time>2013-11-09T15:40:18.85</time>
      </trkpt>
      <trkpt lat="38.45909666666667" lon="-0.7766149999999999">
        <ele>1196.3999999999994</ele>
        <time>2013-11-09T15:40:19.84</time>
      </trkpt>
      <trkpt lat="38.458956666666666" lon="-0.7764516666666667">
        <ele>1199.0999999999995</ele>
        <time>2013-11-09T15:40:20.85</time>
      </trkpt>
      <trkpt lat="38.45886333333333" lon="-0.7762899999999999">
        <ele>1202.5999999999995</ele>
        <time>2013-11-09T15:40:21.84</time>
      </trkpt>
      <trkpt lat="38.45878" lon="-0.7761416666666666">
        <ele>1205.6999999999994</ele>
        <time>2013-11-09T15:40:22.85</time>
      </trkpt>
      <trkpt lat="38.45873666666667" lon="-0.7759716666666667">
        <ele>1207.9999999999993</ele>
        <time>2013-11-09T15:40:23.84</time>
      </trkpt>
      <trkpt lat="38.458715" lon="-0.7757683333333334">
        <ele>1209.7999999999993</ele>
        <time>2013-11-09T15:40:24.99</time>
      </trkpt>
      <trkpt lat="38.458735" lon="-0.77556">
        <ele>1211.2999999999993</ele>
        <time>2013-11-09T15:40:25.85</time>
      </trkpt>
      <trkpt lat="38.45876833333333" lon="-0.7753466666666667">
        <ele>1212.8999999999992</ele>
        <time>2013-11-09T15:40:26.80</time>
      </trkpt>
      <trkpt lat="38.458841666666665" lon="-0.7752033333333334">
        <ele>1215.1999999999991</ele>
        <time>2013-11-09T15:40:27.85</time>
      </trkpt>
      <trkpt lat="38.45890333333333" lon="-0.7751183333333334">
        <ele>1217.8999999999992</ele>
        <time>2013-11-09T15:40:28.85</time>
      </trkpt>
      <trkpt lat="38.45895333333333" lon="-0.7750583333333334">
        <ele>1220.8999999999992</ele>
        <time>2013-11-09T15:40:29.88</time>
      </trkpt>
      <trkpt lat="38.45899" lon="-0.7750216666666667">
        <ele>1224.0999999999992</ele>
        <time>2013-11-09T15:40:30.85</time>
      </trkpt>
      <trkpt lat="38.45900833333334" lon="-0.7750199999999999">
        <ele>1224.3999999999992</ele>
        <time>2013-11-09T15:40:31.85</time>
      </trkpt>
      <trkpt lat="38.459" lon="-0.775125">
        <ele>1225.3999999999992</ele>
        <time>2013-11-09T15:40:33.85</time>
      </trkpt>
      <trkpt lat="38.458935" lon="-0.7751866666666667">
        <ele>1230.2999999999993</ele>
        <time>2013-11-09T15:40:34.85</time>
      </trkpt>
      <trkpt lat="38.45885333333333" lon="-0.7752216666666667">
        <ele>1234.0999999999992</ele>
        <time>2013-11-09T15:40:35.85</time>
      </trkpt>
      <trkpt lat="38.45874333333333" lon="-0.77525">
        <ele>1237.0999999999992</ele>
        <time>2013-11-09T15:40:36.85</time>
      </trkpt>
      <trkpt lat="38.458598333333335" lon="-0.7752166666666667">
        <ele>1239.7999999999993</ele>
        <time>2013-11-09T15:40:37.85</time>
      </trkpt>
      <trkpt lat="38.458468333333336" lon="-0.7751283333333333">
        <ele>1242.7999999999993</ele>
        <time>2013-11-09T15:40:38.85</time>
      </trkpt>
      <trkpt lat="38.45834166666667" lon="-0.7750283333333333">
        <ele>1246.2999999999993</ele>
        <time>2013-11-09T15:40:39.85</time>
      </trkpt>
      <trkpt lat="38.45823" lon="-0.7749266666666668">
        <ele>1250.0999999999992</ele>
        <time>2013-11-09T15:40:40.85</time>
      </trkpt>
      <trkpt lat="38.458133333333336" lon="-0.7748083333333333">
        <ele>1253.2999999999993</ele>
        <time>2013-11-09T15:40:41.81</time>
      </trkpt>
      <trkpt lat="38.45802833333333" lon="-0.77468">
        <ele>1255.4999999999993</ele>
        <time>2013-11-09T15:40:42.85</time>
      </trkpt>
      <trkpt lat="38.457945" lon="-0.7745116666666667">
        <ele>1256.9999999999993</ele>
        <time>2013-11-09T15:40:43.84</time>
      </trkpt>
      <trkpt lat="38.457861666666666" lon="-0.7743249999999999">
        <ele>1257.9999999999993</ele>
        <time>2013-11-09T15:40:44.85</time>
      </trkpt>
      <trkpt lat="38.45779666666667" lon="-0.7741399999999999">
        <ele>1258.8999999999994</ele>
        <time>2013-11-09T15:40:45.85</time>
      </trkpt>
      <trkpt lat="38.457765" lon="-0.7739483333333333">
        <ele>1259.6999999999994</ele>
        <time>2013-11-09T15:40:46.87</time>
      </trkpt>
      <trkpt lat="38.45774" lon="-0.7737383333333334">
        <ele>1261.1999999999994</ele>
        <time>2013-11-09T15:40:47.85</time>
      </trkpt>
      <trkpt lat="38.457735" lon="-0.7735033333333334">
        <ele>1263.4999999999993</ele>
        <time>2013-11-09T15:40:48.85</time>
      </trkpt>
      <trkpt lat="38.457768333333334" lon="-0.7733216666666666">
        <ele>1266.0999999999992</ele>
        <time>2013-11-09T15:40:49.80</time>
      </trkpt>
      <trkpt lat="38.45780833333333" lon="-0.7732083333333333">
        <ele>1268.4999999999993</ele>
        <time>2013-11-09T15:40:50.80</time>
      </trkpt>
      <trkpt lat="38.45784666666667" lon="-0.7730966666666668">
        <ele>1270.4999999999993</ele>
        <time>2013-11-09T15:40:51.85</time>
      </trkpt>
      <trkpt lat="38.45789333333333" lon="-0.7729966666666667">
        <ele>1272.4999999999993</ele>
        <time>2013-11-09T15:40:52.85</time>
      </trkpt>
      <trkpt lat="38.457955" lon="-0.7729466666666667">
        <ele>1274.4999999999993</ele>
        <time>2013-11-09T15:40:53.85</time>
      </trkpt>
      <trkpt lat="38.458" lon="-0.7729283333333333">
        <ele>1274.6999999999994</ele>
        <time>2013-11-09T15:40:54.82</time>
      </trkpt>
      <trkpt lat="38.458045" lon="-0.77295">
        <ele>1274.9999999999993</ele>
        <time>2013-11-09T15:40:55.85</time>
      </trkpt>
      <trkpt lat="38.458043333333336" lon="-0.7730016666666667">
        <ele>1275.2999999999993</ele>
        <time>2013-11-09T15:40:56.85</time>
      </trkpt>
      <trkpt lat="38.458018333333335" lon="-0.773045">
        <ele>1275.5999999999992</ele>
        <time>2013-11-09T15:40:57.85</time>
      </trkpt>
      <trkpt lat="38.457975" lon="-0.7730783333333334">
        <ele>1279.0999999999992</ele>
        <time>2013-11-09T15:40:58.85</time>
      </trkpt>
      <trkpt lat="38.45791166666667" lon="-0.773115">
        <ele>1282.1999999999991</ele>
        <time>2013-11-09T15:40:59.81</time>
      </trkpt>
      <trkpt lat="38.45782" lon="-0.7731533333333334">
        <ele>1285.0999999999992</ele>
        <time>2013-11-09T15:41:00.85</time>
      </trkpt>
      <trkpt lat="38.45769333333333" lon="-0.7731683333333332">
        <ele>1287.6999999999991</ele>
        <time>2013-11-09T15:41:01.85</time>
      </trkpt>
      <trkpt lat="38.45755666666667" lon="-0.7731683333333332">
        <ele>1290.1999999999991</ele>
        <time>2013-11-09T15:41:02.84</time>
      </trkpt>
      <trkpt lat="38.457433333333334" lon="-0.7731116666666666">
        <ele>1292.6999999999991</ele>
        <time>2013-11-09T15:41:03.84</time>
      </trkpt>
      <trkpt lat="38.457315" lon="-0.7730483333333333">
        <ele>1294.499999999999</ele>
        <time>2013-11-09T15:41:04.81</time>
      </trkpt>
      <trkpt lat="38.457205" lon="-0.7729833333333332">
        <ele>1296.1999999999991</ele>
        <time>2013-11-09T15:41:05.84</time>
      </trkpt>
      <trkpt lat="38.45708833333333" lon="-0.77291">
        <ele>1297.999999999999</ele>
        <time>2013-11-09T15:41:06.80</time>
      </trkpt>
      <trkpt lat="38.45697" lon="-0.77283">
        <ele>1299.999999999999</ele>
        <time>2013-11-09T15:41:07.84</time>
      </trkpt>
      <trkpt lat="38.456845" lon="-0.7727416666666667">
        <ele>1302.299999999999</ele>
        <time>2013-11-09T15:41:08.85</time>
      </trkpt>
      <trkpt lat="38.45673" lon="-0.7725933333333334">
        <ele>1304.499999999999</ele>
        <time>2013-11-09T15:41:09.85</time>
      </trkpt>
      <trkpt lat="38.45663" lon="-0.7724283333333334">
        <ele>1305.799999999999</ele>
        <time>2013-11-09T15:41:10.82</time>
      </trkpt>
      <trkpt lat="38.45652333333334" lon="-0.7722416666666666">
        <ele>1306.399999999999</ele>
        <time>2013-11-09T15:41:11.81</time>
      </trkpt>
      <trkpt lat="38.45643666666667" lon="-0.7720400000000001">
        <ele>1307.199999999999</ele>
        <time>2013-11-09T15:41:12.85</time>
      </trkpt>
      <trkpt lat="38.45639666666667" lon="-0.77184">
        <ele>1308.2999999999988</ele>
        <time>2013-11-09T15:41:13.85</time>
      </trkpt>
      <trkpt lat="38.45636833333333" lon="-0.7716566666666667">
        <ele>1309.4999999999989</ele>
        <time>2013-11-09T15:41:14.80</time>
      </trkpt>
      <trkpt lat="38.45635333333333" lon="-0.77149">
        <ele>1310.899999999999</ele>
        <time>2013-11-09T15:41:15.86</time>
      </trkpt>
      <trkpt lat="38.456335" lon="-0.7713233333333334">
        <ele>1312.399999999999</ele>
        <time>2013-11-09T15:41:16.86</time>
      </trkpt>
      <trkpt lat="38.456356666666665" lon="-0.771165">
        <ele>1313.9999999999989</ele>
        <time>2013-11-09T15:41:17.85</time>
      </trkpt>
      <trkpt lat="38.45638" lon="-0.77102">
        <ele>1315.399999999999</ele>
        <time>2013-11-09T15:41:18.85</time>
      </trkpt>
      <trkpt lat="38.456425" lon="-0.7709016666666667">
        <ele>1316.599999999999</ele>
        <time>2013-11-09T15:41:19.94</time>
      </trkpt>
      <trkpt lat="38.45647" lon="-0.770805">
        <ele>1317.499999999999</ele>
        <time>2013-11-09T15:41:20.86</time>
      </trkpt>
      <trkpt lat="38.456536666666665" lon="-0.7707533333333333">
        <ele>1318.1999999999991</ele>
        <time>2013-11-09T15:41:21.86</time>
      </trkpt>
      <trkpt lat="38.456595" lon="-0.7707383333333334">
        <ele>1318.299999999999</ele>
        <time>2013-11-09T15:41:23.59</time>
      </trkpt>
      <trkpt lat="38.45664" lon="-0.7707766666666667">
        <ele>1318.499999999999</ele>
        <time>2013-11-09T15:41:23.87</time>
      </trkpt>
      <trkpt lat="38.45663666666667" lon="-0.7708466666666667">
        <ele>1318.6999999999991</ele>
        <time>2013-11-09T15:41:24.94</time>
      </trkpt>
      <trkpt lat="38.45661" lon="-0.770915">
        <ele>1320.6999999999991</ele>
        <time>2013-11-09T15:41:25.82</time>
      </trkpt>
      <trkpt lat="38.456575" lon="-0.77098">
        <ele>1322.499999999999</ele>
        <time>2013-11-09T15:41:26.87</time>
      </trkpt>
      <trkpt lat="38.45653166666666" lon="-0.7710433333333333">
        <ele>1324.3999999999992</ele>
        <time>2013-11-09T15:41:27.86</time>
      </trkpt>
      <trkpt lat="38.45648" lon="-0.7711083333333334">
        <ele>1325.8999999999992</ele>
        <time>2013-11-09T15:41:28.81</time>
      </trkpt>
      <trkpt lat="38.45641666666667" lon="-0.77115">
        <ele>1327.6999999999991</ele>
        <time>2013-11-09T15:41:29.86</time>
      </trkpt>
      <trkpt lat="38.45634833333333" lon="-0.7711950000000001">
        <ele>1329.3999999999992</ele>
        <time>2013-11-09T15:41:30.82</time>
      </trkpt>
      <trkpt lat="38.456271666666666" lon="-0.771235">
        <ele>1331.2999999999993</ele>
        <time>2013-11-09T15:41:31.87</time>
      </trkpt>
      <trkpt lat="38.45619166666667" lon="-0.7712733333333334">
        <ele>1333.0999999999992</ele>
        <time>2013-11-09T15:41:32.86</time>
      </trkpt>
      <trkpt lat="38.45610333333333" lon="-0.7713133333333333">
        <ele>1334.8999999999992</ele>
        <time>2013-11-09T15:41:33.86</time>
      </trkpt>
      <trkpt lat="38.45601833333333" lon="-0.7713450000000001">
        <ele>1336.999999999999</ele>
        <time>2013-11-09T15:41:34.86</time>
      </trkpt>
      <trkpt lat="38.45594" lon="-0.77135">
        <ele>1339.299999999999</ele>
        <time>2013-11-09T15:41:35.81</time>
      </trkpt>
      <trkpt lat="38.45587" lon="-0.7713483333333334">
        <ele>1341.6999999999991</ele>
        <time>2013-11-09T15:41:36.86</time>
      </trkpt>
      <trkpt lat="38.455796666666664" lon="-0.7713416666666667">
        <ele>1343.8999999999992</ele>
        <time>2013-11-09T15:41:37.85</time>
      </trkpt>
      <trkpt lat="38.455715" lon="-0.7713416666666667">
        <ele>1345.5999999999992</ele>
        <time>2013-11-09T15:41:38.86</time>
      </trkpt>
      <trkpt lat="38.45561166666667" lon="-0.771355">
        <ele>1346.8999999999992</ele>
        <time>2013-11-09T15:41:39.86</time>
      </trkpt>
      <trkpt lat="38.45549" lon="-0.7713716666666667">
        <ele>1348.0999999999992</ele>
        <time>2013-11-09T15:41:40.86</time>
      </trkpt>
      <trkpt lat="38.455365" lon="-0.7713483333333334">
        <ele>1349.2999999999993</ele>
        <time>2013-11-09T15:41:41.86</time>
      </trkpt>
      <trkpt lat="38.45524666666667" lon="-0.7712816666666666">
        <ele>1350.2999999999993</ele>
        <time>2013-11-09T15:41:42.86</time>
      </trkpt>
      <trkpt lat="38.455128333333334" lon="-0.7712066666666666">
        <ele>1351.1999999999994</ele>
        <time>2013-11-09T15:41:43.85</time>
      </trkpt>
      <trkpt lat="38.45502333333334" lon="-0.7710883333333334">
        <ele>1351.7999999999993</ele>
        <time>2013-11-09T15:41:44.87</time>
      </trkpt>
      <trkpt lat="38.45491666666667" lon="-0.7709633333333333">
        <ele>1351.6999999999994</ele>
        <time>2013-11-09T15:41:45.87</time>
      </trkpt>
      <trkpt lat="38.45482166666667" lon="-0.770825">
        <ele>1351.2999999999993</ele>
        <time>2013-11-09T15:41:46.85</time>
      </trkpt>
      <trkpt lat="38.45471333333333" lon="-0.77066">
        <ele>1350.9999999999993</ele>
        <time>2013-11-09T15:41:47.86</time>
      </trkpt>
      <trkpt lat="38.45465" lon="-0.770455">
        <ele>1350.6999999999994</ele>
        <time>2013-11-09T15:41:48.86</time>
      </trkpt>
      <trkpt lat="38.45460166666667" lon="-0.7702466666666666">
        <ele>1349.9999999999993</ele>
        <time>2013-11-09T15:41:49.93</time>
      </trkpt>
      <trkpt lat="38.45457666666667" lon="-0.7700566666666667">
        <ele>1349.3999999999994</ele>
        <time>2013-11-09T15:41:50.87</time>
      </trkpt>
      <trkpt lat="38.45456333333333" lon="-0.7698666666666667">
        <ele>1349.1999999999994</ele>
        <time>2013-11-09T15:41:51.85</time>
      </trkpt>
      <trkpt lat="38.45455166666667" lon="-0.7696866666666666">
        <ele>1349.6999999999994</ele>
        <time>2013-11-09T15:41:52.86</time>
      </trkpt>
      <trkpt lat="38.454555" lon="-0.76951">
        <ele>1350.9999999999993</ele>
        <time>2013-11-09T15:41:53.86</time>
      </trkpt>
      <trkpt lat="38.45458333333333" lon="-0.7693366666666667">
        <ele>1352.7999999999993</ele>
        <time>2013-11-09T15:41:54.91</time>
      </trkpt>
      <trkpt lat="38.454618333333336" lon="-0.769185">
        <ele>1354.6999999999994</ele>
        <time>2013-11-09T15:41:55.86</time>
      </trkpt>
      <trkpt lat="38.454665" lon="-0.76905">
        <ele>1356.4999999999993</ele>
        <time>2013-11-09T15:41:56.86</time>
      </trkpt>
      <trkpt lat="38.45474" lon="-0.7689683333333334">
        <ele>1357.7999999999993</ele>
        <time>2013-11-09T15:41:57.85</time>
      </trkpt>
      <trkpt lat="38.45481" lon="-0.7688933333333333">
        <ele>1359.5999999999992</ele>
        <time>2013-11-09T15:41:58.85</time>
      </trkpt>
      <trkpt lat="38.45486666666667" lon="-0.7688433333333333">
        <ele>1361.2999999999993</ele>
        <time>2013-11-09T15:41:59.81</time>
      </trkpt>
      <trkpt lat="38.45491333333333" lon="-0.7688116666666667">
        <ele>1363.3999999999992</ele>
        <time>2013-11-09T15:42:00.88</time>
      </trkpt>
      <trkpt lat="38.454965" lon="-0.7687933333333333">
        <ele>1365.2999999999993</ele>
        <time>2013-11-09T15:42:01.86</time>
      </trkpt>
      <trkpt lat="38.455005" lon="-0.7687933333333333">
        <ele>1365.4999999999993</ele>
        <time>2013-11-09T15:42:02.86</time>
      </trkpt>
      <trkpt lat="38.455015" lon="-0.7688616666666667">
        <ele>1365.6999999999994</ele>
        <time>2013-11-09T15:42:03.86</time>
      </trkpt>
      <trkpt lat="38.454985" lon="-0.7689333333333334">
        <ele>1367.3999999999994</ele>
        <time>2013-11-09T15:42:04.81</time>
      </trkpt>
      <trkpt lat="38.454945" lon="-0.7690016666666666">
        <ele>1369.0999999999995</ele>
        <time>2013-11-09T15:42:05.86</time>
      </trkpt>
      <trkpt lat="38.45489833333333" lon="-0.7690766666666666">
        <ele>1370.7999999999995</ele>
        <time>2013-11-09T15:42:06.86</time>
      </trkpt>
      <trkpt lat="38.454831666666664" lon="-0.7691233333333333">
        <ele>1372.8999999999994</ele>
        <time>2013-11-09T15:42:07.95</time>
      </trkpt>
      <trkpt lat="38.45477" lon="-0.7691566666666667">
        <ele>1375.1999999999994</ele>
        <time>2013-11-09T15:42:08.86</time>
      </trkpt>
      <trkpt lat="38.454708333333336" lon="-0.7691716666666667">
        <ele>1377.3999999999994</ele>
        <time>2013-11-09T15:42:09.93</time>
      </trkpt>
      <trkpt lat="38.454635" lon="-0.7691816666666667">
        <ele>1379.4999999999993</ele>
        <time>2013-11-09T15:42:10.87</time>
      </trkpt>
      <trkpt lat="38.454548333333335" lon="-0.7691983333333333">
        <ele>1381.1999999999994</ele>
        <time>2013-11-09T15:42:11.86</time>
      </trkpt>
      <trkpt lat="38.45444666666667" lon="-0.7692183333333333">
        <ele>1382.8999999999994</ele>
        <time>2013-11-09T15:42:12.85</time>
      </trkpt>
      <trkpt lat="38.45433333333333" lon="-0.7692416666666666">
        <ele>1384.2999999999995</ele>
        <time>2013-11-09T15:42:13.81</time>
      </trkpt>
      <trkpt lat="38.45421" lon="-0.7692583333333334">
        <ele>1385.6999999999996</ele>
        <time>2013-11-09T15:42:14.86</time>
      </trkpt>
      <trkpt lat="38.45408166666667" lon="-0.76924">
        <ele>1386.9999999999995</ele>
        <time>2013-11-09T15:42:15.92</time>
      </trkpt>
      <trkpt lat="38.45394833333334" lon="-0.76922">
        <ele>1388.1999999999996</ele>
        <time>2013-11-09T15:42:16.86</time>
      </trkpt>
      <trkpt lat="38.45382" lon="-0.769185">
        <ele>1388.8999999999996</ele>
        <time>2013-11-09T15:42:17.87</time>
      </trkpt>
      <trkpt lat="38.45368666666667" lon="-0.7691116666666667">
        <ele>1389.8999999999996</ele>
        <time>2013-11-09T15:42:18.86</time>
      </trkpt>
      <trkpt lat="38.45356" lon="-0.7690300000000001">
        <ele>1390.1999999999996</ele>
        <time>2013-11-09T15:42:19.86</time>
      </trkpt>
      <trkpt lat="38.45344333333333" lon="-0.768945">
        <ele>1390.4999999999995</ele>
        <time>2013-11-09T15:42:20.86</time>
      </trkpt>
      <trkpt lat="38.453331666666664" lon="-0.7688550000000001">
        <ele>1390.8999999999996</ele>
        <time>2013-11-09T15:42:21.82</time>
      </trkpt>
      <trkpt lat="38.453203333333335" lon="-0.7687616666666667">
        <ele>1391.0999999999997</ele>
        <time>2013-11-09T15:42:22.85</time>
      </trkpt>
      <trkpt lat="38.453073333333336" lon="-0.7686633333333333">
        <ele>1391.2999999999997</ele>
        <time>2013-11-09T15:42:23.86</time>
      </trkpt>
      <trkpt lat="38.45294833333333" lon="-0.768555">
        <ele>1391.5999999999997</ele>
        <time>2013-11-09T15:42:24.85</time>
      </trkpt>
      <trkpt lat="38.45285166666667" lon="-0.7684533333333333">
        <ele>1392.1999999999996</ele>
        <time>2013-11-09T15:42:25.86</time>
      </trkpt>
      <trkpt lat="38.45274" lon="-0.768335">
        <ele>1392.8999999999996</ele>
        <time>2013-11-09T15:42:26.85</time>
      </trkpt>
      <trkpt lat="38.45261166666667" lon="-0.7681983333333334">
        <ele>1393.7999999999997</ele>
        <time>2013-11-09T15:42:27.85</time>
      </trkpt>
      <trkpt lat="38.45249333333334" lon="-0.7680683333333334">
        <ele>1394.7999999999997</ele>
        <time>2013-11-09T15:42:28.85</time>
      </trkpt>
      <trkpt lat="38.452385" lon="-0.7679416666666667">
        <ele>1395.6999999999998</ele>
        <time>2013-11-09T15:42:29.85</time>
      </trkpt>
      <trkpt lat="38.452288333333335" lon="-0.7678066666666666">
        <ele>1396.4999999999998</ele>
        <time>2013-11-09T15:42:30.86</time>
      </trkpt>
      <trkpt lat="38.452205" lon="-0.76764">
        <ele>1397.3999999999999</ele>
        <time>2013-11-09T15:42:31.82</time>
      </trkpt>
      <trkpt lat="38.45215666666667" lon="-0.7674933333333332">
        <ele>1398.6999999999998</ele>
        <time>2013-11-09T15:42:32.87</time>
      </trkpt>
      <trkpt lat="38.45207833333333" lon="-0.7673216666666666">
        <ele>1399.8999999999999</ele>
        <time>2013-11-09T15:42:33.90</time>
      </trkpt>
      <trkpt lat="38.452016666666665" lon="-0.7671533333333334">
        <ele>1401.1</ele>
        <time>2013-11-09T15:42:34.85</time>
      </trkpt>
      <trkpt lat="38.451965" lon="-0.7669716666666667">
        <ele>1402.1999999999998</ele>
        <time>2013-11-09T15:42:35.88</time>
      </trkpt>
      <trkpt lat="38.451926666666665" lon="-0.766795">
        <ele>1403.1999999999998</ele>
        <time>2013-11-09T15:42:36.94</time>
      </trkpt>
      <trkpt lat="38.45193" lon="-0.7666183333333334">
        <ele>1404.1999999999998</ele>
        <time>2013-11-09T15:42:37.93</time>
      </trkpt>
      <trkpt lat="38.45194" lon="-0.76643">
        <ele>1405.2999999999997</ele>
        <time>2013-11-09T15:42:38.85</time>
      </trkpt>
      <trkpt lat="38.45198166666667" lon="-0.7662416666666666">
        <ele>1406.6999999999998</ele>
        <time>2013-11-09T15:42:39.92</time>
      </trkpt>
      <trkpt lat="38.45202333333334" lon="-0.7660766666666666">
        <ele>1408.1999999999998</ele>
        <time>2013-11-09T15:42:40.86</time>
      </trkpt>
      <trkpt lat="38.45207333333333" lon="-0.765935">
        <ele>1410.1999999999998</ele>
        <time>2013-11-09T15:42:41.92</time>
      </trkpt>
      <trkpt lat="38.45211833333333" lon="-0.7658116666666667">
        <ele>1412.3999999999999</ele>
        <time>2013-11-09T15:42:42.85</time>
      </trkpt>
      <trkpt lat="38.45215833333334" lon="-0.7657283333333333">
        <ele>1414.4999999999998</ele>
        <time>2013-11-09T15:42:43.86</time>
      </trkpt>
      <trkpt lat="38.45220833333333" lon="-0.7656566666666667">
        <ele>1416.1999999999998</ele>
        <time>2013-11-09T15:42:44.81</time>
      </trkpt>
      <trkpt lat="38.45225666666666" lon="-0.76559">
        <ele>1417.3999999999999</ele>
        <time>2013-11-09T15:42:45.86</time>
      </trkpt>
      <trkpt lat="38.45231833333333" lon="-0.7655516666666667">
        <ele>1418.6999999999998</ele>
        <time>2013-11-09T15:42:46.85</time>
      </trkpt>
      <trkpt lat="38.452376666666666" lon="-0.7655283333333334">
        <ele>1419.9999999999998</ele>
        <time>2013-11-09T15:42:47.86</time>
      </trkpt>
      <trkpt lat="38.45243" lon="-0.7655333333333334">
        <ele>1420.0999999999997</ele>
        <time>2013-11-09T15:42:48.84</time>
      </trkpt>
      <trkpt lat="38.45246" lon="-0.7655783333333334">
        <ele>1420.1999999999996</ele>
        <time>2013-11-09T15:42:49.86</time>
      </trkpt>
      <trkpt lat="38.452461666666665" lon="-0.7656366666666667">
        <ele>1420.2999999999995</ele>
        <time>2013-11-09T15:42:50.86</time>
      </trkpt>
      <trkpt lat="38.452436666666664" lon="-0.7656966666666667">
        <ele>1422.1999999999996</ele>
        <time>2013-11-09T15:42:51.87</time>
      </trkpt>
      <trkpt lat="38.45238333333333" lon="-0.7657466666666667">
        <ele>1423.7999999999995</ele>
        <time>2013-11-09T15:42:52.86</time>
      </trkpt>
      <trkpt lat="38.452325" lon="-0.7657883333333333">
        <ele>1425.4999999999995</ele>
        <time>2013-11-09T15:42:53.90</time>
      </trkpt>
      <trkpt lat="38.452255" lon="-0.76583">
        <ele>1426.9999999999995</ele>
        <time>2013-11-09T15:42:54.86</time>
      </trkpt>
      <trkpt lat="38.45218166666667" lon="-0.765865">
        <ele>1428.1999999999996</ele>
        <time>2013-11-09T15:42:55.86</time>
      </trkpt>
      <trkpt lat="38.452088333333336" lon="-0.7658983333333332">
        <ele>1429.0999999999997</ele>
        <time>2013-11-09T15:42:56.86</time>
      </trkpt>
      <trkpt lat="38.45197" lon="-0.7659066666666666">
        <ele>1430.1999999999996</ele>
        <time>2013-11-09T15:42:57.82</time>
      </trkpt>
      <trkpt lat="38.451843333333336" lon="-0.7659050000000001">
        <ele>1431.0999999999997</ele>
        <time>2013-11-09T15:42:58.86</time>
      </trkpt>
      <trkpt lat="38.45171166666667" lon="-0.7658583333333334">
        <ele>1431.7999999999997</ele>
        <time>2013-11-09T15:42:59.86</time>
      </trkpt>
      <trkpt lat="38.45158" lon="-0.7658">
        <ele>1432.5999999999997</ele>
        <time>2013-11-09T15:43:00.85</time>
      </trkpt>
      <trkpt lat="38.451455" lon="-0.7657316666666667">
        <ele>1432.8999999999996</ele>
        <time>2013-11-09T15:43:01.83</time>
      </trkpt>
      <trkpt lat="38.45132" lon="-0.7656466666666667">
        <ele>1433.4999999999995</ele>
        <time>2013-11-09T15:43:02.86</time>
      </trkpt>
      <trkpt lat="38.45118166666666" lon="-0.7655533333333333">
        <ele>1434.2999999999995</ele>
        <time>2013-11-09T15:43:03.86</time>
      </trkpt>
      <trkpt lat="38.45104666666667" lon="-0.7654483333333334">
        <ele>1434.8999999999994</ele>
        <time>2013-11-09T15:43:04.85</time>
      </trkpt>
      <trkpt lat="38.450921666666666" lon="-0.7653333333333333">
        <ele>1435.2999999999995</ele>
        <time>2013-11-09T15:43:05.86</time>
      </trkpt>
      <trkpt lat="38.450806666666665" lon="-0.7652116666666667">
        <ele>1435.7999999999995</ele>
        <time>2013-11-09T15:43:06.88</time>
      </trkpt>
      <trkpt lat="38.450695" lon="-0.7650883333333333">
        <ele>1435.8999999999994</ele>
        <time>2013-11-09T15:43:07.86</time>
      </trkpt>
      <trkpt lat="38.45059333333333" lon="-0.764975">
        <ele>1435.7999999999995</ele>
        <time>2013-11-09T15:43:08.86</time>
      </trkpt>
      <trkpt lat="38.45048833333333" lon="-0.7648499999999999">
        <ele>1435.9999999999995</ele>
        <time>2013-11-09T15:43:09.85</time>
      </trkpt>
      <trkpt lat="38.450375" lon="-0.764705">
        <ele>1436.8999999999996</ele>
        <time>2013-11-09T15:43:10.86</time>
      </trkpt>
      <trkpt lat="38.450266666666664" lon="-0.7645516666666666">
        <ele>1437.6999999999996</ele>
        <time>2013-11-09T15:43:11.88</time>
      </trkpt>
      <trkpt lat="38.45017" lon="-0.7643983333333334">
        <ele>1438.3999999999996</ele>
        <time>2013-11-09T15:43:12.94</time>
      </trkpt>
      <trkpt lat="38.45007666666667" lon="-0.7642433333333333">
        <ele>1439.0999999999997</ele>
        <time>2013-11-09T15:43:13.86</time>
      </trkpt>
      <trkpt lat="38.44997166666667" lon="-0.7640816666666667">
        <ele>1439.6999999999996</ele>
        <time>2013-11-09T15:43:14.82</time>
      </trkpt>
      <trkpt lat="38.44988166666667" lon="-0.76392">
        <ele>1439.7999999999995</ele>
        <time>2013-11-09T15:43:15.93</time>
      </trkpt>
      <trkpt lat="38.449805" lon="-0.76376">
        <ele>1439.7999999999995</ele>
        <time>2013-11-09T15:43:16.85</time>
      </trkpt>
      <trkpt lat="38.44974666666667" lon="-0.7635816666666667">
        <ele>1440.0999999999995</ele>
        <time>2013-11-09T15:43:17.86</time>
      </trkpt>
      <trkpt lat="38.44969666666667" lon="-0.7634116666666666">
        <ele>1440.1999999999994</ele>
        <time>2013-11-09T15:43:18.85</time>
      </trkpt>
      <trkpt lat="38.44965666666667" lon="-0.7632416666666667">
        <ele>1440.1999999999994</ele>
        <time>2013-11-09T15:43:19.90</time>
      </trkpt>
      <trkpt lat="38.449645" lon="-0.7630616666666667">
        <ele>1440.2999999999993</ele>
        <time>2013-11-09T15:43:20.85</time>
      </trkpt>
      <trkpt lat="38.44963833333333" lon="-0.762865">
        <ele>1440.2999999999993</ele>
        <time>2013-11-09T15:43:21.87</time>
      </trkpt>
      <trkpt lat="38.449646666666666" lon="-0.762665">
        <ele>1440.0999999999992</ele>
        <time>2013-11-09T15:43:22.84</time>
      </trkpt>
      <trkpt lat="38.449693333333336" lon="-0.7624766666666667">
        <ele>1439.7999999999993</ele>
        <time>2013-11-09T15:43:23.84</time>
      </trkpt>
      <trkpt lat="38.449738333333336" lon="-0.762315">
        <ele>1439.9999999999993</ele>
        <time>2013-11-09T15:43:24.88</time>
      </trkpt>
      <trkpt lat="38.44978666666667" lon="-0.7621716666666667">
        <ele>1440.7999999999993</ele>
        <time>2013-11-09T15:43:25.84</time>
      </trkpt>
      <trkpt lat="38.44983333333333" lon="-0.762065">
        <ele>1441.8999999999992</ele>
        <time>2013-11-09T15:43:26.84</time>
      </trkpt>
      <trkpt lat="38.449891666666666" lon="-0.76198">
        <ele>1442.7999999999993</ele>
        <time>2013-11-09T15:43:27.79</time>
      </trkpt>
      <trkpt lat="38.44994333333333" lon="-0.76191">
        <ele>1443.5999999999992</ele>
        <time>2013-11-09T15:43:28.84</time>
      </trkpt>
      <trkpt lat="38.450005" lon="-0.7618566666666666">
        <ele>1444.2999999999993</ele>
        <time>2013-11-09T15:43:29.84</time>
      </trkpt>
      <trkpt lat="38.45005833333333" lon="-0.7618166666666667">
        <ele>1445.0999999999992</ele>
        <time>2013-11-09T15:43:30.85</time>
      </trkpt>
      <trkpt lat="38.450095" lon="-0.7617983333333334">
        <ele>1446.0999999999992</ele>
        <time>2013-11-09T15:43:31.84</time>
      </trkpt>
      <trkpt lat="38.450131666666664" lon="-0.7618233333333334">
        <ele>1446.1999999999991</ele>
        <time>2013-11-09T15:43:32.82</time>
      </trkpt>
      <trkpt lat="38.45015166666666" lon="-0.76187">
        <ele>1446.299999999999</ele>
        <time>2013-11-09T15:43:33.84</time>
      </trkpt>
      <trkpt lat="38.450155" lon="-0.7619216666666666">
        <ele>1446.399999999999</ele>
        <time>2013-11-09T15:43:34.81</time>
      </trkpt>
      <trkpt lat="38.45014666666667" lon="-0.76198">
        <ele>1447.4999999999989</ele>
        <time>2013-11-09T15:43:35.84</time>
      </trkpt>
      <trkpt lat="38.450118333333336" lon="-0.7620466666666666">
        <ele>1448.2999999999988</ele>
        <time>2013-11-09T15:43:36.84</time>
      </trkpt>
      <trkpt lat="38.45005666666667" lon="-0.7621166666666667">
        <ele>1448.9999999999989</ele>
        <time>2013-11-09T15:43:37.84</time>
      </trkpt>
      <trkpt lat="38.449975" lon="-0.7621716666666667">
        <ele>1449.399999999999</ele>
        <time>2013-11-09T15:43:38.79</time>
      </trkpt>
      <trkpt lat="38.44988333333333" lon="-0.7622233333333334">
        <ele>1449.899999999999</ele>
        <time>2013-11-09T15:43:39.81</time>
      </trkpt>
      <trkpt lat="38.44977333333333" lon="-0.762275">
        <ele>1450.399999999999</ele>
        <time>2013-11-09T15:43:41.19</time>
      </trkpt>
      <trkpt lat="38.449661666666664" lon="-0.7623166666666666">
        <ele>1450.899999999999</ele>
        <time>2013-11-09T15:43:41.86</time>
      </trkpt>
      <trkpt lat="38.44953833333334" lon="-0.7623533333333333">
        <ele>1451.599999999999</ele>
        <time>2013-11-09T15:43:42.87</time>
      </trkpt>
      <trkpt lat="38.449405" lon="-0.7623800000000001">
        <ele>1452.199999999999</ele>
        <time>2013-11-09T15:43:43.84</time>
      </trkpt>
      <trkpt lat="38.44925333333333" lon="-0.7623333333333334">
        <ele>1452.399999999999</ele>
        <time>2013-11-09T15:43:44.87</time>
      </trkpt>
      <trkpt lat="38.44909833333333" lon="-0.7622416666666666">
        <ele>1452.399999999999</ele>
        <time>2013-11-09T15:43:45.87</time>
      </trkpt>
      <trkpt lat="38.448955" lon="-0.76214">
        <ele>1452.299999999999</ele>
        <time>2013-11-09T15:43:46.98</time>
      </trkpt>
      <trkpt lat="38.44882" lon="-0.7620266666666667">
        <ele>1452.399999999999</ele>
        <time>2013-11-09T15:43:47.86</time>
      </trkpt>
      <trkpt lat="38.44869833333333" lon="-0.7619033333333333">
        <ele>1452.4999999999989</ele>
        <time>2013-11-09T15:43:48.92</time>
      </trkpt>
      <trkpt lat="38.44859833333334" lon="-0.761745">
        <ele>1452.2999999999988</ele>
        <time>2013-11-09T15:43:49.88</time>
      </trkpt>
      <trkpt lat="38.448496666666664" lon="-0.7615783333333332">
        <ele>1452.0999999999988</ele>
        <time>2013-11-09T15:43:50.86</time>
      </trkpt>
      <trkpt lat="38.44840666666666" lon="-0.7614066666666666">
        <ele>1451.5999999999988</ele>
        <time>2013-11-09T15:43:51.86</time>
      </trkpt>
      <trkpt lat="38.448328333333336" lon="-0.76123">
        <ele>1451.1999999999987</ele>
        <time>2013-11-09T15:43:52.86</time>
      </trkpt>
      <trkpt lat="38.44826166666667" lon="-0.7610566666666667">
        <ele>1450.7999999999986</ele>
        <time>2013-11-09T15:43:53.86</time>
      </trkpt>
      <trkpt lat="38.44822166666667" lon="-0.7608733333333333">
        <ele>1449.3999999999985</ele>
        <time>2013-11-09T15:43:54.82</time>
      </trkpt>
      <trkpt lat="38.44820333333333" lon="-0.760695">
        <ele>1448.4999999999984</ele>
        <time>2013-11-09T15:43:55.86</time>
      </trkpt>
      <trkpt lat="38.448186666666665" lon="-0.7605116666666666">
        <ele>1447.6999999999985</ele>
        <time>2013-11-09T15:43:56.81</time>
      </trkpt>
      <trkpt lat="38.44818" lon="-0.7602949999999999">
        <ele>1445.7999999999984</ele>
        <time>2013-11-09T15:43:57.86</time>
      </trkpt>
      <trkpt lat="38.44817" lon="-0.7600733333333333">
        <ele>1443.8999999999983</ele>
        <time>2013-11-09T15:43:58.86</time>
      </trkpt>
      <trkpt lat="38.44818166666666" lon="-0.7598883333333333">
        <ele>1442.4999999999982</ele>
        <time>2013-11-09T15:43:59.83</time>
      </trkpt>
      <trkpt lat="38.44820333333333" lon="-0.7597116666666667">
        <ele>1441.599999999998</ele>
        <time>2013-11-09T15:44:00.87</time>
      </trkpt>
      <trkpt lat="38.448231666666665" lon="-0.759535">
        <ele>1441.099999999998</ele>
        <time>2013-11-09T15:44:02.89</time>
      </trkpt>
      <trkpt lat="38.44826333333334" lon="-0.7593733333333332">
        <ele>1440.9999999999982</ele>
        <time>2013-11-09T15:44:02.85</time>
      </trkpt>
      <trkpt lat="38.448285" lon="-0.7592166666666667">
        <ele>1440.6999999999982</ele>
        <time>2013-11-09T15:44:03.85</time>
      </trkpt>
      <trkpt lat="38.44830833333333" lon="-0.7590733333333334">
        <ele>1440.1999999999982</ele>
        <time>2013-11-09T15:44:04.92</time>
      </trkpt>
      <trkpt lat="38.44833" lon="-0.7589316666666667">
        <ele>1439.5999999999983</ele>
        <time>2013-11-09T15:44:05.81</time>
      </trkpt>
      <trkpt lat="38.44835666666667" lon="-0.75878">
        <ele>1438.7999999999984</ele>
        <time>2013-11-09T15:44:06.86</time>
      </trkpt>
      <trkpt lat="38.44839" lon="-0.75863">
        <ele>1438.2999999999984</ele>
        <time>2013-11-09T15:44:07.80</time>
      </trkpt>
      <trkpt lat="38.44842166666667" lon="-0.7584833333333333">
        <ele>1437.8999999999983</ele>
        <time>2013-11-09T15:44:08.85</time>
      </trkpt>
      <trkpt lat="38.44844833333333" lon="-0.758345">
        <ele>1437.5999999999983</ele>
        <time>2013-11-09T15:44:09.85</time>
      </trkpt>
      <trkpt lat="38.44847" lon="-0.7582066666666667">
        <ele>1437.3999999999983</ele>
        <time>2013-11-09T15:44:10.86</time>
      </trkpt>
      <trkpt lat="38.44848666666667" lon="-0.7580816666666668">
        <ele>1436.7999999999984</ele>
        <time>2013-11-09T15:44:11.83</time>
      </trkpt>
      <trkpt lat="38.448503333333335" lon="-0.7579516666666667">
        <ele>1435.6999999999985</ele>
        <time>2013-11-09T15:44:12.85</time>
      </trkpt>
      <trkpt lat="38.448528333333336" lon="-0.7578033333333334">
        <ele>1434.4999999999984</ele>
        <time>2013-11-09T15:44:13.85</time>
      </trkpt>
      <trkpt lat="38.44855666666667" lon="-0.7576583333333333">
        <ele>1433.2999999999984</ele>
        <time>2013-11-09T15:44:14.86</time>
      </trkpt>
      <trkpt lat="38.448585" lon="-0.7575066666666667">
        <ele>1432.1999999999985</ele>
        <time>2013-11-09T15:44:15.86</time>
      </trkpt>
      <trkpt lat="38.44860833333333" lon="-0.7573516666666666">
        <ele>1431.1999999999985</ele>
        <time>2013-11-09T15:44:16.94</time>
      </trkpt>
      <trkpt lat="38.44859833333334" lon="-0.7571766666666666">
        <ele>1430.3999999999985</ele>
        <time>2013-11-09T15:44:17.85</time>
      </trkpt>
      <trkpt lat="38.44858333333333" lon="-0.757">
        <ele>1429.6999999999985</ele>
        <time>2013-11-09T15:44:18.85</time>
      </trkpt>
      <trkpt lat="38.448565" lon="-0.7568266666666666">
        <ele>1428.6999999999985</ele>
        <time>2013-11-09T15:44:19.86</time>
      </trkpt>
      <trkpt lat="38.448546666666665" lon="-0.756655">
        <ele>1427.5999999999985</ele>
        <time>2013-11-09T15:44:20.86</time>
      </trkpt>
      <trkpt lat="38.44853" lon="-0.7564833333333334">
        <ele>1426.2999999999986</ele>
        <time>2013-11-09T15:44:21.89</time>
      </trkpt>
      <trkpt lat="38.44851" lon="-0.7563033333333333">
        <ele>1424.9999999999986</ele>
        <time>2013-11-09T15:44:22.86</time>
      </trkpt>
      <trkpt lat="38.448483333333336" lon="-0.7561133333333333">
        <ele>1423.4999999999986</ele>
        <time>2013-11-09T15:44:23.85</time>
      </trkpt>
      <trkpt lat="38.448455" lon="-0.7559183333333334">
        <ele>1421.9999999999986</ele>
        <time>2013-11-09T15:44:24.86</time>
      </trkpt>
      <trkpt lat="38.44842166666667" lon="-0.7557283333333333">
        <ele>1420.6999999999987</ele>
        <time>2013-11-09T15:44:25.85</time>
      </trkpt>
      <trkpt lat="38.44838333333333" lon="-0.7555466666666667">
        <ele>1419.5999999999988</ele>
        <time>2013-11-09T15:44:26.81</time>
      </trkpt>
      <trkpt lat="38.44833166666667" lon="-0.7553783333333333">
        <ele>1418.4999999999989</ele>
        <time>2013-11-09T15:44:27.86</time>
      </trkpt>
      <trkpt lat="38.448278333333334" lon="-0.7552183333333333">
        <ele>1416.9999999999989</ele>
        <time>2013-11-09T15:44:28.85</time>
      </trkpt>
      <trkpt lat="38.448225" lon="-0.7550533333333332">
        <ele>1415.0999999999988</ele>
        <time>2013-11-09T15:44:29.85</time>
      </trkpt>
      <trkpt lat="38.44817166666667" lon="-0.7548833333333334">
        <ele>1412.9999999999989</ele>
        <time>2013-11-09T15:44:30.86</time>
      </trkpt>
      <trkpt lat="38.448116666666664" lon="-0.7547083333333333">
        <ele>1410.9999999999989</ele>
        <time>2013-11-09T15:44:31.86</time>
      </trkpt>
      <trkpt lat="38.44806" lon="-0.7545316666666667">
        <ele>1409.0999999999988</ele>
        <time>2013-11-09T15:44:32.87</time>
      </trkpt>
      <trkpt lat="38.44800333333333" lon="-0.7543566666666667">
        <ele>1407.0999999999988</ele>
        <time>2013-11-09T15:44:33.85</time>
      </trkpt>
      <trkpt lat="38.447945" lon="-0.7541816666666666">
        <ele>1405.0999999999988</ele>
        <time>2013-11-09T15:44:34.85</time>
      </trkpt>
      <trkpt lat="38.44788833333333" lon="-0.7540016666666667">
        <ele>1402.8999999999987</ele>
        <time>2013-11-09T15:44:35.80</time>
      </trkpt>
      <trkpt lat="38.447831666666666" lon="-0.7538250000000001">
        <ele>1400.8999999999987</ele>
        <time>2013-11-09T15:44:36.85</time>
      </trkpt>
      <trkpt lat="38.44777333333333" lon="-0.753645">
        <ele>1398.8999999999987</ele>
        <time>2013-11-09T15:44:37.85</time>
      </trkpt>
      <trkpt lat="38.447718333333334" lon="-0.7534683333333334">
        <ele>1396.6999999999987</ele>
        <time>2013-11-09T15:44:38.82</time>
      </trkpt>
      <trkpt lat="38.44766166666667" lon="-0.75329">
        <ele>1394.3999999999987</ele>
        <time>2013-11-09T15:44:39.88</time>
      </trkpt>
      <trkpt lat="38.44759333333333" lon="-0.7531083333333334">
        <ele>1391.8999999999987</ele>
        <time>2013-11-09T15:44:40.85</time>
      </trkpt>
      <trkpt lat="38.44752" lon="-0.7529316666666667">
        <ele>1389.3999999999987</ele>
        <time>2013-11-09T15:44:41.90</time>
      </trkpt>
      <trkpt lat="38.44746833333333" lon="-0.7527416666666666">
        <ele>1386.7999999999988</ele>
        <time>2013-11-09T15:44:42.86</time>
      </trkpt>
      <trkpt lat="38.44742333333333" lon="-0.752565">
        <ele>1384.2999999999988</ele>
        <time>2013-11-09T15:44:43.82</time>
      </trkpt>
      <trkpt lat="38.447383333333335" lon="-0.7523933333333334">
        <ele>1381.699999999999</ele>
        <time>2013-11-09T15:44:44.85</time>
      </trkpt>
      <trkpt lat="38.44734166666667" lon="-0.7522233333333334">
        <ele>1379.2999999999988</ele>
        <time>2013-11-09T15:44:45.85</time>
      </trkpt>
      <trkpt lat="38.447293333333334" lon="-0.7520566666666666">
        <ele>1376.7999999999988</ele>
        <time>2013-11-09T15:44:46.85</time>
      </trkpt>
      <trkpt lat="38.44724333333333" lon="-0.7518883333333334">
        <ele>1374.3999999999987</ele>
        <time>2013-11-09T15:44:47.85</time>
      </trkpt>
      <trkpt lat="38.44719166666667" lon="-0.7517133333333333">
        <ele>1372.0999999999988</ele>
        <time>2013-11-09T15:44:48.88</time>
      </trkpt>
      <trkpt lat="38.44714166666667" lon="-0.75154">
        <ele>1369.8999999999987</ele>
        <time>2013-11-09T15:44:49.86</time>
      </trkpt>
      <trkpt lat="38.447095" lon="-0.751375">
        <ele>1367.5999999999988</ele>
        <time>2013-11-09T15:44:50.85</time>
      </trkpt>
      <trkpt lat="38.447045" lon="-0.7511966666666667">
        <ele>1365.1999999999987</ele>
        <time>2013-11-09T15:44:51.79</time>
      </trkpt>
      <trkpt lat="38.446996666666664" lon="-0.75103">
        <ele>1362.7999999999986</ele>
        <time>2013-11-09T15:44:52.86</time>
      </trkpt>
      <trkpt lat="38.44694666666667" lon="-0.7508583333333333">
        <ele>1360.3999999999985</ele>
        <time>2013-11-09T15:44:53.86</time>
      </trkpt>
      <trkpt lat="38.44690166666667" lon="-0.750675">
        <ele>1357.9999999999984</ele>
        <time>2013-11-09T15:44:54.86</time>
      </trkpt>
      <trkpt lat="38.44685833333333" lon="-0.7504966666666667">
        <ele>1355.7999999999984</ele>
        <time>2013-11-09T15:44:55.85</time>
      </trkpt>
      <trkpt lat="38.44682" lon="-0.7503233333333333">
        <ele>1353.5999999999983</ele>
        <time>2013-11-09T15:44:56.98</time>
      </trkpt>
      <trkpt lat="38.446783333333336" lon="-0.7501616666666667">
        <ele>1351.3999999999983</ele>
        <time>2013-11-09T15:44:57.86</time>
      </trkpt>
      <trkpt lat="38.446751666666664" lon="-0.750005">
        <ele>1349.0999999999983</ele>
        <time>2013-11-09T15:44:58.86</time>
      </trkpt>
      <trkpt lat="38.44672" lon="-0.7498516666666667">
        <ele>1346.4999999999984</ele>
        <time>2013-11-09T15:44:59.85</time>
      </trkpt>
      <trkpt lat="38.44669" lon="-0.7496916666666666">
        <ele>1343.8999999999985</ele>
        <time>2013-11-09T15:45:00.85</time>
      </trkpt>
      <trkpt lat="38.446661666666664" lon="-0.749525">
        <ele>1341.2999999999986</ele>
        <time>2013-11-09T15:45:01.86</time>
      </trkpt>
      <trkpt lat="38.44663" lon="-0.749345">
        <ele>1338.8999999999985</ele>
        <time>2013-11-09T15:45:02.86</time>
      </trkpt>
      <trkpt lat="38.446596666666665" lon="-0.7491683333333333">
        <ele>1336.6999999999985</ele>
        <time>2013-11-09T15:45:03.86</time>
      </trkpt>
      <trkpt lat="38.44656" lon="-0.749">
        <ele>1334.4999999999984</ele>
        <time>2013-11-09T15:45:04.88</time>
      </trkpt>
      <trkpt lat="38.446526666666664" lon="-0.7488333333333334">
        <ele>1332.3999999999985</ele>
        <time>2013-11-09T15:45:05.86</time>
      </trkpt>
      <trkpt lat="38.44650166666667" lon="-0.7486666666666667">
        <ele>1330.0999999999985</ele>
        <time>2013-11-09T15:45:06.87</time>
      </trkpt>
      <trkpt lat="38.44648" lon="-0.7485016666666666">
        <ele>1327.7999999999986</ele>
        <time>2013-11-09T15:45:07.86</time>
      </trkpt>
      <trkpt lat="38.44645833333333" lon="-0.7483216666666667">
        <ele>1325.5999999999985</ele>
        <time>2013-11-09T15:45:08.85</time>
      </trkpt>
      <trkpt lat="38.44642833333333" lon="-0.7481433333333333">
        <ele>1323.6999999999985</ele>
        <time>2013-11-09T15:45:09.86</time>
      </trkpt>
      <trkpt lat="38.44639333333333" lon="-0.74797">
        <ele>1321.9999999999984</ele>
        <time>2013-11-09T15:45:10.94</time>
      </trkpt>
      <trkpt lat="38.446355" lon="-0.7478049999999999">
        <ele>1320.3999999999985</ele>
        <time>2013-11-09T15:45:11.81</time>
      </trkpt>
      <trkpt lat="38.446313333333336" lon="-0.7476400000000001">
        <ele>1318.6999999999985</ele>
        <time>2013-11-09T15:45:12.87</time>
      </trkpt>
      <trkpt lat="38.44627333333333" lon="-0.74747">
        <ele>1316.8999999999985</ele>
        <time>2013-11-09T15:45:13.85</time>
      </trkpt>
      <trkpt lat="38.44622833333333" lon="-0.7472983333333333">
        <ele>1314.9999999999984</ele>
        <time>2013-11-09T15:45:14.85</time>
      </trkpt>
      <trkpt lat="38.44618" lon="-0.747125">
        <ele>1312.9999999999984</ele>
        <time>2013-11-09T15:45:15.86</time>
      </trkpt>
      <trkpt lat="38.446131666666666" lon="-0.7469616666666667">
        <ele>1311.0999999999983</ele>
        <time>2013-11-09T15:45:16.84</time>
      </trkpt>
      <trkpt lat="38.446075" lon="-0.7468033333333334">
        <ele>1309.0999999999983</ele>
        <time>2013-11-09T15:45:17.86</time>
      </trkpt>
      <trkpt lat="38.446016666666665" lon="-0.7466483333333334">
        <ele>1307.1999999999982</ele>
        <time>2013-11-09T15:45:18.80</time>
      </trkpt>
      <trkpt lat="38.44595" lon="-0.7464966666666667">
        <ele>1305.6999999999982</ele>
        <time>2013-11-09T15:45:19.79</time>
      </trkpt>
      <trkpt lat="38.44587833333333" lon="-0.7463383333333333">
        <ele>1304.4999999999982</ele>
        <time>2013-11-09T15:45:20.86</time>
      </trkpt>
      <trkpt lat="38.44580333333333" lon="-0.7461800000000001">
        <ele>1303.3999999999983</ele>
        <time>2013-11-09T15:45:21.82</time>
      </trkpt>
      <trkpt lat="38.445725" lon="-0.7460133333333334">
        <ele>1302.3999999999983</ele>
        <time>2013-11-09T15:45:22.86</time>
      </trkpt>
      <trkpt lat="38.44564333333334" lon="-0.7458433333333333">
        <ele>1301.3999999999983</ele>
        <time>2013-11-09T15:45:23.82</time>
      </trkpt>
      <trkpt lat="38.44556333333333" lon="-0.74567">
        <ele>1300.1999999999982</ele>
        <time>2013-11-09T15:45:24.98</time>
      </trkpt>
      <trkpt lat="38.445483333333335" lon="-0.7455033333333334">
        <ele>1298.7999999999981</ele>
        <time>2013-11-09T15:45:25.87</time>
      </trkpt>
      <trkpt lat="38.44539666666667" lon="-0.7453366666666666">
        <ele>1297.399999999998</ele>
        <time>2013-11-09T15:45:26.86</time>
      </trkpt>
      <trkpt lat="38.44530666666667" lon="-0.745165">
        <ele>1295.499999999998</ele>
        <time>2013-11-09T15:45:27.86</time>
      </trkpt>
      <trkpt lat="38.445213333333335" lon="-0.7449916666666667">
        <ele>1293.199999999998</ele>
        <time>2013-11-09T15:45:28.86</time>
      </trkpt>
      <trkpt lat="38.445116666666664" lon="-0.7448250000000001">
        <ele>1290.699999999998</ele>
        <time>2013-11-09T15:45:29.89</time>
      </trkpt>
      <trkpt lat="38.44502166666667" lon="-0.744665">
        <ele>1288.099999999998</ele>
        <time>2013-11-09T15:45:30.86</time>
      </trkpt>
      <trkpt lat="38.44492" lon="-0.7445133333333334">
        <ele>1285.9999999999982</ele>
        <time>2013-11-09T15:45:31.86</time>
      </trkpt>
      <trkpt lat="38.444813333333336" lon="-0.7443633333333334">
        <ele>1284.099999999998</ele>
        <time>2013-11-09T15:45:32.82</time>
      </trkpt>
      <trkpt lat="38.44470166666667" lon="-0.7442116666666667">
        <ele>1282.399999999998</ele>
        <time>2013-11-09T15:45:33.86</time>
      </trkpt>
      <trkpt lat="38.444583333333334" lon="-0.7440666666666667">
        <ele>1280.599999999998</ele>
        <time>2013-11-09T15:45:34.85</time>
      </trkpt>
      <trkpt lat="38.44446166666667" lon="-0.7439116666666667">
        <ele>1278.7999999999981</ele>
        <time>2013-11-09T15:45:35.86</time>
      </trkpt>
      <trkpt lat="38.44434" lon="-0.74376">
        <ele>1276.6999999999982</ele>
        <time>2013-11-09T15:45:36.86</time>
      </trkpt>
      <trkpt lat="38.44421666666667" lon="-0.7436216666666666">
        <ele>1274.6999999999982</ele>
        <time>2013-11-09T15:45:37.86</time>
      </trkpt>
      <trkpt lat="38.444093333333335" lon="-0.7434716666666666">
        <ele>1272.5999999999983</ele>
        <time>2013-11-09T15:45:38.85</time>
      </trkpt>
      <trkpt lat="38.443965" lon="-0.7433333333333334">
        <ele>1270.4999999999984</ele>
        <time>2013-11-09T15:45:39.86</time>
      </trkpt>
      <trkpt lat="38.443843333333334" lon="-0.7432">
        <ele>1268.3999999999985</ele>
        <time>2013-11-09T15:45:40.86</time>
      </trkpt>
      <trkpt lat="38.44372833333333" lon="-0.7430583333333334">
        <ele>1266.1999999999985</ele>
        <time>2013-11-09T15:45:41.86</time>
      </trkpt>
      <trkpt lat="38.44361333333333" lon="-0.7429216666666666">
        <ele>1263.8999999999985</ele>
        <time>2013-11-09T15:45:42.86</time>
      </trkpt>
      <trkpt lat="38.443493333333336" lon="-0.7427766666666666">
        <ele>1261.5999999999985</ele>
        <time>2013-11-09T15:45:43.80</time>
      </trkpt>
      <trkpt lat="38.44337" lon="-0.7426283333333333">
        <ele>1259.1999999999985</ele>
        <time>2013-11-09T15:45:44.86</time>
      </trkpt>
      <trkpt lat="38.44324833333334" lon="-0.7424883333333334">
        <ele>1256.8999999999985</ele>
        <time>2013-11-09T15:45:46.19</time>
      </trkpt>
      <trkpt lat="38.44312333333333" lon="-0.7423566666666667">
        <ele>1254.5999999999985</ele>
        <time>2013-11-09T15:45:46.85</time>
      </trkpt>
      <trkpt lat="38.443" lon="-0.7422216666666667">
        <ele>1252.1999999999985</ele>
        <time>2013-11-09T15:45:47.98</time>
      </trkpt>
      <trkpt lat="38.44287333333333" lon="-0.7420833333333333">
        <ele>1249.4999999999984</ele>
        <time>2013-11-09T15:45:48.86</time>
      </trkpt>
      <trkpt lat="38.44273833333333" lon="-0.7419633333333333">
        <ele>1246.7999999999984</ele>
        <time>2013-11-09T15:45:49.86</time>
      </trkpt>
      <trkpt lat="38.442605" lon="-0.7418516666666667">
        <ele>1243.8999999999983</ele>
        <time>2013-11-09T15:45:50.86</time>
      </trkpt>
      <trkpt lat="38.44247166666667" lon="-0.741735">
        <ele>1240.9999999999982</ele>
        <time>2013-11-09T15:45:51.87</time>
      </trkpt>
      <trkpt lat="38.442335" lon="-0.74162">
        <ele>1238.1999999999982</ele>
        <time>2013-11-09T15:45:52.85</time>
      </trkpt>
      <trkpt lat="38.44220166666667" lon="-0.741505">
        <ele>1235.6999999999982</ele>
        <time>2013-11-09T15:45:53.86</time>
      </trkpt>
      <trkpt lat="38.44206333333333" lon="-0.7413783333333334">
        <ele>1233.1999999999982</ele>
        <time>2013-11-09T15:45:54.86</time>
      </trkpt>
      <trkpt lat="38.441923333333335" lon="-0.7412433333333334">
        <ele>1230.8999999999983</ele>
        <time>2013-11-09T15:45:55.85</time>
      </trkpt>
      <trkpt lat="38.44179166666667" lon="-0.7411316666666666">
        <ele>1228.2999999999984</ele>
        <time>2013-11-09T15:45:56.86</time>
      </trkpt>
      <trkpt lat="38.441665" lon="-0.7410150000000001">
        <ele>1225.6999999999985</ele>
        <time>2013-11-09T15:45:57.86</time>
      </trkpt>
      <trkpt lat="38.441536666666664" lon="-0.7408750000000001">
        <ele>1223.2999999999984</ele>
        <time>2013-11-09T15:45:58.86</time>
      </trkpt>
      <trkpt lat="38.441415" lon="-0.7407466666666667">
        <ele>1220.8999999999983</ele>
        <time>2013-11-09T15:45:59.86</time>
      </trkpt>
      <trkpt lat="38.441295" lon="-0.7406066666666666">
        <ele>1218.1999999999982</ele>
        <time>2013-11-09T15:46:00.86</time>
      </trkpt>
      <trkpt lat="38.44116833333333" lon="-0.74047">
        <ele>1215.7999999999981</ele>
        <time>2013-11-09T15:46:01.87</time>
      </trkpt>
      <trkpt lat="38.441035" lon="-0.7403283333333334">
        <ele>1213.599999999998</ele>
        <time>2013-11-09T15:46:02.86</time>
      </trkpt>
      <trkpt lat="38.44090666666666" lon="-0.7401933333333334">
        <ele>1211.4999999999982</ele>
        <time>2013-11-09T15:46:03.86</time>
      </trkpt>
      <trkpt lat="38.440783333333336" lon="-0.7400633333333333">
        <ele>1209.2999999999981</ele>
        <time>2013-11-09T15:46:04.86</time>
      </trkpt>
      <trkpt lat="38.44066333333333" lon="-0.7399349999999999">
        <ele>1206.9999999999982</ele>
        <time>2013-11-09T15:46:05.86</time>
      </trkpt>
      <trkpt lat="38.44054333333333" lon="-0.7398083333333333">
        <ele>1204.4999999999982</ele>
        <time>2013-11-09T15:46:06.86</time>
      </trkpt>
      <trkpt lat="38.440418333333334" lon="-0.7396766666666666">
        <ele>1201.7999999999981</ele>
        <time>2013-11-09T15:46:07.86</time>
      </trkpt>
      <trkpt lat="38.44029166666667" lon="-0.7395416666666667">
        <ele>1199.1999999999982</ele>
        <time>2013-11-09T15:46:08.86</time>
      </trkpt>
      <trkpt lat="38.44015666666667" lon="-0.7394">
        <ele>1196.8999999999983</ele>
        <time>2013-11-09T15:46:09.81</time>
      </trkpt>
      <trkpt lat="38.44002" lon="-0.739255">
        <ele>1194.8999999999983</ele>
        <time>2013-11-09T15:46:10.86</time>
      </trkpt>
      <trkpt lat="38.439883333333334" lon="-0.7391233333333334">
        <ele>1193.2999999999984</ele>
        <time>2013-11-09T15:46:11.86</time>
      </trkpt>
      <trkpt lat="38.43975" lon="-0.7389933333333333">
        <ele>1191.5999999999983</ele>
        <time>2013-11-09T15:46:12.87</time>
      </trkpt>
      <trkpt lat="38.439615" lon="-0.73887">
        <ele>1189.5999999999983</ele>
        <time>2013-11-09T15:46:13.86</time>
      </trkpt>
      <trkpt lat="38.439475" lon="-0.738745">
        <ele>1187.3999999999983</ele>
        <time>2013-11-09T15:46:14.85</time>
      </trkpt>
      <trkpt lat="38.43933333333333" lon="-0.7386216666666667">
        <ele>1185.0999999999983</ele>
        <time>2013-11-09T15:46:15.85</time>
      </trkpt>
      <trkpt lat="38.439188333333334" lon="-0.7385">
        <ele>1182.6999999999982</ele>
        <time>2013-11-09T15:46:16.86</time>
      </trkpt>
      <trkpt lat="38.43904833333333" lon="-0.7383733333333333">
        <ele>1180.4999999999982</ele>
        <time>2013-11-09T15:46:17.87</time>
      </trkpt>
      <trkpt lat="38.43891166666667" lon="-0.7382416666666667">
        <ele>1178.3999999999983</ele>
        <time>2013-11-09T15:46:18.85</time>
      </trkpt>
      <trkpt lat="38.438775" lon="-0.7381066666666667">
        <ele>1176.2999999999984</ele>
        <time>2013-11-09T15:46:19.85</time>
      </trkpt>
      <trkpt lat="38.438645" lon="-0.737975">
        <ele>1174.1999999999985</ele>
        <time>2013-11-09T15:46:20.84</time>
      </trkpt>
      <trkpt lat="38.43851333333333" lon="-0.737845">
        <ele>1172.0999999999985</ele>
        <time>2013-11-09T15:46:21.85</time>
      </trkpt>
      <trkpt lat="38.43838" lon="-0.737715">
        <ele>1169.6999999999985</ele>
        <time>2013-11-09T15:46:22.85</time>
      </trkpt>
      <trkpt lat="38.43824333333333" lon="-0.7375833333333334">
        <ele>1167.1999999999985</ele>
        <time>2013-11-09T15:46:23.85</time>
      </trkpt>
      <trkpt lat="38.4381" lon="-0.7374433333333333">
        <ele>1164.7999999999984</ele>
        <time>2013-11-09T15:46:24.85</time>
      </trkpt>
      <trkpt lat="38.437958333333334" lon="-0.737305">
        <ele>1162.3999999999983</ele>
        <time>2013-11-09T15:46:25.84</time>
      </trkpt>
      <trkpt lat="38.437823333333334" lon="-0.7371700000000001">
        <ele>1159.8999999999983</ele>
        <time>2013-11-09T15:46:26.84</time>
      </trkpt>
      <trkpt lat="38.43768" lon="-0.7370366666666667">
        <ele>1157.3999999999983</ele>
        <time>2013-11-09T15:46:27.85</time>
      </trkpt>
      <trkpt lat="38.43753" lon="-0.7369166666666668">
        <ele>1154.7999999999984</ele>
        <time>2013-11-09T15:46:28.84</time>
      </trkpt>
      <trkpt lat="38.437378333333335" lon="-0.7367950000000001">
        <ele>1152.1999999999985</ele>
        <time>2013-11-09T15:46:29.84</time>
      </trkpt>
      <trkpt lat="38.43721166666667" lon="-0.7366866666666667">
        <ele>1149.8999999999985</ele>
        <time>2013-11-09T15:46:30.84</time>
      </trkpt>
      <trkpt lat="38.43705333333333" lon="-0.7365866666666666">
        <ele>1147.4999999999984</ele>
        <time>2013-11-09T15:46:31.84</time>
      </trkpt>
      <trkpt lat="38.43691" lon="-0.73649">
        <ele>1144.7999999999984</ele>
        <time>2013-11-09T15:46:32.85</time>
      </trkpt>
      <trkpt lat="38.436753333333336" lon="-0.7364016666666667">
        <ele>1142.1999999999985</ele>
        <time>2013-11-09T15:46:33.85</time>
      </trkpt>
      <trkpt lat="38.436598333333336" lon="-0.7363066666666668">
        <ele>1139.3999999999985</ele>
        <time>2013-11-09T15:46:34.84</time>
      </trkpt>
      <trkpt lat="38.436445" lon="-0.7362">
        <ele>1136.5999999999985</ele>
        <time>2013-11-09T15:46:35.84</time>
      </trkpt>
      <trkpt lat="38.43629333333333" lon="-0.7361066666666667">
        <ele>1133.9999999999986</ele>
        <time>2013-11-09T15:46:36.85</time>
      </trkpt>
      <trkpt lat="38.436146666666666" lon="-0.7360133333333334">
        <ele>1131.4999999999986</ele>
        <time>2013-11-09T15:46:37.85</time>
      </trkpt>
      <trkpt lat="38.43600166666667" lon="-0.7359183333333333">
        <ele>1128.9999999999986</ele>
        <time>2013-11-09T15:46:38.86</time>
      </trkpt>
      <trkpt lat="38.435853333333334" lon="-0.7358250000000001">
        <ele>1126.3999999999987</ele>
        <time>2013-11-09T15:46:39.85</time>
      </trkpt>
      <trkpt lat="38.435698333333335" lon="-0.7357316666666667">
        <ele>1123.6999999999987</ele>
        <time>2013-11-09T15:46:40.85</time>
      </trkpt>
      <trkpt lat="38.435541666666666" lon="-0.7356383333333334">
        <ele>1120.8999999999987</ele>
        <time>2013-11-09T15:46:41.85</time>
      </trkpt>
      <trkpt lat="38.435385" lon="-0.7355433333333333">
        <ele>1118.1999999999987</ele>
        <time>2013-11-09T15:46:42.85</time>
      </trkpt>
      <trkpt lat="38.43523166666667" lon="-0.735455">
        <ele>1115.4999999999986</ele>
        <time>2013-11-09T15:46:43.86</time>
      </trkpt>
      <trkpt lat="38.43507666666667" lon="-0.7353649999999999">
        <ele>1112.9999999999986</ele>
        <time>2013-11-09T15:46:44.84</time>
      </trkpt>
      <trkpt lat="38.43491" lon="-0.7352733333333333">
        <ele>1110.2999999999986</ele>
        <time>2013-11-09T15:46:45.85</time>
      </trkpt>
      <trkpt lat="38.434755" lon="-0.7352416666666667">
        <ele>1108.0999999999985</ele>
        <time>2013-11-09T15:46:46.85</time>
      </trkpt>
      <trkpt lat="38.434596666666664" lon="-0.7352033333333333">
        <ele>1105.6999999999985</ele>
        <time>2013-11-09T15:46:47.85</time>
      </trkpt>
      <trkpt lat="38.434455" lon="-0.7351783333333334">
        <ele>1103.2999999999984</ele>
        <time>2013-11-09T15:46:48.85</time>
      </trkpt>
      <trkpt lat="38.4343" lon="-0.7351483333333333">
        <ele>1100.7999999999984</ele>
        <time>2013-11-09T15:46:49.84</time>
      </trkpt>
      <trkpt lat="38.43414166666667" lon="-0.73511">
        <ele>1098.0999999999983</ele>
        <time>2013-11-09T15:46:50.85</time>
      </trkpt>
      <trkpt lat="38.43398166666667" lon="-0.7350683333333333">
        <ele>1095.5999999999983</ele>
        <time>2013-11-09T15:46:51.84</time>
      </trkpt>
      <trkpt lat="38.43383" lon="-0.7350316666666666">
        <ele>1092.6999999999982</ele>
        <time>2013-11-09T15:46:52.81</time>
      </trkpt>
      <trkpt lat="38.43367166666667" lon="-0.7349916666666666">
        <ele>1090.2999999999981</ele>
        <time>2013-11-09T15:46:53.85</time>
      </trkpt>
      <trkpt lat="38.43351166666667" lon="-0.7349433333333334">
        <ele>1087.9999999999982</ele>
        <time>2013-11-09T15:46:54.86</time>
      </trkpt>
      <trkpt lat="38.43336166666667" lon="-0.7349">
        <ele>1085.599999999998</ele>
        <time>2013-11-09T15:46:55.85</time>
      </trkpt>
      <trkpt lat="38.433205" lon="-0.7348483333333333">
        <ele>1082.9999999999982</ele>
        <time>2013-11-09T15:46:56.84</time>
      </trkpt>
      <trkpt lat="38.43304" lon="-0.7347916666666666">
        <ele>1080.3999999999983</ele>
        <time>2013-11-09T15:46:57.80</time>
      </trkpt>
      <trkpt lat="38.432878333333335" lon="-0.734735">
        <ele>1077.5999999999983</ele>
        <time>2013-11-09T15:46:58.81</time>
      </trkpt>
      <trkpt lat="38.43272" lon="-0.7346766666666666">
        <ele>1074.7999999999984</ele>
        <time>2013-11-09T15:46:59.88</time>
      </trkpt>
      <trkpt lat="38.432588333333335" lon="-0.734615">
        <ele>1071.1999999999985</ele>
        <time>2013-11-09T15:47:00.85</time>
      </trkpt>
      <trkpt lat="38.432455" lon="-0.7345550000000001">
        <ele>1067.2999999999984</ele>
        <time>2013-11-09T15:47:01.85</time>
      </trkpt>
      <trkpt lat="38.432293333333334" lon="-0.7344849999999999">
        <ele>1064.1999999999985</ele>
        <time>2013-11-09T15:47:02.85</time>
      </trkpt>
      <trkpt lat="38.43216" lon="-0.7344183333333334">
        <ele>1060.7999999999984</ele>
        <time>2013-11-09T15:47:03.87</time>
      </trkpt>
      <trkpt lat="38.432015" lon="-0.7343466666666667">
        <ele>1057.4999999999984</ele>
        <time>2013-11-09T15:47:04.88</time>
      </trkpt>
      <trkpt lat="38.431848333333335" lon="-0.73427">
        <ele>1054.7999999999984</ele>
        <time>2013-11-09T15:47:05.85</time>
      </trkpt>
      <trkpt lat="38.43168" lon="-0.7341916666666666">
        <ele>1052.6999999999985</ele>
        <time>2013-11-09T15:47:06.97</time>
      </trkpt>
      <trkpt lat="38.431538333333336" lon="-0.7341166666666666">
        <ele>1049.5999999999985</ele>
        <time>2013-11-09T15:47:07.86</time>
      </trkpt>
      <trkpt lat="38.43136166666667" lon="-0.734025">
        <ele>1047.0999999999985</ele>
        <time>2013-11-09T15:47:08.84</time>
      </trkpt>
      <trkpt lat="38.431185" lon="-0.7339333333333333">
        <ele>1044.9999999999986</ele>
        <time>2013-11-09T15:47:09.83</time>
      </trkpt>
      <trkpt lat="38.43102" lon="-0.73384">
        <ele>1043.2999999999986</ele>
        <time>2013-11-09T15:47:10.79</time>
      </trkpt>
      <trkpt lat="38.430868333333336" lon="-0.73374">
        <ele>1041.7999999999986</ele>
        <time>2013-11-09T15:47:11.85</time>
      </trkpt>
      <trkpt lat="38.43072166666666" lon="-0.7336283333333333">
        <ele>1040.0999999999985</ele>
        <time>2013-11-09T15:47:12.85</time>
      </trkpt>
      <trkpt lat="38.430573333333335" lon="-0.733515">
        <ele>1038.4999999999986</ele>
        <time>2013-11-09T15:47:13.87</time>
      </trkpt>
      <trkpt lat="38.430418333333336" lon="-0.7333883333333334">
        <ele>1036.5999999999985</ele>
        <time>2013-11-09T15:47:14.85</time>
      </trkpt>
      <trkpt lat="38.43026" lon="-0.7332533333333333">
        <ele>1034.4999999999986</ele>
        <time>2013-11-09T15:47:15.83</time>
      </trkpt>
      <trkpt lat="38.43010666666667" lon="-0.733115">
        <ele>1032.4999999999986</ele>
        <time>2013-11-09T15:47:16.85</time>
      </trkpt>
      <trkpt lat="38.429968333333335" lon="-0.7329666666666667">
        <ele>1030.2999999999986</ele>
        <time>2013-11-09T15:47:17.85</time>
      </trkpt>
      <trkpt lat="38.42983666666667" lon="-0.7328233333333334">
        <ele>1028.2999999999986</ele>
        <time>2013-11-09T15:47:18.81</time>
      </trkpt>
      <trkpt lat="38.429701666666666" lon="-0.7326816666666667">
        <ele>1026.3999999999985</ele>
        <time>2013-11-09T15:47:19.81</time>
      </trkpt>
      <trkpt lat="38.42957166666667" lon="-0.7325466666666667">
        <ele>1024.2999999999986</ele>
        <time>2013-11-09T15:47:20.93</time>
      </trkpt>
      <trkpt lat="38.42944166666667" lon="-0.7324166666666667">
        <ele>1022.0999999999985</ele>
        <time>2013-11-09T15:47:21.82</time>
      </trkpt>
      <trkpt lat="38.42930833333333" lon="-0.7322916666666667">
        <ele>1019.7999999999986</ele>
        <time>2013-11-09T15:47:22.85</time>
      </trkpt>
      <trkpt lat="38.429163333333335" lon="-0.7321716666666667">
        <ele>1017.9999999999986</ele>
        <time>2013-11-09T15:47:23.85</time>
      </trkpt>
      <trkpt lat="38.42901833333333" lon="-0.7320566666666667">
        <ele>1016.2999999999986</ele>
        <time>2013-11-09T15:47:24.85</time>
      </trkpt>
      <trkpt lat="38.42887666666667" lon="-0.7319633333333333">
        <ele>1014.6999999999986</ele>
        <time>2013-11-09T15:47:25.85</time>
      </trkpt>
      <trkpt lat="38.428733333333334" lon="-0.7318733333333333">
        <ele>1013.1999999999986</ele>
        <time>2013-11-09T15:47:26.81</time>
      </trkpt>
      <trkpt lat="38.428583333333336" lon="-0.7317866666666667">
        <ele>1011.2999999999986</ele>
        <time>2013-11-09T15:47:27.85</time>
      </trkpt>
      <trkpt lat="38.42843833333333" lon="-0.7317">
        <ele>1009.3999999999986</ele>
        <time>2013-11-09T15:47:28.85</time>
      </trkpt>
      <trkpt lat="38.42828166666666" lon="-0.73161">
        <ele>1007.4999999999986</ele>
        <time>2013-11-09T15:47:29.85</time>
      </trkpt>
      <trkpt lat="38.42813666666667" lon="-0.7315283333333333">
        <ele>1004.9999999999986</ele>
        <time>2013-11-09T15:47:30.84</time>
      </trkpt>
      <trkpt lat="38.42798333333333" lon="-0.73144">
        <ele>1002.8999999999986</ele>
        <time>2013-11-09T15:47:31.84</time>
      </trkpt>
      <trkpt lat="38.42783" lon="-0.7313516666666667">
        <ele>1000.6999999999986</ele>
        <time>2013-11-09T15:47:32.85</time>
      </trkpt>
      <trkpt lat="38.427675" lon="-0.73126">
        <ele>998.5999999999985</ele>
        <time>2013-11-09T15:47:33.85</time>
      </trkpt>
      <trkpt lat="38.427525" lon="-0.7311683333333333">
        <ele>996.5999999999985</ele>
        <time>2013-11-09T15:47:34.85</time>
      </trkpt>
      <trkpt lat="38.42737666666667" lon="-0.7310766666666667">
        <ele>994.6999999999986</ele>
        <time>2013-11-09T15:47:35.81</time>
      </trkpt>
      <trkpt lat="38.42722666666667" lon="-0.7309883333333332">
        <ele>992.7999999999986</ele>
        <time>2013-11-09T15:47:36.85</time>
      </trkpt>
      <trkpt lat="38.427076666666665" lon="-0.7309">
        <ele>990.8999999999986</ele>
        <time>2013-11-09T15:47:37.85</time>
      </trkpt>
      <trkpt lat="38.426925" lon="-0.73081">
        <ele>988.6999999999986</ele>
        <time>2013-11-09T15:47:38.85</time>
      </trkpt>
      <trkpt lat="38.42677833333333" lon="-0.73072">
        <ele>986.3999999999986</ele>
        <time>2013-11-09T15:47:39.85</time>
      </trkpt>
      <trkpt lat="38.426633333333335" lon="-0.7306266666666666">
        <ele>983.8999999999986</ele>
        <time>2013-11-09T15:47:40.97</time>
      </trkpt>
      <trkpt lat="38.42649" lon="-0.7305316666666666">
        <ele>981.4999999999986</ele>
        <time>2013-11-09T15:47:41.85</time>
      </trkpt>
      <trkpt lat="38.42635333333333" lon="-0.7304383333333334">
        <ele>978.8999999999986</ele>
        <time>2013-11-09T15:47:42.89</time>
      </trkpt>
      <trkpt lat="38.42621" lon="-0.7303416666666667">
        <ele>976.1999999999986</ele>
        <time>2013-11-09T15:47:43.85</time>
      </trkpt>
      <trkpt lat="38.42606" lon="-0.7302466666666666">
        <ele>973.6999999999986</ele>
        <time>2013-11-09T15:47:44.86</time>
      </trkpt>
      <trkpt lat="38.42591" lon="-0.7301466666666666">
        <ele>971.2999999999986</ele>
        <time>2013-11-09T15:47:45.84</time>
      </trkpt>
      <trkpt lat="38.42577333333333" lon="-0.730055">
        <ele>968.9999999999986</ele>
        <time>2013-11-09T15:47:46.84</time>
      </trkpt>
      <trkpt lat="38.42564" lon="-0.729965">
        <ele>966.2999999999986</ele>
        <time>2013-11-09T15:47:47.86</time>
      </trkpt>
      <trkpt lat="38.425495" lon="-0.7298683333333333">
        <ele>963.5999999999985</ele>
        <time>2013-11-09T15:47:48.85</time>
      </trkpt>
      <trkpt lat="38.42535" lon="-0.729775">
        <ele>960.5999999999985</ele>
        <time>2013-11-09T15:47:49.85</time>
      </trkpt>
      <trkpt lat="38.42519333333333" lon="-0.7296766666666666">
        <ele>957.4999999999985</ele>
        <time>2013-11-09T15:47:50.85</time>
      </trkpt>
      <trkpt lat="38.425041666666665" lon="-0.7295833333333334">
        <ele>954.3999999999985</ele>
        <time>2013-11-09T15:47:51.82</time>
      </trkpt>
      <trkpt lat="38.42490166666666" lon="-0.7295033333333334">
        <ele>951.1999999999985</ele>
        <time>2013-11-09T15:47:52.88</time>
      </trkpt>
      <trkpt lat="38.42475666666667" lon="-0.7294183333333333">
        <ele>948.4999999999984</ele>
        <time>2013-11-09T15:47:53.85</time>
      </trkpt>
      <trkpt lat="38.424615" lon="-0.7293333333333333">
        <ele>945.7999999999984</ele>
        <time>2013-11-09T15:47:54.85</time>
      </trkpt>
      <trkpt lat="38.424488333333336" lon="-0.7292500000000001">
        <ele>941.9999999999984</ele>
        <time>2013-11-09T15:47:55.85</time>
      </trkpt>
      <trkpt lat="38.424346666666665" lon="-0.729145">
        <ele>938.6999999999985</ele>
        <time>2013-11-09T15:47:56.85</time>
      </trkpt>
      <trkpt lat="38.42420833333333" lon="-0.7290316666666666">
        <ele>935.8999999999985</ele>
        <time>2013-11-09T15:47:57.86</time>
      </trkpt>
      <trkpt lat="38.424076666666664" lon="-0.7289150000000001">
        <ele>933.5999999999985</ele>
        <time>2013-11-09T15:47:58.88</time>
      </trkpt>
      <trkpt lat="38.423946666666666" lon="-0.7287933333333334">
        <ele>931.3999999999985</ele>
        <time>2013-11-09T15:47:59.85</time>
      </trkpt>
      <trkpt lat="38.42382" lon="-0.7286699999999999">
        <ele>929.0999999999985</ele>
        <time>2013-11-09T15:48:00.88</time>
      </trkpt>
      <trkpt lat="38.42369166666667" lon="-0.7285466666666667">
        <ele>926.6999999999986</ele>
        <time>2013-11-09T15:48:01.84</time>
      </trkpt>
      <trkpt lat="38.42356" lon="-0.72842">
        <ele>924.3999999999986</ele>
        <time>2013-11-09T15:48:02.88</time>
      </trkpt>
      <trkpt lat="38.423426666666664" lon="-0.7282966666666667">
        <ele>921.7999999999986</ele>
        <time>2013-11-09T15:48:03.85</time>
      </trkpt>
      <trkpt lat="38.423295" lon="-0.7281766666666667">
        <ele>919.1999999999986</ele>
        <time>2013-11-09T15:48:04.81</time>
      </trkpt>
      <trkpt lat="38.423165" lon="-0.7280566666666667">
        <ele>916.6999999999986</ele>
        <time>2013-11-09T15:48:05.85</time>
      </trkpt>
      <trkpt lat="38.423035" lon="-0.7279366666666667">
        <ele>914.1999999999986</ele>
        <time>2013-11-09T15:48:06.85</time>
      </trkpt>
      <trkpt lat="38.42290833333333" lon="-0.7278166666666667">
        <ele>911.6999999999986</ele>
        <time>2013-11-09T15:48:07.86</time>
      </trkpt>
      <trkpt lat="38.422785" lon="-0.7276950000000001">
        <ele>909.0999999999985</ele>
        <time>2013-11-09T15:48:08.81</time>
      </trkpt>
      <trkpt lat="38.42266166666667" lon="-0.72757">
        <ele>906.4999999999985</ele>
        <time>2013-11-09T15:48:09.84</time>
      </trkpt>
      <trkpt lat="38.422535" lon="-0.7274383333333333">
        <ele>903.8999999999985</ele>
        <time>2013-11-09T15:48:10.85</time>
      </trkpt>
      <trkpt lat="38.42241166666667" lon="-0.7273083333333333">
        <ele>901.3999999999985</ele>
        <time>2013-11-09T15:48:11.85</time>
      </trkpt>
      <trkpt lat="38.422288333333334" lon="-0.7271816666666666">
        <ele>899.1999999999985</ele>
        <time>2013-11-09T15:48:12.85</time>
      </trkpt>
      <trkpt lat="38.42216833333333" lon="-0.727055">
        <ele>896.8999999999985</ele>
        <time>2013-11-09T15:48:13.85</time>
      </trkpt>
      <trkpt lat="38.42205333333333" lon="-0.7269266666666667">
        <ele>894.5999999999985</ele>
        <time>2013-11-09T15:48:14.85</time>
      </trkpt>
      <trkpt lat="38.42193833333333" lon="-0.7267966666666666">
        <ele>892.2999999999986</ele>
        <time>2013-11-09T15:48:15.85</time>
      </trkpt>
      <trkpt lat="38.421823333333336" lon="-0.7266616666666667">
        <ele>889.7999999999986</ele>
        <time>2013-11-09T15:48:17.16</time>
      </trkpt>
      <trkpt lat="38.42171" lon="-0.7265250000000001">
        <ele>887.2999999999986</ele>
        <time>2013-11-09T15:48:17.85</time>
      </trkpt>
      <trkpt lat="38.421596666666666" lon="-0.7263883333333333">
        <ele>884.9999999999986</ele>
        <time>2013-11-09T15:48:18.86</time>
      </trkpt>
      <trkpt lat="38.42149" lon="-0.7262533333333334">
        <ele>882.7999999999986</ele>
        <time>2013-11-09T15:48:19.85</time>
      </trkpt>
      <trkpt lat="38.42138666666666" lon="-0.72612">
        <ele>880.3999999999986</ele>
        <time>2013-11-09T15:48:20.85</time>
      </trkpt>
      <trkpt lat="38.421275" lon="-0.7259833333333333">
        <ele>878.0999999999987</ele>
        <time>2013-11-09T15:48:21.85</time>
      </trkpt>
      <trkpt lat="38.42115666666667" lon="-0.7258416666666666">
        <ele>875.6999999999987</ele>
        <time>2013-11-09T15:48:22.85</time>
      </trkpt>
      <trkpt lat="38.42104" lon="-0.7257049999999999">
        <ele>873.2999999999987</ele>
        <time>2013-11-09T15:48:23.85</time>
      </trkpt>
      <trkpt lat="38.420915" lon="-0.7255683333333334">
        <ele>870.8999999999987</ele>
        <time>2013-11-09T15:48:24.85</time>
      </trkpt>
      <trkpt lat="38.420793333333336" lon="-0.7254416666666667">
        <ele>868.6999999999987</ele>
        <time>2013-11-09T15:48:25.86</time>
      </trkpt>
      <trkpt lat="38.42066833333333" lon="-0.7253183333333334">
        <ele>866.1999999999987</ele>
        <time>2013-11-09T15:48:26.85</time>
      </trkpt>
      <trkpt lat="38.42053833333333" lon="-0.7251949999999999">
        <ele>864.0999999999987</ele>
        <time>2013-11-09T15:48:27.85</time>
      </trkpt>
      <trkpt lat="38.42040333333333" lon="-0.7250566666666667">
        <ele>862.2999999999987</ele>
        <time>2013-11-09T15:48:28.86</time>
      </trkpt>
      <trkpt lat="38.420275" lon="-0.7249283333333333">
        <ele>860.5999999999987</ele>
        <time>2013-11-09T15:48:29.81</time>
      </trkpt>
      <trkpt lat="38.42014666666667" lon="-0.7248016666666667">
        <ele>859.0999999999987</ele>
        <time>2013-11-09T15:48:30.85</time>
      </trkpt>
      <trkpt lat="38.42001833333333" lon="-0.7246766666666667">
        <ele>857.5999999999987</ele>
        <time>2013-11-09T15:48:31.85</time>
      </trkpt>
      <trkpt lat="38.419895" lon="-0.7245583333333333">
        <ele>855.7999999999987</ele>
        <time>2013-11-09T15:48:32.85</time>
      </trkpt>
      <trkpt lat="38.41977166666667" lon="-0.7244366666666667">
        <ele>853.8999999999987</ele>
        <time>2013-11-09T15:48:33.81</time>
      </trkpt>
      <trkpt lat="38.41965833333333" lon="-0.7243266666666667">
        <ele>851.9999999999987</ele>
        <time>2013-11-09T15:48:34.85</time>
      </trkpt>
      <trkpt lat="38.419531666666664" lon="-0.7242016666666667">
        <ele>850.2999999999987</ele>
        <time>2013-11-09T15:48:35.85</time>
      </trkpt>
      <trkpt lat="38.41941666666666" lon="-0.72409">
        <ele>848.3999999999987</ele>
        <time>2013-11-09T15:48:36.85</time>
      </trkpt>
      <trkpt lat="38.419291666666666" lon="-0.7239733333333334">
        <ele>846.2999999999987</ele>
        <time>2013-11-09T15:48:37.85</time>
      </trkpt>
      <trkpt lat="38.419165" lon="-0.723855">
        <ele>844.0999999999987</ele>
        <time>2013-11-09T15:48:38.82</time>
      </trkpt>
      <trkpt lat="38.41904" lon="-0.7237399999999999">
        <ele>841.8999999999986</ele>
        <time>2013-11-09T15:48:39.84</time>
      </trkpt>
      <trkpt lat="38.418913333333336" lon="-0.72363">
        <ele>839.6999999999986</ele>
        <time>2013-11-09T15:48:40.84</time>
      </trkpt>
      <trkpt lat="38.41879" lon="-0.7235216666666666">
        <ele>837.4999999999985</ele>
        <time>2013-11-09T15:48:41.84</time>
      </trkpt>
      <trkpt lat="38.418665" lon="-0.7234166666666667">
        <ele>835.0999999999985</ele>
        <time>2013-11-09T15:48:42.85</time>
      </trkpt>
      <trkpt lat="38.41854333333333" lon="-0.7233149999999999">
        <ele>832.2999999999986</ele>
        <time>2013-11-09T15:48:43.85</time>
      </trkpt>
      <trkpt lat="38.418418333333335" lon="-0.7232149999999999">
        <ele>829.5999999999985</ele>
        <time>2013-11-09T15:48:44.85</time>
      </trkpt>
      <trkpt lat="38.418295" lon="-0.7231233333333333">
        <ele>826.6999999999986</ele>
        <time>2013-11-09T15:48:45.84</time>
      </trkpt>
      <trkpt lat="38.418165" lon="-0.7230266666666666">
        <ele>823.5999999999985</ele>
        <time>2013-11-09T15:48:46.85</time>
      </trkpt>
      <trkpt lat="38.41803" lon="-0.7229316666666666">
        <ele>820.5999999999985</ele>
        <time>2013-11-09T15:48:47.85</time>
      </trkpt>
      <trkpt lat="38.417896666666664" lon="-0.722835">
        <ele>817.6999999999986</ele>
        <time>2013-11-09T15:48:48.85</time>
      </trkpt>
      <trkpt lat="38.417765" lon="-0.7227383333333334">
        <ele>814.9999999999985</ele>
        <time>2013-11-09T15:48:49.85</time>
      </trkpt>
      <trkpt lat="38.41763666666667" lon="-0.7226383333333334">
        <ele>812.2999999999985</ele>
        <time>2013-11-09T15:48:50.85</time>
      </trkpt>
      <trkpt lat="38.41751333333333" lon="-0.7225366666666667">
        <ele>809.4999999999985</ele>
        <time>2013-11-09T15:48:51.85</time>
      </trkpt>
      <trkpt lat="38.417385" lon="-0.7224283333333333">
        <ele>806.7999999999985</ele>
        <time>2013-11-09T15:48:52.79</time>
      </trkpt>
      <trkpt lat="38.41725" lon="-0.72231">
        <ele>803.9999999999985</ele>
        <time>2013-11-09T15:48:53.85</time>
      </trkpt>
      <trkpt lat="38.417118333333335" lon="-0.7221933333333334">
        <ele>801.2999999999985</ele>
        <time>2013-11-09T15:48:54.85</time>
      </trkpt>
      <trkpt lat="38.41699333333333" lon="-0.7220733333333332">
        <ele>798.4999999999985</ele>
        <time>2013-11-09T15:48:55.81</time>
      </trkpt>
      <trkpt lat="38.416875" lon="-0.72195">
        <ele>795.6999999999986</ele>
        <time>2013-11-09T15:48:56.85</time>
      </trkpt>
      <trkpt lat="38.41676" lon="-0.7218283333333333">
        <ele>792.6999999999986</ele>
        <time>2013-11-09T15:48:57.85</time>
      </trkpt>
      <trkpt lat="38.416646666666665" lon="-0.7217">
        <ele>789.5999999999985</ele>
        <time>2013-11-09T15:48:58.82</time>
      </trkpt>
      <trkpt lat="38.416531666666664" lon="-0.7215683333333334">
        <ele>786.3999999999985</ele>
        <time>2013-11-09T15:48:59.88</time>
      </trkpt>
      <trkpt lat="38.41641833333333" lon="-0.7214366666666667">
        <ele>783.0999999999985</ele>
        <time>2013-11-09T15:49:00.85</time>
      </trkpt>
      <trkpt lat="38.41630833333333" lon="-0.7212933333333333">
        <ele>779.7999999999986</ele>
        <time>2013-11-09T15:49:01.84</time>
      </trkpt>
      <trkpt lat="38.416198333333334" lon="-0.721145">
        <ele>776.5999999999985</ele>
        <time>2013-11-09T15:49:02.85</time>
      </trkpt>
      <trkpt lat="38.41608333333333" lon="-0.7209916666666667">
        <ele>773.6999999999986</ele>
        <time>2013-11-09T15:49:03.85</time>
      </trkpt>
      <trkpt lat="38.41597333333333" lon="-0.7208366666666667">
        <ele>770.8999999999986</ele>
        <time>2013-11-09T15:49:04.85</time>
      </trkpt>
      <trkpt lat="38.41587166666667" lon="-0.7206883333333334">
        <ele>767.7999999999986</ele>
        <time>2013-11-09T15:49:05.89</time>
      </trkpt>
      <trkpt lat="38.415771666666664" lon="-0.7205433333333333">
        <ele>764.7999999999986</ele>
        <time>2013-11-09T15:49:06.85</time>
      </trkpt>
      <trkpt lat="38.41567166666667" lon="-0.7203983333333334">
        <ele>761.6999999999986</ele>
        <time>2013-11-09T15:49:07.85</time>
      </trkpt>
      <trkpt lat="38.415575" lon="-0.7202516666666666">
        <ele>758.6999999999986</ele>
        <time>2013-11-09T15:49:08.85</time>
      </trkpt>
      <trkpt lat="38.415475" lon="-0.7201016666666666">
        <ele>755.6999999999986</ele>
        <time>2013-11-09T15:49:09.81</time>
      </trkpt>
      <trkpt lat="38.415366666666664" lon="-0.7199416666666667">
        <ele>752.7999999999986</ele>
        <time>2013-11-09T15:49:10.86</time>
      </trkpt>
      <trkpt lat="38.41525333333333" lon="-0.7197833333333333">
        <ele>750.2999999999986</ele>
        <time>2013-11-09T15:49:11.85</time>
      </trkpt>
      <trkpt lat="38.415148333333335" lon="-0.7196316666666667">
        <ele>748.1999999999986</ele>
        <time>2013-11-09T15:49:12.84</time>
      </trkpt>
      <trkpt lat="38.415031666666664" lon="-0.7194666666666667">
        <ele>746.1999999999986</ele>
        <time>2013-11-09T15:49:13.84</time>
      </trkpt>
      <trkpt lat="38.41491833333333" lon="-0.7193066666666666">
        <ele>744.4999999999985</ele>
        <time>2013-11-09T15:49:14.86</time>
      </trkpt>
      <trkpt lat="38.414805" lon="-0.7191566666666667">
        <ele>742.9999999999985</ele>
        <time>2013-11-09T15:49:15.85</time>
      </trkpt>
      <trkpt lat="38.41469333333333" lon="-0.71901">
        <ele>741.5999999999985</ele>
        <time>2013-11-09T15:49:16.84</time>
      </trkpt>
      <trkpt lat="38.41458" lon="-0.7188616666666667">
        <ele>740.1999999999986</ele>
        <time>2013-11-09T15:49:18.30</time>
      </trkpt>
      <trkpt lat="38.41446666666667" lon="-0.7187216666666667">
        <ele>738.5999999999985</ele>
        <time>2013-11-09T15:49:18.85</time>
      </trkpt>
      <trkpt lat="38.41435333333333" lon="-0.7185833333333334">
        <ele>737.2999999999986</ele>
        <time>2013-11-09T15:49:19.85</time>
      </trkpt>
      <trkpt lat="38.414235" lon="-0.7184316666666667">
        <ele>735.8999999999986</ele>
        <time>2013-11-09T15:49:20.85</time>
      </trkpt>
      <trkpt lat="38.41411333333333" lon="-0.7182766666666667">
        <ele>734.4999999999986</ele>
        <time>2013-11-09T15:49:22.11</time>
      </trkpt>
      <trkpt lat="38.41399333333333" lon="-0.7181233333333333">
        <ele>733.2999999999986</ele>
        <time>2013-11-09T15:49:22.85</time>
      </trkpt>
      <trkpt lat="38.41388666666667" lon="-0.7179783333333333">
        <ele>731.6999999999986</ele>
        <time>2013-11-09T15:49:23.85</time>
      </trkpt>
      <trkpt lat="38.413785" lon="-0.7178383333333334">
        <ele>729.8999999999986</ele>
        <time>2013-11-09T15:49:24.85</time>
      </trkpt>
      <trkpt lat="38.413695" lon="-0.7177066666666666">
        <ele>727.8999999999986</ele>
        <time>2013-11-09T15:49:25.87</time>
      </trkpt>
      <trkpt lat="38.413605" lon="-0.7175716666666666">
        <ele>725.9999999999986</ele>
        <time>2013-11-09T15:49:26.85</time>
      </trkpt>
      <trkpt lat="38.413505" lon="-0.7174216666666666">
        <ele>723.7999999999986</ele>
        <time>2013-11-09T15:49:27.85</time>
      </trkpt>
      <trkpt lat="38.413405" lon="-0.7172649999999999">
        <ele>721.3999999999986</ele>
        <time>2013-11-09T15:49:28.85</time>
      </trkpt>
      <trkpt lat="38.413305" lon="-0.7171066666666667">
        <ele>718.8999999999986</ele>
        <time>2013-11-09T15:49:29.81</time>
      </trkpt>
      <trkpt lat="38.413205" lon="-0.7169500000000001">
        <ele>716.5999999999987</ele>
        <time>2013-11-09T15:49:30.85</time>
      </trkpt>
      <trkpt lat="38.41310166666667" lon="-0.7168033333333333">
        <ele>714.6999999999987</ele>
        <time>2013-11-09T15:49:31.84</time>
      </trkpt>
      <trkpt lat="38.413" lon="-0.71666">
        <ele>712.8999999999987</ele>
        <time>2013-11-09T15:49:32.85</time>
      </trkpt>
      <trkpt lat="38.41289" lon="-0.7165199999999999">
        <ele>711.4999999999987</ele>
        <time>2013-11-09T15:49:33.85</time>
      </trkpt>
      <trkpt lat="38.412773333333334" lon="-0.7163683333333334">
        <ele>710.0999999999988</ele>
        <time>2013-11-09T15:49:34.81</time>
      </trkpt>
      <trkpt lat="38.41265333333333" lon="-0.7162183333333334">
        <ele>708.5999999999988</ele>
        <time>2013-11-09T15:49:35.85</time>
      </trkpt>
      <trkpt lat="38.41253" lon="-0.7160633333333333">
        <ele>707.2999999999988</ele>
        <time>2013-11-09T15:49:36.85</time>
      </trkpt>
      <trkpt lat="38.412405" lon="-0.7159083333333334">
        <ele>706.1999999999988</ele>
        <time>2013-11-09T15:49:37.84</time>
      </trkpt>
      <trkpt lat="38.412288333333336" lon="-0.7157633333333333">
        <ele>705.1999999999988</ele>
        <time>2013-11-09T15:49:38.85</time>
      </trkpt>
      <trkpt lat="38.41218333333333" lon="-0.7156316666666667">
        <ele>704.2999999999988</ele>
        <time>2013-11-09T15:49:39.85</time>
      </trkpt>
      <trkpt lat="38.412081666666666" lon="-0.7155033333333333">
        <ele>703.1999999999988</ele>
        <time>2013-11-09T15:49:40.86</time>
      </trkpt>
      <trkpt lat="38.41198166666667" lon="-0.71537">
        <ele>702.0999999999988</ele>
        <time>2013-11-09T15:49:41.85</time>
      </trkpt>
      <trkpt lat="38.411878333333334" lon="-0.71523">
        <ele>700.4999999999987</ele>
        <time>2013-11-09T15:49:42.85</time>
      </trkpt>
      <trkpt lat="38.41177166666667" lon="-0.7150883333333333">
        <ele>698.9999999999987</ele>
        <time>2013-11-09T15:49:43.85</time>
      </trkpt>
      <trkpt lat="38.411665" lon="-0.714945">
        <ele>697.6999999999988</ele>
        <time>2013-11-09T15:49:44.85</time>
      </trkpt>
      <trkpt lat="38.411568333333335" lon="-0.7148083333333334">
        <ele>696.4999999999987</ele>
        <time>2013-11-09T15:49:45.85</time>
      </trkpt>
      <trkpt lat="38.411478333333335" lon="-0.7146683333333333">
        <ele>695.2999999999987</ele>
        <time>2013-11-09T15:49:46.85</time>
      </trkpt>
      <trkpt lat="38.411388333333335" lon="-0.714525">
        <ele>694.0999999999987</ele>
        <time>2013-11-09T15:49:47.85</time>
      </trkpt>
      <trkpt lat="38.411298333333335" lon="-0.7143766666666667">
        <ele>692.7999999999987</ele>
        <time>2013-11-09T15:49:48.85</time>
      </trkpt>
      <trkpt lat="38.41121666666667" lon="-0.7142233333333333">
        <ele>691.2999999999987</ele>
        <time>2013-11-09T15:49:49.83</time>
      </trkpt>
      <trkpt lat="38.41113333333333" lon="-0.714065">
        <ele>689.2999999999987</ele>
        <time>2013-11-09T15:49:50.85</time>
      </trkpt>
      <trkpt lat="38.41104333333333" lon="-0.7138950000000001">
        <ele>687.5999999999987</ele>
        <time>2013-11-09T15:49:51.84</time>
      </trkpt>
      <trkpt lat="38.41095833333333" lon="-0.7137266666666666">
        <ele>686.0999999999987</ele>
        <time>2013-11-09T15:49:52.86</time>
      </trkpt>
      <trkpt lat="38.410873333333335" lon="-0.7135616666666666">
        <ele>684.5999999999987</ele>
        <time>2013-11-09T15:49:53.85</time>
      </trkpt>
      <trkpt lat="38.41079166666667" lon="-0.7133983333333334">
        <ele>682.9999999999986</ele>
        <time>2013-11-09T15:49:54.81</time>
      </trkpt>
      <trkpt lat="38.41071" lon="-0.7132366666666666">
        <ele>681.5999999999987</ele>
        <time>2013-11-09T15:49:55.84</time>
      </trkpt>
      <trkpt lat="38.410628333333335" lon="-0.713075">
        <ele>680.1999999999987</ele>
        <time>2013-11-09T15:49:56.86</time>
      </trkpt>
      <trkpt lat="38.410545" lon="-0.7129133333333333">
        <ele>678.9999999999986</ele>
        <time>2013-11-09T15:49:57.84</time>
      </trkpt>
      <trkpt lat="38.41046" lon="-0.71275">
        <ele>677.7999999999986</ele>
        <time>2013-11-09T15:49:58.85</time>
      </trkpt>
      <trkpt lat="38.410375" lon="-0.7125933333333333">
        <ele>676.7999999999986</ele>
        <time>2013-11-09T15:49:59.98</time>
      </trkpt>
      <trkpt lat="38.41029" lon="-0.7124383333333333">
        <ele>675.5999999999985</ele>
        <time>2013-11-09T15:50:00.84</time>
      </trkpt>
      <trkpt lat="38.41021166666667" lon="-0.712285">
        <ele>673.9999999999985</ele>
        <time>2013-11-09T15:50:01.92</time>
      </trkpt>
      <trkpt lat="38.410136666666666" lon="-0.7121316666666666">
        <ele>672.1999999999986</ele>
        <time>2013-11-09T15:50:02.85</time>
      </trkpt>
      <trkpt lat="38.41006" lon="-0.7119716666666667">
        <ele>670.2999999999986</ele>
        <time>2013-11-09T15:50:03.85</time>
      </trkpt>
      <trkpt lat="38.40998" lon="-0.7118083333333334">
        <ele>668.5999999999985</ele>
        <time>2013-11-09T15:50:04.85</time>
      </trkpt>
      <trkpt lat="38.40989666666667" lon="-0.7116466666666666">
        <ele>667.0999999999985</ele>
        <time>2013-11-09T15:50:05.85</time>
      </trkpt>
      <trkpt lat="38.40980833333333" lon="-0.7114816666666666">
        <ele>665.7999999999986</ele>
        <time>2013-11-09T15:50:06.85</time>
      </trkpt>
      <trkpt lat="38.409715" lon="-0.7113200000000001">
        <ele>664.5999999999985</ele>
        <time>2013-11-09T15:50:07.85</time>
      </trkpt>
      <trkpt lat="38.40962" lon="-0.7111566666666668">
        <ele>663.1999999999986</ele>
        <time>2013-11-09T15:50:08.86</time>
      </trkpt>
      <trkpt lat="38.409525" lon="-0.710995">
        <ele>661.6999999999986</ele>
        <time>2013-11-09T15:50:09.85</time>
      </trkpt>
      <trkpt lat="38.40943" lon="-0.710835">
        <ele>660.4999999999985</ele>
        <time>2013-11-09T15:50:10.85</time>
      </trkpt>
      <trkpt lat="38.40933666666667" lon="-0.7106766666666666">
        <ele>659.0999999999985</ele>
        <time>2013-11-09T15:50:11.85</time>
      </trkpt>
      <trkpt lat="38.409245" lon="-0.7105183333333334">
        <ele>657.4999999999985</ele>
        <time>2013-11-09T15:50:12.85</time>
      </trkpt>
      <trkpt lat="38.409153333333336" lon="-0.7103533333333334">
        <ele>655.7999999999985</ele>
        <time>2013-11-09T15:50:13.86</time>
      </trkpt>
      <trkpt lat="38.409061666666666" lon="-0.710185">
        <ele>653.8999999999985</ele>
        <time>2013-11-09T15:50:14.85</time>
      </trkpt>
      <trkpt lat="38.40897" lon="-0.7100183333333334">
        <ele>651.9999999999985</ele>
        <time>2013-11-09T15:50:15.86</time>
      </trkpt>
      <trkpt lat="38.408878333333334" lon="-0.7098549999999999">
        <ele>649.8999999999985</ele>
        <time>2013-11-09T15:50:16.86</time>
      </trkpt>
      <trkpt lat="38.408785" lon="-0.709695">
        <ele>647.7999999999985</ele>
        <time>2013-11-09T15:50:17.90</time>
      </trkpt>
      <trkpt lat="38.40868833333333" lon="-0.7095366666666667">
        <ele>645.5999999999984</ele>
        <time>2013-11-09T15:50:18.85</time>
      </trkpt>
      <trkpt lat="38.408593333333336" lon="-0.7093816666666667">
        <ele>643.2999999999985</ele>
        <time>2013-11-09T15:50:19.86</time>
      </trkpt>
      <trkpt lat="38.40849333333333" lon="-0.7092183333333334">
        <ele>641.1999999999985</ele>
        <time>2013-11-09T15:50:20.85</time>
      </trkpt>
      <trkpt lat="38.40839166666667" lon="-0.7090666666666666">
        <ele>638.9999999999984</ele>
        <time>2013-11-09T15:50:21.85</time>
      </trkpt>
      <trkpt lat="38.40829166666666" lon="-0.7089166666666666">
        <ele>636.9999999999984</ele>
        <time>2013-11-09T15:50:22.86</time>
      </trkpt>
      <trkpt lat="38.40819666666667" lon="-0.708765">
        <ele>635.1999999999985</ele>
        <time>2013-11-09T15:50:24.16</time>
      </trkpt>
      <trkpt lat="38.40810833333333" lon="-0.7086266666666667">
        <ele>633.3999999999985</ele>
        <time>2013-11-09T15:50:24.85</time>
      </trkpt>
      <trkpt lat="38.408028333333334" lon="-0.70849">
        <ele>631.3999999999985</ele>
        <time>2013-11-09T15:50:25.85</time>
      </trkpt>
      <trkpt lat="38.407956666666664" lon="-0.7083600000000001">
        <ele>629.3999999999985</ele>
        <time>2013-11-09T15:50:26.85</time>
      </trkpt>
      <trkpt lat="38.40788833333333" lon="-0.7082233333333333">
        <ele>627.2999999999985</ele>
        <time>2013-11-09T15:50:27.86</time>
      </trkpt>
      <trkpt lat="38.40782333333333" lon="-0.7080816666666667">
        <ele>624.8999999999985</ele>
        <time>2013-11-09T15:50:28.94</time>
      </trkpt>
      <trkpt lat="38.407761666666666" lon="-0.7079383333333333">
        <ele>622.6999999999985</ele>
        <time>2013-11-09T15:50:29.86</time>
      </trkpt>
      <trkpt lat="38.4077" lon="-0.7077933333333333">
        <ele>620.8999999999985</ele>
        <time>2013-11-09T15:50:30.86</time>
      </trkpt>
      <trkpt lat="38.40764" lon="-0.707635">
        <ele>619.3999999999985</ele>
        <time>2013-11-09T15:50:31.85</time>
      </trkpt>
      <trkpt lat="38.40758" lon="-0.70747">
        <ele>618.0999999999985</ele>
        <time>2013-11-09T15:50:32.86</time>
      </trkpt>
      <trkpt lat="38.40752666666667" lon="-0.7073116666666667">
        <ele>616.7999999999986</ele>
        <time>2013-11-09T15:50:33.86</time>
      </trkpt>
      <trkpt lat="38.40748166666667" lon="-0.70716">
        <ele>615.4999999999986</ele>
        <time>2013-11-09T15:50:34.88</time>
      </trkpt>
      <trkpt lat="38.407445" lon="-0.7070083333333332">
        <ele>613.8999999999986</ele>
        <time>2013-11-09T15:50:35.86</time>
      </trkpt>
      <trkpt lat="38.40740666666667" lon="-0.7068533333333333">
        <ele>612.0999999999987</ele>
        <time>2013-11-09T15:50:36.85</time>
      </trkpt>
      <trkpt lat="38.40736666666667" lon="-0.7066933333333334">
        <ele>610.3999999999986</ele>
        <time>2013-11-09T15:50:37.86</time>
      </trkpt>
      <trkpt lat="38.407336666666666" lon="-0.7065483333333333">
        <ele>608.6999999999986</ele>
        <time>2013-11-09T15:50:38.86</time>
      </trkpt>
      <trkpt lat="38.40730666666666" lon="-0.7063883333333333">
        <ele>607.1999999999986</ele>
        <time>2013-11-09T15:50:39.93</time>
      </trkpt>
      <trkpt lat="38.40728166666667" lon="-0.706225">
        <ele>605.5999999999985</ele>
        <time>2013-11-09T15:50:40.86</time>
      </trkpt>
      <trkpt lat="38.40725666666667" lon="-0.7060616666666667">
        <ele>604.0999999999985</ele>
        <time>2013-11-09T15:50:41.85</time>
      </trkpt>
      <trkpt lat="38.407228333333336" lon="-0.7059116666666667">
        <ele>602.5999999999985</ele>
        <time>2013-11-09T15:50:42.86</time>
      </trkpt>
      <trkpt lat="38.40719333333333" lon="-0.7057683333333333">
        <ele>601.0999999999985</ele>
        <time>2013-11-09T15:50:43.86</time>
      </trkpt>
      <trkpt lat="38.407151666666664" lon="-0.7056166666666667">
        <ele>599.2999999999986</ele>
        <time>2013-11-09T15:50:44.89</time>
      </trkpt>
      <trkpt lat="38.40710833333333" lon="-0.7054633333333334">
        <ele>597.3999999999986</ele>
        <time>2013-11-09T15:50:45.88</time>
      </trkpt>
      <trkpt lat="38.40706333333333" lon="-0.7053133333333333">
        <ele>595.5999999999987</ele>
        <time>2013-11-09T15:50:46.87</time>
      </trkpt>
      <trkpt lat="38.40701166666667" lon="-0.7051499999999999">
        <ele>593.8999999999986</ele>
        <time>2013-11-09T15:50:47.87</time>
      </trkpt>
      <trkpt lat="38.406958333333336" lon="-0.7049883333333333">
        <ele>592.2999999999986</ele>
        <time>2013-11-09T15:50:48.88</time>
      </trkpt>
      <trkpt lat="38.40690333333333" lon="-0.7048266666666667">
        <ele>590.7999999999986</ele>
        <time>2013-11-09T15:50:49.87</time>
      </trkpt>
      <trkpt lat="38.40685666666667" lon="-0.70467">
        <ele>589.1999999999986</ele>
        <time>2013-11-09T15:50:50.88</time>
      </trkpt>
      <trkpt lat="38.40681333333333" lon="-0.7045250000000001">
        <ele>587.6999999999986</ele>
        <time>2013-11-09T15:50:51.87</time>
      </trkpt>
      <trkpt lat="38.406775" lon="-0.7043766666666667">
        <ele>586.1999999999986</ele>
        <time>2013-11-09T15:50:52.90</time>
      </trkpt>
      <trkpt lat="38.40673666666667" lon="-0.7042333333333333">
        <ele>584.5999999999985</ele>
        <time>2013-11-09T15:50:53.87</time>
      </trkpt>
      <trkpt lat="38.40669833333333" lon="-0.7040766666666667">
        <ele>582.7999999999986</ele>
        <time>2013-11-09T15:50:54.87</time>
      </trkpt>
      <trkpt lat="38.40665666666666" lon="-0.7039116666666666">
        <ele>581.1999999999986</ele>
        <time>2013-11-09T15:50:55.87</time>
      </trkpt>
      <trkpt lat="38.406616666666665" lon="-0.7037416666666666">
        <ele>579.6999999999986</ele>
        <time>2013-11-09T15:50:56.87</time>
      </trkpt>
      <trkpt lat="38.406575" lon="-0.7035733333333333">
        <ele>578.5999999999985</ele>
        <time>2013-11-09T15:50:57.87</time>
      </trkpt>
      <trkpt lat="38.406533333333336" lon="-0.7034116666666667">
        <ele>577.7999999999986</ele>
        <time>2013-11-09T15:50:58.87</time>
      </trkpt>
      <trkpt lat="38.406488333333336" lon="-0.7032633333333334">
        <ele>577.3999999999986</ele>
        <time>2013-11-09T15:50:59.87</time>
      </trkpt>
      <trkpt lat="38.406436666666664" lon="-0.7031266666666667">
        <ele>577.3999999999986</ele>
        <time>2013-11-09T15:51:00.87</time>
      </trkpt>
      <trkpt lat="38.406371666666665" lon="-0.70298">
        <ele>577.3999999999986</ele>
        <time>2013-11-09T15:51:01.97</time>
      </trkpt>
      <trkpt lat="38.406288333333336" lon="-0.7028216666666667">
        <ele>576.9999999999986</ele>
        <time>2013-11-09T15:51:02.87</time>
      </trkpt>
      <trkpt lat="38.406171666666665" lon="-0.7026766666666667">
        <ele>576.2999999999986</ele>
        <time>2013-11-09T15:51:03.87</time>
      </trkpt>
      <trkpt lat="38.40604833333333" lon="-0.7025433333333333">
        <ele>575.4999999999986</ele>
        <time>2013-11-09T15:51:04.87</time>
      </trkpt>
      <trkpt lat="38.405926666666666" lon="-0.70243">
        <ele>574.7999999999986</ele>
        <time>2013-11-09T15:51:05.87</time>
      </trkpt>
      <trkpt lat="38.405815" lon="-0.7023533333333333">
        <ele>574.3999999999986</ele>
        <time>2013-11-09T15:51:06.89</time>
      </trkpt>
      <trkpt lat="38.40571166666667" lon="-0.7022866666666666">
        <ele>573.6999999999986</ele>
        <time>2013-11-09T15:51:07.87</time>
      </trkpt>
      <trkpt lat="38.40559833333333" lon="-0.702215">
        <ele>572.6999999999986</ele>
        <time>2013-11-09T15:51:08.87</time>
      </trkpt>
      <trkpt lat="38.40548" lon="-0.70213">
        <ele>571.3999999999986</ele>
        <time>2013-11-09T15:51:09.87</time>
      </trkpt>
      <trkpt lat="38.405343333333334" lon="-0.702015">
        <ele>570.6999999999986</ele>
        <time>2013-11-09T15:51:10.87</time>
      </trkpt>
      <trkpt lat="38.40522" lon="-0.7018866666666667">
        <ele>570.0999999999985</ele>
        <time>2013-11-09T15:51:11.87</time>
      </trkpt>
      <trkpt lat="38.405115" lon="-0.7017616666666666">
        <ele>569.7999999999986</ele>
        <time>2013-11-09T15:51:12.87</time>
      </trkpt>
      <trkpt lat="38.40501833333333" lon="-0.7016416666666667">
        <ele>569.8999999999986</ele>
        <time>2013-11-09T15:51:13.86</time>
      </trkpt>
      <trkpt lat="38.404916666666665" lon="-0.7015316666666667">
        <ele>569.8999999999986</ele>
        <time>2013-11-09T15:51:14.87</time>
      </trkpt>
      <trkpt lat="38.404806666666666" lon="-0.7014216666666666">
        <ele>569.3999999999986</ele>
        <time>2013-11-09T15:51:15.87</time>
      </trkpt>
      <trkpt lat="38.40468333333333" lon="-0.7013">
        <ele>568.5999999999987</ele>
        <time>2013-11-09T15:51:16.87</time>
      </trkpt>
      <trkpt lat="38.40455333333333" lon="-0.7011733333333333">
        <ele>567.6999999999987</ele>
        <time>2013-11-09T15:51:17.86</time>
      </trkpt>
      <trkpt lat="38.40443" lon="-0.7010533333333334">
        <ele>566.9999999999986</ele>
        <time>2013-11-09T15:51:18.82</time>
      </trkpt>
      <trkpt lat="38.404315" lon="-0.7009383333333333">
        <ele>566.5999999999987</ele>
        <time>2013-11-09T15:51:19.87</time>
      </trkpt>
      <trkpt lat="38.40421333333333" lon="-0.7008333333333333">
        <ele>566.2999999999987</ele>
        <time>2013-11-09T15:51:20.82</time>
      </trkpt>
      <trkpt lat="38.40410333333333" lon="-0.7007233333333333">
        <ele>565.5999999999987</ele>
        <time>2013-11-09T15:51:21.80</time>
      </trkpt>
      <trkpt lat="38.403978333333335" lon="-0.700595">
        <ele>564.1999999999987</ele>
        <time>2013-11-09T15:51:22.87</time>
      </trkpt>
      <trkpt lat="38.40385166666667" lon="-0.7004516666666666">
        <ele>562.8999999999987</ele>
        <time>2013-11-09T15:51:23.85</time>
      </trkpt>
      <trkpt lat="38.40374" lon="-0.7003033333333334">
        <ele>561.6999999999987</ele>
        <time>2013-11-09T15:51:24.85</time>
      </trkpt>
      <trkpt lat="38.40365" lon="-0.7001733333333333">
        <ele>560.8999999999987</ele>
        <time>2013-11-09T15:51:25.83</time>
      </trkpt>
      <trkpt lat="38.403565" lon="-0.7000466666666667">
        <ele>560.4999999999987</ele>
        <time>2013-11-09T15:51:26.86</time>
      </trkpt>
      <trkpt lat="38.40348" lon="-0.6999216666666667">
        <ele>559.9999999999987</ele>
        <time>2013-11-09T15:51:27.87</time>
      </trkpt>
      <trkpt lat="38.40338666666667" lon="-0.6997933333333334">
        <ele>558.5999999999988</ele>
        <time>2013-11-09T15:51:28.95</time>
      </trkpt>
      <trkpt lat="38.40327666666666" lon="-0.6996483333333334">
        <ele>556.9999999999987</ele>
        <time>2013-11-09T15:51:29.87</time>
      </trkpt>
      <trkpt lat="38.40315666666667" lon="-0.6994783333333333">
        <ele>555.8999999999987</ele>
        <time>2013-11-09T15:51:30.83</time>
      </trkpt>
      <trkpt lat="38.403025" lon="-0.6992916666666668">
        <ele>554.9999999999987</ele>
        <time>2013-11-09T15:51:31.87</time>
      </trkpt>
      <trkpt lat="38.402921666666664" lon="-0.6991483333333334">
        <ele>555.1999999999988</ele>
        <time>2013-11-09T15:51:32.86</time>
      </trkpt>
      <trkpt lat="38.402825" lon="-0.6990316666666666">
        <ele>555.3999999999988</ele>
        <time>2013-11-09T15:51:33.87</time>
      </trkpt>
      <trkpt lat="38.402721666666665" lon="-0.6989249999999999">
        <ele>555.1999999999988</ele>
        <time>2013-11-09T15:51:34.87</time>
      </trkpt>
      <trkpt lat="38.40261" lon="-0.6988249999999999">
        <ele>554.7999999999988</ele>
        <time>2013-11-09T15:51:35.82</time>
      </trkpt>
      <trkpt lat="38.40248666666667" lon="-0.6987183333333333">
        <ele>554.7999999999988</ele>
        <time>2013-11-09T15:51:36.87</time>
      </trkpt>
      <trkpt lat="38.40237" lon="-0.69862">
        <ele>555.1999999999988</ele>
        <time>2013-11-09T15:51:37.87</time>
      </trkpt>
      <trkpt lat="38.40226333333333" lon="-0.69853">
        <ele>555.4999999999987</ele>
        <time>2013-11-09T15:51:38.87</time>
      </trkpt>
      <trkpt lat="38.402165" lon="-0.6984316666666667">
        <ele>555.6999999999988</ele>
        <time>2013-11-09T15:51:39.87</time>
      </trkpt>
      <trkpt lat="38.40207" lon="-0.6983216666666666">
        <ele>555.6999999999988</ele>
        <time>2013-11-09T15:51:40.85</time>
      </trkpt>
      <trkpt lat="38.40197333333333" lon="-0.6981883333333333">
        <ele>555.5999999999988</ele>
        <time>2013-11-09T15:51:41.87</time>
      </trkpt>
      <trkpt lat="38.40188833333333" lon="-0.6980383333333333">
        <ele>554.9999999999987</ele>
        <time>2013-11-09T15:51:42.87</time>
      </trkpt>
      <trkpt lat="38.401825" lon="-0.6978416666666667">
        <ele>554.3999999999987</ele>
        <time>2013-11-09T15:51:43.87</time>
      </trkpt>
      <trkpt lat="38.40176666666667" lon="-0.6976466666666667">
        <ele>553.7999999999987</ele>
        <time>2013-11-09T15:51:44.87</time>
      </trkpt>
      <trkpt lat="38.40173166666667" lon="-0.6974750000000001">
        <ele>553.1999999999987</ele>
        <time>2013-11-09T15:51:45.88</time>
      </trkpt>
      <trkpt lat="38.40170833333333" lon="-0.6973083333333334">
        <ele>552.5999999999987</ele>
        <time>2013-11-09T15:51:46.87</time>
      </trkpt>
      <trkpt lat="38.401691666666665" lon="-0.6971366666666667">
        <ele>552.1999999999987</ele>
        <time>2013-11-09T15:51:47.87</time>
      </trkpt>
      <trkpt lat="38.40168166666667" lon="-0.6969666666666666">
        <ele>551.9999999999986</ele>
        <time>2013-11-09T15:51:48.87</time>
      </trkpt>
      <trkpt lat="38.401673333333335" lon="-0.6967949999999999">
        <ele>551.8999999999986</ele>
        <time>2013-11-09T15:51:49.87</time>
      </trkpt>
      <trkpt lat="38.401696666666666" lon="-0.6966199999999999">
        <ele>551.3999999999986</ele>
        <time>2013-11-09T15:51:50.88</time>
      </trkpt>
      <trkpt lat="38.40172666666667" lon="-0.696465">
        <ele>550.3999999999986</ele>
        <time>2013-11-09T15:51:51.87</time>
      </trkpt>
      <trkpt lat="38.401761666666665" lon="-0.6963033333333333">
        <ele>548.9999999999986</ele>
        <time>2013-11-09T15:51:52.86</time>
      </trkpt>
      <trkpt lat="38.401795" lon="-0.6961416666666668">
        <ele>547.5999999999987</ele>
        <time>2013-11-09T15:51:53.81</time>
      </trkpt>
      <trkpt lat="38.401831666666666" lon="-0.6959816666666666">
        <ele>546.3999999999986</ele>
        <time>2013-11-09T15:51:54.87</time>
      </trkpt>
      <trkpt lat="38.40186333333333" lon="-0.6958333333333333">
        <ele>544.9999999999986</ele>
        <time>2013-11-09T15:51:55.87</time>
      </trkpt>
      <trkpt lat="38.401893333333334" lon="-0.6957083333333334">
        <ele>543.2999999999986</ele>
        <time>2013-11-09T15:51:56.87</time>
      </trkpt>
      <trkpt lat="38.401925" lon="-0.6956133333333334">
        <ele>541.2999999999986</ele>
        <time>2013-11-09T15:51:57.87</time>
      </trkpt>
      <trkpt lat="38.40195666666666" lon="-0.69553">
        <ele>539.3999999999986</ele>
        <time>2013-11-09T15:51:58.84</time>
      </trkpt>
      <trkpt lat="38.40199166666667" lon="-0.6954433333333333">
        <ele>537.4999999999986</ele>
        <time>2013-11-09T15:51:59.91</time>
      </trkpt>
      <trkpt lat="38.40203666666667" lon="-0.6953600000000001">
        <ele>535.5999999999987</ele>
        <time>2013-11-09T15:52:00.82</time>
      </trkpt>
      <trkpt lat="38.40208" lon="-0.695285">
        <ele>534.0999999999987</ele>
        <time>2013-11-09T15:52:01.84</time>
      </trkpt>
      <trkpt lat="38.40210166666667" lon="-0.6952566666666667">
        <ele>533.8999999999986</ele>
        <time>2013-11-09T15:52:02.87</time>
      </trkpt>
      <trkpt lat="38.402135" lon="-0.6953283333333334">
        <ele>533</ele>
        <time>2013-11-09T15:52:05.83</time>
      </trkpt>
      <trkpt lat="38.40214" lon="-0.6953499999999999">
        <ele>532.8</ele>
        <time>2013-11-09T15:52:06.84</time>
      </trkpt>
      <trkpt lat="38.402163333333334" lon="-0.6953966666666667">
        <ele>532.5999999999999</ele>
        <time>2013-11-09T15:52:07.87</time>
      </trkpt>
      <trkpt lat="38.40213166666667" lon="-0.69542">
        <ele>531.5999999999999</ele>
        <time>2013-11-09T15:52:08.87</time>
      </trkpt>
      <trkpt lat="38.402098333333335" lon="-0.6954633333333333">
        <ele>530.3</ele>
        <time>2013-11-09T15:52:09.96</time>
      </trkpt>
      <trkpt lat="38.40206333333333" lon="-0.6955166666666667">
        <ele>528.3</ele>
        <time>2013-11-09T15:52:10.89</time>
      </trkpt>
      <trkpt lat="38.40203666666667" lon="-0.6955833333333333">
        <ele>526.0999999999999</ele>
        <time>2013-11-09T15:52:11.82</time>
      </trkpt>
      <trkpt lat="38.40201666666667" lon="-0.6956433333333333">
        <ele>523.9999999999999</ele>
        <time>2013-11-09T15:52:12.91</time>
      </trkpt>
      <trkpt lat="38.401995" lon="-0.6956883333333334">
        <ele>521.3999999999999</ele>
        <time>2013-11-09T15:52:13.83</time>
      </trkpt>
      <trkpt lat="38.401975" lon="-0.6957366666666667">
        <ele>518.7999999999998</ele>
        <time>2013-11-09T15:52:14.81</time>
      </trkpt>
      <trkpt lat="38.401983333333334" lon="-0.695755">
        <ele>518.4999999999999</ele>
        <time>2013-11-09T15:52:15.83</time>
      </trkpt>
      <trkpt lat="38.40199333333333" lon="-0.69577">
        <ele>518.1999999999999</ele>
        <time>2013-11-09T15:52:16.87</time>
      </trkpt>
      <trkpt lat="38.402006666666665" lon="-0.6957916666666667">
        <ele>517.8</ele>
        <time>2013-11-09T15:52:17.88</time>
      </trkpt>
      <trkpt lat="38.40202166666667" lon="-0.6958166666666667">
        <ele>517.4</ele>
        <time>2013-11-09T15:52:18.83</time>
      </trkpt>
      <trkpt lat="38.40204166666667" lon="-0.69584">
        <ele>517</ele>
        <time>2013-11-09T15:52:19.91</time>
      </trkpt>
      <trkpt lat="38.40207" lon="-0.6958633333333334">
        <ele>516.6</ele>
        <time>2013-11-09T15:52:20.80</time>
      </trkpt>
      <trkpt lat="38.402098333333335" lon="-0.69589">
        <ele>516.1</ele>
        <time>2013-11-09T15:52:21.85</time>
      </trkpt>
      <trkpt lat="38.40211333333333" lon="-0.6959266666666667">
        <ele>515.6</ele>
        <time>2013-11-09T15:52:22.87</time>
      </trkpt>
      <trkpt lat="38.40213166666667" lon="-0.695965">
        <ele>515.1</ele>
        <time>2013-11-09T15:52:23.96</time>
      </trkpt>
      <trkpt lat="38.402141666666665" lon="-0.6959966666666666">
        <ele>514.6</ele>
        <time>2013-11-09T15:52:24.87</time>
      </trkpt>
      <trkpt lat="38.402145" lon="-0.6960133333333334">
        <ele>514.1</ele>
        <time>2013-11-09T15:52:25.83</time>
      </trkpt>
      <trkpt lat="38.402143333333335" lon="-0.6960533333333333">
        <ele>508.6</ele>
        <time>2013-11-09T15:52:26.82</time>
      </trkpt>
      <trkpt lat="38.402141666666665" lon="-0.6961016666666667">
        <ele>503.70000000000005</ele>
        <time>2013-11-09T15:52:27.87</time>
      </trkpt>
      <trkpt lat="38.40213833333333" lon="-0.6961616666666667">
        <ele>499.40000000000003</ele>
        <time>2013-11-09T15:52:28.87</time>
      </trkpt>
      <trkpt lat="38.40212666666667" lon="-0.6962016666666667">
        <ele>495.50000000000006</ele>
        <time>2013-11-09T15:52:29.87</time>
      </trkpt>
      <trkpt lat="38.40212" lon="-0.6962216666666666">
        <ele>495.20000000000005</ele>
        <time>2013-11-09T15:52:30.87</time>
      </trkpt>
      <trkpt lat="38.402115" lon="-0.6962416666666668">
        <ele>494.80000000000007</ele>
        <time>2013-11-09T15:52:31.88</time>
      </trkpt>
      <trkpt lat="38.40211333333333" lon="-0.6962866666666667">
        <ele>491.1000000000001</ele>
        <time>2013-11-09T15:52:32.87</time>
      </trkpt>
      <trkpt lat="38.402116666666664" lon="-0.6963550000000001">
        <ele>487.80000000000007</ele>
        <time>2013-11-09T15:52:33.87</time>
      </trkpt>
      <trkpt lat="38.40211333333333" lon="-0.6964400000000001">
        <ele>484.70000000000005</ele>
        <time>2013-11-09T15:52:34.87</time>
      </trkpt>
      <trkpt lat="38.402103333333336" lon="-0.69652">
        <ele>481.40000000000003</ele>
        <time>2013-11-09T15:52:35.87</time>
      </trkpt>
      <trkpt lat="38.40211333333333" lon="-0.6965683333333333">
        <ele>478.1</ele>
        <time>2013-11-09T15:52:36.87</time>
      </trkpt>
      <trkpt lat="38.40212666666667" lon="-0.6966133333333333">
        <ele>474.8</ele>
        <time>2013-11-09T15:52:37.87</time>
      </trkpt>
      <trkpt lat="38.402141666666665" lon="-0.6966566666666666">
        <ele>471.5</ele>
        <time>2013-11-09T15:52:38.87</time>
      </trkpt>
      <trkpt lat="38.402136666666664" lon="-0.6967016666666667">
        <ele>468.3</ele>
        <time>2013-11-09T15:52:39.87</time>
      </trkpt>
      <trkpt lat="38.40212666666667" lon="-0.696755">
        <ele>465.6</ele>
        <time>2013-11-09T15:52:40.87</time>
      </trkpt>
      <trkpt lat="38.40211" lon="-0.6968183333333333">
        <ele>463.8</ele>
        <time>2013-11-09T15:52:41.87</time>
      </trkpt>
      <trkpt lat="38.40202166666667" lon="-0.6968716666666667">
        <ele>462</ele>
        <time>2013-11-09T15:52:42.86</time>
      </trkpt>
      <trkpt lat="38.401891666666664" lon="-0.6969150000000001">
        <ele>461.5</ele>
        <time>2013-11-09T15:52:43.87</time>
      </trkpt>
      <trkpt lat="38.401741666666666" lon="-0.6969416666666667">
        <ele>459.9</ele>
        <time>2013-11-09T15:52:44.87</time>
      </trkpt>
      <trkpt lat="38.401585" lon="-0.6969433333333334">
        <ele>457.5</ele>
        <time>2013-11-09T15:52:45.87</time>
      </trkpt>
      <trkpt lat="38.40144333333333" lon="-0.6969333333333334">
        <ele>454.6</ele>
        <time>2013-11-09T15:52:47.10</time>
      </trkpt>
      <trkpt lat="38.401313333333334" lon="-0.6969216666666667">
        <ele>451.20000000000005</ele>
        <time>2013-11-09T15:52:47.87</time>
      </trkpt>
      <trkpt lat="38.401201666666665" lon="-0.6969083333333334">
        <ele>448.20000000000005</ele>
        <time>2013-11-09T15:52:48.87</time>
      </trkpt>
      <trkpt lat="38.401091666666666" lon="-0.69689">
        <ele>445.6</ele>
        <time>2013-11-09T15:52:49.87</time>
      </trkpt>
      <trkpt lat="38.40098833333333" lon="-0.6968633333333333">
        <ele>443.40000000000003</ele>
        <time>2013-11-09T15:52:50.87</time>
      </trkpt>
      <trkpt lat="38.400888333333334" lon="-0.6968416666666666">
        <ele>441.70000000000005</ele>
        <time>2013-11-09T15:52:51.87</time>
      </trkpt>
      <trkpt lat="38.400803333333336" lon="-0.696825">
        <ele>440.80000000000007</ele>
        <time>2013-11-09T15:52:52.87</time>
      </trkpt>
      <trkpt lat="38.40071666666667" lon="-0.6968183333333333">
        <ele>440.00000000000006</ele>
        <time>2013-11-09T15:52:53.89</time>
      </trkpt>
      <trkpt lat="38.40063333333333" lon="-0.6968449999999999">
        <ele>439.1000000000001</ele>
        <time>2013-11-09T15:52:54.87</time>
      </trkpt>
      <trkpt lat="38.400551666666665" lon="-0.6968716666666667">
        <ele>437.9000000000001</ele>
        <time>2013-11-09T15:52:55.87</time>
      </trkpt>
      <trkpt lat="38.40047166666667" lon="-0.6969">
        <ele>436.9000000000001</ele>
        <time>2013-11-09T15:52:56.87</time>
      </trkpt>
      <trkpt lat="38.40038833333333" lon="-0.6969316666666666">
        <ele>436.4000000000001</ele>
        <time>2013-11-09T15:52:57.87</time>
      </trkpt>
      <trkpt lat="38.400288333333336" lon="-0.6969583333333333">
        <ele>436.0000000000001</ele>
        <time>2013-11-09T15:52:58.87</time>
      </trkpt>
      <trkpt lat="38.400185" lon="-0.6969783333333334">
        <ele>435.2000000000001</ele>
        <time>2013-11-09T15:52:59.87</time>
      </trkpt>
      <trkpt lat="38.400058333333334" lon="-0.6969883333333333">
        <ele>434.1000000000001</ele>
        <time>2013-11-09T15:53:00.87</time>
      </trkpt>
      <trkpt lat="38.39991333333333" lon="-0.6969516666666667">
        <ele>433.00000000000006</ele>
        <time>2013-11-09T15:53:01.88</time>
      </trkpt>
      <trkpt lat="38.399775" lon="-0.6969">
        <ele>432.20000000000005</ele>
        <time>2013-11-09T15:53:02.87</time>
      </trkpt>
      <trkpt lat="38.39964" lon="-0.6968233333333332">
        <ele>431.6</ele>
        <time>2013-11-09T15:53:03.88</time>
      </trkpt>
      <trkpt lat="38.39957833333333" lon="-0.6966783333333333">
        <ele>430.1</ele>
        <time>2013-11-09T15:53:04.88</time>
      </trkpt>
      <trkpt lat="38.39952666666667" lon="-0.69655">
        <ele>428.40000000000003</ele>
        <time>2013-11-09T15:53:05.87</time>
      </trkpt>
      <trkpt lat="38.39948" lon="-0.69643">
        <ele>427.1</ele>
        <time>2013-11-09T15:53:06.87</time>
      </trkpt>
      <trkpt lat="38.399436666666666" lon="-0.6962983333333334">
        <ele>425.1</ele>
        <time>2013-11-09T15:53:07.87</time>
      </trkpt>
      <trkpt lat="38.39938333333333" lon="-0.69616">
        <ele>423.3</ele>
        <time>2013-11-09T15:53:08.94</time>
      </trkpt>
      <trkpt lat="38.399325" lon="-0.6959983333333334">
        <ele>421.8</ele>
        <time>2013-11-09T15:53:09.87</time>
      </trkpt>
      <trkpt lat="38.399295" lon="-0.69582">
        <ele>420.1</ele>
        <time>2013-11-09T15:53:10.87</time>
      </trkpt>
      <trkpt lat="38.39929" lon="-0.69565">
        <ele>418.3</ele>
        <time>2013-11-09T15:53:11.83</time>
      </trkpt>
      <trkpt lat="38.399316666666664" lon="-0.695515">
        <ele>416.90000000000003</ele>
        <time>2013-11-09T15:53:12.87</time>
      </trkpt>
      <trkpt lat="38.39937333333334" lon="-0.69539">
        <ele>415.90000000000003</ele>
        <time>2013-11-09T15:53:13.87</time>
      </trkpt>
      <trkpt lat="38.399431666666665" lon="-0.6953433333333333">
        <ele>415.6</ele>
        <time>2013-11-09T15:53:14.87</time>
      </trkpt>
      <trkpt lat="38.39947333333333" lon="-0.6953266666666666">
        <ele>415.3</ele>
        <time>2013-11-09T15:53:15.87</time>
      </trkpt>
      <trkpt lat="38.39951833333333" lon="-0.695335">
        <ele>415.40000000000003</ele>
        <time>2013-11-09T15:53:16.87</time>
      </trkpt>
      <trkpt lat="38.39956" lon="-0.6953783333333334">
        <ele>415.50000000000006</ele>
        <time>2013-11-09T15:53:17.87</time>
      </trkpt>
      <trkpt lat="38.39955666666667" lon="-0.6954583333333333">
        <ele>416.40000000000003</ele>
        <time>2013-11-09T15:53:18.87</time>
      </trkpt>
      <trkpt lat="38.399535" lon="-0.6955483333333333">
        <ele>417.1</ele>
        <time>2013-11-09T15:53:19.87</time>
      </trkpt>
      <trkpt lat="38.39951" lon="-0.6956366666666667">
        <ele>418</ele>
        <time>2013-11-09T15:53:20.87</time>
      </trkpt>
      <trkpt lat="38.39948833333333" lon="-0.6957183333333333">
        <ele>419.4</ele>
        <time>2013-11-09T15:53:21.82</time>
      </trkpt>
      <trkpt lat="38.39949" lon="-0.6957566666666666">
        <ele>419.7</ele>
        <time>2013-11-09T15:53:22.87</time>
      </trkpt>
      <trkpt lat="38.399496666666664" lon="-0.695765">
        <ele>419.9</ele>
        <time>2013-11-09T15:53:23.87</time>
      </trkpt>
      <trkpt lat="38.39950666666667" lon="-0.6957933333333333">
        <ele>420.09999999999997</ele>
        <time>2013-11-09T15:53:24.87</time>
      </trkpt>
      <trkpt lat="38.39951" lon="-0.6958366666666667">
        <ele>421.99999999999994</ele>
        <time>2013-11-09T15:53:25.87</time>
      </trkpt>
      <trkpt lat="38.39949" lon="-0.695905">
        <ele>423.09999999999997</ele>
        <time>2013-11-09T15:53:26.88</time>
      </trkpt>
      <trkpt lat="38.39943" lon="-0.6959866666666666">
        <ele>424.09999999999997</ele>
        <time>2013-11-09T15:53:27.87</time>
      </trkpt>
      <trkpt lat="38.39935166666667" lon="-0.6960566666666667">
        <ele>425.4</ele>
        <time>2013-11-09T15:53:28.87</time>
      </trkpt>
      <trkpt lat="38.39928" lon="-0.6961133333333334">
        <ele>426.5</ele>
        <time>2013-11-09T15:53:29.87</time>
      </trkpt>
      <trkpt lat="38.399233333333335" lon="-0.6961833333333334">
        <ele>427.4</ele>
        <time>2013-11-09T15:53:30.82</time>
      </trkpt>
      <trkpt lat="38.399215" lon="-0.6962466666666667">
        <ele>427.79999999999995</ele>
        <time>2013-11-09T15:53:31.87</time>
      </trkpt>
      <trkpt lat="38.39926166666667" lon="-0.6963050000000001">
        <ele>427.4</ele>
        <time>2013-11-09T15:53:32.87</time>
      </trkpt>
      <trkpt lat="38.39933166666667" lon="-0.6963116666666667">
        <ele>426.7</ele>
        <time>2013-11-09T15:53:33.83</time>
      </trkpt>
      <trkpt lat="38.399395" lon="-0.6962499999999999">
        <ele>426.2</ele>
        <time>2013-11-09T15:53:34.87</time>
      </trkpt>
      <trkpt lat="38.39944" lon="-0.696135">
        <ele>425.4</ele>
        <time>2013-11-09T15:53:35.87</time>
      </trkpt>
      <trkpt lat="38.39948166666667" lon="-0.6960116666666667">
        <ele>424.7</ele>
        <time>2013-11-09T15:53:36.87</time>
      </trkpt>
      <trkpt lat="38.39951666666666" lon="-0.6959016666666666">
        <ele>423.9</ele>
        <time>2013-11-09T15:53:37.87</time>
      </trkpt>
      <trkpt lat="38.39955" lon="-0.6958116666666666">
        <ele>423</ele>
        <time>2013-11-09T15:53:38.87</time>
      </trkpt>
      <trkpt lat="38.399595" lon="-0.6957633333333334">
        <ele>421.8</ele>
        <time>2013-11-09T15:53:39.87</time>
      </trkpt>
      <trkpt lat="38.39964166666667" lon="-0.6957183333333333">
        <ele>420.6</ele>
        <time>2013-11-09T15:53:40.87</time>
      </trkpt>
      <trkpt lat="38.39969333333333" lon="-0.6956683333333333">
        <ele>419.5</ele>
        <time>2013-11-09T15:53:41.87</time>
      </trkpt>
      <trkpt lat="38.399735" lon="-0.6955866666666667">
        <ele>418.3</ele>
        <time>2013-11-09T15:53:42.87</time>
      </trkpt>
      <trkpt lat="38.39976" lon="-0.6954499999999999">
        <ele>417</ele>
        <time>2013-11-09T15:53:43.87</time>
      </trkpt>
      <trkpt lat="38.39978" lon="-0.695315">
        <ele>415.8</ele>
        <time>2013-11-09T15:53:44.87</time>
      </trkpt>
      <trkpt lat="38.39975833333333" lon="-0.6951683333333333">
        <ele>414.3</ele>
        <time>2013-11-09T15:53:45.87</time>
      </trkpt>
      <trkpt lat="38.399726666666666" lon="-0.6950133333333334">
        <ele>412.90000000000003</ele>
        <time>2013-11-09T15:53:46.82</time>
      </trkpt>
      <trkpt lat="38.39964833333333" lon="-0.6949066666666667">
        <ele>412.90000000000003</ele>
        <time>2013-11-09T15:53:47.87</time>
      </trkpt>
      <trkpt lat="38.39957" lon="-0.6947966666666667">
        <ele>412.40000000000003</ele>
        <time>2013-11-09T15:53:48.87</time>
      </trkpt>
      <trkpt lat="38.39948833333333" lon="-0.6946716666666667">
        <ele>411.20000000000005</ele>
        <time>2013-11-09T15:53:49.87</time>
      </trkpt>
      <trkpt lat="38.39942333333333" lon="-0.6945250000000001">
        <ele>408.6</ele>
        <time>2013-11-09T15:53:50.87</time>
      </trkpt>
      <trkpt lat="38.399455" lon="-0.6943583333333333">
        <ele>406.40000000000003</ele>
        <time>2013-11-09T15:53:51.89</time>
      </trkpt>
      <trkpt lat="38.39956333333333" lon="-0.6942816666666667">
        <ele>402.8</ele>
        <time>2013-11-09T15:53:52.87</time>
      </trkpt>
      <trkpt lat="38.399658333333335" lon="-0.6942483333333332">
        <ele>400.3</ele>
        <time>2013-11-09T15:53:53.87</time>
      </trkpt>
      <trkpt lat="38.399735" lon="-0.6942716666666667">
        <ele>398.1</ele>
        <time>2013-11-09T15:53:54.80</time>
      </trkpt>
      <trkpt lat="38.39976333333333" lon="-0.6943083333333333">
        <ele>398</ele>
        <time>2013-11-09T15:53:55.87</time>
      </trkpt>
      <trkpt lat="38.399775" lon="-0.6943333333333332">
        <ele>397.8</ele>
        <time>2013-11-09T15:53:56.91</time>
      </trkpt>
      <trkpt lat="38.39979666666667" lon="-0.6943533333333334">
        <ele>397.6</ele>
        <time>2013-11-09T15:53:57.87</time>
      </trkpt>
      <trkpt lat="38.39986833333333" lon="-0.6943316666666667">
        <ele>395</ele>
        <time>2013-11-09T15:53:58.87</time>
      </trkpt>
      <trkpt lat="38.399948333333334" lon="-0.6942583333333334">
        <ele>392.2</ele>
        <time>2013-11-09T15:53:59.94</time>
      </trkpt>
      <trkpt lat="38.40001" lon="-0.6941183333333334">
        <ele>389.9</ele>
        <time>2013-11-09T15:54:00.87</time>
      </trkpt>
      <trkpt lat="38.40002" lon="-0.6939483333333333">
        <ele>387.9</ele>
        <time>2013-11-09T15:54:01.87</time>
      </trkpt>
      <trkpt lat="38.399973333333335" lon="-0.6937616666666667">
        <ele>386.5</ele>
        <time>2013-11-09T15:54:02.88</time>
      </trkpt>
      <trkpt lat="38.399885" lon="-0.6935699999999999">
        <ele>385.4</ele>
        <time>2013-11-09T15:54:03.87</time>
      </trkpt>
      <trkpt lat="38.39978" lon="-0.6933849999999999">
        <ele>384.09999999999997</ele>
        <time>2013-11-09T15:54:04.87</time>
      </trkpt>
      <trkpt lat="38.39968666666667" lon="-0.6931966666666667">
        <ele>382.49999999999994</ele>
        <time>2013-11-09T15:54:05.87</time>
      </trkpt>
      <trkpt lat="38.399658333333335" lon="-0.6930283333333332">
        <ele>380.3999999999999</ele>
        <time>2013-11-09T15:54:06.87</time>
      </trkpt>
      <trkpt lat="38.39966166666667" lon="-0.6928733333333333">
        <ele>378.8999999999999</ele>
        <time>2013-11-09T15:54:07.87</time>
      </trkpt>
      <trkpt lat="38.39967166666667" lon="-0.6927633333333334">
        <ele>377.49999999999994</ele>
        <time>2013-11-09T15:54:08.87</time>
      </trkpt>
      <trkpt lat="38.399681666666666" lon="-0.6926433333333333">
        <ele>375.8999999999999</ele>
        <time>2013-11-09T15:54:09.82</time>
      </trkpt>
      <trkpt lat="38.39969166666667" lon="-0.6925433333333333">
        <ele>373.99999999999994</ele>
        <time>2013-11-09T15:54:10.88</time>
      </trkpt>
      <trkpt lat="38.399703333333335" lon="-0.6924433333333333">
        <ele>372.29999999999995</ele>
        <time>2013-11-09T15:54:11.87</time>
      </trkpt>
      <trkpt lat="38.39973666666667" lon="-0.6923466666666667">
        <ele>370.79999999999995</ele>
        <time>2013-11-09T15:54:12.87</time>
      </trkpt>
      <trkpt lat="38.399771666666666" lon="-0.692245">
        <ele>369.29999999999995</ele>
        <time>2013-11-09T15:54:13.87</time>
      </trkpt>
      <trkpt lat="38.399813333333334" lon="-0.6921783333333333">
        <ele>367.79999999999995</ele>
        <time>2013-11-09T15:54:14.87</time>
      </trkpt>
      <trkpt lat="38.399838333333335" lon="-0.6921533333333334">
        <ele>366.4</ele>
        <time>2013-11-09T15:54:15.88</time>
      </trkpt>
      <trkpt lat="38.39986666666667" lon="-0.6921283333333333">
        <ele>366.4</ele>
        <time>2013-11-09T15:54:16.87</time>
      </trkpt>
      <trkpt lat="38.399845" lon="-0.6922383333333334">
        <ele>366.09999999999997</ele>
        <time>2013-11-09T15:54:17.87</time>
      </trkpt>
      <trkpt lat="38.399793333333335" lon="-0.69234">
        <ele>365.79999999999995</ele>
        <time>2013-11-09T15:54:18.87</time>
      </trkpt>
      <trkpt lat="38.399723333333334" lon="-0.692425">
        <ele>365.99999999999994</ele>
        <time>2013-11-09T15:54:19.87</time>
      </trkpt>
      <trkpt lat="38.39966" lon="-0.692485">
        <ele>366.29999999999995</ele>
        <time>2013-11-09T15:54:20.87</time>
      </trkpt>
      <trkpt lat="38.399625" lon="-0.6925333333333333">
        <ele>366.19999999999993</ele>
        <time>2013-11-09T15:54:21.87</time>
      </trkpt>
      <trkpt lat="38.399618333333336" lon="-0.69258">
        <ele>365.5999999999999</ele>
        <time>2013-11-09T15:54:22.87</time>
      </trkpt>
      <trkpt lat="38.39960333333333" lon="-0.6926316666666666">
        <ele>365.0999999999999</ele>
        <time>2013-11-09T15:54:23.87</time>
      </trkpt>
      <trkpt lat="38.39959" lon="-0.69269">
        <ele>364.2999999999999</ele>
        <time>2013-11-09T15:54:24.87</time>
      </trkpt>
      <trkpt lat="38.39957666666667" lon="-0.692745">
        <ele>363.3999999999999</ele>
        <time>2013-11-09T15:54:25.87</time>
      </trkpt>
      <trkpt lat="38.39955166666667" lon="-0.6927800000000001">
        <ele>363.2999999999999</ele>
        <time>2013-11-09T15:54:26.87</time>
      </trkpt>
      <trkpt lat="38.399528333333336" lon="-0.6928116666666667">
        <ele>362.1999999999999</ele>
        <time>2013-11-09T15:54:27.86</time>
      </trkpt>
      <trkpt lat="38.399501666666666" lon="-0.692845">
        <ele>360.6999999999999</ele>
        <time>2013-11-09T15:54:28.92</time>
      </trkpt>
      <trkpt lat="38.39948833333333" lon="-0.692885">
        <ele>358.6999999999999</ele>
        <time>2013-11-09T15:54:29.87</time>
      </trkpt>
      <trkpt lat="38.39948666666667" lon="-0.6929466666666666">
        <ele>355.89999999999986</ele>
        <time>2013-11-09T15:54:30.87</time>
      </trkpt>
      <trkpt lat="38.39949166666667" lon="-0.693015">
        <ele>352.6999999999999</ele>
        <time>2013-11-09T15:54:31.87</time>
      </trkpt>
      <trkpt lat="38.39950833333333" lon="-0.693075">
        <ele>349.9999999999999</ele>
        <time>2013-11-09T15:54:32.86</time>
      </trkpt>
      <trkpt lat="38.39953333333333" lon="-0.6931066666666666">
        <ele>349.7999999999999</ele>
        <time>2013-11-09T15:54:33.81</time>
      </trkpt>
      <trkpt lat="38.39955333333333" lon="-0.6931316666666666">
        <ele>349.5999999999999</ele>
        <time>2013-11-09T15:54:34.87</time>
      </trkpt>
      <trkpt lat="38.399575" lon="-0.69316">
        <ele>346.8999999999999</ele>
        <time>2013-11-09T15:54:35.87</time>
      </trkpt>
      <trkpt lat="38.39959833333333" lon="-0.6931849999999999">
        <ele>346.5999999999999</ele>
        <time>2013-11-09T15:54:36.97</time>
      </trkpt>
      <trkpt lat="38.39962833333333" lon="-0.6932166666666667">
        <ele>343.69999999999993</ele>
        <time>2013-11-09T15:54:37.86</time>
      </trkpt>
      <trkpt lat="38.39966666666667" lon="-0.6932416666666666">
        <ele>341.29999999999995</ele>
        <time>2013-11-09T15:54:38.86</time>
      </trkpt>
      <trkpt lat="38.399701666666665" lon="-0.69326">
        <ele>341.09999999999997</ele>
        <time>2013-11-09T15:54:39.87</time>
      </trkpt>
      <trkpt lat="38.39973333333333" lon="-0.69328">
        <ele>340.79999999999995</ele>
        <time>2013-11-09T15:54:40.87</time>
      </trkpt>
      <trkpt lat="38.399765" lon="-0.6933033333333333">
        <ele>337.9</ele>
        <time>2013-11-09T15:54:41.95</time>
      </trkpt>
      <trkpt lat="38.39979833333334" lon="-0.6933349999999999">
        <ele>335</ele>
        <time>2013-11-09T15:54:42.86</time>
      </trkpt>
      <trkpt lat="38.39983" lon="-0.6933616666666667">
        <ele>334.7</ele>
        <time>2013-11-09T15:54:43.96</time>
      </trkpt>
      <trkpt lat="38.399855" lon="-0.6933733333333334">
        <ele>334.4</ele>
        <time>2013-11-09T15:54:44.87</time>
      </trkpt>
      <trkpt lat="38.39988" lon="-0.6933866666666667">
        <ele>334.09999999999997</ele>
        <time>2013-11-09T15:54:45.87</time>
      </trkpt>
      <trkpt lat="38.399908333333336" lon="-0.6933983333333333">
        <ele>333.79999999999995</ele>
        <time>2013-11-09T15:54:46.86</time>
      </trkpt>
      <trkpt lat="38.399935" lon="-0.6934116666666666">
        <ele>333.49999999999994</ele>
        <time>2013-11-09T15:54:47.87</time>
      </trkpt>
      <trkpt lat="38.399965" lon="-0.693425">
        <ele>333.09999999999997</ele>
        <time>2013-11-09T15:54:48.91</time>
      </trkpt>
      <trkpt lat="38.399993333333335" lon="-0.6934400000000001">
        <ele>332.7</ele>
        <time>2013-11-09T15:54:49.98</time>
      </trkpt>
      <trkpt lat="38.40002" lon="-0.6934633333333333">
        <ele>332.4</ele>
        <time>2013-11-09T15:54:50.83</time>
      </trkpt>
      <trkpt lat="38.400045" lon="-0.693485">
        <ele>332.09999999999997</ele>
        <time>2013-11-09T15:54:51.83</time>
      </trkpt>
      <trkpt lat="38.400045" lon="-0.693485">
        <ele>332.09999999999997</ele>
        <time>2013-11-09T15:54:58.56</time>
      </trkpt>
    </trkseg>
  </trk>
</gpx>